<?xml version='1.0' encoding='UTF-8'?><gpx version="1.1" creator="JPX - https://github.com/jenetics/jpx" xmlns="http://www.topografix.com/GPX/1/1"><trk><trkseg><trkpt lat="37.5662767" lon="15.0465267"><ele>408.0</ele><time>2026-03-22T09:16:03.78Z</time></trkpt><trkpt lat="37.5663433" lon="15.0465067"><ele>408.0</ele><time>2026-03-22T09:16:04.779Z</time></trkpt><trkpt lat="37.5664233" lon="15.046475"><ele>408.0</ele><time>2026-03-22T09:16:05.779Z</time></trkpt><trkpt lat="37.5665117" lon="15.0464467"><ele>408.0</ele><time>2026-03-22T09:16:06.78Z</time></trkpt><trkpt lat="37.5666067" lon="15.046415"><ele>408.0</ele><time>2026-03-22T09:16:07.779Z</time></trkpt><trkpt lat="37.566705" lon="15.0463817"><ele>408.0</ele><time>2026-03-22T09:16:08.779Z</time></trkpt><trkpt lat="37.5668083" lon="15.04635"><ele>408.0</ele><time>2026-03-22T09:16:09.78Z</time></trkpt><trkpt lat="37.5669183" lon="15.0463133"><ele>408.0</ele><time>2026-03-22T09:16:10.78Z</time></trkpt><trkpt lat="37.5670417" lon="15.0462717"><ele>408.0</ele><time>2026-03-22T09:16:11.779Z</time></trkpt><trkpt lat="37.5671633" lon="15.0462383"><ele>408.0</ele><time>2026-03-22T09:16:12.78Z</time></trkpt><trkpt lat="37.5672883" lon="15.0462033"><ele>409.0</ele><time>2026-03-22T09:16:13.78Z</time></trkpt><trkpt lat="37.5674183" lon="15.0461683"><ele>410.0</ele><time>2026-03-22T09:16:14.779Z</time></trkpt><trkpt lat="37.5675567" lon="15.0461317"><ele>411.0</ele><time>2026-03-22T09:16:15.78Z</time></trkpt><trkpt lat="37.567695" lon="15.046095"><ele>412.0</ele><time>2026-03-22T09:16:16.78Z</time></trkpt><trkpt lat="37.5678383" lon="15.0460533"><ele>413.25</ele><time>2026-03-22T09:16:17.78Z</time></trkpt><trkpt lat="37.567985" lon="15.046015"><ele>414.5</ele><time>2026-03-22T09:16:18.779Z</time></trkpt><trkpt lat="37.5681283" lon="15.0459717"><ele>415.75</ele><time>2026-03-22T09:16:19.78Z</time></trkpt><trkpt lat="37.5682717" lon="15.0459317"><ele>417.0</ele><time>2026-03-22T09:16:20.779Z</time></trkpt><trkpt lat="37.5684083" lon="15.0458883"><ele>417.0</ele><time>2026-03-22T09:16:21.779Z</time></trkpt><trkpt lat="37.5685367" lon="15.0458533"><ele>417.0</ele><time>2026-03-22T09:16:22.779Z</time></trkpt><trkpt lat="37.5686517" lon="15.0458217"><ele>417.0</ele><time>2026-03-22T09:16:23.78Z</time></trkpt><trkpt lat="37.5687583" lon="15.045795"><ele>417.0</ele><time>2026-03-22T09:16:24.779Z</time></trkpt><trkpt lat="37.568855" lon="15.0457683"><ele>417.40000000000003</ele><time>2026-03-22T09:16:25.78Z</time></trkpt><trkpt lat="37.5689467" lon="15.0457417"><ele>417.8</ele><time>2026-03-22T09:16:26.78Z</time></trkpt><trkpt lat="37.5690433" lon="15.0457167"><ele>418.2</ele><time>2026-03-22T09:16:27.78Z</time></trkpt><trkpt lat="37.569135" lon="15.0456933"><ele>418.6</ele><time>2026-03-22T09:16:28.779Z</time></trkpt><trkpt lat="37.569225" lon="15.045665"><ele>419.0</ele><time>2026-03-22T09:16:29.78Z</time></trkpt><trkpt lat="37.5693083" lon="15.0456433"><ele>418.99999999999994</ele><time>2026-03-22T09:16:30.779Z</time></trkpt><trkpt lat="37.569385" lon="15.0456233"><ele>419.0</ele><time>2026-03-22T09:16:31.779Z</time></trkpt><trkpt lat="37.5694517" lon="15.0456117"><ele>419.0</ele><time>2026-03-22T09:16:32.779Z</time></trkpt><trkpt lat="37.569545" lon="15.04561"><ele>419.0</ele><time>2026-03-22T09:16:34.78Z</time></trkpt><trkpt lat="37.5695983" lon="15.04566"><ele>418.99999999999994</ele><time>2026-03-22T09:16:36.78Z</time></trkpt><trkpt lat="37.56962" lon="15.0458167"><ele>419.0</ele><time>2026-03-22T09:16:38.779Z</time></trkpt><trkpt lat="37.5696383" lon="15.0459233"><ele>419.0</ele><time>2026-03-22T09:16:39.78Z</time></trkpt><trkpt lat="37.5696617" lon="15.0460433"><ele>419.0</ele><time>2026-03-22T09:16:40.779Z</time></trkpt><trkpt lat="37.569685" lon="15.04616"><ele>419.0</ele><time>2026-03-22T09:16:41.779Z</time></trkpt><trkpt lat="37.5697083" lon="15.0462717"><ele>419.0</ele><time>2026-03-22T09:16:42.779Z</time></trkpt><trkpt lat="37.569725" lon="15.0463833"><ele>419.0</ele><time>2026-03-22T09:16:43.779Z</time></trkpt><trkpt lat="37.56974" lon="15.0465033"><ele>419.0</ele><time>2026-03-22T09:16:44.78Z</time></trkpt><trkpt lat="37.5697617" lon="15.0466233"><ele>419.0</ele><time>2026-03-22T09:16:45.779Z</time></trkpt><trkpt lat="37.5697817" lon="15.0467417"><ele>419.0</ele><time>2026-03-22T09:16:46.779Z</time></trkpt><trkpt lat="37.5697967" lon="15.0468383"><ele>419.0</ele><time>2026-03-22T09:16:47.779Z</time></trkpt><trkpt lat="37.569805" lon="15.0469867"><ele>419.0</ele><time>2026-03-22T09:16:49.78Z</time></trkpt><trkpt lat="37.5698333" lon="15.0471083"><ele>418.16666666666663</ele><time>2026-03-22T09:16:51.78Z</time></trkpt><trkpt lat="37.5699317" lon="15.04714"><ele>417.3333333333333</ele><time>2026-03-22T09:16:53.779Z</time></trkpt><trkpt lat="37.5699983" lon="15.0471117"><ele>416.5</ele><time>2026-03-22T09:16:54.779Z</time></trkpt><trkpt lat="37.5700767" lon="15.0470633"><ele>415.66666666666663</ele><time>2026-03-22T09:16:55.779Z</time></trkpt><trkpt lat="37.5701583" lon="15.0470167"><ele>414.8333333333333</ele><time>2026-03-22T09:16:56.779Z</time></trkpt><trkpt lat="37.5702467" lon="15.0469617"><ele>414.0</ele><time>2026-03-22T09:16:57.78Z</time></trkpt><trkpt lat="37.5703483" lon="15.0469033"><ele>414.0</ele><time>2026-03-22T09:16:58.78Z</time></trkpt><trkpt lat="37.570455" lon="15.0468383"><ele>414.0</ele><time>2026-03-22T09:16:59.779Z</time></trkpt><trkpt lat="37.570565" lon="15.0467733"><ele>414.0</ele><time>2026-03-22T09:17:00.779Z</time></trkpt><trkpt lat="37.5706783" lon="15.0467033"><ele>414.0</ele><time>2026-03-22T09:17:01.78Z</time></trkpt><trkpt lat="37.5708" lon="15.04663"><ele>415.25</ele><time>2026-03-22T09:17:02.779Z</time></trkpt><trkpt lat="37.5709167" lon="15.04656"><ele>416.5</ele><time>2026-03-22T09:17:03.78Z</time></trkpt><trkpt lat="37.5710367" lon="15.046495"><ele>417.75</ele><time>2026-03-22T09:17:04.779Z</time></trkpt><trkpt lat="37.5711517" lon="15.04642"><ele>419.0</ele><time>2026-03-22T09:17:05.779Z</time></trkpt><trkpt lat="37.57126" lon="15.046355"><ele>419.25</ele><time>2026-03-22T09:17:06.78Z</time></trkpt><trkpt lat="37.5713767" lon="15.0462933"><ele>419.5</ele><time>2026-03-22T09:17:07.78Z</time></trkpt><trkpt lat="37.5714867" lon="15.04623"><ele>419.75</ele><time>2026-03-22T09:17:08.78Z</time></trkpt><trkpt lat="37.5715933" lon="15.0461717"><ele>420.0</ele><time>2026-03-22T09:17:09.78Z</time></trkpt><trkpt lat="37.5716967" lon="15.0461183"><ele>420.0</ele><time>2026-03-22T09:17:10.779Z</time></trkpt><trkpt lat="37.5717867" lon="15.04606"><ele>420.0</ele><time>2026-03-22T09:17:11.78Z</time></trkpt><trkpt lat="37.5718633" lon="15.046"><ele>420.0</ele><time>2026-03-22T09:17:12.78Z</time></trkpt><trkpt lat="37.5719217" lon="15.0459667"><ele>420.0</ele><time>2026-03-22T09:17:13.78Z</time></trkpt><trkpt lat="37.5719967" lon="15.0459617"><ele>420.0</ele><time>2026-03-22T09:17:15.78Z</time></trkpt><trkpt lat="37.5720833" lon="15.0460267"><ele>420.0</ele><time>2026-03-22T09:17:17.779Z</time></trkpt><trkpt lat="37.572135" lon="15.0461017"><ele>420.8333333333333</ele><time>2026-03-22T09:17:18.78Z</time></trkpt><trkpt lat="37.5721783" lon="15.0461833"><ele>421.66666666666663</ele><time>2026-03-22T09:17:19.779Z</time></trkpt><trkpt lat="37.5722183" lon="15.0462633"><ele>422.5</ele><time>2026-03-22T09:17:20.779Z</time></trkpt><trkpt lat="37.5722517" lon="15.0463317"><ele>423.3333333333333</ele><time>2026-03-22T09:17:21.779Z</time></trkpt><trkpt lat="37.5723083" lon="15.0464267"><ele>424.16666666666663</ele><time>2026-03-22T09:17:23.78Z</time></trkpt><trkpt lat="37.5723667" lon="15.04648"><ele>425.0</ele><time>2026-03-22T09:17:25.779Z</time></trkpt><trkpt lat="37.5724633" lon="15.0464267"><ele>424.99999999999994</ele><time>2026-03-22T09:17:27.78Z</time></trkpt><trkpt lat="37.5725283" lon="15.046375"><ele>425.0</ele><time>2026-03-22T09:17:28.78Z</time></trkpt><trkpt lat="37.5725933" lon="15.0463217"><ele>425.0</ele><time>2026-03-22T09:17:29.779Z</time></trkpt><trkpt lat="37.57267" lon="15.04627"><ele>425.0</ele><time>2026-03-22T09:17:30.779Z</time></trkpt><trkpt lat="37.5727383" lon="15.0462233"><ele>424.99999999999994</ele><time>2026-03-22T09:17:31.779Z</time></trkpt><trkpt lat="37.5728067" lon="15.04617"><ele>425.0</ele><time>2026-03-22T09:17:32.78Z</time></trkpt><trkpt lat="37.5728767" lon="15.04613"><ele>425.49999999999994</ele><time>2026-03-22T09:17:33.779Z</time></trkpt><trkpt lat="37.57295" lon="15.0460933"><ele>426.0</ele><time>2026-03-22T09:17:34.78Z</time></trkpt><trkpt lat="37.57303" lon="15.0460433"><ele>426.5</ele><time>2026-03-22T09:17:35.78Z</time></trkpt><trkpt lat="37.5731033" lon="15.0460017"><ele>427.0</ele><time>2026-03-22T09:17:36.779Z</time></trkpt><trkpt lat="37.5731817" lon="15.045965"><ele>427.49999999999994</ele><time>2026-03-22T09:17:37.78Z</time></trkpt><trkpt lat="37.5732517" lon="15.045925"><ele>428.0</ele><time>2026-03-22T09:17:38.78Z</time></trkpt><trkpt lat="37.5733233" lon="15.0458917"><ele>427.99999999999994</ele><time>2026-03-22T09:17:39.779Z</time></trkpt><trkpt lat="37.5733983" lon="15.0458583"><ele>428.0</ele><time>2026-03-22T09:17:40.779Z</time></trkpt><trkpt lat="37.5734833" lon="15.0458233"><ele>428.0</ele><time>2026-03-22T09:17:41.779Z</time></trkpt><trkpt lat="37.5735617" lon="15.0457967"><ele>428.0</ele><time>2026-03-22T09:17:42.78Z</time></trkpt><trkpt lat="37.573635" lon="15.0457533"><ele>427.99999999999994</ele><time>2026-03-22T09:17:43.779Z</time></trkpt><trkpt lat="37.5737" lon="15.0457217"><ele>428.0</ele><time>2026-03-22T09:17:44.78Z</time></trkpt><trkpt lat="37.5738117" lon="15.0456683"><ele>428.8333333333333</ele><time>2026-03-22T09:17:46.779Z</time></trkpt><trkpt lat="37.5738733" lon="15.0456383"><ele>429.66666666666663</ele><time>2026-03-22T09:17:47.779Z</time></trkpt><trkpt lat="37.5739333" lon="15.0456067"><ele>430.5</ele><time>2026-03-22T09:17:48.78Z</time></trkpt><trkpt lat="37.5739917" lon="15.045565"><ele>431.33333333333337</ele><time>2026-03-22T09:17:49.78Z</time></trkpt><trkpt lat="37.5740633" lon="15.0455083"><ele>432.1666666666667</ele><time>2026-03-22T09:17:50.779Z</time></trkpt><trkpt lat="37.5741417" lon="15.0454733"><ele>433.0</ele><time>2026-03-22T09:17:51.779Z</time></trkpt><trkpt lat="37.574225" lon="15.0454267"><ele>433.00000000000006</ele><time>2026-03-22T09:17:52.779Z</time></trkpt><trkpt lat="37.574302" lon="15.0453823"><ele>433.0</ele><time>2026-03-22T09:17:53.779Z</time></trkpt><trkpt lat="37.5743783" lon="15.0453357"><ele>433.0</ele><time>2026-03-22T09:17:54.779Z</time></trkpt><trkpt lat="37.5744532" lon="15.0452922"><ele>433.0</ele><time>2026-03-22T09:17:55.78Z</time></trkpt><trkpt lat="37.5745289" lon="15.0452461"><ele>433.00000000000006</ele><time>2026-03-22T09:17:56.78Z</time></trkpt><trkpt lat="37.5745992" lon="15.0452023"><ele>433.0</ele><time>2026-03-22T09:17:57.78Z</time></trkpt><trkpt lat="37.5746578" lon="15.0451704"><ele>433.2</ele><time>2026-03-22T09:17:58.78Z</time></trkpt><trkpt lat="37.5747439" lon="15.0451271"><ele>433.4</ele><time>2026-03-22T09:18:00.779Z</time></trkpt><trkpt lat="37.5748047" lon="15.0450897"><ele>433.59999999999997</ele><time>2026-03-22T09:18:03.78Z</time></trkpt><trkpt lat="37.5749083" lon="15.045075"><ele>433.79999999999995</ele><time>2026-03-22T09:18:16.779Z</time></trkpt><trkpt lat="37.5750217" lon="15.0451433"><ele>434.0</ele><time>2026-03-22T09:18:18.78Z</time></trkpt><trkpt lat="37.5750917" lon="15.0451883"><ele>434.0</ele><time>2026-03-22T09:18:19.779Z</time></trkpt><trkpt lat="37.575165" lon="15.0452333"><ele>434.0</ele><time>2026-03-22T09:18:20.779Z</time></trkpt><trkpt lat="37.5752383" lon="15.04529"><ele>434.0</ele><time>2026-03-22T09:18:21.779Z</time></trkpt><trkpt lat="37.5753167" lon="15.045345"><ele>434.0</ele><time>2026-03-22T09:18:22.779Z</time></trkpt><trkpt lat="37.5754017" lon="15.0454"><ele>434.0</ele><time>2026-03-22T09:18:23.78Z</time></trkpt><trkpt lat="37.5754933" lon="15.0454667"><ele>433.6</ele><time>2026-03-22T09:18:24.78Z</time></trkpt><trkpt lat="37.5755867" lon="15.045535"><ele>433.2</ele><time>2026-03-22T09:18:25.779Z</time></trkpt><trkpt lat="37.5756817" lon="15.0456"><ele>432.80000000000007</ele><time>2026-03-22T09:18:26.779Z</time></trkpt><trkpt lat="37.5757667" lon="15.045655"><ele>432.40000000000003</ele><time>2026-03-22T09:18:27.78Z</time></trkpt><trkpt lat="37.5758367" lon="15.0456983"><ele>432.0</ele><time>2026-03-22T09:18:28.779Z</time></trkpt><trkpt lat="37.575895" lon="15.04573"><ele>432.0</ele><time>2026-03-22T09:18:29.78Z</time></trkpt><trkpt lat="37.575955" lon="15.0457683"><ele>432.00000000000006</ele><time>2026-03-22T09:18:30.779Z</time></trkpt><trkpt lat="37.576065" lon="15.04584"><ele>432.00000000000006</ele><time>2026-03-22T09:18:32.779Z</time></trkpt><trkpt lat="37.5761733" lon="15.0459183"><ele>432.0</ele><time>2026-03-22T09:18:34.78Z</time></trkpt><trkpt lat="37.576235" lon="15.0459617"><ele>432.0</ele><time>2026-03-22T09:18:35.78Z</time></trkpt><trkpt lat="37.5762983" lon="15.0460033"><ele>431.8333333333333</ele><time>2026-03-22T09:18:36.78Z</time></trkpt><trkpt lat="37.5763667" lon="15.0460533"><ele>431.66666666666663</ele><time>2026-03-22T09:18:37.78Z</time></trkpt><trkpt lat="37.57643" lon="15.0461"><ele>431.5</ele><time>2026-03-22T09:18:38.779Z</time></trkpt><trkpt lat="37.5764883" lon="15.046145"><ele>431.3333333333333</ele><time>2026-03-22T09:18:39.779Z</time></trkpt><trkpt lat="37.5765867" lon="15.04621"><ele>431.16666666666663</ele><time>2026-03-22T09:18:41.779Z</time></trkpt><trkpt lat="37.57669" lon="15.046275"><ele>431.0</ele><time>2026-03-22T09:18:43.779Z</time></trkpt><trkpt lat="37.576755" lon="15.046315"><ele>431.0</ele><time>2026-03-22T09:18:44.78Z</time></trkpt><trkpt lat="37.5768283" lon="15.04636"><ele>431.0</ele><time>2026-03-22T09:18:45.78Z</time></trkpt><trkpt lat="37.5769067" lon="15.0464183"><ele>431.0</ele><time>2026-03-22T09:18:46.779Z</time></trkpt><trkpt lat="37.5770017" lon="15.046475"><ele>431.0</ele><time>2026-03-22T09:18:47.779Z</time></trkpt><trkpt lat="37.5771017" lon="15.0465367"><ele>431.0</ele><time>2026-03-22T09:18:48.779Z</time></trkpt><trkpt lat="37.57721" lon="15.0465867"><ele>432.0</ele><time>2026-03-22T09:18:49.779Z</time></trkpt><trkpt lat="37.57731" lon="15.0466467"><ele>433.0</ele><time>2026-03-22T09:18:50.779Z</time></trkpt><trkpt lat="37.5774067" lon="15.0466917"><ele>434.0</ele><time>2026-03-22T09:18:51.779Z</time></trkpt><trkpt lat="37.5774967" lon="15.0467367"><ele>435.0</ele><time>2026-03-22T09:18:52.779Z</time></trkpt><trkpt lat="37.5775867" lon="15.0467767"><ele>436.0</ele><time>2026-03-22T09:18:53.78Z</time></trkpt><trkpt lat="37.57768" lon="15.046815"><ele>436.0</ele><time>2026-03-22T09:18:54.78Z</time></trkpt><trkpt lat="37.57778" lon="15.0468483"><ele>436.0</ele><time>2026-03-22T09:18:55.78Z</time></trkpt><trkpt lat="37.5778833" lon="15.0468883"><ele>436.0</ele><time>2026-03-22T09:18:56.78Z</time></trkpt><trkpt lat="37.577985" lon="15.0469317"><ele>436.0</ele><time>2026-03-22T09:18:57.779Z</time></trkpt><trkpt lat="37.5780817" lon="15.0469833"><ele>436.0</ele><time>2026-03-22T09:18:58.78Z</time></trkpt><trkpt lat="37.5781717" lon="15.0470283"><ele>437.4</ele><time>2026-03-22T09:18:59.779Z</time></trkpt><trkpt lat="37.578265" lon="15.0470667"><ele>438.8</ele><time>2026-03-22T09:19:00.779Z</time></trkpt><trkpt lat="37.578355" lon="15.047105"><ele>440.19999999999993</ele><time>2026-03-22T09:19:01.78Z</time></trkpt><trkpt lat="37.5784467" lon="15.0471517"><ele>441.59999999999997</ele><time>2026-03-22T09:19:02.779Z</time></trkpt><trkpt lat="37.57854" lon="15.047185"><ele>443.0</ele><time>2026-03-22T09:19:03.78Z</time></trkpt><trkpt lat="37.5786317" lon="15.04722"><ele>444.16666666666663</ele><time>2026-03-22T09:19:04.78Z</time></trkpt><trkpt lat="37.5787167" lon="15.04726"><ele>445.3333333333333</ele><time>2026-03-22T09:19:05.779Z</time></trkpt><trkpt lat="37.5787967" lon="15.0473083"><ele>446.5</ele><time>2026-03-22T09:19:06.78Z</time></trkpt><trkpt lat="37.578865" lon="15.0473767"><ele>447.66666666666663</ele><time>2026-03-22T09:19:07.779Z</time></trkpt><trkpt lat="37.5789283" lon="15.0474417"><ele>448.8333333333333</ele><time>2026-03-22T09:19:08.779Z</time></trkpt><trkpt lat="37.5789833" lon="15.0475233"><ele>450.0</ele><time>2026-03-22T09:19:09.78Z</time></trkpt><trkpt lat="37.57903" lon="15.0476117"><ele>450.0</ele><time>2026-03-22T09:19:10.779Z</time></trkpt><trkpt lat="37.5790567" lon="15.047695"><ele>450.0</ele><time>2026-03-22T09:19:11.779Z</time></trkpt><trkpt lat="37.5791017" lon="15.0478233"><ele>450.0</ele><time>2026-03-22T09:19:13.78Z</time></trkpt><trkpt lat="37.5791283" lon="15.0479183"><ele>450.0</ele><time>2026-03-22T09:19:15.779Z</time></trkpt><trkpt lat="37.57916" lon="15.04802"><ele>450.0</ele><time>2026-03-22T09:19:17.78Z</time></trkpt><trkpt lat="37.5791883" lon="15.04812"><ele>450.0</ele><time>2026-03-22T09:19:19.779Z</time></trkpt><trkpt lat="37.5791867" lon="15.0482067"><ele>449.6666666666667</ele><time>2026-03-22T09:19:21.779Z</time></trkpt><trkpt lat="37.579225" lon="15.0483217"><ele>449.33333333333337</ele><time>2026-03-22T09:19:24.78Z</time></trkpt><trkpt lat="37.5793267" lon="15.04837"><ele>449.0</ele><time>2026-03-22T09:19:26.78Z</time></trkpt><trkpt lat="37.5793967" lon="15.04837"><ele>448.6666666666667</ele><time>2026-03-22T09:19:27.779Z</time></trkpt><trkpt lat="37.57947" lon="15.0483517"><ele>448.33333333333337</ele><time>2026-03-22T09:19:28.78Z</time></trkpt><trkpt lat="37.5795433" lon="15.048305"><ele>448.0</ele><time>2026-03-22T09:19:29.779Z</time></trkpt><trkpt lat="37.5796217" lon="15.0482317"><ele>449.79999999999995</ele><time>2026-03-22T09:19:30.779Z</time></trkpt><trkpt lat="37.5796967" lon="15.0481567"><ele>451.59999999999997</ele><time>2026-03-22T09:19:31.78Z</time></trkpt><trkpt lat="37.5797767" lon="15.048085"><ele>453.40000000000003</ele><time>2026-03-22T09:19:32.78Z</time></trkpt><trkpt lat="37.5798633" lon="15.048005"><ele>455.20000000000005</ele><time>2026-03-22T09:19:33.779Z</time></trkpt><trkpt lat="37.5799467" lon="15.0479217"><ele>457.0</ele><time>2026-03-22T09:19:34.78Z</time></trkpt><trkpt lat="37.5800417" lon="15.047825"><ele>457.0</ele><time>2026-03-22T09:19:35.779Z</time></trkpt><trkpt lat="37.5801367" lon="15.04772"><ele>457.0</ele><time>2026-03-22T09:19:36.779Z</time></trkpt><trkpt lat="37.580235" lon="15.0476233"><ele>457.0</ele><time>2026-03-22T09:19:37.78Z</time></trkpt><trkpt lat="37.5803333" lon="15.0475167"><ele>457.0</ele><time>2026-03-22T09:19:38.779Z</time></trkpt><trkpt lat="37.5804417" lon="15.047425"><ele>458.5</ele><time>2026-03-22T09:19:39.779Z</time></trkpt><trkpt lat="37.5805483" lon="15.0473233"><ele>460.0</ele><time>2026-03-22T09:19:40.78Z</time></trkpt><trkpt lat="37.580655" lon="15.04723"><ele>461.5</ele><time>2026-03-22T09:19:41.779Z</time></trkpt><trkpt lat="37.5807483" lon="15.047135"><ele>463.0</ele><time>2026-03-22T09:19:42.779Z</time></trkpt><trkpt lat="37.5808383" lon="15.0470467"><ele>463.0</ele><time>2026-03-22T09:19:43.779Z</time></trkpt><trkpt lat="37.5809283" lon="15.0469583"><ele>462.99999999999994</ele><time>2026-03-22T09:19:44.78Z</time></trkpt><trkpt lat="37.5810083" lon="15.0468733"><ele>462.99999999999994</ele><time>2026-03-22T09:19:45.78Z</time></trkpt><trkpt lat="37.5810783" lon="15.0467817"><ele>463.0</ele><time>2026-03-22T09:19:46.78Z</time></trkpt><trkpt lat="37.5811483" lon="15.0466967"><ele>463.0</ele><time>2026-03-22T09:19:47.779Z</time></trkpt><trkpt lat="37.5812167" lon="15.046605"><ele>463.4</ele><time>2026-03-22T09:19:48.779Z</time></trkpt><trkpt lat="37.5812783" lon="15.0465233"><ele>463.79999999999995</ele><time>2026-03-22T09:19:49.779Z</time></trkpt><trkpt lat="37.5813383" lon="15.046435"><ele>464.2</ele><time>2026-03-22T09:19:50.779Z</time></trkpt><trkpt lat="37.5813983" lon="15.0463483"><ele>464.6</ele><time>2026-03-22T09:19:51.779Z</time></trkpt><trkpt lat="37.5814583" lon="15.0462533"><ele>465.0</ele><time>2026-03-22T09:19:52.78Z</time></trkpt><trkpt lat="37.58152" lon="15.0461517"><ele>465.0</ele><time>2026-03-22T09:19:53.78Z</time></trkpt><trkpt lat="37.5815867" lon="15.0460467"><ele>465.0</ele><time>2026-03-22T09:19:54.779Z</time></trkpt><trkpt lat="37.5816583" lon="15.04594"><ele>465.0</ele><time>2026-03-22T09:19:55.779Z</time></trkpt><trkpt lat="37.5817317" lon="15.0458267"><ele>465.0</ele><time>2026-03-22T09:19:56.779Z</time></trkpt><trkpt lat="37.5818" lon="15.0457117"><ele>465.0</ele><time>2026-03-22T09:19:57.78Z</time></trkpt><trkpt lat="37.5818717" lon="15.0455967"><ele>465.5</ele><time>2026-03-22T09:19:58.779Z</time></trkpt><trkpt lat="37.5819517" lon="15.0454833"><ele>466.0</ele><time>2026-03-22T09:19:59.779Z</time></trkpt><trkpt lat="37.58203" lon="15.04536"><ele>466.5</ele><time>2026-03-22T09:20:00.779Z</time></trkpt><trkpt lat="37.58211" lon="15.04526"><ele>467.0</ele><time>2026-03-22T09:20:01.779Z</time></trkpt><trkpt lat="37.582175" lon="15.04517"><ele>467.66666666666663</ele><time>2026-03-22T09:20:02.78Z</time></trkpt><trkpt lat="37.5822283" lon="15.0450917"><ele>468.3333333333333</ele><time>2026-03-22T09:20:03.779Z</time></trkpt><trkpt lat="37.5822817" lon="15.04501"><ele>469.0</ele><time>2026-03-22T09:20:04.779Z</time></trkpt><trkpt lat="37.5823367" lon="15.04493"><ele>469.66666666666663</ele><time>2026-03-22T09:20:05.779Z</time></trkpt><trkpt lat="37.5823833" lon="15.0448717"><ele>470.3333333333333</ele><time>2026-03-22T09:20:06.78Z</time></trkpt><trkpt lat="37.5824667" lon="15.044805"><ele>471.0</ele><time>2026-03-22T09:20:08.779Z</time></trkpt><trkpt lat="37.5825583" lon="15.0447583"><ele>471.4</ele><time>2026-03-22T09:20:10.78Z</time></trkpt><trkpt lat="37.582685" lon="15.044715"><ele>471.8</ele><time>2026-03-22T09:20:12.78Z</time></trkpt><trkpt lat="37.582755" lon="15.0446033"><ele>472.19999999999993</ele><time>2026-03-22T09:20:14.78Z</time></trkpt><trkpt lat="37.5827467" lon="15.0445217"><ele>472.59999999999997</ele><time>2026-03-22T09:20:15.78Z</time></trkpt><trkpt lat="37.5827067" lon="15.0444467"><ele>473.0</ele><time>2026-03-22T09:20:16.779Z</time></trkpt><trkpt lat="37.5826467" lon="15.0443983"><ele>472.99999999999994</ele><time>2026-03-22T09:20:17.78Z</time></trkpt><trkpt lat="37.58258" lon="15.0443633"><ele>473.0</ele><time>2026-03-22T09:20:18.779Z</time></trkpt><trkpt lat="37.5825283" lon="15.0443117"><ele>473.0</ele><time>2026-03-22T09:20:19.78Z</time></trkpt><trkpt lat="37.5824983" lon="15.04423"><ele>473.0</ele><time>2026-03-22T09:20:20.78Z</time></trkpt><trkpt lat="37.5824733" lon="15.0441167"><ele>472.99999999999994</ele><time>2026-03-22T09:20:21.78Z</time></trkpt><trkpt lat="37.5824433" lon="15.043995"><ele>473.0</ele><time>2026-03-22T09:20:22.779Z</time></trkpt><trkpt lat="37.5824067" lon="15.0438567"><ele>473.5</ele><time>2026-03-22T09:20:23.779Z</time></trkpt><trkpt lat="37.58237" lon="15.0436983"><ele>474.0</ele><time>2026-03-22T09:20:24.78Z</time></trkpt><trkpt lat="37.5823283" lon="15.0435383"><ele>474.5</ele><time>2026-03-22T09:20:25.779Z</time></trkpt><trkpt lat="37.582285" lon="15.043385"><ele>475.0</ele><time>2026-03-22T09:20:26.779Z</time></trkpt><trkpt lat="37.5822383" lon="15.043235"><ele>475.6</ele><time>2026-03-22T09:20:27.779Z</time></trkpt><trkpt lat="37.5821933" lon="15.0430933"><ele>476.2</ele><time>2026-03-22T09:20:28.78Z</time></trkpt><trkpt lat="37.5821567" lon="15.0429683"><ele>476.79999999999995</ele><time>2026-03-22T09:20:29.779Z</time></trkpt><trkpt lat="37.5821217" lon="15.04285"><ele>477.4</ele><time>2026-03-22T09:20:30.78Z</time></trkpt><trkpt lat="37.5820883" lon="15.04273"><ele>478.0</ele><time>2026-03-22T09:20:31.78Z</time></trkpt><trkpt lat="37.5820583" lon="15.0426167"><ele>478.0</ele><time>2026-03-22T09:20:32.78Z</time></trkpt><trkpt lat="37.5820333" lon="15.042505"><ele>477.99999999999994</ele><time>2026-03-22T09:20:33.779Z</time></trkpt><trkpt lat="37.5820217" lon="15.0423967"><ele>477.99999999999994</ele><time>2026-03-22T09:20:34.779Z</time></trkpt><trkpt lat="37.5820133" lon="15.0422617"><ele>478.0</ele><time>2026-03-22T09:20:35.779Z</time></trkpt><trkpt lat="37.58201" lon="15.04212"><ele>478.0</ele><time>2026-03-22T09:20:36.78Z</time></trkpt><trkpt lat="37.5820117" lon="15.041965"><ele>478.25</ele><time>2026-03-22T09:20:37.78Z</time></trkpt><trkpt lat="37.5820217" lon="15.0418033"><ele>478.5</ele><time>2026-03-22T09:20:38.78Z</time></trkpt><trkpt lat="37.582035" lon="15.0416317"><ele>478.75</ele><time>2026-03-22T09:20:39.78Z</time></trkpt><trkpt lat="37.582045" lon="15.0414633"><ele>479.0</ele><time>2026-03-22T09:20:40.779Z</time></trkpt><trkpt lat="37.5820517" lon="15.041295"><ele>479.5</ele><time>2026-03-22T09:20:41.779Z</time></trkpt><trkpt lat="37.582065" lon="15.0411333"><ele>480.0</ele><time>2026-03-22T09:20:42.779Z</time></trkpt><trkpt lat="37.5820767" lon="15.0409767"><ele>480.5</ele><time>2026-03-22T09:20:43.78Z</time></trkpt><trkpt lat="37.5820867" lon="15.04082"><ele>481.0</ele><time>2026-03-22T09:20:44.78Z</time></trkpt><trkpt lat="37.5820983" lon="15.040665"><ele>482.0</ele><time>2026-03-22T09:20:45.78Z</time></trkpt><trkpt lat="37.582115" lon="15.0405233"><ele>483.0</ele><time>2026-03-22T09:20:46.779Z</time></trkpt><trkpt lat="37.582135" lon="15.040385"><ele>484.0</ele><time>2026-03-22T09:20:47.78Z</time></trkpt><trkpt lat="37.5821717" lon="15.040255"><ele>485.0</ele><time>2026-03-22T09:20:48.779Z</time></trkpt><trkpt lat="37.5822167" lon="15.040125"><ele>486.0</ele><time>2026-03-22T09:20:49.779Z</time></trkpt><trkpt lat="37.582275" lon="15.0399967"><ele>487.5</ele><time>2026-03-22T09:20:50.78Z</time></trkpt><trkpt lat="37.58233" lon="15.03986"><ele>489.0</ele><time>2026-03-22T09:20:51.78Z</time></trkpt><trkpt lat="37.58239" lon="15.0397217"><ele>490.5</ele><time>2026-03-22T09:20:52.779Z</time></trkpt><trkpt lat="37.58245" lon="15.0395817"><ele>492.0</ele><time>2026-03-22T09:20:53.78Z</time></trkpt><trkpt lat="37.5825083" lon="15.0394417"><ele>492.0</ele><time>2026-03-22T09:20:54.779Z</time></trkpt><trkpt lat="37.58255" lon="15.039305"><ele>492.00000000000006</ele><time>2026-03-22T09:20:55.78Z</time></trkpt><trkpt lat="37.5825717" lon="15.0391817"><ele>492.00000000000006</ele><time>2026-03-22T09:20:56.78Z</time></trkpt><trkpt lat="37.58259" lon="15.0390767"><ele>492.0</ele><time>2026-03-22T09:20:57.78Z</time></trkpt><trkpt lat="37.5826083" lon="15.0389683"><ele>492.0</ele><time>2026-03-22T09:20:58.779Z</time></trkpt><trkpt lat="37.5826267" lon="15.0388533"><ele>492.20000000000005</ele><time>2026-03-22T09:20:59.78Z</time></trkpt><trkpt lat="37.582655" lon="15.0387367"><ele>492.40000000000003</ele><time>2026-03-22T09:21:00.78Z</time></trkpt><trkpt lat="37.5826933" lon="15.0386183"><ele>492.59999999999997</ele><time>2026-03-22T09:21:01.779Z</time></trkpt><trkpt lat="37.5827433" lon="15.0384917"><ele>492.79999999999995</ele><time>2026-03-22T09:21:02.78Z</time></trkpt><trkpt lat="37.5828017" lon="15.038365"><ele>493.0</ele><time>2026-03-22T09:21:03.779Z</time></trkpt><trkpt lat="37.5828633" lon="15.0382433"><ele>493.5</ele><time>2026-03-22T09:21:04.779Z</time></trkpt><trkpt lat="37.582925" lon="15.038115"><ele>494.0</ele><time>2026-03-22T09:21:05.78Z</time></trkpt><trkpt lat="37.5829867" lon="15.0379767"><ele>494.5</ele><time>2026-03-22T09:21:06.78Z</time></trkpt><trkpt lat="37.5830383" lon="15.037835"><ele>495.0</ele><time>2026-03-22T09:21:07.779Z</time></trkpt><trkpt lat="37.5830867" lon="15.0376983"><ele>495.0</ele><time>2026-03-22T09:21:08.78Z</time></trkpt><trkpt lat="37.5831317" lon="15.03758"><ele>495.0</ele><time>2026-03-22T09:21:09.78Z</time></trkpt><trkpt lat="37.5831783" lon="15.0374733"><ele>495.0</ele><time>2026-03-22T09:21:10.779Z</time></trkpt><trkpt lat="37.58321" lon="15.0373733"><ele>495.0</ele><time>2026-03-22T09:21:11.78Z</time></trkpt><trkpt lat="37.58324" lon="15.037285"><ele>495.0</ele><time>2026-03-22T09:21:12.779Z</time></trkpt><trkpt lat="37.5832633" lon="15.03721"><ele>495.0</ele><time>2026-03-22T09:21:13.779Z</time></trkpt><trkpt lat="37.5832867" lon="15.03708"><ele>495.2</ele><time>2026-03-22T09:21:15.78Z</time></trkpt><trkpt lat="37.5832517" lon="15.0370033"><ele>495.4</ele><time>2026-03-22T09:21:17.779Z</time></trkpt><trkpt lat="37.5831617" lon="15.0369817"><ele>495.6</ele><time>2026-03-22T09:21:19.78Z</time></trkpt><trkpt lat="37.583035" lon="15.0369433"><ele>495.8</ele><time>2026-03-22T09:21:21.779Z</time></trkpt><trkpt lat="37.582965" lon="15.036885"><ele>496.0</ele><time>2026-03-22T09:21:22.779Z</time></trkpt><trkpt lat="37.5829033" lon="15.036805"><ele>495.75</ele><time>2026-03-22T09:21:23.78Z</time></trkpt><trkpt lat="37.582845" lon="15.036695"><ele>495.5</ele><time>2026-03-22T09:21:24.779Z</time></trkpt><trkpt lat="37.5827867" lon="15.03658"><ele>495.25</ele><time>2026-03-22T09:21:25.779Z</time></trkpt><trkpt lat="37.5827283" lon="15.0364517"><ele>495.0</ele><time>2026-03-22T09:21:26.779Z</time></trkpt><trkpt lat="37.5826683" lon="15.0363167"><ele>495.75</ele><time>2026-03-22T09:21:27.779Z</time></trkpt><trkpt lat="37.5826033" lon="15.0361917"><ele>496.5</ele><time>2026-03-22T09:21:28.779Z</time></trkpt><trkpt lat="37.58254" lon="15.0360667"><ele>497.25</ele><time>2026-03-22T09:21:29.78Z</time></trkpt><trkpt lat="37.5824767" lon="15.0359333"><ele>498.0</ele><time>2026-03-22T09:21:30.779Z</time></trkpt><trkpt lat="37.5824267" lon="15.0357917"><ele>498.75</ele><time>2026-03-22T09:21:31.779Z</time></trkpt><trkpt lat="37.5823717" lon="15.0356467"><ele>499.5</ele><time>2026-03-22T09:21:32.78Z</time></trkpt><trkpt lat="37.5823267" lon="15.0355017"><ele>500.25</ele><time>2026-03-22T09:21:33.78Z</time></trkpt><trkpt lat="37.5822817" lon="15.0353533"><ele>501.0</ele><time>2026-03-22T09:21:34.78Z</time></trkpt><trkpt lat="37.5822417" lon="15.0352033"><ele>501.0</ele><time>2026-03-22T09:21:35.78Z</time></trkpt><trkpt lat="37.5821983" lon="15.035065"><ele>501.0</ele><time>2026-03-22T09:21:36.779Z</time></trkpt><trkpt lat="37.582155" lon="15.034945"><ele>501.0</ele><time>2026-03-22T09:21:37.78Z</time></trkpt><trkpt lat="37.58211" lon="15.03483"><ele>501.0</ele><time>2026-03-22T09:21:38.78Z</time></trkpt><trkpt lat="37.582065" lon="15.03471"><ele>501.0</ele><time>2026-03-22T09:21:39.78Z</time></trkpt><trkpt lat="37.582" lon="15.034595"><ele>500.25</ele><time>2026-03-22T09:21:40.78Z</time></trkpt><trkpt lat="37.5819233" lon="15.0344783"><ele>499.5</ele><time>2026-03-22T09:21:41.78Z</time></trkpt><trkpt lat="37.5818383" lon="15.03436"><ele>498.75</ele><time>2026-03-22T09:21:42.78Z</time></trkpt><trkpt lat="37.5817517" lon="15.0342383"><ele>498.0</ele><time>2026-03-22T09:21:43.779Z</time></trkpt><trkpt lat="37.5816683" lon="15.034115"><ele>497.5</ele><time>2026-03-22T09:21:44.779Z</time></trkpt><trkpt lat="37.58158" lon="15.0339883"><ele>497.0</ele><time>2026-03-22T09:21:45.779Z</time></trkpt><trkpt lat="37.5814883" lon="15.0338633"><ele>496.5</ele><time>2026-03-22T09:21:46.779Z</time></trkpt><trkpt lat="37.5813933" lon="15.033735"><ele>496.0</ele><time>2026-03-22T09:21:47.78Z</time></trkpt><trkpt lat="37.5813083" lon="15.0336117"><ele>496.0</ele><time>2026-03-22T09:21:48.779Z</time></trkpt><trkpt lat="37.5812367" lon="15.0335017"><ele>496.0</ele><time>2026-03-22T09:21:49.779Z</time></trkpt><trkpt lat="37.5811683" lon="15.033405"><ele>496.0</ele><time>2026-03-22T09:21:50.78Z</time></trkpt><trkpt lat="37.5811033" lon="15.0333067"><ele>496.0</ele><time>2026-03-22T09:21:51.78Z</time></trkpt><trkpt lat="37.5810317" lon="15.0332017"><ele>496.0</ele><time>2026-03-22T09:21:52.78Z</time></trkpt><trkpt lat="37.5809567" lon="15.0330817"><ele>494.75</ele><time>2026-03-22T09:21:53.78Z</time></trkpt><trkpt lat="37.5808733" lon="15.032945"><ele>493.5</ele><time>2026-03-22T09:21:54.779Z</time></trkpt><trkpt lat="37.5807967" lon="15.0328167"><ele>492.25</ele><time>2026-03-22T09:21:55.78Z</time></trkpt><trkpt lat="37.58073" lon="15.0326867"><ele>491.0</ele><time>2026-03-22T09:21:56.779Z</time></trkpt><trkpt lat="37.5806683" lon="15.032565"><ele>491.0</ele><time>2026-03-22T09:21:57.78Z</time></trkpt><trkpt lat="37.58061" lon="15.0324467"><ele>491.0</ele><time>2026-03-22T09:21:58.779Z</time></trkpt><trkpt lat="37.58055" lon="15.0323367"><ele>491.0</ele><time>2026-03-22T09:21:59.779Z</time></trkpt><trkpt lat="37.5804967" lon="15.03222"><ele>491.0</ele><time>2026-03-22T09:22:00.78Z</time></trkpt><trkpt lat="37.5804383" lon="15.0321033"><ele>491.0</ele><time>2026-03-22T09:22:01.78Z</time></trkpt><trkpt lat="37.5803867" lon="15.0319883"><ele>490.5</ele><time>2026-03-22T09:22:02.779Z</time></trkpt><trkpt lat="37.5803233" lon="15.031865"><ele>490.0</ele><time>2026-03-22T09:22:03.779Z</time></trkpt><trkpt lat="37.58026" lon="15.0317317"><ele>489.5</ele><time>2026-03-22T09:22:04.779Z</time></trkpt><trkpt lat="37.5801883" lon="15.031595"><ele>489.0</ele><time>2026-03-22T09:22:05.78Z</time></trkpt><trkpt lat="37.58011" lon="15.0314667"><ele>488.75</ele><time>2026-03-22T09:22:06.78Z</time></trkpt><trkpt lat="37.580025" lon="15.0313483"><ele>488.5</ele><time>2026-03-22T09:22:07.779Z</time></trkpt><trkpt lat="37.5799317" lon="15.0312233"><ele>488.25</ele><time>2026-03-22T09:22:08.779Z</time></trkpt><trkpt lat="37.579825" lon="15.0311117"><ele>488.0</ele><time>2026-03-22T09:22:09.779Z</time></trkpt><trkpt lat="37.57972" lon="15.0310083"><ele>488.0</ele><time>2026-03-22T09:22:10.779Z</time></trkpt><trkpt lat="37.5796133" lon="15.0309217"><ele>487.99999999999994</ele><time>2026-03-22T09:22:11.779Z</time></trkpt><trkpt lat="37.5795167" lon="15.030845"><ele>487.99999999999994</ele><time>2026-03-22T09:22:12.779Z</time></trkpt><trkpt lat="37.579435" lon="15.0307833"><ele>488.0</ele><time>2026-03-22T09:22:13.779Z</time></trkpt><trkpt lat="37.579365" lon="15.0307233"><ele>488.0</ele><time>2026-03-22T09:22:14.78Z</time></trkpt><trkpt lat="37.5792967" lon="15.0306783"><ele>487.59999999999997</ele><time>2026-03-22T09:22:15.779Z</time></trkpt><trkpt lat="37.5792267" lon="15.0306217"><ele>487.19999999999993</ele><time>2026-03-22T09:22:16.78Z</time></trkpt><trkpt lat="37.579145" lon="15.030555"><ele>486.8</ele><time>2026-03-22T09:22:17.78Z</time></trkpt><trkpt lat="37.57905" lon="15.030485"><ele>486.4</ele><time>2026-03-22T09:22:18.779Z</time></trkpt><trkpt lat="37.5789433" lon="15.0304117"><ele>486.0</ele><time>2026-03-22T09:22:19.779Z</time></trkpt><trkpt lat="37.5788317" lon="15.0303317"><ele>486.0</ele><time>2026-03-22T09:22:20.779Z</time></trkpt><trkpt lat="37.578715" lon="15.0302433"><ele>486.0</ele><time>2026-03-22T09:22:21.779Z</time></trkpt><trkpt lat="37.578605" lon="15.0301533"><ele>486.0</ele><time>2026-03-22T09:22:22.78Z</time></trkpt><trkpt lat="37.5785033" lon="15.03007"><ele>486.0</ele><time>2026-03-22T09:22:23.78Z</time></trkpt><trkpt lat="37.578405" lon="15.0299883"><ele>486.25</ele><time>2026-03-22T09:22:24.78Z</time></trkpt><trkpt lat="37.5783117" lon="15.029905"><ele>486.5</ele><time>2026-03-22T09:22:25.78Z</time></trkpt><trkpt lat="37.5782133" lon="15.02983"><ele>486.75</ele><time>2026-03-22T09:22:26.78Z</time></trkpt><trkpt lat="37.5781117" lon="15.0297633"><ele>487.0</ele><time>2026-03-22T09:22:27.779Z</time></trkpt><trkpt lat="37.5780083" lon="15.0296917"><ele>487.0</ele><time>2026-03-22T09:22:28.779Z</time></trkpt><trkpt lat="37.5778983" lon="15.02961"><ele>487.0</ele><time>2026-03-22T09:22:29.779Z</time></trkpt><trkpt lat="37.5777817" lon="15.0295217"><ele>487.0</ele><time>2026-03-22T09:22:30.78Z</time></trkpt><trkpt lat="37.57767" lon="15.0294267"><ele>487.0</ele><time>2026-03-22T09:22:31.779Z</time></trkpt><trkpt lat="37.5775717" lon="15.0293517"><ele>487.0</ele><time>2026-03-22T09:22:32.78Z</time></trkpt><trkpt lat="37.5774917" lon="15.0292617"><ele>487.00000000000006</ele><time>2026-03-22T09:22:33.779Z</time></trkpt><trkpt lat="37.577415" lon="15.0291817"><ele>487.00000000000006</ele><time>2026-03-22T09:22:34.779Z</time></trkpt><trkpt lat="37.577335" lon="15.0291117"><ele>487.0</ele><time>2026-03-22T09:22:35.779Z</time></trkpt><trkpt lat="37.57725" lon="15.0290383"><ele>487.0</ele><time>2026-03-22T09:22:36.779Z</time></trkpt><trkpt lat="37.577165" lon="15.0289617"><ele>487.0</ele><time>2026-03-22T09:22:37.779Z</time></trkpt><trkpt lat="37.577085" lon="15.0288933"><ele>487.00000000000006</ele><time>2026-03-22T09:22:38.779Z</time></trkpt><trkpt lat="37.5770083" lon="15.0288283"><ele>487.00000000000006</ele><time>2026-03-22T09:22:39.779Z</time></trkpt><trkpt lat="37.5769283" lon="15.0287567"><ele>487.0</ele><time>2026-03-22T09:22:40.78Z</time></trkpt><trkpt lat="37.5768467" lon="15.02868"><ele>487.0</ele><time>2026-03-22T09:22:41.779Z</time></trkpt><trkpt lat="37.5767617" lon="15.0286083"><ele>486.20000000000005</ele><time>2026-03-22T09:22:42.779Z</time></trkpt><trkpt lat="37.5766783" lon="15.0285283"><ele>485.40000000000003</ele><time>2026-03-22T09:22:43.779Z</time></trkpt><trkpt lat="37.5765967" lon="15.02845"><ele>484.59999999999997</ele><time>2026-03-22T09:22:44.78Z</time></trkpt><trkpt lat="37.576525" lon="15.028375"><ele>483.79999999999995</ele><time>2026-03-22T09:22:45.779Z</time></trkpt><trkpt lat="37.57646" lon="15.0283067"><ele>483.0</ele><time>2026-03-22T09:22:46.78Z</time></trkpt><trkpt lat="37.5763817" lon="15.028245"><ele>482.75</ele><time>2026-03-22T09:22:47.779Z</time></trkpt><trkpt lat="37.576295" lon="15.0281817"><ele>482.5</ele><time>2026-03-22T09:22:48.78Z</time></trkpt><trkpt lat="37.5761983" lon="15.028105"><ele>482.25</ele><time>2026-03-22T09:22:49.779Z</time></trkpt><trkpt lat="37.5760917" lon="15.0280167"><ele>482.0</ele><time>2026-03-22T09:22:50.78Z</time></trkpt><trkpt lat="37.5759933" lon="15.02792"><ele>481.0</ele><time>2026-03-22T09:22:51.78Z</time></trkpt><trkpt lat="37.575915" lon="15.02783"><ele>480.00000000000006</ele><time>2026-03-22T09:22:52.78Z</time></trkpt><trkpt lat="37.5758483" lon="15.0277517"><ele>479.00000000000006</ele><time>2026-03-22T09:22:53.78Z</time></trkpt><trkpt lat="37.575785" lon="15.0276833"><ele>478.0</ele><time>2026-03-22T09:22:54.78Z</time></trkpt><trkpt lat="37.5757167" lon="15.0276183"><ele>477.0</ele><time>2026-03-22T09:22:55.779Z</time></trkpt><trkpt lat="37.5756383" lon="15.0275433"><ele>476.5</ele><time>2026-03-22T09:22:56.78Z</time></trkpt><trkpt lat="37.5755567" lon="15.0274567"><ele>476.0</ele><time>2026-03-22T09:22:57.78Z</time></trkpt><trkpt lat="37.5754633" lon="15.0273583"><ele>475.5</ele><time>2026-03-22T09:22:58.779Z</time></trkpt><trkpt lat="37.5753683" lon="15.0272567"><ele>475.0</ele><time>2026-03-22T09:22:59.779Z</time></trkpt><trkpt lat="37.5752667" lon="15.027145"><ele>474.5</ele><time>2026-03-22T09:23:00.779Z</time></trkpt><trkpt lat="37.5751683" lon="15.0270383"><ele>474.0</ele><time>2026-03-22T09:23:01.78Z</time></trkpt><trkpt lat="37.5750733" lon="15.026935"><ele>473.5</ele><time>2026-03-22T09:23:02.78Z</time></trkpt><trkpt lat="37.57499" lon="15.0268467"><ele>473.0</ele><time>2026-03-22T09:23:03.78Z</time></trkpt><trkpt lat="37.57492" lon="15.02677"><ele>472.99999999999994</ele><time>2026-03-22T09:23:04.78Z</time></trkpt><trkpt lat="37.5748633" lon="15.0267083"><ele>473.0</ele><time>2026-03-22T09:23:05.78Z</time></trkpt><trkpt lat="37.574775" lon="15.0266133"><ele>473.0</ele><time>2026-03-22T09:23:07.78Z</time></trkpt><trkpt lat="37.57473" lon="15.026555"><ele>473.0</ele><time>2026-03-22T09:23:08.78Z</time></trkpt><trkpt lat="37.5746783" lon="15.0264817"><ele>472.99999999999994</ele><time>2026-03-22T09:23:09.779Z</time></trkpt><trkpt lat="37.5746267" lon="15.0263967"><ele>473.0</ele><time>2026-03-22T09:23:10.78Z</time></trkpt><trkpt lat="37.574585" lon="15.0263067"><ele>473.0</ele><time>2026-03-22T09:23:11.78Z</time></trkpt><trkpt lat="37.5745533" lon="15.0262367"><ele>472.99999999999994</ele><time>2026-03-22T09:23:12.779Z</time></trkpt><trkpt lat="37.5745283" lon="15.02612"><ele>472.99999999999994</ele><time>2026-03-22T09:23:14.779Z</time></trkpt><trkpt lat="37.574495" lon="15.0259983"><ele>473.0</ele><time>2026-03-22T09:23:16.78Z</time></trkpt><trkpt lat="37.5744833" lon="15.0258133"><ele>473.0</ele><time>2026-03-22T09:23:18.779Z</time></trkpt><trkpt lat="37.574485" lon="15.0256917"><ele>472.99999999999994</ele><time>2026-03-22T09:23:19.779Z</time></trkpt><trkpt lat="37.57449" lon="15.025575"><ele>473.0</ele><time>2026-03-22T09:23:20.78Z</time></trkpt><trkpt lat="37.5744967" lon="15.0254833"><ele>473.0</ele><time>2026-03-22T09:23:21.78Z</time></trkpt><trkpt lat="37.5745033" lon="15.0253467"><ele>473.0</ele><time>2026-03-22T09:23:23.78Z</time></trkpt><trkpt lat="37.574515" lon="15.025265"><ele>472.99999999999994</ele><time>2026-03-22T09:23:24.78Z</time></trkpt><trkpt lat="37.57452" lon="15.0251733"><ele>473.0</ele><time>2026-03-22T09:23:25.779Z</time></trkpt><trkpt lat="37.5745233" lon="15.0250783"><ele>472.99999999999994</ele><time>2026-03-22T09:23:26.779Z</time></trkpt><trkpt lat="37.5745283" lon="15.024985"><ele>473.0</ele><time>2026-03-22T09:23:27.779Z</time></trkpt><trkpt lat="37.5745283" lon="15.024895"><ele>473.0</ele><time>2026-03-22T09:23:28.78Z</time></trkpt><trkpt lat="37.5744533" lon="15.0247667"><ele>473.0</ele><time>2026-03-22T09:23:30.78Z</time></trkpt><trkpt lat="37.5743783" lon="15.0247317"><ele>472.99999999999994</ele><time>2026-03-22T09:23:31.779Z</time></trkpt><trkpt lat="37.5743083" lon="15.0247"><ele>473.0</ele><time>2026-03-22T09:23:32.779Z</time></trkpt><trkpt lat="37.5742333" lon="15.0246933"><ele>472.0</ele><time>2026-03-22T09:23:33.779Z</time></trkpt><trkpt lat="37.574115" lon="15.0246617"><ele>470.99999999999994</ele><time>2026-03-22T09:23:35.779Z</time></trkpt><trkpt lat="37.5739983" lon="15.024655"><ele>469.99999999999994</ele><time>2026-03-22T09:23:37.78Z</time></trkpt><trkpt lat="37.5739283" lon="15.0246283"><ele>469.0</ele><time>2026-03-22T09:23:38.78Z</time></trkpt><trkpt lat="37.5738583" lon="15.0246033"><ele>468.0</ele><time>2026-03-22T09:23:39.78Z</time></trkpt><trkpt lat="37.5737867" lon="15.0245783"><ele>468.0</ele><time>2026-03-22T09:23:40.78Z</time></trkpt><trkpt lat="37.5737233" lon="15.0245633"><ele>467.99999999999994</ele><time>2026-03-22T09:23:41.78Z</time></trkpt><trkpt lat="37.5736033" lon="15.0245433"><ele>467.99999999999994</ele><time>2026-03-22T09:23:43.78Z</time></trkpt><trkpt lat="37.5735033" lon="15.0245267"><ele>468.0</ele><time>2026-03-22T09:23:44.779Z</time></trkpt><trkpt lat="37.5734017" lon="15.0245067"><ele>468.0</ele><time>2026-03-22T09:23:45.78Z</time></trkpt><trkpt lat="37.5733083" lon="15.024475"><ele>467.1666666666667</ele><time>2026-03-22T09:23:46.78Z</time></trkpt><trkpt lat="37.5732183" lon="15.0244533"><ele>466.33333333333337</ele><time>2026-03-22T09:23:47.779Z</time></trkpt><trkpt lat="37.5731333" lon="15.0244333"><ele>465.5</ele><time>2026-03-22T09:23:48.779Z</time></trkpt><trkpt lat="37.5730617" lon="15.0244133"><ele>464.6666666666667</ele><time>2026-03-22T09:23:49.779Z</time></trkpt><trkpt lat="37.5729383" lon="15.0244017"><ele>463.83333333333337</ele><time>2026-03-22T09:23:51.779Z</time></trkpt><trkpt lat="37.5728717" lon="15.0243883"><ele>463.0</ele><time>2026-03-22T09:23:52.78Z</time></trkpt><trkpt lat="37.5728017" lon="15.0243617"><ele>462.6666666666667</ele><time>2026-03-22T09:23:53.779Z</time></trkpt><trkpt lat="37.5727333" lon="15.0243583"><ele>462.33333333333337</ele><time>2026-03-22T09:23:54.78Z</time></trkpt><trkpt lat="37.5726617" lon="15.0243583"><ele>462.0</ele><time>2026-03-22T09:23:56.779Z</time></trkpt><trkpt lat="37.5726" lon="15.024335"><ele>461.66666666666663</ele><time>2026-03-22T09:23:58.779Z</time></trkpt><trkpt lat="37.5724867" lon="15.0243133"><ele>461.3333333333333</ele><time>2026-03-22T09:24:00.779Z</time></trkpt><trkpt lat="37.5724117" lon="15.0242817"><ele>461.0</ele><time>2026-03-22T09:24:02.779Z</time></trkpt><trkpt lat="37.5723767" lon="15.0241817"><ele>460.20000000000005</ele><time>2026-03-22T09:24:05.78Z</time></trkpt><trkpt lat="37.57239" lon="15.02404"><ele>459.40000000000003</ele><time>2026-03-22T09:24:07.779Z</time></trkpt><trkpt lat="37.572405" lon="15.0239283"><ele>458.6</ele><time>2026-03-22T09:24:08.779Z</time></trkpt><trkpt lat="37.5724317" lon="15.0238117"><ele>457.8</ele><time>2026-03-22T09:24:09.779Z</time></trkpt><trkpt lat="37.5724617" lon="15.0236883"><ele>457.0</ele><time>2026-03-22T09:24:10.779Z</time></trkpt><trkpt lat="37.5725" lon="15.023565"><ele>457.0</ele><time>2026-03-22T09:24:11.779Z</time></trkpt><trkpt lat="37.5725417" lon="15.0234333"><ele>457.00000000000006</ele><time>2026-03-22T09:24:12.78Z</time></trkpt><trkpt lat="37.5725717" lon="15.0232867"><ele>457.00000000000006</ele><time>2026-03-22T09:24:13.779Z</time></trkpt><trkpt lat="37.57261" lon="15.023155"><ele>457.0</ele><time>2026-03-22T09:24:14.78Z</time></trkpt><trkpt lat="37.572645" lon="15.0230383"><ele>457.0</ele><time>2026-03-22T09:24:15.779Z</time></trkpt><trkpt lat="37.5726717" lon="15.0229267"><ele>457.0</ele><time>2026-03-22T09:24:16.779Z</time></trkpt><trkpt lat="37.5726967" lon="15.02282"><ele>457.00000000000006</ele><time>2026-03-22T09:24:17.78Z</time></trkpt><trkpt lat="37.5727267" lon="15.022715"><ele>457.00000000000006</ele><time>2026-03-22T09:24:18.78Z</time></trkpt><trkpt lat="37.5727533" lon="15.0225967"><ele>457.0</ele><time>2026-03-22T09:24:19.78Z</time></trkpt><trkpt lat="37.572775" lon="15.0224767"><ele>457.0</ele><time>2026-03-22T09:24:20.779Z</time></trkpt><trkpt lat="37.57279" lon="15.022345"><ele>458.20000000000005</ele><time>2026-03-22T09:24:21.78Z</time></trkpt><trkpt lat="37.5728183" lon="15.0222217"><ele>459.40000000000003</ele><time>2026-03-22T09:24:22.78Z</time></trkpt><trkpt lat="37.5728517" lon="15.0221"><ele>460.59999999999997</ele><time>2026-03-22T09:24:23.78Z</time></trkpt><trkpt lat="37.5728967" lon="15.02199"><ele>461.79999999999995</ele><time>2026-03-22T09:24:24.78Z</time></trkpt><trkpt lat="37.57294" lon="15.021875"><ele>463.0</ele><time>2026-03-22T09:24:25.78Z</time></trkpt><trkpt lat="37.5729717" lon="15.0217467"><ele>465.0</ele><time>2026-03-22T09:24:26.78Z</time></trkpt><trkpt lat="37.5729967" lon="15.0216267"><ele>466.99999999999994</ele><time>2026-03-22T09:24:27.779Z</time></trkpt><trkpt lat="37.5730317" lon="15.0215083"><ele>468.99999999999994</ele><time>2026-03-22T09:24:28.779Z</time></trkpt><trkpt lat="37.5730683" lon="15.021385"><ele>471.0</ele><time>2026-03-22T09:24:29.78Z</time></trkpt><trkpt lat="37.573105" lon="15.0212583"><ele>473.0</ele><time>2026-03-22T09:24:30.779Z</time></trkpt><trkpt lat="37.57314" lon="15.021125"><ele>473.0</ele><time>2026-03-22T09:24:31.78Z</time></trkpt><trkpt lat="37.5731783" lon="15.02099"><ele>473.0</ele><time>2026-03-22T09:24:32.779Z</time></trkpt><trkpt lat="37.5732117" lon="15.0208383"><ele>473.0</ele><time>2026-03-22T09:24:33.779Z</time></trkpt><trkpt lat="37.5732483" lon="15.020685"><ele>473.0</ele><time>2026-03-22T09:24:34.779Z</time></trkpt><trkpt lat="37.5732883" lon="15.020525"><ele>473.0</ele><time>2026-03-22T09:24:35.78Z</time></trkpt><trkpt lat="37.5733267" lon="15.0203767"><ele>473.0</ele><time>2026-03-22T09:24:36.779Z</time></trkpt><trkpt lat="37.5733667" lon="15.0202383"><ele>473.0</ele><time>2026-03-22T09:24:37.78Z</time></trkpt><trkpt lat="37.5734067" lon="15.02011"><ele>473.0</ele><time>2026-03-22T09:24:38.78Z</time></trkpt><trkpt lat="37.573435" lon="15.0199817"><ele>473.16666666666663</ele><time>2026-03-22T09:24:39.78Z</time></trkpt><trkpt lat="37.57346" lon="15.01987"><ele>473.3333333333333</ele><time>2026-03-22T09:24:40.779Z</time></trkpt><trkpt lat="37.5734933" lon="15.0197683"><ele>473.5</ele><time>2026-03-22T09:24:41.779Z</time></trkpt><trkpt lat="37.57352" lon="15.0196733"><ele>473.66666666666663</ele><time>2026-03-22T09:24:42.78Z</time></trkpt><trkpt lat="37.5735417" lon="15.0195917"><ele>473.8333333333333</ele><time>2026-03-22T09:24:43.779Z</time></trkpt><trkpt lat="37.5735517" lon="15.01945"><ele>474.0</ele><time>2026-03-22T09:24:45.779Z</time></trkpt><trkpt lat="37.573445" lon="15.0193367"><ele>474.0</ele><time>2026-03-22T09:24:47.779Z</time></trkpt><trkpt lat="37.57335" lon="15.019295"><ele>474.0</ele><time>2026-03-22T09:24:48.78Z</time></trkpt><trkpt lat="37.573235" lon="15.01926"><ele>474.0</ele><time>2026-03-22T09:24:49.779Z</time></trkpt><trkpt lat="37.5731117" lon="15.019225"><ele>474.0</ele><time>2026-03-22T09:24:50.78Z</time></trkpt><trkpt lat="37.57298" lon="15.01919"><ele>473.0</ele><time>2026-03-22T09:24:51.78Z</time></trkpt><trkpt lat="37.572835" lon="15.0191683"><ele>472.0</ele><time>2026-03-22T09:24:52.779Z</time></trkpt><trkpt lat="37.5726867" lon="15.0191583"><ele>471.0</ele><time>2026-03-22T09:24:53.78Z</time></trkpt><trkpt lat="37.5725317" lon="15.0191483"><ele>470.5</ele><time>2026-03-22T09:24:54.78Z</time></trkpt><trkpt lat="37.5723883" lon="15.0191383"><ele>470.0</ele><time>2026-03-22T09:24:55.78Z</time></trkpt><trkpt lat="37.57225" lon="15.0191383"><ele>469.5</ele><time>2026-03-22T09:24:56.78Z</time></trkpt><trkpt lat="37.5721133" lon="15.0191383"><ele>469.0</ele><time>2026-03-22T09:24:57.779Z</time></trkpt><trkpt lat="37.57199" lon="15.019145"><ele>467.79999999999995</ele><time>2026-03-22T09:24:58.779Z</time></trkpt><trkpt lat="37.571875" lon="15.01914"><ele>466.59999999999997</ele><time>2026-03-22T09:24:59.779Z</time></trkpt><trkpt lat="37.57177" lon="15.01913"><ele>465.4</ele><time>2026-03-22T09:25:00.779Z</time></trkpt><trkpt lat="37.5716917" lon="15.01913"><ele>464.2</ele><time>2026-03-22T09:25:01.779Z</time></trkpt><trkpt lat="37.571625" lon="15.0191317"><ele>463.0</ele><time>2026-03-22T09:25:02.779Z</time></trkpt><trkpt lat="37.5715317" lon="15.0191233"><ele>463.00000000000006</ele><time>2026-03-22T09:25:04.779Z</time></trkpt><trkpt lat="37.571465" lon="15.0190933"><ele>463.0</ele><time>2026-03-22T09:25:07.779Z</time></trkpt><trkpt lat="37.57139" lon="15.0190067"><ele>463.0</ele><time>2026-03-22T09:25:09.78Z</time></trkpt><trkpt lat="37.57134" lon="15.0189567"><ele>463.0</ele><time>2026-03-22T09:25:10.779Z</time></trkpt><trkpt lat="37.5712883" lon="15.018905"><ele>463.00000000000006</ele><time>2026-03-22T09:25:11.78Z</time></trkpt><trkpt lat="37.5712283" lon="15.01884"><ele>463.0</ele><time>2026-03-22T09:25:12.779Z</time></trkpt><trkpt lat="37.57116" lon="15.0187733"><ele>462.59999999999997</ele><time>2026-03-22T09:25:13.78Z</time></trkpt><trkpt lat="37.5710933" lon="15.0186883"><ele>462.19999999999993</ele><time>2026-03-22T09:25:14.779Z</time></trkpt><trkpt lat="37.5710283" lon="15.0185883"><ele>461.8</ele><time>2026-03-22T09:25:15.779Z</time></trkpt><trkpt lat="37.57096" lon="15.0184867"><ele>461.4</ele><time>2026-03-22T09:25:16.78Z</time></trkpt><trkpt lat="37.5708867" lon="15.0184033"><ele>461.0</ele><time>2026-03-22T09:25:17.779Z</time></trkpt><trkpt lat="37.5708167" lon="15.0183217"><ele>461.3333333333333</ele><time>2026-03-22T09:25:18.779Z</time></trkpt><trkpt lat="37.5707567" lon="15.018235"><ele>461.66666666666663</ele><time>2026-03-22T09:25:19.779Z</time></trkpt><trkpt lat="37.5706917" lon="15.0181567"><ele>462.0</ele><time>2026-03-22T09:25:20.78Z</time></trkpt><trkpt lat="37.5706367" lon="15.018075"><ele>462.33333333333337</ele><time>2026-03-22T09:25:21.779Z</time></trkpt><trkpt lat="37.570585" lon="15.0179917"><ele>462.6666666666667</ele><time>2026-03-22T09:25:22.779Z</time></trkpt><trkpt lat="37.57053" lon="15.0179017"><ele>463.0</ele><time>2026-03-22T09:25:23.779Z</time></trkpt><trkpt lat="37.5704717" lon="15.0178"><ele>463.0</ele><time>2026-03-22T09:25:24.78Z</time></trkpt><trkpt lat="37.5704117" lon="15.0176783"><ele>463.0</ele><time>2026-03-22T09:25:25.78Z</time></trkpt><trkpt lat="37.5703517" lon="15.017545"><ele>463.0</ele><time>2026-03-22T09:25:26.779Z</time></trkpt><trkpt lat="37.5702967" lon="15.0174033"><ele>463.0</ele><time>2026-03-22T09:25:27.779Z</time></trkpt><trkpt lat="37.5702533" lon="15.0172617"><ele>463.5</ele><time>2026-03-22T09:25:28.78Z</time></trkpt><trkpt lat="37.5702183" lon="15.0171117"><ele>464.0</ele><time>2026-03-22T09:25:29.78Z</time></trkpt><trkpt lat="37.5701883" lon="15.01695"><ele>464.5</ele><time>2026-03-22T09:25:30.779Z</time></trkpt><trkpt lat="37.5701567" lon="15.0167833"><ele>465.0</ele><time>2026-03-22T09:25:31.78Z</time></trkpt><trkpt lat="37.57012" lon="15.0166167"><ele>465.75</ele><time>2026-03-22T09:25:32.78Z</time></trkpt><trkpt lat="37.570075" lon="15.016455"><ele>466.5</ele><time>2026-03-22T09:25:33.779Z</time></trkpt><trkpt lat="37.5700217" lon="15.016305"><ele>467.25</ele><time>2026-03-22T09:25:34.779Z</time></trkpt><trkpt lat="37.56995" lon="15.0161667"><ele>468.0</ele><time>2026-03-22T09:25:35.779Z</time></trkpt><trkpt lat="37.5698633" lon="15.0160283"><ele>468.0</ele><time>2026-03-22T09:25:36.78Z</time></trkpt><trkpt lat="37.569775" lon="15.015895"><ele>468.0</ele><time>2026-03-22T09:25:37.779Z</time></trkpt><trkpt lat="37.5696883" lon="15.01576"><ele>468.0</ele><time>2026-03-22T09:25:38.779Z</time></trkpt><trkpt lat="37.5696067" lon="15.0156233"><ele>468.0</ele><time>2026-03-22T09:25:39.78Z</time></trkpt><trkpt lat="37.5695283" lon="15.0154833"><ele>467.25</ele><time>2026-03-22T09:25:40.78Z</time></trkpt><trkpt lat="37.56946" lon="15.0153433"><ele>466.5</ele><time>2026-03-22T09:25:41.78Z</time></trkpt><trkpt lat="37.5694017" lon="15.01519"><ele>465.75</ele><time>2026-03-22T09:25:42.78Z</time></trkpt><trkpt lat="37.5693533" lon="15.01504"><ele>465.0</ele><time>2026-03-22T09:25:43.779Z</time></trkpt><trkpt lat="37.569315" lon="15.0148917"><ele>465.0</ele><time>2026-03-22T09:25:44.78Z</time></trkpt><trkpt lat="37.5692833" lon="15.01475"><ele>465.0</ele><time>2026-03-22T09:25:45.779Z</time></trkpt><trkpt lat="37.5692567" lon="15.0146"><ele>465.0</ele><time>2026-03-22T09:25:46.78Z</time></trkpt><trkpt lat="37.569235" lon="15.0144633"><ele>465.0</ele><time>2026-03-22T09:25:47.779Z</time></trkpt><trkpt lat="37.5692017" lon="15.0143317"><ele>465.0</ele><time>2026-03-22T09:25:48.78Z</time></trkpt><trkpt lat="37.56917" lon="15.0142067"><ele>465.0</ele><time>2026-03-22T09:25:49.779Z</time></trkpt><trkpt lat="37.5691383" lon="15.0140917"><ele>465.0</ele><time>2026-03-22T09:25:50.78Z</time></trkpt><trkpt lat="37.569095" lon="15.0139867"><ele>465.0</ele><time>2026-03-22T09:25:51.78Z</time></trkpt><trkpt lat="37.5690467" lon="15.0138817"><ele>465.0</ele><time>2026-03-22T09:25:52.779Z</time></trkpt><trkpt lat="37.568995" lon="15.013775"><ele>465.2</ele><time>2026-03-22T09:25:53.779Z</time></trkpt><trkpt lat="37.5689417" lon="15.0136733"><ele>465.4</ele><time>2026-03-22T09:25:54.78Z</time></trkpt><trkpt lat="37.5688867" lon="15.0135717"><ele>465.6</ele><time>2026-03-22T09:25:55.78Z</time></trkpt><trkpt lat="37.5688317" lon="15.0134717"><ele>465.8</ele><time>2026-03-22T09:25:56.78Z</time></trkpt><trkpt lat="37.56877" lon="15.013375"><ele>466.0</ele><time>2026-03-22T09:25:57.78Z</time></trkpt><trkpt lat="37.5687117" lon="15.0132767"><ele>466.20000000000005</ele><time>2026-03-22T09:25:58.78Z</time></trkpt><trkpt lat="37.5686583" lon="15.0131717"><ele>466.40000000000003</ele><time>2026-03-22T09:25:59.781Z</time></trkpt><trkpt lat="37.5686033" lon="15.0130683"><ele>466.6</ele><time>2026-03-22T09:26:00.781Z</time></trkpt><trkpt lat="37.56855" lon="15.0129567"><ele>466.8</ele><time>2026-03-22T09:26:01.781Z</time></trkpt><trkpt lat="37.5684967" lon="15.0128417"><ele>467.0</ele><time>2026-03-22T09:26:02.781Z</time></trkpt><trkpt lat="37.5684433" lon="15.01272"><ele>467.0</ele><time>2026-03-22T09:26:03.781Z</time></trkpt><trkpt lat="37.5684083" lon="15.0126033"><ele>467.00000000000006</ele><time>2026-03-22T09:26:04.781Z</time></trkpt><trkpt lat="37.5683783" lon="15.0124933"><ele>467.00000000000006</ele><time>2026-03-22T09:26:05.78Z</time></trkpt><trkpt lat="37.5683583" lon="15.0123817"><ele>467.0</ele><time>2026-03-22T09:26:06.78Z</time></trkpt><trkpt lat="37.5683367" lon="15.0122683"><ele>467.0</ele><time>2026-03-22T09:26:07.781Z</time></trkpt><trkpt lat="37.5683133" lon="15.0121583"><ele>467.6</ele><time>2026-03-22T09:26:08.781Z</time></trkpt><trkpt lat="37.568295" lon="15.0120433"><ele>468.20000000000005</ele><time>2026-03-22T09:26:09.78Z</time></trkpt><trkpt lat="37.56828" lon="15.0119217"><ele>468.8</ele><time>2026-03-22T09:26:10.781Z</time></trkpt><trkpt lat="37.56826" lon="15.011795"><ele>469.4</ele><time>2026-03-22T09:26:11.781Z</time></trkpt><trkpt lat="37.5682367" lon="15.011675"><ele>470.0</ele><time>2026-03-22T09:26:12.78Z</time></trkpt><trkpt lat="37.5682233" lon="15.0115633"><ele>469.99999999999994</ele><time>2026-03-22T09:26:13.78Z</time></trkpt><trkpt lat="37.5682083" lon="15.0114533"><ele>470.0</ele><time>2026-03-22T09:26:14.781Z</time></trkpt><trkpt lat="37.5681991" lon="15.0113394"><ele>470.0</ele><time>2026-03-22T09:26:15.781Z</time></trkpt><trkpt lat="37.5681959" lon="15.0112256"><ele>470.0</ele><time>2026-03-22T09:26:16.78Z</time></trkpt><trkpt lat="37.5681938" lon="15.0111158"><ele>469.99999999999994</ele><time>2026-03-22T09:26:17.78Z</time></trkpt><trkpt lat="37.568191" lon="15.0110082"><ele>470.0</ele><time>2026-03-22T09:26:18.78Z</time></trkpt><trkpt lat="37.5681879" lon="15.0109072"><ele>469.99999999999994</ele><time>2026-03-22T09:26:19.78Z</time></trkpt><trkpt lat="37.5681866" lon="15.0108124"><ele>470.0</ele><time>2026-03-22T09:26:20.781Z</time></trkpt><trkpt lat="37.5681874" lon="15.010725"><ele>470.0</ele><time>2026-03-22T09:26:21.781Z</time></trkpt><trkpt lat="37.5681896" lon="15.0106357"><ele>470.0</ele><time>2026-03-22T09:26:22.78Z</time></trkpt><trkpt lat="37.5681926" lon="15.0105321"><ele>469.99999999999994</ele><time>2026-03-22T09:26:23.781Z</time></trkpt><trkpt lat="37.5681974" lon="15.0104185"><ele>470.0</ele><time>2026-03-22T09:26:24.78Z</time></trkpt><trkpt lat="37.568203" lon="15.0103028"><ele>470.0</ele><time>2026-03-22T09:26:25.781Z</time></trkpt><trkpt lat="37.5682102" lon="15.0101914"><ele>469.99999999999994</ele><time>2026-03-22T09:26:26.781Z</time></trkpt><trkpt lat="37.5682184" lon="15.0100902"><ele>470.0</ele><time>2026-03-22T09:26:27.781Z</time></trkpt><trkpt lat="37.5682262" lon="15.0099955"><ele>470.0</ele><time>2026-03-22T09:26:28.781Z</time></trkpt><trkpt lat="37.5682316" lon="15.0099085"><ele>469.99999999999994</ele><time>2026-03-22T09:26:29.78Z</time></trkpt><trkpt lat="37.568237" lon="15.0098238"><ele>470.0</ele><time>2026-03-22T09:26:30.78Z</time></trkpt><trkpt lat="37.5682398" lon="15.0097413"><ele>470.0</ele><time>2026-03-22T09:26:31.781Z</time></trkpt><trkpt lat="37.5682399" lon="15.0096584"><ele>468.8</ele><time>2026-03-22T09:26:32.78Z</time></trkpt><trkpt lat="37.5682413" lon="15.0095782"><ele>467.6</ele><time>2026-03-22T09:26:33.78Z</time></trkpt><trkpt lat="37.5682602" lon="15.0094359"><ele>466.4</ele><time>2026-03-22T09:26:35.78Z</time></trkpt><trkpt lat="37.5682884" lon="15.0093165"><ele>465.2</ele><time>2026-03-22T09:26:37.781Z</time></trkpt><trkpt lat="37.568344" lon="15.0092146"><ele>464.0</ele><time>2026-03-22T09:26:39.78Z</time></trkpt><trkpt lat="37.5684265" lon="15.0091"><ele>464.00000000000006</ele><time>2026-03-22T09:26:41.78Z</time></trkpt><trkpt lat="37.5684663" lon="15.0090354"><ele>464.0</ele><time>2026-03-22T09:26:42.78Z</time></trkpt><trkpt lat="37.5685112" lon="15.0089774"><ele>464.00000000000006</ele><time>2026-03-22T09:26:43.78Z</time></trkpt><trkpt lat="37.5685664" lon="15.0089174"><ele>464.00000000000006</ele><time>2026-03-22T09:26:44.78Z</time></trkpt><trkpt lat="37.5686266" lon="15.0088593"><ele>464.0</ele><time>2026-03-22T09:26:45.78Z</time></trkpt><trkpt lat="37.5686919" lon="15.0088086"><ele>464.00000000000006</ele><time>2026-03-22T09:26:46.781Z</time></trkpt><trkpt lat="37.5687668" lon="15.0087494"><ele>464.00000000000006</ele><time>2026-03-22T09:26:47.78Z</time></trkpt><trkpt lat="37.568849" lon="15.0086722"><ele>464.0</ele><time>2026-03-22T09:26:48.781Z</time></trkpt><trkpt lat="37.5689349" lon="15.0085754"><ele>464.0</ele><time>2026-03-22T09:26:49.781Z</time></trkpt><trkpt lat="37.5690197" lon="15.0084755"><ele>464.0</ele><time>2026-03-22T09:26:50.781Z</time></trkpt><trkpt lat="37.5691099" lon="15.0083731"><ele>464.0</ele><time>2026-03-22T09:26:51.78Z</time></trkpt><trkpt lat="37.5692054" lon="15.0082725"><ele>463.25</ele><time>2026-03-22T09:26:52.781Z</time></trkpt><trkpt lat="37.5693015" lon="15.0081726"><ele>462.5</ele><time>2026-03-22T09:26:53.78Z</time></trkpt><trkpt lat="37.569385" lon="15.008075"><ele>461.75</ele><time>2026-03-22T09:26:54.781Z</time></trkpt><trkpt lat="37.5694567" lon="15.0079667"><ele>461.0</ele><time>2026-03-22T09:26:55.78Z</time></trkpt><trkpt lat="37.5695217" lon="15.0078433"><ele>463.0</ele><time>2026-03-22T09:26:56.78Z</time></trkpt><trkpt lat="37.5695817" lon="15.0077117"><ele>465.0</ele><time>2026-03-22T09:26:57.781Z</time></trkpt><trkpt lat="37.569635" lon="15.0075867"><ele>467.0</ele><time>2026-03-22T09:26:58.78Z</time></trkpt><trkpt lat="37.5696967" lon="15.00746"><ele>469.0</ele><time>2026-03-22T09:26:59.781Z</time></trkpt><trkpt lat="37.5697617" lon="15.00732"><ele>469.0</ele><time>2026-03-22T09:27:00.781Z</time></trkpt><trkpt lat="37.5698217" lon="15.0071867"><ele>469.0</ele><time>2026-03-22T09:27:01.781Z</time></trkpt><trkpt lat="37.569885" lon="15.0070517"><ele>469.0</ele><time>2026-03-22T09:27:02.781Z</time></trkpt><trkpt lat="37.5699483" lon="15.0069167"><ele>469.0</ele><time>2026-03-22T09:27:03.78Z</time></trkpt><trkpt lat="37.570005" lon="15.006785"><ele>468.0</ele><time>2026-03-22T09:27:04.781Z</time></trkpt><trkpt lat="37.570055" lon="15.0066467"><ele>467.0</ele><time>2026-03-22T09:27:05.781Z</time></trkpt><trkpt lat="37.5700983" lon="15.0064983"><ele>466.0</ele><time>2026-03-22T09:27:06.78Z</time></trkpt><trkpt lat="37.5701283" lon="15.0063367"><ele>465.0</ele><time>2026-03-22T09:27:07.78Z</time></trkpt><trkpt lat="37.570155" lon="15.00616"><ele>465.0</ele><time>2026-03-22T09:27:08.78Z</time></trkpt><trkpt lat="37.5701817" lon="15.0059783"><ele>465.0</ele><time>2026-03-22T09:27:09.78Z</time></trkpt><trkpt lat="37.5702183" lon="15.0057817"><ele>465.0</ele><time>2026-03-22T09:27:10.78Z</time></trkpt><trkpt lat="37.5702433" lon="15.0055667"><ele>464.0</ele><time>2026-03-22T09:27:11.78Z</time></trkpt><trkpt lat="37.5702783" lon="15.0053583"><ele>463.0</ele><time>2026-03-22T09:27:12.781Z</time></trkpt><trkpt lat="37.5703133" lon="15.00515"><ele>462.0</ele><time>2026-03-22T09:27:13.78Z</time></trkpt><trkpt lat="37.5703483" lon="15.00494"><ele>462.0</ele><time>2026-03-22T09:27:14.78Z</time></trkpt><trkpt lat="37.5703783" lon="15.004735"><ele>462.0</ele><time>2026-03-22T09:27:15.781Z</time></trkpt><trkpt lat="37.5704067" lon="15.00454"><ele>462.0</ele><time>2026-03-22T09:27:16.781Z</time></trkpt><trkpt lat="37.570435" lon="15.0043567"><ele>462.0</ele><time>2026-03-22T09:27:17.78Z</time></trkpt><trkpt lat="37.5704567" lon="15.0041867"><ele>462.00000000000006</ele><time>2026-03-22T09:27:18.78Z</time></trkpt><trkpt lat="37.5704833" lon="15.0040367"><ele>462.00000000000006</ele><time>2026-03-22T09:27:19.781Z</time></trkpt><trkpt lat="37.5705033" lon="15.0039183"><ele>462.0</ele><time>2026-03-22T09:27:20.781Z</time></trkpt><trkpt lat="37.5705233" lon="15.003825"><ele>462.0</ele><time>2026-03-22T09:27:21.78Z</time></trkpt><trkpt lat="37.5705367" lon="15.0037333"><ele>462.0</ele><time>2026-03-22T09:27:22.78Z</time></trkpt><trkpt lat="37.5705533" lon="15.00364"><ele>462.0</ele><time>2026-03-22T09:27:23.78Z</time></trkpt><trkpt lat="37.5705667" lon="15.0035467"><ele>462.0</ele><time>2026-03-22T09:27:24.781Z</time></trkpt><trkpt lat="37.5705617" lon="15.00346"><ele>462.0</ele><time>2026-03-22T09:27:25.78Z</time></trkpt><trkpt lat="37.570525" lon="15.003395"><ele>462.0</ele><time>2026-03-22T09:27:26.781Z</time></trkpt><trkpt lat="37.5704583" lon="15.003355"><ele>462.0</ele><time>2026-03-22T09:27:27.781Z</time></trkpt><trkpt lat="37.5703617" lon="15.003315"><ele>461.5</ele><time>2026-03-22T09:27:28.78Z</time></trkpt><trkpt lat="37.5702467" lon="15.0032683"><ele>461.0</ele><time>2026-03-22T09:27:29.781Z</time></trkpt><trkpt lat="37.5701217" lon="15.0032133"><ele>460.5</ele><time>2026-03-22T09:27:30.781Z</time></trkpt><trkpt lat="37.5699917" lon="15.00315"><ele>460.0</ele><time>2026-03-22T09:27:31.781Z</time></trkpt><trkpt lat="37.5698617" lon="15.0030833"><ele>460.0</ele><time>2026-03-22T09:27:32.781Z</time></trkpt><trkpt lat="37.569735" lon="15.0030067"><ele>460.0</ele><time>2026-03-22T09:27:33.78Z</time></trkpt><trkpt lat="37.5696083" lon="15.0029333"><ele>460.0</ele><time>2026-03-22T09:27:34.781Z</time></trkpt><trkpt lat="37.5694783" lon="15.0028633"><ele>460.0</ele><time>2026-03-22T09:27:35.78Z</time></trkpt><trkpt lat="37.5693483" lon="15.0027983"><ele>457.75</ele><time>2026-03-22T09:27:36.781Z</time></trkpt><trkpt lat="37.5692167" lon="15.0027233"><ele>455.5</ele><time>2026-03-22T09:27:37.781Z</time></trkpt><trkpt lat="37.5690883" lon="15.0026467"><ele>453.25</ele><time>2026-03-22T09:27:38.78Z</time></trkpt><trkpt lat="37.5689617" lon="15.00257"><ele>451.0</ele><time>2026-03-22T09:27:39.78Z</time></trkpt><trkpt lat="37.56885" lon="15.002495"><ele>451.0</ele><time>2026-03-22T09:27:40.781Z</time></trkpt><trkpt lat="37.5687317" lon="15.002435"><ele>451.0</ele><time>2026-03-22T09:27:41.78Z</time></trkpt><trkpt lat="37.5686267" lon="15.0023783"><ele>451.0</ele><time>2026-03-22T09:27:42.78Z</time></trkpt><trkpt lat="37.5685233" lon="15.0023367"><ele>451.0</ele><time>2026-03-22T09:27:43.78Z</time></trkpt><trkpt lat="37.5684267" lon="15.0022883"><ele>449.0</ele><time>2026-03-22T09:27:44.781Z</time></trkpt><trkpt lat="37.568325" lon="15.0022317"><ele>447.0</ele><time>2026-03-22T09:27:45.78Z</time></trkpt><trkpt lat="37.5682167" lon="15.0021633"><ele>445.0</ele><time>2026-03-22T09:27:46.781Z</time></trkpt><trkpt lat="37.5681083" lon="15.0021017"><ele>443.0</ele><time>2026-03-22T09:27:47.78Z</time></trkpt><trkpt lat="37.568" lon="15.0020267"><ele>443.0</ele><time>2026-03-22T09:27:48.78Z</time></trkpt><trkpt lat="37.56789" lon="15.0019617"><ele>443.0</ele><time>2026-03-22T09:27:49.781Z</time></trkpt><trkpt lat="37.5677817" lon="15.0018983"><ele>443.0</ele><time>2026-03-22T09:27:50.78Z</time></trkpt><trkpt lat="37.5676717" lon="15.00183"><ele>443.0</ele><time>2026-03-22T09:27:51.781Z</time></trkpt><trkpt lat="37.5675633" lon="15.0017717"><ele>442.2</ele><time>2026-03-22T09:27:52.78Z</time></trkpt><trkpt lat="37.567465" lon="15.00171"><ele>441.4</ele><time>2026-03-22T09:27:53.781Z</time></trkpt><trkpt lat="37.5673683" lon="15.001655"><ele>440.59999999999997</ele><time>2026-03-22T09:27:54.781Z</time></trkpt><trkpt lat="37.5672783" lon="15.0016083"><ele>439.79999999999995</ele><time>2026-03-22T09:27:55.78Z</time></trkpt><trkpt lat="37.567205" lon="15.0015633"><ele>439.0</ele><time>2026-03-22T09:27:56.781Z</time></trkpt><trkpt lat="37.567145" lon="15.0015267"><ele>438.2</ele><time>2026-03-22T09:27:57.78Z</time></trkpt><trkpt lat="37.56705" lon="15.0014567"><ele>437.4</ele><time>2026-03-22T09:27:59.78Z</time></trkpt><trkpt lat="37.5669383" lon="15.0013733"><ele>436.6</ele><time>2026-03-22T09:28:01.781Z</time></trkpt><trkpt lat="37.5668583" lon="15.0013217"><ele>435.8</ele><time>2026-03-22T09:28:02.781Z</time></trkpt><trkpt lat="37.566765" lon="15.001285"><ele>435.0</ele><time>2026-03-22T09:28:03.78Z</time></trkpt><trkpt lat="37.5666633" lon="15.001265"><ele>434.5</ele><time>2026-03-22T09:28:04.781Z</time></trkpt><trkpt lat="37.5665483" lon="15.0012417"><ele>434.0</ele><time>2026-03-22T09:28:05.781Z</time></trkpt><trkpt lat="37.5664217" lon="15.0012167"><ele>433.5</ele><time>2026-03-22T09:28:06.78Z</time></trkpt><trkpt lat="37.5662767" lon="15.0012033"><ele>433.0</ele><time>2026-03-22T09:28:07.78Z</time></trkpt><trkpt lat="37.5661367" lon="15.0011983"><ele>432.0</ele><time>2026-03-22T09:28:08.781Z</time></trkpt><trkpt lat="37.566" lon="15.0011867"><ele>431.0</ele><time>2026-03-22T09:28:09.781Z</time></trkpt><trkpt lat="37.56572" lon="15.0011667"><ele>430.0</ele><time>2026-03-22T09:28:11.781Z</time></trkpt><trkpt lat="37.5655867" lon="15.0011517"><ele>430.0</ele><time>2026-03-22T09:28:12.78Z</time></trkpt><trkpt lat="37.5654533" lon="15.0011383"><ele>430.0</ele><time>2026-03-22T09:28:13.781Z</time></trkpt><trkpt lat="37.5653283" lon="15.0011217"><ele>430.0</ele><time>2026-03-22T09:28:14.781Z</time></trkpt><trkpt lat="37.5652017" lon="15.00111"><ele>430.0</ele><time>2026-03-22T09:28:15.78Z</time></trkpt><trkpt lat="37.56509" lon="15.0010917"><ele>429.0</ele><time>2026-03-22T09:28:16.78Z</time></trkpt><trkpt lat="37.5649767" lon="15.0010783"><ele>428.0</ele><time>2026-03-22T09:28:17.781Z</time></trkpt><trkpt lat="37.56485" lon="15.0010567"><ele>427.0</ele><time>2026-03-22T09:28:18.78Z</time></trkpt><trkpt lat="37.5647183" lon="15.0010233"><ele>426.0</ele><time>2026-03-22T09:28:19.78Z</time></trkpt><trkpt lat="37.5645917" lon="15.0009817"><ele>425.25</ele><time>2026-03-22T09:28:20.78Z</time></trkpt><trkpt lat="37.5644767" lon="15.00092"><ele>424.5</ele><time>2026-03-22T09:28:21.78Z</time></trkpt><trkpt lat="37.5643667" lon="15.00085"><ele>423.75</ele><time>2026-03-22T09:28:22.78Z</time></trkpt><trkpt lat="37.56427" lon="15.0007617"><ele>423.0</ele><time>2026-03-22T09:28:23.781Z</time></trkpt><trkpt lat="37.5641817" lon="15.00066"><ele>422.59999999999997</ele><time>2026-03-22T09:28:24.78Z</time></trkpt><trkpt lat="37.564085" lon="15.0005617"><ele>422.2</ele><time>2026-03-22T09:28:25.781Z</time></trkpt><trkpt lat="37.564" lon="15.0004683"><ele>421.8</ele><time>2026-03-22T09:28:26.78Z</time></trkpt><trkpt lat="37.5639183" lon="15.000385"><ele>421.4</ele><time>2026-03-22T09:28:27.781Z</time></trkpt><trkpt lat="37.5638383" lon="15.000315"><ele>421.0</ele><time>2026-03-22T09:28:28.78Z</time></trkpt><trkpt lat="37.5637517" lon="15.0002667"><ele>419.0</ele><time>2026-03-22T09:28:29.78Z</time></trkpt><trkpt lat="37.56365" lon="15.0002233"><ele>417.0</ele><time>2026-03-22T09:28:30.78Z</time></trkpt><trkpt lat="37.5635383" lon="15.0002017"><ele>415.0</ele><time>2026-03-22T09:28:31.78Z</time></trkpt><trkpt lat="37.5634317" lon="15.0001967"><ele>413.0</ele><time>2026-03-22T09:28:32.78Z</time></trkpt><trkpt lat="37.5633133" lon="15.0002217"><ele>411.0</ele><time>2026-03-22T09:28:33.781Z</time></trkpt><trkpt lat="37.5631983" lon="15.000255"><ele>411.0</ele><time>2026-03-22T09:28:34.78Z</time></trkpt><trkpt lat="37.5630917" lon="15.00029"><ele>411.0</ele><time>2026-03-22T09:28:35.78Z</time></trkpt><trkpt lat="37.56299" lon="15.000315"><ele>411.0</ele><time>2026-03-22T09:28:36.78Z</time></trkpt><trkpt lat="37.5629" lon="15.0003283"><ele>411.0</ele><time>2026-03-22T09:28:37.78Z</time></trkpt><trkpt lat="37.5628133" lon="15.0003083"><ele>411.0</ele><time>2026-03-22T09:28:38.781Z</time></trkpt><trkpt lat="37.5627217" lon="15.00025"><ele>410.0</ele><time>2026-03-22T09:28:39.78Z</time></trkpt><trkpt lat="37.5626267" lon="15.00017"><ele>409.0</ele><time>2026-03-22T09:28:40.781Z</time></trkpt><trkpt lat="37.5625267" lon="15.0000783"><ele>408.0</ele><time>2026-03-22T09:28:41.78Z</time></trkpt><trkpt lat="37.562415" lon="14.999975"><ele>407.0</ele><time>2026-03-22T09:28:42.781Z</time></trkpt><trkpt lat="37.5623" lon="14.99988"><ele>407.0</ele><time>2026-03-22T09:28:43.78Z</time></trkpt><trkpt lat="37.562185" lon="14.9997617"><ele>407.0</ele><time>2026-03-22T09:28:44.781Z</time></trkpt><trkpt lat="37.5620633" lon="14.9996583"><ele>407.0</ele><time>2026-03-22T09:28:45.78Z</time></trkpt><trkpt lat="37.5619383" lon="14.9995517"><ele>407.0</ele><time>2026-03-22T09:28:46.78Z</time></trkpt><trkpt lat="37.5618167" lon="14.9994433"><ele>406.66666666666663</ele><time>2026-03-22T09:28:47.781Z</time></trkpt><trkpt lat="37.5616883" lon="14.9993283"><ele>406.33333333333337</ele><time>2026-03-22T09:28:48.78Z</time></trkpt><trkpt lat="37.5615567" lon="14.99922"><ele>406.0</ele><time>2026-03-22T09:28:49.781Z</time></trkpt><trkpt lat="37.5614283" lon="14.999115"><ele>405.0</ele><time>2026-03-22T09:28:50.781Z</time></trkpt><trkpt lat="37.5613117" lon="14.9990133"><ele>404.0</ele><time>2026-03-22T09:28:51.781Z</time></trkpt><trkpt lat="37.5612" lon="14.9989233"><ele>403.0</ele><time>2026-03-22T09:28:52.781Z</time></trkpt><trkpt lat="37.5611" lon="14.9988267"><ele>402.0</ele><time>2026-03-22T09:28:53.78Z</time></trkpt><trkpt lat="37.56101" lon="14.9987433"><ele>401.20000000000005</ele><time>2026-03-22T09:28:54.781Z</time></trkpt><trkpt lat="37.5609333" lon="14.9986617"><ele>400.4</ele><time>2026-03-22T09:28:55.781Z</time></trkpt><trkpt lat="37.56087" lon="14.9985667"><ele>399.6</ele><time>2026-03-22T09:28:56.78Z</time></trkpt><trkpt lat="37.56082" lon="14.9984533"><ele>398.79999999999995</ele><time>2026-03-22T09:28:57.78Z</time></trkpt><trkpt lat="37.5607867" lon="14.99834"><ele>398.0</ele><time>2026-03-22T09:28:58.781Z</time></trkpt><trkpt lat="37.5607617" lon="14.9982367"><ele>396.59999999999997</ele><time>2026-03-22T09:28:59.78Z</time></trkpt><trkpt lat="37.5607367" lon="14.9981233"><ele>395.2</ele><time>2026-03-22T09:29:00.781Z</time></trkpt><trkpt lat="37.5607033" lon="14.9979983"><ele>393.8</ele><time>2026-03-22T09:29:01.78Z</time></trkpt><trkpt lat="37.56067" lon="14.9978683"><ele>392.4</ele><time>2026-03-22T09:29:02.78Z</time></trkpt><trkpt lat="37.560635" lon="14.99773"><ele>391.0</ele><time>2026-03-22T09:29:03.78Z</time></trkpt><trkpt lat="37.560615" lon="14.9975733"><ele>390.5</ele><time>2026-03-22T09:29:04.78Z</time></trkpt><trkpt lat="37.5606083" lon="14.9974017"><ele>390.0</ele><time>2026-03-22T09:29:05.781Z</time></trkpt><trkpt lat="37.5605983" lon="14.9972183"><ele>389.5</ele><time>2026-03-22T09:29:06.78Z</time></trkpt><trkpt lat="37.5605833" lon="14.9970367"><ele>389.0</ele><time>2026-03-22T09:29:07.781Z</time></trkpt><trkpt lat="37.5605583" lon="14.996865"><ele>389.0</ele><time>2026-03-22T09:29:08.781Z</time></trkpt><trkpt lat="37.5605317" lon="14.996705"><ele>389.0</ele><time>2026-03-22T09:29:09.78Z</time></trkpt><trkpt lat="37.5604933" lon="14.99656"><ele>389.0</ele><time>2026-03-22T09:29:10.781Z</time></trkpt><trkpt lat="37.5604367" lon="14.996415"><ele>389.0</ele><time>2026-03-22T09:29:11.781Z</time></trkpt><trkpt lat="37.5603483" lon="14.996275"><ele>385.66666666666663</ele><time>2026-03-22T09:29:12.78Z</time></trkpt><trkpt lat="37.56025" lon="14.9961283"><ele>382.3333333333333</ele><time>2026-03-22T09:29:13.78Z</time></trkpt><trkpt lat="37.5601533" lon="14.9959717"><ele>379.0</ele><time>2026-03-22T09:29:14.781Z</time></trkpt><trkpt lat="37.5600533" lon="14.9958167"><ele>377.0</ele><time>2026-03-22T09:29:15.781Z</time></trkpt><trkpt lat="37.5599533" lon="14.9956633"><ele>375.0</ele><time>2026-03-22T09:29:16.78Z</time></trkpt><trkpt lat="37.5598617" lon="14.99551"><ele>373.0</ele><time>2026-03-22T09:29:17.78Z</time></trkpt><trkpt lat="37.5597717" lon="14.9953617"><ele>373.0</ele><time>2026-03-22T09:29:18.781Z</time></trkpt><trkpt lat="37.55969" lon="14.99521"><ele>373.0</ele><time>2026-03-22T09:29:19.78Z</time></trkpt><trkpt lat="37.559625" lon="14.9950533"><ele>373.0</ele><time>2026-03-22T09:29:20.78Z</time></trkpt><trkpt lat="37.5595733" lon="14.99489"><ele>373.0</ele><time>2026-03-22T09:29:21.781Z</time></trkpt><trkpt lat="37.559545" lon="14.9947167"><ele>370.3333333333333</ele><time>2026-03-22T09:29:22.781Z</time></trkpt><trkpt lat="37.5595283" lon="14.99453"><ele>367.6666666666667</ele><time>2026-03-22T09:29:23.781Z</time></trkpt><trkpt lat="37.5595283" lon="14.99434"><ele>365.0</ele><time>2026-03-22T09:29:24.781Z</time></trkpt><trkpt lat="37.5595367" lon="14.994145"><ele>365.0</ele><time>2026-03-22T09:29:25.781Z</time></trkpt><trkpt lat="37.5595433" lon="14.993945"><ele>365.0</ele><time>2026-03-22T09:29:26.781Z</time></trkpt><trkpt lat="37.5595483" lon="14.993745"><ele>365.0</ele><time>2026-03-22T09:29:27.78Z</time></trkpt><trkpt lat="37.5595533" lon="14.9935467"><ele>365.0</ele><time>2026-03-22T09:29:28.78Z</time></trkpt><trkpt lat="37.5595483" lon="14.9933467"><ele>365.0</ele><time>2026-03-22T09:29:29.78Z</time></trkpt><trkpt lat="37.55954" lon="14.9931417"><ele>365.0</ele><time>2026-03-22T09:29:30.78Z</time></trkpt><trkpt lat="37.5595267" lon="14.992925"><ele>363.0</ele><time>2026-03-22T09:29:31.781Z</time></trkpt><trkpt lat="37.55951" lon="14.9927033"><ele>361.0</ele><time>2026-03-22T09:29:32.781Z</time></trkpt><trkpt lat="37.55949" lon="14.9924833"><ele>359.0</ele><time>2026-03-22T09:29:33.781Z</time></trkpt><trkpt lat="37.5594717" lon="14.9922617"><ele>358.0</ele><time>2026-03-22T09:29:34.781Z</time></trkpt><trkpt lat="37.55946" lon="14.9920467"><ele>357.0</ele><time>2026-03-22T09:29:35.781Z</time></trkpt><trkpt lat="37.5594483" lon="14.991835"><ele>356.0</ele><time>2026-03-22T09:29:36.781Z</time></trkpt><trkpt lat="37.5594383" lon="14.9916233"><ele>355.33333333333337</ele><time>2026-03-22T09:29:37.781Z</time></trkpt><trkpt lat="37.5594267" lon="14.9914067"><ele>354.6666666666667</ele><time>2026-03-22T09:29:38.78Z</time></trkpt><trkpt lat="37.5594167" lon="14.9911883"><ele>354.0</ele><time>2026-03-22T09:29:39.781Z</time></trkpt><trkpt lat="37.5594083" lon="14.990975"><ele>352.6666666666667</ele><time>2026-03-22T09:29:40.781Z</time></trkpt><trkpt lat="37.5594033" lon="14.99076"><ele>351.33333333333337</ele><time>2026-03-22T09:29:41.78Z</time></trkpt><trkpt lat="37.55939" lon="14.9905417"><ele>350.0</ele><time>2026-03-22T09:29:42.78Z</time></trkpt><trkpt lat="37.5593767" lon="14.9903283"><ele>350.0</ele><time>2026-03-22T09:29:43.781Z</time></trkpt><trkpt lat="37.5593567" lon="14.9901133"><ele>350.0</ele><time>2026-03-22T09:29:44.781Z</time></trkpt><trkpt lat="37.5593233" lon="14.9898967"><ele>350.0</ele><time>2026-03-22T09:29:45.781Z</time></trkpt><trkpt lat="37.559275" lon="14.9896783"><ele>348.0</ele><time>2026-03-22T09:29:46.78Z</time></trkpt><trkpt lat="37.5592217" lon="14.9894567"><ele>346.0</ele><time>2026-03-22T09:29:47.781Z</time></trkpt><trkpt lat="37.55916" lon="14.9892317"><ele>344.0</ele><time>2026-03-22T09:29:48.781Z</time></trkpt><trkpt lat="37.5590933" lon="14.9890033"><ele>343.6666666666667</ele><time>2026-03-22T09:29:49.78Z</time></trkpt><trkpt lat="37.559025" lon="14.988765"><ele>343.3333333333333</ele><time>2026-03-22T09:29:50.78Z</time></trkpt><trkpt lat="37.558955" lon="14.9885217"><ele>343.0</ele><time>2026-03-22T09:29:51.781Z</time></trkpt><trkpt lat="37.5588833" lon="14.9882717"><ele>342.3333333333333</ele><time>2026-03-22T09:29:52.781Z</time></trkpt><trkpt lat="37.558805" lon="14.9880217"><ele>341.6666666666667</ele><time>2026-03-22T09:29:53.781Z</time></trkpt><trkpt lat="37.55873" lon="14.9877733"><ele>341.0</ele><time>2026-03-22T09:29:54.781Z</time></trkpt><trkpt lat="37.5586683" lon="14.9875367"><ele>338.6666666666667</ele><time>2026-03-22T09:29:55.781Z</time></trkpt><trkpt lat="37.5586067" lon="14.9873117"><ele>336.3333333333333</ele><time>2026-03-22T09:29:56.781Z</time></trkpt><trkpt lat="37.5585467" lon="14.9870967"><ele>334.0</ele><time>2026-03-22T09:29:57.78Z</time></trkpt><trkpt lat="37.5584867" lon="14.986885"><ele>334.0</ele><time>2026-03-22T09:29:58.78Z</time></trkpt><trkpt lat="37.55843" lon="14.9866867"><ele>334.0</ele><time>2026-03-22T09:29:59.78Z</time></trkpt><trkpt lat="37.5583767" lon="14.9864967"><ele>334.0</ele><time>2026-03-22T09:30:00.781Z</time></trkpt><trkpt lat="37.558325" lon="14.986315"><ele>334.0</ele><time>2026-03-22T09:30:01.78Z</time></trkpt><trkpt lat="37.558275" lon="14.9861483"><ele>334.0</ele><time>2026-03-22T09:30:02.781Z</time></trkpt><trkpt lat="37.5582233" lon="14.9859733"><ele>334.0</ele><time>2026-03-22T09:30:03.781Z</time></trkpt><trkpt lat="37.558155" lon="14.9858"><ele>334.0</ele><time>2026-03-22T09:30:04.78Z</time></trkpt><trkpt lat="37.5580683" lon="14.9856317"><ele>333.66666666666663</ele><time>2026-03-22T09:30:05.78Z</time></trkpt><trkpt lat="37.5579633" lon="14.9854667"><ele>333.3333333333333</ele><time>2026-03-22T09:30:06.78Z</time></trkpt><trkpt lat="37.5578433" lon="14.98531"><ele>333.0</ele><time>2026-03-22T09:30:07.781Z</time></trkpt><trkpt lat="37.5577183" lon="14.98515"><ele>331.6666666666667</ele><time>2026-03-22T09:30:08.781Z</time></trkpt><trkpt lat="37.5575933" lon="14.98498"><ele>330.33333333333337</ele><time>2026-03-22T09:30:09.781Z</time></trkpt><trkpt lat="37.5574683" lon="14.9848067"><ele>329.0</ele><time>2026-03-22T09:30:10.78Z</time></trkpt><trkpt lat="37.5573433" lon="14.98464"><ele>329.0</ele><time>2026-03-22T09:30:11.781Z</time></trkpt><trkpt lat="37.5572167" lon="14.9844733"><ele>329.0</ele><time>2026-03-22T09:30:12.781Z</time></trkpt><trkpt lat="37.5570917" lon="14.9843133"><ele>329.0</ele><time>2026-03-22T09:30:13.78Z</time></trkpt><trkpt lat="37.55697" lon="14.984155"><ele>326.33333333333337</ele><time>2026-03-22T09:30:14.78Z</time></trkpt><trkpt lat="37.5568517" lon="14.98399"><ele>323.6666666666667</ele><time>2026-03-22T09:30:15.781Z</time></trkpt><trkpt lat="37.55673" lon="14.9838233"><ele>321.0</ele><time>2026-03-22T09:30:16.781Z</time></trkpt><trkpt lat="37.5566067" lon="14.9836517"><ele>321.0</ele><time>2026-03-22T09:30:17.781Z</time></trkpt><trkpt lat="37.55648" lon="14.9834767"><ele>321.0</ele><time>2026-03-22T09:30:18.781Z</time></trkpt><trkpt lat="37.5563517" lon="14.9833033"><ele>321.0</ele><time>2026-03-22T09:30:19.78Z</time></trkpt><trkpt lat="37.55623" lon="14.983135"><ele>318.0</ele><time>2026-03-22T09:30:20.781Z</time></trkpt><trkpt lat="37.556105" lon="14.98297"><ele>315.0</ele><time>2026-03-22T09:30:21.781Z</time></trkpt><trkpt lat="37.555985" lon="14.9828083"><ele>312.0</ele><time>2026-03-22T09:30:22.78Z</time></trkpt><trkpt lat="37.5558717" lon="14.9826483"><ele>313.3333333333333</ele><time>2026-03-22T09:30:23.781Z</time></trkpt><trkpt lat="37.5557633" lon="14.9825"><ele>314.66666666666663</ele><time>2026-03-22T09:30:24.78Z</time></trkpt><trkpt lat="37.55566" lon="14.9823633"><ele>316.0</ele><time>2026-03-22T09:30:25.78Z</time></trkpt><trkpt lat="37.5555583" lon="14.98223"><ele>316.0</ele><time>2026-03-22T09:30:26.78Z</time></trkpt><trkpt lat="37.5554617" lon="14.98209"><ele>316.0</ele><time>2026-03-22T09:30:27.78Z</time></trkpt><trkpt lat="37.55537" lon="14.9819583"><ele>316.0</ele><time>2026-03-22T09:30:28.78Z</time></trkpt><trkpt lat="37.5552833" lon="14.9818333"><ele>316.0</ele><time>2026-03-22T09:30:29.781Z</time></trkpt><trkpt lat="37.5552033" lon="14.9817183"><ele>315.40000000000003</ele><time>2026-03-22T09:30:30.78Z</time></trkpt><trkpt lat="37.5551217" lon="14.98161"><ele>314.8</ele><time>2026-03-22T09:30:31.78Z</time></trkpt><trkpt lat="37.5550517" lon="14.9815183"><ele>314.20000000000005</ele><time>2026-03-22T09:30:32.781Z</time></trkpt><trkpt lat="37.555" lon="14.981445"><ele>313.6</ele><time>2026-03-22T09:30:33.781Z</time></trkpt><trkpt lat="37.5549583" lon="14.9813833"><ele>313.0</ele><time>2026-03-22T09:30:34.78Z</time></trkpt><trkpt lat="37.5549" lon="14.9812617"><ele>313.0</ele><time>2026-03-22T09:30:36.78Z</time></trkpt><trkpt lat="37.5548783" lon="14.9811817"><ele>313.0</ele><time>2026-03-22T09:30:37.78Z</time></trkpt><trkpt lat="37.5548617" lon="14.981095"><ele>313.0</ele><time>2026-03-22T09:30:38.78Z</time></trkpt><trkpt lat="37.55484" lon="14.981015"><ele>313.0</ele><time>2026-03-22T09:30:39.78Z</time></trkpt><trkpt lat="37.5547983" lon="14.980945"><ele>313.0</ele><time>2026-03-22T09:30:40.78Z</time></trkpt><trkpt lat="37.55473" lon="14.980885"><ele>313.0</ele><time>2026-03-22T09:30:41.78Z</time></trkpt><trkpt lat="37.554545" lon="14.9807417"><ele>311.25</ele><time>2026-03-22T09:30:43.78Z</time></trkpt><trkpt lat="37.5544417" lon="14.9806567"><ele>309.5</ele><time>2026-03-22T09:30:44.781Z</time></trkpt><trkpt lat="37.5543333" lon="14.9805517"><ele>307.75</ele><time>2026-03-22T09:30:45.78Z</time></trkpt><trkpt lat="37.55422" lon="14.98044"><ele>306.0</ele><time>2026-03-22T09:30:46.78Z</time></trkpt><trkpt lat="37.554105" lon="14.9803217"><ele>306.0</ele><time>2026-03-22T09:30:47.781Z</time></trkpt><trkpt lat="37.553985" lon="14.980195"><ele>306.0</ele><time>2026-03-22T09:30:48.781Z</time></trkpt><trkpt lat="37.5538617" lon="14.980065"><ele>306.0</ele><time>2026-03-22T09:30:49.781Z</time></trkpt><trkpt lat="37.5537383" lon="14.9799283"><ele>302.6666666666667</ele><time>2026-03-22T09:30:50.78Z</time></trkpt><trkpt lat="37.5536217" lon="14.979795"><ele>299.33333333333337</ele><time>2026-03-22T09:30:51.78Z</time></trkpt><trkpt lat="37.5534983" lon="14.9796583"><ele>296.0</ele><time>2026-03-22T09:30:52.781Z</time></trkpt><trkpt lat="37.5533683" lon="14.9795217"><ele>296.0</ele><time>2026-03-22T09:30:53.78Z</time></trkpt><trkpt lat="37.5532383" lon="14.97938"><ele>296.0</ele><time>2026-03-22T09:30:54.781Z</time></trkpt><trkpt lat="37.5531133" lon="14.9792433"><ele>296.0</ele><time>2026-03-22T09:30:55.78Z</time></trkpt><trkpt lat="37.5529933" lon="14.979115"><ele>295.0</ele><time>2026-03-22T09:30:56.781Z</time></trkpt><trkpt lat="37.5528867" lon="14.9789983"><ele>294.0</ele><time>2026-03-22T09:30:57.78Z</time></trkpt><trkpt lat="37.552795" lon="14.9788933"><ele>293.0</ele><time>2026-03-22T09:30:58.781Z</time></trkpt><trkpt lat="37.5527167" lon="14.9787983"><ele>292.0</ele><time>2026-03-22T09:30:59.781Z</time></trkpt><trkpt lat="37.55264" lon="14.9787083"><ele>292.0</ele><time>2026-03-22T09:31:00.78Z</time></trkpt><trkpt lat="37.5525817" lon="14.9786217"><ele>292.0</ele><time>2026-03-22T09:31:01.781Z</time></trkpt><trkpt lat="37.55254" lon="14.978535"><ele>292.0</ele><time>2026-03-22T09:31:02.78Z</time></trkpt><trkpt lat="37.5525117" lon="14.9784417"><ele>292.0</ele><time>2026-03-22T09:31:03.78Z</time></trkpt><trkpt lat="37.5525" lon="14.9783267"><ele>292.0</ele><time>2026-03-22T09:31:04.78Z</time></trkpt><trkpt lat="37.552505" lon="14.97819"><ele>293.0</ele><time>2026-03-22T09:31:05.78Z</time></trkpt><trkpt lat="37.55253" lon="14.9780567"><ele>294.0</ele><time>2026-03-22T09:31:06.781Z</time></trkpt><trkpt lat="37.552575" lon="14.977935"><ele>295.0</ele><time>2026-03-22T09:31:07.781Z</time></trkpt><trkpt lat="37.5526283" lon="14.977815"><ele>296.0</ele><time>2026-03-22T09:31:08.78Z</time></trkpt><trkpt lat="37.5526967" lon="14.9776933"><ele>297.0</ele><time>2026-03-22T09:31:09.781Z</time></trkpt><trkpt lat="37.552785" lon="14.9775917"><ele>297.4</ele><time>2026-03-22T09:31:10.781Z</time></trkpt><trkpt lat="37.5528783" lon="14.9775267"><ele>297.79999999999995</ele><time>2026-03-22T09:31:11.781Z</time></trkpt><trkpt lat="37.55298" lon="14.9775"><ele>298.2</ele><time>2026-03-22T09:31:12.781Z</time></trkpt><trkpt lat="37.553085" lon="14.9775"><ele>298.59999999999997</ele><time>2026-03-22T09:31:13.781Z</time></trkpt><trkpt lat="37.5531967" lon="14.9775017"><ele>299.0</ele><time>2026-03-22T09:31:14.78Z</time></trkpt><trkpt lat="37.5533117" lon="14.9775083"><ele>298.0</ele><time>2026-03-22T09:31:15.78Z</time></trkpt><trkpt lat="37.5534067" lon="14.977505"><ele>297.0</ele><time>2026-03-22T09:31:16.78Z</time></trkpt><trkpt lat="37.5535" lon="14.9774933"><ele>296.0</ele><time>2026-03-22T09:31:17.781Z</time></trkpt><trkpt lat="37.5535783" lon="14.97747"><ele>295.0</ele><time>2026-03-22T09:31:18.78Z</time></trkpt><trkpt lat="37.5536467" lon="14.9774233"><ele>294.0</ele><time>2026-03-22T09:31:19.781Z</time></trkpt><trkpt lat="37.553685" lon="14.9773533"><ele>293.0</ele><time>2026-03-22T09:31:20.78Z</time></trkpt><trkpt lat="37.5536967" lon="14.977255"><ele>293.0</ele><time>2026-03-22T09:31:21.781Z</time></trkpt><trkpt lat="37.5536733" lon="14.9771417"><ele>293.0</ele><time>2026-03-22T09:31:22.78Z</time></trkpt><trkpt lat="37.5536267" lon="14.9770267"><ele>293.0</ele><time>2026-03-22T09:31:23.781Z</time></trkpt><trkpt lat="37.5535583" lon="14.9769083"><ele>293.0</ele><time>2026-03-22T09:31:24.781Z</time></trkpt><trkpt lat="37.5534867" lon="14.9767867"><ele>293.0</ele><time>2026-03-22T09:31:25.78Z</time></trkpt><trkpt lat="37.553405" lon="14.9766567"><ele>291.0</ele><time>2026-03-22T09:31:26.78Z</time></trkpt><trkpt lat="37.5533233" lon="14.97652"><ele>289.0</ele><time>2026-03-22T09:31:27.781Z</time></trkpt><trkpt lat="37.5532367" lon="14.976375"><ele>287.0</ele><time>2026-03-22T09:31:28.781Z</time></trkpt><trkpt lat="37.5531483" lon="14.9762183"><ele>285.0</ele><time>2026-03-22T09:31:29.78Z</time></trkpt><trkpt lat="37.553055" lon="14.976055"><ele>285.0</ele><time>2026-03-22T09:31:30.781Z</time></trkpt><trkpt lat="37.55296" lon="14.9758883"><ele>285.0</ele><time>2026-03-22T09:31:31.781Z</time></trkpt><trkpt lat="37.5528583" lon="14.9757167"><ele>285.0</ele><time>2026-03-22T09:31:32.78Z</time></trkpt><trkpt lat="37.5527583" lon="14.9755383"><ele>283.6666666666667</ele><time>2026-03-22T09:31:33.78Z</time></trkpt><trkpt lat="37.552655" lon="14.975355"><ele>282.33333333333337</ele><time>2026-03-22T09:31:34.78Z</time></trkpt><trkpt lat="37.5525517" lon="14.9751733"><ele>281.0</ele><time>2026-03-22T09:31:35.78Z</time></trkpt><trkpt lat="37.552445" lon="14.97499"><ele>280.0</ele><time>2026-03-22T09:31:36.78Z</time></trkpt><trkpt lat="37.5523417" lon="14.9748117"><ele>279.0</ele><time>2026-03-22T09:31:37.781Z</time></trkpt><trkpt lat="37.5522417" lon="14.9746433"><ele>278.0</ele><time>2026-03-22T09:31:38.781Z</time></trkpt><trkpt lat="37.552145" lon="14.9744833"><ele>278.0</ele><time>2026-03-22T09:31:39.78Z</time></trkpt><trkpt lat="37.5520533" lon="14.9743233"><ele>278.0</ele><time>2026-03-22T09:31:40.78Z</time></trkpt><trkpt lat="37.55196" lon="14.97417"><ele>278.0</ele><time>2026-03-22T09:31:41.781Z</time></trkpt><trkpt lat="37.55187" lon="14.9740217"><ele>276.75</ele><time>2026-03-22T09:31:42.781Z</time></trkpt><trkpt lat="37.55178" lon="14.9738717"><ele>275.5</ele><time>2026-03-22T09:31:43.78Z</time></trkpt><trkpt lat="37.5516933" lon="14.9737183"><ele>274.25</ele><time>2026-03-22T09:31:44.781Z</time></trkpt><trkpt lat="37.551605" lon="14.9735683"><ele>273.0</ele><time>2026-03-22T09:31:45.781Z</time></trkpt><trkpt lat="37.5515133" lon="14.9734117"><ele>272.0</ele><time>2026-03-22T09:31:46.78Z</time></trkpt><trkpt lat="37.5514167" lon="14.973245"><ele>271.0</ele><time>2026-03-22T09:31:47.78Z</time></trkpt><trkpt lat="37.5513217" lon="14.9730783"><ele>270.0</ele><time>2026-03-22T09:31:48.781Z</time></trkpt><trkpt lat="37.55123" lon="14.9729167"><ele>268.3333333333333</ele><time>2026-03-22T09:31:49.78Z</time></trkpt><trkpt lat="37.55114" lon="14.9727583"><ele>266.66666666666663</ele><time>2026-03-22T09:31:50.781Z</time></trkpt><trkpt lat="37.5510517" lon="14.9725983"><ele>265.0</ele><time>2026-03-22T09:31:51.781Z</time></trkpt><trkpt lat="37.5509667" lon="14.9724417"><ele>265.0</ele><time>2026-03-22T09:31:52.781Z</time></trkpt><trkpt lat="37.5508767" lon="14.9722883"><ele>265.0</ele><time>2026-03-22T09:31:53.78Z</time></trkpt><trkpt lat="37.55079" lon="14.97213"><ele>265.0</ele><time>2026-03-22T09:31:54.78Z</time></trkpt><trkpt lat="37.5507033" lon="14.9719767"><ele>265.0</ele><time>2026-03-22T09:31:55.78Z</time></trkpt><trkpt lat="37.5506183" lon="14.9718267"><ele>265.0</ele><time>2026-03-22T09:31:56.781Z</time></trkpt><trkpt lat="37.5505367" lon="14.9716817"><ele>265.0</ele><time>2026-03-22T09:31:57.78Z</time></trkpt><trkpt lat="37.5504583" lon="14.9715383"><ele>265.0</ele><time>2026-03-22T09:31:58.781Z</time></trkpt><trkpt lat="37.5503833" lon="14.97141"><ele>265.5</ele><time>2026-03-22T09:31:59.781Z</time></trkpt><trkpt lat="37.55031" lon="14.971285"><ele>266.0</ele><time>2026-03-22T09:32:00.78Z</time></trkpt><trkpt lat="37.550235" lon="14.9711583"><ele>266.5</ele><time>2026-03-22T09:32:01.78Z</time></trkpt><trkpt lat="37.5501683" lon="14.9710383"><ele>267.0</ele><time>2026-03-22T09:32:02.781Z</time></trkpt><trkpt lat="37.5501017" lon="14.9709217"><ele>266.75</ele><time>2026-03-22T09:32:03.78Z</time></trkpt><trkpt lat="37.550035" lon="14.9708017"><ele>266.5</ele><time>2026-03-22T09:32:04.781Z</time></trkpt><trkpt lat="37.54997" lon="14.97068"><ele>266.25</ele><time>2026-03-22T09:32:05.78Z</time></trkpt><trkpt lat="37.5498983" lon="14.97056"><ele>266.0</ele><time>2026-03-22T09:32:06.781Z</time></trkpt><trkpt lat="37.5498233" lon="14.9704383"><ele>266.0</ele><time>2026-03-22T09:32:07.781Z</time></trkpt><trkpt lat="37.5497583" lon="14.9703217"><ele>266.0</ele><time>2026-03-22T09:32:08.78Z</time></trkpt><trkpt lat="37.5496867" lon="14.9702"><ele>266.0</ele><time>2026-03-22T09:32:09.781Z</time></trkpt><trkpt lat="37.5496183" lon="14.9700817"><ele>266.0</ele><time>2026-03-22T09:32:10.781Z</time></trkpt><trkpt lat="37.5495517" lon="14.9699617"><ele>265.0</ele><time>2026-03-22T09:32:11.78Z</time></trkpt><trkpt lat="37.5494817" lon="14.9698367"><ele>264.0</ele><time>2026-03-22T09:32:12.78Z</time></trkpt><trkpt lat="37.5494083" lon="14.969705"><ele>263.0</ele><time>2026-03-22T09:32:13.78Z</time></trkpt><trkpt lat="37.5493317" lon="14.9695783"><ele>262.0</ele><time>2026-03-22T09:32:14.78Z</time></trkpt><trkpt lat="37.5492483" lon="14.9694433"><ele>262.0</ele><time>2026-03-22T09:32:15.78Z</time></trkpt><trkpt lat="37.5491617" lon="14.9693017"><ele>262.0</ele><time>2026-03-22T09:32:16.781Z</time></trkpt><trkpt lat="37.5490667" lon="14.9691517"><ele>262.0</ele><time>2026-03-22T09:32:17.78Z</time></trkpt><trkpt lat="37.5489783" lon="14.9689867"><ele>261.66666666666663</ele><time>2026-03-22T09:32:18.78Z</time></trkpt><trkpt lat="37.54888" lon="14.9688117"><ele>261.3333333333333</ele><time>2026-03-22T09:32:19.781Z</time></trkpt><trkpt lat="37.5487817" lon="14.9686217"><ele>261.0</ele><time>2026-03-22T09:32:20.78Z</time></trkpt><trkpt lat="37.5486733" lon="14.9684283"><ele>258.3333333333333</ele><time>2026-03-22T09:32:21.78Z</time></trkpt><trkpt lat="37.5485617" lon="14.9682383"><ele>255.66666666666666</ele><time>2026-03-22T09:32:22.781Z</time></trkpt><trkpt lat="37.548445" lon="14.9680483"><ele>253.0</ele><time>2026-03-22T09:32:23.78Z</time></trkpt><trkpt lat="37.54834" lon="14.9678617"><ele>253.0</ele><time>2026-03-22T09:32:24.78Z</time></trkpt><trkpt lat="37.548235" lon="14.9676817"><ele>253.0</ele><time>2026-03-22T09:32:25.781Z</time></trkpt><trkpt lat="37.548135" lon="14.967505"><ele>253.0</ele><time>2026-03-22T09:32:26.781Z</time></trkpt><trkpt lat="37.5480383" lon="14.9673333"><ele>254.33333333333331</ele><time>2026-03-22T09:32:27.781Z</time></trkpt><trkpt lat="37.54794" lon="14.967165"><ele>255.66666666666669</ele><time>2026-03-22T09:32:28.78Z</time></trkpt><trkpt lat="37.5478467" lon="14.967"><ele>257.0</ele><time>2026-03-22T09:32:29.781Z</time></trkpt><trkpt lat="37.5477583" lon="14.96684"><ele>255.0</ele><time>2026-03-22T09:32:30.781Z</time></trkpt><trkpt lat="37.54767" lon="14.966685"><ele>253.0</ele><time>2026-03-22T09:32:31.78Z</time></trkpt><trkpt lat="37.547585" lon="14.9665417"><ele>251.0</ele><time>2026-03-22T09:32:32.781Z</time></trkpt><trkpt lat="37.5475067" lon="14.9664017"><ele>249.0</ele><time>2026-03-22T09:32:33.78Z</time></trkpt><trkpt lat="37.5474267" lon="14.9662583"><ele>249.0</ele><time>2026-03-22T09:32:34.78Z</time></trkpt><trkpt lat="37.547345" lon="14.96611"><ele>249.0</ele><time>2026-03-22T09:32:35.781Z</time></trkpt><trkpt lat="37.5472583" lon="14.965965"><ele>249.0</ele><time>2026-03-22T09:32:36.781Z</time></trkpt><trkpt lat="37.547175" lon="14.96581"><ele>249.0</ele><time>2026-03-22T09:32:37.78Z</time></trkpt><trkpt lat="37.5470883" lon="14.9656533"><ele>247.66666666666669</ele><time>2026-03-22T09:32:38.78Z</time></trkpt><trkpt lat="37.5470017" lon="14.9654867"><ele>246.33333333333334</ele><time>2026-03-22T09:32:39.781Z</time></trkpt><trkpt lat="37.5469133" lon="14.9653133"><ele>245.0</ele><time>2026-03-22T09:32:40.78Z</time></trkpt><trkpt lat="37.5468267" lon="14.9651333"><ele>244.33333333333334</ele><time>2026-03-22T09:32:41.78Z</time></trkpt><trkpt lat="37.54674" lon="14.9649583"><ele>243.66666666666669</ele><time>2026-03-22T09:32:42.781Z</time></trkpt><trkpt lat="37.54665" lon="14.9647767"><ele>243.0</ele><time>2026-03-22T09:32:43.781Z</time></trkpt><trkpt lat="37.5465617" lon="14.9645883"><ele>243.0</ele><time>2026-03-22T09:32:44.78Z</time></trkpt><trkpt lat="37.5464683" lon="14.9644033"><ele>243.0</ele><time>2026-03-22T09:32:45.781Z</time></trkpt><trkpt lat="37.546385" lon="14.96422"><ele>243.0</ele><time>2026-03-22T09:32:46.78Z</time></trkpt><trkpt lat="37.5463" lon="14.9640467"><ele>243.33333333333331</ele><time>2026-03-22T09:32:47.781Z</time></trkpt><trkpt lat="37.5462183" lon="14.9638833"><ele>243.66666666666666</ele><time>2026-03-22T09:32:48.781Z</time></trkpt><trkpt lat="37.5461417" lon="14.9637217"><ele>244.0</ele><time>2026-03-22T09:32:49.781Z</time></trkpt><trkpt lat="37.5460783" lon="14.96355"><ele>242.75</ele><time>2026-03-22T09:32:50.781Z</time></trkpt><trkpt lat="37.5460317" lon="14.9633767"><ele>241.5</ele><time>2026-03-22T09:32:51.781Z</time></trkpt><trkpt lat="37.5460067" lon="14.9632267"><ele>240.25</ele><time>2026-03-22T09:32:52.781Z</time></trkpt><trkpt lat="37.5460033" lon="14.96309"><ele>239.0</ele><time>2026-03-22T09:32:53.781Z</time></trkpt><trkpt lat="37.546025" lon="14.9629483"><ele>238.75</ele><time>2026-03-22T09:32:54.781Z</time></trkpt><trkpt lat="37.5460567" lon="14.9627883"><ele>238.5</ele><time>2026-03-22T09:32:55.78Z</time></trkpt><trkpt lat="37.546095" lon="14.96262"><ele>238.25</ele><time>2026-03-22T09:32:56.78Z</time></trkpt><trkpt lat="37.546135" lon="14.9624417"><ele>238.0</ele><time>2026-03-22T09:32:57.781Z</time></trkpt><trkpt lat="37.5461783" lon="14.96226"><ele>240.25</ele><time>2026-03-22T09:32:58.781Z</time></trkpt><trkpt lat="37.5462217" lon="14.96208"><ele>242.5</ele><time>2026-03-22T09:32:59.781Z</time></trkpt><trkpt lat="37.5462617" lon="14.9619117"><ele>244.75</ele><time>2026-03-22T09:33:00.781Z</time></trkpt><trkpt lat="37.5462983" lon="14.961755"><ele>247.0</ele><time>2026-03-22T09:33:01.78Z</time></trkpt><trkpt lat="37.546315" lon="14.9616033"><ele>247.0</ele><time>2026-03-22T09:33:02.781Z</time></trkpt><trkpt lat="37.5463117" lon="14.961465"><ele>247.0</ele><time>2026-03-22T09:33:03.78Z</time></trkpt><trkpt lat="37.546265" lon="14.9613367"><ele>247.0</ele><time>2026-03-22T09:33:04.78Z</time></trkpt><trkpt lat="37.5461933" lon="14.9612583"><ele>247.0</ele><time>2026-03-22T09:33:05.78Z</time></trkpt><trkpt lat="37.5460983" lon="14.9611967"><ele>247.0</ele><time>2026-03-22T09:33:06.781Z</time></trkpt><trkpt lat="37.5459933" lon="14.9611333"><ele>245.0</ele><time>2026-03-22T09:33:07.781Z</time></trkpt><trkpt lat="37.545885" lon="14.9610583"><ele>243.0</ele><time>2026-03-22T09:33:08.781Z</time></trkpt><trkpt lat="37.54579" lon="14.9609567"><ele>241.0</ele><time>2026-03-22T09:33:09.78Z</time></trkpt><trkpt lat="37.5457167" lon="14.9608483"><ele>239.0</ele><time>2026-03-22T09:33:10.781Z</time></trkpt><trkpt lat="37.5456617" lon="14.9607267"><ele>239.0</ele><time>2026-03-22T09:33:11.781Z</time></trkpt><trkpt lat="37.5456317" lon="14.9605967"><ele>239.0</ele><time>2026-03-22T09:33:12.78Z</time></trkpt><trkpt lat="37.545625" lon="14.9604517"><ele>239.0</ele><time>2026-03-22T09:33:13.781Z</time></trkpt><trkpt lat="37.5456333" lon="14.9602933"><ele>239.0</ele><time>2026-03-22T09:33:14.78Z</time></trkpt><trkpt lat="37.54564" lon="14.960125"><ele>239.5</ele><time>2026-03-22T09:33:15.781Z</time></trkpt><trkpt lat="37.54565" lon="14.9599483"><ele>240.0</ele><time>2026-03-22T09:33:16.78Z</time></trkpt><trkpt lat="37.5456633" lon="14.9597617"><ele>240.5</ele><time>2026-03-22T09:33:17.78Z</time></trkpt><trkpt lat="37.545665" lon="14.959595"><ele>241.0</ele><time>2026-03-22T09:33:18.78Z</time></trkpt><trkpt lat="37.5456583" lon="14.9594517"><ele>241.0</ele><time>2026-03-22T09:33:19.781Z</time></trkpt><trkpt lat="37.54564" lon="14.9593283"><ele>241.00000000000003</ele><time>2026-03-22T09:33:20.781Z</time></trkpt><trkpt lat="37.545595" lon="14.9592167"><ele>241.00000000000003</ele><time>2026-03-22T09:33:21.781Z</time></trkpt><trkpt lat="37.54552" lon="14.959125"><ele>241.0</ele><time>2026-03-22T09:33:22.78Z</time></trkpt><trkpt lat="37.545425" lon="14.9590433"><ele>241.0</ele><time>2026-03-22T09:33:23.78Z</time></trkpt><trkpt lat="37.5453183" lon="14.9589633"><ele>240.5</ele><time>2026-03-22T09:33:24.78Z</time></trkpt><trkpt lat="37.5452" lon="14.9588783"><ele>240.0</ele><time>2026-03-22T09:33:25.78Z</time></trkpt><trkpt lat="37.54508" lon="14.95878"><ele>239.5</ele><time>2026-03-22T09:33:26.78Z</time></trkpt><trkpt lat="37.5449517" lon="14.9586833"><ele>239.0</ele><time>2026-03-22T09:33:27.781Z</time></trkpt><trkpt lat="37.5448217" lon="14.9585767"><ele>239.0</ele><time>2026-03-22T09:33:28.781Z</time></trkpt><trkpt lat="37.5446817" lon="14.9584833"><ele>239.0</ele><time>2026-03-22T09:33:29.781Z</time></trkpt><trkpt lat="37.5445333" lon="14.9584067"><ele>239.0</ele><time>2026-03-22T09:33:30.781Z</time></trkpt><trkpt lat="37.5443733" lon="14.9583467"><ele>239.66666666666669</ele><time>2026-03-22T09:33:31.781Z</time></trkpt><trkpt lat="37.5442167" lon="14.958285"><ele>240.33333333333331</ele><time>2026-03-22T09:33:32.781Z</time></trkpt><trkpt lat="37.5440667" lon="14.9582233"><ele>241.0</ele><time>2026-03-22T09:33:33.781Z</time></trkpt><trkpt lat="37.5439167" lon="14.9581617"><ele>241.0</ele><time>2026-03-22T09:33:34.781Z</time></trkpt><trkpt lat="37.543765" lon="14.9580967"><ele>241.0</ele><time>2026-03-22T09:33:35.78Z</time></trkpt><trkpt lat="37.54362" lon="14.9580417"><ele>241.0</ele><time>2026-03-22T09:33:36.78Z</time></trkpt><trkpt lat="37.54348" lon="14.9579833"><ele>241.0</ele><time>2026-03-22T09:33:37.78Z</time></trkpt><trkpt lat="37.54334" lon="14.95793"><ele>241.0</ele><time>2026-03-22T09:33:38.781Z</time></trkpt><trkpt lat="37.5432067" lon="14.9578783"><ele>241.0</ele><time>2026-03-22T09:33:39.78Z</time></trkpt><trkpt lat="37.5430917" lon="14.9578367"><ele>241.0</ele><time>2026-03-22T09:33:40.781Z</time></trkpt><trkpt lat="37.5430017" lon="14.9578033"><ele>240.99999999999997</ele><time>2026-03-22T09:33:41.781Z</time></trkpt><trkpt lat="37.54294" lon="14.9577767"><ele>241.0</ele><time>2026-03-22T09:33:42.78Z</time></trkpt><trkpt lat="37.5428633" lon="14.9577467"><ele>241.0</ele><time>2026-03-22T09:33:44.781Z</time></trkpt><trkpt lat="37.5427767" lon="14.957705"><ele>241.0</ele><time>2026-03-22T09:33:47.78Z</time></trkpt><trkpt lat="37.5426883" lon="14.95767"><ele>240.99999999999997</ele><time>2026-03-22T09:33:49.78Z</time></trkpt><trkpt lat="37.5425783" lon="14.9576267"><ele>241.0</ele><time>2026-03-22T09:33:51.78Z</time></trkpt><trkpt lat="37.5424767" lon="14.9575917"><ele>240.99999999999997</ele><time>2026-03-22T09:33:53.78Z</time></trkpt><trkpt lat="37.542355" lon="14.95754"><ele>241.0</ele><time>2026-03-22T09:33:55.781Z</time></trkpt><trkpt lat="37.5422917" lon="14.9575167"><ele>241.0</ele><time>2026-03-22T09:33:56.781Z</time></trkpt><trkpt lat="37.5422217" lon="14.9574933"><ele>241.0</ele><time>2026-03-22T09:33:57.781Z</time></trkpt><trkpt lat="37.5421583" lon="14.957465"><ele>240.99999999999997</ele><time>2026-03-22T09:33:58.781Z</time></trkpt><trkpt lat="37.542095" lon="14.9574433"><ele>241.0</ele><time>2026-03-22T09:33:59.78Z</time></trkpt><trkpt lat="37.54203" lon="14.9574183"><ele>241.66666666666666</ele><time>2026-03-22T09:34:00.78Z</time></trkpt><trkpt lat="37.541965" lon="14.9573933"><ele>242.33333333333331</ele><time>2026-03-22T09:34:01.78Z</time></trkpt><trkpt lat="37.5418983" lon="14.957365"><ele>243.0</ele><time>2026-03-22T09:34:02.781Z</time></trkpt><trkpt lat="37.5418267" lon="14.9573367"><ele>243.66666666666669</ele><time>2026-03-22T09:34:03.78Z</time></trkpt><trkpt lat="37.541755" lon="14.9573083"><ele>244.33333333333334</ele><time>2026-03-22T09:34:04.781Z</time></trkpt><trkpt lat="37.54168" lon="14.9572783"><ele>245.0</ele><time>2026-03-22T09:34:05.781Z</time></trkpt><trkpt lat="37.5415967" lon="14.9572517"><ele>245.00000000000003</ele><time>2026-03-22T09:34:06.781Z</time></trkpt><trkpt lat="37.541525" lon="14.9572267"><ele>245.0</ele><time>2026-03-22T09:34:07.78Z</time></trkpt><trkpt lat="37.5414633" lon="14.9572017"><ele>245.0</ele><time>2026-03-22T09:34:08.78Z</time></trkpt><trkpt lat="37.5413583" lon="14.95715"><ele>245.0</ele><time>2026-03-22T09:34:10.781Z</time></trkpt><trkpt lat="37.5412917" lon="14.957125"><ele>245.00000000000003</ele><time>2026-03-22T09:34:12.78Z</time></trkpt><trkpt lat="37.5412217" lon="14.95709"><ele>245.0</ele><time>2026-03-22T09:34:16.781Z</time></trkpt><trkpt lat="37.5411433" lon="14.95703"><ele>245.50000000000003</ele><time>2026-03-22T09:34:20.78Z</time></trkpt><trkpt lat="37.5410867" lon="14.9569833"><ele>246.0</ele><time>2026-03-22T09:34:22.781Z</time></trkpt><trkpt lat="37.5410267" lon="14.95693"><ele>246.5</ele><time>2026-03-22T09:34:24.781Z</time></trkpt><trkpt lat="37.5409333" lon="14.9568867"><ele>247.0</ele><time>2026-03-22T09:34:26.78Z</time></trkpt><trkpt lat="37.5408333" lon="14.9568333"><ele>247.50000000000003</ele><time>2026-03-22T09:34:28.78Z</time></trkpt><trkpt lat="37.540745" lon="14.9567817"><ele>248.0</ele><time>2026-03-22T09:34:30.781Z</time></trkpt><trkpt lat="37.5406667" lon="14.9567567"><ele>248.00000000000003</ele><time>2026-03-22T09:34:32.781Z</time></trkpt><trkpt lat="37.5405967" lon="14.9567733"><ele>248.0</ele><time>2026-03-22T09:34:34.78Z</time></trkpt><trkpt lat="37.540585" lon="14.95686"><ele>248.0</ele><time>2026-03-22T09:34:36.78Z</time></trkpt><trkpt lat="37.5405933" lon="14.95701"><ele>248.0</ele><time>2026-03-22T09:34:38.781Z</time></trkpt><trkpt lat="37.5406083" lon="14.957105"><ele>248.00000000000003</ele><time>2026-03-22T09:34:39.781Z</time></trkpt><trkpt lat="37.5406333" lon="14.9571933"><ele>248.0</ele><time>2026-03-22T09:34:40.781Z</time></trkpt><trkpt lat="37.5406767" lon="14.9572717"><ele>248.0</ele><time>2026-03-22T09:34:41.781Z</time></trkpt><trkpt lat="37.5407367" lon="14.9573233"><ele>248.00000000000003</ele><time>2026-03-22T09:34:42.781Z</time></trkpt><trkpt lat="37.5408117" lon="14.9573467"><ele>248.0</ele><time>2026-03-22T09:34:43.78Z</time></trkpt><trkpt lat="37.54088" lon="14.95733"><ele>248.0</ele><time>2026-03-22T09:34:44.781Z</time></trkpt><trkpt lat="37.5409367" lon="14.957275"><ele>248.00000000000003</ele><time>2026-03-22T09:34:45.78Z</time></trkpt><trkpt lat="37.5409767" lon="14.9572033"><ele>248.0</ele><time>2026-03-22T09:34:46.78Z</time></trkpt><trkpt lat="37.5409883" lon="14.95712"><ele>248.0</ele><time>2026-03-22T09:34:47.781Z</time></trkpt><trkpt lat="37.5409733" lon="14.9569917"><ele>248.0</ele><time>2026-03-22T09:34:49.78Z</time></trkpt><trkpt lat="37.5409383" lon="14.9568683"><ele>248.0</ele><time>2026-03-22T09:34:51.781Z</time></trkpt><trkpt lat="37.5409167" lon="14.95678"><ele>248.0</ele><time>2026-03-22T09:34:52.781Z</time></trkpt><trkpt lat="37.5408983" lon="14.9566733"><ele>248.0</ele><time>2026-03-22T09:34:53.781Z</time></trkpt><trkpt lat="37.5408883" lon="14.9565533"><ele>248.0</ele><time>2026-03-22T09:34:54.78Z</time></trkpt><trkpt lat="37.5408933" lon="14.9564217"><ele>248.0</ele><time>2026-03-22T09:34:55.78Z</time></trkpt><trkpt lat="37.5409117" lon="14.9562817"><ele>248.0</ele><time>2026-03-22T09:34:56.78Z</time></trkpt><trkpt lat="37.54094" lon="14.9561367"><ele>248.0</ele><time>2026-03-22T09:34:57.78Z</time></trkpt><trkpt lat="37.5409733" lon="14.9559833"><ele>248.0</ele><time>2026-03-22T09:34:58.781Z</time></trkpt><trkpt lat="37.54101" lon="14.95583"><ele>248.0</ele><time>2026-03-22T09:34:59.781Z</time></trkpt><trkpt lat="37.5410483" lon="14.9556817"><ele>248.0</ele><time>2026-03-22T09:35:00.78Z</time></trkpt><trkpt lat="37.5410883" lon="14.95553"><ele>248.0</ele><time>2026-03-22T09:35:01.78Z</time></trkpt><trkpt lat="37.5411367" lon="14.955385"><ele>248.0</ele><time>2026-03-22T09:35:02.78Z</time></trkpt><trkpt lat="37.5411883" lon="14.9552533"><ele>248.16666666666669</ele><time>2026-03-22T09:35:03.78Z</time></trkpt><trkpt lat="37.5412417" lon="14.9551417"><ele>248.33333333333334</ele><time>2026-03-22T09:35:04.78Z</time></trkpt><trkpt lat="37.5412917" lon="14.9550417"><ele>248.5</ele><time>2026-03-22T09:35:05.78Z</time></trkpt><trkpt lat="37.541335" lon="14.9549483"><ele>248.66666666666669</ele><time>2026-03-22T09:35:06.781Z</time></trkpt><trkpt lat="37.54137" lon="14.9548683"><ele>248.83333333333334</ele><time>2026-03-22T09:35:07.78Z</time></trkpt><trkpt lat="37.5414067" lon="14.954795"><ele>249.0</ele><time>2026-03-22T09:35:08.781Z</time></trkpt><trkpt lat="37.541445" lon="14.9547183"><ele>249.0</ele><time>2026-03-22T09:35:09.78Z</time></trkpt><trkpt lat="37.5414917" lon="14.9546267"><ele>248.99999999999997</ele><time>2026-03-22T09:35:10.781Z</time></trkpt><trkpt lat="37.5415483" lon="14.9545233"><ele>248.99999999999997</ele><time>2026-03-22T09:35:11.78Z</time></trkpt><trkpt lat="37.541615" lon="14.9544"><ele>249.0</ele><time>2026-03-22T09:35:12.78Z</time></trkpt><trkpt lat="37.5416883" lon="14.9542683"><ele>249.0</ele><time>2026-03-22T09:35:13.781Z</time></trkpt><trkpt lat="37.5417717" lon="14.95413"><ele>249.0</ele><time>2026-03-22T09:35:14.781Z</time></trkpt><trkpt lat="37.54186" lon="14.9539817"><ele>249.0</ele><time>2026-03-22T09:35:15.781Z</time></trkpt><trkpt lat="37.54195" lon="14.953825"><ele>249.0</ele><time>2026-03-22T09:35:16.781Z</time></trkpt><trkpt lat="37.5420467" lon="14.95366"><ele>249.0</ele><time>2026-03-22T09:35:17.78Z</time></trkpt><trkpt lat="37.5421467" lon="14.9534883"><ele>249.0</ele><time>2026-03-22T09:35:18.781Z</time></trkpt><trkpt lat="37.5422483" lon="14.9533133"><ele>249.0</ele><time>2026-03-22T09:35:19.78Z</time></trkpt><trkpt lat="37.5423567" lon="14.9531367"><ele>248.0</ele><time>2026-03-22T09:35:20.78Z</time></trkpt><trkpt lat="37.542465" lon="14.95295"><ele>247.0</ele><time>2026-03-22T09:35:21.78Z</time></trkpt><trkpt lat="37.5425767" lon="14.9527633"><ele>246.0</ele><time>2026-03-22T09:35:22.78Z</time></trkpt><trkpt lat="37.5426883" lon="14.9525717"><ele>246.0</ele><time>2026-03-22T09:35:23.781Z</time></trkpt><trkpt lat="37.5428033" lon="14.9523767"><ele>246.0</ele><time>2026-03-22T09:35:24.78Z</time></trkpt><trkpt lat="37.5429167" lon="14.9521817"><ele>246.0</ele><time>2026-03-22T09:35:25.781Z</time></trkpt><trkpt lat="37.5430333" lon="14.9519833"><ele>246.0</ele><time>2026-03-22T09:35:26.781Z</time></trkpt><trkpt lat="37.5431517" lon="14.9517833"><ele>246.0</ele><time>2026-03-22T09:35:27.78Z</time></trkpt><trkpt lat="37.5432717" lon="14.951585"><ele>246.0</ele><time>2026-03-22T09:35:28.781Z</time></trkpt><trkpt lat="37.5433917" lon="14.9513817"><ele>246.66666666666669</ele><time>2026-03-22T09:35:29.781Z</time></trkpt><trkpt lat="37.543505" lon="14.9511867"><ele>247.33333333333334</ele><time>2026-03-22T09:35:30.78Z</time></trkpt><trkpt lat="37.543605" lon="14.9510083"><ele>248.0</ele><time>2026-03-22T09:35:31.78Z</time></trkpt><trkpt lat="37.5437067" lon="14.9508483"><ele>248.0</ele><time>2026-03-22T09:35:32.781Z</time></trkpt><trkpt lat="37.5438" lon="14.9506883"><ele>248.0</ele><time>2026-03-22T09:35:33.78Z</time></trkpt><trkpt lat="37.5438933" lon="14.9505317"><ele>248.0</ele><time>2026-03-22T09:35:34.781Z</time></trkpt><trkpt lat="37.5439867" lon="14.9503767"><ele>248.0</ele><time>2026-03-22T09:35:35.78Z</time></trkpt><trkpt lat="37.5440767" lon="14.9502283"><ele>248.0</ele><time>2026-03-22T09:35:36.78Z</time></trkpt><trkpt lat="37.5441667" lon="14.95007"><ele>248.0</ele><time>2026-03-22T09:35:37.78Z</time></trkpt><trkpt lat="37.5442617" lon="14.949905"><ele>248.0</ele><time>2026-03-22T09:35:38.781Z</time></trkpt><trkpt lat="37.5443583" lon="14.9497317"><ele>248.0</ele><time>2026-03-22T09:35:39.78Z</time></trkpt><trkpt lat="37.5444567" lon="14.9495517"><ele>248.0</ele><time>2026-03-22T09:35:40.78Z</time></trkpt><trkpt lat="37.5445617" lon="14.94937"><ele>248.66666666666669</ele><time>2026-03-22T09:35:41.781Z</time></trkpt><trkpt lat="37.54467" lon="14.9491917"><ele>249.33333333333331</ele><time>2026-03-22T09:35:42.78Z</time></trkpt><trkpt lat="37.544785" lon="14.9490067"><ele>250.0</ele><time>2026-03-22T09:35:43.78Z</time></trkpt><trkpt lat="37.5448983" lon="14.9488167"><ele>250.0</ele><time>2026-03-22T09:35:44.781Z</time></trkpt><trkpt lat="37.5450117" lon="14.9486233"><ele>250.0</ele><time>2026-03-22T09:35:45.78Z</time></trkpt><trkpt lat="37.54513" lon="14.94842"><ele>250.0</ele><time>2026-03-22T09:35:46.781Z</time></trkpt><trkpt lat="37.54525" lon="14.9482183"><ele>250.0</ele><time>2026-03-22T09:35:47.781Z</time></trkpt><trkpt lat="37.54537" lon="14.9480133"><ele>250.0</ele><time>2026-03-22T09:35:48.78Z</time></trkpt><trkpt lat="37.5454917" lon="14.947805"><ele>250.0</ele><time>2026-03-22T09:35:49.781Z</time></trkpt><trkpt lat="37.54561" lon="14.9475933"><ele>250.33333333333331</ele><time>2026-03-22T09:35:50.78Z</time></trkpt><trkpt lat="37.5457383" lon="14.9473833"><ele>250.66666666666669</ele><time>2026-03-22T09:35:51.78Z</time></trkpt><trkpt lat="37.5458667" lon="14.9471667"><ele>251.0</ele><time>2026-03-22T09:35:52.78Z</time></trkpt><trkpt lat="37.5459933" lon="14.9469417"><ele>251.0</ele><time>2026-03-22T09:35:53.781Z</time></trkpt><trkpt lat="37.5461233" lon="14.9467133"><ele>251.0</ele><time>2026-03-22T09:35:54.78Z</time></trkpt><trkpt lat="37.546255" lon="14.946485"><ele>251.0</ele><time>2026-03-22T09:35:55.78Z</time></trkpt><trkpt lat="37.5463883" lon="14.9462567"><ele>249.5</ele><time>2026-03-22T09:35:56.781Z</time></trkpt><trkpt lat="37.546525" lon="14.9460217"><ele>248.0</ele><time>2026-03-22T09:35:57.78Z</time></trkpt><trkpt lat="37.5466633" lon="14.9457833"><ele>248.0</ele><time>2026-03-22T09:35:58.781Z</time></trkpt><trkpt lat="37.5468033" lon="14.9455383"><ele>248.0</ele><time>2026-03-22T09:35:59.78Z</time></trkpt><trkpt lat="37.546945" lon="14.945295"><ele>249.0</ele><time>2026-03-22T09:36:00.781Z</time></trkpt><trkpt lat="37.547095" lon="14.9450567"><ele>250.0</ele><time>2026-03-22T09:36:01.78Z</time></trkpt><trkpt lat="37.5472433" lon="14.944815"><ele>250.0</ele><time>2026-03-22T09:36:02.78Z</time></trkpt><trkpt lat="37.547395" lon="14.9445717"><ele>250.0</ele><time>2026-03-22T09:36:03.78Z</time></trkpt><trkpt lat="37.5475433" lon="14.9443267"><ele>250.0</ele><time>2026-03-22T09:36:04.781Z</time></trkpt><trkpt lat="37.54769" lon="14.9440867"><ele>250.0</ele><time>2026-03-22T09:36:05.78Z</time></trkpt><trkpt lat="37.54783" lon="14.9438583"><ele>251.66666666666666</ele><time>2026-03-22T09:36:06.781Z</time></trkpt><trkpt lat="37.547955" lon="14.9436417"><ele>253.33333333333331</ele><time>2026-03-22T09:36:07.78Z</time></trkpt><trkpt lat="37.548075" lon="14.943435"><ele>255.0</ele><time>2026-03-22T09:36:08.78Z</time></trkpt><trkpt lat="37.5481933" lon="14.9432367"><ele>255.0</ele><time>2026-03-22T09:36:09.78Z</time></trkpt><trkpt lat="37.54831" lon="14.9430433"><ele>255.0</ele><time>2026-03-22T09:36:10.781Z</time></trkpt><trkpt lat="37.548425" lon="14.9428483"><ele>255.0</ele><time>2026-03-22T09:36:11.78Z</time></trkpt><trkpt lat="37.548535" lon="14.9426583"><ele>254.33333333333331</ele><time>2026-03-22T09:36:12.781Z</time></trkpt><trkpt lat="37.5486417" lon="14.94247"><ele>253.66666666666666</ele><time>2026-03-22T09:36:13.78Z</time></trkpt><trkpt lat="37.54875" lon="14.942285"><ele>253.0</ele><time>2026-03-22T09:36:14.78Z</time></trkpt><trkpt lat="37.5488583" lon="14.9420983"><ele>254.66666666666666</ele><time>2026-03-22T09:36:15.781Z</time></trkpt><trkpt lat="37.5489733" lon="14.9419167"><ele>256.3333333333333</ele><time>2026-03-22T09:36:16.78Z</time></trkpt><trkpt lat="37.549085" lon="14.9417183"><ele>258.0</ele><time>2026-03-22T09:36:17.78Z</time></trkpt><trkpt lat="37.5492033" lon="14.9415333"><ele>258.0</ele><time>2026-03-22T09:36:18.78Z</time></trkpt><trkpt lat="37.5493183" lon="14.94134"><ele>258.0</ele><time>2026-03-22T09:36:19.78Z</time></trkpt><trkpt lat="37.5494283" lon="14.9411533"><ele>258.0</ele><time>2026-03-22T09:36:20.781Z</time></trkpt><trkpt lat="37.549525" lon="14.9409883"><ele>260.3333333333333</ele><time>2026-03-22T09:36:21.78Z</time></trkpt><trkpt lat="37.5496167" lon="14.9408367"><ele>262.66666666666663</ele><time>2026-03-22T09:36:22.78Z</time></trkpt><trkpt lat="37.549715" lon="14.9406867"><ele>265.0</ele><time>2026-03-22T09:36:23.781Z</time></trkpt><trkpt lat="37.5498133" lon="14.9405333"><ele>265.0</ele><time>2026-03-22T09:36:24.781Z</time></trkpt><trkpt lat="37.54991" lon="14.940385"><ele>265.0</ele><time>2026-03-22T09:36:25.78Z</time></trkpt><trkpt lat="37.5499983" lon="14.9402483"><ele>265.0</ele><time>2026-03-22T09:36:26.781Z</time></trkpt><trkpt lat="37.5500767" lon="14.94012"><ele>265.0</ele><time>2026-03-22T09:36:27.78Z</time></trkpt><trkpt lat="37.55015" lon="14.9399983"><ele>264.8</ele><time>2026-03-22T09:36:28.78Z</time></trkpt><trkpt lat="37.5502217" lon="14.9398933"><ele>264.6</ele><time>2026-03-22T09:36:29.781Z</time></trkpt><trkpt lat="37.5502883" lon="14.9398"><ele>264.4</ele><time>2026-03-22T09:36:30.78Z</time></trkpt><trkpt lat="37.5503533" lon="14.9397117"><ele>264.2</ele><time>2026-03-22T09:36:31.781Z</time></trkpt><trkpt lat="37.5504133" lon="14.9396283"><ele>264.0</ele><time>2026-03-22T09:36:32.78Z</time></trkpt><trkpt lat="37.5504717" lon="14.93955"><ele>265.3333333333333</ele><time>2026-03-22T09:36:33.781Z</time></trkpt><trkpt lat="37.5505333" lon="14.9394833"><ele>266.6666666666667</ele><time>2026-03-22T09:36:34.78Z</time></trkpt><trkpt lat="37.5505917" lon="14.9394367"><ele>268.0</ele><time>2026-03-22T09:36:35.78Z</time></trkpt><trkpt lat="37.5507" lon="14.9394133"><ele>269.33333333333337</ele><time>2026-03-22T09:36:37.78Z</time></trkpt><trkpt lat="37.550785" lon="14.9394033"><ele>270.6666666666667</ele><time>2026-03-22T09:36:39.781Z</time></trkpt><trkpt lat="37.5508433" lon="14.9393467"><ele>272.0</ele><time>2026-03-22T09:36:41.781Z</time></trkpt><trkpt lat="37.550915" lon="14.9392417"><ele>272.0</ele><time>2026-03-22T09:36:43.781Z</time></trkpt><trkpt lat="37.5509967" lon="14.93916"><ele>272.0</ele><time>2026-03-22T09:36:45.78Z</time></trkpt><trkpt lat="37.551075" lon="14.93912"><ele>272.0</ele><time>2026-03-22T09:37:11.781Z</time></trkpt><trkpt lat="37.5511133" lon="14.9390333"><ele>272.0</ele><time>2026-03-22T09:41:59.781Z</time></trkpt><trkpt lat="37.551065" lon="14.9389667"><ele>272.0</ele><time>2026-03-22T09:42:15.781Z</time></trkpt><trkpt lat="37.5510217" lon="14.9388883"><ele>272.0</ele><time>2026-03-22T09:42:17.781Z</time></trkpt><trkpt lat="37.5510033" lon="14.9387583"><ele>272.0</ele><time>2026-03-22T09:42:19.781Z</time></trkpt><trkpt lat="37.5510317" lon="14.938595"><ele>272.0</ele><time>2026-03-22T09:42:21.78Z</time></trkpt><trkpt lat="37.5510533" lon="14.9385117"><ele>272.0</ele><time>2026-03-22T09:42:22.781Z</time></trkpt><trkpt lat="37.5510933" lon="14.93843"><ele>272.0</ele><time>2026-03-22T09:42:23.78Z</time></trkpt><trkpt lat="37.5511417" lon="14.9383333"><ele>272.0</ele><time>2026-03-22T09:42:24.78Z</time></trkpt><trkpt lat="37.551195" lon="14.9382267"><ele>273.0</ele><time>2026-03-22T09:42:25.78Z</time></trkpt><trkpt lat="37.55126" lon="14.9381083"><ele>274.0</ele><time>2026-03-22T09:42:26.78Z</time></trkpt><trkpt lat="37.5513333" lon="14.937985"><ele>275.0</ele><time>2026-03-22T09:42:27.781Z</time></trkpt><trkpt lat="37.5513967" lon="14.93787"><ele>276.0</ele><time>2026-03-22T09:42:28.781Z</time></trkpt><trkpt lat="37.5514633" lon="14.9377483"><ele>276.0</ele><time>2026-03-22T09:42:29.781Z</time></trkpt><trkpt lat="37.551535" lon="14.9376167"><ele>276.0</ele><time>2026-03-22T09:42:30.78Z</time></trkpt><trkpt lat="37.5516133" lon="14.9374783"><ele>276.0</ele><time>2026-03-22T09:42:31.781Z</time></trkpt><trkpt lat="37.551695" lon="14.9373333"><ele>276.0</ele><time>2026-03-22T09:42:32.78Z</time></trkpt><trkpt lat="37.55178" lon="14.93718"><ele>276.5</ele><time>2026-03-22T09:42:33.78Z</time></trkpt><trkpt lat="37.5518633" lon="14.9370283"><ele>277.0</ele><time>2026-03-22T09:42:34.78Z</time></trkpt><trkpt lat="37.5519517" lon="14.93688"><ele>277.5</ele><time>2026-03-22T09:42:35.78Z</time></trkpt><trkpt lat="37.55204" lon="14.9367283"><ele>278.0</ele><time>2026-03-22T09:42:36.781Z</time></trkpt><trkpt lat="37.552135" lon="14.9365717"><ele>278.0</ele><time>2026-03-22T09:42:37.781Z</time></trkpt><trkpt lat="37.55223" lon="14.93641"><ele>278.0</ele><time>2026-03-22T09:42:38.781Z</time></trkpt><trkpt lat="37.552325" lon="14.9362467"><ele>278.0</ele><time>2026-03-22T09:42:39.781Z</time></trkpt><trkpt lat="37.552425" lon="14.936085"><ele>278.0</ele><time>2026-03-22T09:42:40.78Z</time></trkpt><trkpt lat="37.5525233" lon="14.93592"><ele>278.0</ele><time>2026-03-22T09:42:41.78Z</time></trkpt><trkpt lat="37.5526233" lon="14.93575"><ele>278.0</ele><time>2026-03-22T09:42:42.781Z</time></trkpt><trkpt lat="37.552725" lon="14.9355783"><ele>277.6666666666667</ele><time>2026-03-22T09:42:43.781Z</time></trkpt><trkpt lat="37.55283" lon="14.935405"><ele>277.3333333333333</ele><time>2026-03-22T09:42:44.78Z</time></trkpt><trkpt lat="37.5529317" lon="14.93523"><ele>277.0</ele><time>2026-03-22T09:42:45.781Z</time></trkpt><trkpt lat="37.5530367" lon="14.9350567"><ele>279.3333333333333</ele><time>2026-03-22T09:42:46.78Z</time></trkpt><trkpt lat="37.5531383" lon="14.93488"><ele>281.6666666666667</ele><time>2026-03-22T09:42:47.78Z</time></trkpt><trkpt lat="37.55324" lon="14.9347067"><ele>284.0</ele><time>2026-03-22T09:42:48.78Z</time></trkpt><trkpt lat="37.5533417" lon="14.9345333"><ele>284.0</ele><time>2026-03-22T09:42:49.781Z</time></trkpt><trkpt lat="37.5534417" lon="14.9343567"><ele>284.0</ele><time>2026-03-22T09:42:50.781Z</time></trkpt><trkpt lat="37.5535417" lon="14.9341817"><ele>284.0</ele><time>2026-03-22T09:42:51.781Z</time></trkpt><trkpt lat="37.5536433" lon="14.9340083"><ele>286.0</ele><time>2026-03-22T09:42:52.78Z</time></trkpt><trkpt lat="37.5537417" lon="14.933845"><ele>288.0</ele><time>2026-03-22T09:42:53.78Z</time></trkpt><trkpt lat="37.5538367" lon="14.93368"><ele>290.0</ele><time>2026-03-22T09:42:54.781Z</time></trkpt><trkpt lat="37.5539333" lon="14.9335167"><ele>289.6666666666667</ele><time>2026-03-22T09:42:55.781Z</time></trkpt><trkpt lat="37.5540267" lon="14.9333517"><ele>289.3333333333333</ele><time>2026-03-22T09:42:56.78Z</time></trkpt><trkpt lat="37.5541283" lon="14.9331867"><ele>289.0</ele><time>2026-03-22T09:42:57.781Z</time></trkpt><trkpt lat="37.554225" lon="14.93302"><ele>289.0</ele><time>2026-03-22T09:42:58.78Z</time></trkpt><trkpt lat="37.5543167" lon="14.9328533"><ele>289.0</ele><time>2026-03-22T09:42:59.78Z</time></trkpt><trkpt lat="37.55441" lon="14.9326967"><ele>289.0</ele><time>2026-03-22T09:43:00.78Z</time></trkpt><trkpt lat="37.554505" lon="14.9325417"><ele>290.0</ele><time>2026-03-22T09:43:01.78Z</time></trkpt><trkpt lat="37.5545933" lon="14.9323883"><ele>291.0</ele><time>2026-03-22T09:43:02.78Z</time></trkpt><trkpt lat="37.5546817" lon="14.9322383"><ele>292.0</ele><time>2026-03-22T09:43:03.781Z</time></trkpt><trkpt lat="37.55477" lon="14.93209"><ele>293.0</ele><time>2026-03-22T09:43:04.78Z</time></trkpt><trkpt lat="37.55486" lon="14.9319417"><ele>293.0</ele><time>2026-03-22T09:43:05.78Z</time></trkpt><trkpt lat="37.55495" lon="14.9317867"><ele>293.0</ele><time>2026-03-22T09:43:06.78Z</time></trkpt><trkpt lat="37.555045" lon="14.93163"><ele>293.0</ele><time>2026-03-22T09:43:07.781Z</time></trkpt><trkpt lat="37.5551417" lon="14.931465"><ele>293.0</ele><time>2026-03-22T09:43:08.781Z</time></trkpt><trkpt lat="37.55524" lon="14.9313"><ele>293.0</ele><time>2026-03-22T09:43:09.781Z</time></trkpt><trkpt lat="37.55534" lon="14.93112"><ele>293.0</ele><time>2026-03-22T09:43:10.78Z</time></trkpt><trkpt lat="37.5554467" lon="14.9309417"><ele>297.0</ele><time>2026-03-22T09:43:11.781Z</time></trkpt><trkpt lat="37.5555567" lon="14.9307583"><ele>301.0</ele><time>2026-03-22T09:43:12.78Z</time></trkpt><trkpt lat="37.5556683" lon="14.9305767"><ele>305.0</ele><time>2026-03-22T09:43:13.78Z</time></trkpt><trkpt lat="37.555775" lon="14.9303983"><ele>305.0</ele><time>2026-03-22T09:43:14.78Z</time></trkpt><trkpt lat="37.5558833" lon="14.9302133"><ele>305.0</ele><time>2026-03-22T09:43:15.781Z</time></trkpt><trkpt lat="37.555995" lon="14.9300283"><ele>305.0</ele><time>2026-03-22T09:43:16.78Z</time></trkpt><trkpt lat="37.5561067" lon="14.929835"><ele>306.6666666666667</ele><time>2026-03-22T09:43:17.78Z</time></trkpt><trkpt lat="37.556225" lon="14.9296383"><ele>308.3333333333333</ele><time>2026-03-22T09:43:18.78Z</time></trkpt><trkpt lat="37.5563433" lon="14.9294383"><ele>310.0</ele><time>2026-03-22T09:43:19.781Z</time></trkpt><trkpt lat="37.5564633" lon="14.9292367"><ele>309.0</ele><time>2026-03-22T09:43:20.78Z</time></trkpt><trkpt lat="37.5565783" lon="14.9290367"><ele>308.0</ele><time>2026-03-22T09:43:21.781Z</time></trkpt><trkpt lat="37.5566983" lon="14.928835"><ele>307.0</ele><time>2026-03-22T09:43:22.78Z</time></trkpt><trkpt lat="37.556815" lon="14.9286383"><ele>307.0</ele><time>2026-03-22T09:43:23.78Z</time></trkpt><trkpt lat="37.5569283" lon="14.9284417"><ele>307.0</ele><time>2026-03-22T09:43:24.781Z</time></trkpt><trkpt lat="37.5570433" lon="14.92824"><ele>307.0</ele><time>2026-03-22T09:43:25.781Z</time></trkpt><trkpt lat="37.5571617" lon="14.928045"><ele>307.3333333333333</ele><time>2026-03-22T09:43:26.781Z</time></trkpt><trkpt lat="37.5572783" lon="14.9278417"><ele>307.6666666666667</ele><time>2026-03-22T09:43:27.78Z</time></trkpt><trkpt lat="37.5574017" lon="14.927635"><ele>308.0</ele><time>2026-03-22T09:43:28.781Z</time></trkpt><trkpt lat="37.55752" lon="14.92743"><ele>308.0</ele><time>2026-03-22T09:43:29.781Z</time></trkpt><trkpt lat="37.5576383" lon="14.9272267"><ele>308.0</ele><time>2026-03-22T09:43:30.78Z</time></trkpt><trkpt lat="37.5577583" lon="14.9270217"><ele>308.0</ele><time>2026-03-22T09:43:31.78Z</time></trkpt><trkpt lat="37.55788" lon="14.9268183"><ele>308.6666666666667</ele><time>2026-03-22T09:43:32.78Z</time></trkpt><trkpt lat="37.558005" lon="14.9266117"><ele>309.3333333333333</ele><time>2026-03-22T09:43:33.78Z</time></trkpt><trkpt lat="37.5581283" lon="14.9264083"><ele>310.0</ele><time>2026-03-22T09:43:34.781Z</time></trkpt><trkpt lat="37.5582517" lon="14.92621"><ele>310.0</ele><time>2026-03-22T09:43:35.78Z</time></trkpt><trkpt lat="37.55837" lon="14.9260083"><ele>310.0</ele><time>2026-03-22T09:43:36.781Z</time></trkpt><trkpt lat="37.558485" lon="14.92581"><ele>310.0</ele><time>2026-03-22T09:43:37.781Z</time></trkpt><trkpt lat="37.5586" lon="14.9256167"><ele>309.66666666666663</ele><time>2026-03-22T09:43:38.78Z</time></trkpt><trkpt lat="37.558715" lon="14.9254267"><ele>309.3333333333333</ele><time>2026-03-22T09:43:39.78Z</time></trkpt><trkpt lat="37.558825" lon="14.9252367"><ele>309.0</ele><time>2026-03-22T09:43:40.781Z</time></trkpt><trkpt lat="37.5589383" lon="14.9250517"><ele>308.6666666666667</ele><time>2026-03-22T09:43:41.78Z</time></trkpt><trkpt lat="37.55905" lon="14.9248667"><ele>308.33333333333337</ele><time>2026-03-22T09:43:42.78Z</time></trkpt><trkpt lat="37.559165" lon="14.9246783"><ele>308.0</ele><time>2026-03-22T09:43:43.78Z</time></trkpt><trkpt lat="37.55928" lon="14.9244917"><ele>308.0</ele><time>2026-03-22T09:43:44.781Z</time></trkpt><trkpt lat="37.5593917" lon="14.9242933"><ele>308.0</ele><time>2026-03-22T09:43:45.781Z</time></trkpt><trkpt lat="37.5595083" lon="14.9240933"><ele>308.0</ele><time>2026-03-22T09:43:46.781Z</time></trkpt><trkpt lat="37.5596233" lon="14.9238917"><ele>307.33333333333337</ele><time>2026-03-22T09:43:47.78Z</time></trkpt><trkpt lat="37.5597383" lon="14.9237"><ele>306.6666666666667</ele><time>2026-03-22T09:43:48.78Z</time></trkpt><trkpt lat="37.55985" lon="14.923505"><ele>306.0</ele><time>2026-03-22T09:43:49.78Z</time></trkpt><trkpt lat="37.5599583" lon="14.9233067"><ele>305.3333333333333</ele><time>2026-03-22T09:43:50.782Z</time></trkpt><trkpt lat="37.5600683" lon="14.9231183"><ele>304.66666666666663</ele><time>2026-03-22T09:43:51.782Z</time></trkpt><trkpt lat="37.5601833" lon="14.922925"><ele>304.0</ele><time>2026-03-22T09:43:52.781Z</time></trkpt><trkpt lat="37.5602983" lon="14.9227283"><ele>305.66666666666663</ele><time>2026-03-22T09:43:53.782Z</time></trkpt><trkpt lat="37.5604133" lon="14.9225333"><ele>307.3333333333333</ele><time>2026-03-22T09:43:54.782Z</time></trkpt><trkpt lat="37.56053" lon="14.9223483"><ele>309.0</ele><time>2026-03-22T09:43:55.782Z</time></trkpt><trkpt lat="37.5606433" lon="14.9221667"><ele>309.0</ele><time>2026-03-22T09:43:56.782Z</time></trkpt><trkpt lat="37.5607617" lon="14.9219833"><ele>309.0</ele><time>2026-03-22T09:43:57.782Z</time></trkpt><trkpt lat="37.5608833" lon="14.9218233"><ele>309.0</ele><time>2026-03-22T09:43:58.782Z</time></trkpt><trkpt lat="37.561015" lon="14.921665"><ele>308.3333333333333</ele><time>2026-03-22T09:43:59.782Z</time></trkpt><trkpt lat="37.56115" lon="14.9215083"><ele>307.66666666666663</ele><time>2026-03-22T09:44:00.782Z</time></trkpt><trkpt lat="37.56129" lon="14.921355"><ele>307.0</ele><time>2026-03-22T09:44:01.781Z</time></trkpt><trkpt lat="37.5614383" lon="14.9212017"><ele>306.3333333333333</ele><time>2026-03-22T09:44:02.782Z</time></trkpt><trkpt lat="37.561595" lon="14.921055"><ele>305.6666666666667</ele><time>2026-03-22T09:44:03.782Z</time></trkpt><trkpt lat="37.5617567" lon="14.9209117"><ele>305.0</ele><time>2026-03-22T09:44:04.782Z</time></trkpt><trkpt lat="37.5619283" lon="14.92077"><ele>304.0</ele><time>2026-03-22T09:44:05.781Z</time></trkpt><trkpt lat="37.5621017" lon="14.9206283"><ele>303.0</ele><time>2026-03-22T09:44:06.781Z</time></trkpt><trkpt lat="37.56228" lon="14.92049"><ele>302.0</ele><time>2026-03-22T09:44:07.781Z</time></trkpt><trkpt lat="37.5624617" lon="14.9203483"><ele>302.0</ele><time>2026-03-22T09:44:08.782Z</time></trkpt><trkpt lat="37.5626467" lon="14.9201983"><ele>302.0</ele><time>2026-03-22T09:44:09.781Z</time></trkpt><trkpt lat="37.562835" lon="14.92004"><ele>302.0</ele><time>2026-03-22T09:44:10.782Z</time></trkpt><trkpt lat="37.5630233" lon="14.919885"><ele>301.5</ele><time>2026-03-22T09:44:11.782Z</time></trkpt><trkpt lat="37.563215" lon="14.9197233"><ele>301.0</ele><time>2026-03-22T09:44:12.782Z</time></trkpt><trkpt lat="37.5634117" lon="14.9195683"><ele>301.0</ele><time>2026-03-22T09:44:13.781Z</time></trkpt><trkpt lat="37.5636067" lon="14.9194067"><ele>301.0</ele><time>2026-03-22T09:44:14.781Z</time></trkpt><trkpt lat="37.5638" lon="14.91925"><ele>299.0</ele><time>2026-03-22T09:44:15.782Z</time></trkpt><trkpt lat="37.5639883" lon="14.9190983"><ele>297.0</ele><time>2026-03-22T09:44:16.781Z</time></trkpt><trkpt lat="37.564175" lon="14.9189467"><ele>295.0</ele><time>2026-03-22T09:44:17.781Z</time></trkpt><trkpt lat="37.564365" lon="14.91879"><ele>293.5</ele><time>2026-03-22T09:44:18.781Z</time></trkpt><trkpt lat="37.564565" lon="14.9186383"><ele>292.0</ele><time>2026-03-22T09:44:19.782Z</time></trkpt><trkpt lat="37.5647617" lon="14.9184767"><ele>286.0</ele><time>2026-03-22T09:44:20.781Z</time></trkpt><trkpt lat="37.5649617" lon="14.918305"><ele>280.0</ele><time>2026-03-22T09:44:21.781Z</time></trkpt><trkpt lat="37.56517" lon="14.918135"><ele>279.5</ele><time>2026-03-22T09:44:22.781Z</time></trkpt><trkpt lat="37.5653833" lon="14.9179617"><ele>279.0</ele><time>2026-03-22T09:44:23.782Z</time></trkpt><trkpt lat="37.565595" lon="14.9177933"><ele>279.0</ele><time>2026-03-22T09:44:24.782Z</time></trkpt><trkpt lat="37.5658017" lon="14.9176333"><ele>279.0</ele><time>2026-03-22T09:44:25.782Z</time></trkpt><trkpt lat="37.56601" lon="14.9174917"><ele>278.5</ele><time>2026-03-22T09:44:26.782Z</time></trkpt><trkpt lat="37.5662167" lon="14.91736"><ele>278.0</ele><time>2026-03-22T09:44:27.781Z</time></trkpt><trkpt lat="37.5664267" lon="14.91724"><ele>278.0</ele><time>2026-03-22T09:44:28.781Z</time></trkpt><trkpt lat="37.566645" lon="14.91713"><ele>278.0</ele><time>2026-03-22T09:44:29.781Z</time></trkpt><trkpt lat="37.566865" lon="14.9170483"><ele>278.5</ele><time>2026-03-22T09:44:30.782Z</time></trkpt><trkpt lat="37.5670917" lon="14.916975"><ele>279.0</ele><time>2026-03-22T09:44:31.781Z</time></trkpt><trkpt lat="37.5673233" lon="14.916905"><ele>279.0</ele><time>2026-03-22T09:44:32.781Z</time></trkpt><trkpt lat="37.5675567" lon="14.9168383"><ele>279.0</ele><time>2026-03-22T09:44:33.782Z</time></trkpt><trkpt lat="37.5677867" lon="14.9167733"><ele>278.5</ele><time>2026-03-22T09:44:34.782Z</time></trkpt><trkpt lat="37.5680133" lon="14.916715"><ele>278.0</ele><time>2026-03-22T09:44:35.781Z</time></trkpt><trkpt lat="37.568235" lon="14.9166533"><ele>278.0</ele><time>2026-03-22T09:44:36.781Z</time></trkpt><trkpt lat="37.5684567" lon="14.9165967"><ele>278.0</ele><time>2026-03-22T09:44:37.781Z</time></trkpt><trkpt lat="37.5686733" lon="14.916535"><ele>278.0</ele><time>2026-03-22T09:44:38.782Z</time></trkpt><trkpt lat="37.56889" lon="14.916475"><ele>280.6666666666667</ele><time>2026-03-22T09:44:39.782Z</time></trkpt><trkpt lat="37.5690967" lon="14.9164217"><ele>283.3333333333333</ele><time>2026-03-22T09:44:40.781Z</time></trkpt><trkpt lat="37.569305" lon="14.91637"><ele>286.0</ele><time>2026-03-22T09:44:41.781Z</time></trkpt><trkpt lat="37.56951" lon="14.9163083"><ele>286.0</ele><time>2026-03-22T09:44:42.782Z</time></trkpt><trkpt lat="37.5697117" lon="14.9162483"><ele>286.0</ele><time>2026-03-22T09:44:43.782Z</time></trkpt><trkpt lat="37.5699033" lon="14.9161933"><ele>286.0</ele><time>2026-03-22T09:44:44.782Z</time></trkpt><trkpt lat="37.5700883" lon="14.9161383"><ele>286.0</ele><time>2026-03-22T09:44:45.781Z</time></trkpt><trkpt lat="37.5702717" lon="14.91609"><ele>286.0</ele><time>2026-03-22T09:44:46.782Z</time></trkpt><trkpt lat="37.5704433" lon="14.9160633"><ele>286.0</ele><time>2026-03-22T09:44:47.781Z</time></trkpt><trkpt lat="37.570615" lon="14.916045"><ele>285.0</ele><time>2026-03-22T09:44:48.782Z</time></trkpt><trkpt lat="37.5707917" lon="14.9160433"><ele>284.0</ele><time>2026-03-22T09:44:49.782Z</time></trkpt><trkpt lat="37.5709733" lon="14.9160633"><ele>283.0</ele><time>2026-03-22T09:44:50.782Z</time></trkpt><trkpt lat="37.57115" lon="14.9161033"><ele>282.66666666666663</ele><time>2026-03-22T09:44:51.781Z</time></trkpt><trkpt lat="37.5713317" lon="14.9161517"><ele>282.3333333333333</ele><time>2026-03-22T09:44:52.781Z</time></trkpt><trkpt lat="37.5715167" lon="14.9162033"><ele>282.0</ele><time>2026-03-22T09:44:53.782Z</time></trkpt><trkpt lat="37.5717033" lon="14.9162583"><ele>282.0</ele><time>2026-03-22T09:44:54.782Z</time></trkpt><trkpt lat="37.5718917" lon="14.9163167"><ele>282.0</ele><time>2026-03-22T09:44:55.782Z</time></trkpt><trkpt lat="37.57208" lon="14.9163783"><ele>282.0</ele><time>2026-03-22T09:44:56.782Z</time></trkpt><trkpt lat="37.5722767" lon="14.9164433"><ele>281.6666666666667</ele><time>2026-03-22T09:44:57.781Z</time></trkpt><trkpt lat="37.5724733" lon="14.9165033"><ele>281.33333333333337</ele><time>2026-03-22T09:44:58.781Z</time></trkpt><trkpt lat="37.57267" lon="14.91657"><ele>281.0</ele><time>2026-03-22T09:44:59.781Z</time></trkpt><trkpt lat="37.5728633" lon="14.9166283"><ele>280.33333333333337</ele><time>2026-03-22T09:45:00.781Z</time></trkpt><trkpt lat="37.5730517" lon="14.916685"><ele>279.6666666666667</ele><time>2026-03-22T09:45:01.781Z</time></trkpt><trkpt lat="37.573235" lon="14.9167467"><ele>279.0</ele><time>2026-03-22T09:45:02.782Z</time></trkpt><trkpt lat="37.5734067" lon="14.9168117"><ele>285.0</ele><time>2026-03-22T09:45:03.782Z</time></trkpt><trkpt lat="37.573575" lon="14.91687"><ele>291.0</ele><time>2026-03-22T09:45:04.782Z</time></trkpt><trkpt lat="37.5737367" lon="14.916935"><ele>297.0</ele><time>2026-03-22T09:45:05.781Z</time></trkpt><trkpt lat="37.5739017" lon="14.9170017"><ele>297.0</ele><time>2026-03-22T09:45:06.781Z</time></trkpt><trkpt lat="37.5740617" lon="14.9170717"><ele>297.0</ele><time>2026-03-22T09:45:07.781Z</time></trkpt><trkpt lat="37.57421" lon="14.9171417"><ele>297.0</ele><time>2026-03-22T09:45:08.782Z</time></trkpt><trkpt lat="37.5743583" lon="14.9172167"><ele>297.0</ele><time>2026-03-22T09:45:09.782Z</time></trkpt><trkpt lat="37.5744983" lon="14.917295"><ele>297.0</ele><time>2026-03-22T09:45:10.781Z</time></trkpt><trkpt lat="37.5746417" lon="14.917375"><ele>297.0</ele><time>2026-03-22T09:45:11.782Z</time></trkpt><trkpt lat="37.57479" lon="14.9174567"><ele>297.3333333333333</ele><time>2026-03-22T09:45:12.782Z</time></trkpt><trkpt lat="37.574945" lon="14.917535"><ele>297.66666666666663</ele><time>2026-03-22T09:45:13.781Z</time></trkpt><trkpt lat="37.5751" lon="14.917615"><ele>298.0</ele><time>2026-03-22T09:45:14.782Z</time></trkpt><trkpt lat="37.5752517" lon="14.9177"><ele>299.0</ele><time>2026-03-22T09:45:15.782Z</time></trkpt><trkpt lat="37.5753967" lon="14.9177867"><ele>300.0</ele><time>2026-03-22T09:45:16.782Z</time></trkpt><trkpt lat="37.5755467" lon="14.9178683"><ele>301.0</ele><time>2026-03-22T09:45:17.781Z</time></trkpt><trkpt lat="37.5756933" lon="14.917955"><ele>301.0</ele><time>2026-03-22T09:45:18.781Z</time></trkpt><trkpt lat="37.5758433" lon="14.91804"><ele>301.0</ele><time>2026-03-22T09:45:19.781Z</time></trkpt><trkpt lat="37.5759983" lon="14.9181267"><ele>301.0</ele><time>2026-03-22T09:45:20.782Z</time></trkpt><trkpt lat="37.576155" lon="14.918215"><ele>300.66666666666663</ele><time>2026-03-22T09:45:21.782Z</time></trkpt><trkpt lat="37.5763167" lon="14.9183067"><ele>300.3333333333333</ele><time>2026-03-22T09:45:22.781Z</time></trkpt><trkpt lat="37.57648" lon="14.9183983"><ele>300.0</ele><time>2026-03-22T09:45:23.782Z</time></trkpt><trkpt lat="37.57665" lon="14.9184917"><ele>301.0</ele><time>2026-03-22T09:45:24.782Z</time></trkpt><trkpt lat="37.576815" lon="14.9185817"><ele>302.0</ele><time>2026-03-22T09:45:25.781Z</time></trkpt><trkpt lat="37.5769783" lon="14.9186633"><ele>303.0</ele><time>2026-03-22T09:45:26.782Z</time></trkpt><trkpt lat="37.5771467" lon="14.9187383"><ele>303.6666666666667</ele><time>2026-03-22T09:45:27.782Z</time></trkpt><trkpt lat="37.577325" lon="14.918795"><ele>304.33333333333337</ele><time>2026-03-22T09:45:28.782Z</time></trkpt><trkpt lat="37.5775133" lon="14.9188317"><ele>305.0</ele><time>2026-03-22T09:45:29.781Z</time></trkpt><trkpt lat="37.577705" lon="14.918855"><ele>306.33333333333337</ele><time>2026-03-22T09:45:30.782Z</time></trkpt><trkpt lat="37.5778967" lon="14.91886"><ele>307.6666666666667</ele><time>2026-03-22T09:45:31.781Z</time></trkpt><trkpt lat="37.5780867" lon="14.9188617"><ele>309.0</ele><time>2026-03-22T09:45:32.781Z</time></trkpt><trkpt lat="37.578285" lon="14.91884"><ele>309.0</ele><time>2026-03-22T09:45:33.782Z</time></trkpt><trkpt lat="37.5784783" lon="14.9188033"><ele>309.0</ele><time>2026-03-22T09:45:34.782Z</time></trkpt><trkpt lat="37.57867" lon="14.9187467"><ele>309.0</ele><time>2026-03-22T09:45:35.781Z</time></trkpt><trkpt lat="37.57886" lon="14.91868"><ele>309.6666666666667</ele><time>2026-03-22T09:45:36.781Z</time></trkpt><trkpt lat="37.579055" lon="14.9186083"><ele>310.33333333333337</ele><time>2026-03-22T09:45:37.782Z</time></trkpt><trkpt lat="37.57925" lon="14.91854"><ele>311.0</ele><time>2026-03-22T09:45:38.782Z</time></trkpt><trkpt lat="37.5794483" lon="14.918475"><ele>312.33333333333337</ele><time>2026-03-22T09:45:39.782Z</time></trkpt><trkpt lat="37.5796483" lon="14.918405"><ele>313.6666666666667</ele><time>2026-03-22T09:45:40.782Z</time></trkpt><trkpt lat="37.5798483" lon="14.918335"><ele>315.0</ele><time>2026-03-22T09:45:41.782Z</time></trkpt><trkpt lat="37.580045" lon="14.918275"><ele>315.0</ele><time>2026-03-22T09:45:42.782Z</time></trkpt><trkpt lat="37.5802367" lon="14.9182"><ele>315.0</ele><time>2026-03-22T09:45:43.782Z</time></trkpt><trkpt lat="37.5804233" lon="14.918135"><ele>315.0</ele><time>2026-03-22T09:45:44.781Z</time></trkpt><trkpt lat="37.5806017" lon="14.91807"><ele>315.6666666666667</ele><time>2026-03-22T09:45:45.782Z</time></trkpt><trkpt lat="37.5807833" lon="14.9180033"><ele>316.33333333333337</ele><time>2026-03-22T09:45:46.782Z</time></trkpt><trkpt lat="37.58097" lon="14.9179417"><ele>317.0</ele><time>2026-03-22T09:45:47.781Z</time></trkpt><trkpt lat="37.5811517" lon="14.9178767"><ele>318.6666666666667</ele><time>2026-03-22T09:45:48.782Z</time></trkpt><trkpt lat="37.5813367" lon="14.91781"><ele>320.3333333333333</ele><time>2026-03-22T09:45:49.781Z</time></trkpt><trkpt lat="37.5815217" lon="14.917745"><ele>322.0</ele><time>2026-03-22T09:45:50.782Z</time></trkpt><trkpt lat="37.5817117" lon="14.91768"><ele>322.0</ele><time>2026-03-22T09:45:51.782Z</time></trkpt><trkpt lat="37.5819067" lon="14.9176067"><ele>322.0</ele><time>2026-03-22T09:45:52.782Z</time></trkpt><trkpt lat="37.5821067" lon="14.9175333"><ele>322.0</ele><time>2026-03-22T09:45:53.782Z</time></trkpt><trkpt lat="37.5823067" lon="14.9174617"><ele>321.3333333333333</ele><time>2026-03-22T09:45:54.781Z</time></trkpt><trkpt lat="37.5825067" lon="14.917395"><ele>320.6666666666667</ele><time>2026-03-22T09:45:55.781Z</time></trkpt><trkpt lat="37.5827083" lon="14.917325"><ele>320.0</ele><time>2026-03-22T09:45:56.781Z</time></trkpt><trkpt lat="37.5829117" lon="14.9172517"><ele>322.6666666666667</ele><time>2026-03-22T09:45:57.782Z</time></trkpt><trkpt lat="37.58312" lon="14.9171783"><ele>325.3333333333333</ele><time>2026-03-22T09:45:58.781Z</time></trkpt><trkpt lat="37.5833233" lon="14.9171033"><ele>328.0</ele><time>2026-03-22T09:45:59.782Z</time></trkpt><trkpt lat="37.58353" lon="14.9170333"><ele>329.66666666666663</ele><time>2026-03-22T09:46:00.782Z</time></trkpt><trkpt lat="37.5837383" lon="14.91695"><ele>331.3333333333333</ele><time>2026-03-22T09:46:01.782Z</time></trkpt><trkpt lat="37.583955" lon="14.9168833"><ele>333.0</ele><time>2026-03-22T09:46:02.782Z</time></trkpt><trkpt lat="37.584155" lon="14.91681"><ele>333.0</ele><time>2026-03-22T09:46:03.781Z</time></trkpt><trkpt lat="37.58435" lon="14.9167417"><ele>333.0</ele><time>2026-03-22T09:46:04.781Z</time></trkpt><trkpt lat="37.5845433" lon="14.9166833"><ele>333.0</ele><time>2026-03-22T09:46:05.781Z</time></trkpt><trkpt lat="37.5847417" lon="14.91663"><ele>332.0</ele><time>2026-03-22T09:46:06.782Z</time></trkpt><trkpt lat="37.5849333" lon="14.916585"><ele>331.0</ele><time>2026-03-22T09:46:07.781Z</time></trkpt><trkpt lat="37.5851117" lon="14.9165483"><ele>330.0</ele><time>2026-03-22T09:46:08.781Z</time></trkpt><trkpt lat="37.5852833" lon="14.9165183"><ele>330.0</ele><time>2026-03-22T09:46:09.782Z</time></trkpt><trkpt lat="37.585445" lon="14.916495"><ele>330.0</ele><time>2026-03-22T09:46:10.781Z</time></trkpt><trkpt lat="37.5856017" lon="14.9164717"><ele>330.0</ele><time>2026-03-22T09:46:11.781Z</time></trkpt><trkpt lat="37.5857467" lon="14.9164517"><ele>330.0</ele><time>2026-03-22T09:46:12.782Z</time></trkpt><trkpt lat="37.5858933" lon="14.9164367"><ele>330.0</ele><time>2026-03-22T09:46:13.781Z</time></trkpt><trkpt lat="37.5860417" lon="14.9164183"><ele>330.0</ele><time>2026-03-22T09:46:14.781Z</time></trkpt><trkpt lat="37.58619" lon="14.9164017"><ele>330.0</ele><time>2026-03-22T09:46:15.781Z</time></trkpt><trkpt lat="37.5863283" lon="14.9163867"><ele>331.2</ele><time>2026-03-22T09:46:16.782Z</time></trkpt><trkpt lat="37.5864483" lon="14.916375"><ele>332.4</ele><time>2026-03-22T09:46:17.782Z</time></trkpt><trkpt lat="37.586565" lon="14.91636"><ele>333.6</ele><time>2026-03-22T09:46:18.781Z</time></trkpt><trkpt lat="37.5866717" lon="14.91635"><ele>334.8</ele><time>2026-03-22T09:46:19.782Z</time></trkpt><trkpt lat="37.586775" lon="14.9163417"><ele>336.0</ele><time>2026-03-22T09:46:20.782Z</time></trkpt><trkpt lat="37.5868833" lon="14.9163333"><ele>336.0</ele><time>2026-03-22T09:46:21.782Z</time></trkpt><trkpt lat="37.5869983" lon="14.91632"><ele>336.0</ele><time>2026-03-22T09:46:22.781Z</time></trkpt><trkpt lat="37.58712" lon="14.91631"><ele>336.0</ele><time>2026-03-22T09:46:23.782Z</time></trkpt><trkpt lat="37.5872517" lon="14.9162983"><ele>336.0</ele><time>2026-03-22T09:46:24.782Z</time></trkpt><trkpt lat="37.587385" lon="14.9162867"><ele>337.0</ele><time>2026-03-22T09:46:25.782Z</time></trkpt><trkpt lat="37.587525" lon="14.9162683"><ele>338.0</ele><time>2026-03-22T09:46:26.781Z</time></trkpt><trkpt lat="37.5876717" lon="14.916255"><ele>339.0</ele><time>2026-03-22T09:46:27.782Z</time></trkpt><trkpt lat="37.5878217" lon="14.9162433"><ele>340.0</ele><time>2026-03-22T09:46:28.782Z</time></trkpt><trkpt lat="37.58798" lon="14.91623"><ele>343.3333333333333</ele><time>2026-03-22T09:46:29.781Z</time></trkpt><trkpt lat="37.58814" lon="14.916215"><ele>346.6666666666667</ele><time>2026-03-22T09:46:30.782Z</time></trkpt><trkpt lat="37.5883017" lon="14.9161917"><ele>350.0</ele><time>2026-03-22T09:46:31.781Z</time></trkpt><trkpt lat="37.588465" lon="14.91617"><ele>350.0</ele><time>2026-03-22T09:46:32.781Z</time></trkpt><trkpt lat="37.5886367" lon="14.9161633"><ele>350.0</ele><time>2026-03-22T09:46:33.781Z</time></trkpt><trkpt lat="37.588805" lon="14.9161483"><ele>350.0</ele><time>2026-03-22T09:46:34.781Z</time></trkpt><trkpt lat="37.58898" lon="14.9161283"><ele>350.0</ele><time>2026-03-22T09:46:35.782Z</time></trkpt><trkpt lat="37.5891583" lon="14.91611"><ele>350.0</ele><time>2026-03-22T09:46:36.781Z</time></trkpt><trkpt lat="37.58934" lon="14.9160783"><ele>350.0</ele><time>2026-03-22T09:46:37.781Z</time></trkpt><trkpt lat="37.5895183" lon="14.91605"><ele>350.6666666666667</ele><time>2026-03-22T09:46:38.781Z</time></trkpt><trkpt lat="37.5897" lon="14.9160133"><ele>351.3333333333333</ele><time>2026-03-22T09:46:39.782Z</time></trkpt><trkpt lat="37.58988" lon="14.9159683"><ele>352.0</ele><time>2026-03-22T09:46:40.782Z</time></trkpt><trkpt lat="37.59006" lon="14.9159217"><ele>350.66666666666663</ele><time>2026-03-22T09:46:41.782Z</time></trkpt><trkpt lat="37.5902383" lon="14.91586"><ele>349.3333333333333</ele><time>2026-03-22T09:46:42.782Z</time></trkpt><trkpt lat="37.5904267" lon="14.9157883"><ele>348.0</ele><time>2026-03-22T09:46:43.781Z</time></trkpt><trkpt lat="37.5906083" lon="14.9157017"><ele>350.6666666666667</ele><time>2026-03-22T09:46:44.781Z</time></trkpt><trkpt lat="37.5907883" lon="14.915615"><ele>353.33333333333337</ele><time>2026-03-22T09:46:45.782Z</time></trkpt><trkpt lat="37.5909717" lon="14.9155183"><ele>356.0</ele><time>2026-03-22T09:46:46.782Z</time></trkpt><trkpt lat="37.5911567" lon="14.9154167"><ele>358.33333333333337</ele><time>2026-03-22T09:46:47.781Z</time></trkpt><trkpt lat="37.5913417" lon="14.9153183"><ele>360.6666666666667</ele><time>2026-03-22T09:46:48.781Z</time></trkpt><trkpt lat="37.5915317" lon="14.9152167"><ele>363.0</ele><time>2026-03-22T09:46:49.781Z</time></trkpt><trkpt lat="37.59172" lon="14.91511"><ele>361.6666666666667</ele><time>2026-03-22T09:46:50.781Z</time></trkpt><trkpt lat="37.5919117" lon="14.9150017"><ele>360.33333333333337</ele><time>2026-03-22T09:46:51.781Z</time></trkpt><trkpt lat="37.5920967" lon="14.9148983"><ele>359.0</ele><time>2026-03-22T09:46:52.782Z</time></trkpt><trkpt lat="37.5922867" lon="14.9147917"><ele>359.0</ele><time>2026-03-22T09:46:53.782Z</time></trkpt><trkpt lat="37.592475" lon="14.914685"><ele>359.0</ele><time>2026-03-22T09:46:54.782Z</time></trkpt><trkpt lat="37.5926633" lon="14.9145833"><ele>359.0</ele><time>2026-03-22T09:46:55.781Z</time></trkpt><trkpt lat="37.5928483" lon="14.9144817"><ele>360.0</ele><time>2026-03-22T09:46:56.782Z</time></trkpt><trkpt lat="37.5930267" lon="14.9143817"><ele>361.0</ele><time>2026-03-22T09:46:57.781Z</time></trkpt><trkpt lat="37.593195" lon="14.9142917"><ele>362.0</ele><time>2026-03-22T09:46:58.781Z</time></trkpt><trkpt lat="37.5933667" lon="14.9141983"><ele>362.0</ele><time>2026-03-22T09:46:59.781Z</time></trkpt><trkpt lat="37.5935417" lon="14.9140983"><ele>362.0</ele><time>2026-03-22T09:47:00.782Z</time></trkpt><trkpt lat="37.5937217" lon="14.913995"><ele>362.0</ele><time>2026-03-22T09:47:01.782Z</time></trkpt><trkpt lat="37.5939067" lon="14.9138883"><ele>363.33333333333337</ele><time>2026-03-22T09:47:02.781Z</time></trkpt><trkpt lat="37.5940967" lon="14.9137833"><ele>364.6666666666667</ele><time>2026-03-22T09:47:03.782Z</time></trkpt><trkpt lat="37.5942933" lon="14.9136733"><ele>366.0</ele><time>2026-03-22T09:47:04.781Z</time></trkpt><trkpt lat="37.5944883" lon="14.913565"><ele>367.0</ele><time>2026-03-22T09:47:05.782Z</time></trkpt><trkpt lat="37.5946833" lon="14.913465"><ele>368.0</ele><time>2026-03-22T09:47:06.781Z</time></trkpt><trkpt lat="37.5948767" lon="14.9133633"><ele>369.0</ele><time>2026-03-22T09:47:07.782Z</time></trkpt><trkpt lat="37.5950633" lon="14.9132583"><ele>368.3333333333333</ele><time>2026-03-22T09:47:08.781Z</time></trkpt><trkpt lat="37.5952483" lon="14.9131583"><ele>367.66666666666663</ele><time>2026-03-22T09:47:09.782Z</time></trkpt><trkpt lat="37.59544" lon="14.9130533"><ele>367.0</ele><time>2026-03-22T09:47:10.781Z</time></trkpt><trkpt lat="37.5956333" lon="14.9129433"><ele>367.0</ele><time>2026-03-22T09:47:11.782Z</time></trkpt><trkpt lat="37.5958283" lon="14.9128317"><ele>367.0</ele><time>2026-03-22T09:47:12.781Z</time></trkpt><trkpt lat="37.59602" lon="14.91272"><ele>367.0</ele><time>2026-03-22T09:47:13.782Z</time></trkpt><trkpt lat="37.5962167" lon="14.91261"><ele>365.66666666666663</ele><time>2026-03-22T09:47:14.781Z</time></trkpt><trkpt lat="37.5964017" lon="14.912505"><ele>364.3333333333333</ele><time>2026-03-22T09:47:15.782Z</time></trkpt><trkpt lat="37.5965833" lon="14.9124117"><ele>363.0</ele><time>2026-03-22T09:47:16.782Z</time></trkpt><trkpt lat="37.59676" lon="14.9123167"><ele>363.0</ele><time>2026-03-22T09:47:17.781Z</time></trkpt><trkpt lat="37.5969367" lon="14.91222"><ele>363.0</ele><time>2026-03-22T09:47:18.782Z</time></trkpt><trkpt lat="37.5971067" lon="14.91213"><ele>363.0</ele><time>2026-03-22T09:47:19.781Z</time></trkpt><trkpt lat="37.59728" lon="14.9120317"><ele>364.6666666666667</ele><time>2026-03-22T09:47:20.781Z</time></trkpt><trkpt lat="37.5974533" lon="14.91194"><ele>366.33333333333337</ele><time>2026-03-22T09:47:21.782Z</time></trkpt><trkpt lat="37.5976283" lon="14.9118433"><ele>368.0</ele><time>2026-03-22T09:47:22.782Z</time></trkpt><trkpt lat="37.5978" lon="14.911755"><ele>368.6666666666667</ele><time>2026-03-22T09:47:23.782Z</time></trkpt><trkpt lat="37.5979667" lon="14.9116717"><ele>369.3333333333333</ele><time>2026-03-22T09:47:24.782Z</time></trkpt><trkpt lat="37.5981433" lon="14.9115967"><ele>370.0</ele><time>2026-03-22T09:47:25.782Z</time></trkpt><trkpt lat="37.59832" lon="14.9115367"><ele>370.0</ele><time>2026-03-22T09:47:26.781Z</time></trkpt><trkpt lat="37.5985033" lon="14.9114883"><ele>370.0</ele><time>2026-03-22T09:47:27.782Z</time></trkpt><trkpt lat="37.5986917" lon="14.9114517"><ele>370.0</ele><time>2026-03-22T09:47:28.781Z</time></trkpt><trkpt lat="37.5988817" lon="14.9114233"><ele>372.3333333333333</ele><time>2026-03-22T09:47:29.781Z</time></trkpt><trkpt lat="37.5990767" lon="14.9114067"><ele>374.6666666666667</ele><time>2026-03-22T09:47:30.781Z</time></trkpt><trkpt lat="37.599275" lon="14.9113933"><ele>377.0</ele><time>2026-03-22T09:47:31.781Z</time></trkpt><trkpt lat="37.5994717" lon="14.9113883"><ele>379.33333333333337</ele><time>2026-03-22T09:47:32.781Z</time></trkpt><trkpt lat="37.599665" lon="14.911395"><ele>381.6666666666667</ele><time>2026-03-22T09:47:33.782Z</time></trkpt><trkpt lat="37.59986" lon="14.9114017"><ele>384.0</ele><time>2026-03-22T09:47:34.782Z</time></trkpt><trkpt lat="37.6000567" lon="14.911415"><ele>384.0</ele><time>2026-03-22T09:47:35.781Z</time></trkpt><trkpt lat="37.6002533" lon="14.9114233"><ele>384.0</ele><time>2026-03-22T09:47:36.782Z</time></trkpt><trkpt lat="37.6004533" lon="14.9114283"><ele>384.0</ele><time>2026-03-22T09:47:37.782Z</time></trkpt><trkpt lat="37.6006533" lon="14.9114367"><ele>385.0</ele><time>2026-03-22T09:47:38.781Z</time></trkpt><trkpt lat="37.60085" lon="14.911445"><ele>386.0</ele><time>2026-03-22T09:47:39.782Z</time></trkpt><trkpt lat="37.6010533" lon="14.91145"><ele>387.0</ele><time>2026-03-22T09:47:40.781Z</time></trkpt><trkpt lat="37.6012517" lon="14.9114583"><ele>387.66666666666663</ele><time>2026-03-22T09:47:41.782Z</time></trkpt><trkpt lat="37.6014533" lon="14.9114683"><ele>388.3333333333333</ele><time>2026-03-22T09:47:42.781Z</time></trkpt><trkpt lat="37.6016533" lon="14.911485"><ele>389.0</ele><time>2026-03-22T09:47:43.781Z</time></trkpt><trkpt lat="37.6018533" lon="14.9114967"><ele>390.3333333333333</ele><time>2026-03-22T09:47:44.782Z</time></trkpt><trkpt lat="37.6020567" lon="14.911505"><ele>391.66666666666663</ele><time>2026-03-22T09:47:45.781Z</time></trkpt><trkpt lat="37.6022583" lon="14.911515"><ele>393.0</ele><time>2026-03-22T09:47:46.781Z</time></trkpt><trkpt lat="37.60246" lon="14.9115183"><ele>393.0</ele><time>2026-03-22T09:47:47.782Z</time></trkpt><trkpt lat="37.6026667" lon="14.9115233"><ele>393.0</ele><time>2026-03-22T09:47:48.781Z</time></trkpt><trkpt lat="37.6028733" lon="14.9115283"><ele>393.0</ele><time>2026-03-22T09:47:49.781Z</time></trkpt><trkpt lat="37.603075" lon="14.911535"><ele>394.0</ele><time>2026-03-22T09:47:50.782Z</time></trkpt><trkpt lat="37.6032767" lon="14.9115383"><ele>395.0</ele><time>2026-03-22T09:47:51.782Z</time></trkpt><trkpt lat="37.603475" lon="14.9115333"><ele>396.0</ele><time>2026-03-22T09:47:52.782Z</time></trkpt><trkpt lat="37.6036733" lon="14.91152"><ele>397.0</ele><time>2026-03-22T09:47:53.782Z</time></trkpt><trkpt lat="37.6038683" lon="14.9114867"><ele>398.0</ele><time>2026-03-22T09:47:54.781Z</time></trkpt><trkpt lat="37.6040583" lon="14.9114267"><ele>399.0</ele><time>2026-03-22T09:47:55.782Z</time></trkpt><trkpt lat="37.6042483" lon="14.91135"><ele>399.0</ele><time>2026-03-22T09:47:56.782Z</time></trkpt><trkpt lat="37.604435" lon="14.9112483"><ele>399.0</ele><time>2026-03-22T09:47:57.781Z</time></trkpt><trkpt lat="37.604615" lon="14.9111333"><ele>399.0</ele><time>2026-03-22T09:47:58.782Z</time></trkpt><trkpt lat="37.6047883" lon="14.9110017"><ele>401.33333333333337</ele><time>2026-03-22T09:47:59.782Z</time></trkpt><trkpt lat="37.60496" lon="14.9108633"><ele>403.6666666666667</ele><time>2026-03-22T09:48:00.781Z</time></trkpt><trkpt lat="37.6051283" lon="14.91072"><ele>406.0</ele><time>2026-03-22T09:48:01.782Z</time></trkpt><trkpt lat="37.6052967" lon="14.9105733"><ele>409.0</ele><time>2026-03-22T09:48:02.781Z</time></trkpt><trkpt lat="37.605465" lon="14.910435"><ele>412.0</ele><time>2026-03-22T09:48:03.782Z</time></trkpt><trkpt lat="37.60563" lon="14.9102967"><ele>415.0</ele><time>2026-03-22T09:48:04.782Z</time></trkpt><trkpt lat="37.605795" lon="14.91016"><ele>414.33333333333337</ele><time>2026-03-22T09:48:05.782Z</time></trkpt><trkpt lat="37.6059583" lon="14.9100167"><ele>413.66666666666663</ele><time>2026-03-22T09:48:06.782Z</time></trkpt><trkpt lat="37.606125" lon="14.9098667"><ele>413.0</ele><time>2026-03-22T09:48:07.781Z</time></trkpt><trkpt lat="37.6062933" lon="14.909725"><ele>414.66666666666663</ele><time>2026-03-22T09:48:08.781Z</time></trkpt><trkpt lat="37.606465" lon="14.909585"><ele>416.33333333333337</ele><time>2026-03-22T09:48:09.781Z</time></trkpt><trkpt lat="37.6066333" lon="14.9094267"><ele>418.0</ele><time>2026-03-22T09:48:10.782Z</time></trkpt><trkpt lat="37.6068067" lon="14.9092833"><ele>416.6666666666667</ele><time>2026-03-22T09:48:11.781Z</time></trkpt><trkpt lat="37.606975" lon="14.9091417"><ele>415.33333333333337</ele><time>2026-03-22T09:48:12.781Z</time></trkpt><trkpt lat="37.6071433" lon="14.9089933"><ele>414.0</ele><time>2026-03-22T09:48:13.782Z</time></trkpt><trkpt lat="37.6073083" lon="14.90885"><ele>417.33333333333337</ele><time>2026-03-22T09:48:14.782Z</time></trkpt><trkpt lat="37.6074833" lon="14.9087083"><ele>420.6666666666667</ele><time>2026-03-22T09:48:15.781Z</time></trkpt><trkpt lat="37.6076533" lon="14.9085617"><ele>424.0</ele><time>2026-03-22T09:48:16.781Z</time></trkpt><trkpt lat="37.6078217" lon="14.908415"><ele>425.0</ele><time>2026-03-22T09:48:17.782Z</time></trkpt><trkpt lat="37.6079917" lon="14.9082667"><ele>426.0</ele><time>2026-03-22T09:48:18.781Z</time></trkpt><trkpt lat="37.60816" lon="14.9081183"><ele>427.0</ele><time>2026-03-22T09:48:19.781Z</time></trkpt><trkpt lat="37.6083233" lon="14.9079717"><ele>427.0</ele><time>2026-03-22T09:48:20.782Z</time></trkpt><trkpt lat="37.6084817" lon="14.9078333"><ele>427.0</ele><time>2026-03-22T09:48:21.781Z</time></trkpt><trkpt lat="37.6086433" lon="14.907695"><ele>427.0</ele><time>2026-03-22T09:48:22.781Z</time></trkpt><trkpt lat="37.6088067" lon="14.9075583"><ele>428.33333333333337</ele><time>2026-03-22T09:48:23.782Z</time></trkpt><trkpt lat="37.60897" lon="14.9074233"><ele>429.66666666666663</ele><time>2026-03-22T09:48:24.782Z</time></trkpt><trkpt lat="37.609135" lon="14.9072883"><ele>431.0</ele><time>2026-03-22T09:48:25.781Z</time></trkpt><trkpt lat="37.6092983" lon="14.90715"><ele>431.0</ele><time>2026-03-22T09:48:26.781Z</time></trkpt><trkpt lat="37.6094583" lon="14.9070083"><ele>431.0</ele><time>2026-03-22T09:48:27.782Z</time></trkpt><trkpt lat="37.6096217" lon="14.9068633"><ele>431.0</ele><time>2026-03-22T09:48:28.782Z</time></trkpt><trkpt lat="37.6097833" lon="14.9067217"><ele>432.0</ele><time>2026-03-22T09:48:29.781Z</time></trkpt><trkpt lat="37.6099467" lon="14.9065783"><ele>433.0</ele><time>2026-03-22T09:48:30.781Z</time></trkpt><trkpt lat="37.61011" lon="14.906435"><ele>434.0</ele><time>2026-03-22T09:48:31.781Z</time></trkpt><trkpt lat="37.6102733" lon="14.9062967"><ele>436.0</ele><time>2026-03-22T09:48:32.781Z</time></trkpt><trkpt lat="37.6104333" lon="14.90616"><ele>438.0</ele><time>2026-03-22T09:48:33.782Z</time></trkpt><trkpt lat="37.6105917" lon="14.9060267"><ele>440.0</ele><time>2026-03-22T09:48:34.782Z</time></trkpt><trkpt lat="37.610745" lon="14.9058883"><ele>440.3333333333333</ele><time>2026-03-22T09:48:35.782Z</time></trkpt><trkpt lat="37.6109067" lon="14.9057517"><ele>440.66666666666663</ele><time>2026-03-22T09:48:36.781Z</time></trkpt><trkpt lat="37.61107" lon="14.9056133"><ele>441.0</ele><time>2026-03-22T09:48:37.781Z</time></trkpt><trkpt lat="37.61123" lon="14.9054783"><ele>442.0</ele><time>2026-03-22T09:48:38.781Z</time></trkpt><trkpt lat="37.61139" lon="14.9053483"><ele>443.0</ele><time>2026-03-22T09:48:39.782Z</time></trkpt><trkpt lat="37.6115383" lon="14.9052217"><ele>444.0</ele><time>2026-03-22T09:48:40.781Z</time></trkpt><trkpt lat="37.6116783" lon="14.9051"><ele>443.0</ele><time>2026-03-22T09:48:41.782Z</time></trkpt><trkpt lat="37.6118167" lon="14.90498"><ele>442.0</ele><time>2026-03-22T09:48:42.781Z</time></trkpt><trkpt lat="37.6119617" lon="14.90486"><ele>441.0</ele><time>2026-03-22T09:48:43.781Z</time></trkpt><trkpt lat="37.6121117" lon="14.9047317"><ele>441.0</ele><time>2026-03-22T09:48:44.781Z</time></trkpt><trkpt lat="37.61226" lon="14.904605"><ele>441.0</ele><time>2026-03-22T09:48:45.781Z</time></trkpt><trkpt lat="37.612405" lon="14.904475"><ele>441.0</ele><time>2026-03-22T09:48:46.781Z</time></trkpt><trkpt lat="37.6125517" lon="14.9043483"><ele>441.66666666666663</ele><time>2026-03-22T09:48:47.782Z</time></trkpt><trkpt lat="37.6127017" lon="14.9042233"><ele>442.3333333333333</ele><time>2026-03-22T09:48:48.781Z</time></trkpt><trkpt lat="37.6128467" lon="14.9041017"><ele>443.0</ele><time>2026-03-22T09:48:49.782Z</time></trkpt><trkpt lat="37.6129933" lon="14.9039733"><ele>445.0</ele><time>2026-03-22T09:48:50.781Z</time></trkpt><trkpt lat="37.6131367" lon="14.9038467"><ele>447.0</ele><time>2026-03-22T09:48:51.781Z</time></trkpt><trkpt lat="37.61328" lon="14.9037183"><ele>449.0</ele><time>2026-03-22T09:48:52.782Z</time></trkpt><trkpt lat="37.6134283" lon="14.9035867"><ele>449.0</ele><time>2026-03-22T09:48:53.781Z</time></trkpt><trkpt lat="37.6135783" lon="14.9034617"><ele>449.0</ele><time>2026-03-22T09:48:54.781Z</time></trkpt><trkpt lat="37.6137267" lon="14.9033333"><ele>449.0</ele><time>2026-03-22T09:48:55.782Z</time></trkpt><trkpt lat="37.6138833" lon="14.9032017"><ele>452.3333333333333</ele><time>2026-03-22T09:48:56.781Z</time></trkpt><trkpt lat="37.6140417" lon="14.9030667"><ele>455.66666666666663</ele><time>2026-03-22T09:48:57.782Z</time></trkpt><trkpt lat="37.6141983" lon="14.90293"><ele>459.0</ele><time>2026-03-22T09:48:58.782Z</time></trkpt><trkpt lat="37.6143517" lon="14.902805"><ele>459.33333333333337</ele><time>2026-03-22T09:48:59.781Z</time></trkpt><trkpt lat="37.6145067" lon="14.9026683"><ele>459.6666666666667</ele><time>2026-03-22T09:49:00.781Z</time></trkpt><trkpt lat="37.6146617" lon="14.90255"><ele>460.0</ele><time>2026-03-22T09:49:01.782Z</time></trkpt><trkpt lat="37.6148233" lon="14.9024317"><ele>459.33333333333337</ele><time>2026-03-22T09:49:02.782Z</time></trkpt><trkpt lat="37.6149833" lon="14.9023183"><ele>458.66666666666663</ele><time>2026-03-22T09:49:03.782Z</time></trkpt><trkpt lat="37.61515" lon="14.90221"><ele>458.0</ele><time>2026-03-22T09:49:04.781Z</time></trkpt><trkpt lat="37.6153233" lon="14.9021083"><ele>460.66666666666663</ele><time>2026-03-22T09:49:05.782Z</time></trkpt><trkpt lat="37.6155" lon="14.90202"><ele>463.33333333333337</ele><time>2026-03-22T09:49:06.782Z</time></trkpt><trkpt lat="37.61568" lon="14.9019433"><ele>466.0</ele><time>2026-03-22T09:49:07.781Z</time></trkpt><trkpt lat="37.6158633" lon="14.9018717"><ele>466.0</ele><time>2026-03-22T09:49:08.781Z</time></trkpt><trkpt lat="37.6160533" lon="14.9018067"><ele>466.0</ele><time>2026-03-22T09:49:09.782Z</time></trkpt><trkpt lat="37.6162483" lon="14.90174"><ele>466.0</ele><time>2026-03-22T09:49:10.781Z</time></trkpt><trkpt lat="37.6164433" lon="14.901675"><ele>465.6666666666667</ele><time>2026-03-22T09:49:11.782Z</time></trkpt><trkpt lat="37.6166383" lon="14.9016133"><ele>465.33333333333337</ele><time>2026-03-22T09:49:12.781Z</time></trkpt><trkpt lat="37.6168383" lon="14.90155"><ele>465.0</ele><time>2026-03-22T09:49:13.781Z</time></trkpt><trkpt lat="37.6170333" lon="14.901485"><ele>466.66666666666663</ele><time>2026-03-22T09:49:14.781Z</time></trkpt><trkpt lat="37.6172267" lon="14.9014183"><ele>468.3333333333333</ele><time>2026-03-22T09:49:15.781Z</time></trkpt><trkpt lat="37.6174117" lon="14.90136"><ele>470.0</ele><time>2026-03-22T09:49:16.781Z</time></trkpt><trkpt lat="37.6175983" lon="14.9013017"><ele>470.0</ele><time>2026-03-22T09:49:17.781Z</time></trkpt><trkpt lat="37.6177767" lon="14.90125"><ele>470.0</ele><time>2026-03-22T09:49:18.782Z</time></trkpt><trkpt lat="37.6179583" lon="14.9011917"><ele>470.0</ele><time>2026-03-22T09:49:19.781Z</time></trkpt><trkpt lat="37.6181333" lon="14.9011317"><ele>471.3333333333333</ele><time>2026-03-22T09:49:20.781Z</time></trkpt><trkpt lat="37.6182983" lon="14.90108"><ele>472.66666666666663</ele><time>2026-03-22T09:49:21.782Z</time></trkpt><trkpt lat="37.6184517" lon="14.9010267"><ele>474.0</ele><time>2026-03-22T09:49:22.782Z</time></trkpt><trkpt lat="37.6186067" lon="14.90097"><ele>475.0</ele><time>2026-03-22T09:49:23.781Z</time></trkpt><trkpt lat="37.6187667" lon="14.90092"><ele>476.0</ele><time>2026-03-22T09:49:24.782Z</time></trkpt><trkpt lat="37.61893" lon="14.900865"><ele>477.0</ele><time>2026-03-22T09:49:25.782Z</time></trkpt><trkpt lat="37.619095" lon="14.90081"><ele>477.0</ele><time>2026-03-22T09:49:26.782Z</time></trkpt><trkpt lat="37.61926" lon="14.90076"><ele>477.0</ele><time>2026-03-22T09:49:27.782Z</time></trkpt><trkpt lat="37.61943" lon="14.9007083"><ele>477.0</ele><time>2026-03-22T09:49:28.782Z</time></trkpt><trkpt lat="37.619595" lon="14.9006583"><ele>478.0</ele><time>2026-03-22T09:49:29.781Z</time></trkpt><trkpt lat="37.61976" lon="14.9006067"><ele>479.0</ele><time>2026-03-22T09:49:30.781Z</time></trkpt><trkpt lat="37.6199217" lon="14.9005517"><ele>480.0</ele><time>2026-03-22T09:49:31.781Z</time></trkpt><trkpt lat="37.6200817" lon="14.9004983"><ele>480.0</ele><time>2026-03-22T09:49:32.781Z</time></trkpt><trkpt lat="37.6202417" lon="14.900445"><ele>480.0</ele><time>2026-03-22T09:49:33.781Z</time></trkpt><trkpt lat="37.6204017" lon="14.9003917"><ele>480.0</ele><time>2026-03-22T09:49:34.782Z</time></trkpt><trkpt lat="37.6205667" lon="14.90034"><ele>482.0</ele><time>2026-03-22T09:49:35.781Z</time></trkpt><trkpt lat="37.62073" lon="14.90029"><ele>484.0</ele><time>2026-03-22T09:49:36.782Z</time></trkpt><trkpt lat="37.620895" lon="14.9002417"><ele>486.0</ele><time>2026-03-22T09:49:37.782Z</time></trkpt><trkpt lat="37.6210617" lon="14.900195"><ele>488.33333333333337</ele><time>2026-03-22T09:49:38.781Z</time></trkpt><trkpt lat="37.6212283" lon="14.900145"><ele>490.6666666666667</ele><time>2026-03-22T09:49:39.782Z</time></trkpt><trkpt lat="37.6213917" lon="14.9000917"><ele>493.0</ele><time>2026-03-22T09:49:40.782Z</time></trkpt><trkpt lat="37.6215567" lon="14.9000367"><ele>493.0</ele><time>2026-03-22T09:49:41.781Z</time></trkpt><trkpt lat="37.6217183" lon="14.8999767"><ele>493.0</ele><time>2026-03-22T09:49:42.782Z</time></trkpt><trkpt lat="37.6218817" lon="14.8999117"><ele>493.0</ele><time>2026-03-22T09:49:43.781Z</time></trkpt><trkpt lat="37.62204" lon="14.89983"><ele>495.0</ele><time>2026-03-22T09:49:44.782Z</time></trkpt><trkpt lat="37.6221917" lon="14.8997283"><ele>497.0</ele><time>2026-03-22T09:49:45.782Z</time></trkpt><trkpt lat="37.6223283" lon="14.8996117"><ele>499.0</ele><time>2026-03-22T09:49:46.781Z</time></trkpt><trkpt lat="37.6224567" lon="14.8994817"><ele>499.0</ele><time>2026-03-22T09:49:47.782Z</time></trkpt><trkpt lat="37.62258" lon="14.8993483"><ele>499.0</ele><time>2026-03-22T09:49:48.782Z</time></trkpt><trkpt lat="37.6226933" lon="14.8992083"><ele>499.0</ele><time>2026-03-22T09:49:49.781Z</time></trkpt><trkpt lat="37.6227983" lon="14.89906"><ele>499.33333333333337</ele><time>2026-03-22T09:49:50.782Z</time></trkpt><trkpt lat="37.6228967" lon="14.8989033"><ele>499.66666666666663</ele><time>2026-03-22T09:49:51.781Z</time></trkpt><trkpt lat="37.622985" lon="14.8987367"><ele>500.0</ele><time>2026-03-22T09:49:52.782Z</time></trkpt><trkpt lat="37.6230733" lon="14.898565"><ele>499.66666666666663</ele><time>2026-03-22T09:49:53.782Z</time></trkpt><trkpt lat="37.6231683" lon="14.8983883"><ele>499.33333333333337</ele><time>2026-03-22T09:49:54.782Z</time></trkpt><trkpt lat="37.6232533" lon="14.89821"><ele>499.0</ele><time>2026-03-22T09:49:55.782Z</time></trkpt><trkpt lat="37.6233433" lon="14.8980383"><ele>499.0</ele><time>2026-03-22T09:49:56.782Z</time></trkpt><trkpt lat="37.6234333" lon="14.89787"><ele>499.0</ele><time>2026-03-22T09:49:57.781Z</time></trkpt><trkpt lat="37.62352" lon="14.8977"><ele>499.0</ele><time>2026-03-22T09:49:58.782Z</time></trkpt><trkpt lat="37.6236033" lon="14.897525"><ele>504.0</ele><time>2026-03-22T09:49:59.782Z</time></trkpt><trkpt lat="37.6236967" lon="14.897345"><ele>509.0</ele><time>2026-03-22T09:50:00.782Z</time></trkpt><trkpt lat="37.6237967" lon="14.897165"><ele>514.0</ele><time>2026-03-22T09:50:01.782Z</time></trkpt><trkpt lat="37.6238967" lon="14.89698"><ele>514.0</ele><time>2026-03-22T09:50:02.781Z</time></trkpt><trkpt lat="37.624" lon="14.896795"><ele>514.0</ele><time>2026-03-22T09:50:03.782Z</time></trkpt><trkpt lat="37.6241017" lon="14.8966067"><ele>514.0</ele><time>2026-03-22T09:50:04.782Z</time></trkpt><trkpt lat="37.624205" lon="14.896425"><ele>513.3333333333334</ele><time>2026-03-22T09:50:05.782Z</time></trkpt><trkpt lat="37.6243267" lon="14.8962533"><ele>512.6666666666666</ele><time>2026-03-22T09:50:06.782Z</time></trkpt><trkpt lat="37.624465" lon="14.8960933"><ele>512.0</ele><time>2026-03-22T09:50:07.781Z</time></trkpt><trkpt lat="37.624615" lon="14.895945"><ele>513.3333333333333</ele><time>2026-03-22T09:50:08.781Z</time></trkpt><trkpt lat="37.624775" lon="14.8957967"><ele>514.6666666666666</ele><time>2026-03-22T09:50:09.782Z</time></trkpt><trkpt lat="37.6249517" lon="14.8956833"><ele>516.0</ele><time>2026-03-22T09:50:10.781Z</time></trkpt><trkpt lat="37.62513" lon="14.89559"><ele>516.6666666666666</ele><time>2026-03-22T09:50:11.781Z</time></trkpt><trkpt lat="37.6253233" lon="14.8955267"><ele>517.3333333333333</ele><time>2026-03-22T09:50:12.781Z</time></trkpt><trkpt lat="37.6255133" lon="14.8954883"><ele>518.0</ele><time>2026-03-22T09:50:13.782Z</time></trkpt><trkpt lat="37.6257117" lon="14.89548"><ele>518.0</ele><time>2026-03-22T09:50:14.782Z</time></trkpt><trkpt lat="37.625915" lon="14.895485"><ele>518.0</ele><time>2026-03-22T09:50:15.781Z</time></trkpt><trkpt lat="37.626115" lon="14.895515"><ele>518.0</ele><time>2026-03-22T09:50:16.782Z</time></trkpt><trkpt lat="37.6263117" lon="14.895545"><ele>520.3333333333333</ele><time>2026-03-22T09:50:17.781Z</time></trkpt><trkpt lat="37.6265133" lon="14.8955817"><ele>522.6666666666666</ele><time>2026-03-22T09:50:18.781Z</time></trkpt><trkpt lat="37.6267217" lon="14.895615"><ele>525.0</ele><time>2026-03-22T09:50:19.782Z</time></trkpt><trkpt lat="37.62693" lon="14.8956433"><ele>525.6666666666666</ele><time>2026-03-22T09:50:20.781Z</time></trkpt><trkpt lat="37.627145" lon="14.89568"><ele>526.3333333333333</ele><time>2026-03-22T09:50:21.782Z</time></trkpt><trkpt lat="37.6273567" lon="14.89571"><ele>527.0</ele><time>2026-03-22T09:50:22.782Z</time></trkpt><trkpt lat="37.6275733" lon="14.8957467"><ele>527.0</ele><time>2026-03-22T09:50:23.781Z</time></trkpt><trkpt lat="37.6277883" lon="14.8957917"><ele>527.0</ele><time>2026-03-22T09:50:24.782Z</time></trkpt><trkpt lat="37.628" lon="14.8958333"><ele>527.0</ele><time>2026-03-22T09:50:25.781Z</time></trkpt><trkpt lat="37.6282026" lon="14.8958655"><ele>527.0</ele><time>2026-03-22T09:50:26.782Z</time></trkpt><trkpt lat="37.6284021" lon="14.8958978"><ele>527.0</ele><time>2026-03-22T09:50:27.781Z</time></trkpt><trkpt lat="37.6285923" lon="14.8959326"><ele>527.0</ele><time>2026-03-22T09:50:28.781Z</time></trkpt><trkpt lat="37.6287718" lon="14.895966"><ele>527.3333333333333</ele><time>2026-03-22T09:50:29.782Z</time></trkpt><trkpt lat="37.6289406" lon="14.8959932"><ele>527.6666666666666</ele><time>2026-03-22T09:50:30.782Z</time></trkpt><trkpt lat="37.6291035" lon="14.8960163"><ele>528.0</ele><time>2026-03-22T09:50:31.782Z</time></trkpt><trkpt lat="37.6292626" lon="14.8960392"><ele>528.0</ele><time>2026-03-22T09:50:32.781Z</time></trkpt><trkpt lat="37.6294235" lon="14.8960613"><ele>528.0</ele><time>2026-03-22T09:50:33.781Z</time></trkpt><trkpt lat="37.629587" lon="14.8960809"><ele>528.0</ele><time>2026-03-22T09:50:34.782Z</time></trkpt><trkpt lat="37.6297602" lon="14.8960814"><ele>528.3333333333334</ele><time>2026-03-22T09:50:35.782Z</time></trkpt><trkpt lat="37.6299322" lon="14.8960574"><ele>528.6666666666667</ele><time>2026-03-22T09:50:36.781Z</time></trkpt><trkpt lat="37.6301069" lon="14.8960093"><ele>529.0</ele><time>2026-03-22T09:50:37.782Z</time></trkpt><trkpt lat="37.6302786" lon="14.8959387"><ele>529.3333333333334</ele><time>2026-03-22T09:50:38.782Z</time></trkpt><trkpt lat="37.6304527" lon="14.8958549"><ele>529.6666666666666</ele><time>2026-03-22T09:50:39.781Z</time></trkpt><trkpt lat="37.6306257" lon="14.8957535"><ele>530.0</ele><time>2026-03-22T09:50:40.781Z</time></trkpt><trkpt lat="37.6307898" lon="14.8956324"><ele>530.0</ele><time>2026-03-22T09:50:41.781Z</time></trkpt><trkpt lat="37.6309448" lon="14.8955037"><ele>530.0</ele><time>2026-03-22T09:50:42.781Z</time></trkpt><trkpt lat="37.6310916" lon="14.8953732"><ele>530.0</ele><time>2026-03-22T09:50:43.781Z</time></trkpt><trkpt lat="37.631242" lon="14.895247"><ele>529.0</ele><time>2026-03-22T09:50:44.781Z</time></trkpt><trkpt lat="37.6313946" lon="14.8951182"><ele>528.0</ele><time>2026-03-22T09:50:45.782Z</time></trkpt><trkpt lat="37.6315547" lon="14.8949886"><ele>527.0</ele><time>2026-03-22T09:50:46.782Z</time></trkpt><trkpt lat="37.6317168" lon="14.8948555"><ele>527.0</ele><time>2026-03-22T09:50:47.782Z</time></trkpt><trkpt lat="37.6318766" lon="14.8947126"><ele>527.0</ele><time>2026-03-22T09:50:48.782Z</time></trkpt><trkpt lat="37.6320431" lon="14.8945743"><ele>527.0</ele><time>2026-03-22T09:50:49.781Z</time></trkpt><trkpt lat="37.6322059" lon="14.8944295"><ele>527.3333333333333</ele><time>2026-03-22T09:50:50.781Z</time></trkpt><trkpt lat="37.6323768" lon="14.8942826"><ele>527.6666666666666</ele><time>2026-03-22T09:50:51.782Z</time></trkpt><trkpt lat="37.6325513" lon="14.8941364"><ele>528.0</ele><time>2026-03-22T09:50:52.781Z</time></trkpt><trkpt lat="37.6327231" lon="14.8939969"><ele>529.6666666666666</ele><time>2026-03-22T09:50:53.781Z</time></trkpt><trkpt lat="37.6328871" lon="14.8938661"><ele>531.3333333333333</ele><time>2026-03-22T09:50:54.782Z</time></trkpt><trkpt lat="37.6330413" lon="14.8937404"><ele>533.0</ele><time>2026-03-22T09:50:55.782Z</time></trkpt><trkpt lat="37.6331844" lon="14.893624"><ele>533.0</ele><time>2026-03-22T09:50:56.782Z</time></trkpt><trkpt lat="37.6333265" lon="14.8935116"><ele>533.0</ele><time>2026-03-22T09:50:57.781Z</time></trkpt><trkpt lat="37.6334686" lon="14.893396"><ele>533.0</ele><time>2026-03-22T09:50:58.781Z</time></trkpt><trkpt lat="37.6336126" lon="14.8932808"><ele>534.3333333333333</ele><time>2026-03-22T09:50:59.782Z</time></trkpt><trkpt lat="37.6337523" lon="14.8931649"><ele>535.6666666666666</ele><time>2026-03-22T09:51:00.781Z</time></trkpt><trkpt lat="37.6338897" lon="14.8930507"><ele>537.0</ele><time>2026-03-22T09:51:01.782Z</time></trkpt><trkpt lat="37.63403" lon="14.8929348"><ele>537.0</ele><time>2026-03-22T09:51:02.782Z</time></trkpt><trkpt lat="37.6341715" lon="14.8928181"><ele>537.0</ele><time>2026-03-22T09:51:03.781Z</time></trkpt><trkpt lat="37.6343153" lon="14.892696"><ele>537.0</ele><time>2026-03-22T09:51:04.781Z</time></trkpt><trkpt lat="37.6344595" lon="14.8925758"><ele>538.3333333333334</ele><time>2026-03-22T09:51:05.781Z</time></trkpt><trkpt lat="37.6346" lon="14.8924617"><ele>539.6666666666667</ele><time>2026-03-22T09:51:06.781Z</time></trkpt><trkpt lat="37.6347433" lon="14.8923467"><ele>541.0</ele><time>2026-03-22T09:51:07.782Z</time></trkpt><trkpt lat="37.6348867" lon="14.89223"><ele>541.0</ele><time>2026-03-22T09:51:08.782Z</time></trkpt><trkpt lat="37.6350317" lon="14.8921117"><ele>541.0</ele><time>2026-03-22T09:51:09.782Z</time></trkpt><trkpt lat="37.6351633" lon="14.892"><ele>541.0</ele><time>2026-03-22T09:51:10.782Z</time></trkpt><trkpt lat="37.6353" lon="14.891885"><ele>543.0</ele><time>2026-03-22T09:51:11.781Z</time></trkpt><trkpt lat="37.6354433" lon="14.89177"><ele>545.0</ele><time>2026-03-22T09:51:12.781Z</time></trkpt><trkpt lat="37.6355767" lon="14.8916517"><ele>547.0</ele><time>2026-03-22T09:51:13.782Z</time></trkpt><trkpt lat="37.6357133" lon="14.8915433"><ele>547.0</ele><time>2026-03-22T09:51:14.782Z</time></trkpt><trkpt lat="37.6358467" lon="14.8914267"><ele>547.0</ele><time>2026-03-22T09:51:15.781Z</time></trkpt><trkpt lat="37.63598" lon="14.8913133"><ele>547.0</ele><time>2026-03-22T09:51:16.782Z</time></trkpt><trkpt lat="37.6361183" lon="14.8912017"><ele>546.3333333333334</ele><time>2026-03-22T09:51:17.781Z</time></trkpt><trkpt lat="37.6362533" lon="14.8910917"><ele>545.6666666666666</ele><time>2026-03-22T09:51:18.782Z</time></trkpt><trkpt lat="37.6363833" lon="14.890985"><ele>545.0</ele><time>2026-03-22T09:51:19.781Z</time></trkpt><trkpt lat="37.6365133" lon="14.89088"><ele>545.0</ele><time>2026-03-22T09:51:20.782Z</time></trkpt><trkpt lat="37.636645" lon="14.8907783"><ele>545.0</ele><time>2026-03-22T09:51:21.782Z</time></trkpt><trkpt lat="37.63677" lon="14.890675"><ele>545.0</ele><time>2026-03-22T09:51:22.781Z</time></trkpt><trkpt lat="37.636895" lon="14.8905667"><ele>548.0</ele><time>2026-03-22T09:51:23.781Z</time></trkpt><trkpt lat="37.6370267" lon="14.89046"><ele>551.0</ele><time>2026-03-22T09:51:24.781Z</time></trkpt><trkpt lat="37.6371583" lon="14.890355"><ele>554.0</ele><time>2026-03-22T09:51:25.782Z</time></trkpt><trkpt lat="37.6372817" lon="14.8902467"><ele>554.0</ele><time>2026-03-22T09:51:26.781Z</time></trkpt><trkpt lat="37.6374083" lon="14.8901367"><ele>554.0</ele><time>2026-03-22T09:51:27.782Z</time></trkpt><trkpt lat="37.6375333" lon="14.89003"><ele>554.0</ele><time>2026-03-22T09:51:28.782Z</time></trkpt><trkpt lat="37.637655" lon="14.889925"><ele>553.5</ele><time>2026-03-22T09:51:29.781Z</time></trkpt><trkpt lat="37.6377733" lon="14.8898267"><ele>553.0</ele><time>2026-03-22T09:51:30.782Z</time></trkpt><trkpt lat="37.637895" lon="14.889725"><ele>552.5</ele><time>2026-03-22T09:51:31.782Z</time></trkpt><trkpt lat="37.63802" lon="14.88962"><ele>552.0</ele><time>2026-03-22T09:51:32.782Z</time></trkpt><trkpt lat="37.6381433" lon="14.8895183"><ele>552.0</ele><time>2026-03-22T09:51:33.781Z</time></trkpt><trkpt lat="37.6382633" lon="14.8894167"><ele>552.0</ele><time>2026-03-22T09:51:34.781Z</time></trkpt><trkpt lat="37.63838" lon="14.8893183"><ele>552.0</ele><time>2026-03-22T09:51:35.781Z</time></trkpt><trkpt lat="37.6384983" lon="14.88922"><ele>552.0</ele><time>2026-03-22T09:51:36.782Z</time></trkpt><trkpt lat="37.6386183" lon="14.889125"><ele>552.25</ele><time>2026-03-22T09:51:37.782Z</time></trkpt><trkpt lat="37.6387367" lon="14.889025"><ele>552.5</ele><time>2026-03-22T09:51:38.782Z</time></trkpt><trkpt lat="37.638855" lon="14.8889233"><ele>552.75</ele><time>2026-03-22T09:51:39.781Z</time></trkpt><trkpt lat="37.63898" lon="14.8888183"><ele>553.0</ele><time>2026-03-22T09:51:40.782Z</time></trkpt><trkpt lat="37.6391083" lon="14.88872"><ele>553.0</ele><time>2026-03-22T09:51:41.781Z</time></trkpt><trkpt lat="37.63923" lon="14.8886167"><ele>553.0</ele><time>2026-03-22T09:51:42.781Z</time></trkpt><trkpt lat="37.6393467" lon="14.8885233"><ele>553.0</ele><time>2026-03-22T09:51:43.782Z</time></trkpt><trkpt lat="37.6394683" lon="14.8884233"><ele>553.0</ele><time>2026-03-22T09:51:44.781Z</time></trkpt><trkpt lat="37.63959" lon="14.8883217"><ele>553.6666666666667</ele><time>2026-03-22T09:51:45.782Z</time></trkpt><trkpt lat="37.6397133" lon="14.8882183"><ele>554.3333333333334</ele><time>2026-03-22T09:51:46.781Z</time></trkpt><trkpt lat="37.6398333" lon="14.8881083"><ele>555.0</ele><time>2026-03-22T09:51:47.782Z</time></trkpt><trkpt lat="37.6399617" lon="14.8880017"><ele>555.0</ele><time>2026-03-22T09:51:48.782Z</time></trkpt><trkpt lat="37.64009" lon="14.887895"><ele>555.0</ele><time>2026-03-22T09:51:49.781Z</time></trkpt><trkpt lat="37.6402133" lon="14.8877917"><ele>555.0</ele><time>2026-03-22T09:51:50.782Z</time></trkpt><trkpt lat="37.6403383" lon="14.8876883"><ele>556.0</ele><time>2026-03-22T09:51:51.782Z</time></trkpt><trkpt lat="37.6404517" lon="14.88759"><ele>557.0</ele><time>2026-03-22T09:51:52.781Z</time></trkpt><trkpt lat="37.64057" lon="14.8874933"><ele>558.0</ele><time>2026-03-22T09:51:53.782Z</time></trkpt><trkpt lat="37.6406933" lon="14.88739"><ele>559.0</ele><time>2026-03-22T09:51:54.782Z</time></trkpt><trkpt lat="37.640825" lon="14.88728"><ele>559.0</ele><time>2026-03-22T09:51:55.781Z</time></trkpt><trkpt lat="37.6409567" lon="14.8871683"><ele>559.0</ele><time>2026-03-22T09:51:56.782Z</time></trkpt><trkpt lat="37.6410833" lon="14.8870583"><ele>559.0</ele><time>2026-03-22T09:51:57.781Z</time></trkpt><trkpt lat="37.6412133" lon="14.88695"><ele>561.0</ele><time>2026-03-22T09:51:58.781Z</time></trkpt><trkpt lat="37.64134" lon="14.8868417"><ele>563.0</ele><time>2026-03-22T09:51:59.782Z</time></trkpt><trkpt lat="37.641465" lon="14.8867367"><ele>565.0</ele><time>2026-03-22T09:52:00.782Z</time></trkpt><trkpt lat="37.6415883" lon="14.8866283"><ele>565.0</ele><time>2026-03-22T09:52:01.782Z</time></trkpt><trkpt lat="37.6417083" lon="14.886525"><ele>565.0</ele><time>2026-03-22T09:52:02.781Z</time></trkpt><trkpt lat="37.64183" lon="14.8864267"><ele>565.0</ele><time>2026-03-22T09:52:03.782Z</time></trkpt><trkpt lat="37.6419533" lon="14.8863283"><ele>565.0</ele><time>2026-03-22T09:52:04.782Z</time></trkpt><trkpt lat="37.6420767" lon="14.886215"><ele>566.0</ele><time>2026-03-22T09:52:05.781Z</time></trkpt><trkpt lat="37.6422033" lon="14.8861067"><ele>567.0</ele><time>2026-03-22T09:52:06.781Z</time></trkpt><trkpt lat="37.64233" lon="14.8860033"><ele>568.0</ele><time>2026-03-22T09:52:07.781Z</time></trkpt><trkpt lat="37.64246" lon="14.8858967"><ele>568.0</ele><time>2026-03-22T09:52:08.781Z</time></trkpt><trkpt lat="37.6425883" lon="14.885785"><ele>568.0</ele><time>2026-03-22T09:52:09.782Z</time></trkpt><trkpt lat="37.6427167" lon="14.885675"><ele>568.0</ele><time>2026-03-22T09:52:10.781Z</time></trkpt><trkpt lat="37.64284" lon="14.8855717"><ele>569.0</ele><time>2026-03-22T09:52:11.781Z</time></trkpt><trkpt lat="37.642965" lon="14.88547"><ele>570.0</ele><time>2026-03-22T09:52:12.782Z</time></trkpt><trkpt lat="37.6430833" lon="14.8853667"><ele>571.0</ele><time>2026-03-22T09:52:13.781Z</time></trkpt><trkpt lat="37.643205" lon="14.8852667"><ele>572.0</ele><time>2026-03-22T09:52:14.781Z</time></trkpt><trkpt lat="37.6433317" lon="14.8851633"><ele>572.6666666666666</ele><time>2026-03-22T09:52:15.781Z</time></trkpt><trkpt lat="37.64346" lon="14.8850583"><ele>573.3333333333334</ele><time>2026-03-22T09:52:16.781Z</time></trkpt><trkpt lat="37.6435833" lon="14.88495"><ele>574.0</ele><time>2026-03-22T09:52:17.782Z</time></trkpt><trkpt lat="37.6437083" lon="14.8848467"><ele>574.0</ele><time>2026-03-22T09:52:18.782Z</time></trkpt><trkpt lat="37.64383" lon="14.8847367"><ele>574.0</ele><time>2026-03-22T09:52:19.781Z</time></trkpt><trkpt lat="37.643955" lon="14.8846267"><ele>574.0</ele><time>2026-03-22T09:52:20.782Z</time></trkpt><trkpt lat="37.6440833" lon="14.88452"><ele>574.0</ele><time>2026-03-22T09:52:21.781Z</time></trkpt><trkpt lat="37.6442083" lon="14.8844133"><ele>574.0</ele><time>2026-03-22T09:52:22.781Z</time></trkpt><trkpt lat="37.6443333" lon="14.8843033"><ele>574.0</ele><time>2026-03-22T09:52:23.781Z</time></trkpt><trkpt lat="37.644455" lon="14.8841983"><ele>576.25</ele><time>2026-03-22T09:52:24.781Z</time></trkpt><trkpt lat="37.6445767" lon="14.8840983"><ele>578.5</ele><time>2026-03-22T09:52:25.781Z</time></trkpt><trkpt lat="37.644695" lon="14.8839933"><ele>580.75</ele><time>2026-03-22T09:52:26.781Z</time></trkpt><trkpt lat="37.6448183" lon="14.8838917"><ele>583.0</ele><time>2026-03-22T09:52:27.781Z</time></trkpt><trkpt lat="37.644945" lon="14.8837867"><ele>583.0</ele><time>2026-03-22T09:52:28.782Z</time></trkpt><trkpt lat="37.6450683" lon="14.88368"><ele>583.0</ele><time>2026-03-22T09:52:29.782Z</time></trkpt><trkpt lat="37.6451967" lon="14.88357"><ele>583.0</ele><time>2026-03-22T09:52:30.782Z</time></trkpt><trkpt lat="37.6453217" lon="14.88346"><ele>585.6666666666667</ele><time>2026-03-22T09:52:31.782Z</time></trkpt><trkpt lat="37.6454483" lon="14.8833483"><ele>588.3333333333334</ele><time>2026-03-22T09:52:32.782Z</time></trkpt><trkpt lat="37.6455783" lon="14.8832383"><ele>591.0</ele><time>2026-03-22T09:52:33.781Z</time></trkpt><trkpt lat="37.645715" lon="14.8831217"><ele>591.0</ele><time>2026-03-22T09:52:34.781Z</time></trkpt><trkpt lat="37.64585" lon="14.8829983"><ele>591.0</ele><time>2026-03-22T09:52:35.781Z</time></trkpt><trkpt lat="37.6459983" lon="14.8828733"><ele>591.0</ele><time>2026-03-22T09:52:36.782Z</time></trkpt><trkpt lat="37.64615" lon="14.88275"><ele>592.6666666666666</ele><time>2026-03-22T09:52:37.782Z</time></trkpt><trkpt lat="37.6462983" lon="14.8826167"><ele>594.3333333333333</ele><time>2026-03-22T09:52:38.781Z</time></trkpt><trkpt lat="37.6464533" lon="14.8824833"><ele>596.0</ele><time>2026-03-22T09:52:39.781Z</time></trkpt><trkpt lat="37.6466083" lon="14.8823517"><ele>596.0</ele><time>2026-03-22T09:52:40.781Z</time></trkpt><trkpt lat="37.6467667" lon="14.8822167"><ele>596.0</ele><time>2026-03-22T09:52:41.781Z</time></trkpt><trkpt lat="37.646925" lon="14.8820833"><ele>596.0</ele><time>2026-03-22T09:52:42.781Z</time></trkpt><trkpt lat="37.64709" lon="14.8819383"><ele>598.0</ele><time>2026-03-22T09:52:43.781Z</time></trkpt><trkpt lat="37.647255" lon="14.8817983"><ele>600.0</ele><time>2026-03-22T09:52:44.781Z</time></trkpt><trkpt lat="37.6474217" lon="14.881665"><ele>602.0</ele><time>2026-03-22T09:52:45.782Z</time></trkpt><trkpt lat="37.6475917" lon="14.881525"><ele>602.0</ele><time>2026-03-22T09:52:46.781Z</time></trkpt><trkpt lat="37.6477583" lon="14.8813867"><ele>602.0</ele><time>2026-03-22T09:52:47.781Z</time></trkpt><trkpt lat="37.6479217" lon="14.8812467"><ele>602.0</ele><time>2026-03-22T09:52:48.781Z</time></trkpt><trkpt lat="37.64808" lon="14.8811033"><ele>603.3333333333333</ele><time>2026-03-22T09:52:49.782Z</time></trkpt><trkpt lat="37.6482467" lon="14.8809583"><ele>604.6666666666666</ele><time>2026-03-22T09:52:50.781Z</time></trkpt><trkpt lat="37.6484217" lon="14.8808133"><ele>606.0</ele><time>2026-03-22T09:52:51.781Z</time></trkpt><trkpt lat="37.6485917" lon="14.8806667"><ele>605.0</ele><time>2026-03-22T09:52:52.782Z</time></trkpt><trkpt lat="37.6487633" lon="14.880525"><ele>604.0</ele><time>2026-03-22T09:52:53.782Z</time></trkpt><trkpt lat="37.648935" lon="14.8803817"><ele>603.0</ele><time>2026-03-22T09:52:54.781Z</time></trkpt><trkpt lat="37.6490983" lon="14.8802267"><ele>604.3333333333334</ele><time>2026-03-22T09:52:55.782Z</time></trkpt><trkpt lat="37.6492667" lon="14.8800783"><ele>605.6666666666667</ele><time>2026-03-22T09:52:56.782Z</time></trkpt><trkpt lat="37.6494383" lon="14.8799367"><ele>607.0</ele><time>2026-03-22T09:52:57.781Z</time></trkpt><trkpt lat="37.6496133" lon="14.8797917"><ele>609.0</ele><time>2026-03-22T09:52:58.781Z</time></trkpt><trkpt lat="37.649795" lon="14.8796383"><ele>611.0</ele><time>2026-03-22T09:52:59.781Z</time></trkpt><trkpt lat="37.6499767" lon="14.879495"><ele>613.0</ele><time>2026-03-22T09:53:00.781Z</time></trkpt><trkpt lat="37.6501583" lon="14.8793367"><ele>612.3333333333334</ele><time>2026-03-22T09:53:01.781Z</time></trkpt><trkpt lat="37.65034" lon="14.8791817"><ele>611.6666666666666</ele><time>2026-03-22T09:53:02.782Z</time></trkpt><trkpt lat="37.6505167" lon="14.87903"><ele>611.0</ele><time>2026-03-22T09:53:03.782Z</time></trkpt><trkpt lat="37.65069" lon="14.87888"><ele>611.0</ele><time>2026-03-22T09:53:04.782Z</time></trkpt><trkpt lat="37.6508567" lon="14.878735"><ele>611.0</ele><time>2026-03-22T09:53:05.782Z</time></trkpt><trkpt lat="37.65102" lon="14.878595"><ele>611.0</ele><time>2026-03-22T09:53:06.781Z</time></trkpt><trkpt lat="37.65117" lon="14.87847"><ele>612.6666666666666</ele><time>2026-03-22T09:53:07.781Z</time></trkpt><trkpt lat="37.651315" lon="14.8783517"><ele>614.3333333333334</ele><time>2026-03-22T09:53:08.782Z</time></trkpt><trkpt lat="37.65146" lon="14.8782283"><ele>616.0</ele><time>2026-03-22T09:53:09.781Z</time></trkpt><trkpt lat="37.651605" lon="14.878105"><ele>616.0</ele><time>2026-03-22T09:53:10.781Z</time></trkpt><trkpt lat="37.6517533" lon="14.87798"><ele>616.0</ele><time>2026-03-22T09:53:11.782Z</time></trkpt><trkpt lat="37.6519017" lon="14.8778467"><ele>616.0</ele><time>2026-03-22T09:53:12.782Z</time></trkpt><trkpt lat="37.652045" lon="14.87771"><ele>616.3333333333334</ele><time>2026-03-22T09:53:13.782Z</time></trkpt><trkpt lat="37.6521783" lon="14.87756"><ele>616.6666666666666</ele><time>2026-03-22T09:53:14.782Z</time></trkpt><trkpt lat="37.652305" lon="14.877395"><ele>617.0</ele><time>2026-03-22T09:53:15.782Z</time></trkpt><trkpt lat="37.652425" lon="14.8772317"><ele>617.0</ele><time>2026-03-22T09:53:16.781Z</time></trkpt><trkpt lat="37.6525383" lon="14.8770617"><ele>617.0</ele><time>2026-03-22T09:53:17.781Z</time></trkpt><trkpt lat="37.6526483" lon="14.8768833"><ele>617.0</ele><time>2026-03-22T09:53:18.781Z</time></trkpt><trkpt lat="37.6527567" lon="14.8766967"><ele>618.0</ele><time>2026-03-22T09:53:19.782Z</time></trkpt><trkpt lat="37.652865" lon="14.8764967"><ele>619.0</ele><time>2026-03-22T09:53:20.781Z</time></trkpt><trkpt lat="37.6529683" lon="14.8762883"><ele>620.0</ele><time>2026-03-22T09:53:21.782Z</time></trkpt><trkpt lat="37.6530733" lon="14.876075"><ele>619.6666666666666</ele><time>2026-03-22T09:53:22.781Z</time></trkpt><trkpt lat="37.65318" lon="14.8758567"><ele>619.3333333333334</ele><time>2026-03-22T09:53:23.781Z</time></trkpt><trkpt lat="37.6532867" lon="14.8756333"><ele>619.0</ele><time>2026-03-22T09:53:24.782Z</time></trkpt><trkpt lat="37.6534" lon="14.8754017"><ele>619.0</ele><time>2026-03-22T09:53:25.782Z</time></trkpt><trkpt lat="37.653515" lon="14.87517"><ele>619.0</ele><time>2026-03-22T09:53:26.781Z</time></trkpt><trkpt lat="37.65363" lon="14.8749333"><ele>619.0</ele><time>2026-03-22T09:53:27.781Z</time></trkpt><trkpt lat="37.6537483" lon="14.8746933"><ele>619.0</ele><time>2026-03-22T09:53:28.782Z</time></trkpt><trkpt lat="37.6538667" lon="14.8744433"><ele>619.0</ele><time>2026-03-22T09:53:29.781Z</time></trkpt><trkpt lat="37.6539883" lon="14.8741933"><ele>616.5</ele><time>2026-03-22T09:53:30.781Z</time></trkpt><trkpt lat="37.65411" lon="14.87394"><ele>614.0</ele><time>2026-03-22T09:53:31.781Z</time></trkpt><trkpt lat="37.6542383" lon="14.8736833"><ele>613.5</ele><time>2026-03-22T09:53:32.782Z</time></trkpt><trkpt lat="37.6543683" lon="14.8734283"><ele>613.0</ele><time>2026-03-22T09:53:33.781Z</time></trkpt><trkpt lat="37.6544983" lon="14.8731667"><ele>615.5</ele><time>2026-03-22T09:53:34.781Z</time></trkpt><trkpt lat="37.654625" lon="14.872905"><ele>618.0</ele><time>2026-03-22T09:53:35.781Z</time></trkpt><trkpt lat="37.654755" lon="14.872645"><ele>617.0</ele><time>2026-03-22T09:53:36.781Z</time></trkpt><trkpt lat="37.6548883" lon="14.8723817"><ele>616.0</ele><time>2026-03-22T09:53:37.781Z</time></trkpt><trkpt lat="37.6550217" lon="14.8721217"><ele>616.0</ele><time>2026-03-22T09:53:38.782Z</time></trkpt><trkpt lat="37.6551583" lon="14.8718633"><ele>616.0</ele><time>2026-03-22T09:53:39.782Z</time></trkpt><trkpt lat="37.6552933" lon="14.8716017"><ele>615.5</ele><time>2026-03-22T09:53:40.782Z</time></trkpt><trkpt lat="37.6554233" lon="14.8713383"><ele>615.0</ele><time>2026-03-22T09:53:41.782Z</time></trkpt><trkpt lat="37.6555467" lon="14.8710783"><ele>615.0</ele><time>2026-03-22T09:53:42.782Z</time></trkpt><trkpt lat="37.6556733" lon="14.870815"><ele>615.0</ele><time>2026-03-22T09:53:43.782Z</time></trkpt><trkpt lat="37.6557983" lon="14.8705583"><ele>615.0</ele><time>2026-03-22T09:53:44.782Z</time></trkpt><trkpt lat="37.65592" lon="14.8702967"><ele>615.0</ele><time>2026-03-22T09:53:45.781Z</time></trkpt><trkpt lat="37.6560433" lon="14.87004"><ele>620.0</ele><time>2026-03-22T09:53:46.782Z</time></trkpt><trkpt lat="37.656175" lon="14.8697867"><ele>625.0</ele><time>2026-03-22T09:53:47.781Z</time></trkpt><trkpt lat="37.6563117" lon="14.8695417"><ele>625.0</ele><time>2026-03-22T09:53:48.782Z</time></trkpt><trkpt lat="37.656455" lon="14.8693083"><ele>625.0</ele><time>2026-03-22T09:53:49.781Z</time></trkpt><trkpt lat="37.65661" lon="14.8690883"><ele>626.5</ele><time>2026-03-22T09:53:50.781Z</time></trkpt><trkpt lat="37.6567817" lon="14.8688933"><ele>628.0</ele><time>2026-03-22T09:53:51.782Z</time></trkpt><trkpt lat="37.656965" lon="14.8687117"><ele>628.0</ele><time>2026-03-22T09:53:52.781Z</time></trkpt><trkpt lat="37.6571617" lon="14.8685467"><ele>628.0</ele><time>2026-03-22T09:53:53.781Z</time></trkpt><trkpt lat="37.657365" lon="14.8683983"><ele>629.0</ele><time>2026-03-22T09:53:54.781Z</time></trkpt><trkpt lat="37.657575" lon="14.8682733"><ele>630.0</ele><time>2026-03-22T09:53:55.781Z</time></trkpt><trkpt lat="37.6577883" lon="14.86817"><ele>630.0</ele><time>2026-03-22T09:53:56.781Z</time></trkpt><trkpt lat="37.6580083" lon="14.86807"><ele>630.0</ele><time>2026-03-22T09:53:57.781Z</time></trkpt><trkpt lat="37.6582283" lon="14.8679783"><ele>630.0</ele><time>2026-03-22T09:53:58.782Z</time></trkpt><trkpt lat="37.6584483" lon="14.8678833"><ele>630.0</ele><time>2026-03-22T09:53:59.781Z</time></trkpt><trkpt lat="37.6586733" lon="14.8677817"><ele>629.5</ele><time>2026-03-22T09:54:00.782Z</time></trkpt><trkpt lat="37.6589017" lon="14.867685"><ele>629.0</ele><time>2026-03-22T09:54:01.782Z</time></trkpt><trkpt lat="37.6591317" lon="14.8675933"><ele>629.0</ele><time>2026-03-22T09:54:02.781Z</time></trkpt><trkpt lat="37.659365" lon="14.8674983"><ele>629.0</ele><time>2026-03-22T09:54:03.782Z</time></trkpt><trkpt lat="37.659595" lon="14.8674"><ele>628.5</ele><time>2026-03-22T09:54:04.781Z</time></trkpt><trkpt lat="37.6598283" lon="14.867315"><ele>628.0</ele><time>2026-03-22T09:54:05.782Z</time></trkpt><trkpt lat="37.6600536" lon="14.8672141"><ele>628.0</ele><time>2026-03-22T09:54:06.782Z</time></trkpt><trkpt lat="37.6602812" lon="14.8671198"><ele>628.0</ele><time>2026-03-22T09:54:07.781Z</time></trkpt><trkpt lat="37.6605039" lon="14.8670304"><ele>629.6666666666667</ele><time>2026-03-22T09:54:08.782Z</time></trkpt><trkpt lat="37.6607164" lon="14.8669452"><ele>631.3333333333334</ele><time>2026-03-22T09:54:09.781Z</time></trkpt><trkpt lat="37.6609185" lon="14.8668681"><ele>633.0</ele><time>2026-03-22T09:54:10.781Z</time></trkpt><trkpt lat="37.6611056" lon="14.8667906"><ele>632.0</ele><time>2026-03-22T09:54:11.781Z</time></trkpt><trkpt lat="37.6612753" lon="14.8667144"><ele>631.0</ele><time>2026-03-22T09:54:12.781Z</time></trkpt><trkpt lat="37.6614391" lon="14.866632"><ele>630.0</ele><time>2026-03-22T09:54:13.781Z</time></trkpt><trkpt lat="37.6616002" lon="14.8665362"><ele>630.0</ele><time>2026-03-22T09:54:14.781Z</time></trkpt><trkpt lat="37.6617634" lon="14.866423"><ele>630.0</ele><time>2026-03-22T09:54:15.781Z</time></trkpt><trkpt lat="37.661922" lon="14.8662838"><ele>630.0</ele><time>2026-03-22T09:54:16.781Z</time></trkpt><trkpt lat="37.6620696" lon="14.8661202"><ele>629.0</ele><time>2026-03-22T09:54:17.781Z</time></trkpt><trkpt lat="37.6622106" lon="14.865938"><ele>628.0</ele><time>2026-03-22T09:54:18.782Z</time></trkpt><trkpt lat="37.662342" lon="14.8657364"><ele>627.0</ele><time>2026-03-22T09:54:19.781Z</time></trkpt><trkpt lat="37.66246" lon="14.8655195"><ele>627.0</ele><time>2026-03-22T09:54:20.782Z</time></trkpt><trkpt lat="37.6625673" lon="14.8652878"><ele>627.0</ele><time>2026-03-22T09:54:21.781Z</time></trkpt><trkpt lat="37.6626699" lon="14.8650519"><ele>627.0</ele><time>2026-03-22T09:54:22.782Z</time></trkpt><trkpt lat="37.6627724" lon="14.8648142"><ele>627.6666666666666</ele><time>2026-03-22T09:54:23.782Z</time></trkpt><trkpt lat="37.6628804" lon="14.8645739"><ele>628.3333333333333</ele><time>2026-03-22T09:54:24.781Z</time></trkpt><trkpt lat="37.6629923" lon="14.8643323"><ele>629.0</ele><time>2026-03-22T09:54:25.782Z</time></trkpt><trkpt lat="37.6631045" lon="14.8640886"><ele>629.0</ele><time>2026-03-22T09:54:26.781Z</time></trkpt><trkpt lat="37.663219" lon="14.863842"><ele>629.0</ele><time>2026-03-22T09:54:27.781Z</time></trkpt><trkpt lat="37.6633296" lon="14.8635907"><ele>628.0</ele><time>2026-03-22T09:54:28.781Z</time></trkpt><trkpt lat="37.6634412" lon="14.8633374"><ele>627.0</ele><time>2026-03-22T09:54:29.782Z</time></trkpt><trkpt lat="37.663552" lon="14.8630835"><ele>628.6666666666666</ele><time>2026-03-22T09:54:30.782Z</time></trkpt><trkpt lat="37.6636653" lon="14.8628376"><ele>630.3333333333333</ele><time>2026-03-22T09:54:31.781Z</time></trkpt><trkpt lat="37.663777" lon="14.8625932"><ele>632.0</ele><time>2026-03-22T09:54:32.782Z</time></trkpt><trkpt lat="37.6638889" lon="14.8623469"><ele>632.0</ele><time>2026-03-22T09:54:33.782Z</time></trkpt><trkpt lat="37.6639994" lon="14.8621005"><ele>632.0</ele><time>2026-03-22T09:54:34.781Z</time></trkpt><trkpt lat="37.6641106" lon="14.8618555"><ele>632.0</ele><time>2026-03-22T09:54:35.781Z</time></trkpt><trkpt lat="37.6642182" lon="14.861616"><ele>633.0</ele><time>2026-03-22T09:54:36.781Z</time></trkpt><trkpt lat="37.664327" lon="14.8613783"><ele>634.0</ele><time>2026-03-22T09:54:37.782Z</time></trkpt><trkpt lat="37.6644296" lon="14.8611406"><ele>635.0</ele><time>2026-03-22T09:54:38.781Z</time></trkpt><trkpt lat="37.664537" lon="14.8609054"><ele>635.0</ele><time>2026-03-22T09:54:39.782Z</time></trkpt><trkpt lat="37.6646456" lon="14.860676"><ele>635.0</ele><time>2026-03-22T09:54:40.781Z</time></trkpt><trkpt lat="37.6647561" lon="14.8604434"><ele>635.0</ele><time>2026-03-22T09:54:41.782Z</time></trkpt><trkpt lat="37.6648609" lon="14.8602097"><ele>635.0</ele><time>2026-03-22T09:54:42.781Z</time></trkpt><trkpt lat="37.6649659" lon="14.8599747"><ele>635.0</ele><time>2026-03-22T09:54:43.781Z</time></trkpt><trkpt lat="37.665071" lon="14.8597408"><ele>635.0</ele><time>2026-03-22T09:54:44.782Z</time></trkpt><trkpt lat="37.665177" lon="14.8595097"><ele>636.6666666666666</ele><time>2026-03-22T09:54:45.781Z</time></trkpt><trkpt lat="37.665281" lon="14.8592811"><ele>638.3333333333334</ele><time>2026-03-22T09:54:46.782Z</time></trkpt><trkpt lat="37.6653821" lon="14.8590461"><ele>640.0</ele><time>2026-03-22T09:54:47.782Z</time></trkpt><trkpt lat="37.665485" lon="14.8588094"><ele>640.0</ele><time>2026-03-22T09:54:48.781Z</time></trkpt><trkpt lat="37.6655961" lon="14.8585762"><ele>640.0</ele><time>2026-03-22T09:54:49.782Z</time></trkpt><trkpt lat="37.6657099" lon="14.8583357"><ele>640.0</ele><time>2026-03-22T09:54:50.781Z</time></trkpt><trkpt lat="37.6658239" lon="14.8580911"><ele>637.5</ele><time>2026-03-22T09:54:51.782Z</time></trkpt><trkpt lat="37.6659376" lon="14.8578457"><ele>635.0</ele><time>2026-03-22T09:54:52.782Z</time></trkpt><trkpt lat="37.6660492" lon="14.8575964"><ele>637.0</ele><time>2026-03-22T09:54:53.782Z</time></trkpt><trkpt lat="37.6661622" lon="14.8573459"><ele>639.0</ele><time>2026-03-22T09:54:54.782Z</time></trkpt><trkpt lat="37.666278" lon="14.8570928"><ele>639.0</ele><time>2026-03-22T09:54:55.782Z</time></trkpt><trkpt lat="37.6663936" lon="14.8568378"><ele>639.0</ele><time>2026-03-22T09:54:56.782Z</time></trkpt><trkpt lat="37.6665125" lon="14.8565827"><ele>639.0</ele><time>2026-03-22T09:54:57.781Z</time></trkpt><trkpt lat="37.6666397" lon="14.8563272"><ele>639.0</ele><time>2026-03-22T09:54:58.781Z</time></trkpt><trkpt lat="37.6667735" lon="14.8560767"><ele>640.5</ele><time>2026-03-22T09:54:59.782Z</time></trkpt><trkpt lat="37.6669176" lon="14.85583"><ele>642.0</ele><time>2026-03-22T09:55:00.782Z</time></trkpt><trkpt lat="37.6670694" lon="14.8555844"><ele>642.0</ele><time>2026-03-22T09:55:01.781Z</time></trkpt><trkpt lat="37.667227" lon="14.8553434"><ele>642.0</ele><time>2026-03-22T09:55:02.782Z</time></trkpt><trkpt lat="37.6673854" lon="14.8551022"><ele>636.5</ele><time>2026-03-22T09:55:03.781Z</time></trkpt><trkpt lat="37.6675477" lon="14.8548613"><ele>631.0</ele><time>2026-03-22T09:55:04.782Z</time></trkpt><trkpt lat="37.6677087" lon="14.8546183"><ele>630.0</ele><time>2026-03-22T09:55:05.781Z</time></trkpt><trkpt lat="37.6678705" lon="14.8543712"><ele>629.0</ele><time>2026-03-22T09:55:06.781Z</time></trkpt><trkpt lat="37.6680324" lon="14.8541228"><ele>629.0</ele><time>2026-03-22T09:55:07.781Z</time></trkpt><trkpt lat="37.6681967" lon="14.8538717"><ele>629.0</ele><time>2026-03-22T09:55:08.782Z</time></trkpt><trkpt lat="37.668363" lon="14.8536231"><ele>629.0</ele><time>2026-03-22T09:55:09.781Z</time></trkpt><trkpt lat="37.6685297" lon="14.8533721"><ele>629.0</ele><time>2026-03-22T09:55:10.782Z</time></trkpt><trkpt lat="37.6686966" lon="14.8531205"><ele>629.0</ele><time>2026-03-22T09:55:11.782Z</time></trkpt><trkpt lat="37.6688588" lon="14.8528771"><ele>629.0</ele><time>2026-03-22T09:55:12.782Z</time></trkpt><trkpt lat="37.6690173" lon="14.8526389"><ele>628.0</ele><time>2026-03-22T09:55:13.781Z</time></trkpt><trkpt lat="37.6691731" lon="14.8524071"><ele>627.0</ele><time>2026-03-22T09:55:14.781Z</time></trkpt><trkpt lat="37.6693212" lon="14.852181"><ele>629.3333333333334</ele><time>2026-03-22T09:55:15.781Z</time></trkpt><trkpt lat="37.6694625" lon="14.8519684"><ele>631.6666666666667</ele><time>2026-03-22T09:55:16.781Z</time></trkpt><trkpt lat="37.6695981" lon="14.8517674"><ele>634.0</ele><time>2026-03-22T09:55:17.782Z</time></trkpt><trkpt lat="37.6697357" lon="14.8515713"><ele>634.3333333333334</ele><time>2026-03-22T09:55:18.781Z</time></trkpt><trkpt lat="37.6698725" lon="14.8513704"><ele>634.6666666666666</ele><time>2026-03-22T09:55:19.782Z</time></trkpt><trkpt lat="37.6700071" lon="14.8511678"><ele>635.0</ele><time>2026-03-22T09:55:20.781Z</time></trkpt><trkpt lat="37.6701454" lon="14.8509659"><ele>637.3333333333333</ele><time>2026-03-22T09:55:21.782Z</time></trkpt><trkpt lat="37.6702767" lon="14.8507629"><ele>639.6666666666666</ele><time>2026-03-22T09:55:22.782Z</time></trkpt><trkpt lat="37.6704098" lon="14.8505588"><ele>642.0</ele><time>2026-03-22T09:55:23.781Z</time></trkpt><trkpt lat="37.6705453" lon="14.8503518"><ele>642.0</ele><time>2026-03-22T09:55:24.781Z</time></trkpt><trkpt lat="37.6706807" lon="14.8501446"><ele>642.0</ele><time>2026-03-22T09:55:25.782Z</time></trkpt><trkpt lat="37.6708183" lon="14.8499364"><ele>642.0</ele><time>2026-03-22T09:55:26.782Z</time></trkpt><trkpt lat="37.6709552" lon="14.8497281"><ele>642.0</ele><time>2026-03-22T09:55:27.781Z</time></trkpt><trkpt lat="37.6710931" lon="14.8495221"><ele>642.0</ele><time>2026-03-22T09:55:28.782Z</time></trkpt><trkpt lat="37.6712306" lon="14.8493127"><ele>642.0</ele><time>2026-03-22T09:55:29.782Z</time></trkpt><trkpt lat="37.6713666" lon="14.8491014"><ele>643.3333333333334</ele><time>2026-03-22T09:55:30.781Z</time></trkpt><trkpt lat="37.6715054" lon="14.8488909"><ele>644.6666666666667</ele><time>2026-03-22T09:55:31.781Z</time></trkpt><trkpt lat="37.6716416" lon="14.8486855"><ele>646.0</ele><time>2026-03-22T09:55:32.781Z</time></trkpt><trkpt lat="37.6717772" lon="14.8484916"><ele>644.6666666666667</ele><time>2026-03-22T09:55:33.781Z</time></trkpt><trkpt lat="37.6719086" lon="14.8482937"><ele>643.3333333333334</ele><time>2026-03-22T09:55:34.781Z</time></trkpt><trkpt lat="37.6720383" lon="14.8480883"><ele>642.0</ele><time>2026-03-22T09:55:35.781Z</time></trkpt><trkpt lat="37.6721617" lon="14.8478733"><ele>642.0</ele><time>2026-03-22T09:55:36.782Z</time></trkpt><trkpt lat="37.6722783" lon="14.8476517"><ele>642.0</ele><time>2026-03-22T09:55:37.782Z</time></trkpt><trkpt lat="37.6723917" lon="14.8474283"><ele>642.0</ele><time>2026-03-22T09:55:38.782Z</time></trkpt><trkpt lat="37.6725" lon="14.8471917"><ele>641.3333333333334</ele><time>2026-03-22T09:55:39.781Z</time></trkpt><trkpt lat="37.6725983" lon="14.8469467"><ele>640.6666666666667</ele><time>2026-03-22T09:55:40.782Z</time></trkpt><trkpt lat="37.6726933" lon="14.8466917"><ele>640.0</ele><time>2026-03-22T09:55:41.781Z</time></trkpt><trkpt lat="37.6727817" lon="14.8464267"><ele>640.0</ele><time>2026-03-22T09:55:42.783Z</time></trkpt><trkpt lat="37.672865" lon="14.8461533"><ele>640.0</ele><time>2026-03-22T09:55:43.782Z</time></trkpt><trkpt lat="37.6729433" lon="14.8458717"><ele>640.0</ele><time>2026-03-22T09:55:44.783Z</time></trkpt><trkpt lat="37.6730217" lon="14.8455883"><ele>640.0</ele><time>2026-03-22T09:55:45.783Z</time></trkpt><trkpt lat="37.6731" lon="14.845305"><ele>640.0</ele><time>2026-03-22T09:55:46.782Z</time></trkpt><trkpt lat="37.6731817" lon="14.8450233"><ele>640.0</ele><time>2026-03-22T09:55:47.782Z</time></trkpt><trkpt lat="37.6732583" lon="14.8447483"><ele>640.0</ele><time>2026-03-22T09:55:48.783Z</time></trkpt><trkpt lat="37.6733283" lon="14.8444883"><ele>640.0</ele><time>2026-03-22T09:55:49.782Z</time></trkpt><trkpt lat="37.6733983" lon="14.84424"><ele>640.0</ele><time>2026-03-22T09:55:50.783Z</time></trkpt><trkpt lat="37.6734733" lon="14.8440033"><ele>639.0</ele><time>2026-03-22T09:55:51.783Z</time></trkpt><trkpt lat="37.6735467" lon="14.8437767"><ele>638.0</ele><time>2026-03-22T09:55:52.783Z</time></trkpt><trkpt lat="37.6736167" lon="14.8435633"><ele>637.0</ele><time>2026-03-22T09:55:53.783Z</time></trkpt><trkpt lat="37.673675" lon="14.8433567"><ele>635.0</ele><time>2026-03-22T09:55:54.783Z</time></trkpt><trkpt lat="37.6737317" lon="14.8431517"><ele>633.0</ele><time>2026-03-22T09:55:55.782Z</time></trkpt><trkpt lat="37.673785" lon="14.8429533"><ele>631.0</ele><time>2026-03-22T09:55:56.783Z</time></trkpt><trkpt lat="37.6738383" lon="14.84276"><ele>630.3333333333334</ele><time>2026-03-22T09:55:57.783Z</time></trkpt><trkpt lat="37.6738983" lon="14.8425667"><ele>629.6666666666666</ele><time>2026-03-22T09:55:58.783Z</time></trkpt><trkpt lat="37.67396" lon="14.8423633"><ele>629.0</ele><time>2026-03-22T09:55:59.782Z</time></trkpt><trkpt lat="37.6740217" lon="14.8421517"><ele>629.0</ele><time>2026-03-22T09:56:00.783Z</time></trkpt><trkpt lat="37.6740867" lon="14.8419333"><ele>629.0</ele><time>2026-03-22T09:56:01.783Z</time></trkpt><trkpt lat="37.67415" lon="14.841705"><ele>629.0</ele><time>2026-03-22T09:56:02.783Z</time></trkpt><trkpt lat="37.6742133" lon="14.84147"><ele>629.0</ele><time>2026-03-22T09:56:03.782Z</time></trkpt><trkpt lat="37.6742817" lon="14.84123"><ele>629.0</ele><time>2026-03-22T09:56:04.782Z</time></trkpt><trkpt lat="37.6743467" lon="14.8409867"><ele>629.0</ele><time>2026-03-22T09:56:05.782Z</time></trkpt><trkpt lat="37.674415" lon="14.840735"><ele>630.0</ele><time>2026-03-22T09:56:06.783Z</time></trkpt><trkpt lat="37.674485" lon="14.8404783"><ele>631.0</ele><time>2026-03-22T09:56:07.782Z</time></trkpt><trkpt lat="37.67456" lon="14.8402183"><ele>632.0</ele><time>2026-03-22T09:56:08.783Z</time></trkpt><trkpt lat="37.674635" lon="14.8399533"><ele>632.0</ele><time>2026-03-22T09:56:09.782Z</time></trkpt><trkpt lat="37.6747083" lon="14.8396833"><ele>632.0</ele><time>2026-03-22T09:56:10.783Z</time></trkpt><trkpt lat="37.6747883" lon="14.8394117"><ele>630.6666666666666</ele><time>2026-03-22T09:56:11.783Z</time></trkpt><trkpt lat="37.6748667" lon="14.83915"><ele>629.3333333333334</ele><time>2026-03-22T09:56:12.783Z</time></trkpt><trkpt lat="37.6749383" lon="14.8388967"><ele>628.0</ele><time>2026-03-22T09:56:13.782Z</time></trkpt><trkpt lat="37.6750083" lon="14.8386617"><ele>628.0</ele><time>2026-03-22T09:56:14.783Z</time></trkpt><trkpt lat="37.6750733" lon="14.8384483"><ele>628.0</ele><time>2026-03-22T09:56:15.783Z</time></trkpt><trkpt lat="37.675135" lon="14.8382667"><ele>628.0</ele><time>2026-03-22T09:56:16.783Z</time></trkpt><trkpt lat="37.6751967" lon="14.8381317"><ele>628.0</ele><time>2026-03-22T09:56:17.783Z</time></trkpt><trkpt lat="37.6752533" lon="14.838025"><ele>628.0</ele><time>2026-03-22T09:56:18.783Z</time></trkpt><trkpt lat="37.6753133" lon="14.8379417"><ele>628.0</ele><time>2026-03-22T09:56:19.782Z</time></trkpt><trkpt lat="37.6753833" lon="14.83788"><ele>628.0</ele><time>2026-03-22T09:56:20.782Z</time></trkpt><trkpt lat="37.6754683" lon="14.8378483"><ele>628.0</ele><time>2026-03-22T09:56:21.782Z</time></trkpt><trkpt lat="37.6755683" lon="14.8378367"><ele>629.0</ele><time>2026-03-22T09:56:22.782Z</time></trkpt><trkpt lat="37.67566" lon="14.8378333"><ele>630.0</ele><time>2026-03-22T09:56:23.782Z</time></trkpt><trkpt lat="37.6757267" lon="14.8378133"><ele>631.0</ele><time>2026-03-22T09:56:24.783Z</time></trkpt><trkpt lat="37.6758067" lon="14.8376583"><ele>632.0</ele><time>2026-03-22T09:56:26.783Z</time></trkpt><trkpt lat="37.6758533" lon="14.8375467"><ele>633.0</ele><time>2026-03-22T09:56:27.783Z</time></trkpt><trkpt lat="37.675915" lon="14.8374317"><ele>633.0</ele><time>2026-03-22T09:56:28.783Z</time></trkpt><trkpt lat="37.676" lon="14.8373217"><ele>633.0</ele><time>2026-03-22T09:56:29.782Z</time></trkpt><trkpt lat="37.6761" lon="14.8372283"><ele>633.0</ele><time>2026-03-22T09:56:30.782Z</time></trkpt><trkpt lat="37.6762067" lon="14.8371567"><ele>633.0</ele><time>2026-03-22T09:56:31.782Z</time></trkpt><trkpt lat="37.6763133" lon="14.8370867"><ele>633.25</ele><time>2026-03-22T09:56:32.782Z</time></trkpt><trkpt lat="37.6764333" lon="14.8370317"><ele>633.5</ele><time>2026-03-22T09:56:33.782Z</time></trkpt><trkpt lat="37.6765583" lon="14.836985"><ele>633.75</ele><time>2026-03-22T09:56:34.782Z</time></trkpt><trkpt lat="37.6766967" lon="14.83695"><ele>634.0</ele><time>2026-03-22T09:56:35.782Z</time></trkpt><trkpt lat="37.67685" lon="14.8369317"><ele>633.3333333333334</ele><time>2026-03-22T09:56:36.782Z</time></trkpt><trkpt lat="37.6770067" lon="14.8369333"><ele>632.6666666666666</ele><time>2026-03-22T09:56:37.783Z</time></trkpt><trkpt lat="37.6771633" lon="14.8369517"><ele>632.0</ele><time>2026-03-22T09:56:38.783Z</time></trkpt><trkpt lat="37.6773217" lon="14.836965"><ele>632.0</ele><time>2026-03-22T09:56:39.783Z</time></trkpt><trkpt lat="37.67748" lon="14.83699"><ele>632.0</ele><time>2026-03-22T09:56:40.783Z</time></trkpt><trkpt lat="37.67764" lon="14.8370133"><ele>632.0</ele><time>2026-03-22T09:56:41.782Z</time></trkpt><trkpt lat="37.6777933" lon="14.8370283"><ele>630.75</ele><time>2026-03-22T09:56:42.782Z</time></trkpt><trkpt lat="37.67794" lon="14.837045"><ele>629.5</ele><time>2026-03-22T09:56:43.782Z</time></trkpt><trkpt lat="37.678075" lon="14.8370567"><ele>628.25</ele><time>2026-03-22T09:56:44.782Z</time></trkpt><trkpt lat="37.678205" lon="14.8370683"><ele>627.0</ele><time>2026-03-22T09:56:45.783Z</time></trkpt><trkpt lat="37.67833" lon="14.8370817"><ele>627.0</ele><time>2026-03-22T09:56:46.783Z</time></trkpt><trkpt lat="37.67845" lon="14.8370967"><ele>627.0</ele><time>2026-03-22T09:56:47.783Z</time></trkpt><trkpt lat="37.6785617" lon="14.8371133"><ele>627.0</ele><time>2026-03-22T09:56:48.783Z</time></trkpt><trkpt lat="37.67867" lon="14.8371233"><ele>627.0</ele><time>2026-03-22T09:56:49.783Z</time></trkpt><trkpt lat="37.678765" lon="14.8371333"><ele>627.0</ele><time>2026-03-22T09:56:50.782Z</time></trkpt><trkpt lat="37.6788483" lon="14.8371417"><ele>625.2</ele><time>2026-03-22T09:56:51.783Z</time></trkpt><trkpt lat="37.67894" lon="14.8371517"><ele>623.4000000000001</ele><time>2026-03-22T09:56:52.783Z</time></trkpt><trkpt lat="37.67905" lon="14.8371667"><ele>621.5999999999999</ele><time>2026-03-22T09:56:53.783Z</time></trkpt><trkpt lat="37.6791717" lon="14.8371783"><ele>619.8</ele><time>2026-03-22T09:56:54.782Z</time></trkpt><trkpt lat="37.6792867" lon="14.83718"><ele>618.0</ele><time>2026-03-22T09:56:55.782Z</time></trkpt><trkpt lat="37.6793933" lon="14.8371883"><ele>618.1999999999999</ele><time>2026-03-22T09:56:56.783Z</time></trkpt><trkpt lat="37.6794933" lon="14.8372017"><ele>618.4</ele><time>2026-03-22T09:56:57.782Z</time></trkpt><trkpt lat="37.6795867" lon="14.8372183"><ele>618.5999999999999</ele><time>2026-03-22T09:56:58.782Z</time></trkpt><trkpt lat="37.6796633" lon="14.837235"><ele>618.8</ele><time>2026-03-22T09:56:59.783Z</time></trkpt><trkpt lat="37.6797733" lon="14.8372617"><ele>619.0</ele><time>2026-03-22T09:57:01.783Z</time></trkpt><trkpt lat="37.6798467" lon="14.83728"><ele>619.0</ele><time>2026-03-22T09:57:03.782Z</time></trkpt><trkpt lat="37.679925" lon="14.8373033"><ele>619.0</ele><time>2026-03-22T09:57:05.782Z</time></trkpt><trkpt lat="37.6800033" lon="14.8373383"><ele>619.0</ele><time>2026-03-22T09:57:07.783Z</time></trkpt><trkpt lat="37.6801117" lon="14.8374383"><ele>619.0</ele><time>2026-03-22T09:57:09.782Z</time></trkpt><trkpt lat="37.68017" lon="14.8375083"><ele>619.0</ele><time>2026-03-22T09:57:10.782Z</time></trkpt><trkpt lat="37.68023" lon="14.8375867"><ele>619.3333333333334</ele><time>2026-03-22T09:57:11.783Z</time></trkpt><trkpt lat="37.680285" lon="14.8376467"><ele>619.6666666666667</ele><time>2026-03-22T09:57:12.782Z</time></trkpt><trkpt lat="37.6803517" lon="14.8376817"><ele>620.0</ele><time>2026-03-22T09:57:13.783Z</time></trkpt><trkpt lat="37.68046" lon="14.8377033"><ele>620.3333333333334</ele><time>2026-03-22T09:57:15.783Z</time></trkpt><trkpt lat="37.6805717" lon="14.8377167"><ele>620.6666666666666</ele><time>2026-03-22T09:57:17.783Z</time></trkpt><trkpt lat="37.6806433" lon="14.8377333"><ele>621.0</ele><time>2026-03-22T09:57:18.782Z</time></trkpt><trkpt lat="37.680705" lon="14.83776"><ele>621.0</ele><time>2026-03-22T09:57:19.782Z</time></trkpt><trkpt lat="37.6807717" lon="14.8377833"><ele>621.0</ele><time>2026-03-22T09:57:20.783Z</time></trkpt><trkpt lat="37.6808433" lon="14.8378117"><ele>621.0</ele><time>2026-03-22T09:57:21.783Z</time></trkpt><trkpt lat="37.6809133" lon="14.8378317"><ele>621.0</ele><time>2026-03-22T09:57:22.783Z</time></trkpt><trkpt lat="37.6809933" lon="14.837845"><ele>621.0</ele><time>2026-03-22T09:57:23.783Z</time></trkpt><trkpt lat="37.6810783" lon="14.83785"><ele>621.0</ele><time>2026-03-22T09:57:24.782Z</time></trkpt><trkpt lat="37.6811683" lon="14.8378467"><ele>622.0</ele><time>2026-03-22T09:57:25.783Z</time></trkpt><trkpt lat="37.6812583" lon="14.83785"><ele>623.0</ele><time>2026-03-22T09:57:26.782Z</time></trkpt><trkpt lat="37.6813533" lon="14.837855"><ele>624.0</ele><time>2026-03-22T09:57:27.782Z</time></trkpt><trkpt lat="37.6814433" lon="14.83786"><ele>625.0</ele><time>2026-03-22T09:57:28.782Z</time></trkpt><trkpt lat="37.6815367" lon="14.8378617"><ele>626.0</ele><time>2026-03-22T09:57:29.782Z</time></trkpt><trkpt lat="37.681625" lon="14.8378717"><ele>626.0</ele><time>2026-03-22T09:57:30.782Z</time></trkpt><trkpt lat="37.6817133" lon="14.8378783"><ele>626.0</ele><time>2026-03-22T09:57:31.783Z</time></trkpt><trkpt lat="37.6818133" lon="14.8378833"><ele>626.0</ele><time>2026-03-22T09:57:32.783Z</time></trkpt><trkpt lat="37.6819133" lon="14.8378883"><ele>626.0</ele><time>2026-03-22T09:57:33.783Z</time></trkpt><trkpt lat="37.6820167" lon="14.8379033"><ele>626.0</ele><time>2026-03-22T09:57:34.782Z</time></trkpt><trkpt lat="37.6821183" lon="14.837935"><ele>626.0</ele><time>2026-03-22T09:57:35.782Z</time></trkpt><trkpt lat="37.6822117" lon="14.8379983"><ele>626.0</ele><time>2026-03-22T09:57:36.782Z</time></trkpt><trkpt lat="37.6823017" lon="14.83809"><ele>626.0</ele><time>2026-03-22T09:57:37.783Z</time></trkpt><trkpt lat="37.68239" lon="14.8381967"><ele>626.0</ele><time>2026-03-22T09:57:38.782Z</time></trkpt><trkpt lat="37.6824867" lon="14.8383133"><ele>626.0</ele><time>2026-03-22T09:57:39.783Z</time></trkpt><trkpt lat="37.68259" lon="14.8384333"><ele>626.0</ele><time>2026-03-22T09:57:40.783Z</time></trkpt><trkpt lat="37.6827017" lon="14.8385617"><ele>626.0</ele><time>2026-03-22T09:57:41.783Z</time></trkpt><trkpt lat="37.6828217" lon="14.83869"><ele>626.0</ele><time>2026-03-22T09:57:42.782Z</time></trkpt><trkpt lat="37.6829383" lon="14.8388167"><ele>626.6666666666666</ele><time>2026-03-22T09:57:43.783Z</time></trkpt><trkpt lat="37.6830533" lon="14.8389467"><ele>627.3333333333334</ele><time>2026-03-22T09:57:44.782Z</time></trkpt><trkpt lat="37.683165" lon="14.8390767"><ele>628.0</ele><time>2026-03-22T09:57:45.782Z</time></trkpt><trkpt lat="37.68328" lon="14.839205"><ele>628.6666666666667</ele><time>2026-03-22T09:57:46.782Z</time></trkpt><trkpt lat="37.6833967" lon="14.8393367"><ele>629.3333333333334</ele><time>2026-03-22T09:57:47.782Z</time></trkpt><trkpt lat="37.6835167" lon="14.8394683"><ele>630.0</ele><time>2026-03-22T09:57:48.782Z</time></trkpt><trkpt lat="37.6836367" lon="14.839605"><ele>630.6666666666666</ele><time>2026-03-22T09:57:49.783Z</time></trkpt><trkpt lat="37.6837567" lon="14.8397417"><ele>631.3333333333333</ele><time>2026-03-22T09:57:50.782Z</time></trkpt><trkpt lat="37.683875" lon="14.8398833"><ele>632.0</ele><time>2026-03-22T09:57:51.782Z</time></trkpt><trkpt lat="37.6839917" lon="14.8400233"><ele>633.0</ele><time>2026-03-22T09:57:52.783Z</time></trkpt><trkpt lat="37.684115" lon="14.8401583"><ele>634.0</ele><time>2026-03-22T09:57:53.783Z</time></trkpt><trkpt lat="37.6842383" lon="14.840285"><ele>635.0</ele><time>2026-03-22T09:57:54.783Z</time></trkpt><trkpt lat="37.684365" lon="14.8403983"><ele>634.3333333333333</ele><time>2026-03-22T09:57:55.783Z</time></trkpt><trkpt lat="37.6845083" lon="14.84048"><ele>633.6666666666666</ele><time>2026-03-22T09:57:56.783Z</time></trkpt><trkpt lat="37.6846633" lon="14.8405483"><ele>633.0</ele><time>2026-03-22T09:57:57.782Z</time></trkpt><trkpt lat="37.68483" lon="14.84059"><ele>633.0</ele><time>2026-03-22T09:57:58.783Z</time></trkpt><trkpt lat="37.685" lon="14.8406367"><ele>633.0</ele><time>2026-03-22T09:57:59.783Z</time></trkpt><trkpt lat="37.68517" lon="14.84069"><ele>633.0</ele><time>2026-03-22T09:58:00.783Z</time></trkpt><trkpt lat="37.685345" lon="14.8407517"><ele>633.3333333333334</ele><time>2026-03-22T09:58:01.782Z</time></trkpt><trkpt lat="37.6855217" lon="14.8408217"><ele>633.6666666666667</ele><time>2026-03-22T09:58:02.783Z</time></trkpt><trkpt lat="37.6857017" lon="14.840895"><ele>634.0</ele><time>2026-03-22T09:58:03.783Z</time></trkpt><trkpt lat="37.6858767" lon="14.8409667"><ele>636.0</ele><time>2026-03-22T09:58:04.782Z</time></trkpt><trkpt lat="37.6860517" lon="14.84103"><ele>638.0</ele><time>2026-03-22T09:58:05.783Z</time></trkpt><trkpt lat="37.6862117" lon="14.84109"><ele>640.0</ele><time>2026-03-22T09:58:06.783Z</time></trkpt><trkpt lat="37.6863683" lon="14.84114"><ele>641.3333333333334</ele><time>2026-03-22T09:58:07.782Z</time></trkpt><trkpt lat="37.686525" lon="14.8411833"><ele>642.6666666666666</ele><time>2026-03-22T09:58:08.783Z</time></trkpt><trkpt lat="37.68669" lon="14.841205"><ele>644.0</ele><time>2026-03-22T09:58:09.782Z</time></trkpt><trkpt lat="37.6868567" lon="14.8412017"><ele>643.3333333333333</ele><time>2026-03-22T09:58:10.782Z</time></trkpt><trkpt lat="37.6870217" lon="14.8411883"><ele>642.6666666666666</ele><time>2026-03-22T09:58:11.782Z</time></trkpt><trkpt lat="37.6871817" lon="14.8411733"><ele>642.0</ele><time>2026-03-22T09:58:12.782Z</time></trkpt><trkpt lat="37.6873467" lon="14.84116"><ele>642.0</ele><time>2026-03-22T09:58:13.783Z</time></trkpt><trkpt lat="37.68752" lon="14.84114"><ele>642.0</ele><time>2026-03-22T09:58:14.783Z</time></trkpt><trkpt lat="37.687685" lon="14.841125"><ele>642.0</ele><time>2026-03-22T09:58:15.782Z</time></trkpt><trkpt lat="37.6878433" lon="14.84111"><ele>641.2</ele><time>2026-03-22T09:58:16.782Z</time></trkpt><trkpt lat="37.68798" lon="14.8410967"><ele>640.4000000000001</ele><time>2026-03-22T09:58:17.783Z</time></trkpt><trkpt lat="37.6880967" lon="14.8410833"><ele>639.5999999999999</ele><time>2026-03-22T09:58:18.782Z</time></trkpt><trkpt lat="37.68819" lon="14.8410567"><ele>638.8</ele><time>2026-03-22T09:58:19.783Z</time></trkpt><trkpt lat="37.688265" lon="14.841005"><ele>638.0</ele><time>2026-03-22T09:58:20.782Z</time></trkpt><trkpt lat="37.6883367" lon="14.84093"><ele>636.4</ele><time>2026-03-22T09:58:21.782Z</time></trkpt><trkpt lat="37.68841" lon="14.8408567"><ele>634.8</ele><time>2026-03-22T09:58:22.782Z</time></trkpt><trkpt lat="37.6884983" lon="14.8407983"><ele>633.2</ele><time>2026-03-22T09:58:23.782Z</time></trkpt><trkpt lat="37.6886" lon="14.8407633"><ele>631.6</ele><time>2026-03-22T09:58:24.782Z</time></trkpt><trkpt lat="37.688695" lon="14.8407483"><ele>630.0</ele><time>2026-03-22T09:58:25.783Z</time></trkpt><trkpt lat="37.68877" lon="14.8407733"><ele>629.8</ele><time>2026-03-22T09:58:26.782Z</time></trkpt><trkpt lat="37.68884" lon="14.8408367"><ele>629.6</ele><time>2026-03-22T09:58:27.782Z</time></trkpt><trkpt lat="37.6888983" lon="14.840935"><ele>629.4</ele><time>2026-03-22T09:58:28.783Z</time></trkpt><trkpt lat="37.68896" lon="14.8410317"><ele>629.2</ele><time>2026-03-22T09:58:29.783Z</time></trkpt><trkpt lat="37.6890417" lon="14.8410867"><ele>629.0</ele><time>2026-03-22T09:58:30.782Z</time></trkpt><trkpt lat="37.6891383" lon="14.8411183"><ele>629.4</ele><time>2026-03-22T09:58:31.782Z</time></trkpt><trkpt lat="37.6892333" lon="14.8411483"><ele>629.8</ele><time>2026-03-22T09:58:32.783Z</time></trkpt><trkpt lat="37.6893267" lon="14.84117"><ele>630.2</ele><time>2026-03-22T09:58:33.782Z</time></trkpt><trkpt lat="37.6894117" lon="14.8411967"><ele>630.6</ele><time>2026-03-22T09:58:34.783Z</time></trkpt><trkpt lat="37.6894933" lon="14.84123"><ele>631.0</ele><time>2026-03-22T09:58:35.783Z</time></trkpt><trkpt lat="37.6895733" lon="14.8412633"><ele>631.0</ele><time>2026-03-22T09:58:36.782Z</time></trkpt><trkpt lat="37.6896533" lon="14.8413"><ele>631.0</ele><time>2026-03-22T09:58:37.783Z</time></trkpt><trkpt lat="37.6897383" lon="14.8413483"><ele>631.0</ele><time>2026-03-22T09:58:38.782Z</time></trkpt><trkpt lat="37.68982" lon="14.8414133"><ele>631.0</ele><time>2026-03-22T09:58:39.782Z</time></trkpt><trkpt lat="37.6898983" lon="14.8414933"><ele>631.0</ele><time>2026-03-22T09:58:40.783Z</time></trkpt><trkpt lat="37.689965" lon="14.8415833"><ele>631.0</ele><time>2026-03-22T09:58:41.782Z</time></trkpt><trkpt lat="37.6900183" lon="14.84168"><ele>631.0</ele><time>2026-03-22T09:58:42.782Z</time></trkpt><trkpt lat="37.6900517" lon="14.84178"><ele>631.0</ele><time>2026-03-22T09:58:43.783Z</time></trkpt><trkpt lat="37.6900783" lon="14.8418833"><ele>631.0</ele><time>2026-03-22T09:58:44.783Z</time></trkpt><trkpt lat="37.6901083" lon="14.8419833"><ele>631.0</ele><time>2026-03-22T09:58:45.783Z</time></trkpt><trkpt lat="37.69015" lon="14.8420733"><ele>631.0</ele><time>2026-03-22T09:58:46.782Z</time></trkpt><trkpt lat="37.6902" lon="14.84216"><ele>632.6</ele><time>2026-03-22T09:58:47.783Z</time></trkpt><trkpt lat="37.6902617" lon="14.8422333"><ele>634.2</ele><time>2026-03-22T09:58:48.782Z</time></trkpt><trkpt lat="37.6903533" lon="14.8422817"><ele>635.8</ele><time>2026-03-22T09:58:49.782Z</time></trkpt><trkpt lat="37.6904583" lon="14.842295"><ele>637.4</ele><time>2026-03-22T09:58:50.782Z</time></trkpt><trkpt lat="37.6905567" lon="14.8422683"><ele>639.0</ele><time>2026-03-22T09:58:51.782Z</time></trkpt><trkpt lat="37.69065" lon="14.8422183"><ele>639.0</ele><time>2026-03-22T09:58:52.782Z</time></trkpt><trkpt lat="37.69074" lon="14.842155"><ele>639.0</ele><time>2026-03-22T09:58:53.783Z</time></trkpt><trkpt lat="37.6908317" lon="14.8420967"><ele>639.0</ele><time>2026-03-22T09:58:54.783Z</time></trkpt><trkpt lat="37.6909317" lon="14.8420433"><ele>639.0</ele><time>2026-03-22T09:58:55.782Z</time></trkpt><trkpt lat="37.6910433" lon="14.8420017"><ele>639.0</ele><time>2026-03-22T09:58:56.782Z</time></trkpt><trkpt lat="37.6911567" lon="14.8419833"><ele>637.75</ele><time>2026-03-22T09:58:57.783Z</time></trkpt><trkpt lat="37.6912667" lon="14.8419967"><ele>636.5</ele><time>2026-03-22T09:58:58.783Z</time></trkpt><trkpt lat="37.69138" lon="14.84205"><ele>635.25</ele><time>2026-03-22T09:58:59.783Z</time></trkpt><trkpt lat="37.6914933" lon="14.8421167"><ele>634.0</ele><time>2026-03-22T09:59:00.782Z</time></trkpt><trkpt lat="37.6916033" lon="14.84218"><ele>634.0</ele><time>2026-03-22T09:59:01.783Z</time></trkpt><trkpt lat="37.69172" lon="14.8422417"><ele>634.0</ele><time>2026-03-22T09:59:02.782Z</time></trkpt><trkpt lat="37.6918417" lon="14.842295"><ele>634.0</ele><time>2026-03-22T09:59:03.783Z</time></trkpt><trkpt lat="37.6919717" lon="14.8423533"><ele>634.0</ele><time>2026-03-22T09:59:04.782Z</time></trkpt><trkpt lat="37.6921067" lon="14.8424083"><ele>630.75</ele><time>2026-03-22T09:59:05.783Z</time></trkpt><trkpt lat="37.6922333" lon="14.8424633"><ele>627.5</ele><time>2026-03-22T09:59:06.782Z</time></trkpt><trkpt lat="37.69235" lon="14.8425133"><ele>624.25</ele><time>2026-03-22T09:59:07.782Z</time></trkpt><trkpt lat="37.6924633" lon="14.84256"><ele>621.0</ele><time>2026-03-22T09:59:08.782Z</time></trkpt><trkpt lat="37.6925767" lon="14.8426017"><ele>625.5</ele><time>2026-03-22T09:59:09.782Z</time></trkpt><trkpt lat="37.6926833" lon="14.8426467"><ele>630.0</ele><time>2026-03-22T09:59:10.783Z</time></trkpt><trkpt lat="37.692785" lon="14.8426767"><ele>634.5</ele><time>2026-03-22T09:59:11.782Z</time></trkpt><trkpt lat="37.692905" lon="14.84269"><ele>639.0</ele><time>2026-03-22T09:59:12.782Z</time></trkpt><trkpt lat="37.6930217" lon="14.84268"><ele>639.0</ele><time>2026-03-22T09:59:13.783Z</time></trkpt><trkpt lat="37.6931317" lon="14.8426433"><ele>639.0</ele><time>2026-03-22T09:59:14.782Z</time></trkpt><trkpt lat="37.6932383" lon="14.842605"><ele>639.0</ele><time>2026-03-22T09:59:15.782Z</time></trkpt><trkpt lat="37.693345" lon="14.8425683"><ele>639.0</ele><time>2026-03-22T09:59:16.782Z</time></trkpt><trkpt lat="37.6934533" lon="14.842535"><ele>639.0</ele><time>2026-03-22T09:59:17.783Z</time></trkpt><trkpt lat="37.69357" lon="14.8425"><ele>637.4</ele><time>2026-03-22T09:59:18.782Z</time></trkpt><trkpt lat="37.6936817" lon="14.8424633"><ele>635.8</ele><time>2026-03-22T09:59:19.782Z</time></trkpt><trkpt lat="37.6937917" lon="14.842435"><ele>634.2</ele><time>2026-03-22T09:59:20.782Z</time></trkpt><trkpt lat="37.693895" lon="14.8424033"><ele>632.6</ele><time>2026-03-22T09:59:21.783Z</time></trkpt><trkpt lat="37.6939917" lon="14.8423667"><ele>631.0</ele><time>2026-03-22T09:59:22.782Z</time></trkpt><trkpt lat="37.6940983" lon="14.8423583"><ele>631.0</ele><time>2026-03-22T09:59:23.783Z</time></trkpt><trkpt lat="37.6942083" lon="14.8423533"><ele>631.0</ele><time>2026-03-22T09:59:24.782Z</time></trkpt><trkpt lat="37.694325" lon="14.8423683"><ele>631.0</ele><time>2026-03-22T09:59:25.783Z</time></trkpt><trkpt lat="37.69444" lon="14.84238"><ele>631.0</ele><time>2026-03-22T09:59:26.783Z</time></trkpt><trkpt lat="37.69455" lon="14.8423983"><ele>630.2</ele><time>2026-03-22T09:59:27.783Z</time></trkpt><trkpt lat="37.69466" lon="14.8424217"><ele>629.4000000000001</ele><time>2026-03-22T09:59:28.782Z</time></trkpt><trkpt lat="37.6947733" lon="14.8424467"><ele>628.6</ele><time>2026-03-22T09:59:29.783Z</time></trkpt><trkpt lat="37.6948817" lon="14.842465"><ele>627.8000000000001</ele><time>2026-03-22T09:59:30.782Z</time></trkpt><trkpt lat="37.694995" lon="14.8424733"><ele>627.0</ele><time>2026-03-22T09:59:31.782Z</time></trkpt><trkpt lat="37.6951067" lon="14.8424633"><ele>627.0</ele><time>2026-03-22T09:59:32.783Z</time></trkpt><trkpt lat="37.6952117" lon="14.842435"><ele>627.0</ele><time>2026-03-22T09:59:33.783Z</time></trkpt><trkpt lat="37.6953" lon="14.842405"><ele>627.0</ele><time>2026-03-22T09:59:34.783Z</time></trkpt><trkpt lat="37.695375" lon="14.84236"><ele>627.0</ele><time>2026-03-22T09:59:35.783Z</time></trkpt><trkpt lat="37.6954433" lon="14.84231"><ele>627.0</ele><time>2026-03-22T09:59:36.782Z</time></trkpt><trkpt lat="37.6954983" lon="14.8422383"><ele>627.0</ele><time>2026-03-22T09:59:37.782Z</time></trkpt><trkpt lat="37.6955333" lon="14.8421533"><ele>626.8333333333334</ele><time>2026-03-22T09:59:38.783Z</time></trkpt><trkpt lat="37.6955533" lon="14.8420667"><ele>626.6666666666666</ele><time>2026-03-22T09:59:39.783Z</time></trkpt><trkpt lat="37.6955717" lon="14.8419567"><ele>626.5</ele><time>2026-03-22T09:59:40.783Z</time></trkpt><trkpt lat="37.6955917" lon="14.8418317"><ele>626.3333333333333</ele><time>2026-03-22T09:59:41.783Z</time></trkpt><trkpt lat="37.6955967" lon="14.8417117"><ele>626.1666666666666</ele><time>2026-03-22T09:59:42.782Z</time></trkpt><trkpt lat="37.695605" lon="14.841605"><ele>626.0</ele><time>2026-03-22T09:59:43.783Z</time></trkpt><trkpt lat="37.6956083" lon="14.8415"><ele>624.8333333333333</ele><time>2026-03-22T09:59:44.783Z</time></trkpt><trkpt lat="37.695605" lon="14.84139"><ele>623.6666666666666</ele><time>2026-03-22T09:59:45.782Z</time></trkpt><trkpt lat="37.6955983" lon="14.8412733"><ele>622.5</ele><time>2026-03-22T09:59:46.782Z</time></trkpt><trkpt lat="37.695605" lon="14.8411617"><ele>621.3333333333334</ele><time>2026-03-22T09:59:47.783Z</time></trkpt><trkpt lat="37.6956333" lon="14.8410617"><ele>620.1666666666667</ele><time>2026-03-22T09:59:48.783Z</time></trkpt><trkpt lat="37.695685" lon="14.840985"><ele>619.0</ele><time>2026-03-22T09:59:49.783Z</time></trkpt><trkpt lat="37.6957633" lon="14.8409367"><ele>618.2</ele><time>2026-03-22T09:59:50.783Z</time></trkpt><trkpt lat="37.6958667" lon="14.84092"><ele>617.4</ele><time>2026-03-22T09:59:51.783Z</time></trkpt><trkpt lat="37.695975" lon="14.8408933"><ele>616.6</ele><time>2026-03-22T09:59:52.782Z</time></trkpt><trkpt lat="37.6960717" lon="14.8408533"><ele>615.8</ele><time>2026-03-22T09:59:53.783Z</time></trkpt><trkpt lat="37.6961517" lon="14.840785"><ele>615.0</ele><time>2026-03-22T09:59:54.782Z</time></trkpt><trkpt lat="37.69623" lon="14.840685"><ele>615.0</ele><time>2026-03-22T09:59:55.783Z</time></trkpt><trkpt lat="37.696295" lon="14.8405617"><ele>615.0</ele><time>2026-03-22T09:59:56.782Z</time></trkpt><trkpt lat="37.6963567" lon="14.840435"><ele>615.0</ele><time>2026-03-22T09:59:57.782Z</time></trkpt><trkpt lat="37.6964183" lon="14.8403083"><ele>615.0</ele><time>2026-03-22T09:59:58.783Z</time></trkpt><trkpt lat="37.6964817" lon="14.8401733"><ele>613.5</ele><time>2026-03-22T09:59:59.782Z</time></trkpt><trkpt lat="37.6965483" lon="14.8400417"><ele>612.0</ele><time>2026-03-22T10:00:00.783Z</time></trkpt><trkpt lat="37.6966133" lon="14.8399133"><ele>610.5</ele><time>2026-03-22T10:00:01.783Z</time></trkpt><trkpt lat="37.6966767" lon="14.83979"><ele>609.0</ele><time>2026-03-22T10:00:02.783Z</time></trkpt><trkpt lat="37.6967433" lon="14.83968"><ele>609.0</ele><time>2026-03-22T10:00:03.782Z</time></trkpt><trkpt lat="37.6968283" lon="14.8395833"><ele>609.0</ele><time>2026-03-22T10:00:04.782Z</time></trkpt><trkpt lat="37.6969283" lon="14.839515"><ele>609.0</ele><time>2026-03-22T10:00:05.782Z</time></trkpt><trkpt lat="37.6970467" lon="14.8394767"><ele>609.0</ele><time>2026-03-22T10:00:06.783Z</time></trkpt><trkpt lat="37.69719" lon="14.839465"><ele>609.5</ele><time>2026-03-22T10:00:07.782Z</time></trkpt><trkpt lat="37.697335" lon="14.839485"><ele>610.0</ele><time>2026-03-22T10:00:08.782Z</time></trkpt><trkpt lat="37.697485" lon="14.8395167"><ele>610.5</ele><time>2026-03-22T10:00:09.782Z</time></trkpt><trkpt lat="37.6976283" lon="14.8395483"><ele>611.0</ele><time>2026-03-22T10:00:10.782Z</time></trkpt><trkpt lat="37.6977567" lon="14.8395733"><ele>611.2</ele><time>2026-03-22T10:00:11.782Z</time></trkpt><trkpt lat="37.6978633" lon="14.839585"><ele>611.4000000000001</ele><time>2026-03-22T10:00:12.782Z</time></trkpt><trkpt lat="37.6979667" lon="14.83958"><ele>611.6</ele><time>2026-03-22T10:00:13.783Z</time></trkpt><trkpt lat="37.69807" lon="14.8395483"><ele>611.8000000000001</ele><time>2026-03-22T10:00:14.783Z</time></trkpt><trkpt lat="37.6981667" lon="14.8394767"><ele>612.0</ele><time>2026-03-22T10:00:15.782Z</time></trkpt><trkpt lat="37.6982433" lon="14.8393683"><ele>610.0</ele><time>2026-03-22T10:00:16.782Z</time></trkpt><trkpt lat="37.6983217" lon="14.83924"><ele>608.0</ele><time>2026-03-22T10:00:17.782Z</time></trkpt><trkpt lat="37.6984033" lon="14.8391033"><ele>606.0</ele><time>2026-03-22T10:00:18.783Z</time></trkpt><trkpt lat="37.6984883" lon="14.8389683"><ele>604.0</ele><time>2026-03-22T10:00:19.783Z</time></trkpt><trkpt lat="37.69857" lon="14.838835"><ele>603.75</ele><time>2026-03-22T10:00:20.783Z</time></trkpt><trkpt lat="37.6986583" lon="14.8387"><ele>603.5</ele><time>2026-03-22T10:00:21.782Z</time></trkpt><trkpt lat="37.6987467" lon="14.8385767"><ele>603.25</ele><time>2026-03-22T10:00:22.782Z</time></trkpt><trkpt lat="37.6988433" lon="14.8384667"><ele>603.0</ele><time>2026-03-22T10:00:23.783Z</time></trkpt><trkpt lat="37.6989433" lon="14.8383633"><ele>601.5</ele><time>2026-03-22T10:00:24.782Z</time></trkpt><trkpt lat="37.6990417" lon="14.8382733"><ele>600.0</ele><time>2026-03-22T10:00:25.783Z</time></trkpt><trkpt lat="37.69914" lon="14.8381867"><ele>598.5</ele><time>2026-03-22T10:00:26.783Z</time></trkpt><trkpt lat="37.69924" lon="14.8381"><ele>597.0</ele><time>2026-03-22T10:00:27.782Z</time></trkpt><trkpt lat="37.6993433" lon="14.8380233"><ele>597.75</ele><time>2026-03-22T10:00:28.783Z</time></trkpt><trkpt lat="37.6994583" lon="14.837955"><ele>598.5</ele><time>2026-03-22T10:00:29.783Z</time></trkpt><trkpt lat="37.6995817" lon="14.8379033"><ele>599.25</ele><time>2026-03-22T10:00:30.783Z</time></trkpt><trkpt lat="37.6997067" lon="14.8378583"><ele>600.0</ele><time>2026-03-22T10:00:31.782Z</time></trkpt><trkpt lat="37.699835" lon="14.8378183"><ele>600.0</ele><time>2026-03-22T10:00:32.783Z</time></trkpt><trkpt lat="37.69997" lon="14.8377933"><ele>600.0</ele><time>2026-03-22T10:00:33.782Z</time></trkpt><trkpt lat="37.7000933" lon="14.8377767"><ele>600.0</ele><time>2026-03-22T10:00:34.782Z</time></trkpt><trkpt lat="37.70022" lon="14.837775"><ele>600.0</ele><time>2026-03-22T10:00:35.782Z</time></trkpt><trkpt lat="37.7003483" lon="14.8377883"><ele>601.0</ele><time>2026-03-22T10:00:36.782Z</time></trkpt><trkpt lat="37.7004783" lon="14.837825"><ele>602.0</ele><time>2026-03-22T10:00:37.783Z</time></trkpt><trkpt lat="37.700605" lon="14.837865"><ele>603.0</ele><time>2026-03-22T10:00:38.783Z</time></trkpt><trkpt lat="37.7007367" lon="14.83791"><ele>604.0</ele><time>2026-03-22T10:00:39.782Z</time></trkpt><trkpt lat="37.7008733" lon="14.8379583"><ele>604.0</ele><time>2026-03-22T10:00:40.782Z</time></trkpt><trkpt lat="37.70101" lon="14.8380033"><ele>604.0</ele><time>2026-03-22T10:00:41.782Z</time></trkpt><trkpt lat="37.70115" lon="14.83804"><ele>604.0</ele><time>2026-03-22T10:00:42.782Z</time></trkpt><trkpt lat="37.701295" lon="14.8380767"><ele>604.0</ele><time>2026-03-22T10:00:43.782Z</time></trkpt><trkpt lat="37.701435" lon="14.8381133"><ele>603.25</ele><time>2026-03-22T10:00:44.782Z</time></trkpt><trkpt lat="37.7015767" lon="14.8381483"><ele>602.5</ele><time>2026-03-22T10:00:45.782Z</time></trkpt><trkpt lat="37.7017133" lon="14.8381833"><ele>601.75</ele><time>2026-03-22T10:00:46.782Z</time></trkpt><trkpt lat="37.7018533" lon="14.838215"><ele>601.0</ele><time>2026-03-22T10:00:47.783Z</time></trkpt><trkpt lat="37.701995" lon="14.83825"><ele>601.0</ele><time>2026-03-22T10:00:48.782Z</time></trkpt><trkpt lat="37.7021333" lon="14.8382833"><ele>601.0</ele><time>2026-03-22T10:00:49.783Z</time></trkpt><trkpt lat="37.7022633" lon="14.83833"><ele>601.0</ele><time>2026-03-22T10:00:50.783Z</time></trkpt><trkpt lat="37.7023783" lon="14.8383833"><ele>601.0</ele><time>2026-03-22T10:00:51.783Z</time></trkpt><trkpt lat="37.7024867" lon="14.8384483"><ele>601.6</ele><time>2026-03-22T10:00:52.783Z</time></trkpt><trkpt lat="37.7025833" lon="14.8385117"><ele>602.2</ele><time>2026-03-22T10:00:53.783Z</time></trkpt><trkpt lat="37.70267" lon="14.8385917"><ele>602.8</ele><time>2026-03-22T10:00:54.783Z</time></trkpt><trkpt lat="37.7027433" lon="14.8386867"><ele>603.4</ele><time>2026-03-22T10:00:55.782Z</time></trkpt><trkpt lat="37.7028" lon="14.8387933"><ele>604.0</ele><time>2026-03-22T10:00:56.782Z</time></trkpt><trkpt lat="37.702845" lon="14.838905"><ele>605.3333333333334</ele><time>2026-03-22T10:00:57.783Z</time></trkpt><trkpt lat="37.70288" lon="14.8390133"><ele>606.6666666666667</ele><time>2026-03-22T10:00:58.782Z</time></trkpt><trkpt lat="37.7029183" lon="14.8390967"><ele>608.0</ele><time>2026-03-22T10:00:59.783Z</time></trkpt><trkpt lat="37.702965" lon="14.8391667"><ele>609.3333333333334</ele><time>2026-03-22T10:01:00.783Z</time></trkpt><trkpt lat="37.703035" lon="14.8392"><ele>610.6666666666666</ele><time>2026-03-22T10:01:01.783Z</time></trkpt><trkpt lat="37.703115" lon="14.83919"><ele>612.0</ele><time>2026-03-22T10:01:02.782Z</time></trkpt><trkpt lat="37.7031967" lon="14.8391483"><ele>612.0</ele><time>2026-03-22T10:01:03.782Z</time></trkpt><trkpt lat="37.7032817" lon="14.8390833"><ele>612.0</ele><time>2026-03-22T10:01:04.782Z</time></trkpt><trkpt lat="37.70338" lon="14.8390133"><ele>612.0</ele><time>2026-03-22T10:01:05.783Z</time></trkpt><trkpt lat="37.7034833" lon="14.8389383"><ele>612.0</ele><time>2026-03-22T10:01:06.783Z</time></trkpt><trkpt lat="37.7035917" lon="14.838855"><ele>614.0</ele><time>2026-03-22T10:01:07.783Z</time></trkpt><trkpt lat="37.703705" lon="14.8387717"><ele>616.0</ele><time>2026-03-22T10:01:08.783Z</time></trkpt><trkpt lat="37.7038283" lon="14.83869"><ele>618.0</ele><time>2026-03-22T10:01:09.782Z</time></trkpt><trkpt lat="37.703955" lon="14.8386317"><ele>620.0</ele><time>2026-03-22T10:01:10.783Z</time></trkpt><trkpt lat="37.704085" lon="14.8385867"><ele>620.0</ele><time>2026-03-22T10:01:11.782Z</time></trkpt><trkpt lat="37.7042083" lon="14.8385517"><ele>620.0</ele><time>2026-03-22T10:01:12.782Z</time></trkpt><trkpt lat="37.7043233" lon="14.8385133"><ele>620.0</ele><time>2026-03-22T10:01:13.782Z</time></trkpt><trkpt lat="37.7044233" lon="14.838485"><ele>620.0</ele><time>2026-03-22T10:01:14.783Z</time></trkpt><trkpt lat="37.704515" lon="14.838465"><ele>620.0</ele><time>2026-03-22T10:01:15.783Z</time></trkpt><trkpt lat="37.7046033" lon="14.838455"><ele>620.6666666666666</ele><time>2026-03-22T10:01:16.783Z</time></trkpt><trkpt lat="37.7046783" lon="14.8384767"><ele>621.3333333333333</ele><time>2026-03-22T10:01:17.783Z</time></trkpt><trkpt lat="37.7047533" lon="14.8385167"><ele>622.0</ele><time>2026-03-22T10:01:18.782Z</time></trkpt><trkpt lat="37.704815" lon="14.8385767"><ele>622.6666666666666</ele><time>2026-03-22T10:01:19.783Z</time></trkpt><trkpt lat="37.7048617" lon="14.838655"><ele>623.3333333333334</ele><time>2026-03-22T10:01:20.782Z</time></trkpt><trkpt lat="37.7048933" lon="14.8387367"><ele>624.0</ele><time>2026-03-22T10:01:21.783Z</time></trkpt><trkpt lat="37.7049233" lon="14.8388167"><ele>624.0</ele><time>2026-03-22T10:01:22.783Z</time></trkpt><trkpt lat="37.704955" lon="14.8389"><ele>624.0</ele><time>2026-03-22T10:01:23.782Z</time></trkpt><trkpt lat="37.704985" lon="14.838975"><ele>624.0</ele><time>2026-03-22T10:01:24.783Z</time></trkpt><trkpt lat="37.7050133" lon="14.8390533"><ele>624.0</ele><time>2026-03-22T10:01:25.782Z</time></trkpt><trkpt lat="37.70504" lon="14.8391433"><ele>624.0</ele><time>2026-03-22T10:01:26.783Z</time></trkpt><trkpt lat="37.7050717" lon="14.83925"><ele>624.0</ele><time>2026-03-22T10:01:27.783Z</time></trkpt><trkpt lat="37.7051117" lon="14.839365"><ele>625.2</ele><time>2026-03-22T10:01:28.782Z</time></trkpt><trkpt lat="37.705165" lon="14.8394767"><ele>626.4</ele><time>2026-03-22T10:01:29.782Z</time></trkpt><trkpt lat="37.7052317" lon="14.8395817"><ele>627.6</ele><time>2026-03-22T10:01:30.783Z</time></trkpt><trkpt lat="37.705305" lon="14.8396883"><ele>628.8</ele><time>2026-03-22T10:01:31.782Z</time></trkpt><trkpt lat="37.70537" lon="14.8397933"><ele>630.0</ele><time>2026-03-22T10:01:32.782Z</time></trkpt><trkpt lat="37.7054367" lon="14.8398783"><ele>630.2</ele><time>2026-03-22T10:01:33.783Z</time></trkpt><trkpt lat="37.7055167" lon="14.8399417"><ele>630.4</ele><time>2026-03-22T10:01:34.782Z</time></trkpt><trkpt lat="37.7056067" lon="14.83997"><ele>630.6</ele><time>2026-03-22T10:01:35.782Z</time></trkpt><trkpt lat="37.70571" lon="14.8399683"><ele>630.8</ele><time>2026-03-22T10:01:36.782Z</time></trkpt><trkpt lat="37.705815" lon="14.8399533"><ele>631.0</ele><time>2026-03-22T10:01:37.783Z</time></trkpt><trkpt lat="37.7059083" lon="14.8399417"><ele>631.0</ele><time>2026-03-22T10:01:38.782Z</time></trkpt><trkpt lat="37.706" lon="14.8399433"><ele>631.0</ele><time>2026-03-22T10:01:39.782Z</time></trkpt><trkpt lat="37.706085" lon="14.83995"><ele>631.0</ele><time>2026-03-22T10:01:40.783Z</time></trkpt><trkpt lat="37.706175" lon="14.83995"><ele>631.0</ele><time>2026-03-22T10:01:41.782Z</time></trkpt><trkpt lat="37.70627" lon="14.8399517"><ele>631.0</ele><time>2026-03-22T10:01:42.783Z</time></trkpt><trkpt lat="37.7063683" lon="14.83995"><ele>631.3333333333334</ele><time>2026-03-22T10:01:43.782Z</time></trkpt><trkpt lat="37.7064667" lon="14.8399517"><ele>631.6666666666667</ele><time>2026-03-22T10:01:44.783Z</time></trkpt><trkpt lat="37.70656" lon="14.8399567"><ele>632.0</ele><time>2026-03-22T10:01:45.782Z</time></trkpt><trkpt lat="37.7066467" lon="14.8399567"><ele>632.3333333333334</ele><time>2026-03-22T10:01:46.782Z</time></trkpt><trkpt lat="37.7067233" lon="14.839955"><ele>632.6666666666666</ele><time>2026-03-22T10:01:47.783Z</time></trkpt><trkpt lat="37.7067967" lon="14.8399567"><ele>633.0</ele><time>2026-03-22T10:01:48.782Z</time></trkpt><trkpt lat="37.7068683" lon="14.8399567"><ele>634.0</ele><time>2026-03-22T10:01:49.782Z</time></trkpt><trkpt lat="37.7069733" lon="14.839955"><ele>635.0</ele><time>2026-03-22T10:01:51.782Z</time></trkpt><trkpt lat="37.707045" lon="14.839955"><ele>636.0</ele><time>2026-03-22T10:01:53.783Z</time></trkpt><trkpt lat="37.7071233" lon="14.839935"><ele>637.0</ele><time>2026-03-22T10:02:08.782Z</time></trkpt><trkpt lat="37.7072017" lon="14.83992"><ele>638.0</ele><time>2026-03-22T10:02:10.783Z</time></trkpt><trkpt lat="37.7073117" lon="14.83988"><ele>638.0</ele><time>2026-03-22T10:02:12.782Z</time></trkpt><trkpt lat="37.707385" lon="14.839845"><ele>638.0</ele><time>2026-03-22T10:02:13.782Z</time></trkpt><trkpt lat="37.7074667" lon="14.8398"><ele>638.0</ele><time>2026-03-22T10:02:14.783Z</time></trkpt><trkpt lat="37.7075533" lon="14.8397433"><ele>638.0</ele><time>2026-03-22T10:02:15.783Z</time></trkpt><trkpt lat="37.7076467" lon="14.839675"><ele>638.0</ele><time>2026-03-22T10:02:16.783Z</time></trkpt><trkpt lat="37.7077433" lon="14.8396067"><ele>638.75</ele><time>2026-03-22T10:02:17.783Z</time></trkpt><trkpt lat="37.707845" lon="14.8395317"><ele>639.5</ele><time>2026-03-22T10:02:18.782Z</time></trkpt><trkpt lat="37.70794" lon="14.8394533"><ele>640.25</ele><time>2026-03-22T10:02:19.782Z</time></trkpt><trkpt lat="37.708045" lon="14.8393717"><ele>641.0</ele><time>2026-03-22T10:02:20.782Z</time></trkpt><trkpt lat="37.708155" lon="14.8392783"><ele>641.75</ele><time>2026-03-22T10:02:21.782Z</time></trkpt><trkpt lat="37.7082683" lon="14.83919"><ele>642.5</ele><time>2026-03-22T10:02:22.782Z</time></trkpt><trkpt lat="37.70839" lon="14.8391067"><ele>643.25</ele><time>2026-03-22T10:02:23.782Z</time></trkpt><trkpt lat="37.7085133" lon="14.839015"><ele>644.0</ele><time>2026-03-22T10:02:24.783Z</time></trkpt><trkpt lat="37.7086383" lon="14.838915"><ele>645.0</ele><time>2026-03-22T10:02:25.783Z</time></trkpt><trkpt lat="37.7087633" lon="14.8388117"><ele>646.0</ele><time>2026-03-22T10:02:26.783Z</time></trkpt><trkpt lat="37.7088967" lon="14.83871"><ele>647.0</ele><time>2026-03-22T10:02:27.782Z</time></trkpt><trkpt lat="37.7090333" lon="14.83861"><ele>647.0</ele><time>2026-03-22T10:02:28.783Z</time></trkpt><trkpt lat="37.7091783" lon="14.83852"><ele>647.0</ele><time>2026-03-22T10:02:29.782Z</time></trkpt><trkpt lat="37.7093283" lon="14.8384317"><ele>647.0</ele><time>2026-03-22T10:02:30.782Z</time></trkpt><trkpt lat="37.709475" lon="14.83834"><ele>646.6666666666666</ele><time>2026-03-22T10:02:31.783Z</time></trkpt><trkpt lat="37.7096233" lon="14.83827"><ele>646.3333333333334</ele><time>2026-03-22T10:02:32.783Z</time></trkpt><trkpt lat="37.7097733" lon="14.83822"><ele>646.0</ele><time>2026-03-22T10:02:33.782Z</time></trkpt><trkpt lat="37.7099283" lon="14.83819"><ele>646.0</ele><time>2026-03-22T10:02:34.782Z</time></trkpt><trkpt lat="37.7100933" lon="14.83818"><ele>646.0</ele><time>2026-03-22T10:02:35.782Z</time></trkpt><trkpt lat="37.7102667" lon="14.838175"><ele>646.0</ele><time>2026-03-22T10:02:36.782Z</time></trkpt><trkpt lat="37.710445" lon="14.838185"><ele>645.3333333333334</ele><time>2026-03-22T10:02:37.783Z</time></trkpt><trkpt lat="37.7106217" lon="14.8381867"><ele>644.6666666666666</ele><time>2026-03-22T10:02:38.783Z</time></trkpt><trkpt lat="37.7108033" lon="14.8381833"><ele>644.0</ele><time>2026-03-22T10:02:39.782Z</time></trkpt><trkpt lat="37.71099" lon="14.83816"><ele>643.6666666666666</ele><time>2026-03-22T10:02:40.782Z</time></trkpt><trkpt lat="37.7111817" lon="14.838125"><ele>643.3333333333334</ele><time>2026-03-22T10:02:41.782Z</time></trkpt><trkpt lat="37.711375" lon="14.8380817"><ele>643.0</ele><time>2026-03-22T10:02:42.782Z</time></trkpt><trkpt lat="37.711575" lon="14.83804"><ele>643.0</ele><time>2026-03-22T10:02:43.782Z</time></trkpt><trkpt lat="37.711775" lon="14.838"><ele>643.0</ele><time>2026-03-22T10:02:44.782Z</time></trkpt><trkpt lat="37.7119817" lon="14.8379517"><ele>643.0</ele><time>2026-03-22T10:02:45.783Z</time></trkpt><trkpt lat="37.712185" lon="14.8379033"><ele>645.3333333333334</ele><time>2026-03-22T10:02:46.782Z</time></trkpt><trkpt lat="37.7123983" lon="14.8378417"><ele>647.6666666666666</ele><time>2026-03-22T10:02:47.783Z</time></trkpt><trkpt lat="37.7126033" lon="14.8377767"><ele>650.0</ele><time>2026-03-22T10:02:48.783Z</time></trkpt><trkpt lat="37.712805" lon="14.8376967"><ele>650.0</ele><time>2026-03-22T10:02:49.782Z</time></trkpt><trkpt lat="37.7130133" lon="14.8376067"><ele>650.0</ele><time>2026-03-22T10:02:50.782Z</time></trkpt><trkpt lat="37.71322" lon="14.8375217"><ele>650.0</ele><time>2026-03-22T10:02:51.782Z</time></trkpt><trkpt lat="37.7134267" lon="14.837435"><ele>651.6666666666666</ele><time>2026-03-22T10:02:52.783Z</time></trkpt><trkpt lat="37.713635" lon="14.83735"><ele>653.3333333333334</ele><time>2026-03-22T10:02:53.782Z</time></trkpt><trkpt lat="37.7138483" lon="14.8372733"><ele>655.0</ele><time>2026-03-22T10:02:54.782Z</time></trkpt><trkpt lat="37.714055" lon="14.8371933"><ele>655.0</ele><time>2026-03-22T10:02:55.783Z</time></trkpt><trkpt lat="37.7142517" lon="14.8371167"><ele>655.0</ele><time>2026-03-22T10:02:56.782Z</time></trkpt><trkpt lat="37.7144383" lon="14.837035"><ele>655.0</ele><time>2026-03-22T10:02:57.783Z</time></trkpt><trkpt lat="37.7146083" lon="14.8369367"><ele>656.0</ele><time>2026-03-22T10:02:58.782Z</time></trkpt><trkpt lat="37.7147717" lon="14.8368067"><ele>657.0</ele><time>2026-03-22T10:02:59.782Z</time></trkpt><trkpt lat="37.7149233" lon="14.8366667"><ele>658.0</ele><time>2026-03-22T10:03:00.783Z</time></trkpt><trkpt lat="37.7150783" lon="14.8365167"><ele>660.6666666666667</ele><time>2026-03-22T10:03:01.783Z</time></trkpt><trkpt lat="37.7152433" lon="14.8363633"><ele>663.3333333333334</ele><time>2026-03-22T10:03:02.783Z</time></trkpt><trkpt lat="37.71541" lon="14.83621"><ele>666.0</ele><time>2026-03-22T10:03:03.783Z</time></trkpt><trkpt lat="37.7155817" lon="14.8360467"><ele>664.6666666666666</ele><time>2026-03-22T10:03:04.783Z</time></trkpt><trkpt lat="37.7157517" lon="14.8359"><ele>663.3333333333333</ele><time>2026-03-22T10:03:05.783Z</time></trkpt><trkpt lat="37.7159233" lon="14.8357433"><ele>662.0</ele><time>2026-03-22T10:03:06.782Z</time></trkpt><trkpt lat="37.7160967" lon="14.8355817"><ele>662.0</ele><time>2026-03-22T10:03:07.782Z</time></trkpt><trkpt lat="37.7162733" lon="14.8354183"><ele>662.0</ele><time>2026-03-22T10:03:08.783Z</time></trkpt><trkpt lat="37.7164483" lon="14.8352467"><ele>662.0</ele><time>2026-03-22T10:03:09.783Z</time></trkpt><trkpt lat="37.71663" lon="14.835075"><ele>661.3333333333333</ele><time>2026-03-22T10:03:10.783Z</time></trkpt><trkpt lat="37.7168067" lon="14.8349083"><ele>660.6666666666666</ele><time>2026-03-22T10:03:11.783Z</time></trkpt><trkpt lat="37.71699" lon="14.834735"><ele>660.0</ele><time>2026-03-22T10:03:12.783Z</time></trkpt><trkpt lat="37.7171717" lon="14.83456"><ele>660.0</ele><time>2026-03-22T10:03:13.782Z</time></trkpt><trkpt lat="37.7173583" lon="14.8343817"><ele>660.0</ele><time>2026-03-22T10:03:14.782Z</time></trkpt><trkpt lat="37.7175417" lon="14.8342033"><ele>659.0</ele><time>2026-03-22T10:03:15.783Z</time></trkpt><trkpt lat="37.717725" lon="14.834025"><ele>658.0</ele><time>2026-03-22T10:03:16.782Z</time></trkpt><trkpt lat="37.717905" lon="14.8338567"><ele>658.0</ele><time>2026-03-22T10:03:17.783Z</time></trkpt><trkpt lat="37.7180833" lon="14.8337133"><ele>658.0</ele><time>2026-03-22T10:03:18.782Z</time></trkpt><trkpt lat="37.7182567" lon="14.8336017"><ele>658.0</ele><time>2026-03-22T10:03:19.783Z</time></trkpt><trkpt lat="37.7184367" lon="14.8335217"><ele>661.0</ele><time>2026-03-22T10:03:20.782Z</time></trkpt><trkpt lat="37.7186167" lon="14.83349"><ele>664.0</ele><time>2026-03-22T10:03:21.783Z</time></trkpt><trkpt lat="37.7187917" lon="14.8335083"><ele>667.0</ele><time>2026-03-22T10:03:22.782Z</time></trkpt><trkpt lat="37.7189733" lon="14.8335533"><ele>667.0</ele><time>2026-03-22T10:03:23.782Z</time></trkpt><trkpt lat="37.7191417" lon="14.83364"><ele>667.0</ele><time>2026-03-22T10:03:24.782Z</time></trkpt><trkpt lat="37.7192933" lon="14.8337517"><ele>667.0</ele><time>2026-03-22T10:03:25.783Z</time></trkpt><trkpt lat="37.71943" lon="14.8338967"><ele>667.6666666666667</ele><time>2026-03-22T10:03:26.782Z</time></trkpt><trkpt lat="37.71955" lon="14.8340667"><ele>668.3333333333334</ele><time>2026-03-22T10:03:27.782Z</time></trkpt><trkpt lat="37.719635" lon="14.8342567"><ele>669.0</ele><time>2026-03-22T10:03:28.782Z</time></trkpt><trkpt lat="37.7196833" lon="14.8344467"><ele>672.0</ele><time>2026-03-22T10:03:29.783Z</time></trkpt><trkpt lat="37.7197" lon="14.834645"><ele>675.0</ele><time>2026-03-22T10:03:30.782Z</time></trkpt><trkpt lat="37.71971" lon="14.834845"><ele>678.0</ele><time>2026-03-22T10:03:31.783Z</time></trkpt><trkpt lat="37.7197333" lon="14.8350383"><ele>680.6666666666666</ele><time>2026-03-22T10:03:32.782Z</time></trkpt><trkpt lat="37.71978" lon="14.8352217"><ele>683.3333333333333</ele><time>2026-03-22T10:03:33.782Z</time></trkpt><trkpt lat="37.7198617" lon="14.8353867"><ele>686.0</ele><time>2026-03-22T10:03:34.782Z</time></trkpt><trkpt lat="37.7199683" lon="14.835525"><ele>686.0</ele><time>2026-03-22T10:03:35.783Z</time></trkpt><trkpt lat="37.7200933" lon="14.83563"><ele>686.0</ele><time>2026-03-22T10:03:36.782Z</time></trkpt><trkpt lat="37.72023" lon="14.8357167"><ele>686.0</ele><time>2026-03-22T10:03:37.783Z</time></trkpt><trkpt lat="37.7203767" lon="14.8357883"><ele>686.3333333333333</ele><time>2026-03-22T10:03:38.783Z</time></trkpt><trkpt lat="37.7205317" lon="14.8358367"><ele>686.6666666666666</ele><time>2026-03-22T10:03:39.783Z</time></trkpt><trkpt lat="37.7206933" lon="14.8358517"><ele>687.0</ele><time>2026-03-22T10:03:40.783Z</time></trkpt><trkpt lat="37.7208533" lon="14.8358333"><ele>687.0</ele><time>2026-03-22T10:03:41.782Z</time></trkpt><trkpt lat="37.72101" lon="14.8357917"><ele>687.0</ele><time>2026-03-22T10:03:42.783Z</time></trkpt><trkpt lat="37.72117" lon="14.8357267"><ele>687.0</ele><time>2026-03-22T10:03:43.782Z</time></trkpt><trkpt lat="37.7213317" lon="14.8356567"><ele>692.6666666666666</ele><time>2026-03-22T10:03:44.783Z</time></trkpt><trkpt lat="37.7214967" lon="14.835585"><ele>698.3333333333333</ele><time>2026-03-22T10:03:45.782Z</time></trkpt><trkpt lat="37.7216633" lon="14.8355117"><ele>704.0</ele><time>2026-03-22T10:03:46.782Z</time></trkpt><trkpt lat="37.72183" lon="14.8354333"><ele>707.3333333333333</ele><time>2026-03-22T10:03:47.783Z</time></trkpt><trkpt lat="37.7219983" lon="14.8353567"><ele>710.6666666666666</ele><time>2026-03-22T10:03:48.783Z</time></trkpt><trkpt lat="37.722165" lon="14.8352767"><ele>714.0</ele><time>2026-03-22T10:03:49.782Z</time></trkpt><trkpt lat="37.722325" lon="14.8351883"><ele>713.6666666666666</ele><time>2026-03-22T10:03:50.782Z</time></trkpt><trkpt lat="37.722485" lon="14.835095"><ele>713.3333333333333</ele><time>2026-03-22T10:03:51.782Z</time></trkpt><trkpt lat="37.7226417" lon="14.8349983"><ele>713.0</ele><time>2026-03-22T10:03:52.783Z</time></trkpt><trkpt lat="37.7228017" lon="14.8349117"><ele>713.0</ele><time>2026-03-22T10:03:53.782Z</time></trkpt><trkpt lat="37.7229667" lon="14.8348383"><ele>713.0</ele><time>2026-03-22T10:03:54.783Z</time></trkpt><trkpt lat="37.7231333" lon="14.8347767"><ele>713.0</ele><time>2026-03-22T10:03:55.783Z</time></trkpt><trkpt lat="37.723305" lon="14.8347333"><ele>713.0</ele><time>2026-03-22T10:03:56.782Z</time></trkpt><trkpt lat="37.72348" lon="14.8347183"><ele>713.0</ele><time>2026-03-22T10:03:57.783Z</time></trkpt><trkpt lat="37.7236533" lon="14.8347233"><ele>713.0</ele><time>2026-03-22T10:03:58.782Z</time></trkpt><trkpt lat="37.7238283" lon="14.8347517"><ele>714.0</ele><time>2026-03-22T10:03:59.783Z</time></trkpt><trkpt lat="37.724005" lon="14.8347933"><ele>715.0</ele><time>2026-03-22T10:04:00.782Z</time></trkpt><trkpt lat="37.7241817" lon="14.8348333"><ele>716.0</ele><time>2026-03-22T10:04:01.783Z</time></trkpt><trkpt lat="37.7243617" lon="14.834865"><ele>716.6666666666666</ele><time>2026-03-22T10:04:02.783Z</time></trkpt><trkpt lat="37.7245467" lon="14.8348833"><ele>717.3333333333334</ele><time>2026-03-22T10:04:03.783Z</time></trkpt><trkpt lat="37.7247267" lon="14.834905"><ele>718.0</ele><time>2026-03-22T10:04:04.782Z</time></trkpt><trkpt lat="37.724905" lon="14.8349067"><ele>718.0</ele><time>2026-03-22T10:04:05.782Z</time></trkpt><trkpt lat="37.7250817" lon="14.8348967"><ele>718.0</ele><time>2026-03-22T10:04:06.783Z</time></trkpt><trkpt lat="37.72526" lon="14.8348567"><ele>718.0</ele><time>2026-03-22T10:04:07.783Z</time></trkpt><trkpt lat="37.725435" lon="14.834785"><ele>719.3333333333334</ele><time>2026-03-22T10:04:08.782Z</time></trkpt><trkpt lat="37.7256033" lon="14.834685"><ele>720.6666666666666</ele><time>2026-03-22T10:04:09.783Z</time></trkpt><trkpt lat="37.7257733" lon="14.8345767"><ele>722.0</ele><time>2026-03-22T10:04:10.783Z</time></trkpt><trkpt lat="37.7259467" lon="14.8344683"><ele>721.0</ele><time>2026-03-22T10:04:11.783Z</time></trkpt><trkpt lat="37.7261267" lon="14.8343567"><ele>720.0</ele><time>2026-03-22T10:04:12.783Z</time></trkpt><trkpt lat="37.7263067" lon="14.8342433"><ele>719.0</ele><time>2026-03-22T10:04:13.783Z</time></trkpt><trkpt lat="37.72649" lon="14.8341317"><ele>717.6666666666666</ele><time>2026-03-22T10:04:14.782Z</time></trkpt><trkpt lat="37.72667" lon="14.8340167"><ele>716.3333333333334</ele><time>2026-03-22T10:04:15.782Z</time></trkpt><trkpt lat="37.7268533" lon="14.8339033"><ele>715.0</ele><time>2026-03-22T10:04:16.782Z</time></trkpt><trkpt lat="37.727045" lon="14.8337817"><ele>715.0</ele><time>2026-03-22T10:04:17.782Z</time></trkpt><trkpt lat="37.7272333" lon="14.833655"><ele>715.0</ele><time>2026-03-22T10:04:18.782Z</time></trkpt><trkpt lat="37.727415" lon="14.83351"><ele>715.0</ele><time>2026-03-22T10:04:19.783Z</time></trkpt><trkpt lat="37.727585" lon="14.8333467"><ele>714.3333333333334</ele><time>2026-03-22T10:04:20.782Z</time></trkpt><trkpt lat="37.7277533" lon="14.8331583"><ele>713.6666666666666</ele><time>2026-03-22T10:04:21.783Z</time></trkpt><trkpt lat="37.7279167" lon="14.8329633"><ele>713.0</ele><time>2026-03-22T10:04:22.783Z</time></trkpt><trkpt lat="37.7280717" lon="14.8327767"><ele>710.3333333333333</ele><time>2026-03-22T10:04:23.782Z</time></trkpt><trkpt lat="37.7282233" lon="14.8325983"><ele>707.6666666666666</ele><time>2026-03-22T10:04:24.782Z</time></trkpt><trkpt lat="37.72837" lon="14.83243"><ele>705.0</ele><time>2026-03-22T10:04:25.783Z</time></trkpt><trkpt lat="37.7285167" lon="14.8322833"><ele>705.6666666666666</ele><time>2026-03-22T10:04:26.783Z</time></trkpt><trkpt lat="37.728675" lon="14.8321483"><ele>706.3333333333333</ele><time>2026-03-22T10:04:27.783Z</time></trkpt><trkpt lat="37.7288533" lon="14.8320317"><ele>707.0</ele><time>2026-03-22T10:04:28.783Z</time></trkpt><trkpt lat="37.7290367" lon="14.83193"><ele>707.0</ele><time>2026-03-22T10:04:29.783Z</time></trkpt><trkpt lat="37.7292317" lon="14.8318317"><ele>707.0</ele><time>2026-03-22T10:04:30.783Z</time></trkpt><trkpt lat="37.7294267" lon="14.8317383"><ele>707.0</ele><time>2026-03-22T10:04:31.783Z</time></trkpt><trkpt lat="37.72963" lon="14.8316433"><ele>707.3333333333333</ele><time>2026-03-22T10:04:32.782Z</time></trkpt><trkpt lat="37.72984" lon="14.8315417"><ele>707.6666666666666</ele><time>2026-03-22T10:04:33.783Z</time></trkpt><trkpt lat="37.73005" lon="14.8314417"><ele>708.0</ele><time>2026-03-22T10:04:34.783Z</time></trkpt><trkpt lat="37.7302617" lon="14.831335"><ele>708.0</ele><time>2026-03-22T10:04:35.782Z</time></trkpt><trkpt lat="37.730475" lon="14.8312283"><ele>708.0</ele><time>2026-03-22T10:04:36.783Z</time></trkpt><trkpt lat="37.7306917" lon="14.8311317"><ele>708.0</ele><time>2026-03-22T10:04:37.782Z</time></trkpt><trkpt lat="37.730905" lon="14.8310267"><ele>708.0</ele><time>2026-03-22T10:04:38.783Z</time></trkpt><trkpt lat="37.7311083" lon="14.8309233"><ele>708.0</ele><time>2026-03-22T10:04:39.782Z</time></trkpt><trkpt lat="37.731305" lon="14.830825"><ele>705.3333333333334</ele><time>2026-03-22T10:04:40.782Z</time></trkpt><trkpt lat="37.731485" lon="14.83075"><ele>702.6666666666667</ele><time>2026-03-22T10:04:41.783Z</time></trkpt><trkpt lat="37.73165" lon="14.8307017"><ele>700.0</ele><time>2026-03-22T10:04:42.783Z</time></trkpt><trkpt lat="37.7318067" lon="14.8306833"><ele>699.25</ele><time>2026-03-22T10:04:43.783Z</time></trkpt><trkpt lat="37.7319467" lon="14.8307017"><ele>698.5</ele><time>2026-03-22T10:04:44.782Z</time></trkpt><trkpt lat="37.732085" lon="14.8307633"><ele>697.75</ele><time>2026-03-22T10:04:45.783Z</time></trkpt><trkpt lat="37.7322267" lon="14.83085"><ele>697.0</ele><time>2026-03-22T10:04:46.783Z</time></trkpt><trkpt lat="37.73238" lon="14.8309217"><ele>697.0</ele><time>2026-03-22T10:04:47.782Z</time></trkpt><trkpt lat="37.7325433" lon="14.830965"><ele>697.0</ele><time>2026-03-22T10:04:48.783Z</time></trkpt><trkpt lat="37.7327067" lon="14.8309667"><ele>697.0</ele><time>2026-03-22T10:04:49.782Z</time></trkpt><trkpt lat="37.732875" lon="14.8309383"><ele>697.6666666666667</ele><time>2026-03-22T10:04:50.783Z</time></trkpt><trkpt lat="37.7330433" lon="14.8308967"><ele>698.3333333333334</ele><time>2026-03-22T10:04:51.782Z</time></trkpt><trkpt lat="37.7332133" lon="14.8308367"><ele>699.0</ele><time>2026-03-22T10:04:52.783Z</time></trkpt><trkpt lat="37.7333917" lon="14.8307617"><ele>700.0</ele><time>2026-03-22T10:04:53.782Z</time></trkpt><trkpt lat="37.7335583" lon="14.8306617"><ele>701.0</ele><time>2026-03-22T10:04:54.783Z</time></trkpt><trkpt lat="37.7337167" lon="14.8305433"><ele>702.0</ele><time>2026-03-22T10:04:55.783Z</time></trkpt><trkpt lat="37.7338683" lon="14.8304217"><ele>702.0</ele><time>2026-03-22T10:04:56.782Z</time></trkpt><trkpt lat="37.7340167" lon="14.830305"><ele>702.0</ele><time>2026-03-22T10:04:57.782Z</time></trkpt><trkpt lat="37.7341667" lon="14.8302167"><ele>702.0</ele><time>2026-03-22T10:04:58.782Z</time></trkpt><trkpt lat="37.7343267" lon="14.830155"><ele>702.6666666666666</ele><time>2026-03-22T10:04:59.782Z</time></trkpt><trkpt lat="37.734495" lon="14.8301333"><ele>703.3333333333333</ele><time>2026-03-22T10:05:00.782Z</time></trkpt><trkpt lat="37.7346717" lon="14.8301317"><ele>704.0</ele><time>2026-03-22T10:05:01.783Z</time></trkpt><trkpt lat="37.7348517" lon="14.830145"><ele>704.0</ele><time>2026-03-22T10:05:02.782Z</time></trkpt><trkpt lat="37.7350367" lon="14.8301533"><ele>704.0</ele><time>2026-03-22T10:05:03.782Z</time></trkpt><trkpt lat="37.7352217" lon="14.8301583"><ele>704.0</ele><time>2026-03-22T10:05:04.782Z</time></trkpt><trkpt lat="37.7354083" lon="14.8301467"><ele>702.0</ele><time>2026-03-22T10:05:05.782Z</time></trkpt><trkpt lat="37.7355983" lon="14.8301167"><ele>700.0</ele><time>2026-03-22T10:05:06.783Z</time></trkpt><trkpt lat="37.7357933" lon="14.830055"><ele>698.0</ele><time>2026-03-22T10:05:07.783Z</time></trkpt><trkpt lat="37.73598" lon="14.82998"><ele>699.6666666666666</ele><time>2026-03-22T10:05:08.782Z</time></trkpt><trkpt lat="37.7361667" lon="14.8298967"><ele>701.3333333333334</ele><time>2026-03-22T10:05:09.782Z</time></trkpt><trkpt lat="37.736365" lon="14.8298167"><ele>703.0</ele><time>2026-03-22T10:05:10.783Z</time></trkpt><trkpt lat="37.736565" lon="14.829745"><ele>703.0</ele><time>2026-03-22T10:05:11.783Z</time></trkpt><trkpt lat="37.7367633" lon="14.8296817"><ele>703.0</ele><time>2026-03-22T10:05:12.783Z</time></trkpt><trkpt lat="37.7369667" lon="14.8296233"><ele>703.0</ele><time>2026-03-22T10:05:13.783Z</time></trkpt><trkpt lat="37.7371733" lon="14.82957"><ele>705.3333333333334</ele><time>2026-03-22T10:05:14.782Z</time></trkpt><trkpt lat="37.7373733" lon="14.82952"><ele>707.6666666666666</ele><time>2026-03-22T10:05:15.782Z</time></trkpt><trkpt lat="37.737575" lon="14.8294683"><ele>710.0</ele><time>2026-03-22T10:05:16.783Z</time></trkpt><trkpt lat="37.73778" lon="14.8294183"><ele>710.6666666666666</ele><time>2026-03-22T10:05:17.783Z</time></trkpt><trkpt lat="37.7379867" lon="14.8293667"><ele>711.3333333333334</ele><time>2026-03-22T10:05:18.782Z</time></trkpt><trkpt lat="37.7381933" lon="14.829315"><ele>712.0</ele><time>2026-03-22T10:05:19.782Z</time></trkpt><trkpt lat="37.7384" lon="14.8292683"><ele>714.3333333333334</ele><time>2026-03-22T10:05:20.782Z</time></trkpt><trkpt lat="37.7386067" lon="14.829215"><ele>716.6666666666666</ele><time>2026-03-22T10:05:21.782Z</time></trkpt><trkpt lat="37.7388017" lon="14.8291567"><ele>719.0</ele><time>2026-03-22T10:05:22.783Z</time></trkpt><trkpt lat="37.7389917" lon="14.8290917"><ele>719.0</ele><time>2026-03-22T10:05:23.782Z</time></trkpt><trkpt lat="37.7391667" lon="14.829005"><ele>719.0</ele><time>2026-03-22T10:05:24.783Z</time></trkpt><trkpt lat="37.73933" lon="14.8289067"><ele>719.0</ele><time>2026-03-22T10:05:25.782Z</time></trkpt><trkpt lat="37.7394867" lon="14.8288167"><ele>721.0</ele><time>2026-03-22T10:05:26.782Z</time></trkpt><trkpt lat="37.739645" lon="14.82875"><ele>723.0</ele><time>2026-03-22T10:05:27.783Z</time></trkpt><trkpt lat="37.7398067" lon="14.8287133"><ele>725.0</ele><time>2026-03-22T10:05:28.782Z</time></trkpt><trkpt lat="37.7399683" lon="14.8287167"><ele>725.0</ele><time>2026-03-22T10:05:29.783Z</time></trkpt><trkpt lat="37.7401367" lon="14.828755"><ele>725.0</ele><time>2026-03-22T10:05:30.783Z</time></trkpt><trkpt lat="37.7403017" lon="14.8288167"><ele>725.0</ele><time>2026-03-22T10:05:31.783Z</time></trkpt><trkpt lat="37.7404567" lon="14.8288883"><ele>725.3333333333333</ele><time>2026-03-22T10:05:32.782Z</time></trkpt><trkpt lat="37.740615" lon="14.8289583"><ele>725.6666666666666</ele><time>2026-03-22T10:05:33.783Z</time></trkpt><trkpt lat="37.74077" lon="14.8290283"><ele>726.0</ele><time>2026-03-22T10:05:34.782Z</time></trkpt><trkpt lat="37.7409333" lon="14.8290917"><ele>727.3333333333334</ele><time>2026-03-22T10:05:35.782Z</time></trkpt><trkpt lat="37.7410933" lon="14.8291567"><ele>728.6666666666667</ele><time>2026-03-22T10:05:36.783Z</time></trkpt><trkpt lat="37.7412483" lon="14.8292283"><ele>730.0</ele><time>2026-03-22T10:05:37.782Z</time></trkpt><trkpt lat="37.7413983" lon="14.82932"><ele>732.6666666666667</ele><time>2026-03-22T10:05:38.782Z</time></trkpt><trkpt lat="37.7415317" lon="14.8294267"><ele>735.3333333333334</ele><time>2026-03-22T10:05:39.782Z</time></trkpt><trkpt lat="37.7416517" lon="14.8295583"><ele>738.0</ele><time>2026-03-22T10:05:40.783Z</time></trkpt><trkpt lat="37.7417667" lon="14.82971"><ele>738.0</ele><time>2026-03-22T10:05:41.782Z</time></trkpt><trkpt lat="37.7418667" lon="14.8298733"><ele>738.0</ele><time>2026-03-22T10:05:42.782Z</time></trkpt><trkpt lat="37.7419717" lon="14.8300383"><ele>738.0</ele><time>2026-03-22T10:05:43.783Z</time></trkpt><trkpt lat="37.74208" lon="14.83019"><ele>740.3333333333334</ele><time>2026-03-22T10:05:44.783Z</time></trkpt><trkpt lat="37.7422017" lon="14.8303283"><ele>742.6666666666667</ele><time>2026-03-22T10:05:45.783Z</time></trkpt><trkpt lat="37.7423383" lon="14.8304533"><ele>745.0</ele><time>2026-03-22T10:05:46.783Z</time></trkpt><trkpt lat="37.74248" lon="14.8305567"><ele>745.0</ele><time>2026-03-22T10:05:47.783Z</time></trkpt><trkpt lat="37.7426283" lon="14.8306383"><ele>745.0</ele><time>2026-03-22T10:05:48.783Z</time></trkpt><trkpt lat="37.7427883" lon="14.8306983"><ele>745.0</ele><time>2026-03-22T10:05:49.783Z</time></trkpt><trkpt lat="37.742955" lon="14.8307283"><ele>746.6666666666667</ele><time>2026-03-22T10:05:50.783Z</time></trkpt><trkpt lat="37.743125" lon="14.8307317"><ele>748.3333333333334</ele><time>2026-03-22T10:05:51.782Z</time></trkpt><trkpt lat="37.743295" lon="14.83071"><ele>750.0</ele><time>2026-03-22T10:05:52.783Z</time></trkpt><trkpt lat="37.7434667" lon="14.83068"><ele>750.3333333333334</ele><time>2026-03-22T10:05:53.782Z</time></trkpt><trkpt lat="37.7436433" lon="14.83064"><ele>750.6666666666667</ele><time>2026-03-22T10:05:54.783Z</time></trkpt><trkpt lat="37.7438267" lon="14.8306017"><ele>751.0</ele><time>2026-03-22T10:05:55.783Z</time></trkpt><trkpt lat="37.7440067" lon="14.8305567"><ele>751.0</ele><time>2026-03-22T10:05:56.782Z</time></trkpt><trkpt lat="37.7441867" lon="14.8304933"><ele>751.0</ele><time>2026-03-22T10:05:57.783Z</time></trkpt><trkpt lat="37.7443683" lon="14.8304167"><ele>751.0</ele><time>2026-03-22T10:05:58.783Z</time></trkpt><trkpt lat="37.7445517" lon="14.8303267"><ele>752.3333333333334</ele><time>2026-03-22T10:05:59.782Z</time></trkpt><trkpt lat="37.7447317" lon="14.83022"><ele>753.6666666666666</ele><time>2026-03-22T10:06:00.782Z</time></trkpt><trkpt lat="37.7449067" lon="14.8300983"><ele>755.0</ele><time>2026-03-22T10:06:01.783Z</time></trkpt><trkpt lat="37.74508" lon="14.82996"><ele>754.3333333333333</ele><time>2026-03-22T10:06:02.782Z</time></trkpt><trkpt lat="37.74525" lon="14.8298167"><ele>753.6666666666666</ele><time>2026-03-22T10:06:03.783Z</time></trkpt><trkpt lat="37.7454233" lon="14.8296733"><ele>753.0</ele><time>2026-03-22T10:06:04.783Z</time></trkpt><trkpt lat="37.7455983" lon="14.82953"><ele>753.0</ele><time>2026-03-22T10:06:05.782Z</time></trkpt><trkpt lat="37.7457717" lon="14.8293817"><ele>753.0</ele><time>2026-03-22T10:06:06.783Z</time></trkpt><trkpt lat="37.745945" lon="14.82924"><ele>753.0</ele><time>2026-03-22T10:06:07.782Z</time></trkpt><trkpt lat="37.7461083" lon="14.8290967"><ele>752.3333333333334</ele><time>2026-03-22T10:06:08.782Z</time></trkpt><trkpt lat="37.7462717" lon="14.8289667"><ele>751.6666666666667</ele><time>2026-03-22T10:06:09.782Z</time></trkpt><trkpt lat="37.746435" lon="14.8288317"><ele>751.0</ele><time>2026-03-22T10:06:10.782Z</time></trkpt><trkpt lat="37.7465933" lon="14.8286933"><ele>751.0</ele><time>2026-03-22T10:06:11.782Z</time></trkpt><trkpt lat="37.74675" lon="14.8285467"><ele>751.0</ele><time>2026-03-22T10:06:12.782Z</time></trkpt><trkpt lat="37.746905" lon="14.8283917"><ele>751.0</ele><time>2026-03-22T10:06:13.783Z</time></trkpt><trkpt lat="37.74706" lon="14.82823"><ele>750.6666666666667</ele><time>2026-03-22T10:06:14.783Z</time></trkpt><trkpt lat="37.7472167" lon="14.828065"><ele>750.3333333333334</ele><time>2026-03-22T10:06:15.783Z</time></trkpt><trkpt lat="37.747375" lon="14.827905"><ele>750.0</ele><time>2026-03-22T10:06:16.782Z</time></trkpt><trkpt lat="37.747535" lon="14.82774"><ele>749.0</ele><time>2026-03-22T10:06:17.783Z</time></trkpt><trkpt lat="37.7476933" lon="14.8275817"><ele>748.0</ele><time>2026-03-22T10:06:18.783Z</time></trkpt><trkpt lat="37.7478567" lon="14.8274333"><ele>747.0</ele><time>2026-03-22T10:06:19.782Z</time></trkpt><trkpt lat="37.7480317" lon="14.8272883"><ele>747.0</ele><time>2026-03-22T10:06:20.783Z</time></trkpt><trkpt lat="37.748215" lon="14.8271483"><ele>747.0</ele><time>2026-03-22T10:06:21.782Z</time></trkpt><trkpt lat="37.7484033" lon="14.8270033"><ele>747.0</ele><time>2026-03-22T10:06:22.783Z</time></trkpt><trkpt lat="37.7485917" lon="14.8268583"><ele>745.3333333333334</ele><time>2026-03-22T10:06:23.782Z</time></trkpt><trkpt lat="37.748775" lon="14.8267117"><ele>743.6666666666667</ele><time>2026-03-22T10:06:24.783Z</time></trkpt><trkpt lat="37.7489567" lon="14.8265717"><ele>742.0</ele><time>2026-03-22T10:06:25.783Z</time></trkpt><trkpt lat="37.7491367" lon="14.826435"><ele>742.0</ele><time>2026-03-22T10:06:26.782Z</time></trkpt><trkpt lat="37.7493167" lon="14.826305"><ele>742.0</ele><time>2026-03-22T10:06:27.783Z</time></trkpt><trkpt lat="37.7494933" lon="14.8261867"><ele>742.0</ele><time>2026-03-22T10:06:28.782Z</time></trkpt><trkpt lat="37.7496617" lon="14.8260717"><ele>739.6666666666667</ele><time>2026-03-22T10:06:29.783Z</time></trkpt><trkpt lat="37.7498267" lon="14.825955"><ele>737.3333333333334</ele><time>2026-03-22T10:06:30.783Z</time></trkpt><trkpt lat="37.7499817" lon="14.8258383"><ele>735.0</ele><time>2026-03-22T10:06:31.782Z</time></trkpt><trkpt lat="37.75013" lon="14.825705"><ele>734.0</ele><time>2026-03-22T10:06:32.783Z</time></trkpt><trkpt lat="37.75027" lon="14.825545"><ele>733.0</ele><time>2026-03-22T10:06:33.783Z</time></trkpt><trkpt lat="37.7503967" lon="14.8253683"><ele>732.0</ele><time>2026-03-22T10:06:34.783Z</time></trkpt><trkpt lat="37.7505033" lon="14.825215"><ele>731.0</ele><time>2026-03-22T10:06:35.782Z</time></trkpt><trkpt lat="37.7506183" lon="14.825075"><ele>730.0</ele><time>2026-03-22T10:06:36.782Z</time></trkpt><trkpt lat="37.7507517" lon="14.824945"><ele>729.0</ele><time>2026-03-22T10:06:37.782Z</time></trkpt><trkpt lat="37.7509067" lon="14.8248283"><ele>726.0</ele><time>2026-03-22T10:06:38.782Z</time></trkpt><trkpt lat="37.75107" lon="14.8247283"><ele>723.0</ele><time>2026-03-22T10:06:39.783Z</time></trkpt><trkpt lat="37.7512383" lon="14.8246567"><ele>720.0</ele><time>2026-03-22T10:06:40.783Z</time></trkpt><trkpt lat="37.7514217" lon="14.8246133"><ele>720.0</ele><time>2026-03-22T10:06:41.782Z</time></trkpt><trkpt lat="37.751615" lon="14.8245983"><ele>720.0</ele><time>2026-03-22T10:06:42.782Z</time></trkpt><trkpt lat="37.7518083" lon="14.824605"><ele>720.0</ele><time>2026-03-22T10:06:43.783Z</time></trkpt><trkpt lat="37.752005" lon="14.824625"><ele>721.0</ele><time>2026-03-22T10:06:44.783Z</time></trkpt><trkpt lat="37.7522017" lon="14.8246483"><ele>722.0</ele><time>2026-03-22T10:06:45.783Z</time></trkpt><trkpt lat="37.752395" lon="14.8246767"><ele>723.0</ele><time>2026-03-22T10:06:46.783Z</time></trkpt><trkpt lat="37.75259" lon="14.8246983"><ele>724.6666666666666</ele><time>2026-03-22T10:06:47.783Z</time></trkpt><trkpt lat="37.7527917" lon="14.82472"><ele>726.3333333333333</ele><time>2026-03-22T10:06:48.782Z</time></trkpt><trkpt lat="37.75299" lon="14.8247383"><ele>728.0</ele><time>2026-03-22T10:06:49.782Z</time></trkpt><trkpt lat="37.7531767" lon="14.8247617"><ele>728.0</ele><time>2026-03-22T10:06:50.782Z</time></trkpt><trkpt lat="37.7533583" lon="14.82479"><ele>728.0</ele><time>2026-03-22T10:06:51.782Z</time></trkpt><trkpt lat="37.75354" lon="14.8248167"><ele>728.0</ele><time>2026-03-22T10:06:52.783Z</time></trkpt><trkpt lat="37.753725" lon="14.8248517"><ele>729.0</ele><time>2026-03-22T10:06:53.782Z</time></trkpt><trkpt lat="37.7539083" lon="14.8249117"><ele>730.0</ele><time>2026-03-22T10:06:54.783Z</time></trkpt><trkpt lat="37.7540917" lon="14.8249933"><ele>731.0</ele><time>2026-03-22T10:06:55.782Z</time></trkpt><trkpt lat="37.754265" lon="14.8251017"><ele>734.6666666666666</ele><time>2026-03-22T10:06:56.783Z</time></trkpt><trkpt lat="37.754435" lon="14.825225"><ele>738.3333333333334</ele><time>2026-03-22T10:06:57.783Z</time></trkpt><trkpt lat="37.7546017" lon="14.82535"><ele>742.0</ele><time>2026-03-22T10:06:58.782Z</time></trkpt><trkpt lat="37.754765" lon="14.82548"><ele>742.0</ele><time>2026-03-22T10:06:59.782Z</time></trkpt><trkpt lat="37.7549267" lon="14.8256083"><ele>742.0</ele><time>2026-03-22T10:07:00.783Z</time></trkpt><trkpt lat="37.75509" lon="14.8257433"><ele>742.0</ele><time>2026-03-22T10:07:01.782Z</time></trkpt><trkpt lat="37.7552517" lon="14.8258767"><ele>743.3333333333334</ele><time>2026-03-22T10:07:02.783Z</time></trkpt><trkpt lat="37.755415" lon="14.8260017"><ele>744.6666666666666</ele><time>2026-03-22T10:07:03.783Z</time></trkpt><trkpt lat="37.7555817" lon="14.8261217"><ele>746.0</ele><time>2026-03-22T10:07:04.782Z</time></trkpt><trkpt lat="37.7557533" lon="14.826235"><ele>746.0</ele><time>2026-03-22T10:07:05.782Z</time></trkpt><trkpt lat="37.7559267" lon="14.8263367"><ele>746.0</ele><time>2026-03-22T10:07:06.782Z</time></trkpt><trkpt lat="37.7561083" lon="14.8264233"><ele>746.0</ele><time>2026-03-22T10:07:07.782Z</time></trkpt><trkpt lat="37.7562967" lon="14.8264983"><ele>746.6666666666666</ele><time>2026-03-22T10:07:08.783Z</time></trkpt><trkpt lat="37.7564917" lon="14.826555"><ele>747.3333333333334</ele><time>2026-03-22T10:07:09.782Z</time></trkpt><trkpt lat="37.7566967" lon="14.826595"><ele>748.0</ele><time>2026-03-22T10:07:10.783Z</time></trkpt><trkpt lat="37.7568983" lon="14.82662"><ele>748.0</ele><time>2026-03-22T10:07:11.783Z</time></trkpt><trkpt lat="37.7570967" lon="14.8266283"><ele>748.0</ele><time>2026-03-22T10:07:12.783Z</time></trkpt><trkpt lat="37.7573017" lon="14.8266133"><ele>748.0</ele><time>2026-03-22T10:07:13.782Z</time></trkpt><trkpt lat="37.7575017" lon="14.8265783"><ele>749.3333333333334</ele><time>2026-03-22T10:07:14.783Z</time></trkpt><trkpt lat="37.757705" lon="14.8265317"><ele>750.6666666666666</ele><time>2026-03-22T10:07:15.782Z</time></trkpt><trkpt lat="37.7579033" lon="14.8264683"><ele>752.0</ele><time>2026-03-22T10:07:16.783Z</time></trkpt><trkpt lat="37.7581" lon="14.826395"><ele>752.0</ele><time>2026-03-22T10:07:17.782Z</time></trkpt><trkpt lat="37.7582967" lon="14.8263"><ele>752.0</ele><time>2026-03-22T10:07:18.783Z</time></trkpt><trkpt lat="37.7584983" lon="14.8262"><ele>752.0</ele><time>2026-03-22T10:07:19.782Z</time></trkpt><trkpt lat="37.7587017" lon="14.8261033"><ele>753.6666666666666</ele><time>2026-03-22T10:07:20.783Z</time></trkpt><trkpt lat="37.7589033" lon="14.8259983"><ele>755.3333333333334</ele><time>2026-03-22T10:07:21.782Z</time></trkpt><trkpt lat="37.7590983" lon="14.8258983"><ele>757.0</ele><time>2026-03-22T10:07:22.783Z</time></trkpt><trkpt lat="37.7592917" lon="14.8257967"><ele>755.6666666666667</ele><time>2026-03-22T10:07:23.783Z</time></trkpt><trkpt lat="37.75948" lon="14.8257083"><ele>754.3333333333334</ele><time>2026-03-22T10:07:24.783Z</time></trkpt><trkpt lat="37.7596767" lon="14.8256233"><ele>753.0</ele><time>2026-03-22T10:07:25.782Z</time></trkpt><trkpt lat="37.7598717" lon="14.8255467"><ele>753.0</ele><time>2026-03-22T10:07:26.783Z</time></trkpt><trkpt lat="37.7600683" lon="14.825475"><ele>753.0</ele><time>2026-03-22T10:07:27.783Z</time></trkpt><trkpt lat="37.760275" lon="14.825415"><ele>753.0</ele><time>2026-03-22T10:07:28.783Z</time></trkpt><trkpt lat="37.76049" lon="14.8253533"><ele>752.6666666666666</ele><time>2026-03-22T10:07:29.782Z</time></trkpt><trkpt lat="37.7607" lon="14.8252983"><ele>752.3333333333333</ele><time>2026-03-22T10:07:30.782Z</time></trkpt><trkpt lat="37.7609067" lon="14.8252483"><ele>752.0</ele><time>2026-03-22T10:07:31.783Z</time></trkpt><trkpt lat="37.7611133" lon="14.8252017"><ele>752.0</ele><time>2026-03-22T10:07:32.783Z</time></trkpt><trkpt lat="37.7613133" lon="14.82515"><ele>752.0</ele><time>2026-03-22T10:07:33.782Z</time></trkpt><trkpt lat="37.76151" lon="14.8250933"><ele>752.0</ele><time>2026-03-22T10:07:34.783Z</time></trkpt><trkpt lat="37.7616983" lon="14.8250283"><ele>748.6666666666666</ele><time>2026-03-22T10:07:35.783Z</time></trkpt><trkpt lat="37.761885" lon="14.8249567"><ele>745.3333333333334</ele><time>2026-03-22T10:07:36.782Z</time></trkpt><trkpt lat="37.7620717" lon="14.8248767"><ele>742.0</ele><time>2026-03-22T10:07:37.783Z</time></trkpt><trkpt lat="37.7622533" lon="14.8247883"><ele>742.0</ele><time>2026-03-22T10:07:38.783Z</time></trkpt><trkpt lat="37.7624233" lon="14.82469"><ele>742.0</ele><time>2026-03-22T10:07:39.782Z</time></trkpt><trkpt lat="37.7625917" lon="14.8245933"><ele>742.0</ele><time>2026-03-22T10:07:40.783Z</time></trkpt><trkpt lat="37.7627617" lon="14.82449"><ele>742.6666666666667</ele><time>2026-03-22T10:07:41.782Z</time></trkpt><trkpt lat="37.7629333" lon="14.8243867"><ele>743.3333333333334</ele><time>2026-03-22T10:07:42.783Z</time></trkpt><trkpt lat="37.7631083" lon="14.82428"><ele>744.0</ele><time>2026-03-22T10:07:43.782Z</time></trkpt><trkpt lat="37.7632867" lon="14.8241767"><ele>744.0</ele><time>2026-03-22T10:07:44.783Z</time></trkpt><trkpt lat="37.7634633" lon="14.8241067"><ele>744.0</ele><time>2026-03-22T10:07:45.782Z</time></trkpt><trkpt lat="37.76365" lon="14.824005"><ele>744.0</ele><time>2026-03-22T10:07:46.783Z</time></trkpt><trkpt lat="37.7638483" lon="14.8238883"><ele>739.5</ele><time>2026-03-22T10:07:47.783Z</time></trkpt><trkpt lat="37.7640517" lon="14.8237717"><ele>735.0</ele><time>2026-03-22T10:07:48.782Z</time></trkpt><trkpt lat="37.7642633" lon="14.8236417"><ele>731.5</ele><time>2026-03-22T10:07:49.783Z</time></trkpt><trkpt lat="37.7644883" lon="14.823535"><ele>728.0</ele><time>2026-03-22T10:07:50.783Z</time></trkpt><trkpt lat="37.764715" lon="14.8234417"><ele>723.0</ele><time>2026-03-22T10:07:51.782Z</time></trkpt><trkpt lat="37.7649483" lon="14.8233633"><ele>718.0</ele><time>2026-03-22T10:07:52.782Z</time></trkpt><trkpt lat="37.7651967" lon="14.8232883"><ele>717.0</ele><time>2026-03-22T10:07:53.782Z</time></trkpt><trkpt lat="37.76545" lon="14.8232067"><ele>716.0</ele><time>2026-03-22T10:07:54.782Z</time></trkpt><trkpt lat="37.7656933" lon="14.8231317"><ele>716.0</ele><time>2026-03-22T10:07:55.783Z</time></trkpt><trkpt lat="37.7659433" lon="14.823055"><ele>716.0</ele><time>2026-03-22T10:07:56.782Z</time></trkpt><trkpt lat="37.7661833" lon="14.82298"><ele>717.5</ele><time>2026-03-22T10:07:57.783Z</time></trkpt><trkpt lat="37.7664083" lon="14.8229117"><ele>719.0</ele><time>2026-03-22T10:07:58.783Z</time></trkpt><trkpt lat="37.7666267" lon="14.8228467"><ele>719.0</ele><time>2026-03-22T10:07:59.783Z</time></trkpt><trkpt lat="37.76684" lon="14.82279"><ele>719.0</ele><time>2026-03-22T10:08:00.782Z</time></trkpt><trkpt lat="37.7670517" lon="14.8227433"><ele>719.0</ele><time>2026-03-22T10:08:01.783Z</time></trkpt><trkpt lat="37.7672683" lon="14.822725"><ele>717.6666666666666</ele><time>2026-03-22T10:08:02.782Z</time></trkpt><trkpt lat="37.76749" lon="14.8227283"><ele>716.3333333333334</ele><time>2026-03-22T10:08:03.782Z</time></trkpt><trkpt lat="37.7677083" lon="14.82276"><ele>715.0</ele><time>2026-03-22T10:08:04.783Z</time></trkpt><trkpt lat="37.767935" lon="14.822815"><ele>713.0</ele><time>2026-03-22T10:08:05.782Z</time></trkpt><trkpt lat="37.7681583" lon="14.822875"><ele>711.0</ele><time>2026-03-22T10:08:06.783Z</time></trkpt><trkpt lat="37.7683867" lon="14.82293"><ele>712.0</ele><time>2026-03-22T10:08:07.782Z</time></trkpt><trkpt lat="37.76861" lon="14.822995"><ele>713.0</ele><time>2026-03-22T10:08:08.782Z</time></trkpt><trkpt lat="37.7688217" lon="14.8230633"><ele>714.0</ele><time>2026-03-22T10:08:09.782Z</time></trkpt><trkpt lat="37.7690233" lon="14.8231267"><ele>714.0</ele><time>2026-03-22T10:08:10.783Z</time></trkpt><trkpt lat="37.7692183" lon="14.8231933"><ele>714.0</ele><time>2026-03-22T10:08:11.782Z</time></trkpt><trkpt lat="37.7694083" lon="14.8232783"><ele>714.0</ele><time>2026-03-22T10:08:12.783Z</time></trkpt><trkpt lat="37.76959" lon="14.8233933"><ele>715.6666666666666</ele><time>2026-03-22T10:08:13.782Z</time></trkpt><trkpt lat="37.76977" lon="14.8235283"><ele>717.3333333333333</ele><time>2026-03-22T10:08:14.782Z</time></trkpt><trkpt lat="37.7699433" lon="14.8236817"><ele>719.0</ele><time>2026-03-22T10:08:15.783Z</time></trkpt><trkpt lat="37.7701" lon="14.8238517"><ele>718.6666666666666</ele><time>2026-03-22T10:08:16.782Z</time></trkpt><trkpt lat="37.770255" lon="14.8240317"><ele>718.3333333333334</ele><time>2026-03-22T10:08:17.782Z</time></trkpt><trkpt lat="37.770405" lon="14.8242233"><ele>718.0</ele><time>2026-03-22T10:08:18.782Z</time></trkpt><trkpt lat="37.77056" lon="14.8244083"><ele>718.0</ele><time>2026-03-22T10:08:19.783Z</time></trkpt><trkpt lat="37.770705" lon="14.8245933"><ele>718.0</ele><time>2026-03-22T10:08:20.782Z</time></trkpt><trkpt lat="37.7708633" lon="14.8247583"><ele>718.0</ele><time>2026-03-22T10:08:21.783Z</time></trkpt><trkpt lat="37.7710317" lon="14.8249167"><ele>717.3333333333334</ele><time>2026-03-22T10:08:22.782Z</time></trkpt><trkpt lat="37.7712167" lon="14.8250567"><ele>716.6666666666666</ele><time>2026-03-22T10:08:23.782Z</time></trkpt><trkpt lat="37.771405" lon="14.8251767"><ele>716.0</ele><time>2026-03-22T10:08:24.782Z</time></trkpt><trkpt lat="37.7715983" lon="14.8252683"><ele>718.3333333333333</ele><time>2026-03-22T10:08:25.783Z</time></trkpt><trkpt lat="37.7718067" lon="14.825345"><ele>720.6666666666666</ele><time>2026-03-22T10:08:26.783Z</time></trkpt><trkpt lat="37.77202" lon="14.8254033"><ele>723.0</ele><time>2026-03-22T10:08:27.783Z</time></trkpt><trkpt lat="37.7722367" lon="14.82546"><ele>723.0</ele><time>2026-03-22T10:08:28.782Z</time></trkpt><trkpt lat="37.7724533" lon="14.825515"><ele>723.0</ele><time>2026-03-22T10:08:29.782Z</time></trkpt><trkpt lat="37.7726717" lon="14.8255717"><ele>723.0</ele><time>2026-03-22T10:08:30.783Z</time></trkpt><trkpt lat="37.772895" lon="14.82563"><ele>723.0</ele><time>2026-03-22T10:08:31.783Z</time></trkpt><trkpt lat="37.7731217" lon="14.82568"><ele>723.0</ele><time>2026-03-22T10:08:32.783Z</time></trkpt><trkpt lat="37.7733367" lon="14.8257367"><ele>724.0</ele><time>2026-03-22T10:08:33.783Z</time></trkpt><trkpt lat="37.773555" lon="14.825795"><ele>725.0</ele><time>2026-03-22T10:08:34.782Z</time></trkpt><trkpt lat="37.7737767" lon="14.8258467"><ele>726.0</ele><time>2026-03-22T10:08:35.783Z</time></trkpt><trkpt lat="37.7739983" lon="14.8258983"><ele>726.0</ele><time>2026-03-22T10:08:36.782Z</time></trkpt><trkpt lat="37.7742183" lon="14.825945"><ele>726.0</ele><time>2026-03-22T10:08:37.782Z</time></trkpt><trkpt lat="37.77443" lon="14.8260017"><ele>726.0</ele><time>2026-03-22T10:08:38.782Z</time></trkpt><trkpt lat="37.7746467" lon="14.82606"><ele>728.6666666666666</ele><time>2026-03-22T10:08:39.782Z</time></trkpt><trkpt lat="37.7748617" lon="14.8261117"><ele>731.3333333333333</ele><time>2026-03-22T10:08:40.782Z</time></trkpt><trkpt lat="37.7750617" lon="14.826165"><ele>734.0</ele><time>2026-03-22T10:08:41.783Z</time></trkpt><trkpt lat="37.7752717" lon="14.8262067"><ele>734.0</ele><time>2026-03-22T10:08:42.782Z</time></trkpt><trkpt lat="37.7754783" lon="14.826245"><ele>734.0</ele><time>2026-03-22T10:08:43.783Z</time></trkpt><trkpt lat="37.77569" lon="14.8262733"><ele>734.0</ele><time>2026-03-22T10:08:44.782Z</time></trkpt><trkpt lat="37.7758867" lon="14.82628"><ele>737.3333333333333</ele><time>2026-03-22T10:08:45.782Z</time></trkpt><trkpt lat="37.7760767" lon="14.826265"><ele>740.6666666666666</ele><time>2026-03-22T10:08:46.783Z</time></trkpt><trkpt lat="37.77627" lon="14.8262267"><ele>744.0</ele><time>2026-03-22T10:08:47.783Z</time></trkpt><trkpt lat="37.7764567" lon="14.8261717"><ele>744.0</ele><time>2026-03-22T10:08:48.782Z</time></trkpt><trkpt lat="37.7766383" lon="14.826095"><ele>744.0</ele><time>2026-03-22T10:08:49.783Z</time></trkpt><trkpt lat="37.7768117" lon="14.825995"><ele>744.0</ele><time>2026-03-22T10:08:50.782Z</time></trkpt><trkpt lat="37.7769767" lon="14.82588"><ele>749.6666666666666</ele><time>2026-03-22T10:08:51.783Z</time></trkpt><trkpt lat="37.7771283" lon="14.8257733"><ele>755.3333333333333</ele><time>2026-03-22T10:08:52.783Z</time></trkpt><trkpt lat="37.7772733" lon="14.8256517"><ele>761.0</ele><time>2026-03-22T10:08:53.783Z</time></trkpt><trkpt lat="37.7774033" lon="14.8255367"><ele>761.0</ele><time>2026-03-22T10:08:54.783Z</time></trkpt><trkpt lat="37.7775167" lon="14.825425"><ele>761.0</ele><time>2026-03-22T10:08:55.782Z</time></trkpt><trkpt lat="37.7775867" lon="14.825385"><ele>761.0</ele><time>2026-03-22T10:08:56.782Z</time></trkpt><trkpt lat="37.77772" lon="14.8252933"><ele>761.0</ele><time>2026-03-22T10:08:57.782Z</time></trkpt><trkpt lat="37.777875" lon="14.8251983"><ele>757.3333333333333</ele><time>2026-03-22T10:08:58.783Z</time></trkpt><trkpt lat="37.7780367" lon="14.8251133"><ele>753.6666666666666</ele><time>2026-03-22T10:08:59.783Z</time></trkpt><trkpt lat="37.7782067" lon="14.8250317"><ele>750.0</ele><time>2026-03-22T10:09:00.782Z</time></trkpt><trkpt lat="37.7783767" lon="14.82496"><ele>752.3333333333334</ele><time>2026-03-22T10:09:01.783Z</time></trkpt><trkpt lat="37.7785533" lon="14.8248933"><ele>754.6666666666667</ele><time>2026-03-22T10:09:02.783Z</time></trkpt><trkpt lat="37.7787417" lon="14.8248367"><ele>757.0</ele><time>2026-03-22T10:09:03.783Z</time></trkpt><trkpt lat="37.7789317" lon="14.8247917"><ele>757.0</ele><time>2026-03-22T10:09:04.782Z</time></trkpt><trkpt lat="37.77912" lon="14.8247483"><ele>757.0</ele><time>2026-03-22T10:09:05.783Z</time></trkpt><trkpt lat="37.7793167" lon="14.8247117"><ele>757.0</ele><time>2026-03-22T10:09:06.782Z</time></trkpt><trkpt lat="37.7795117" lon="14.8246817"><ele>760.3333333333334</ele><time>2026-03-22T10:09:07.783Z</time></trkpt><trkpt lat="37.7797083" lon="14.8246683"><ele>763.6666666666666</ele><time>2026-03-22T10:09:08.782Z</time></trkpt><trkpt lat="37.7798983" lon="14.8246717"><ele>767.0</ele><time>2026-03-22T10:09:09.782Z</time></trkpt><trkpt lat="37.7800917" lon="14.824695"><ele>766.0</ele><time>2026-03-22T10:09:10.782Z</time></trkpt><trkpt lat="37.7802817" lon="14.8247133"><ele>765.0</ele><time>2026-03-22T10:09:11.783Z</time></trkpt><trkpt lat="37.7804967" lon="14.824745"><ele>764.0</ele><time>2026-03-22T10:09:12.782Z</time></trkpt><trkpt lat="37.780695" lon="14.8247733"><ele>764.0</ele><time>2026-03-22T10:09:13.783Z</time></trkpt><trkpt lat="37.780885" lon="14.8247867"><ele>764.0</ele><time>2026-03-22T10:09:14.782Z</time></trkpt><trkpt lat="37.7810783" lon="14.8248267"><ele>764.0</ele><time>2026-03-22T10:09:15.783Z</time></trkpt><trkpt lat="37.7811767" lon="14.82504"><ele>766.6666666666666</ele><time>2026-03-22T10:09:16.782Z</time></trkpt><trkpt lat="37.781195" lon="14.8253183"><ele>769.3333333333333</ele><time>2026-03-22T10:09:17.783Z</time></trkpt><trkpt lat="37.7813033" lon="14.8254383"><ele>772.0</ele><time>2026-03-22T10:09:18.782Z</time></trkpt><trkpt lat="37.781415" lon="14.8255117"><ele>772.0</ele><time>2026-03-22T10:09:19.783Z</time></trkpt><trkpt lat="37.7815317" lon="14.8255667"><ele>772.0</ele><time>2026-03-22T10:09:20.783Z</time></trkpt><trkpt lat="37.7816667" lon="14.8255933"><ele>772.0</ele><time>2026-03-22T10:09:21.782Z</time></trkpt><trkpt lat="37.7817983" lon="14.8256067"><ele>772.0</ele><time>2026-03-22T10:09:22.783Z</time></trkpt><trkpt lat="37.7819267" lon="14.8256"><ele>772.0</ele><time>2026-03-22T10:09:23.783Z</time></trkpt><trkpt lat="37.7820617" lon="14.8255783"><ele>772.0</ele><time>2026-03-22T10:09:24.782Z</time></trkpt><trkpt lat="37.7821983" lon="14.8255567"><ele>772.0</ele><time>2026-03-22T10:09:25.782Z</time></trkpt><trkpt lat="37.7823283" lon="14.8255533"><ele>772.0</ele><time>2026-03-22T10:09:26.782Z</time></trkpt><trkpt lat="37.7824567" lon="14.8255883"><ele>772.0</ele><time>2026-03-22T10:09:27.783Z</time></trkpt><trkpt lat="37.7825933" lon="14.825645"><ele>772.0</ele><time>2026-03-22T10:09:28.783Z</time></trkpt><trkpt lat="37.7827183" lon="14.8257017"><ele>772.0</ele><time>2026-03-22T10:09:29.782Z</time></trkpt><trkpt lat="37.782835" lon="14.8257667"><ele>772.0</ele><time>2026-03-22T10:09:30.782Z</time></trkpt><trkpt lat="37.7829367" lon="14.8258267"><ele>772.4000000000001</ele><time>2026-03-22T10:09:31.782Z</time></trkpt><trkpt lat="37.7830233" lon="14.82588"><ele>772.8000000000001</ele><time>2026-03-22T10:09:32.783Z</time></trkpt><trkpt lat="37.7831117" lon="14.8259467"><ele>773.2</ele><time>2026-03-22T10:09:33.783Z</time></trkpt><trkpt lat="37.78319" lon="14.8260083"><ele>773.6</ele><time>2026-03-22T10:09:34.782Z</time></trkpt><trkpt lat="37.783265" lon="14.8260767"><ele>774.0</ele><time>2026-03-22T10:09:35.784Z</time></trkpt><trkpt lat="37.783335" lon="14.8261467"><ele>774.0</ele><time>2026-03-22T10:09:36.784Z</time></trkpt><trkpt lat="37.783395" lon="14.8262167"><ele>774.0</ele><time>2026-03-22T10:09:37.784Z</time></trkpt><trkpt lat="37.7834517" lon="14.8262817"><ele>774.0</ele><time>2026-03-22T10:09:38.784Z</time></trkpt><trkpt lat="37.7835" lon="14.8263517"><ele>774.0</ele><time>2026-03-22T10:09:39.784Z</time></trkpt><trkpt lat="37.7835533" lon="14.8264233"><ele>774.0</ele><time>2026-03-22T10:09:40.784Z</time></trkpt><trkpt lat="37.7836" lon="14.8264967"><ele>774.0</ele><time>2026-03-22T10:09:41.783Z</time></trkpt><trkpt lat="37.7836417" lon="14.8265717"><ele>771.8000000000001</ele><time>2026-03-22T10:09:42.783Z</time></trkpt><trkpt lat="37.7836817" lon="14.826645"><ele>769.6</ele><time>2026-03-22T10:09:43.784Z</time></trkpt><trkpt lat="37.7837" lon="14.82678"><ele>767.4</ele><time>2026-03-22T10:09:45.784Z</time></trkpt><trkpt lat="37.78365" lon="14.8269167"><ele>765.2</ele><time>2026-03-22T10:09:47.784Z</time></trkpt><trkpt lat="37.783605" lon="14.82699"><ele>763.0</ele><time>2026-03-22T10:09:48.783Z</time></trkpt><trkpt lat="37.78354" lon="14.8270617"><ele>766.75</ele><time>2026-03-22T10:09:49.783Z</time></trkpt><trkpt lat="37.7834633" lon="14.8271483"><ele>770.5</ele><time>2026-03-22T10:09:50.783Z</time></trkpt><trkpt lat="37.78338" lon="14.8272383"><ele>774.25</ele><time>2026-03-22T10:09:51.784Z</time></trkpt><trkpt lat="37.7832883" lon="14.8273367"><ele>778.0</ele><time>2026-03-22T10:09:52.784Z</time></trkpt><trkpt lat="37.7831983" lon="14.8274417"><ele>778.0</ele><time>2026-03-22T10:09:53.783Z</time></trkpt><trkpt lat="37.7831033" lon="14.827555"><ele>778.0</ele><time>2026-03-22T10:09:54.783Z</time></trkpt><trkpt lat="37.783005" lon="14.8276633"><ele>778.0</ele><time>2026-03-22T10:09:55.783Z</time></trkpt><trkpt lat="37.7829017" lon="14.8277683"><ele>778.0</ele><time>2026-03-22T10:09:56.784Z</time></trkpt><trkpt lat="37.7827933" lon="14.8278733"><ele>779.25</ele><time>2026-03-22T10:09:57.784Z</time></trkpt><trkpt lat="37.78269" lon="14.8279783"><ele>780.5</ele><time>2026-03-22T10:09:58.783Z</time></trkpt><trkpt lat="37.7825783" lon="14.82807"><ele>781.75</ele><time>2026-03-22T10:09:59.784Z</time></trkpt><trkpt lat="37.7824581" lon="14.8281602"><ele>783.0</ele><time>2026-03-22T10:10:00.784Z</time></trkpt><trkpt lat="37.7823391" lon="14.8282491"><ele>783.0</ele><time>2026-03-22T10:10:01.784Z</time></trkpt><trkpt lat="37.7822205" lon="14.8283347"><ele>783.0</ele><time>2026-03-22T10:10:02.784Z</time></trkpt><trkpt lat="37.7821016" lon="14.8284268"><ele>783.0</ele><time>2026-03-22T10:10:03.784Z</time></trkpt><trkpt lat="37.7819864" lon="14.8285262"><ele>783.0</ele><time>2026-03-22T10:10:04.783Z</time></trkpt><trkpt lat="37.781876" lon="14.828635"><ele>785.5</ele><time>2026-03-22T10:10:05.783Z</time></trkpt><trkpt lat="37.7817784" lon="14.8287663"><ele>788.0</ele><time>2026-03-22T10:10:06.784Z</time></trkpt><trkpt lat="37.78169" lon="14.8289096"><ele>790.5</ele><time>2026-03-22T10:10:07.784Z</time></trkpt><trkpt lat="37.7816219" lon="14.8290672"><ele>793.0</ele><time>2026-03-22T10:10:08.783Z</time></trkpt><trkpt lat="37.7815742" lon="14.8292367"><ele>794.0</ele><time>2026-03-22T10:10:09.784Z</time></trkpt><trkpt lat="37.7815437" lon="14.82942"><ele>795.0</ele><time>2026-03-22T10:10:10.783Z</time></trkpt><trkpt lat="37.7815254" lon="14.8296127"><ele>796.0</ele><time>2026-03-22T10:10:11.784Z</time></trkpt><trkpt lat="37.7815205" lon="14.8298022"><ele>796.0</ele><time>2026-03-22T10:10:12.783Z</time></trkpt><trkpt lat="37.7815322" lon="14.8299955"><ele>796.0</ele><time>2026-03-22T10:10:13.784Z</time></trkpt><trkpt lat="37.7815613" lon="14.8301798"><ele>796.0</ele><time>2026-03-22T10:10:14.783Z</time></trkpt><trkpt lat="37.7816074" lon="14.8303516"><ele>796.0</ele><time>2026-03-22T10:10:15.784Z</time></trkpt><trkpt lat="37.7816583" lon="14.8305122"><ele>794.75</ele><time>2026-03-22T10:10:16.783Z</time></trkpt><trkpt lat="37.7817182" lon="14.8306623"><ele>793.5</ele><time>2026-03-22T10:10:17.784Z</time></trkpt><trkpt lat="37.7817842" lon="14.8308066"><ele>792.25</ele><time>2026-03-22T10:10:18.784Z</time></trkpt><trkpt lat="37.7818388" lon="14.8309564"><ele>791.0</ele><time>2026-03-22T10:10:19.784Z</time></trkpt><trkpt lat="37.7818749" lon="14.8311139"><ele>791.0</ele><time>2026-03-22T10:10:20.783Z</time></trkpt><trkpt lat="37.7819117" lon="14.8312776"><ele>791.0</ele><time>2026-03-22T10:10:21.784Z</time></trkpt><trkpt lat="37.781939" lon="14.8314478"><ele>791.0</ele><time>2026-03-22T10:10:22.784Z</time></trkpt><trkpt lat="37.781961" lon="14.8316202"><ele>791.0</ele><time>2026-03-22T10:10:23.783Z</time></trkpt><trkpt lat="37.7819809" lon="14.8317915"><ele>794.0</ele><time>2026-03-22T10:10:24.784Z</time></trkpt><trkpt lat="37.782" lon="14.8319567"><ele>797.0</ele><time>2026-03-22T10:10:25.783Z</time></trkpt><trkpt lat="37.7820176" lon="14.8321081"><ele>800.0</ele><time>2026-03-22T10:10:26.783Z</time></trkpt><trkpt lat="37.7820319" lon="14.8322507"><ele>803.0</ele><time>2026-03-22T10:10:27.784Z</time></trkpt><trkpt lat="37.7820425" lon="14.8323878"><ele>803.0</ele><time>2026-03-22T10:10:28.784Z</time></trkpt><trkpt lat="37.7820536" lon="14.8325223"><ele>803.0</ele><time>2026-03-22T10:10:29.783Z</time></trkpt><trkpt lat="37.7820627" lon="14.8326526"><ele>803.0</ele><time>2026-03-22T10:10:30.784Z</time></trkpt><trkpt lat="37.7820676" lon="14.8327792"><ele>803.0</ele><time>2026-03-22T10:10:31.784Z</time></trkpt><trkpt lat="37.7820703" lon="14.8329112"><ele>803.0</ele><time>2026-03-22T10:10:32.783Z</time></trkpt><trkpt lat="37.7820631" lon="14.8330478"><ele>805.0</ele><time>2026-03-22T10:10:33.784Z</time></trkpt><trkpt lat="37.7820467" lon="14.8331864"><ele>807.0</ele><time>2026-03-22T10:10:34.784Z</time></trkpt><trkpt lat="37.7820154" lon="14.8333189"><ele>809.0</ele><time>2026-03-22T10:10:35.783Z</time></trkpt><trkpt lat="37.7819746" lon="14.8334389"><ele>811.0</ele><time>2026-03-22T10:10:36.784Z</time></trkpt><trkpt lat="37.7819363" lon="14.8335501"><ele>813.0</ele><time>2026-03-22T10:10:37.784Z</time></trkpt><trkpt lat="37.7819016" lon="14.8336603"><ele>813.4</ele><time>2026-03-22T10:10:38.784Z</time></trkpt><trkpt lat="37.7818587" lon="14.8337731"><ele>813.8</ele><time>2026-03-22T10:10:39.784Z</time></trkpt><trkpt lat="37.781817" lon="14.8338814"><ele>814.2</ele><time>2026-03-22T10:10:40.783Z</time></trkpt><trkpt lat="37.7817806" lon="14.8339832"><ele>814.6</ele><time>2026-03-22T10:10:41.784Z</time></trkpt><trkpt lat="37.7817443" lon="14.8340827"><ele>815.0</ele><time>2026-03-22T10:10:42.783Z</time></trkpt><trkpt lat="37.781713" lon="14.8341781"><ele>815.8333333333334</ele><time>2026-03-22T10:10:43.784Z</time></trkpt><trkpt lat="37.7816875" lon="14.8342758"><ele>816.6666666666667</ele><time>2026-03-22T10:10:44.784Z</time></trkpt><trkpt lat="37.781672" lon="14.8343773"><ele>817.5</ele><time>2026-03-22T10:10:45.783Z</time></trkpt><trkpt lat="37.7816672" lon="14.8344779"><ele>818.3333333333333</ele><time>2026-03-22T10:10:46.783Z</time></trkpt><trkpt lat="37.7816756" lon="14.834574"><ele>819.1666666666666</ele><time>2026-03-22T10:10:47.783Z</time></trkpt><trkpt lat="37.7816967" lon="14.8346567"><ele>820.0</ele><time>2026-03-22T10:10:48.784Z</time></trkpt><trkpt lat="37.7817517" lon="14.8347917"><ele>819.6</ele><time>2026-03-22T10:10:50.784Z</time></trkpt><trkpt lat="37.78182" lon="14.8348883"><ele>819.2</ele><time>2026-03-22T10:10:52.783Z</time></trkpt><trkpt lat="37.7819117" lon="14.834975"><ele>818.8</ele><time>2026-03-22T10:10:54.783Z</time></trkpt><trkpt lat="37.7819783" lon="14.8350333"><ele>818.4</ele><time>2026-03-22T10:10:56.784Z</time></trkpt><trkpt lat="37.7820383" lon="14.8350817"><ele>818.0</ele><time>2026-03-22T10:10:58.784Z</time></trkpt><trkpt lat="37.7821133" lon="14.835155"><ele>818.6666666666667</ele><time>2026-03-22T10:11:01.783Z</time></trkpt><trkpt lat="37.78221" lon="14.835245"><ele>819.3333333333334</ele><time>2026-03-22T10:11:03.784Z</time></trkpt><trkpt lat="37.7822633" lon="14.835295"><ele>820.0</ele><time>2026-03-22T10:11:04.783Z</time></trkpt><trkpt lat="37.7823133" lon="14.8353467"><ele>820.6666666666667</ele><time>2026-03-22T10:11:05.783Z</time></trkpt><trkpt lat="37.7823683" lon="14.8353967"><ele>821.3333333333334</ele><time>2026-03-22T10:11:06.783Z</time></trkpt><trkpt lat="37.7824317" lon="14.8354433"><ele>822.0</ele><time>2026-03-22T10:11:07.783Z</time></trkpt><trkpt lat="37.782485" lon="14.8355"><ele>822.0</ele><time>2026-03-22T10:11:08.783Z</time></trkpt><trkpt lat="37.7825483" lon="14.835555"><ele>822.0</ele><time>2026-03-22T10:11:09.784Z</time></trkpt><trkpt lat="37.78261" lon="14.8356067"><ele>822.0</ele><time>2026-03-22T10:11:10.784Z</time></trkpt><trkpt lat="37.7827017" lon="14.8356967"><ele>822.0</ele><time>2026-03-22T10:11:12.784Z</time></trkpt><trkpt lat="37.7827833" lon="14.8357767"><ele>822.0</ele><time>2026-03-22T10:11:14.783Z</time></trkpt><trkpt lat="37.7828367" lon="14.83585"><ele>822.0</ele><time>2026-03-22T10:11:16.783Z</time></trkpt><trkpt lat="37.7828883" lon="14.8359167"><ele>821.6666666666666</ele><time>2026-03-22T10:11:18.783Z</time></trkpt><trkpt lat="37.78297" lon="14.83599"><ele>821.3333333333333</ele><time>2026-03-22T10:11:20.783Z</time></trkpt><trkpt lat="37.7830233" lon="14.8360367"><ele>821.0</ele><time>2026-03-22T10:11:21.783Z</time></trkpt><trkpt lat="37.783075" lon="14.836085"><ele>820.6666666666666</ele><time>2026-03-22T10:11:22.784Z</time></trkpt><trkpt lat="37.78313" lon="14.8361383"><ele>820.3333333333333</ele><time>2026-03-22T10:11:23.783Z</time></trkpt><trkpt lat="37.7831883" lon="14.8361967"><ele>820.0</ele><time>2026-03-22T10:11:24.784Z</time></trkpt><trkpt lat="37.783255" lon="14.8362633"><ele>820.0</ele><time>2026-03-22T10:11:25.784Z</time></trkpt><trkpt lat="37.7833283" lon="14.8363333"><ele>820.0</ele><time>2026-03-22T10:11:26.784Z</time></trkpt><trkpt lat="37.7834" lon="14.8364017"><ele>820.0</ele><time>2026-03-22T10:11:27.783Z</time></trkpt><trkpt lat="37.7834767" lon="14.8364667"><ele>820.0</ele><time>2026-03-22T10:11:28.783Z</time></trkpt><trkpt lat="37.7835467" lon="14.83654"><ele>820.0</ele><time>2026-03-22T10:11:29.783Z</time></trkpt><trkpt lat="37.7836217" lon="14.83661"><ele>820.3333333333333</ele><time>2026-03-22T10:11:30.783Z</time></trkpt><trkpt lat="37.7836883" lon="14.83667"><ele>820.6666666666666</ele><time>2026-03-22T10:11:31.784Z</time></trkpt><trkpt lat="37.783755" lon="14.83673"><ele>821.0</ele><time>2026-03-22T10:11:32.783Z</time></trkpt><trkpt lat="37.7838317" lon="14.8368"><ele>821.3333333333333</ele><time>2026-03-22T10:11:33.784Z</time></trkpt><trkpt lat="37.7839083" lon="14.836865"><ele>821.6666666666666</ele><time>2026-03-22T10:11:34.784Z</time></trkpt><trkpt lat="37.7839733" lon="14.83693"><ele>822.0</ele><time>2026-03-22T10:11:35.784Z</time></trkpt><trkpt lat="37.7840367" lon="14.8369933"><ele>822.0</ele><time>2026-03-22T10:11:36.783Z</time></trkpt><trkpt lat="37.7841017" lon="14.837065"><ele>822.0</ele><time>2026-03-22T10:11:37.783Z</time></trkpt><trkpt lat="37.78416" lon="14.8371283"><ele>822.0</ele><time>2026-03-22T10:11:38.783Z</time></trkpt><trkpt lat="37.7842217" lon="14.83717"><ele>822.0</ele><time>2026-03-22T10:11:39.783Z</time></trkpt><trkpt lat="37.7843067" lon="14.8372167"><ele>822.0</ele><time>2026-03-22T10:11:41.784Z</time></trkpt><trkpt lat="37.7844" lon="14.837265"><ele>822.0</ele><time>2026-03-22T10:11:43.784Z</time></trkpt><trkpt lat="37.784495" lon="14.8373133"><ele>821.8333333333334</ele><time>2026-03-22T10:11:45.783Z</time></trkpt><trkpt lat="37.7845967" lon="14.8373617"><ele>821.6666666666667</ele><time>2026-03-22T10:11:47.784Z</time></trkpt><trkpt lat="37.7846883" lon="14.8374083"><ele>821.5</ele><time>2026-03-22T10:11:49.784Z</time></trkpt><trkpt lat="37.7847533" lon="14.83743"><ele>821.3333333333334</ele><time>2026-03-22T10:12:01.784Z</time></trkpt><trkpt lat="37.784825" lon="14.8374767"><ele>821.1666666666667</ele><time>2026-03-22T10:12:03.783Z</time></trkpt><trkpt lat="37.784895" lon="14.8375267"><ele>821.0</ele><time>2026-03-22T10:12:05.783Z</time></trkpt><trkpt lat="37.78498" lon="14.83758"><ele>822.5000000000001</ele><time>2026-03-22T10:12:08.784Z</time></trkpt><trkpt lat="37.7850883" lon="14.8376417"><ele>824.0</ele><time>2026-03-22T10:12:10.784Z</time></trkpt><trkpt lat="37.7851567" lon="14.837675"><ele>825.5</ele><time>2026-03-22T10:12:11.783Z</time></trkpt><trkpt lat="37.7852267" lon="14.8377067"><ele>827.0</ele><time>2026-03-22T10:12:12.783Z</time></trkpt><trkpt lat="37.7853" lon="14.8377417"><ele>828.5000000000001</ele><time>2026-03-22T10:12:13.783Z</time></trkpt><trkpt lat="37.785375" lon="14.8377867"><ele>830.0</ele><time>2026-03-22T10:12:14.784Z</time></trkpt><trkpt lat="37.7854617" lon="14.8378317"><ele>830.75</ele><time>2026-03-22T10:12:15.784Z</time></trkpt><trkpt lat="37.7855617" lon="14.8378717"><ele>831.5</ele><time>2026-03-22T10:12:16.783Z</time></trkpt><trkpt lat="37.7856817" lon="14.837905"><ele>832.25</ele><time>2026-03-22T10:12:17.783Z</time></trkpt><trkpt lat="37.7858017" lon="14.8379367"><ele>833.0</ele><time>2026-03-22T10:12:18.783Z</time></trkpt><trkpt lat="37.7859233" lon="14.8379567"><ele>833.5999999999999</ele><time>2026-03-22T10:12:19.784Z</time></trkpt><trkpt lat="37.7860433" lon="14.8379717"><ele>834.1999999999999</ele><time>2026-03-22T10:12:20.784Z</time></trkpt><trkpt lat="37.7861583" lon="14.83799"><ele>834.8</ele><time>2026-03-22T10:12:21.784Z</time></trkpt><trkpt lat="37.7862617" lon="14.838"><ele>835.4</ele><time>2026-03-22T10:12:22.783Z</time></trkpt><trkpt lat="37.786355" lon="14.8380133"><ele>836.0</ele><time>2026-03-22T10:12:23.784Z</time></trkpt><trkpt lat="37.7864433" lon="14.8380233"><ele>836.0</ele><time>2026-03-22T10:12:24.783Z</time></trkpt><trkpt lat="37.7865283" lon="14.8380333"><ele>836.0</ele><time>2026-03-22T10:12:25.783Z</time></trkpt><trkpt lat="37.7866117" lon="14.83805"><ele>836.0</ele><time>2026-03-22T10:12:26.783Z</time></trkpt><trkpt lat="37.7867" lon="14.8380717"><ele>836.0</ele><time>2026-03-22T10:12:27.784Z</time></trkpt><trkpt lat="37.7867983" lon="14.838105"><ele>836.0</ele><time>2026-03-22T10:12:28.784Z</time></trkpt><trkpt lat="37.7869083" lon="14.8381483"><ele>835.75</ele><time>2026-03-22T10:12:29.784Z</time></trkpt><trkpt lat="37.7870367" lon="14.8381983"><ele>835.5</ele><time>2026-03-22T10:12:30.783Z</time></trkpt><trkpt lat="37.787165" lon="14.838235"><ele>835.25</ele><time>2026-03-22T10:12:31.784Z</time></trkpt><trkpt lat="37.787295" lon="14.838255"><ele>835.0</ele><time>2026-03-22T10:12:32.783Z</time></trkpt><trkpt lat="37.7874317" lon="14.8382533"><ele>835.0</ele><time>2026-03-22T10:12:33.783Z</time></trkpt><trkpt lat="37.7875667" lon="14.83824"><ele>835.0</ele><time>2026-03-22T10:12:34.783Z</time></trkpt><trkpt lat="37.7876983" lon="14.83822"><ele>835.0</ele><time>2026-03-22T10:12:35.784Z</time></trkpt><trkpt lat="37.7878233" lon="14.8382017"><ele>835.0</ele><time>2026-03-22T10:12:36.783Z</time></trkpt><trkpt lat="37.78795" lon="14.8381917"><ele>835.25</ele><time>2026-03-22T10:12:37.783Z</time></trkpt><trkpt lat="37.7880733" lon="14.8381867"><ele>835.5</ele><time>2026-03-22T10:12:38.784Z</time></trkpt><trkpt lat="37.78819" lon="14.838185"><ele>835.75</ele><time>2026-03-22T10:12:39.783Z</time></trkpt><trkpt lat="37.7883117" lon="14.8381817"><ele>836.0</ele><time>2026-03-22T10:12:40.784Z</time></trkpt><trkpt lat="37.78843" lon="14.8381817"><ele>835.5999999999999</ele><time>2026-03-22T10:12:41.783Z</time></trkpt><trkpt lat="37.7885467" lon="14.83818"><ele>835.2</ele><time>2026-03-22T10:12:42.784Z</time></trkpt><trkpt lat="37.78866" lon="14.8381817"><ele>834.8</ele><time>2026-03-22T10:12:43.784Z</time></trkpt><trkpt lat="37.78876" lon="14.83818"><ele>834.4000000000001</ele><time>2026-03-22T10:12:44.783Z</time></trkpt><trkpt lat="37.7888617" lon="14.83818"><ele>834.0</ele><time>2026-03-22T10:12:45.784Z</time></trkpt><trkpt lat="37.7889583" lon="14.8381867"><ele>834.0</ele><time>2026-03-22T10:12:46.784Z</time></trkpt><trkpt lat="37.7890633" lon="14.838215"><ele>834.0</ele><time>2026-03-22T10:12:47.784Z</time></trkpt><trkpt lat="37.7891633" lon="14.8382317"><ele>834.0</ele><time>2026-03-22T10:12:48.783Z</time></trkpt><trkpt lat="37.7892533" lon="14.8382867"><ele>834.0</ele><time>2026-03-22T10:12:49.784Z</time></trkpt><trkpt lat="37.789345" lon="14.838335"><ele>834.0</ele><time>2026-03-22T10:12:50.784Z</time></trkpt><trkpt lat="37.7894283" lon="14.8384"><ele>833.8000000000001</ele><time>2026-03-22T10:12:51.784Z</time></trkpt><trkpt lat="37.789505" lon="14.8384583"><ele>833.6</ele><time>2026-03-22T10:12:52.783Z</time></trkpt><trkpt lat="37.7895817" lon="14.8385083"><ele>833.4</ele><time>2026-03-22T10:12:53.784Z</time></trkpt><trkpt lat="37.7896567" lon="14.83858"><ele>833.2</ele><time>2026-03-22T10:12:54.783Z</time></trkpt><trkpt lat="37.7897333" lon="14.8386733"><ele>833.0</ele><time>2026-03-22T10:12:55.784Z</time></trkpt><trkpt lat="37.7898033" lon="14.8387783"><ele>833.0</ele><time>2026-03-22T10:12:56.783Z</time></trkpt><trkpt lat="37.789865" lon="14.83888"><ele>833.0</ele><time>2026-03-22T10:12:57.784Z</time></trkpt><trkpt lat="37.7899283" lon="14.838975"><ele>833.0</ele><time>2026-03-22T10:12:58.784Z</time></trkpt><trkpt lat="37.7899867" lon="14.8390683"><ele>833.0</ele><time>2026-03-22T10:12:59.783Z</time></trkpt><trkpt lat="37.7900367" lon="14.8391483"><ele>833.0</ele><time>2026-03-22T10:13:00.783Z</time></trkpt><trkpt lat="37.7900967" lon="14.8392633"><ele>832.5999999999999</ele><time>2026-03-22T10:13:02.784Z</time></trkpt><trkpt lat="37.7901333" lon="14.8393283"><ele>832.1999999999999</ele><time>2026-03-22T10:13:04.783Z</time></trkpt><trkpt lat="37.7901917" lon="14.839405"><ele>831.8</ele><time>2026-03-22T10:13:07.783Z</time></trkpt><trkpt lat="37.7902433" lon="14.8394933"><ele>831.4</ele><time>2026-03-22T10:13:10.784Z</time></trkpt><trkpt lat="37.7903017" lon="14.8395933"><ele>831.0</ele><time>2026-03-22T10:13:12.784Z</time></trkpt><trkpt lat="37.7903717" lon="14.8397283"><ele>831.0</ele><time>2026-03-22T10:13:14.783Z</time></trkpt><trkpt lat="37.7904183" lon="14.839795"><ele>831.0</ele><time>2026-03-22T10:13:15.783Z</time></trkpt><trkpt lat="37.7904683" lon="14.8398583"><ele>831.0</ele><time>2026-03-22T10:13:16.784Z</time></trkpt><trkpt lat="37.7905117" lon="14.8399283"><ele>831.0</ele><time>2026-03-22T10:13:17.784Z</time></trkpt><trkpt lat="37.7905417" lon="14.8400017"><ele>831.0</ele><time>2026-03-22T10:13:18.783Z</time></trkpt><trkpt lat="37.790585" lon="14.840125"><ele>831.0</ele><time>2026-03-22T10:13:20.784Z</time></trkpt><trkpt lat="37.7906133" lon="14.8402183"><ele>832.0</ele><time>2026-03-22T10:13:22.783Z</time></trkpt><trkpt lat="37.790655" lon="14.8403517"><ele>833.0</ele><time>2026-03-22T10:13:24.783Z</time></trkpt><trkpt lat="37.7906833" lon="14.84043"><ele>834.0</ele><time>2026-03-22T10:13:25.784Z</time></trkpt><trkpt lat="37.79071" lon="14.8405083"><ele>835.0</ele><time>2026-03-22T10:13:26.783Z</time></trkpt><trkpt lat="37.7907467" lon="14.8406233"><ele>836.0</ele><time>2026-03-22T10:13:28.783Z</time></trkpt><trkpt lat="37.7907683" lon="14.8407517"><ele>836.0000000000001</ele><time>2026-03-22T10:13:30.784Z</time></trkpt><trkpt lat="37.7907767" lon="14.8409133"><ele>836.0</ele><time>2026-03-22T10:13:32.784Z</time></trkpt><trkpt lat="37.7907717" lon="14.8409983"><ele>836.0</ele><time>2026-03-22T10:13:33.784Z</time></trkpt><trkpt lat="37.7907667" lon="14.8410833"><ele>836.0</ele><time>2026-03-22T10:13:34.783Z</time></trkpt><trkpt lat="37.7907617" lon="14.8411683"><ele>836.0000000000001</ele><time>2026-03-22T10:13:35.784Z</time></trkpt><trkpt lat="37.79077" lon="14.84125"><ele>836.0</ele><time>2026-03-22T10:13:36.783Z</time></trkpt><trkpt lat="37.7907917" lon="14.8413333"><ele>836.8571428571429</ele><time>2026-03-22T10:13:37.783Z</time></trkpt><trkpt lat="37.7908217" lon="14.8414117"><ele>837.7142857142857</ele><time>2026-03-22T10:13:38.784Z</time></trkpt><trkpt lat="37.7908617" lon="14.841495"><ele>838.5714285714287</ele><time>2026-03-22T10:13:39.783Z</time></trkpt><trkpt lat="37.7909133" lon="14.84156"><ele>839.4285714285714</ele><time>2026-03-22T10:13:40.783Z</time></trkpt><trkpt lat="37.7909633" lon="14.8416217"><ele>840.2857142857143</ele><time>2026-03-22T10:13:41.783Z</time></trkpt><trkpt lat="37.791015" lon="14.84168"><ele>841.1428571428572</ele><time>2026-03-22T10:13:42.784Z</time></trkpt><trkpt lat="37.7910667" lon="14.8417417"><ele>842.0</ele><time>2026-03-22T10:13:43.783Z</time></trkpt><trkpt lat="37.7911167" lon="14.8417967"><ele>843.4000000000001</ele><time>2026-03-22T10:13:44.784Z</time></trkpt><trkpt lat="37.7912033" lon="14.841905"><ele>844.8000000000001</ele><time>2026-03-22T10:13:46.784Z</time></trkpt><trkpt lat="37.7912417" lon="14.84197"><ele>846.2</ele><time>2026-03-22T10:13:47.784Z</time></trkpt><trkpt lat="37.7913" lon="14.84208"><ele>847.6</ele><time>2026-03-22T10:13:49.783Z</time></trkpt><trkpt lat="37.7913483" lon="14.8422033"><ele>849.0</ele><time>2026-03-22T10:13:51.783Z</time></trkpt><trkpt lat="37.7913683" lon="14.84232"><ele>849.0</ele><time>2026-03-22T10:13:53.783Z</time></trkpt><trkpt lat="37.7913833" lon="14.842425"><ele>849.0</ele><time>2026-03-22T10:13:55.783Z</time></trkpt><trkpt lat="37.7914033" lon="14.84252"><ele>849.0</ele><time>2026-03-22T10:13:57.784Z</time></trkpt><trkpt lat="37.7914283" lon="14.8425967"><ele>849.0</ele><time>2026-03-22T10:13:59.783Z</time></trkpt><trkpt lat="37.79147" lon="14.84269"><ele>849.0</ele><time>2026-03-22T10:14:01.783Z</time></trkpt><trkpt lat="37.7915283" lon="14.8428417"><ele>849.0</ele><time>2026-03-22T10:14:03.783Z</time></trkpt><trkpt lat="37.7915567" lon="14.8429417"><ele>850.0</ele><time>2026-03-22T10:14:04.783Z</time></trkpt><trkpt lat="37.791595" lon="14.843055"><ele>851.0</ele><time>2026-03-22T10:14:05.784Z</time></trkpt><trkpt lat="37.791645" lon="14.8431767"><ele>852.0000000000001</ele><time>2026-03-22T10:14:06.784Z</time></trkpt><trkpt lat="37.791695" lon="14.8433"><ele>853.0</ele><time>2026-03-22T10:14:07.784Z</time></trkpt><trkpt lat="37.791745" lon="14.8434217"><ele>854.0</ele><time>2026-03-22T10:14:08.784Z</time></trkpt><trkpt lat="37.7918017" lon="14.8435333"><ele>856.6</ele><time>2026-03-22T10:14:09.783Z</time></trkpt><trkpt lat="37.791855" lon="14.8436433"><ele>859.2</ele><time>2026-03-22T10:14:10.783Z</time></trkpt><trkpt lat="37.7918967" lon="14.84376"><ele>861.8000000000001</ele><time>2026-03-22T10:14:11.784Z</time></trkpt><trkpt lat="37.791935" lon="14.84388"><ele>864.4000000000001</ele><time>2026-03-22T10:14:12.784Z</time></trkpt><trkpt lat="37.7919767" lon="14.844005"><ele>867.0</ele><time>2026-03-22T10:14:13.784Z</time></trkpt><trkpt lat="37.7920217" lon="14.84413"><ele>867.0</ele><time>2026-03-22T10:14:14.783Z</time></trkpt><trkpt lat="37.79207" lon="14.8442533"><ele>867.0</ele><time>2026-03-22T10:14:15.783Z</time></trkpt><trkpt lat="37.7921217" lon="14.8443783"><ele>867.0</ele><time>2026-03-22T10:14:16.783Z</time></trkpt><trkpt lat="37.792175" lon="14.844495"><ele>867.0</ele><time>2026-03-22T10:14:17.783Z</time></trkpt><trkpt lat="37.7922467" lon="14.8446117"><ele>867.0</ele><time>2026-03-22T10:14:18.784Z</time></trkpt><trkpt lat="37.7923233" lon="14.8447267"><ele>867.25</ele><time>2026-03-22T10:14:19.784Z</time></trkpt><trkpt lat="37.7924017" lon="14.84484"><ele>867.5</ele><time>2026-03-22T10:14:20.784Z</time></trkpt><trkpt lat="37.79248" lon="14.8449533"><ele>867.75</ele><time>2026-03-22T10:14:21.783Z</time></trkpt><trkpt lat="37.792555" lon="14.84507"><ele>868.0</ele><time>2026-03-22T10:14:22.783Z</time></trkpt><trkpt lat="37.7926367" lon="14.8451933"><ele>870.0</ele><time>2026-03-22T10:14:23.784Z</time></trkpt><trkpt lat="37.7927133" lon="14.8453317"><ele>872.0</ele><time>2026-03-22T10:14:24.784Z</time></trkpt><trkpt lat="37.79279" lon="14.8454633"><ele>874.0</ele><time>2026-03-22T10:14:25.783Z</time></trkpt><trkpt lat="37.7928633" lon="14.8455883"><ele>876.0</ele><time>2026-03-22T10:14:26.783Z</time></trkpt><trkpt lat="37.7929317" lon="14.8456983"><ele>876.0</ele><time>2026-03-22T10:14:27.783Z</time></trkpt><trkpt lat="37.79299" lon="14.845795"><ele>876.0</ele><time>2026-03-22T10:14:28.783Z</time></trkpt><trkpt lat="37.7930467" lon="14.8458933"><ele>876.0</ele><time>2026-03-22T10:14:29.783Z</time></trkpt><trkpt lat="37.793105" lon="14.8459783"><ele>876.0</ele><time>2026-03-22T10:14:30.783Z</time></trkpt><trkpt lat="37.7931517" lon="14.84605"><ele>876.0</ele><time>2026-03-22T10:14:31.784Z</time></trkpt><trkpt lat="37.793195" lon="14.846115"><ele>876.0</ele><time>2026-03-22T10:14:32.784Z</time></trkpt><trkpt lat="37.79324" lon="14.8461883"><ele>876.6666666666666</ele><time>2026-03-22T10:14:33.784Z</time></trkpt><trkpt lat="37.7932883" lon="14.8462667"><ele>877.3333333333333</ele><time>2026-03-22T10:14:34.784Z</time></trkpt><trkpt lat="37.7933433" lon="14.84635"><ele>878.0</ele><time>2026-03-22T10:14:35.784Z</time></trkpt><trkpt lat="37.7933967" lon="14.8464283"><ele>878.6666666666666</ele><time>2026-03-22T10:14:36.783Z</time></trkpt><trkpt lat="37.7934533" lon="14.8465067"><ele>879.3333333333333</ele><time>2026-03-22T10:14:37.783Z</time></trkpt><trkpt lat="37.79351" lon="14.846575"><ele>880.0</ele><time>2026-03-22T10:14:38.783Z</time></trkpt><trkpt lat="37.793565" lon="14.8466367"><ele>880.4999999999999</ele><time>2026-03-22T10:14:39.783Z</time></trkpt><trkpt lat="37.7936167" lon="14.8466933"><ele>881.0</ele><time>2026-03-22T10:14:40.784Z</time></trkpt><trkpt lat="37.7936683" lon="14.8467467"><ele>881.5</ele><time>2026-03-22T10:14:41.784Z</time></trkpt><trkpt lat="37.79377" lon="14.84685"><ele>882.0</ele><time>2026-03-22T10:14:43.784Z</time></trkpt><trkpt lat="37.793855" lon="14.8469233"><ele>882.4999999999999</ele><time>2026-03-22T10:14:45.784Z</time></trkpt><trkpt lat="37.7939317" lon="14.84691"><ele>883.0</ele><time>2026-03-22T10:14:48.784Z</time></trkpt><trkpt lat="37.7939917" lon="14.846855"><ele>883.0</ele><time>2026-03-22T10:14:54.783Z</time></trkpt><trkpt lat="37.7940967" lon="14.8469017"><ele>883.0</ele><time>2026-03-22T10:17:30.783Z</time></trkpt><trkpt lat="37.7941606" lon="14.8468508"><ele>883.0</ele><time>2026-03-22T10:23:31.412Z</time></trkpt><trkpt lat="37.79421" lon="14.8463733"><ele>883.5999999999999</ele><time>2026-03-22T10:23:35.784Z</time></trkpt><trkpt lat="37.7941833" lon="14.8464883"><ele>884.1999999999999</ele><time>2026-03-22T10:23:37.785Z</time></trkpt><trkpt lat="37.794145" lon="14.8465583"><ele>884.8</ele><time>2026-03-22T10:23:39.785Z</time></trkpt><trkpt lat="37.7941533" lon="14.84641"><ele>885.4</ele><time>2026-03-22T10:23:59.784Z</time></trkpt><trkpt lat="37.7941683" lon="14.8462517"><ele>886.0</ele><time>2026-03-22T10:24:05.785Z</time></trkpt><trkpt lat="37.7942" lon="14.8461567"><ele>885.9999999999999</ele><time>2026-03-22T10:24:16.785Z</time></trkpt><trkpt lat="37.7942217" lon="14.846055"><ele>886.0</ele><time>2026-03-22T10:24:18.784Z</time></trkpt><trkpt lat="37.7942667" lon="14.84598"><ele>886.0</ele><time>2026-03-22T10:24:22.785Z</time></trkpt><trkpt lat="37.7943033" lon="14.8458383"><ele>886.0</ele><time>2026-03-22T10:24:25.785Z</time></trkpt><trkpt lat="37.7943167" lon="14.8457467"><ele>885.9999999999999</ele><time>2026-03-22T10:24:29.784Z</time></trkpt><trkpt lat="37.7943333" lon="14.845835"><ele>886.0</ele><time>2026-03-22T10:24:36.785Z</time></trkpt><trkpt lat="37.79435" lon="14.8459167"><ele>885.9999999999999</ele><time>2026-03-22T10:24:49.784Z</time></trkpt><trkpt lat="37.7943283" lon="14.8460383"><ele>886.0</ele><time>2026-03-22T10:24:50.784Z</time></trkpt><trkpt lat="37.7942983" lon="14.8461467"><ele>886.0</ele><time>2026-03-22T10:24:53.784Z</time></trkpt><trkpt lat="37.7942717" lon="14.846235"><ele>886.0</ele><time>2026-03-22T10:24:57.784Z</time></trkpt><trkpt lat="37.7942467" lon="14.846345"><ele>885.9999999999999</ele><time>2026-03-22T10:25:08.784Z</time></trkpt><trkpt lat="37.7942333" lon="14.8464467"><ele>886.0</ele><time>2026-03-22T10:25:10.784Z</time></trkpt><trkpt lat="37.7942067" lon="14.846585"><ele>885.9999999999999</ele><time>2026-03-22T10:25:12.785Z</time></trkpt><trkpt lat="37.794155" lon="14.84668"><ele>886.0</ele><time>2026-03-22T10:25:19.785Z</time></trkpt><trkpt lat="37.7941333" lon="14.846765"><ele>886.0</ele><time>2026-03-22T10:25:21.784Z</time></trkpt><trkpt lat="37.794105" lon="14.8468483"><ele>886.0</ele><time>2026-03-22T10:25:23.784Z</time></trkpt><trkpt lat="37.7940683" lon="14.846925"><ele>885.9999999999999</ele><time>2026-03-22T10:25:27.785Z</time></trkpt><trkpt lat="37.7940633" lon="14.846775"><ele>886.0</ele><time>2026-03-22T10:25:59.784Z</time></trkpt><trkpt lat="37.7940967" lon="14.8466433"><ele>886.0</ele><time>2026-03-22T10:26:01.784Z</time></trkpt><trkpt lat="37.7941483" lon="14.8465317"><ele>886.0</ele><time>2026-03-22T10:26:12.784Z</time></trkpt><trkpt lat="37.7941567" lon="14.8467617"><ele>886.0</ele><time>2026-03-22T10:26:17.785Z</time></trkpt><trkpt lat="37.7940683" lon="14.8467217"><ele>886.0</ele><time>2026-03-22T10:26:45.784Z</time></trkpt><trkpt lat="37.7940533" lon="14.84692"><ele>885.5714285714286</ele><time>2026-03-22T10:27:07.785Z</time></trkpt><trkpt lat="37.7940733" lon="14.8468433"><ele>885.1428571428571</ele><time>2026-03-22T10:27:18.785Z</time></trkpt><trkpt lat="37.7941483" lon="14.8468"><ele>884.7142857142858</ele><time>2026-03-22T10:27:37.784Z</time></trkpt><trkpt lat="37.794095" lon="14.8468533"><ele>884.2857142857142</ele><time>2026-03-22T10:27:41.785Z</time></trkpt><trkpt lat="37.7940867" lon="14.84695"><ele>883.8571428571428</ele><time>2026-03-22T10:27:45.785Z</time></trkpt><trkpt lat="37.7941567" lon="14.846955"><ele>883.4285714285714</ele><time>2026-03-22T10:27:52.784Z</time></trkpt><trkpt lat="37.7941567" lon="14.8468533"><ele>883.0</ele><time>2026-03-22T10:27:56.784Z</time></trkpt><trkpt lat="37.7942567" lon="14.846855"><ele>882.9999999999999</ele><time>2026-03-22T10:28:05.785Z</time></trkpt><trkpt lat="37.7942433" lon="14.846775"><ele>883.0</ele><time>2026-03-22T10:28:10.785Z</time></trkpt><trkpt lat="37.79416" lon="14.846735"><ele>883.0</ele><time>2026-03-22T10:28:11.784Z</time></trkpt><trkpt lat="37.7940813" lon="14.8468068"><ele>883.0</ele><time>2026-03-22T10:28:24.807Z</time></trkpt><trkpt lat="37.7940519" lon="14.8468785"><ele>882.9999999999999</ele><time>2026-03-22T10:28:31.785Z</time></trkpt><trkpt lat="37.7940082" lon="14.8469412"><ele>883.0</ele><time>2026-03-22T10:29:01.83Z</time></trkpt><trkpt lat="37.7938723" lon="14.8469409"><ele>883.0</ele><time>2026-03-22T10:29:21.799Z</time></trkpt><trkpt lat="37.7938048" lon="14.8469739"><ele>883.0</ele><time>2026-03-22T10:29:39.894Z</time></trkpt><trkpt lat="37.7937874" lon="14.8470531"><ele>883.0</ele><time>2026-03-22T10:29:44.785Z</time></trkpt><trkpt lat="37.793748" lon="14.8471173"><ele>883.0</ele><time>2026-03-22T10:29:50.815Z</time></trkpt><trkpt lat="37.7937085" lon="14.8471843"><ele>883.0</ele><time>2026-03-22T10:29:57.263Z</time></trkpt><trkpt lat="37.7936704" lon="14.8472854"><ele>883.0</ele><time>2026-03-22T10:30:58.83Z</time></trkpt><trkpt lat="37.7936191" lon="14.8473397"><ele>883.0</ele><time>2026-03-22T10:31:09.855Z</time></trkpt><trkpt lat="37.7935763" lon="14.8474043"><ele>883.0</ele><time>2026-03-22T10:31:21.815Z</time></trkpt><trkpt lat="37.7935191" lon="14.8474582"><ele>883.0</ele><time>2026-03-22T10:31:28.8Z</time></trkpt><trkpt lat="37.793556" lon="14.8475278"><ele>883.0</ele><time>2026-03-22T10:31:37.832Z</time></trkpt><trkpt lat="37.7935044" lon="14.847601"><ele>883.0</ele><time>2026-03-22T10:32:09.862Z</time></trkpt><trkpt lat="37.7935731" lon="14.8475883"><ele>883.0</ele><time>2026-03-22T10:32:28.166Z</time></trkpt><trkpt lat="37.7935586" lon="14.8474964"><ele>883.0</ele><time>2026-03-22T10:34:44.296Z</time></trkpt><trkpt lat="37.7935326" lon="14.847417"><ele>883.0</ele><time>2026-03-22T10:34:48.756Z</time></trkpt><trkpt lat="37.7935274" lon="14.8474965"><ele>883.0</ele><time>2026-03-22T10:36:06.976Z</time></trkpt><trkpt lat="37.7935906" lon="14.847606"><ele>883.0</ele><time>2026-03-22T10:36:25.348Z</time></trkpt><trkpt lat="37.7935226" lon="14.8475486"><ele>883.0</ele><time>2026-03-22T10:37:10.898Z</time></trkpt><trkpt lat="37.7935013" lon="14.8474734"><ele>883.0</ele><time>2026-03-22T10:37:15.832Z</time></trkpt><trkpt lat="37.7931733" lon="14.8473483"><ele>882.9999999999999</ele><time>2026-03-22T10:39:17.785Z</time></trkpt><trkpt lat="37.7932533" lon="14.8473217"><ele>883.0</ele><time>2026-03-22T10:39:19.785Z</time></trkpt><trkpt lat="37.79332" lon="14.8473333"><ele>883.0</ele><time>2026-03-22T10:39:20.784Z</time></trkpt><trkpt lat="37.793365" lon="14.8474017"><ele>883.0</ele><time>2026-03-22T10:39:22.784Z</time></trkpt><trkpt lat="37.7934635" lon="14.8474777"><ele>882.9999999999999</ele><time>2026-03-22T10:39:29.784Z</time></trkpt><trkpt lat="37.7935328" lon="14.8474716"><ele>883.0</ele><time>2026-03-22T10:41:21.832Z</time></trkpt><trkpt lat="37.7935551" lon="14.8473785"><ele>882.9999999999999</ele><time>2026-03-22T10:41:34.831Z</time></trkpt><trkpt lat="37.7936237" lon="14.8473369"><ele>883.0</ele><time>2026-03-22T10:41:57.89Z</time></trkpt><trkpt lat="37.7936811" lon="14.8472957"><ele>883.0</ele><time>2026-03-22T10:42:12.895Z</time></trkpt><trkpt lat="37.7937661" lon="14.8471912"><ele>883.0</ele><time>2026-03-22T10:42:19.863Z</time></trkpt><trkpt lat="37.7938017" lon="14.8471242"><ele>882.9999999999999</ele><time>2026-03-22T10:42:31.822Z</time></trkpt><trkpt lat="37.7938185" lon="14.8470416"><ele>883.0</ele><time>2026-03-22T10:42:38.894Z</time></trkpt><trkpt lat="37.7938505" lon="14.8469505"><ele>882.9999999999999</ele><time>2026-03-22T10:42:49.871Z</time></trkpt><trkpt lat="37.7939178" lon="14.8469259"><ele>883.0</ele><time>2026-03-22T10:42:52.751Z</time></trkpt><trkpt lat="37.7939719" lon="14.8468692"><ele>883.0</ele><time>2026-03-22T10:43:04.895Z</time></trkpt><trkpt lat="37.7940663" lon="14.84686"><ele>883.0</ele><time>2026-03-22T10:44:31.839Z</time></trkpt><trkpt lat="37.7941663" lon="14.8468387"><ele>882.9999999999999</ele><time>2026-03-22T10:46:49.19Z</time></trkpt><trkpt lat="37.7941809" lon="14.8469168"><ele>883.0</ele><time>2026-03-22T10:46:53.196Z</time></trkpt><trkpt lat="37.7940765" lon="14.8469207"><ele>883.0</ele><time>2026-03-22T10:47:00.87Z</time></trkpt><trkpt lat="37.7939767" lon="14.8470517"><ele>883.0</ele><time>2026-03-22T10:51:19.784Z</time></trkpt><trkpt lat="37.7938733" lon="14.8470167"><ele>883.0</ele><time>2026-03-22T10:51:25.785Z</time></trkpt><trkpt lat="37.793945" lon="14.847145"><ele>883.0</ele><time>2026-03-22T10:51:35.785Z</time></trkpt><trkpt lat="37.7940133" lon="14.847205"><ele>883.0</ele><time>2026-03-22T10:51:36.784Z</time></trkpt><trkpt lat="37.794095" lon="14.84727"><ele>883.0</ele><time>2026-03-22T10:51:37.784Z</time></trkpt><trkpt lat="37.7941733" lon="14.8473583"><ele>883.0</ele><time>2026-03-22T10:51:38.785Z</time></trkpt><trkpt lat="37.79424" lon="14.8474583"><ele>883.0</ele><time>2026-03-22T10:51:39.784Z</time></trkpt><trkpt lat="37.794295" lon="14.8475717"><ele>883.0</ele><time>2026-03-22T10:51:40.784Z</time></trkpt><trkpt lat="37.7943467" lon="14.8476967"><ele>883.75</ele><time>2026-03-22T10:51:41.785Z</time></trkpt><trkpt lat="37.79441" lon="14.847835"><ele>884.5</ele><time>2026-03-22T10:51:42.785Z</time></trkpt><trkpt lat="37.7944783" lon="14.8479783"><ele>885.25</ele><time>2026-03-22T10:51:43.784Z</time></trkpt><trkpt lat="37.79456" lon="14.8481183"><ele>886.0</ele><time>2026-03-22T10:51:44.785Z</time></trkpt><trkpt lat="37.79464" lon="14.8482567"><ele>886.0</ele><time>2026-03-22T10:51:45.784Z</time></trkpt><trkpt lat="37.79472" lon="14.8483967"><ele>886.0</ele><time>2026-03-22T10:51:46.785Z</time></trkpt><trkpt lat="37.7947933" lon="14.848525"><ele>886.0</ele><time>2026-03-22T10:51:47.784Z</time></trkpt><trkpt lat="37.7948617" lon="14.848655"><ele>886.0</ele><time>2026-03-22T10:51:48.785Z</time></trkpt><trkpt lat="37.7949283" lon="14.84878"><ele>887.8</ele><time>2026-03-22T10:51:49.785Z</time></trkpt><trkpt lat="37.794995" lon="14.8489"><ele>889.5999999999999</ele><time>2026-03-22T10:51:50.785Z</time></trkpt><trkpt lat="37.7950617" lon="14.84902"><ele>891.4</ele><time>2026-03-22T10:51:51.785Z</time></trkpt><trkpt lat="37.7951283" lon="14.8491267"><ele>893.2</ele><time>2026-03-22T10:51:52.785Z</time></trkpt><trkpt lat="37.795205" lon="14.8492067"><ele>895.0</ele><time>2026-03-22T10:51:53.785Z</time></trkpt><trkpt lat="37.7952967" lon="14.84924"><ele>895.8</ele><time>2026-03-22T10:51:54.784Z</time></trkpt><trkpt lat="37.7953967" lon="14.849225"><ele>896.6</ele><time>2026-03-22T10:51:55.785Z</time></trkpt><trkpt lat="37.7954917" lon="14.849195"><ele>897.4000000000001</ele><time>2026-03-22T10:51:56.785Z</time></trkpt><trkpt lat="37.7955917" lon="14.84917"><ele>898.2</ele><time>2026-03-22T10:51:57.784Z</time></trkpt><trkpt lat="37.7957" lon="14.8491417"><ele>899.0</ele><time>2026-03-22T10:51:58.784Z</time></trkpt><trkpt lat="37.795805" lon="14.8491283"><ele>899.0</ele><time>2026-03-22T10:51:59.785Z</time></trkpt><trkpt lat="37.7959067" lon="14.8491333"><ele>899.0000000000001</ele><time>2026-03-22T10:52:00.785Z</time></trkpt><trkpt lat="37.7960083" lon="14.84916"><ele>899.0000000000001</ele><time>2026-03-22T10:52:01.784Z</time></trkpt><trkpt lat="37.796105" lon="14.84922"><ele>899.0</ele><time>2026-03-22T10:52:02.785Z</time></trkpt><trkpt lat="37.7961983" lon="14.8492967"><ele>899.0</ele><time>2026-03-22T10:52:03.784Z</time></trkpt><trkpt lat="37.7963017" lon="14.84938"><ele>902.75</ele><time>2026-03-22T10:52:04.785Z</time></trkpt><trkpt lat="37.7964017" lon="14.8494633"><ele>906.5</ele><time>2026-03-22T10:52:05.785Z</time></trkpt><trkpt lat="37.7964983" lon="14.8495433"><ele>910.25</ele><time>2026-03-22T10:52:06.785Z</time></trkpt><trkpt lat="37.7965917" lon="14.8496267"><ele>914.0</ele><time>2026-03-22T10:52:07.784Z</time></trkpt><trkpt lat="37.796675" lon="14.8497183"><ele>914.0</ele><time>2026-03-22T10:52:08.784Z</time></trkpt><trkpt lat="37.7967483" lon="14.84983"><ele>914.0</ele><time>2026-03-22T10:52:09.784Z</time></trkpt><trkpt lat="37.7968117" lon="14.8499633"><ele>914.0</ele><time>2026-03-22T10:52:10.784Z</time></trkpt><trkpt lat="37.796875" lon="14.8501067"><ele>914.0</ele><time>2026-03-22T10:52:11.785Z</time></trkpt><trkpt lat="37.79694" lon="14.8502517"><ele>913.5</ele><time>2026-03-22T10:52:12.784Z</time></trkpt><trkpt lat="37.7970083" lon="14.8504033"><ele>913.0</ele><time>2026-03-22T10:52:13.784Z</time></trkpt><trkpt lat="37.7970783" lon="14.85056"><ele>912.5</ele><time>2026-03-22T10:52:14.784Z</time></trkpt><trkpt lat="37.79715" lon="14.8507183"><ele>912.0</ele><time>2026-03-22T10:52:15.785Z</time></trkpt><trkpt lat="37.7972317" lon="14.8508767"><ele>916.6666666666667</ele><time>2026-03-22T10:52:16.785Z</time></trkpt><trkpt lat="37.7973183" lon="14.85104"><ele>921.3333333333334</ele><time>2026-03-22T10:52:17.785Z</time></trkpt><trkpt lat="37.797405" lon="14.8511983"><ele>926.0</ele><time>2026-03-22T10:52:18.784Z</time></trkpt><trkpt lat="37.7974917" lon="14.8513483"><ele>926.0</ele><time>2026-03-22T10:52:19.784Z</time></trkpt><trkpt lat="37.79758" lon="14.85149"><ele>926.0</ele><time>2026-03-22T10:52:20.785Z</time></trkpt><trkpt lat="37.7976733" lon="14.8516117"><ele>926.0</ele><time>2026-03-22T10:52:21.785Z</time></trkpt><trkpt lat="37.7977717" lon="14.8517183"><ele>926.0</ele><time>2026-03-22T10:52:22.785Z</time></trkpt><trkpt lat="37.7978617" lon="14.8517983"><ele>926.4</ele><time>2026-03-22T10:52:23.785Z</time></trkpt><trkpt lat="37.797965" lon="14.8518333"><ele>926.8</ele><time>2026-03-22T10:52:24.785Z</time></trkpt><trkpt lat="37.7980717" lon="14.8518417"><ele>927.1999999999999</ele><time>2026-03-22T10:52:25.785Z</time></trkpt><trkpt lat="37.79818" lon="14.8518283"><ele>927.5999999999999</ele><time>2026-03-22T10:52:26.784Z</time></trkpt><trkpt lat="37.7982833" lon="14.8518133"><ele>928.0</ele><time>2026-03-22T10:52:27.784Z</time></trkpt><trkpt lat="37.7983967" lon="14.85176"><ele>930.5</ele><time>2026-03-22T10:52:28.784Z</time></trkpt><trkpt lat="37.7985017" lon="14.8516767"><ele>933.0</ele><time>2026-03-22T10:52:29.785Z</time></trkpt><trkpt lat="37.79859" lon="14.851565"><ele>935.5</ele><time>2026-03-22T10:52:30.785Z</time></trkpt><trkpt lat="37.7986783" lon="14.851445"><ele>938.0</ele><time>2026-03-22T10:52:31.784Z</time></trkpt><trkpt lat="37.7987733" lon="14.8513367"><ele>938.0</ele><time>2026-03-22T10:52:32.784Z</time></trkpt><trkpt lat="37.798875" lon="14.8512483"><ele>938.0</ele><time>2026-03-22T10:52:33.785Z</time></trkpt><trkpt lat="37.798985" lon="14.8511767"><ele>938.0</ele><time>2026-03-22T10:52:34.785Z</time></trkpt><trkpt lat="37.7990967" lon="14.8511317"><ele>938.0</ele><time>2026-03-22T10:52:35.785Z</time></trkpt><trkpt lat="37.7992017" lon="14.8511083"><ele>938.0</ele><time>2026-03-22T10:52:36.784Z</time></trkpt><trkpt lat="37.7992967" lon="14.8511117"><ele>938.0</ele><time>2026-03-22T10:52:37.784Z</time></trkpt><trkpt lat="37.799385" lon="14.8511417"><ele>938.0</ele><time>2026-03-22T10:52:38.785Z</time></trkpt><trkpt lat="37.799465" lon="14.8512033"><ele>938.0</ele><time>2026-03-22T10:52:39.785Z</time></trkpt><trkpt lat="37.79954" lon="14.8512967"><ele>938.0</ele><time>2026-03-22T10:52:40.785Z</time></trkpt><trkpt lat="37.799605" lon="14.8514067"><ele>938.5999999999999</ele><time>2026-03-22T10:52:41.785Z</time></trkpt><trkpt lat="37.79967" lon="14.85151"><ele>939.1999999999999</ele><time>2026-03-22T10:52:42.785Z</time></trkpt><trkpt lat="37.7997367" lon="14.8516"><ele>939.8</ele><time>2026-03-22T10:52:43.784Z</time></trkpt><trkpt lat="37.799815" lon="14.851655"><ele>940.4</ele><time>2026-03-22T10:52:44.784Z</time></trkpt><trkpt lat="37.799905" lon="14.85168"><ele>941.0</ele><time>2026-03-22T10:52:45.785Z</time></trkpt><trkpt lat="37.8000067" lon="14.851675"><ele>941.0</ele><time>2026-03-22T10:52:46.784Z</time></trkpt><trkpt lat="37.800115" lon="14.8516583"><ele>941.0</ele><time>2026-03-22T10:52:47.784Z</time></trkpt><trkpt lat="37.80023" lon="14.851645"><ele>941.0</ele><time>2026-03-22T10:52:48.784Z</time></trkpt><trkpt lat="37.8003467" lon="14.85163"><ele>941.0</ele><time>2026-03-22T10:52:49.784Z</time></trkpt><trkpt lat="37.8004583" lon="14.8516167"><ele>942.75</ele><time>2026-03-22T10:52:50.784Z</time></trkpt><trkpt lat="37.8005767" lon="14.851605"><ele>944.5</ele><time>2026-03-22T10:52:51.784Z</time></trkpt><trkpt lat="37.8006983" lon="14.8515933"><ele>946.25</ele><time>2026-03-22T10:52:52.785Z</time></trkpt><trkpt lat="37.8008183" lon="14.8515867"><ele>948.0</ele><time>2026-03-22T10:52:53.784Z</time></trkpt><trkpt lat="37.8009417" lon="14.8515983"><ele>947.75</ele><time>2026-03-22T10:52:54.785Z</time></trkpt><trkpt lat="37.801065" lon="14.851625"><ele>947.5</ele><time>2026-03-22T10:52:55.785Z</time></trkpt><trkpt lat="37.8011883" lon="14.8516683"><ele>947.25</ele><time>2026-03-22T10:52:56.785Z</time></trkpt><trkpt lat="37.801315" lon="14.85173"><ele>947.0</ele><time>2026-03-22T10:52:57.785Z</time></trkpt><trkpt lat="37.8014333" lon="14.8518017"><ele>950.25</ele><time>2026-03-22T10:52:58.785Z</time></trkpt><trkpt lat="37.8015417" lon="14.8518783"><ele>953.5</ele><time>2026-03-22T10:52:59.784Z</time></trkpt><trkpt lat="37.8016467" lon="14.8519617"><ele>956.75</ele><time>2026-03-22T10:53:00.785Z</time></trkpt><trkpt lat="37.80174" lon="14.8520617"><ele>960.0</ele><time>2026-03-22T10:53:01.784Z</time></trkpt><trkpt lat="37.8018167" lon="14.8521717"><ele>961.0</ele><time>2026-03-22T10:53:02.785Z</time></trkpt><trkpt lat="37.801875" lon="14.8523017"><ele>962.0</ele><time>2026-03-22T10:53:03.784Z</time></trkpt><trkpt lat="37.8019267" lon="14.8524433"><ele>963.0</ele><time>2026-03-22T10:53:04.784Z</time></trkpt><trkpt lat="37.8019683" lon="14.8525917"><ele>964.0</ele><time>2026-03-22T10:53:05.785Z</time></trkpt><trkpt lat="37.802" lon="14.85274"><ele>964.0</ele><time>2026-03-22T10:53:06.784Z</time></trkpt><trkpt lat="37.802045" lon="14.8528917"><ele>964.0</ele><time>2026-03-22T10:53:07.785Z</time></trkpt><trkpt lat="37.80209" lon="14.853035"><ele>964.0</ele><time>2026-03-22T10:53:08.784Z</time></trkpt><trkpt lat="37.8021483" lon="14.85317"><ele>964.0</ele><time>2026-03-22T10:53:09.785Z</time></trkpt><trkpt lat="37.8022183" lon="14.8532933"><ele>964.0</ele><time>2026-03-22T10:53:10.785Z</time></trkpt><trkpt lat="37.8023067" lon="14.8534"><ele>964.0</ele><time>2026-03-22T10:53:11.785Z</time></trkpt><trkpt lat="37.8024033" lon="14.8534933"><ele>964.0</ele><time>2026-03-22T10:53:12.785Z</time></trkpt><trkpt lat="37.8025217" lon="14.8535717"><ele>964.0</ele><time>2026-03-22T10:53:13.784Z</time></trkpt><trkpt lat="37.8026483" lon="14.85364"><ele>967.5</ele><time>2026-03-22T10:53:14.785Z</time></trkpt><trkpt lat="37.8027833" lon="14.8537017"><ele>971.0</ele><time>2026-03-22T10:53:15.785Z</time></trkpt><trkpt lat="37.802925" lon="14.8537517"><ele>974.5</ele><time>2026-03-22T10:53:16.784Z</time></trkpt><trkpt lat="37.803055" lon="14.8538117"><ele>978.0</ele><time>2026-03-22T10:53:17.784Z</time></trkpt><trkpt lat="37.8031833" lon="14.8538667"><ele>978.0</ele><time>2026-03-22T10:53:18.784Z</time></trkpt><trkpt lat="37.8033117" lon="14.8539233"><ele>978.0</ele><time>2026-03-22T10:53:19.784Z</time></trkpt><trkpt lat="37.8034367" lon="14.8539617"><ele>978.0</ele><time>2026-03-22T10:53:20.785Z</time></trkpt><trkpt lat="37.8035583" lon="14.85398"><ele>978.0</ele><time>2026-03-22T10:53:21.784Z</time></trkpt><trkpt lat="37.803685" lon="14.8539783"><ele>977.75</ele><time>2026-03-22T10:53:22.785Z</time></trkpt><trkpt lat="37.8038133" lon="14.8539633"><ele>977.5</ele><time>2026-03-22T10:53:23.785Z</time></trkpt><trkpt lat="37.8039367" lon="14.8539683"><ele>977.25</ele><time>2026-03-22T10:53:24.784Z</time></trkpt><trkpt lat="37.8040583" lon="14.8539983"><ele>977.0</ele><time>2026-03-22T10:53:25.785Z</time></trkpt><trkpt lat="37.8041817" lon="14.85406"><ele>977.0</ele><time>2026-03-22T10:53:26.784Z</time></trkpt><trkpt lat="37.8042867" lon="14.8541567"><ele>977.0</ele><time>2026-03-22T10:53:27.784Z</time></trkpt><trkpt lat="37.8043867" lon="14.854275"><ele>977.0</ele><time>2026-03-22T10:53:28.785Z</time></trkpt><trkpt lat="37.8044833" lon="14.8543967"><ele>977.0</ele><time>2026-03-22T10:53:29.785Z</time></trkpt><trkpt lat="37.8045833" lon="14.8545183"><ele>979.5</ele><time>2026-03-22T10:53:30.784Z</time></trkpt><trkpt lat="37.8046983" lon="14.8546283"><ele>982.0</ele><time>2026-03-22T10:53:31.785Z</time></trkpt><trkpt lat="37.804825" lon="14.85472"><ele>984.5</ele><time>2026-03-22T10:53:32.785Z</time></trkpt><trkpt lat="37.8049617" lon="14.8547967"><ele>987.0</ele><time>2026-03-22T10:53:33.784Z</time></trkpt><trkpt lat="37.8051033" lon="14.8548767"><ele>989.0</ele><time>2026-03-22T10:53:34.784Z</time></trkpt><trkpt lat="37.8052433" lon="14.8549517"><ele>991.0</ele><time>2026-03-22T10:53:35.784Z</time></trkpt><trkpt lat="37.805385" lon="14.8550333"><ele>993.0</ele><time>2026-03-22T10:53:36.785Z</time></trkpt><trkpt lat="37.805535" lon="14.855115"><ele>990.3333333333333</ele><time>2026-03-22T10:53:37.785Z</time></trkpt><trkpt lat="37.80569" lon="14.8552067"><ele>987.6666666666666</ele><time>2026-03-22T10:53:38.784Z</time></trkpt><trkpt lat="37.8058417" lon="14.8552967"><ele>985.0</ele><time>2026-03-22T10:53:39.785Z</time></trkpt><trkpt lat="37.8059983" lon="14.8553717"><ele>985.0</ele><time>2026-03-22T10:53:40.784Z</time></trkpt><trkpt lat="37.80615" lon="14.8554617"><ele>985.0</ele><time>2026-03-22T10:53:41.784Z</time></trkpt><trkpt lat="37.8062983" lon="14.8555567"><ele>985.0</ele><time>2026-03-22T10:53:42.784Z</time></trkpt><trkpt lat="37.8064333" lon="14.85566"><ele>985.0</ele><time>2026-03-22T10:53:43.784Z</time></trkpt><trkpt lat="37.8065683" lon="14.8557617"><ele>985.0</ele><time>2026-03-22T10:53:44.784Z</time></trkpt><trkpt lat="37.8067117" lon="14.8558617"><ele>985.0</ele><time>2026-03-22T10:53:45.785Z</time></trkpt><trkpt lat="37.8068617" lon="14.85595"><ele>982.0</ele><time>2026-03-22T10:53:46.785Z</time></trkpt><trkpt lat="37.8070283" lon="14.8560233"><ele>979.0</ele><time>2026-03-22T10:53:47.784Z</time></trkpt><trkpt lat="37.80721" lon="14.8560767"><ele>976.0</ele><time>2026-03-22T10:53:48.784Z</time></trkpt><trkpt lat="37.8073917" lon="14.8561217"><ele>976.0</ele><time>2026-03-22T10:53:49.784Z</time></trkpt><trkpt lat="37.8075833" lon="14.8561683"><ele>976.0</ele><time>2026-03-22T10:53:50.785Z</time></trkpt><trkpt lat="37.8077817" lon="14.8562133"><ele>976.0</ele><time>2026-03-22T10:53:51.785Z</time></trkpt><trkpt lat="37.8079833" lon="14.8562567"><ele>976.3333333333333</ele><time>2026-03-22T10:53:52.785Z</time></trkpt><trkpt lat="37.8081917" lon="14.8563"><ele>976.6666666666667</ele><time>2026-03-22T10:53:53.784Z</time></trkpt><trkpt lat="37.8084067" lon="14.8563467"><ele>977.0</ele><time>2026-03-22T10:53:54.785Z</time></trkpt><trkpt lat="37.808625" lon="14.8563983"><ele>977.0</ele><time>2026-03-22T10:53:55.784Z</time></trkpt><trkpt lat="37.8088467" lon="14.8564433"><ele>977.0</ele><time>2026-03-22T10:53:56.784Z</time></trkpt><trkpt lat="37.8090667" lon="14.8564933"><ele>977.0</ele><time>2026-03-22T10:53:57.784Z</time></trkpt><trkpt lat="37.8092867" lon="14.8565467"><ele>979.0</ele><time>2026-03-22T10:53:58.784Z</time></trkpt><trkpt lat="37.8095067" lon="14.8566033"><ele>981.0</ele><time>2026-03-22T10:53:59.784Z</time></trkpt><trkpt lat="37.80973" lon="14.856655"><ele>981.0</ele><time>2026-03-22T10:54:00.784Z</time></trkpt><trkpt lat="37.8099533" lon="14.856705"><ele>981.0</ele><time>2026-03-22T10:54:01.785Z</time></trkpt><trkpt lat="37.8101817" lon="14.8567517"><ele>980.0</ele><time>2026-03-22T10:54:02.784Z</time></trkpt><trkpt lat="37.81041" lon="14.8567983"><ele>979.0</ele><time>2026-03-22T10:54:03.784Z</time></trkpt><trkpt lat="37.8106417" lon="14.8568417"><ele>979.0</ele><time>2026-03-22T10:54:04.785Z</time></trkpt><trkpt lat="37.81087" lon="14.8568883"><ele>979.0</ele><time>2026-03-22T10:54:05.784Z</time></trkpt><trkpt lat="37.8110967" lon="14.8569417"><ele>979.0</ele><time>2026-03-22T10:54:06.785Z</time></trkpt><trkpt lat="37.8113183" lon="14.856995"><ele>979.0</ele><time>2026-03-22T10:54:07.785Z</time></trkpt><trkpt lat="37.8115433" lon="14.85704"><ele>979.0</ele><time>2026-03-22T10:54:08.784Z</time></trkpt><trkpt lat="37.8117617" lon="14.85709"><ele>979.0</ele><time>2026-03-22T10:54:09.784Z</time></trkpt><trkpt lat="37.8119767" lon="14.8571267"><ele>979.0</ele><time>2026-03-22T10:54:10.785Z</time></trkpt><trkpt lat="37.812185" lon="14.857165"><ele>980.3333333333333</ele><time>2026-03-22T10:54:11.785Z</time></trkpt><trkpt lat="37.812395" lon="14.8572033"><ele>981.6666666666667</ele><time>2026-03-22T10:54:12.785Z</time></trkpt><trkpt lat="37.812605" lon="14.8572433"><ele>983.0</ele><time>2026-03-22T10:54:13.784Z</time></trkpt><trkpt lat="37.8128117" lon="14.8572883"><ele>983.0</ele><time>2026-03-22T10:54:14.785Z</time></trkpt><trkpt lat="37.8130217" lon="14.857335"><ele>983.0</ele><time>2026-03-22T10:54:15.784Z</time></trkpt><trkpt lat="37.8132367" lon="14.8573783"><ele>983.0</ele><time>2026-03-22T10:54:16.785Z</time></trkpt><trkpt lat="37.81345" lon="14.857425"><ele>984.6666666666667</ele><time>2026-03-22T10:54:17.784Z</time></trkpt><trkpt lat="37.8136683" lon="14.8574683"><ele>986.3333333333333</ele><time>2026-03-22T10:54:18.785Z</time></trkpt><trkpt lat="37.8138883" lon="14.8575117"><ele>988.0</ele><time>2026-03-22T10:54:19.785Z</time></trkpt><trkpt lat="37.81411" lon="14.8575583"><ele>988.0</ele><time>2026-03-22T10:54:20.785Z</time></trkpt><trkpt lat="37.8143317" lon="14.857615"><ele>988.0</ele><time>2026-03-22T10:54:21.784Z</time></trkpt><trkpt lat="37.8145467" lon="14.8576883"><ele>988.0</ele><time>2026-03-22T10:54:22.784Z</time></trkpt><trkpt lat="37.81476" lon="14.85778"><ele>988.6666666666666</ele><time>2026-03-22T10:54:23.785Z</time></trkpt><trkpt lat="37.8149667" lon="14.857885"><ele>989.3333333333333</ele><time>2026-03-22T10:54:24.784Z</time></trkpt><trkpt lat="37.81517" lon="14.8580033"><ele>990.0</ele><time>2026-03-22T10:54:25.784Z</time></trkpt><trkpt lat="37.8153717" lon="14.85813"><ele>990.0</ele><time>2026-03-22T10:54:26.784Z</time></trkpt><trkpt lat="37.8155633" lon="14.8582683"><ele>990.0</ele><time>2026-03-22T10:54:27.785Z</time></trkpt><trkpt lat="37.81575" lon="14.858415"><ele>990.0</ele><time>2026-03-22T10:54:28.785Z</time></trkpt><trkpt lat="37.815935" lon="14.8585683"><ele>993.3333333333333</ele><time>2026-03-22T10:54:29.784Z</time></trkpt><trkpt lat="37.816125" lon="14.8587183"><ele>996.6666666666666</ele><time>2026-03-22T10:54:30.785Z</time></trkpt><trkpt lat="37.81631" lon="14.85887"><ele>1000.0</ele><time>2026-03-22T10:54:31.785Z</time></trkpt><trkpt lat="37.8164983" lon="14.8590183"><ele>1000.0</ele><time>2026-03-22T10:54:32.784Z</time></trkpt><trkpt lat="37.8166917" lon="14.8591567"><ele>1000.0</ele><time>2026-03-22T10:54:33.784Z</time></trkpt><trkpt lat="37.816885" lon="14.85929"><ele>1000.0</ele><time>2026-03-22T10:54:34.784Z</time></trkpt><trkpt lat="37.8170833" lon="14.85942"><ele>1002.3333333333333</ele><time>2026-03-22T10:54:35.784Z</time></trkpt><trkpt lat="37.8172833" lon="14.8595417"><ele>1004.6666666666667</ele><time>2026-03-22T10:54:36.785Z</time></trkpt><trkpt lat="37.817475" lon="14.85966"><ele>1007.0</ele><time>2026-03-22T10:54:37.785Z</time></trkpt><trkpt lat="37.8176517" lon="14.8597767"><ele>1008.6666666666667</ele><time>2026-03-22T10:54:38.785Z</time></trkpt><trkpt lat="37.81782" lon="14.8599067"><ele>1010.3333333333333</ele><time>2026-03-22T10:54:39.784Z</time></trkpt><trkpt lat="37.817985" lon="14.8600533"><ele>1012.0</ele><time>2026-03-22T10:54:40.784Z</time></trkpt><trkpt lat="37.818145" lon="14.860215"><ele>1012.0</ele><time>2026-03-22T10:54:41.785Z</time></trkpt><trkpt lat="37.81829" lon="14.8603867"><ele>1012.0</ele><time>2026-03-22T10:54:42.784Z</time></trkpt><trkpt lat="37.8184267" lon="14.860565"><ele>1012.0</ele><time>2026-03-22T10:54:43.784Z</time></trkpt><trkpt lat="37.8185517" lon="14.8607567"><ele>1008.6666666666666</ele><time>2026-03-22T10:54:44.785Z</time></trkpt><trkpt lat="37.81866" lon="14.8609567"><ele>1005.3333333333333</ele><time>2026-03-22T10:54:45.785Z</time></trkpt><trkpt lat="37.8187533" lon="14.8611567"><ele>1002.0</ele><time>2026-03-22T10:54:46.785Z</time></trkpt><trkpt lat="37.818835" lon="14.8613583"><ele>1002.0</ele><time>2026-03-22T10:54:47.785Z</time></trkpt><trkpt lat="37.8189183" lon="14.8615667"><ele>1002.0</ele><time>2026-03-22T10:54:48.784Z</time></trkpt><trkpt lat="37.8189967" lon="14.8617717"><ele>1002.0</ele><time>2026-03-22T10:54:49.785Z</time></trkpt><trkpt lat="37.8190733" lon="14.8619717"><ele>1004.3333333333333</ele><time>2026-03-22T10:54:50.784Z</time></trkpt><trkpt lat="37.819145" lon="14.8621617"><ele>1006.6666666666666</ele><time>2026-03-22T10:54:51.784Z</time></trkpt><trkpt lat="37.819215" lon="14.86234"><ele>1009.0</ele><time>2026-03-22T10:54:52.784Z</time></trkpt><trkpt lat="37.8192867" lon="14.8625183"><ele>1007.3333333333333</ele><time>2026-03-22T10:54:53.784Z</time></trkpt><trkpt lat="37.8193567" lon="14.8626967"><ele>1005.6666666666667</ele><time>2026-03-22T10:54:54.784Z</time></trkpt><trkpt lat="37.8194267" lon="14.862875"><ele>1004.0</ele><time>2026-03-22T10:54:55.784Z</time></trkpt><trkpt lat="37.8195017" lon="14.8630433"><ele>1004.0</ele><time>2026-03-22T10:54:56.785Z</time></trkpt><trkpt lat="37.81958" lon="14.8632117"><ele>1004.0</ele><time>2026-03-22T10:54:57.784Z</time></trkpt><trkpt lat="37.8196733" lon="14.863375"><ele>1004.0</ele><time>2026-03-22T10:54:58.784Z</time></trkpt><trkpt lat="37.8197733" lon="14.8635233"><ele>1005.0</ele><time>2026-03-22T10:54:59.784Z</time></trkpt><trkpt lat="37.8198783" lon="14.8636533"><ele>1006.0</ele><time>2026-03-22T10:55:00.784Z</time></trkpt><trkpt lat="37.8199917" lon="14.8637733"><ele>1007.0</ele><time>2026-03-22T10:55:01.785Z</time></trkpt><trkpt lat="37.82011" lon="14.86389"><ele>1008.0</ele><time>2026-03-22T10:55:02.784Z</time></trkpt><trkpt lat="37.8202267" lon="14.8640067"><ele>1009.6666666666667</ele><time>2026-03-22T10:55:03.784Z</time></trkpt><trkpt lat="37.8203433" lon="14.8641267"><ele>1011.3333333333334</ele><time>2026-03-22T10:55:04.784Z</time></trkpt><trkpt lat="37.8204617" lon="14.8642533"><ele>1013.0</ele><time>2026-03-22T10:55:05.784Z</time></trkpt><trkpt lat="37.8205767" lon="14.8643783"><ele>1013.6666666666667</ele><time>2026-03-22T10:55:06.785Z</time></trkpt><trkpt lat="37.820695" lon="14.8644983"><ele>1014.3333333333333</ele><time>2026-03-22T10:55:07.785Z</time></trkpt><trkpt lat="37.8208133" lon="14.8646217"><ele>1015.0</ele><time>2026-03-22T10:55:08.784Z</time></trkpt><trkpt lat="37.8209317" lon="14.8647483"><ele>1016.6666666666666</ele><time>2026-03-22T10:55:09.785Z</time></trkpt><trkpt lat="37.8210533" lon="14.8648717"><ele>1018.3333333333333</ele><time>2026-03-22T10:55:10.785Z</time></trkpt><trkpt lat="37.821175" lon="14.864995"><ele>1020.0</ele><time>2026-03-22T10:55:11.784Z</time></trkpt><trkpt lat="37.8212933" lon="14.86511"><ele>1019.75</ele><time>2026-03-22T10:55:12.784Z</time></trkpt><trkpt lat="37.821405" lon="14.8652183"><ele>1019.5</ele><time>2026-03-22T10:55:13.785Z</time></trkpt><trkpt lat="37.8215167" lon="14.8653283"><ele>1019.25</ele><time>2026-03-22T10:55:14.785Z</time></trkpt><trkpt lat="37.82163" lon="14.8654333"><ele>1019.0</ele><time>2026-03-22T10:55:15.784Z</time></trkpt><trkpt lat="37.8217317" lon="14.8655317"><ele>1019.6</ele><time>2026-03-22T10:55:16.785Z</time></trkpt><trkpt lat="37.8218217" lon="14.8656217"><ele>1020.2</ele><time>2026-03-22T10:55:17.785Z</time></trkpt><trkpt lat="37.8219033" lon="14.8657"><ele>1020.8000000000001</ele><time>2026-03-22T10:55:18.785Z</time></trkpt><trkpt lat="37.8219767" lon="14.8657783"><ele>1021.4000000000001</ele><time>2026-03-22T10:55:19.785Z</time></trkpt><trkpt lat="37.822055" lon="14.8658567"><ele>1022.0</ele><time>2026-03-22T10:55:20.785Z</time></trkpt><trkpt lat="37.8221383" lon="14.865945"><ele>1021.75</ele><time>2026-03-22T10:55:21.784Z</time></trkpt><trkpt lat="37.8222233" lon="14.8660433"><ele>1021.5</ele><time>2026-03-22T10:55:22.785Z</time></trkpt><trkpt lat="37.8223133" lon="14.8661517"><ele>1021.25</ele><time>2026-03-22T10:55:23.785Z</time></trkpt><trkpt lat="37.8224" lon="14.8662767"><ele>1021.0</ele><time>2026-03-22T10:55:24.785Z</time></trkpt><trkpt lat="37.822485" lon="14.8664167"><ele>1021.0</ele><time>2026-03-22T10:55:25.784Z</time></trkpt><trkpt lat="37.8225617" lon="14.86657"><ele>1021.0</ele><time>2026-03-22T10:55:26.784Z</time></trkpt><trkpt lat="37.8226283" lon="14.8667317"><ele>1021.0</ele><time>2026-03-22T10:55:27.784Z</time></trkpt><trkpt lat="37.822685" lon="14.8668983"><ele>1021.0</ele><time>2026-03-22T10:55:28.784Z</time></trkpt><trkpt lat="37.82273" lon="14.867075"><ele>1022.75</ele><time>2026-03-22T10:55:29.784Z</time></trkpt><trkpt lat="37.822765" lon="14.8672583"><ele>1024.5</ele><time>2026-03-22T10:55:30.784Z</time></trkpt><trkpt lat="37.8227967" lon="14.8674433"><ele>1026.25</ele><time>2026-03-22T10:55:31.784Z</time></trkpt><trkpt lat="37.82282" lon="14.8676267"><ele>1028.0</ele><time>2026-03-22T10:55:32.784Z</time></trkpt><trkpt lat="37.822835" lon="14.8678183"><ele>1029.6666666666667</ele><time>2026-03-22T10:55:33.784Z</time></trkpt><trkpt lat="37.82284" lon="14.8680067"><ele>1031.3333333333333</ele><time>2026-03-22T10:55:34.785Z</time></trkpt><trkpt lat="37.8228217" lon="14.868205"><ele>1033.0</ele><time>2026-03-22T10:55:35.784Z</time></trkpt><trkpt lat="37.8227867" lon="14.8684"><ele>1031.3333333333333</ele><time>2026-03-22T10:55:36.785Z</time></trkpt><trkpt lat="37.8227283" lon="14.8685767"><ele>1029.6666666666667</ele><time>2026-03-22T10:55:37.785Z</time></trkpt><trkpt lat="37.8226517" lon="14.86875"><ele>1028.0</ele><time>2026-03-22T10:55:38.785Z</time></trkpt><trkpt lat="37.8225583" lon="14.8689233"><ele>1028.0</ele><time>2026-03-22T10:55:39.784Z</time></trkpt><trkpt lat="37.82246" lon="14.8691"><ele>1028.0</ele><time>2026-03-22T10:55:40.784Z</time></trkpt><trkpt lat="37.8223583" lon="14.8692833"><ele>1028.0</ele><time>2026-03-22T10:55:41.784Z</time></trkpt><trkpt lat="37.822255" lon="14.8694667"><ele>1029.3333333333335</ele><time>2026-03-22T10:55:42.784Z</time></trkpt><trkpt lat="37.822155" lon="14.86966"><ele>1030.6666666666667</ele><time>2026-03-22T10:55:43.785Z</time></trkpt><trkpt lat="37.8220517" lon="14.8698533"><ele>1032.0</ele><time>2026-03-22T10:55:44.785Z</time></trkpt><trkpt lat="37.821955" lon="14.87004"><ele>1033.3333333333333</ele><time>2026-03-22T10:55:45.784Z</time></trkpt><trkpt lat="37.8218717" lon="14.87022"><ele>1034.6666666666665</ele><time>2026-03-22T10:55:46.784Z</time></trkpt><trkpt lat="37.8218033" lon="14.8704117"><ele>1036.0</ele><time>2026-03-22T10:55:47.785Z</time></trkpt><trkpt lat="37.821755" lon="14.8706233"><ele>1030.3333333333333</ele><time>2026-03-22T10:55:48.785Z</time></trkpt><trkpt lat="37.8217317" lon="14.8708533"><ele>1024.6666666666667</ele><time>2026-03-22T10:55:49.785Z</time></trkpt><trkpt lat="37.8217283" lon="14.871075"><ele>1019.0</ele><time>2026-03-22T10:55:50.784Z</time></trkpt><trkpt lat="37.8217317" lon="14.8712867"><ele>1019.0</ele><time>2026-03-22T10:55:51.784Z</time></trkpt><trkpt lat="37.8217267" lon="14.8714983"><ele>1019.0</ele><time>2026-03-22T10:55:52.784Z</time></trkpt><trkpt lat="37.82171" lon="14.8717133"><ele>1019.0</ele><time>2026-03-22T10:55:53.785Z</time></trkpt><trkpt lat="37.8216717" lon="14.87193"><ele>1021.0</ele><time>2026-03-22T10:55:54.785Z</time></trkpt><trkpt lat="37.821615" lon="14.8721467"><ele>1023.0</ele><time>2026-03-22T10:55:55.784Z</time></trkpt><trkpt lat="37.8215483" lon="14.8723617"><ele>1025.0</ele><time>2026-03-22T10:55:56.785Z</time></trkpt><trkpt lat="37.8214717" lon="14.8725667"><ele>1027.0</ele><time>2026-03-22T10:55:57.784Z</time></trkpt><trkpt lat="37.821395" lon="14.87276"><ele>1029.0</ele><time>2026-03-22T10:55:58.785Z</time></trkpt><trkpt lat="37.8213283" lon="14.872965"><ele>1031.0</ele><time>2026-03-22T10:55:59.784Z</time></trkpt><trkpt lat="37.8212767" lon="14.8731767"><ele>1031.0</ele><time>2026-03-22T10:56:00.784Z</time></trkpt><trkpt lat="37.8212467" lon="14.8733983"><ele>1031.0</ele><time>2026-03-22T10:56:01.784Z</time></trkpt><trkpt lat="37.8212267" lon="14.87363"><ele>1031.0</ele><time>2026-03-22T10:56:02.784Z</time></trkpt><trkpt lat="37.821225" lon="14.8738683"><ele>1030.6666666666667</ele><time>2026-03-22T10:56:03.784Z</time></trkpt><trkpt lat="37.8212367" lon="14.8741133"><ele>1030.3333333333333</ele><time>2026-03-22T10:56:04.785Z</time></trkpt><trkpt lat="37.821245" lon="14.8743667"><ele>1030.0</ele><time>2026-03-22T10:56:05.784Z</time></trkpt><trkpt lat="37.821255" lon="14.8746217"><ele>1028.6666666666665</ele><time>2026-03-22T10:56:06.785Z</time></trkpt><trkpt lat="37.8212667" lon="14.8748817"><ele>1027.3333333333333</ele><time>2026-03-22T10:56:07.785Z</time></trkpt><trkpt lat="37.82128" lon="14.87515"><ele>1026.0</ele><time>2026-03-22T10:56:08.785Z</time></trkpt><trkpt lat="37.8212833" lon="14.8754067"><ele>1025.0</ele><time>2026-03-22T10:56:09.785Z</time></trkpt><trkpt lat="37.8213033" lon="14.87565"><ele>1024.0</ele><time>2026-03-22T10:56:10.785Z</time></trkpt><trkpt lat="37.82135" lon="14.8758917"><ele>1023.0</ele><time>2026-03-22T10:56:11.785Z</time></trkpt><trkpt lat="37.8214283" lon="14.8761283"><ele>1022.0</ele><time>2026-03-22T10:56:12.784Z</time></trkpt><trkpt lat="37.821525" lon="14.8763483"><ele>1021.0</ele><time>2026-03-22T10:56:13.785Z</time></trkpt><trkpt lat="37.8216333" lon="14.8765633"><ele>1020.0</ele><time>2026-03-22T10:56:14.784Z</time></trkpt><trkpt lat="37.8217433" lon="14.8767633"><ele>1022.0</ele><time>2026-03-22T10:56:15.784Z</time></trkpt><trkpt lat="37.82184" lon="14.8769567"><ele>1024.0</ele><time>2026-03-22T10:56:16.785Z</time></trkpt><trkpt lat="37.8219217" lon="14.8771417"><ele>1026.0</ele><time>2026-03-22T10:56:17.785Z</time></trkpt><trkpt lat="37.8219833" lon="14.8773283"><ele>1026.0</ele><time>2026-03-22T10:56:18.784Z</time></trkpt><trkpt lat="37.8220333" lon="14.8775267"><ele>1026.0</ele><time>2026-03-22T10:56:19.785Z</time></trkpt><trkpt lat="37.8220617" lon="14.87773"><ele>1026.0</ele><time>2026-03-22T10:56:20.785Z</time></trkpt><trkpt lat="37.8220817" lon="14.8779467"><ele>1026.0</ele><time>2026-03-22T10:56:21.785Z</time></trkpt><trkpt lat="37.8220883" lon="14.87817"><ele>1026.0</ele><time>2026-03-22T10:56:22.785Z</time></trkpt><trkpt lat="37.822085" lon="14.8783933"><ele>1026.0</ele><time>2026-03-22T10:56:23.785Z</time></trkpt><trkpt lat="37.8220783" lon="14.87862"><ele>1027.3333333333333</ele><time>2026-03-22T10:56:24.784Z</time></trkpt><trkpt lat="37.8220683" lon="14.878845"><ele>1028.6666666666665</ele><time>2026-03-22T10:56:25.785Z</time></trkpt><trkpt lat="37.8220567" lon="14.8790517"><ele>1030.0</ele><time>2026-03-22T10:56:26.784Z</time></trkpt><trkpt lat="37.8220417" lon="14.8792517"><ele>1029.5</ele><time>2026-03-22T10:56:27.784Z</time></trkpt><trkpt lat="37.8220317" lon="14.879435"><ele>1029.0</ele><time>2026-03-22T10:56:28.785Z</time></trkpt><trkpt lat="37.8220367" lon="14.8796133"><ele>1028.5</ele><time>2026-03-22T10:56:29.784Z</time></trkpt><trkpt lat="37.82206" lon="14.8798"><ele>1028.0</ele><time>2026-03-22T10:56:30.785Z</time></trkpt><trkpt lat="37.8220983" lon="14.8799817"><ele>1027.0</ele><time>2026-03-22T10:56:31.785Z</time></trkpt><trkpt lat="37.822145" lon="14.880175"><ele>1026.0</ele><time>2026-03-22T10:56:32.784Z</time></trkpt><trkpt lat="37.8221933" lon="14.8803767"><ele>1025.0</ele><time>2026-03-22T10:56:33.784Z</time></trkpt><trkpt lat="37.82224" lon="14.88059"><ele>1025.0</ele><time>2026-03-22T10:56:34.784Z</time></trkpt><trkpt lat="37.8222817" lon="14.88081"><ele>1025.0</ele><time>2026-03-22T10:56:35.784Z</time></trkpt><trkpt lat="37.822325" lon="14.88104"><ele>1025.0</ele><time>2026-03-22T10:56:36.784Z</time></trkpt><trkpt lat="37.82237" lon="14.881275"><ele>1025.0</ele><time>2026-03-22T10:56:37.785Z</time></trkpt><trkpt lat="37.8224117" lon="14.8815183"><ele>1025.0</ele><time>2026-03-22T10:56:38.785Z</time></trkpt><trkpt lat="37.82244" lon="14.8817633"><ele>1025.0</ele><time>2026-03-22T10:56:39.785Z</time></trkpt><trkpt lat="37.82244" lon="14.882005"><ele>1026.6666666666667</ele><time>2026-03-22T10:56:40.784Z</time></trkpt><trkpt lat="37.8224217" lon="14.8822517"><ele>1028.3333333333333</ele><time>2026-03-22T10:56:41.785Z</time></trkpt><trkpt lat="37.8223983" lon="14.8824983"><ele>1030.0</ele><time>2026-03-22T10:56:42.785Z</time></trkpt><trkpt lat="37.8223717" lon="14.88274"><ele>1031.3333333333333</ele><time>2026-03-22T10:56:43.784Z</time></trkpt><trkpt lat="37.8223483" lon="14.8829883"><ele>1032.6666666666667</ele><time>2026-03-22T10:56:44.785Z</time></trkpt><trkpt lat="37.8223283" lon="14.8832367"><ele>1034.0</ele><time>2026-03-22T10:56:45.784Z</time></trkpt><trkpt lat="37.8223067" lon="14.8834817"><ele>1035.0</ele><time>2026-03-22T10:56:46.784Z</time></trkpt><trkpt lat="37.8222833" lon="14.88373"><ele>1036.0</ele><time>2026-03-22T10:56:47.784Z</time></trkpt><trkpt lat="37.82226" lon="14.8839733"><ele>1037.0</ele><time>2026-03-22T10:56:48.784Z</time></trkpt><trkpt lat="37.8222367" lon="14.8842183"><ele>1038.3333333333335</ele><time>2026-03-22T10:56:49.785Z</time></trkpt><trkpt lat="37.8222167" lon="14.884465"><ele>1039.6666666666667</ele><time>2026-03-22T10:56:50.785Z</time></trkpt><trkpt lat="37.8221983" lon="14.88471"><ele>1041.0</ele><time>2026-03-22T10:56:51.785Z</time></trkpt><trkpt lat="37.8221867" lon="14.8849583"><ele>1042.0</ele><time>2026-03-22T10:56:52.784Z</time></trkpt><trkpt lat="37.82219" lon="14.8852067"><ele>1043.0</ele><time>2026-03-22T10:56:53.785Z</time></trkpt><trkpt lat="37.8222067" lon="14.8854533"><ele>1044.0</ele><time>2026-03-22T10:56:54.784Z</time></trkpt><trkpt lat="37.8222367" lon="14.8857"><ele>1043.6666666666667</ele><time>2026-03-22T10:56:55.785Z</time></trkpt><trkpt lat="37.8222683" lon="14.8859467"><ele>1043.3333333333335</ele><time>2026-03-22T10:56:56.785Z</time></trkpt><trkpt lat="37.8223033" lon="14.886195"><ele>1043.0</ele><time>2026-03-22T10:56:57.785Z</time></trkpt><trkpt lat="37.82234" lon="14.8864467"><ele>1043.0</ele><time>2026-03-22T10:56:58.784Z</time></trkpt><trkpt lat="37.8223717" lon="14.8866983"><ele>1043.0</ele><time>2026-03-22T10:56:59.785Z</time></trkpt><trkpt lat="37.8224067" lon="14.8869583"><ele>1043.0</ele><time>2026-03-22T10:57:00.784Z</time></trkpt><trkpt lat="37.82244" lon="14.887215"><ele>1043.3333333333335</ele><time>2026-03-22T10:57:01.784Z</time></trkpt><trkpt lat="37.8224767" lon="14.887455"><ele>1043.6666666666667</ele><time>2026-03-22T10:57:02.785Z</time></trkpt><trkpt lat="37.8225267" lon="14.8876817"><ele>1044.0</ele><time>2026-03-22T10:57:03.785Z</time></trkpt><trkpt lat="37.8225967" lon="14.887895"><ele>1044.0</ele><time>2026-03-22T10:57:04.785Z</time></trkpt><trkpt lat="37.8226917" lon="14.8880883"><ele>1044.0</ele><time>2026-03-22T10:57:05.785Z</time></trkpt><trkpt lat="37.8228067" lon="14.8882667"><ele>1044.0</ele><time>2026-03-22T10:57:06.785Z</time></trkpt><trkpt lat="37.8229417" lon="14.8884167"><ele>1043.0</ele><time>2026-03-22T10:57:07.785Z</time></trkpt><trkpt lat="37.8230883" lon="14.8885533"><ele>1042.0</ele><time>2026-03-22T10:57:08.784Z</time></trkpt><trkpt lat="37.82324" lon="14.8886917"><ele>1041.0</ele><time>2026-03-22T10:57:09.784Z</time></trkpt><trkpt lat="37.8233983" lon="14.88883"><ele>1041.0</ele><time>2026-03-22T10:57:10.784Z</time></trkpt><trkpt lat="37.82356" lon="14.888975"><ele>1041.0</ele><time>2026-03-22T10:57:11.785Z</time></trkpt><trkpt lat="37.8237233" lon="14.8891217"><ele>1041.0</ele><time>2026-03-22T10:57:12.784Z</time></trkpt><trkpt lat="37.8238917" lon="14.8892717"><ele>1041.3333333333333</ele><time>2026-03-22T10:57:13.784Z</time></trkpt><trkpt lat="37.82406" lon="14.8894233"><ele>1041.6666666666665</ele><time>2026-03-22T10:57:14.784Z</time></trkpt><trkpt lat="37.82423" lon="14.8895733"><ele>1042.0</ele><time>2026-03-22T10:57:15.784Z</time></trkpt><trkpt lat="37.8244" lon="14.8897317"><ele>1041.0</ele><time>2026-03-22T10:57:16.784Z</time></trkpt><trkpt lat="37.82457" lon="14.8898883"><ele>1040.0</ele><time>2026-03-22T10:57:17.784Z</time></trkpt><trkpt lat="37.824735" lon="14.8900417"><ele>1039.0</ele><time>2026-03-22T10:57:18.785Z</time></trkpt><trkpt lat="37.8249133" lon="14.890205"><ele>1039.0</ele><time>2026-03-22T10:57:19.785Z</time></trkpt><trkpt lat="37.82508" lon="14.8903683"><ele>1039.0</ele><time>2026-03-22T10:57:20.784Z</time></trkpt><trkpt lat="37.8252533" lon="14.89053"><ele>1039.0</ele><time>2026-03-22T10:57:21.784Z</time></trkpt><trkpt lat="37.825435" lon="14.890695"><ele>1038.3333333333333</ele><time>2026-03-22T10:57:22.784Z</time></trkpt><trkpt lat="37.8256167" lon="14.890855"><ele>1037.6666666666667</ele><time>2026-03-22T10:57:23.784Z</time></trkpt><trkpt lat="37.8257983" lon="14.8910167"><ele>1037.0</ele><time>2026-03-22T10:57:24.784Z</time></trkpt><trkpt lat="37.8259817" lon="14.89118"><ele>1034.3333333333335</ele><time>2026-03-22T10:57:25.784Z</time></trkpt><trkpt lat="37.8261583" lon="14.8913517"><ele>1031.6666666666667</ele><time>2026-03-22T10:57:26.784Z</time></trkpt><trkpt lat="37.82634" lon="14.89151"><ele>1029.0</ele><time>2026-03-22T10:57:27.785Z</time></trkpt><trkpt lat="37.8265217" lon="14.8916767"><ele>1028.5</ele><time>2026-03-22T10:57:28.785Z</time></trkpt><trkpt lat="37.8267067" lon="14.8918417"><ele>1028.0</ele><time>2026-03-22T10:57:29.785Z</time></trkpt><trkpt lat="37.8268883" lon="14.8920083"><ele>1027.3333333333335</ele><time>2026-03-22T10:57:30.784Z</time></trkpt><trkpt lat="37.827065" lon="14.89217"><ele>1026.6666666666667</ele><time>2026-03-22T10:57:31.784Z</time></trkpt><trkpt lat="37.8272483" lon="14.892335"><ele>1026.0</ele><time>2026-03-22T10:57:32.784Z</time></trkpt><trkpt lat="37.8274333" lon="14.892505"><ele>1025.5</ele><time>2026-03-22T10:57:33.785Z</time></trkpt><trkpt lat="37.8276183" lon="14.892675"><ele>1025.0</ele><time>2026-03-22T10:57:34.784Z</time></trkpt><trkpt lat="37.8278133" lon="14.89284"><ele>1024.0</ele><time>2026-03-22T10:57:35.785Z</time></trkpt><trkpt lat="37.8280083" lon="14.8930117"><ele>1023.0</ele><time>2026-03-22T10:57:36.784Z</time></trkpt><trkpt lat="37.8282017" lon="14.89319"><ele>1023.0</ele><time>2026-03-22T10:57:37.784Z</time></trkpt><trkpt lat="37.8283967" lon="14.89337"><ele>1023.0</ele><time>2026-03-22T10:57:38.784Z</time></trkpt><trkpt lat="37.8286" lon="14.8935467"><ele>1020.5</ele><time>2026-03-22T10:57:39.784Z</time></trkpt><trkpt lat="37.828795" lon="14.8937317"><ele>1018.0</ele><time>2026-03-22T10:57:40.784Z</time></trkpt><trkpt lat="37.82899" lon="14.893915"><ele>1018.0</ele><time>2026-03-22T10:57:41.785Z</time></trkpt><trkpt lat="37.8291817" lon="14.8941"><ele>1018.0</ele><time>2026-03-22T10:57:42.784Z</time></trkpt><trkpt lat="37.8293767" lon="14.8942817"><ele>1017.5</ele><time>2026-03-22T10:57:43.784Z</time></trkpt><trkpt lat="37.8295717" lon="14.8944617"><ele>1017.0</ele><time>2026-03-22T10:57:44.785Z</time></trkpt><trkpt lat="37.8297633" lon="14.8946417"><ele>1017.0</ele><time>2026-03-22T10:57:45.785Z</time></trkpt><trkpt lat="37.8299533" lon="14.8948167"><ele>1017.0</ele><time>2026-03-22T10:57:46.785Z</time></trkpt><trkpt lat="37.8301283" lon="14.894985"><ele>1015.3333333333333</ele><time>2026-03-22T10:57:47.785Z</time></trkpt><trkpt lat="37.8303017" lon="14.8951517"><ele>1013.6666666666666</ele><time>2026-03-22T10:57:48.784Z</time></trkpt><trkpt lat="37.8304767" lon="14.8953067"><ele>1012.0</ele><time>2026-03-22T10:57:49.785Z</time></trkpt><trkpt lat="37.830635" lon="14.8954717"><ele>1012.0</ele><time>2026-03-22T10:57:50.785Z</time></trkpt><trkpt lat="37.8307967" lon="14.895645"><ele>1012.0</ele><time>2026-03-22T10:57:51.784Z</time></trkpt><trkpt lat="37.83096" lon="14.895835"><ele>1012.0</ele><time>2026-03-22T10:57:52.784Z</time></trkpt><trkpt lat="37.8311217" lon="14.89603"><ele>1008.0</ele><time>2026-03-22T10:57:53.784Z</time></trkpt><trkpt lat="37.831285" lon="14.8962233"><ele>1004.0</ele><time>2026-03-22T10:57:54.784Z</time></trkpt><trkpt lat="37.8314567" lon="14.8964167"><ele>1004.0</ele><time>2026-03-22T10:57:55.784Z</time></trkpt><trkpt lat="37.83163" lon="14.8966033"><ele>1004.0</ele><time>2026-03-22T10:57:56.784Z</time></trkpt><trkpt lat="37.8318083" lon="14.8967833"><ele>1004.6666666666667</ele><time>2026-03-22T10:57:57.785Z</time></trkpt><trkpt lat="37.831985" lon="14.8969467"><ele>1005.3333333333333</ele><time>2026-03-22T10:57:58.784Z</time></trkpt><trkpt lat="37.8321583" lon="14.8970833"><ele>1006.0</ele><time>2026-03-22T10:57:59.784Z</time></trkpt><trkpt lat="37.8323167" lon="14.8972167"><ele>1006.0</ele><time>2026-03-22T10:58:00.785Z</time></trkpt><trkpt lat="37.83244" lon="14.897345"><ele>1006.0</ele><time>2026-03-22T10:58:01.784Z</time></trkpt><trkpt lat="37.83254" lon="14.8974633"><ele>1006.0</ele><time>2026-03-22T10:58:02.785Z</time></trkpt><trkpt lat="37.8326283" lon="14.8976117"><ele>1006.0</ele><time>2026-03-22T10:58:03.784Z</time></trkpt><trkpt lat="37.832705" lon="14.8977783"><ele>1004.3333333333333</ele><time>2026-03-22T10:58:04.785Z</time></trkpt><trkpt lat="37.8327867" lon="14.8979517"><ele>1002.6666666666667</ele><time>2026-03-22T10:58:05.784Z</time></trkpt><trkpt lat="37.8328683" lon="14.8981267"><ele>1001.0</ele><time>2026-03-22T10:58:06.784Z</time></trkpt><trkpt lat="37.8329467" lon="14.89829"><ele>1001.3333333333334</ele><time>2026-03-22T10:58:07.784Z</time></trkpt><trkpt lat="37.8330117" lon="14.898465"><ele>1001.6666666666667</ele><time>2026-03-22T10:58:08.785Z</time></trkpt><trkpt lat="37.8330667" lon="14.8986483"><ele>1002.0</ele><time>2026-03-22T10:58:09.784Z</time></trkpt><trkpt lat="37.8331033" lon="14.8988567"><ele>1002.0</ele><time>2026-03-22T10:58:10.785Z</time></trkpt><trkpt lat="37.8331267" lon="14.8990717"><ele>1002.0</ele><time>2026-03-22T10:58:11.785Z</time></trkpt><trkpt lat="37.83315" lon="14.8992933"><ele>1002.0</ele><time>2026-03-22T10:58:12.785Z</time></trkpt><trkpt lat="37.83318" lon="14.8995167"><ele>1002.0</ele><time>2026-03-22T10:58:13.785Z</time></trkpt><trkpt lat="37.8332067" lon="14.8997483"><ele>1002.0</ele><time>2026-03-22T10:58:14.785Z</time></trkpt><trkpt lat="37.833235" lon="14.8999833"><ele>1002.0</ele><time>2026-03-22T10:58:15.784Z</time></trkpt><trkpt lat="37.8332633" lon="14.900225"><ele>1002.0</ele><time>2026-03-22T10:58:16.784Z</time></trkpt><trkpt lat="37.8332983" lon="14.9004683"><ele>1002.0</ele><time>2026-03-22T10:58:17.785Z</time></trkpt><trkpt lat="37.8333283" lon="14.9007117"><ele>1002.0</ele><time>2026-03-22T10:58:18.784Z</time></trkpt><trkpt lat="37.8333583" lon="14.9009483"><ele>1001.6666666666667</ele><time>2026-03-22T10:58:19.784Z</time></trkpt><trkpt lat="37.8333917" lon="14.9011817"><ele>1001.3333333333334</ele><time>2026-03-22T10:58:20.784Z</time></trkpt><trkpt lat="37.833425" lon="14.9014133"><ele>1001.0</ele><time>2026-03-22T10:58:21.785Z</time></trkpt><trkpt lat="37.8334667" lon="14.9016433"><ele>999.6666666666667</ele><time>2026-03-22T10:58:22.785Z</time></trkpt><trkpt lat="37.8335217" lon="14.9018717"><ele>998.3333333333333</ele><time>2026-03-22T10:58:23.785Z</time></trkpt><trkpt lat="37.8335883" lon="14.9020983"><ele>997.0</ele><time>2026-03-22T10:58:24.784Z</time></trkpt><trkpt lat="37.8336767" lon="14.9023067"><ele>997.0</ele><time>2026-03-22T10:58:25.785Z</time></trkpt><trkpt lat="37.8337933" lon="14.9024967"><ele>997.0</ele><time>2026-03-22T10:58:26.785Z</time></trkpt><trkpt lat="37.8339217" lon="14.9026733"><ele>997.0</ele><time>2026-03-22T10:58:27.785Z</time></trkpt><trkpt lat="37.8340667" lon="14.9028333"><ele>997.3333333333333</ele><time>2026-03-22T10:58:28.784Z</time></trkpt><trkpt lat="37.8342167" lon="14.9029617"><ele>997.6666666666667</ele><time>2026-03-22T10:58:29.784Z</time></trkpt><trkpt lat="37.83436" lon="14.9030833"><ele>998.0</ele><time>2026-03-22T10:58:30.785Z</time></trkpt><trkpt lat="37.834495" lon="14.90321"><ele>998.0</ele><time>2026-03-22T10:58:31.785Z</time></trkpt><trkpt lat="37.8346167" lon="14.9033533"><ele>998.0</ele><time>2026-03-22T10:58:32.784Z</time></trkpt><trkpt lat="37.83473" lon="14.903515"><ele>998.0</ele><time>2026-03-22T10:58:33.784Z</time></trkpt><trkpt lat="37.8348367" lon="14.9036883"><ele>998.0</ele><time>2026-03-22T10:58:34.784Z</time></trkpt><trkpt lat="37.8349383" lon="14.9038533"><ele>998.0</ele><time>2026-03-22T10:58:35.784Z</time></trkpt><trkpt lat="37.8350483" lon="14.904035"><ele>998.0</ele><time>2026-03-22T10:58:36.784Z</time></trkpt><trkpt lat="37.8351583" lon="14.9042167"><ele>998.0</ele><time>2026-03-22T10:58:37.785Z</time></trkpt><trkpt lat="37.8352633" lon="14.9044117"><ele>998.0</ele><time>2026-03-22T10:58:38.784Z</time></trkpt><trkpt lat="37.8353617" lon="14.9046183"><ele>998.0</ele><time>2026-03-22T10:58:39.785Z</time></trkpt><trkpt lat="37.8354467" lon="14.9048383"><ele>998.0</ele><time>2026-03-22T10:58:40.785Z</time></trkpt><trkpt lat="37.835515" lon="14.9050633"><ele>998.0</ele><time>2026-03-22T10:58:41.785Z</time></trkpt><trkpt lat="37.8355617" lon="14.9052967"><ele>998.0</ele><time>2026-03-22T10:58:42.785Z</time></trkpt><trkpt lat="37.8356117" lon="14.9055367"><ele>997.3333333333334</ele><time>2026-03-22T10:58:43.784Z</time></trkpt><trkpt lat="37.8356633" lon="14.9057867"><ele>996.6666666666667</ele><time>2026-03-22T10:58:44.785Z</time></trkpt><trkpt lat="37.835715" lon="14.9060283"><ele>996.0</ele><time>2026-03-22T10:58:45.785Z</time></trkpt><trkpt lat="37.8357667" lon="14.9062683"><ele>995.6666666666667</ele><time>2026-03-22T10:58:46.785Z</time></trkpt><trkpt lat="37.83582" lon="14.906495"><ele>995.3333333333334</ele><time>2026-03-22T10:58:47.784Z</time></trkpt><trkpt lat="37.8358883" lon="14.9067233"><ele>995.0</ele><time>2026-03-22T10:58:48.784Z</time></trkpt><trkpt lat="37.83597" lon="14.906925"><ele>992.3333333333334</ele><time>2026-03-22T10:58:49.784Z</time></trkpt><trkpt lat="37.83607" lon="14.9070883"><ele>989.6666666666667</ele><time>2026-03-22T10:58:50.785Z</time></trkpt><trkpt lat="37.8361983" lon="14.9072333"><ele>987.0</ele><time>2026-03-22T10:58:51.784Z</time></trkpt><trkpt lat="37.8363533" lon="14.9073533"><ele>987.0</ele><time>2026-03-22T10:58:52.784Z</time></trkpt><trkpt lat="37.8365283" lon="14.9074483"><ele>987.0</ele><time>2026-03-22T10:58:53.784Z</time></trkpt><trkpt lat="37.8367133" lon="14.907535"><ele>987.0</ele><time>2026-03-22T10:58:54.785Z</time></trkpt><trkpt lat="37.8369033" lon="14.907625"><ele>986.0</ele><time>2026-03-22T10:58:55.785Z</time></trkpt><trkpt lat="37.8371017" lon="14.9077233"><ele>985.0</ele><time>2026-03-22T10:58:56.785Z</time></trkpt><trkpt lat="37.837305" lon="14.9078217"><ele>984.0</ele><time>2026-03-22T10:58:57.784Z</time></trkpt><trkpt lat="37.83751" lon="14.907925"><ele>982.6666666666667</ele><time>2026-03-22T10:58:58.785Z</time></trkpt><trkpt lat="37.83772" lon="14.9080267"><ele>981.3333333333334</ele><time>2026-03-22T10:58:59.784Z</time></trkpt><trkpt lat="37.837925" lon="14.9081367"><ele>980.0</ele><time>2026-03-22T10:59:00.784Z</time></trkpt><trkpt lat="37.8381383" lon="14.9082433"><ele>980.0</ele><time>2026-03-22T10:59:01.784Z</time></trkpt><trkpt lat="37.8383517" lon="14.908355"><ele>980.0</ele><time>2026-03-22T10:59:02.785Z</time></trkpt><trkpt lat="37.838575" lon="14.9084617"><ele>977.5</ele><time>2026-03-22T10:59:03.784Z</time></trkpt><trkpt lat="37.8388017" lon="14.9085733"><ele>975.0</ele><time>2026-03-22T10:59:04.784Z</time></trkpt><trkpt lat="37.8390283" lon="14.90869"><ele>975.0</ele><time>2026-03-22T10:59:05.785Z</time></trkpt><trkpt lat="37.839265" lon="14.908805"><ele>975.0</ele><time>2026-03-22T10:59:06.784Z</time></trkpt><trkpt lat="37.8395" lon="14.9089233"><ele>971.5</ele><time>2026-03-22T10:59:07.784Z</time></trkpt><trkpt lat="37.8397367" lon="14.909045"><ele>968.0</ele><time>2026-03-22T10:59:08.784Z</time></trkpt><trkpt lat="37.8399783" lon="14.9091683"><ele>967.5</ele><time>2026-03-22T10:59:09.785Z</time></trkpt><trkpt lat="37.8402183" lon="14.9092917"><ele>967.0</ele><time>2026-03-22T10:59:10.784Z</time></trkpt><trkpt lat="37.84046" lon="14.9094133"><ele>967.0</ele><time>2026-03-22T10:59:11.785Z</time></trkpt><trkpt lat="37.8407017" lon="14.9095333"><ele>967.0</ele><time>2026-03-22T10:59:12.784Z</time></trkpt><trkpt lat="37.84094" lon="14.90966"><ele>964.5</ele><time>2026-03-22T10:59:13.784Z</time></trkpt><trkpt lat="37.8411833" lon="14.9097767"><ele>962.0</ele><time>2026-03-22T10:59:14.785Z</time></trkpt><trkpt lat="37.84142" lon="14.9098933"><ele>962.0</ele><time>2026-03-22T10:59:15.784Z</time></trkpt><trkpt lat="37.8416433" lon="14.9100067"><ele>962.0</ele><time>2026-03-22T10:59:16.785Z</time></trkpt><trkpt lat="37.8418667" lon="14.9101167"><ele>960.0</ele><time>2026-03-22T10:59:17.784Z</time></trkpt><trkpt lat="37.84209" lon="14.9102317"><ele>958.0</ele><time>2026-03-22T10:59:18.784Z</time></trkpt><trkpt lat="37.8423117" lon="14.91035"><ele>958.0</ele><time>2026-03-22T10:59:19.784Z</time></trkpt><trkpt lat="37.8425383" lon="14.910465"><ele>958.0</ele><time>2026-03-22T10:59:20.784Z</time></trkpt><trkpt lat="37.84277" lon="14.910575"><ele>955.5</ele><time>2026-03-22T10:59:21.784Z</time></trkpt><trkpt lat="37.8430017" lon="14.910685"><ele>953.0</ele><time>2026-03-22T10:59:22.785Z</time></trkpt><trkpt lat="37.8432283" lon="14.9107933"><ele>953.0</ele><time>2026-03-22T10:59:23.785Z</time></trkpt><trkpt lat="37.8434533" lon="14.910895"><ele>953.0</ele><time>2026-03-22T10:59:24.784Z</time></trkpt><trkpt lat="37.843675" lon="14.911"><ele>950.0</ele><time>2026-03-22T10:59:25.785Z</time></trkpt><trkpt lat="37.8438967" lon="14.9111067"><ele>947.0</ele><time>2026-03-22T10:59:26.784Z</time></trkpt><trkpt lat="37.8441133" lon="14.9112133"><ele>944.6666666666667</ele><time>2026-03-22T10:59:27.784Z</time></trkpt><trkpt lat="37.8443217" lon="14.9113217"><ele>942.3333333333333</ele><time>2026-03-22T10:59:28.784Z</time></trkpt><trkpt lat="37.8445233" lon="14.9114233"><ele>940.0</ele><time>2026-03-22T10:59:29.785Z</time></trkpt><trkpt lat="37.8447083" lon="14.9115267"><ele>940.0</ele><time>2026-03-22T10:59:30.785Z</time></trkpt><trkpt lat="37.8448783" lon="14.9116483"><ele>940.0</ele><time>2026-03-22T10:59:31.785Z</time></trkpt><trkpt lat="37.8450417" lon="14.91179"><ele>940.0</ele><time>2026-03-22T10:59:32.784Z</time></trkpt><trkpt lat="37.8451933" lon="14.9119583"><ele>937.3333333333333</ele><time>2026-03-22T10:59:33.785Z</time></trkpt><trkpt lat="37.8453467" lon="14.9121467"><ele>934.6666666666667</ele><time>2026-03-22T10:59:34.785Z</time></trkpt><trkpt lat="37.8454983" lon="14.9123367"><ele>932.0</ele><time>2026-03-22T10:59:35.785Z</time></trkpt><trkpt lat="37.8456433" lon="14.91252"><ele>932.6666666666667</ele><time>2026-03-22T10:59:36.784Z</time></trkpt><trkpt lat="37.84578" lon="14.9126917"><ele>933.3333333333333</ele><time>2026-03-22T10:59:37.785Z</time></trkpt><trkpt lat="37.8459017" lon="14.9128683"><ele>934.0</ele><time>2026-03-22T10:59:38.785Z</time></trkpt><trkpt lat="37.8460133" lon="14.91306"><ele>932.0</ele><time>2026-03-22T10:59:39.785Z</time></trkpt><trkpt lat="37.8461083" lon="14.9132767"><ele>930.0</ele><time>2026-03-22T10:59:40.785Z</time></trkpt><trkpt lat="37.8461917" lon="14.9135083"><ele>928.0</ele><time>2026-03-22T10:59:41.785Z</time></trkpt><trkpt lat="37.8462583" lon="14.9137533"><ele>928.0</ele><time>2026-03-22T10:59:42.784Z</time></trkpt><trkpt lat="37.8463033" lon="14.9140017"><ele>928.0</ele><time>2026-03-22T10:59:43.784Z</time></trkpt><trkpt lat="37.8463217" lon="14.9142433"><ele>928.0</ele><time>2026-03-22T10:59:44.785Z</time></trkpt><trkpt lat="37.8463367" lon="14.9144683"><ele>929.3333333333333</ele><time>2026-03-22T10:59:45.784Z</time></trkpt><trkpt lat="37.8463617" lon="14.9146883"><ele>930.6666666666667</ele><time>2026-03-22T10:59:46.784Z</time></trkpt><trkpt lat="37.84641" lon="14.9148867"><ele>932.0</ele><time>2026-03-22T10:59:47.784Z</time></trkpt><trkpt lat="37.846485" lon="14.915045"><ele>932.3333333333334</ele><time>2026-03-22T10:59:48.785Z</time></trkpt><trkpt lat="37.8465933" lon="14.915185"><ele>932.6666666666667</ele><time>2026-03-22T10:59:49.784Z</time></trkpt><trkpt lat="37.8467217" lon="14.9153067"><ele>933.0</ele><time>2026-03-22T10:59:50.785Z</time></trkpt><trkpt lat="37.84687" lon="14.9154017"><ele>933.0</ele><time>2026-03-22T10:59:51.784Z</time></trkpt><trkpt lat="37.8470267" lon="14.9154817"><ele>933.0</ele><time>2026-03-22T10:59:52.785Z</time></trkpt><trkpt lat="37.8471967" lon="14.91554"><ele>933.0</ele><time>2026-03-22T10:59:53.784Z</time></trkpt><trkpt lat="37.8473667" lon="14.9156"><ele>933.0</ele><time>2026-03-22T10:59:54.784Z</time></trkpt><trkpt lat="37.8475383" lon="14.9156683"><ele>933.0</ele><time>2026-03-22T10:59:55.785Z</time></trkpt><trkpt lat="37.8477017" lon="14.9157483"><ele>933.0</ele><time>2026-03-22T10:59:56.784Z</time></trkpt><trkpt lat="37.8478667" lon="14.915845"><ele>932.3333333333333</ele><time>2026-03-22T10:59:57.784Z</time></trkpt><trkpt lat="37.84802" lon="14.9159617"><ele>931.6666666666666</ele><time>2026-03-22T10:59:58.784Z</time></trkpt><trkpt lat="37.8481633" lon="14.9161033"><ele>931.0</ele><time>2026-03-22T10:59:59.785Z</time></trkpt><trkpt lat="37.8482983" lon="14.91626"><ele>931.0</ele><time>2026-03-22T11:00:00.785Z</time></trkpt><trkpt lat="37.84842" lon="14.9164317"><ele>931.0</ele><time>2026-03-22T11:00:01.785Z</time></trkpt><trkpt lat="37.8485217" lon="14.9166283"><ele>931.0</ele><time>2026-03-22T11:00:02.784Z</time></trkpt><trkpt lat="37.84862" lon="14.9168383"><ele>930.3333333333333</ele><time>2026-03-22T11:00:03.785Z</time></trkpt><trkpt lat="37.8487067" lon="14.91706"><ele>929.6666666666667</ele><time>2026-03-22T11:00:04.785Z</time></trkpt><trkpt lat="37.8487817" lon="14.9172917"><ele>929.0</ele><time>2026-03-22T11:00:05.785Z</time></trkpt><trkpt lat="37.8488367" lon="14.9175383"><ele>928.0</ele><time>2026-03-22T11:00:06.785Z</time></trkpt><trkpt lat="37.8488783" lon="14.9177933"><ele>927.0</ele><time>2026-03-22T11:00:07.784Z</time></trkpt><trkpt lat="37.84891" lon="14.9180467"><ele>926.0</ele><time>2026-03-22T11:00:08.784Z</time></trkpt><trkpt lat="37.84894" lon="14.9182817"><ele>925.0</ele><time>2026-03-22T11:00:09.785Z</time></trkpt><trkpt lat="37.8489833" lon="14.9185033"><ele>924.0</ele><time>2026-03-22T11:00:10.785Z</time></trkpt><trkpt lat="37.8490483" lon="14.918695"><ele>923.0</ele><time>2026-03-22T11:00:11.784Z</time></trkpt><trkpt lat="37.8491383" lon="14.9188617"><ele>923.0</ele><time>2026-03-22T11:00:12.785Z</time></trkpt><trkpt lat="37.8492617" lon="14.919005"><ele>923.0</ele><time>2026-03-22T11:00:13.784Z</time></trkpt><trkpt lat="37.84942" lon="14.91911"><ele>923.0</ele><time>2026-03-22T11:00:14.785Z</time></trkpt><trkpt lat="37.8495817" lon="14.919215"><ele>921.3333333333334</ele><time>2026-03-22T11:00:15.785Z</time></trkpt><trkpt lat="37.84975" lon="14.91933"><ele>919.6666666666667</ele><time>2026-03-22T11:00:16.784Z</time></trkpt><trkpt lat="37.8499217" lon="14.9194517"><ele>918.0</ele><time>2026-03-22T11:00:17.785Z</time></trkpt><trkpt lat="37.8501017" lon="14.919575"><ele>916.6666666666667</ele><time>2026-03-22T11:00:18.785Z</time></trkpt><trkpt lat="37.8502817" lon="14.9197033"><ele>915.3333333333334</ele><time>2026-03-22T11:00:19.784Z</time></trkpt><trkpt lat="37.850465" lon="14.91983"><ele>914.0</ele><time>2026-03-22T11:00:20.784Z</time></trkpt><trkpt lat="37.8506533" lon="14.9199583"><ele>913.3333333333334</ele><time>2026-03-22T11:00:21.784Z</time></trkpt><trkpt lat="37.8508433" lon="14.9200883"><ele>912.6666666666667</ele><time>2026-03-22T11:00:22.784Z</time></trkpt><trkpt lat="37.8510367" lon="14.9202167"><ele>912.0</ele><time>2026-03-22T11:00:23.785Z</time></trkpt><trkpt lat="37.85123" lon="14.920345"><ele>912.0</ele><time>2026-03-22T11:00:24.784Z</time></trkpt><trkpt lat="37.8514133" lon="14.920475"><ele>912.0</ele><time>2026-03-22T11:00:25.784Z</time></trkpt><trkpt lat="37.851595" lon="14.9205967"><ele>912.0</ele><time>2026-03-22T11:00:26.784Z</time></trkpt><trkpt lat="37.85177" lon="14.92071"><ele>912.6666666666667</ele><time>2026-03-22T11:00:27.784Z</time></trkpt><trkpt lat="37.8519367" lon="14.920815"><ele>913.3333333333334</ele><time>2026-03-22T11:00:28.785Z</time></trkpt><trkpt lat="37.8520933" lon="14.920915"><ele>914.0</ele><time>2026-03-22T11:00:29.784Z</time></trkpt><trkpt lat="37.85224" lon="14.9210067"><ele>914.0</ele><time>2026-03-22T11:00:30.784Z</time></trkpt><trkpt lat="37.85238" lon="14.9210733"><ele>914.0</ele><time>2026-03-22T11:00:31.785Z</time></trkpt><trkpt lat="37.8525067" lon="14.921105"><ele>914.0</ele><time>2026-03-22T11:00:32.785Z</time></trkpt><trkpt lat="37.8526" lon="14.9210917"><ele>914.0</ele><time>2026-03-22T11:00:33.785Z</time></trkpt><trkpt lat="37.8526783" lon="14.92105"><ele>912.25</ele><time>2026-03-22T11:00:34.784Z</time></trkpt><trkpt lat="37.8527567" lon="14.920975"><ele>910.5</ele><time>2026-03-22T11:00:35.784Z</time></trkpt><trkpt lat="37.8528483" lon="14.9208733"><ele>908.75</ele><time>2026-03-22T11:00:36.784Z</time></trkpt><trkpt lat="37.8529417" lon="14.9207717"><ele>907.0</ele><time>2026-03-22T11:00:37.785Z</time></trkpt><trkpt lat="37.853035" lon="14.9206883"><ele>906.2</ele><time>2026-03-22T11:00:38.784Z</time></trkpt><trkpt lat="37.8531233" lon="14.9206183"><ele>905.4000000000001</ele><time>2026-03-22T11:00:39.785Z</time></trkpt><trkpt lat="37.8532167" lon="14.920565"><ele>904.5999999999999</ele><time>2026-03-22T11:00:40.784Z</time></trkpt><trkpt lat="37.8533133" lon="14.920545"><ele>903.8</ele><time>2026-03-22T11:00:41.785Z</time></trkpt><trkpt lat="37.853425" lon="14.9205483"><ele>903.0</ele><time>2026-03-22T11:00:42.784Z</time></trkpt><trkpt lat="37.8535517" lon="14.92057"><ele>901.0</ele><time>2026-03-22T11:00:43.784Z</time></trkpt><trkpt lat="37.8536783" lon="14.9206133"><ele>899.0</ele><time>2026-03-22T11:00:44.784Z</time></trkpt><trkpt lat="37.85379" lon="14.9206667"><ele>897.0</ele><time>2026-03-22T11:00:45.784Z</time></trkpt><trkpt lat="37.853895" lon="14.9207317"><ele>895.0</ele><time>2026-03-22T11:00:46.785Z</time></trkpt><trkpt lat="37.8540033" lon="14.9207967"><ele>895.0</ele><time>2026-03-22T11:00:47.785Z</time></trkpt><trkpt lat="37.85412" lon="14.9208483"><ele>895.0</ele><time>2026-03-22T11:00:48.784Z</time></trkpt><trkpt lat="37.8542517" lon="14.9208767"><ele>895.0</ele><time>2026-03-22T11:00:49.785Z</time></trkpt><trkpt lat="37.8543883" lon="14.9208933"><ele>895.0</ele><time>2026-03-22T11:00:50.784Z</time></trkpt><trkpt lat="37.8545233" lon="14.9208883"><ele>893.0</ele><time>2026-03-22T11:00:51.785Z</time></trkpt><trkpt lat="37.8546533" lon="14.92088"><ele>891.0</ele><time>2026-03-22T11:00:52.785Z</time></trkpt><trkpt lat="37.8547767" lon="14.9208717"><ele>889.0</ele><time>2026-03-22T11:00:53.784Z</time></trkpt><trkpt lat="37.854895" lon="14.920865"><ele>887.0</ele><time>2026-03-22T11:00:54.785Z</time></trkpt><trkpt lat="37.855015" lon="14.92086"><ele>886.0</ele><time>2026-03-22T11:00:55.785Z</time></trkpt><trkpt lat="37.855135" lon="14.9208767"><ele>885.0</ele><time>2026-03-22T11:00:56.785Z</time></trkpt><trkpt lat="37.8552533" lon="14.9209083"><ele>884.0</ele><time>2026-03-22T11:00:57.784Z</time></trkpt><trkpt lat="37.85537" lon="14.9209633"><ele>883.0</ele><time>2026-03-22T11:00:58.785Z</time></trkpt><trkpt lat="37.8554767" lon="14.921045"><ele>883.0</ele><time>2026-03-22T11:00:59.784Z</time></trkpt><trkpt lat="37.85559" lon="14.9211467"><ele>883.0</ele><time>2026-03-22T11:01:00.785Z</time></trkpt><trkpt lat="37.8556933" lon="14.9212683"><ele>883.0</ele><time>2026-03-22T11:01:01.784Z</time></trkpt><trkpt lat="37.8557783" lon="14.9214067"><ele>883.0</ele><time>2026-03-22T11:01:02.785Z</time></trkpt><trkpt lat="37.8558717" lon="14.9215383"><ele>882.25</ele><time>2026-03-22T11:01:03.784Z</time></trkpt><trkpt lat="37.855975" lon="14.9216517"><ele>881.5</ele><time>2026-03-22T11:01:04.784Z</time></trkpt><trkpt lat="37.8560883" lon="14.92175"><ele>880.75</ele><time>2026-03-22T11:01:05.784Z</time></trkpt><trkpt lat="37.85622" lon="14.9218283"><ele>880.0</ele><time>2026-03-22T11:01:06.784Z</time></trkpt><trkpt lat="37.8563633" lon="14.921885"><ele>880.0</ele><time>2026-03-22T11:01:07.784Z</time></trkpt><trkpt lat="37.85652" lon="14.92192"><ele>880.0</ele><time>2026-03-22T11:01:08.785Z</time></trkpt><trkpt lat="37.8566833" lon="14.9219433"><ele>880.0</ele><time>2026-03-22T11:01:09.785Z</time></trkpt><trkpt lat="37.8568483" lon="14.9219783"><ele>878.0</ele><time>2026-03-22T11:01:10.785Z</time></trkpt><trkpt lat="37.8570167" lon="14.9220183"><ele>876.0</ele><time>2026-03-22T11:01:11.784Z</time></trkpt><trkpt lat="37.8571883" lon="14.9220583"><ele>874.0</ele><time>2026-03-22T11:01:12.784Z</time></trkpt><trkpt lat="37.8573583" lon="14.9221033"><ele>874.0</ele><time>2026-03-22T11:01:13.784Z</time></trkpt><trkpt lat="37.8575267" lon="14.9221483"><ele>874.0</ele><time>2026-03-22T11:01:14.784Z</time></trkpt><trkpt lat="37.8576933" lon="14.9221883"><ele>874.0</ele><time>2026-03-22T11:01:15.784Z</time></trkpt><trkpt lat="37.8578617" lon="14.922225"><ele>873.3333333333333</ele><time>2026-03-22T11:01:16.784Z</time></trkpt><trkpt lat="37.8580283" lon="14.9222667"><ele>872.6666666666667</ele><time>2026-03-22T11:01:17.785Z</time></trkpt><trkpt lat="37.8581917" lon="14.92231"><ele>872.0</ele><time>2026-03-22T11:01:18.784Z</time></trkpt><trkpt lat="37.8583567" lon="14.9223483"><ele>870.6666666666667</ele><time>2026-03-22T11:01:19.784Z</time></trkpt><trkpt lat="37.8585167" lon="14.9223867"><ele>869.3333333333333</ele><time>2026-03-22T11:01:20.785Z</time></trkpt><trkpt lat="37.85868" lon="14.9224217"><ele>868.0</ele><time>2026-03-22T11:01:21.785Z</time></trkpt><trkpt lat="37.8588433" lon="14.922455"><ele>868.0</ele><time>2026-03-22T11:01:22.784Z</time></trkpt><trkpt lat="37.8590083" lon="14.9224917"><ele>868.0</ele><time>2026-03-22T11:01:23.784Z</time></trkpt><trkpt lat="37.8591783" lon="14.9225283"><ele>868.0</ele><time>2026-03-22T11:01:24.785Z</time></trkpt><trkpt lat="37.859345" lon="14.922565"><ele>867.0</ele><time>2026-03-22T11:01:25.785Z</time></trkpt><trkpt lat="37.8595017" lon="14.92261"><ele>866.0</ele><time>2026-03-22T11:01:26.784Z</time></trkpt><trkpt lat="37.85965" lon="14.9226667"><ele>865.0</ele><time>2026-03-22T11:01:27.785Z</time></trkpt><trkpt lat="37.8597933" lon="14.9227433"><ele>865.0</ele><time>2026-03-22T11:01:28.785Z</time></trkpt><trkpt lat="37.8599267" lon="14.9228483"><ele>865.0</ele><time>2026-03-22T11:01:29.785Z</time></trkpt><trkpt lat="37.86005" lon="14.9229833"><ele>865.0</ele><time>2026-03-22T11:01:30.785Z</time></trkpt><trkpt lat="37.86016" lon="14.923145"><ele>863.0</ele><time>2026-03-22T11:01:31.784Z</time></trkpt><trkpt lat="37.8602617" lon="14.9233267"><ele>861.0</ele><time>2026-03-22T11:01:32.785Z</time></trkpt><trkpt lat="37.86036" lon="14.9235183"><ele>859.0</ele><time>2026-03-22T11:01:33.785Z</time></trkpt><trkpt lat="37.8604633" lon="14.92371"><ele>858.6666666666666</ele><time>2026-03-22T11:01:34.785Z</time></trkpt><trkpt lat="37.8605667" lon="14.923915"><ele>858.3333333333333</ele><time>2026-03-22T11:01:35.784Z</time></trkpt><trkpt lat="37.8606583" lon="14.92412"><ele>858.0</ele><time>2026-03-22T11:01:36.785Z</time></trkpt><trkpt lat="37.8607533" lon="14.9243233"><ele>856.6666666666667</ele><time>2026-03-22T11:01:37.785Z</time></trkpt><trkpt lat="37.8608567" lon="14.9245183"><ele>855.3333333333334</ele><time>2026-03-22T11:01:38.786Z</time></trkpt><trkpt lat="37.860955" lon="14.9247217"><ele>854.0</ele><time>2026-03-22T11:01:39.786Z</time></trkpt><trkpt lat="37.8610533" lon="14.92492"><ele>851.6666666666667</ele><time>2026-03-22T11:01:40.786Z</time></trkpt><trkpt lat="37.86116" lon="14.9251067"><ele>849.3333333333333</ele><time>2026-03-22T11:01:41.785Z</time></trkpt><trkpt lat="37.86128" lon="14.9252867"><ele>847.0</ele><time>2026-03-22T11:01:42.786Z</time></trkpt><trkpt lat="37.8614167" lon="14.9254567"><ele>847.0</ele><time>2026-03-22T11:01:43.786Z</time></trkpt><trkpt lat="37.8615683" lon="14.9256133"><ele>847.0</ele><time>2026-03-22T11:01:44.785Z</time></trkpt><trkpt lat="37.8617267" lon="14.9257667"><ele>847.0</ele><time>2026-03-22T11:01:45.786Z</time></trkpt><trkpt lat="37.8618817" lon="14.9259183"><ele>846.3333333333333</ele><time>2026-03-22T11:01:46.786Z</time></trkpt><trkpt lat="37.86204" lon="14.926075"><ele>845.6666666666667</ele><time>2026-03-22T11:01:47.786Z</time></trkpt><trkpt lat="37.862195" lon="14.9262233"><ele>845.0</ele><time>2026-03-22T11:01:48.786Z</time></trkpt><trkpt lat="37.8623583" lon="14.92636"><ele>845.0</ele><time>2026-03-22T11:01:49.786Z</time></trkpt><trkpt lat="37.86253" lon="14.9264883"><ele>845.0</ele><time>2026-03-22T11:01:50.786Z</time></trkpt><trkpt lat="37.86271" lon="14.9266067"><ele>845.0</ele><time>2026-03-22T11:01:51.786Z</time></trkpt><trkpt lat="37.8628917" lon="14.926725"><ele>843.0</ele><time>2026-03-22T11:01:52.785Z</time></trkpt><trkpt lat="37.8630667" lon="14.9268467"><ele>841.0</ele><time>2026-03-22T11:01:53.785Z</time></trkpt><trkpt lat="37.8632283" lon="14.92696"><ele>839.0</ele><time>2026-03-22T11:01:54.786Z</time></trkpt><trkpt lat="37.8633867" lon="14.9270517"><ele>837.6666666666667</ele><time>2026-03-22T11:01:55.785Z</time></trkpt><trkpt lat="37.8635433" lon="14.9271333"><ele>836.3333333333333</ele><time>2026-03-22T11:01:56.786Z</time></trkpt><trkpt lat="37.86371" lon="14.927195"><ele>835.0</ele><time>2026-03-22T11:01:57.785Z</time></trkpt><trkpt lat="37.86389" lon="14.9272283"><ele>835.0</ele><time>2026-03-22T11:01:58.785Z</time></trkpt><trkpt lat="37.86408" lon="14.92724"><ele>835.0</ele><time>2026-03-22T11:01:59.785Z</time></trkpt><trkpt lat="37.86428" lon="14.9272367"><ele>835.0</ele><time>2026-03-22T11:02:00.786Z</time></trkpt><trkpt lat="37.864485" lon="14.9272233"><ele>834.3333333333333</ele><time>2026-03-22T11:02:01.786Z</time></trkpt><trkpt lat="37.8646983" lon="14.92721"><ele>833.6666666666667</ele><time>2026-03-22T11:02:02.786Z</time></trkpt><trkpt lat="37.86491" lon="14.9271983"><ele>833.0</ele><time>2026-03-22T11:02:03.785Z</time></trkpt><trkpt lat="37.86512" lon="14.9271933"><ele>832.3333333333334</ele><time>2026-03-22T11:02:04.786Z</time></trkpt><trkpt lat="37.8653233" lon="14.9271867"><ele>831.6666666666667</ele><time>2026-03-22T11:02:05.786Z</time></trkpt><trkpt lat="37.8655217" lon="14.9271783"><ele>831.0</ele><time>2026-03-22T11:02:06.786Z</time></trkpt><trkpt lat="37.8657117" lon="14.92717"><ele>831.0</ele><time>2026-03-22T11:02:07.786Z</time></trkpt><trkpt lat="37.86589" lon="14.9271633"><ele>831.0</ele><time>2026-03-22T11:02:08.785Z</time></trkpt><trkpt lat="37.8660733" lon="14.9271533"><ele>831.0</ele><time>2026-03-22T11:02:09.785Z</time></trkpt><trkpt lat="37.866245" lon="14.9271517"><ele>829.0</ele><time>2026-03-22T11:02:10.786Z</time></trkpt><trkpt lat="37.8664183" lon="14.92714"><ele>827.0</ele><time>2026-03-22T11:02:11.786Z</time></trkpt><trkpt lat="37.8665817" lon="14.9271367"><ele>825.0</ele><time>2026-03-22T11:02:12.785Z</time></trkpt><trkpt lat="37.8667367" lon="14.9271267"><ele>824.25</ele><time>2026-03-22T11:02:13.786Z</time></trkpt><trkpt lat="37.866875" lon="14.9271267"><ele>823.5</ele><time>2026-03-22T11:02:14.785Z</time></trkpt><trkpt lat="37.8669917" lon="14.927125"><ele>822.75</ele><time>2026-03-22T11:02:15.786Z</time></trkpt><trkpt lat="37.8670933" lon="14.9271167"><ele>822.0</ele><time>2026-03-22T11:02:16.785Z</time></trkpt><trkpt lat="37.867195" lon="14.9271117"><ele>822.0</ele><time>2026-03-22T11:02:17.786Z</time></trkpt><trkpt lat="37.867295" lon="14.927115"><ele>822.0</ele><time>2026-03-22T11:02:18.786Z</time></trkpt><trkpt lat="37.8674033" lon="14.927135"><ele>822.0</ele><time>2026-03-22T11:02:19.785Z</time></trkpt><trkpt lat="37.867525" lon="14.9271633"><ele>822.0</ele><time>2026-03-22T11:02:20.786Z</time></trkpt><trkpt lat="37.86766" lon="14.9272033"><ele>822.0</ele><time>2026-03-22T11:02:21.785Z</time></trkpt><trkpt lat="37.8678033" lon="14.927255"><ele>822.0</ele><time>2026-03-22T11:02:22.785Z</time></trkpt><trkpt lat="37.86795" lon="14.92731"><ele>822.0</ele><time>2026-03-22T11:02:23.786Z</time></trkpt><trkpt lat="37.8681" lon="14.9273733"><ele>822.0</ele><time>2026-03-22T11:02:24.786Z</time></trkpt><trkpt lat="37.86825" lon="14.9274417"><ele>822.0</ele><time>2026-03-22T11:02:25.785Z</time></trkpt><trkpt lat="37.868395" lon="14.927505"><ele>822.0</ele><time>2026-03-22T11:02:26.785Z</time></trkpt><trkpt lat="37.8685417" lon="14.9275617"><ele>821.25</ele><time>2026-03-22T11:02:27.785Z</time></trkpt><trkpt lat="37.8686733" lon="14.9276233"><ele>820.5</ele><time>2026-03-22T11:02:28.786Z</time></trkpt><trkpt lat="37.868805" lon="14.9276933"><ele>819.75</ele><time>2026-03-22T11:02:29.786Z</time></trkpt><trkpt lat="37.8689367" lon="14.92778"><ele>819.0</ele><time>2026-03-22T11:02:30.786Z</time></trkpt><trkpt lat="37.8690633" lon="14.9278833"><ele>819.0</ele><time>2026-03-22T11:02:31.786Z</time></trkpt><trkpt lat="37.8691883" lon="14.9280033"><ele>819.0</ele><time>2026-03-22T11:02:32.785Z</time></trkpt><trkpt lat="37.8693033" lon="14.92813"><ele>819.0</ele><time>2026-03-22T11:02:33.785Z</time></trkpt><trkpt lat="37.8694017" lon="14.928275"><ele>818.3333333333333</ele><time>2026-03-22T11:02:34.785Z</time></trkpt><trkpt lat="37.869495" lon="14.9284383"><ele>817.6666666666666</ele><time>2026-03-22T11:02:35.786Z</time></trkpt><trkpt lat="37.8695733" lon="14.9286217"><ele>817.0</ele><time>2026-03-22T11:02:36.785Z</time></trkpt><trkpt lat="37.8696433" lon="14.9288133"><ele>817.0</ele><time>2026-03-22T11:02:37.786Z</time></trkpt><trkpt lat="37.869705" lon="14.9290017"><ele>817.0</ele><time>2026-03-22T11:02:38.785Z</time></trkpt><trkpt lat="37.869765" lon="14.9291833"><ele>817.0</ele><time>2026-03-22T11:02:39.786Z</time></trkpt><trkpt lat="37.86983" lon="14.9293667"><ele>815.6666666666666</ele><time>2026-03-22T11:02:40.785Z</time></trkpt><trkpt lat="37.8698917" lon="14.92955"><ele>814.3333333333333</ele><time>2026-03-22T11:02:41.785Z</time></trkpt><trkpt lat="37.8699517" lon="14.92973"><ele>813.0</ele><time>2026-03-22T11:02:42.785Z</time></trkpt><trkpt lat="37.8700133" lon="14.9299167"><ele>812.0</ele><time>2026-03-22T11:02:43.786Z</time></trkpt><trkpt lat="37.8700783" lon="14.9301033"><ele>811.0</ele><time>2026-03-22T11:02:44.786Z</time></trkpt><trkpt lat="37.8701483" lon="14.9302883"><ele>810.0</ele><time>2026-03-22T11:02:45.785Z</time></trkpt><trkpt lat="37.87022" lon="14.9304633"><ele>810.0</ele><time>2026-03-22T11:02:46.786Z</time></trkpt><trkpt lat="37.870295" lon="14.9306217"><ele>810.0</ele><time>2026-03-22T11:02:47.785Z</time></trkpt><trkpt lat="37.870385" lon="14.9307733"><ele>810.0</ele><time>2026-03-22T11:02:48.785Z</time></trkpt><trkpt lat="37.87049" lon="14.9309233"><ele>810.0</ele><time>2026-03-22T11:02:49.785Z</time></trkpt><trkpt lat="37.8706117" lon="14.93107"><ele>810.0</ele><time>2026-03-22T11:02:50.785Z</time></trkpt><trkpt lat="37.8707417" lon="14.9312133"><ele>810.0</ele><time>2026-03-22T11:02:51.785Z</time></trkpt><trkpt lat="37.8708767" lon="14.9313467"><ele>807.6666666666667</ele><time>2026-03-22T11:02:52.785Z</time></trkpt><trkpt lat="37.87102" lon="14.93146"><ele>805.3333333333334</ele><time>2026-03-22T11:02:53.785Z</time></trkpt><trkpt lat="37.8711633" lon="14.9315567"><ele>803.0</ele><time>2026-03-22T11:02:54.785Z</time></trkpt><trkpt lat="37.871305" lon="14.9316433"><ele>803.0</ele><time>2026-03-22T11:02:55.785Z</time></trkpt><trkpt lat="37.87145" lon="14.9317233"><ele>803.0</ele><time>2026-03-22T11:02:56.785Z</time></trkpt><trkpt lat="37.8715917" lon="14.9318133"><ele>803.0</ele><time>2026-03-22T11:02:57.786Z</time></trkpt><trkpt lat="37.87173" lon="14.9319283"><ele>800.3333333333334</ele><time>2026-03-22T11:02:58.785Z</time></trkpt><trkpt lat="37.871855" lon="14.9320733"><ele>797.6666666666667</ele><time>2026-03-22T11:02:59.785Z</time></trkpt><trkpt lat="37.871975" lon="14.932235"><ele>795.0</ele><time>2026-03-22T11:03:00.786Z</time></trkpt><trkpt lat="37.8720767" lon="14.9324267"><ele>795.0</ele><time>2026-03-22T11:03:01.786Z</time></trkpt><trkpt lat="37.872165" lon="14.932635"><ele>795.0</ele><time>2026-03-22T11:03:02.786Z</time></trkpt><trkpt lat="37.87225" lon="14.9328483"><ele>795.0</ele><time>2026-03-22T11:03:03.786Z</time></trkpt><trkpt lat="37.8723133" lon="14.9330733"><ele>795.0</ele><time>2026-03-22T11:03:04.786Z</time></trkpt><trkpt lat="37.8723633" lon="14.9332983"><ele>795.0</ele><time>2026-03-22T11:03:05.785Z</time></trkpt><trkpt lat="37.8723967" lon="14.93352"><ele>795.0</ele><time>2026-03-22T11:03:06.785Z</time></trkpt><trkpt lat="37.8724067" lon="14.9337483"><ele>794.0</ele><time>2026-03-22T11:03:07.785Z</time></trkpt><trkpt lat="37.8723983" lon="14.933985"><ele>793.0</ele><time>2026-03-22T11:03:08.786Z</time></trkpt><trkpt lat="37.8723867" lon="14.934225"><ele>792.0</ele><time>2026-03-22T11:03:09.785Z</time></trkpt><trkpt lat="37.8723817" lon="14.9344717"><ele>791.3333333333333</ele><time>2026-03-22T11:03:10.785Z</time></trkpt><trkpt lat="37.8723783" lon="14.9347133"><ele>790.6666666666666</ele><time>2026-03-22T11:03:11.785Z</time></trkpt><trkpt lat="37.8723817" lon="14.9349417"><ele>790.0</ele><time>2026-03-22T11:03:12.785Z</time></trkpt><trkpt lat="37.8723917" lon="14.93516"><ele>791.3333333333333</ele><time>2026-03-22T11:03:13.785Z</time></trkpt><trkpt lat="37.8724083" lon="14.9353617"><ele>792.6666666666667</ele><time>2026-03-22T11:03:14.786Z</time></trkpt><trkpt lat="37.8724383" lon="14.9355467"><ele>794.0</ele><time>2026-03-22T11:03:15.786Z</time></trkpt><trkpt lat="37.87246" lon="14.9357233"><ele>793.75</ele><time>2026-03-22T11:03:16.786Z</time></trkpt><trkpt lat="37.87245" lon="14.9359"><ele>793.5</ele><time>2026-03-22T11:03:17.786Z</time></trkpt><trkpt lat="37.8724233" lon="14.9360867"><ele>793.25</ele><time>2026-03-22T11:03:18.786Z</time></trkpt><trkpt lat="37.8724133" lon="14.9362733"><ele>793.0</ele><time>2026-03-22T11:03:19.785Z</time></trkpt><trkpt lat="37.8724067" lon="14.9364667"><ele>793.0</ele><time>2026-03-22T11:03:20.786Z</time></trkpt><trkpt lat="37.87242" lon="14.9366667"><ele>793.0</ele><time>2026-03-22T11:03:21.786Z</time></trkpt><trkpt lat="37.87245" lon="14.936865"><ele>793.0</ele><time>2026-03-22T11:03:22.786Z</time></trkpt><trkpt lat="37.8724967" lon="14.93706"><ele>793.0</ele><time>2026-03-22T11:03:23.786Z</time></trkpt><trkpt lat="37.87256" lon="14.9372583"><ele>793.0</ele><time>2026-03-22T11:03:24.785Z</time></trkpt><trkpt lat="37.87263" lon="14.9374483"><ele>793.0</ele><time>2026-03-22T11:03:25.786Z</time></trkpt><trkpt lat="37.8727183" lon="14.9376183"><ele>795.3333333333333</ele><time>2026-03-22T11:03:26.786Z</time></trkpt><trkpt lat="37.8728233" lon="14.9377717"><ele>797.6666666666667</ele><time>2026-03-22T11:03:27.785Z</time></trkpt><trkpt lat="37.8729583" lon="14.9378917"><ele>800.0</ele><time>2026-03-22T11:03:28.786Z</time></trkpt><trkpt lat="37.8731033" lon="14.9379833"><ele>800.0</ele><time>2026-03-22T11:03:29.785Z</time></trkpt><trkpt lat="37.8732483" lon="14.9380683"><ele>800.0</ele><time>2026-03-22T11:03:30.785Z</time></trkpt><trkpt lat="37.8733817" lon="14.9381583"><ele>800.0</ele><time>2026-03-22T11:03:31.785Z</time></trkpt><trkpt lat="37.8735" lon="14.9382667"><ele>799.75</ele><time>2026-03-22T11:03:32.785Z</time></trkpt><trkpt lat="37.8736083" lon="14.938395"><ele>799.5</ele><time>2026-03-22T11:03:33.785Z</time></trkpt><trkpt lat="37.8736967" lon="14.93854"><ele>799.25</ele><time>2026-03-22T11:03:34.786Z</time></trkpt><trkpt lat="37.8737717" lon="14.9387017"><ele>799.0</ele><time>2026-03-22T11:03:35.786Z</time></trkpt><trkpt lat="37.8738367" lon="14.938855"><ele>799.0</ele><time>2026-03-22T11:03:36.785Z</time></trkpt><trkpt lat="37.8739017" lon="14.9389983"><ele>799.0</ele><time>2026-03-22T11:03:37.785Z</time></trkpt><trkpt lat="37.873955" lon="14.9391233"><ele>799.0</ele><time>2026-03-22T11:03:38.785Z</time></trkpt><trkpt lat="37.8740033" lon="14.93924"><ele>799.0</ele><time>2026-03-22T11:03:39.786Z</time></trkpt><trkpt lat="37.8740483" lon="14.93935"><ele>799.0</ele><time>2026-03-22T11:03:40.786Z</time></trkpt><trkpt lat="37.8741" lon="14.9394567"><ele>800.0</ele><time>2026-03-22T11:03:41.785Z</time></trkpt><trkpt lat="37.8741467" lon="14.9395817"><ele>801.0</ele><time>2026-03-22T11:03:42.785Z</time></trkpt><trkpt lat="37.8742" lon="14.9397017"><ele>802.0</ele><time>2026-03-22T11:03:43.785Z</time></trkpt><trkpt lat="37.8742567" lon="14.9398117"><ele>803.0</ele><time>2026-03-22T11:03:44.785Z</time></trkpt><trkpt lat="37.8743" lon="14.9399167"><ele>804.0</ele><time>2026-03-22T11:03:45.785Z</time></trkpt><trkpt lat="37.87434" lon="14.94002"><ele>802.0</ele><time>2026-03-22T11:03:46.785Z</time></trkpt><trkpt lat="37.8743833" lon="14.9401233"><ele>800.0</ele><time>2026-03-22T11:03:47.786Z</time></trkpt><trkpt lat="37.8744267" lon="14.9402333"><ele>798.0</ele><time>2026-03-22T11:03:48.786Z</time></trkpt><trkpt lat="37.8744683" lon="14.9403433"><ele>796.0</ele><time>2026-03-22T11:03:49.785Z</time></trkpt><trkpt lat="37.8745067" lon="14.9404633"><ele>794.0</ele><time>2026-03-22T11:03:50.786Z</time></trkpt><trkpt lat="37.8745417" lon="14.940595"><ele>794.0</ele><time>2026-03-22T11:03:51.785Z</time></trkpt><trkpt lat="37.8745733" lon="14.9407283"><ele>794.0</ele><time>2026-03-22T11:03:52.786Z</time></trkpt><trkpt lat="37.8745867" lon="14.940875"><ele>794.0</ele><time>2026-03-22T11:03:53.785Z</time></trkpt><trkpt lat="37.874595" lon="14.9410317"><ele>794.0</ele><time>2026-03-22T11:03:54.786Z</time></trkpt><trkpt lat="37.8745967" lon="14.9411833"><ele>793.0</ele><time>2026-03-22T11:03:55.785Z</time></trkpt><trkpt lat="37.87459" lon="14.941335"><ele>792.0</ele><time>2026-03-22T11:03:56.786Z</time></trkpt><trkpt lat="37.8745883" lon="14.9414933"><ele>791.0</ele><time>2026-03-22T11:03:57.785Z</time></trkpt><trkpt lat="37.8745767" lon="14.9416633"><ele>790.0</ele><time>2026-03-22T11:03:58.786Z</time></trkpt><trkpt lat="37.8745733" lon="14.9418283"><ele>788.2</ele><time>2026-03-22T11:03:59.785Z</time></trkpt><trkpt lat="37.87456" lon="14.941975"><ele>786.4</ele><time>2026-03-22T11:04:00.786Z</time></trkpt><trkpt lat="37.8745433" lon="14.94212"><ele>784.5999999999999</ele><time>2026-03-22T11:04:01.786Z</time></trkpt><trkpt lat="37.8745217" lon="14.94225"><ele>782.8</ele><time>2026-03-22T11:04:02.785Z</time></trkpt><trkpt lat="37.8744933" lon="14.9423833"><ele>781.0</ele><time>2026-03-22T11:04:03.785Z</time></trkpt><trkpt lat="37.8744717" lon="14.942505"><ele>781.4</ele><time>2026-03-22T11:04:04.786Z</time></trkpt><trkpt lat="37.8744667" lon="14.9426133"><ele>781.8</ele><time>2026-03-22T11:04:05.785Z</time></trkpt><trkpt lat="37.8744883" lon="14.9427183"><ele>782.1999999999999</ele><time>2026-03-22T11:04:06.785Z</time></trkpt><trkpt lat="37.8745317" lon="14.9428267"><ele>782.5999999999999</ele><time>2026-03-22T11:04:07.786Z</time></trkpt><trkpt lat="37.8745867" lon="14.9429367"><ele>783.0</ele><time>2026-03-22T11:04:08.785Z</time></trkpt><trkpt lat="37.8746483" lon="14.9430517"><ele>783.0</ele><time>2026-03-22T11:04:09.786Z</time></trkpt><trkpt lat="37.8747167" lon="14.9431667"><ele>783.0</ele><time>2026-03-22T11:04:10.786Z</time></trkpt><trkpt lat="37.8747933" lon="14.943285"><ele>783.0</ele><time>2026-03-22T11:04:11.785Z</time></trkpt><trkpt lat="37.8748567" lon="14.9434"><ele>783.0</ele><time>2026-03-22T11:04:12.785Z</time></trkpt><trkpt lat="37.874925" lon="14.9435033"><ele>783.0</ele><time>2026-03-22T11:04:13.785Z</time></trkpt><trkpt lat="37.8749817" lon="14.94362"><ele>783.0</ele><time>2026-03-22T11:04:14.786Z</time></trkpt><trkpt lat="37.8750467" lon="14.94374"><ele>783.0</ele><time>2026-03-22T11:04:15.785Z</time></trkpt><trkpt lat="37.8751083" lon="14.9438567"><ele>783.0</ele><time>2026-03-22T11:04:16.785Z</time></trkpt><trkpt lat="37.87516" lon="14.9439733"><ele>783.0</ele><time>2026-03-22T11:04:17.786Z</time></trkpt><trkpt lat="37.8752017" lon="14.9440917"><ele>783.0</ele><time>2026-03-22T11:04:18.785Z</time></trkpt><trkpt lat="37.875255" lon="14.9442033"><ele>783.0</ele><time>2026-03-22T11:04:19.785Z</time></trkpt><trkpt lat="37.8753083" lon="14.94431"><ele>783.0</ele><time>2026-03-22T11:04:20.785Z</time></trkpt><trkpt lat="37.8753483" lon="14.9444167"><ele>783.0</ele><time>2026-03-22T11:04:21.785Z</time></trkpt><trkpt lat="37.87539" lon="14.94452"><ele>783.0</ele><time>2026-03-22T11:04:22.786Z</time></trkpt><trkpt lat="37.87543" lon="14.9446217"><ele>783.5</ele><time>2026-03-22T11:04:23.786Z</time></trkpt><trkpt lat="37.8754717" lon="14.944705"><ele>784.0</ele><time>2026-03-22T11:04:24.786Z</time></trkpt><trkpt lat="37.8755083" lon="14.9447833"><ele>784.5</ele><time>2026-03-22T11:04:25.785Z</time></trkpt><trkpt lat="37.8755283" lon="14.9448633"><ele>785.0</ele><time>2026-03-22T11:04:26.786Z</time></trkpt><trkpt lat="37.8754867" lon="14.9449567"><ele>785.5</ele><time>2026-03-22T11:04:28.785Z</time></trkpt><trkpt lat="37.8753567" lon="14.944945"><ele>786.0</ele><time>2026-03-22T11:04:30.786Z</time></trkpt><trkpt lat="37.8752733" lon="14.9449083"><ele>786.0</ele><time>2026-03-22T11:04:31.785Z</time></trkpt><trkpt lat="37.8751933" lon="14.9448783"><ele>786.0</ele><time>2026-03-22T11:04:32.786Z</time></trkpt><trkpt lat="37.8751183" lon="14.94485"><ele>786.0</ele><time>2026-03-22T11:04:33.786Z</time></trkpt><trkpt lat="37.87505" lon="14.9448267"><ele>786.0</ele><time>2026-03-22T11:04:34.786Z</time></trkpt><trkpt lat="37.87494" lon="14.94484"><ele>786.0</ele><time>2026-03-22T11:04:36.786Z</time></trkpt><trkpt lat="37.8749183" lon="14.944965"><ele>786.0</ele><time>2026-03-22T11:04:38.786Z</time></trkpt><trkpt lat="37.8749583" lon="14.9450267"><ele>783.5999999999999</ele><time>2026-03-22T11:04:39.785Z</time></trkpt><trkpt lat="37.87503" lon="14.945075"><ele>781.2</ele><time>2026-03-22T11:04:40.786Z</time></trkpt><trkpt lat="37.8751183" lon="14.945115"><ele>778.8</ele><time>2026-03-22T11:04:41.786Z</time></trkpt><trkpt lat="37.8752167" lon="14.9451533"><ele>776.4000000000001</ele><time>2026-03-22T11:04:42.786Z</time></trkpt><trkpt lat="37.8753217" lon="14.9451933"><ele>774.0</ele><time>2026-03-22T11:04:43.786Z</time></trkpt><trkpt lat="37.875425" lon="14.9452333"><ele>774.0</ele><time>2026-03-22T11:04:44.786Z</time></trkpt><trkpt lat="37.8755217" lon="14.945275"><ele>774.0</ele><time>2026-03-22T11:04:45.785Z</time></trkpt><trkpt lat="37.875615" lon="14.9453133"><ele>774.0</ele><time>2026-03-22T11:04:46.785Z</time></trkpt><trkpt lat="37.8757083" lon="14.9453617"><ele>774.0</ele><time>2026-03-22T11:04:47.786Z</time></trkpt><trkpt lat="37.8758017" lon="14.9454233"><ele>774.0</ele><time>2026-03-22T11:04:48.786Z</time></trkpt><trkpt lat="37.8758883" lon="14.9454983"><ele>774.0</ele><time>2026-03-22T11:04:49.785Z</time></trkpt><trkpt lat="37.8759767" lon="14.9455733"><ele>774.0</ele><time>2026-03-22T11:04:50.785Z</time></trkpt><trkpt lat="37.876065" lon="14.94565"><ele>774.0</ele><time>2026-03-22T11:04:51.786Z</time></trkpt><trkpt lat="37.8761417" lon="14.94573"><ele>774.0</ele><time>2026-03-22T11:04:52.786Z</time></trkpt><trkpt lat="37.8762117" lon="14.9458183"><ele>774.0</ele><time>2026-03-22T11:04:53.785Z</time></trkpt><trkpt lat="37.8762717" lon="14.9459183"><ele>773.0</ele><time>2026-03-22T11:04:54.785Z</time></trkpt><trkpt lat="37.876325" lon="14.9460133"><ele>772.0</ele><time>2026-03-22T11:04:55.786Z</time></trkpt><trkpt lat="37.8763583" lon="14.946115"><ele>771.0</ele><time>2026-03-22T11:04:56.785Z</time></trkpt><trkpt lat="37.8763783" lon="14.9462033"><ele>770.0</ele><time>2026-03-22T11:04:57.785Z</time></trkpt><trkpt lat="37.8763917" lon="14.9462833"><ele>769.0</ele><time>2026-03-22T11:04:58.785Z</time></trkpt><trkpt lat="37.87639" lon="14.9463633"><ele>768.0</ele><time>2026-03-22T11:04:59.786Z</time></trkpt><trkpt lat="37.8763867" lon="14.9464467"><ele>767.0</ele><time>2026-03-22T11:05:00.786Z</time></trkpt><trkpt lat="37.8763867" lon="14.9465933"><ele>766.6</ele><time>2026-03-22T11:05:02.786Z</time></trkpt><trkpt lat="37.8763983" lon="14.9467283"><ele>766.2</ele><time>2026-03-22T11:05:04.785Z</time></trkpt><trkpt lat="37.8764183" lon="14.9468617"><ele>765.8</ele><time>2026-03-22T11:05:06.785Z</time></trkpt><trkpt lat="37.8764367" lon="14.946975"><ele>765.4</ele><time>2026-03-22T11:05:08.786Z</time></trkpt><trkpt lat="37.87646" lon="14.9470817"><ele>765.0</ele><time>2026-03-22T11:05:10.785Z</time></trkpt><trkpt lat="37.87648" lon="14.947175"><ele>765.0</ele><time>2026-03-22T11:05:12.786Z</time></trkpt><trkpt lat="37.8764967" lon="14.9472533"><ele>765.0</ele><time>2026-03-22T11:05:14.785Z</time></trkpt><trkpt lat="37.8765233" lon="14.9473317"><ele>765.0</ele><time>2026-03-22T11:05:16.785Z</time></trkpt><trkpt lat="37.8765783" lon="14.9474483"><ele>765.0</ele><time>2026-03-22T11:05:19.786Z</time></trkpt><trkpt lat="37.87662" lon="14.9475533"><ele>765.0</ele><time>2026-03-22T11:05:21.786Z</time></trkpt><trkpt lat="37.876655" lon="14.9476517"><ele>765.0</ele><time>2026-03-22T11:05:23.786Z</time></trkpt><trkpt lat="37.8766967" lon="14.94773"><ele>764.6</ele><time>2026-03-22T11:05:25.785Z</time></trkpt><trkpt lat="37.87674" lon="14.9478117"><ele>764.2</ele><time>2026-03-22T11:05:28.786Z</time></trkpt><trkpt lat="37.8767983" lon="14.9479133"><ele>763.8</ele><time>2026-03-22T11:05:33.786Z</time></trkpt><trkpt lat="37.8768567" lon="14.9480717"><ele>763.4</ele><time>2026-03-22T11:05:35.785Z</time></trkpt><trkpt lat="37.87689" lon="14.948165"><ele>763.0</ele><time>2026-03-22T11:05:36.785Z</time></trkpt><trkpt lat="37.8769233" lon="14.9482617"><ele>762.6666666666667</ele><time>2026-03-22T11:05:37.786Z</time></trkpt><trkpt lat="37.8769717" lon="14.9483583"><ele>762.3333333333334</ele><time>2026-03-22T11:05:38.785Z</time></trkpt><trkpt lat="37.8770183" lon="14.948445"><ele>762.0</ele><time>2026-03-22T11:05:39.786Z</time></trkpt><trkpt lat="37.8770667" lon="14.9485267"><ele>761.6666666666666</ele><time>2026-03-22T11:05:40.786Z</time></trkpt><trkpt lat="37.8771083" lon="14.94861"><ele>761.3333333333333</ele><time>2026-03-22T11:05:41.785Z</time></trkpt><trkpt lat="37.8771383" lon="14.9487067"><ele>761.0</ele><time>2026-03-22T11:05:42.786Z</time></trkpt><trkpt lat="37.8771767" lon="14.9487983"><ele>760.8333333333333</ele><time>2026-03-22T11:05:43.785Z</time></trkpt><trkpt lat="37.87722" lon="14.94889"><ele>760.6666666666666</ele><time>2026-03-22T11:05:44.785Z</time></trkpt><trkpt lat="37.8772683" lon="14.948985"><ele>760.5</ele><time>2026-03-22T11:05:45.785Z</time></trkpt><trkpt lat="37.8773017" lon="14.9490833"><ele>760.3333333333334</ele><time>2026-03-22T11:05:46.785Z</time></trkpt><trkpt lat="37.877335" lon="14.9491767"><ele>760.1666666666667</ele><time>2026-03-22T11:05:47.785Z</time></trkpt><trkpt lat="37.8773717" lon="14.94926"><ele>760.0</ele><time>2026-03-22T11:05:48.786Z</time></trkpt><trkpt lat="37.877405" lon="14.9493333"><ele>759.5</ele><time>2026-03-22T11:05:49.786Z</time></trkpt><trkpt lat="37.8774667" lon="14.94946"><ele>759.0</ele><time>2026-03-22T11:05:51.786Z</time></trkpt><trkpt lat="37.8774967" lon="14.9495433"><ele>758.5</ele><time>2026-03-22T11:05:53.786Z</time></trkpt><trkpt lat="37.8775333" lon="14.94963"><ele>758.0</ele><time>2026-03-22T11:05:59.785Z</time></trkpt><trkpt lat="37.8775633" lon="14.9497083"><ele>757.5</ele><time>2026-03-22T11:06:01.785Z</time></trkpt><trkpt lat="37.8776083" lon="14.949805"><ele>757.0</ele><time>2026-03-22T11:06:04.786Z</time></trkpt><trkpt lat="37.877645" lon="14.94987"><ele>757.0</ele><time>2026-03-22T11:06:06.785Z</time></trkpt><trkpt lat="37.8776683" lon="14.9499633"><ele>757.0</ele><time>2026-03-22T11:06:10.786Z</time></trkpt><trkpt lat="37.8776683" lon="14.9500483"><ele>757.0</ele><time>2026-03-22T11:06:13.786Z</time></trkpt><trkpt lat="37.877675" lon="14.9501283"><ele>757.0</ele><time>2026-03-22T11:06:15.785Z</time></trkpt><trkpt lat="37.877685" lon="14.9502283"><ele>757.0</ele><time>2026-03-22T11:06:19.785Z</time></trkpt><trkpt lat="37.8777" lon="14.95035"><ele>757.0</ele><time>2026-03-22T11:06:22.785Z</time></trkpt><trkpt lat="37.8777267" lon="14.9504617"><ele>756.8333333333334</ele><time>2026-03-22T11:06:24.786Z</time></trkpt><trkpt lat="37.8777517" lon="14.950555"><ele>756.6666666666667</ele><time>2026-03-22T11:06:26.786Z</time></trkpt><trkpt lat="37.8777667" lon="14.950645"><ele>756.5</ele><time>2026-03-22T11:06:29.785Z</time></trkpt><trkpt lat="37.8777783" lon="14.9507483"><ele>756.3333333333334</ele><time>2026-03-22T11:06:33.785Z</time></trkpt><trkpt lat="37.8778083" lon="14.9508383"><ele>756.1666666666666</ele><time>2026-03-22T11:06:35.785Z</time></trkpt><trkpt lat="37.8778517" lon="14.9509267"><ele>756.0</ele><time>2026-03-22T11:06:37.785Z</time></trkpt><trkpt lat="37.87792" lon="14.9510167"><ele>755.3333333333334</ele><time>2026-03-22T11:06:39.786Z</time></trkpt><trkpt lat="37.8779667" lon="14.9510767"><ele>754.6666666666666</ele><time>2026-03-22T11:06:40.785Z</time></trkpt><trkpt lat="37.8780117" lon="14.95114"><ele>754.0</ele><time>2026-03-22T11:06:41.785Z</time></trkpt><trkpt lat="37.8780617" lon="14.9512017"><ele>753.3333333333333</ele><time>2026-03-22T11:06:42.786Z</time></trkpt><trkpt lat="37.8781217" lon="14.9512733"><ele>752.6666666666666</ele><time>2026-03-22T11:06:43.785Z</time></trkpt><trkpt lat="37.878185" lon="14.95135"><ele>752.0</ele><time>2026-03-22T11:06:44.785Z</time></trkpt><trkpt lat="37.8782483" lon="14.9514267"><ele>752.0</ele><time>2026-03-22T11:06:45.786Z</time></trkpt><trkpt lat="37.8783133" lon="14.9515033"><ele>752.0</ele><time>2026-03-22T11:06:46.785Z</time></trkpt><trkpt lat="37.8783867" lon="14.9515867"><ele>752.0</ele><time>2026-03-22T11:06:47.786Z</time></trkpt><trkpt lat="37.8784633" lon="14.95167"><ele>752.0</ele><time>2026-03-22T11:06:48.785Z</time></trkpt><trkpt lat="37.8785367" lon="14.9517483"><ele>752.0</ele><time>2026-03-22T11:06:49.786Z</time></trkpt><trkpt lat="37.8786067" lon="14.951825"><ele>751.0</ele><time>2026-03-22T11:06:50.786Z</time></trkpt><trkpt lat="37.87868" lon="14.951905"><ele>750.0</ele><time>2026-03-22T11:06:51.785Z</time></trkpt><trkpt lat="37.8787583" lon="14.9519883"><ele>749.0</ele><time>2026-03-22T11:06:52.786Z</time></trkpt><trkpt lat="37.8788367" lon="14.95207"><ele>748.0</ele><time>2026-03-22T11:06:53.785Z</time></trkpt><trkpt lat="37.8789117" lon="14.9521483"><ele>747.0</ele><time>2026-03-22T11:06:54.785Z</time></trkpt><trkpt lat="37.8789867" lon="14.952225"><ele>747.0</ele><time>2026-03-22T11:06:55.785Z</time></trkpt><trkpt lat="37.87906" lon="14.95229"><ele>747.0</ele><time>2026-03-22T11:06:56.785Z</time></trkpt><trkpt lat="37.87912" lon="14.9523633"><ele>747.0</ele><time>2026-03-22T11:06:57.785Z</time></trkpt><trkpt lat="37.8791783" lon="14.9524283"><ele>747.0</ele><time>2026-03-22T11:06:58.785Z</time></trkpt><trkpt lat="37.8792333" lon="14.9524917"><ele>747.0</ele><time>2026-03-22T11:06:59.786Z</time></trkpt><trkpt lat="37.87928" lon="14.9525567"><ele>747.0</ele><time>2026-03-22T11:07:00.785Z</time></trkpt><trkpt lat="37.8793233" lon="14.9526217"><ele>746.1666666666666</ele><time>2026-03-22T11:07:01.785Z</time></trkpt><trkpt lat="37.8793717" lon="14.9526883"><ele>745.3333333333334</ele><time>2026-03-22T11:07:02.786Z</time></trkpt><trkpt lat="37.8794233" lon="14.9527583"><ele>744.5</ele><time>2026-03-22T11:07:03.786Z</time></trkpt><trkpt lat="37.8794867" lon="14.9528333"><ele>743.6666666666667</ele><time>2026-03-22T11:07:04.786Z</time></trkpt><trkpt lat="37.8795417" lon="14.9529117"><ele>742.8333333333334</ele><time>2026-03-22T11:07:05.785Z</time></trkpt><trkpt lat="37.8796" lon="14.952985"><ele>742.0</ele><time>2026-03-22T11:07:06.786Z</time></trkpt><trkpt lat="37.8796617" lon="14.9530633"><ele>742.0</ele><time>2026-03-22T11:07:07.785Z</time></trkpt><trkpt lat="37.8797233" lon="14.953135"><ele>742.0</ele><time>2026-03-22T11:07:08.785Z</time></trkpt><trkpt lat="37.8797783" lon="14.9531933"><ele>742.0</ele><time>2026-03-22T11:07:09.785Z</time></trkpt><trkpt lat="37.8798467" lon="14.953265"><ele>742.0</ele><time>2026-03-22T11:07:11.786Z</time></trkpt><trkpt lat="37.8798983" lon="14.9533333"><ele>742.0</ele><time>2026-03-22T11:07:14.785Z</time></trkpt><trkpt lat="37.8799583" lon="14.9533717"><ele>742.0</ele><time>2026-03-22T11:07:17.785Z</time></trkpt><trkpt lat="37.8800383" lon="14.953355"><ele>742.0</ele><time>2026-03-22T11:07:19.786Z</time></trkpt><trkpt lat="37.8800967" lon="14.9533167"><ele>742.0</ele><time>2026-03-22T11:07:20.786Z</time></trkpt><trkpt lat="37.8801667" lon="14.9532783"><ele>742.0</ele><time>2026-03-22T11:07:21.785Z</time></trkpt><trkpt lat="37.8802383" lon="14.953245"><ele>742.0</ele><time>2026-03-22T11:07:22.786Z</time></trkpt><trkpt lat="37.880305" lon="14.95322"><ele>742.0</ele><time>2026-03-22T11:07:23.785Z</time></trkpt><trkpt lat="37.8803667" lon="14.9531917"><ele>742.0</ele><time>2026-03-22T11:07:24.785Z</time></trkpt><trkpt lat="37.8804233" lon="14.9531567"><ele>742.0</ele><time>2026-03-22T11:07:25.786Z</time></trkpt><trkpt lat="37.8804833" lon="14.9531067"><ele>740.8333333333334</ele><time>2026-03-22T11:07:26.786Z</time></trkpt><trkpt lat="37.88054" lon="14.95305"><ele>739.6666666666667</ele><time>2026-03-22T11:07:27.785Z</time></trkpt><trkpt lat="37.8805867" lon="14.9529733"><ele>738.5</ele><time>2026-03-22T11:07:28.786Z</time></trkpt><trkpt lat="37.88063" lon="14.9529017"><ele>737.3333333333334</ele><time>2026-03-22T11:07:29.786Z</time></trkpt><trkpt lat="37.8806667" lon="14.9528283"><ele>736.1666666666666</ele><time>2026-03-22T11:07:30.785Z</time></trkpt><trkpt lat="37.8806967" lon="14.952755"><ele>735.0</ele><time>2026-03-22T11:07:31.785Z</time></trkpt><trkpt lat="37.8807083" lon="14.95263"><ele>734.8333333333334</ele><time>2026-03-22T11:07:33.785Z</time></trkpt><trkpt lat="37.88072" lon="14.9525383"><ele>734.6666666666666</ele><time>2026-03-22T11:07:52.786Z</time></trkpt><trkpt lat="37.8807167" lon="14.95243"><ele>734.5</ele><time>2026-03-22T11:07:54.785Z</time></trkpt><trkpt lat="37.8807217" lon="14.952345"><ele>734.3333333333333</ele><time>2026-03-22T11:07:55.786Z</time></trkpt><trkpt lat="37.8807283" lon="14.952245"><ele>734.1666666666666</ele><time>2026-03-22T11:07:56.786Z</time></trkpt><trkpt lat="37.8807467" lon="14.9521467"><ele>734.0</ele><time>2026-03-22T11:07:57.786Z</time></trkpt><trkpt lat="37.880765" lon="14.9520467"><ele>734.0</ele><time>2026-03-22T11:07:58.786Z</time></trkpt><trkpt lat="37.8807933" lon="14.951945"><ele>734.0</ele><time>2026-03-22T11:07:59.786Z</time></trkpt><trkpt lat="37.8808333" lon="14.951835"><ele>734.0</ele><time>2026-03-22T11:08:00.786Z</time></trkpt><trkpt lat="37.880875" lon="14.9517217"><ele>734.0</ele><time>2026-03-22T11:08:01.785Z</time></trkpt><trkpt lat="37.8809167" lon="14.9516067"><ele>734.0</ele><time>2026-03-22T11:08:02.785Z</time></trkpt><trkpt lat="37.8809583" lon="14.9514833"><ele>731.2</ele><time>2026-03-22T11:08:03.785Z</time></trkpt><trkpt lat="37.8810033" lon="14.9513533"><ele>728.4000000000001</ele><time>2026-03-22T11:08:04.786Z</time></trkpt><trkpt lat="37.8810483" lon="14.9512233"><ele>725.6</ele><time>2026-03-22T11:08:05.785Z</time></trkpt><trkpt lat="37.8810917" lon="14.9510917"><ele>722.8</ele><time>2026-03-22T11:08:06.786Z</time></trkpt><trkpt lat="37.8811333" lon="14.9509617"><ele>720.0</ele><time>2026-03-22T11:08:07.785Z</time></trkpt><trkpt lat="37.8811767" lon="14.950835"><ele>720.0</ele><time>2026-03-22T11:08:08.786Z</time></trkpt><trkpt lat="37.8812233" lon="14.9507067"><ele>720.0</ele><time>2026-03-22T11:08:09.785Z</time></trkpt><trkpt lat="37.8812733" lon="14.9505633"><ele>720.0</ele><time>2026-03-22T11:08:10.786Z</time></trkpt><trkpt lat="37.8813167" lon="14.9504117"><ele>720.0</ele><time>2026-03-22T11:08:11.785Z</time></trkpt><trkpt lat="37.8813483" lon="14.9502633"><ele>720.0</ele><time>2026-03-22T11:08:12.785Z</time></trkpt><trkpt lat="37.88135" lon="14.950115"><ele>720.0</ele><time>2026-03-22T11:08:13.785Z</time></trkpt><trkpt lat="37.8813183" lon="14.949965"><ele>720.0</ele><time>2026-03-22T11:08:14.785Z</time></trkpt><trkpt lat="37.88126" lon="14.9498167"><ele>720.0</ele><time>2026-03-22T11:08:15.785Z</time></trkpt><trkpt lat="37.8811867" lon="14.9496733"><ele>723.6</ele><time>2026-03-22T11:08:16.785Z</time></trkpt><trkpt lat="37.8811167" lon="14.9495283"><ele>727.2</ele><time>2026-03-22T11:08:17.786Z</time></trkpt><trkpt lat="37.8810633" lon="14.94941"><ele>730.8</ele><time>2026-03-22T11:08:18.785Z</time></trkpt><trkpt lat="37.8810417" lon="14.949315"><ele>734.4</ele><time>2026-03-22T11:08:19.785Z</time></trkpt><trkpt lat="37.8810883" lon="14.9491833"><ele>738.0</ele><time>2026-03-22T11:08:21.785Z</time></trkpt><trkpt lat="37.88121" lon="14.94921"><ele>738.0</ele><time>2026-03-22T11:08:23.786Z</time></trkpt><trkpt lat="37.8812733" lon="14.94929"><ele>738.0</ele><time>2026-03-22T11:08:24.785Z</time></trkpt><trkpt lat="37.8813333" lon="14.94939"><ele>738.0</ele><time>2026-03-22T11:08:25.785Z</time></trkpt><trkpt lat="37.8813883" lon="14.9495"><ele>738.0</ele><time>2026-03-22T11:08:26.786Z</time></trkpt><trkpt lat="37.88145" lon="14.9496183"><ele>738.0</ele><time>2026-03-22T11:08:27.786Z</time></trkpt><trkpt lat="37.88152" lon="14.9497383"><ele>738.0</ele><time>2026-03-22T11:08:28.786Z</time></trkpt><trkpt lat="37.8815967" lon="14.9498633"><ele>738.0</ele><time>2026-03-22T11:08:29.785Z</time></trkpt><trkpt lat="37.8816717" lon="14.9499783"><ele>738.0</ele><time>2026-03-22T11:08:30.786Z</time></trkpt><trkpt lat="37.8817367" lon="14.95008"><ele>738.0</ele><time>2026-03-22T11:08:31.785Z</time></trkpt><trkpt lat="37.881805" lon="14.95015"><ele>738.0</ele><time>2026-03-22T11:08:32.786Z</time></trkpt><trkpt lat="37.8818783" lon="14.9501817"><ele>737.4</ele><time>2026-03-22T11:08:33.786Z</time></trkpt><trkpt lat="37.88195" lon="14.950165"><ele>736.8</ele><time>2026-03-22T11:08:34.786Z</time></trkpt><trkpt lat="37.8820083" lon="14.950095"><ele>736.2</ele><time>2026-03-22T11:08:35.785Z</time></trkpt><trkpt lat="37.8820417" lon="14.949985"><ele>735.6</ele><time>2026-03-22T11:08:36.786Z</time></trkpt><trkpt lat="37.88204" lon="14.9498583"><ele>735.0</ele><time>2026-03-22T11:08:37.786Z</time></trkpt><trkpt lat="37.8820017" lon="14.9497083"><ele>740.25</ele><time>2026-03-22T11:08:38.785Z</time></trkpt><trkpt lat="37.8819467" lon="14.949545"><ele>745.5</ele><time>2026-03-22T11:08:39.786Z</time></trkpt><trkpt lat="37.8818917" lon="14.9493883"><ele>750.75</ele><time>2026-03-22T11:08:40.785Z</time></trkpt><trkpt lat="37.881835" lon="14.9492283"><ele>756.0</ele><time>2026-03-22T11:08:41.786Z</time></trkpt><trkpt lat="37.88178" lon="14.9490767"><ele>757.5999999999999</ele><time>2026-03-22T11:08:42.786Z</time></trkpt><trkpt lat="37.8817367" lon="14.9489367"><ele>759.2</ele><time>2026-03-22T11:08:43.786Z</time></trkpt><trkpt lat="37.8817083" lon="14.9488267"><ele>760.8</ele><time>2026-03-22T11:08:44.785Z</time></trkpt><trkpt lat="37.8817117" lon="14.9487367"><ele>762.4000000000001</ele><time>2026-03-22T11:08:45.785Z</time></trkpt><trkpt lat="37.8817983" lon="14.9486433"><ele>764.0</ele><time>2026-03-22T11:08:47.786Z</time></trkpt><trkpt lat="37.88186" lon="14.948665"><ele>764.0</ele><time>2026-03-22T11:08:48.786Z</time></trkpt><trkpt lat="37.88192" lon="14.9487383"><ele>764.0</ele><time>2026-03-22T11:08:49.785Z</time></trkpt><trkpt lat="37.8819767" lon="14.94885"><ele>764.0</ele><time>2026-03-22T11:08:50.786Z</time></trkpt><trkpt lat="37.8820433" lon="14.94896"><ele>764.0</ele><time>2026-03-22T11:08:51.785Z</time></trkpt><trkpt lat="37.8821217" lon="14.94906"><ele>764.0</ele><time>2026-03-22T11:08:52.785Z</time></trkpt><trkpt lat="37.8822117" lon="14.9491517"><ele>762.0</ele><time>2026-03-22T11:08:53.785Z</time></trkpt><trkpt lat="37.8823083" lon="14.9492533"><ele>760.0</ele><time>2026-03-22T11:08:54.785Z</time></trkpt><trkpt lat="37.8823933" lon="14.9493617"><ele>758.0</ele><time>2026-03-22T11:08:55.785Z</time></trkpt><trkpt lat="37.8824467" lon="14.9494917"><ele>756.0</ele><time>2026-03-22T11:08:56.786Z</time></trkpt><trkpt lat="37.882465" lon="14.94964"><ele>756.0</ele><time>2026-03-22T11:08:57.785Z</time></trkpt><trkpt lat="37.8824683" lon="14.949795"><ele>756.0</ele><time>2026-03-22T11:08:58.786Z</time></trkpt><trkpt lat="37.8824767" lon="14.94994"><ele>756.0</ele><time>2026-03-22T11:08:59.785Z</time></trkpt><trkpt lat="37.8824983" lon="14.9500667"><ele>756.0</ele><time>2026-03-22T11:09:00.786Z</time></trkpt><trkpt lat="37.8825517" lon="14.9501783"><ele>756.0</ele><time>2026-03-22T11:09:01.785Z</time></trkpt><trkpt lat="37.8826317" lon="14.95027"><ele>758.5</ele><time>2026-03-22T11:09:02.786Z</time></trkpt><trkpt lat="37.8827367" lon="14.9503267"><ele>761.0</ele><time>2026-03-22T11:09:03.785Z</time></trkpt><trkpt lat="37.8828483" lon="14.9503683"><ele>763.5</ele><time>2026-03-22T11:09:04.786Z</time></trkpt><trkpt lat="37.8829583" lon="14.950415"><ele>766.0</ele><time>2026-03-22T11:09:05.786Z</time></trkpt><trkpt lat="37.883065" lon="14.9504767"><ele>766.0</ele><time>2026-03-22T11:09:06.785Z</time></trkpt><trkpt lat="37.8831633" lon="14.9505633"><ele>766.0</ele><time>2026-03-22T11:09:07.786Z</time></trkpt><trkpt lat="37.8832467" lon="14.9506683"><ele>766.0</ele><time>2026-03-22T11:09:08.785Z</time></trkpt><trkpt lat="37.8833117" lon="14.95079"><ele>766.0</ele><time>2026-03-22T11:09:09.785Z</time></trkpt><trkpt lat="37.88335" lon="14.95092"><ele>767.8</ele><time>2026-03-22T11:09:10.785Z</time></trkpt><trkpt lat="37.8833817" lon="14.951045"><ele>769.5999999999999</ele><time>2026-03-22T11:09:11.785Z</time></trkpt><trkpt lat="37.883445" lon="14.951155"><ele>771.4</ele><time>2026-03-22T11:09:12.786Z</time></trkpt><trkpt lat="37.8835267" lon="14.9512583"><ele>773.2</ele><time>2026-03-22T11:09:13.786Z</time></trkpt><trkpt lat="37.8836217" lon="14.951355"><ele>775.0</ele><time>2026-03-22T11:09:14.787Z</time></trkpt><trkpt lat="37.88372" lon="14.9514533"><ele>775.0</ele><time>2026-03-22T11:09:15.787Z</time></trkpt><trkpt lat="37.8838183" lon="14.9515483"><ele>775.0</ele><time>2026-03-22T11:09:16.786Z</time></trkpt><trkpt lat="37.8839233" lon="14.95162"><ele>775.0</ele><time>2026-03-22T11:09:17.786Z</time></trkpt><trkpt lat="37.884025" lon="14.9516667"><ele>775.0</ele><time>2026-03-22T11:09:18.787Z</time></trkpt><trkpt lat="37.8841117" lon="14.9516833"><ele>775.0</ele><time>2026-03-22T11:09:19.786Z</time></trkpt><trkpt lat="37.8841733" lon="14.9516583"><ele>774.9999999999999</ele><time>2026-03-22T11:09:20.787Z</time></trkpt><trkpt lat="37.8842317" lon="14.95153"><ele>775.0</ele><time>2026-03-22T11:09:22.787Z</time></trkpt><trkpt lat="37.88421" lon="14.95145"><ele>775.0</ele><time>2026-03-22T11:09:23.786Z</time></trkpt><trkpt lat="37.8841567" lon="14.95139"><ele>775.0</ele><time>2026-03-22T11:09:24.786Z</time></trkpt><trkpt lat="37.8840867" lon="14.9513767"><ele>774.9999999999999</ele><time>2026-03-22T11:09:25.786Z</time></trkpt><trkpt lat="37.8840033" lon="14.9513917"><ele>775.0</ele><time>2026-03-22T11:09:26.787Z</time></trkpt><trkpt lat="37.88392" lon="14.9513867"><ele>774.9999999999999</ele><time>2026-03-22T11:09:27.786Z</time></trkpt><trkpt lat="37.883845" lon="14.9513433"><ele>775.0</ele><time>2026-03-22T11:09:28.787Z</time></trkpt><trkpt lat="37.88378" lon="14.951265"><ele>775.0</ele><time>2026-03-22T11:09:29.786Z</time></trkpt><trkpt lat="37.8837167" lon="14.9511783"><ele>775.0</ele><time>2026-03-22T11:09:30.786Z</time></trkpt><trkpt lat="37.883655" lon="14.9510883"><ele>774.9999999999999</ele><time>2026-03-22T11:09:31.786Z</time></trkpt><trkpt lat="37.8836033" lon="14.951"><ele>775.0</ele><time>2026-03-22T11:09:32.787Z</time></trkpt><trkpt lat="37.8835717" lon="14.9508967"><ele>777.8</ele><time>2026-03-22T11:09:33.786Z</time></trkpt><trkpt lat="37.8835667" lon="14.9507767"><ele>780.6</ele><time>2026-03-22T11:09:34.786Z</time></trkpt><trkpt lat="37.88357" lon="14.9506467"><ele>783.4000000000001</ele><time>2026-03-22T11:09:35.786Z</time></trkpt><trkpt lat="37.8835517" lon="14.950515"><ele>786.2</ele><time>2026-03-22T11:09:36.786Z</time></trkpt><trkpt lat="37.883505" lon="14.9503833"><ele>789.0</ele><time>2026-03-22T11:09:37.787Z</time></trkpt><trkpt lat="37.88344" lon="14.9502533"><ele>787.5</ele><time>2026-03-22T11:09:38.787Z</time></trkpt><trkpt lat="37.8833683" lon="14.9501117"><ele>786.0</ele><time>2026-03-22T11:09:39.787Z</time></trkpt><trkpt lat="37.883305" lon="14.949975"><ele>784.5</ele><time>2026-03-22T11:09:40.786Z</time></trkpt><trkpt lat="37.88326" lon="14.9498367"><ele>783.0</ele><time>2026-03-22T11:09:41.787Z</time></trkpt><trkpt lat="37.88323" lon="14.9496983"><ele>783.0</ele><time>2026-03-22T11:09:42.786Z</time></trkpt><trkpt lat="37.8832133" lon="14.9495567"><ele>783.0</ele><time>2026-03-22T11:09:43.787Z</time></trkpt><trkpt lat="37.88322" lon="14.9494017"><ele>783.0</ele><time>2026-03-22T11:09:44.787Z</time></trkpt><trkpt lat="37.8832433" lon="14.9492417"><ele>783.0</ele><time>2026-03-22T11:09:45.786Z</time></trkpt><trkpt lat="37.883275" lon="14.9490817"><ele>784.5</ele><time>2026-03-22T11:09:46.786Z</time></trkpt><trkpt lat="37.88332" lon="14.9489317"><ele>786.0</ele><time>2026-03-22T11:09:47.787Z</time></trkpt><trkpt lat="37.8833633" lon="14.9487933"><ele>787.5</ele><time>2026-03-22T11:09:48.786Z</time></trkpt><trkpt lat="37.8833883" lon="14.9486583"><ele>789.0</ele><time>2026-03-22T11:09:49.786Z</time></trkpt><trkpt lat="37.8833917" lon="14.9485283"><ele>789.0</ele><time>2026-03-22T11:09:50.786Z</time></trkpt><trkpt lat="37.88339" lon="14.9484317"><ele>789.0</ele><time>2026-03-22T11:09:51.787Z</time></trkpt><trkpt lat="37.8834117" lon="14.9483417"><ele>789.0</ele><time>2026-03-22T11:09:52.787Z</time></trkpt><trkpt lat="37.88352" lon="14.9483017"><ele>789.0</ele><time>2026-03-22T11:09:54.786Z</time></trkpt><trkpt lat="37.8835817" lon="14.9484317"><ele>789.0</ele><time>2026-03-22T11:09:56.787Z</time></trkpt><trkpt lat="37.88357" lon="14.948545"><ele>793.0</ele><time>2026-03-22T11:09:57.786Z</time></trkpt><trkpt lat="37.883545" lon="14.948675"><ele>797.0</ele><time>2026-03-22T11:09:58.787Z</time></trkpt><trkpt lat="37.8835167" lon="14.9488083"><ele>801.0</ele><time>2026-03-22T11:09:59.787Z</time></trkpt><trkpt lat="37.88349" lon="14.9489417"><ele>805.0</ele><time>2026-03-22T11:10:00.786Z</time></trkpt><trkpt lat="37.8834683" lon="14.949085"><ele>809.0</ele><time>2026-03-22T11:10:01.786Z</time></trkpt><trkpt lat="37.88345" lon="14.9492267"><ele>809.0</ele><time>2026-03-22T11:10:02.786Z</time></trkpt><trkpt lat="37.883445" lon="14.9493733"><ele>809.0</ele><time>2026-03-22T11:10:03.787Z</time></trkpt><trkpt lat="37.8834667" lon="14.9495217"><ele>809.0</ele><time>2026-03-22T11:10:04.787Z</time></trkpt><trkpt lat="37.8835033" lon="14.9496633"><ele>809.0</ele><time>2026-03-22T11:10:05.786Z</time></trkpt><trkpt lat="37.88356" lon="14.9498017"><ele>809.0</ele><time>2026-03-22T11:10:06.786Z</time></trkpt><trkpt lat="37.88363" lon="14.94994"><ele>809.0</ele><time>2026-03-22T11:10:07.787Z</time></trkpt><trkpt lat="37.883715" lon="14.9500583"><ele>809.0</ele><time>2026-03-22T11:10:08.786Z</time></trkpt><trkpt lat="37.8838133" lon="14.95016"><ele>809.0</ele><time>2026-03-22T11:10:09.786Z</time></trkpt><trkpt lat="37.883915" lon="14.9502517"><ele>808.0</ele><time>2026-03-22T11:10:10.786Z</time></trkpt><trkpt lat="37.8840233" lon="14.9503367"><ele>807.0</ele><time>2026-03-22T11:10:11.787Z</time></trkpt><trkpt lat="37.8841467" lon="14.9503967"><ele>806.0</ele><time>2026-03-22T11:10:12.787Z</time></trkpt><trkpt lat="37.8842783" lon="14.95044"><ele>805.0</ele><time>2026-03-22T11:10:13.786Z</time></trkpt><trkpt lat="37.8844133" lon="14.950475"><ele>805.0</ele><time>2026-03-22T11:10:14.786Z</time></trkpt><trkpt lat="37.88455" lon="14.9505067"><ele>805.0</ele><time>2026-03-22T11:10:15.786Z</time></trkpt><trkpt lat="37.884685" lon="14.950545"><ele>805.0</ele><time>2026-03-22T11:10:16.787Z</time></trkpt><trkpt lat="37.8848183" lon="14.9505883"><ele>805.0</ele><time>2026-03-22T11:10:17.786Z</time></trkpt><trkpt lat="37.88495" lon="14.9506233"><ele>805.0</ele><time>2026-03-22T11:10:18.787Z</time></trkpt><trkpt lat="37.8850833" lon="14.9506567"><ele>805.0</ele><time>2026-03-22T11:10:19.786Z</time></trkpt><trkpt lat="37.885205" lon="14.950705"><ele>805.0</ele><time>2026-03-22T11:10:20.786Z</time></trkpt><trkpt lat="37.88532" lon="14.9507733"><ele>805.0</ele><time>2026-03-22T11:10:21.786Z</time></trkpt><trkpt lat="37.8854217" lon="14.95087"><ele>808.0</ele><time>2026-03-22T11:10:22.786Z</time></trkpt><trkpt lat="37.885515" lon="14.9509933"><ele>811.0</ele><time>2026-03-22T11:10:23.787Z</time></trkpt><trkpt lat="37.88559" lon="14.9511383"><ele>814.0</ele><time>2026-03-22T11:10:24.786Z</time></trkpt><trkpt lat="37.8856367" lon="14.95131"><ele>817.0</ele><time>2026-03-22T11:10:25.787Z</time></trkpt><trkpt lat="37.885675" lon="14.9514867"><ele>817.0</ele><time>2026-03-22T11:10:26.786Z</time></trkpt><trkpt lat="37.8857317" lon="14.9516517"><ele>817.0</ele><time>2026-03-22T11:10:27.787Z</time></trkpt><trkpt lat="37.8858067" lon="14.9518083"><ele>817.0</ele><time>2026-03-22T11:10:28.786Z</time></trkpt><trkpt lat="37.8858917" lon="14.9519417"><ele>817.0</ele><time>2026-03-22T11:10:29.786Z</time></trkpt><trkpt lat="37.8859867" lon="14.9520583"><ele>819.6</ele><time>2026-03-22T11:10:30.787Z</time></trkpt><trkpt lat="37.886085" lon="14.9521583"><ele>822.2</ele><time>2026-03-22T11:10:31.787Z</time></trkpt><trkpt lat="37.88618" lon="14.9522383"><ele>824.8</ele><time>2026-03-22T11:10:32.786Z</time></trkpt><trkpt lat="37.88626" lon="14.9523217"><ele>827.4</ele><time>2026-03-22T11:10:33.787Z</time></trkpt><trkpt lat="37.8863133" lon="14.9524217"><ele>830.0</ele><time>2026-03-22T11:10:34.787Z</time></trkpt><trkpt lat="37.8863317" lon="14.95255"><ele>830.0</ele><time>2026-03-22T11:10:35.786Z</time></trkpt><trkpt lat="37.8863183" lon="14.9526867"><ele>830.0</ele><time>2026-03-22T11:10:36.787Z</time></trkpt><trkpt lat="37.88629" lon="14.9528333"><ele>830.0</ele><time>2026-03-22T11:10:37.786Z</time></trkpt><trkpt lat="37.8862667" lon="14.9529867"><ele>830.0</ele><time>2026-03-22T11:10:38.787Z</time></trkpt><trkpt lat="37.88625" lon="14.9531383"><ele>830.0</ele><time>2026-03-22T11:10:39.787Z</time></trkpt><trkpt lat="37.88625" lon="14.953285"><ele>830.0</ele><time>2026-03-22T11:10:40.786Z</time></trkpt><trkpt lat="37.8862767" lon="14.9534267"><ele>830.0</ele><time>2026-03-22T11:10:41.786Z</time></trkpt><trkpt lat="37.8863267" lon="14.95356"><ele>830.0</ele><time>2026-03-22T11:10:42.787Z</time></trkpt><trkpt lat="37.8864" lon="14.95368"><ele>828.5</ele><time>2026-03-22T11:10:43.787Z</time></trkpt><trkpt lat="37.886495" lon="14.9537883"><ele>827.0</ele><time>2026-03-22T11:10:44.786Z</time></trkpt><trkpt lat="37.8866067" lon="14.9538767"><ele>825.5</ele><time>2026-03-22T11:10:45.786Z</time></trkpt><trkpt lat="37.886725" lon="14.9539667"><ele>824.0</ele><time>2026-03-22T11:10:46.786Z</time></trkpt><trkpt lat="37.8868417" lon="14.9540617"><ele>826.0</ele><time>2026-03-22T11:10:47.787Z</time></trkpt><trkpt lat="37.8869567" lon="14.9541617"><ele>828.0</ele><time>2026-03-22T11:10:48.787Z</time></trkpt><trkpt lat="37.8870783" lon="14.95426"><ele>830.0</ele><time>2026-03-22T11:10:49.787Z</time></trkpt><trkpt lat="37.8871983" lon="14.954365"><ele>832.0</ele><time>2026-03-22T11:10:50.786Z</time></trkpt><trkpt lat="37.887325" lon="14.9544683"><ele>832.0</ele><time>2026-03-22T11:10:51.786Z</time></trkpt><trkpt lat="37.8874533" lon="14.9545683"><ele>832.0</ele><time>2026-03-22T11:10:52.786Z</time></trkpt><trkpt lat="37.8875867" lon="14.9546633"><ele>832.0</ele><time>2026-03-22T11:10:53.787Z</time></trkpt><trkpt lat="37.8877233" lon="14.9547533"><ele>831.75</ele><time>2026-03-22T11:10:54.786Z</time></trkpt><trkpt lat="37.8878533" lon="14.954845"><ele>831.5</ele><time>2026-03-22T11:10:55.787Z</time></trkpt><trkpt lat="37.8879833" lon="14.95493"><ele>831.25</ele><time>2026-03-22T11:10:56.786Z</time></trkpt><trkpt lat="37.8881067" lon="14.9550133"><ele>831.0</ele><time>2026-03-22T11:10:57.786Z</time></trkpt><trkpt lat="37.8882383" lon="14.9550867"><ele>831.0</ele><time>2026-03-22T11:10:58.786Z</time></trkpt><trkpt lat="37.8883733" lon="14.95514"><ele>831.0</ele><time>2026-03-22T11:10:59.787Z</time></trkpt><trkpt lat="37.888515" lon="14.9551767"><ele>831.0</ele><time>2026-03-22T11:11:00.786Z</time></trkpt><trkpt lat="37.8886633" lon="14.9552"><ele>831.0</ele><time>2026-03-22T11:11:01.786Z</time></trkpt><trkpt lat="37.8888167" lon="14.9552233"><ele>832.0</ele><time>2026-03-22T11:11:02.787Z</time></trkpt><trkpt lat="37.88897" lon="14.9552467"><ele>833.0</ele><time>2026-03-22T11:11:03.786Z</time></trkpt><trkpt lat="37.889125" lon="14.95527"><ele>834.0</ele><time>2026-03-22T11:11:04.787Z</time></trkpt><trkpt lat="37.88928" lon="14.9552967"><ele>834.6666666666667</ele><time>2026-03-22T11:11:05.786Z</time></trkpt><trkpt lat="37.88943" lon="14.9553217"><ele>835.3333333333334</ele><time>2026-03-22T11:11:06.787Z</time></trkpt><trkpt lat="37.8895767" lon="14.9553467"><ele>836.0</ele><time>2026-03-22T11:11:07.786Z</time></trkpt><trkpt lat="37.8897267" lon="14.9553617"><ele>836.0</ele><time>2026-03-22T11:11:08.786Z</time></trkpt><trkpt lat="37.8898783" lon="14.9553667"><ele>836.0</ele><time>2026-03-22T11:11:09.787Z</time></trkpt><trkpt lat="37.89003" lon="14.9553583"><ele>836.0</ele><time>2026-03-22T11:11:10.786Z</time></trkpt><trkpt lat="37.8901817" lon="14.9553417"><ele>838.75</ele><time>2026-03-22T11:11:11.786Z</time></trkpt><trkpt lat="37.8903233" lon="14.9553217"><ele>841.5</ele><time>2026-03-22T11:11:12.787Z</time></trkpt><trkpt lat="37.8904567" lon="14.9553067"><ele>844.25</ele><time>2026-03-22T11:11:13.787Z</time></trkpt><trkpt lat="37.8905917" lon="14.9553017"><ele>847.0</ele><time>2026-03-22T11:11:14.786Z</time></trkpt><trkpt lat="37.8907267" lon="14.9553233"><ele>847.0</ele><time>2026-03-22T11:11:15.787Z</time></trkpt><trkpt lat="37.890855" lon="14.9553817"><ele>847.0</ele><time>2026-03-22T11:11:16.787Z</time></trkpt><trkpt lat="37.8909783" lon="14.955465"><ele>847.0</ele><time>2026-03-22T11:11:17.787Z</time></trkpt><trkpt lat="37.8911033" lon="14.95556"><ele>847.0</ele><time>2026-03-22T11:11:18.787Z</time></trkpt><trkpt lat="37.8912333" lon="14.9556517"><ele>851.0</ele><time>2026-03-22T11:11:19.786Z</time></trkpt><trkpt lat="37.8913617" lon="14.9557233"><ele>855.0</ele><time>2026-03-22T11:11:20.787Z</time></trkpt><trkpt lat="37.8914883" lon="14.9557683"><ele>859.0</ele><time>2026-03-22T11:11:21.787Z</time></trkpt><trkpt lat="37.8916283" lon="14.9557833"><ele>863.0</ele><time>2026-03-22T11:11:22.787Z</time></trkpt><trkpt lat="37.891765" lon="14.95579"><ele>863.5</ele><time>2026-03-22T11:11:23.787Z</time></trkpt><trkpt lat="37.891905" lon="14.9557667"><ele>864.0</ele><time>2026-03-22T11:11:24.787Z</time></trkpt><trkpt lat="37.892045" lon="14.9557167"><ele>864.5</ele><time>2026-03-22T11:11:25.787Z</time></trkpt><trkpt lat="37.8921817" lon="14.9556383"><ele>865.0</ele><time>2026-03-22T11:11:26.786Z</time></trkpt><trkpt lat="37.892315" lon="14.9555517"><ele>865.0</ele><time>2026-03-22T11:11:27.786Z</time></trkpt><trkpt lat="37.892445" lon="14.95546"><ele>865.0</ele><time>2026-03-22T11:11:28.787Z</time></trkpt><trkpt lat="37.8925683" lon="14.9553733"><ele>865.0</ele><time>2026-03-22T11:11:29.787Z</time></trkpt><trkpt lat="37.892675" lon="14.955295"><ele>865.0</ele><time>2026-03-22T11:11:30.786Z</time></trkpt><trkpt lat="37.8927717" lon="14.9552233"><ele>864.4</ele><time>2026-03-22T11:11:31.786Z</time></trkpt><trkpt lat="37.892875" lon="14.9551667"><ele>863.8</ele><time>2026-03-22T11:11:32.787Z</time></trkpt><trkpt lat="37.8929817" lon="14.9551417"><ele>863.2</ele><time>2026-03-22T11:11:33.786Z</time></trkpt><trkpt lat="37.8930867" lon="14.9551567"><ele>862.6</ele><time>2026-03-22T11:11:34.786Z</time></trkpt><trkpt lat="37.8931933" lon="14.9551917"><ele>862.0</ele><time>2026-03-22T11:11:35.787Z</time></trkpt><trkpt lat="37.893295" lon="14.9552233"><ele>861.9999999999999</ele><time>2026-03-22T11:11:36.787Z</time></trkpt><trkpt lat="37.8933833" lon="14.9552383"><ele>862.0</ele><time>2026-03-22T11:11:37.787Z</time></trkpt><trkpt lat="37.8934583" lon="14.95522"><ele>862.0</ele><time>2026-03-22T11:11:38.786Z</time></trkpt><trkpt lat="37.8935233" lon="14.95516"><ele>862.0</ele><time>2026-03-22T11:11:39.787Z</time></trkpt><trkpt lat="37.8935617" lon="14.95508"><ele>861.9999999999999</ele><time>2026-03-22T11:11:40.787Z</time></trkpt><trkpt lat="37.893565" lon="14.9549817"><ele>862.0</ele><time>2026-03-22T11:11:41.786Z</time></trkpt><trkpt lat="37.893525" lon="14.9548783"><ele>865.8</ele><time>2026-03-22T11:11:42.786Z</time></trkpt><trkpt lat="37.893455" lon="14.9548"><ele>869.6</ele><time>2026-03-22T11:11:43.787Z</time></trkpt><trkpt lat="37.893365" lon="14.954755"><ele>873.3999999999999</ele><time>2026-03-22T11:11:44.787Z</time></trkpt><trkpt lat="37.8932667" lon="14.9547217"><ele>877.1999999999999</ele><time>2026-03-22T11:11:45.786Z</time></trkpt><trkpt lat="37.893165" lon="14.9546683"><ele>881.0</ele><time>2026-03-22T11:11:46.786Z</time></trkpt><trkpt lat="37.893075" lon="14.954585"><ele>881.1999999999999</ele><time>2026-03-22T11:11:47.786Z</time></trkpt><trkpt lat="37.8929917" lon="14.95448"><ele>881.3999999999999</ele><time>2026-03-22T11:11:48.786Z</time></trkpt><trkpt lat="37.8929233" lon="14.9543733"><ele>881.6</ele><time>2026-03-22T11:11:49.786Z</time></trkpt><trkpt lat="37.89287" lon="14.9542833"><ele>881.8</ele><time>2026-03-22T11:11:50.786Z</time></trkpt><trkpt lat="37.89285" lon="14.95419"><ele>882.0</ele><time>2026-03-22T11:11:51.787Z</time></trkpt><trkpt lat="37.892865" lon="14.9540967"><ele>884.0</ele><time>2026-03-22T11:11:52.786Z</time></trkpt><trkpt lat="37.8929217" lon="14.954035"><ele>886.0</ele><time>2026-03-22T11:11:53.787Z</time></trkpt><trkpt lat="37.8930067" lon="14.9540083"><ele>888.0</ele><time>2026-03-22T11:11:54.786Z</time></trkpt><trkpt lat="37.8931" lon="14.9540083"><ele>890.0</ele><time>2026-03-22T11:11:55.787Z</time></trkpt><trkpt lat="37.8932067" lon="14.954015"><ele>892.0</ele><time>2026-03-22T11:11:56.786Z</time></trkpt><trkpt lat="37.893315" lon="14.95402"><ele>893.25</ele><time>2026-03-22T11:11:57.787Z</time></trkpt><trkpt lat="37.89343" lon="14.95403"><ele>894.5</ele><time>2026-03-22T11:11:58.786Z</time></trkpt><trkpt lat="37.893555" lon="14.9540417"><ele>895.75</ele><time>2026-03-22T11:11:59.786Z</time></trkpt><trkpt lat="37.8936867" lon="14.95406"><ele>897.0</ele><time>2026-03-22T11:12:00.786Z</time></trkpt><trkpt lat="37.89382" lon="14.9540817"><ele>897.0</ele><time>2026-03-22T11:12:01.786Z</time></trkpt><trkpt lat="37.8939617" lon="14.9541017"><ele>897.0</ele><time>2026-03-22T11:12:02.786Z</time></trkpt><trkpt lat="37.8941017" lon="14.9541233"><ele>897.0</ele><time>2026-03-22T11:12:03.786Z</time></trkpt><trkpt lat="37.8942417" lon="14.95414"><ele>897.0</ele><time>2026-03-22T11:12:04.786Z</time></trkpt><trkpt lat="37.89438" lon="14.9541683"><ele>896.0</ele><time>2026-03-22T11:12:05.786Z</time></trkpt><trkpt lat="37.8945067" lon="14.9542167"><ele>895.0</ele><time>2026-03-22T11:12:06.787Z</time></trkpt><trkpt lat="37.894635" lon="14.9542733"><ele>894.0</ele><time>2026-03-22T11:12:07.787Z</time></trkpt><trkpt lat="37.89476" lon="14.95434"><ele>893.0</ele><time>2026-03-22T11:12:08.786Z</time></trkpt><trkpt lat="37.894885" lon="14.9544217"><ele>893.0</ele><time>2026-03-22T11:12:09.786Z</time></trkpt><trkpt lat="37.8950083" lon="14.9545167"><ele>893.0</ele><time>2026-03-22T11:12:10.786Z</time></trkpt><trkpt lat="37.8951267" lon="14.9546367"><ele>893.0</ele><time>2026-03-22T11:12:11.786Z</time></trkpt><trkpt lat="37.8952367" lon="14.95476"><ele>893.0</ele><time>2026-03-22T11:12:12.787Z</time></trkpt><trkpt lat="37.8953417" lon="14.954895"><ele>893.75</ele><time>2026-03-22T11:12:13.786Z</time></trkpt><trkpt lat="37.8954417" lon="14.95502"><ele>894.5</ele><time>2026-03-22T11:12:14.786Z</time></trkpt><trkpt lat="37.8955517" lon="14.955135"><ele>895.25</ele><time>2026-03-22T11:12:15.787Z</time></trkpt><trkpt lat="37.8956717" lon="14.9552317"><ele>896.0</ele><time>2026-03-22T11:12:16.786Z</time></trkpt><trkpt lat="37.895805" lon="14.95531"><ele>899.25</ele><time>2026-03-22T11:12:17.786Z</time></trkpt><trkpt lat="37.895935" lon="14.9553783"><ele>902.5</ele><time>2026-03-22T11:12:18.786Z</time></trkpt><trkpt lat="37.89606" lon="14.9554283"><ele>905.75</ele><time>2026-03-22T11:12:19.787Z</time></trkpt><trkpt lat="37.89618" lon="14.9554617"><ele>909.0</ele><time>2026-03-22T11:12:20.787Z</time></trkpt><trkpt lat="37.8962933" lon="14.9554617"><ele>909.0</ele><time>2026-03-22T11:12:21.786Z</time></trkpt><trkpt lat="37.8964" lon="14.9554267"><ele>909.0000000000001</ele><time>2026-03-22T11:12:22.787Z</time></trkpt><trkpt lat="37.8964967" lon="14.9553817"><ele>909.0000000000001</ele><time>2026-03-22T11:12:23.787Z</time></trkpt><trkpt lat="37.8965883" lon="14.95539"><ele>909.0</ele><time>2026-03-22T11:12:24.786Z</time></trkpt><trkpt lat="37.8966767" lon="14.9554367"><ele>909.0</ele><time>2026-03-22T11:12:25.786Z</time></trkpt><trkpt lat="37.8967583" lon="14.9555267"><ele>910.75</ele><time>2026-03-22T11:12:26.787Z</time></trkpt><trkpt lat="37.8968383" lon="14.9556267"><ele>912.5</ele><time>2026-03-22T11:12:27.786Z</time></trkpt><trkpt lat="37.8969167" lon="14.9557433"><ele>914.25</ele><time>2026-03-22T11:12:28.787Z</time></trkpt><trkpt lat="37.897" lon="14.95586"><ele>916.0</ele><time>2026-03-22T11:12:29.786Z</time></trkpt><trkpt lat="37.8970867" lon="14.9559767"><ele>916.0</ele><time>2026-03-22T11:12:30.786Z</time></trkpt><trkpt lat="37.8971767" lon="14.9560983"><ele>916.0</ele><time>2026-03-22T11:12:31.787Z</time></trkpt><trkpt lat="37.8972667" lon="14.95621"><ele>916.0</ele><time>2026-03-22T11:12:32.786Z</time></trkpt><trkpt lat="37.89736" lon="14.9563167"><ele>916.0</ele><time>2026-03-22T11:12:33.786Z</time></trkpt><trkpt lat="37.8974717" lon="14.956405"><ele>918.5</ele><time>2026-03-22T11:12:34.787Z</time></trkpt><trkpt lat="37.8975917" lon="14.9564817"><ele>921.0</ele><time>2026-03-22T11:12:35.786Z</time></trkpt><trkpt lat="37.8977217" lon="14.9565517"><ele>923.5</ele><time>2026-03-22T11:12:36.786Z</time></trkpt><trkpt lat="37.8978567" lon="14.9566167"><ele>926.0</ele><time>2026-03-22T11:12:37.786Z</time></trkpt><trkpt lat="37.8979967" lon="14.95667"><ele>925.3333333333334</ele><time>2026-03-22T11:12:38.786Z</time></trkpt><trkpt lat="37.8981383" lon="14.9567133"><ele>924.6666666666667</ele><time>2026-03-22T11:12:39.787Z</time></trkpt><trkpt lat="37.89829" lon="14.9567483"><ele>924.0</ele><time>2026-03-22T11:12:40.787Z</time></trkpt><trkpt lat="37.89844" lon="14.95677"><ele>924.0</ele><time>2026-03-22T11:12:41.786Z</time></trkpt><trkpt lat="37.8985917" lon="14.9567833"><ele>924.0</ele><time>2026-03-22T11:12:42.787Z</time></trkpt><trkpt lat="37.8987433" lon="14.9567967"><ele>924.0</ele><time>2026-03-22T11:12:43.787Z</time></trkpt><trkpt lat="37.8988817" lon="14.9568233"><ele>924.0</ele><time>2026-03-22T11:12:44.786Z</time></trkpt><trkpt lat="37.8990167" lon="14.9568667"><ele>924.0</ele><time>2026-03-22T11:12:45.787Z</time></trkpt><trkpt lat="37.89913" lon="14.9569417"><ele>924.0000000000001</ele><time>2026-03-22T11:12:46.786Z</time></trkpt><trkpt lat="37.899215" lon="14.9570283"><ele>924.0000000000001</ele><time>2026-03-22T11:12:47.787Z</time></trkpt><trkpt lat="37.89928" lon="14.9571067"><ele>924.0</ele><time>2026-03-22T11:12:48.787Z</time></trkpt><trkpt lat="37.8993433" lon="14.9571533"><ele>924.0</ele><time>2026-03-22T11:12:49.787Z</time></trkpt><trkpt lat="37.8994083" lon="14.957165"><ele>928.1666666666666</ele><time>2026-03-22T11:12:50.786Z</time></trkpt><trkpt lat="37.8994783" lon="14.9571367"><ele>932.3333333333333</ele><time>2026-03-22T11:12:51.786Z</time></trkpt><trkpt lat="37.8995317" lon="14.95707"><ele>936.5</ele><time>2026-03-22T11:12:52.787Z</time></trkpt><trkpt lat="37.8995683" lon="14.9569783"><ele>940.6666666666666</ele><time>2026-03-22T11:12:53.786Z</time></trkpt><trkpt lat="37.8995767" lon="14.9568717"><ele>944.8333333333333</ele><time>2026-03-22T11:12:54.786Z</time></trkpt><trkpt lat="37.899545" lon="14.9567667"><ele>949.0</ele><time>2026-03-22T11:12:55.787Z</time></trkpt><trkpt lat="37.8994783" lon="14.956665"><ele>951.25</ele><time>2026-03-22T11:12:56.787Z</time></trkpt><trkpt lat="37.8994" lon="14.95657"><ele>953.5</ele><time>2026-03-22T11:12:57.787Z</time></trkpt><trkpt lat="37.8993117" lon="14.9564783"><ele>955.75</ele><time>2026-03-22T11:12:58.787Z</time></trkpt><trkpt lat="37.89922" lon="14.9563833"><ele>958.0</ele><time>2026-03-22T11:12:59.787Z</time></trkpt><trkpt lat="37.8991217" lon="14.956285"><ele>956.75</ele><time>2026-03-22T11:13:00.787Z</time></trkpt><trkpt lat="37.8990167" lon="14.9561817"><ele>955.5</ele><time>2026-03-22T11:13:01.786Z</time></trkpt><trkpt lat="37.8989167" lon="14.956075"><ele>954.25</ele><time>2026-03-22T11:13:02.786Z</time></trkpt><trkpt lat="37.8988133" lon="14.9559633"><ele>953.0</ele><time>2026-03-22T11:13:03.787Z</time></trkpt><trkpt lat="37.8987033" lon="14.95585"><ele>953.0</ele><time>2026-03-22T11:13:04.786Z</time></trkpt><trkpt lat="37.8985967" lon="14.9557383"><ele>953.0</ele><time>2026-03-22T11:13:05.787Z</time></trkpt><trkpt lat="37.898495" lon="14.9556283"><ele>953.0</ele><time>2026-03-22T11:13:06.787Z</time></trkpt><trkpt lat="37.8984067" lon="14.9555317"><ele>953.0</ele><time>2026-03-22T11:13:07.787Z</time></trkpt><trkpt lat="37.8983233" lon="14.9554367"><ele>952.75</ele><time>2026-03-22T11:13:08.786Z</time></trkpt><trkpt lat="37.8982483" lon="14.9553383"><ele>952.5</ele><time>2026-03-22T11:13:09.787Z</time></trkpt><trkpt lat="37.8981983" lon="14.95521"><ele>952.25</ele><time>2026-03-22T11:13:10.786Z</time></trkpt><trkpt lat="37.8981817" lon="14.955065"><ele>952.0</ele><time>2026-03-22T11:13:11.787Z</time></trkpt><trkpt lat="37.8982067" lon="14.9549167"><ele>952.0</ele><time>2026-03-22T11:13:12.787Z</time></trkpt><trkpt lat="37.8982683" lon="14.9547867"><ele>952.0</ele><time>2026-03-22T11:13:13.786Z</time></trkpt><trkpt lat="37.8983533" lon="14.9546833"><ele>952.0</ele><time>2026-03-22T11:13:14.787Z</time></trkpt><trkpt lat="37.8984583" lon="14.9546117"><ele>952.0</ele><time>2026-03-22T11:13:15.786Z</time></trkpt><trkpt lat="37.898575" lon="14.9545883"><ele>954.75</ele><time>2026-03-22T11:13:16.786Z</time></trkpt><trkpt lat="37.8986917" lon="14.9546183"><ele>957.5</ele><time>2026-03-22T11:13:17.787Z</time></trkpt><trkpt lat="37.8988" lon="14.9546967"><ele>960.25</ele><time>2026-03-22T11:13:18.786Z</time></trkpt><trkpt lat="37.8988967" lon="14.9548067"><ele>963.0</ele><time>2026-03-22T11:13:19.786Z</time></trkpt><trkpt lat="37.8989933" lon="14.9549283"><ele>964.75</ele><time>2026-03-22T11:13:20.786Z</time></trkpt><trkpt lat="37.89909" lon="14.955055"><ele>966.5</ele><time>2026-03-22T11:13:21.787Z</time></trkpt><trkpt lat="37.89919" lon="14.9551833"><ele>968.25</ele><time>2026-03-22T11:13:22.787Z</time></trkpt><trkpt lat="37.899295" lon="14.9553117"><ele>970.0</ele><time>2026-03-22T11:13:23.786Z</time></trkpt><trkpt lat="37.8994" lon="14.9554383"><ele>970.0</ele><time>2026-03-22T11:13:24.787Z</time></trkpt><trkpt lat="37.899505" lon="14.9555733"><ele>970.0</ele><time>2026-03-22T11:13:25.786Z</time></trkpt><trkpt lat="37.8996133" lon="14.9557067"><ele>970.0</ele><time>2026-03-22T11:13:26.786Z</time></trkpt><trkpt lat="37.8997267" lon="14.955835"><ele>966.0</ele><time>2026-03-22T11:13:27.787Z</time></trkpt><trkpt lat="37.899845" lon="14.9559633"><ele>962.0</ele><time>2026-03-22T11:13:28.787Z</time></trkpt><trkpt lat="37.8999667" lon="14.9560917"><ele>958.0</ele><time>2026-03-22T11:13:29.787Z</time></trkpt><trkpt lat="37.9000833" lon="14.9562183"><ele>963.5</ele><time>2026-03-22T11:13:30.786Z</time></trkpt><trkpt lat="37.9001933" lon="14.9563417"><ele>969.0</ele><time>2026-03-22T11:13:31.787Z</time></trkpt><trkpt lat="37.9002983" lon="14.95647"><ele>974.5</ele><time>2026-03-22T11:13:32.787Z</time></trkpt><trkpt lat="37.9003917" lon="14.9566117"><ele>980.0</ele><time>2026-03-22T11:13:33.786Z</time></trkpt><trkpt lat="37.90047" lon="14.95677"><ele>980.0</ele><time>2026-03-22T11:13:34.787Z</time></trkpt><trkpt lat="37.900535" lon="14.956935"><ele>980.0</ele><time>2026-03-22T11:13:35.786Z</time></trkpt><trkpt lat="37.9005967" lon="14.9571117"><ele>980.0</ele><time>2026-03-22T11:13:36.787Z</time></trkpt><trkpt lat="37.9006533" lon="14.95729"><ele>980.0</ele><time>2026-03-22T11:13:37.786Z</time></trkpt><trkpt lat="37.9007067" lon="14.9574583"><ele>980.0</ele><time>2026-03-22T11:13:38.786Z</time></trkpt><trkpt lat="37.9007667" lon="14.957615"><ele>980.0</ele><time>2026-03-22T11:13:39.786Z</time></trkpt><trkpt lat="37.9008433" lon="14.9577633"><ele>980.0</ele><time>2026-03-22T11:13:40.787Z</time></trkpt><trkpt lat="37.900935" lon="14.9579017"><ele>980.5</ele><time>2026-03-22T11:13:41.786Z</time></trkpt><trkpt lat="37.901035" lon="14.9580383"><ele>981.0</ele><time>2026-03-22T11:13:42.787Z</time></trkpt><trkpt lat="37.901135" lon="14.9581733"><ele>981.5</ele><time>2026-03-22T11:13:43.787Z</time></trkpt><trkpt lat="37.9012317" lon="14.95831"><ele>982.0</ele><time>2026-03-22T11:13:44.786Z</time></trkpt><trkpt lat="37.9013183" lon="14.9584383"><ele>982.0</ele><time>2026-03-22T11:13:45.787Z</time></trkpt><trkpt lat="37.901405" lon="14.9585583"><ele>982.0</ele><time>2026-03-22T11:13:46.786Z</time></trkpt><trkpt lat="37.9014967" lon="14.9586667"><ele>982.0</ele><time>2026-03-22T11:13:47.787Z</time></trkpt><trkpt lat="37.9016" lon="14.9587633"><ele>982.0</ele><time>2026-03-22T11:13:48.787Z</time></trkpt><trkpt lat="37.901725" lon="14.958845"><ele>981.0</ele><time>2026-03-22T11:13:49.787Z</time></trkpt><trkpt lat="37.9018617" lon="14.9589167"><ele>980.0</ele><time>2026-03-22T11:13:50.787Z</time></trkpt><trkpt lat="37.902005" lon="14.95897"><ele>979.0</ele><time>2026-03-22T11:13:51.786Z</time></trkpt><trkpt lat="37.902155" lon="14.9590167"><ele>979.0</ele><time>2026-03-22T11:13:52.786Z</time></trkpt><trkpt lat="37.902305" lon="14.959065"><ele>979.0</ele><time>2026-03-22T11:13:53.786Z</time></trkpt><trkpt lat="37.9024533" lon="14.9591217"><ele>979.0</ele><time>2026-03-22T11:13:54.787Z</time></trkpt><trkpt lat="37.9025967" lon="14.9591967"><ele>977.3333333333333</ele><time>2026-03-22T11:13:55.786Z</time></trkpt><trkpt lat="37.90274" lon="14.959285"><ele>975.6666666666667</ele><time>2026-03-22T11:13:56.786Z</time></trkpt><trkpt lat="37.9028817" lon="14.9593933"><ele>974.0</ele><time>2026-03-22T11:13:57.786Z</time></trkpt><trkpt lat="37.9030133" lon="14.9595083"><ele>974.0</ele><time>2026-03-22T11:13:58.786Z</time></trkpt><trkpt lat="37.903135" lon="14.9596383"><ele>974.0</ele><time>2026-03-22T11:13:59.786Z</time></trkpt><trkpt lat="37.90325" lon="14.95977"><ele>974.0</ele><time>2026-03-22T11:14:00.787Z</time></trkpt><trkpt lat="37.90334" lon="14.9599217"><ele>975.25</ele><time>2026-03-22T11:14:01.787Z</time></trkpt><trkpt lat="37.90342" lon="14.9600833"><ele>976.5</ele><time>2026-03-22T11:14:02.787Z</time></trkpt><trkpt lat="37.9034833" lon="14.9602517"><ele>977.75</ele><time>2026-03-22T11:14:03.787Z</time></trkpt><trkpt lat="37.9035267" lon="14.96042"><ele>979.0</ele><time>2026-03-22T11:14:04.787Z</time></trkpt><trkpt lat="37.9035483" lon="14.9605833"><ele>979.0</ele><time>2026-03-22T11:14:05.787Z</time></trkpt><trkpt lat="37.9035667" lon="14.9607283"><ele>979.0000000000001</ele><time>2026-03-22T11:14:06.786Z</time></trkpt><trkpt lat="37.9036033" lon="14.9608483"><ele>979.0000000000001</ele><time>2026-03-22T11:14:07.786Z</time></trkpt><trkpt lat="37.9036717" lon="14.9609517"><ele>979.0</ele><time>2026-03-22T11:14:08.786Z</time></trkpt><trkpt lat="37.90377" lon="14.9610467"><ele>979.0</ele><time>2026-03-22T11:14:09.787Z</time></trkpt><trkpt lat="37.9038783" lon="14.96114"><ele>978.75</ele><time>2026-03-22T11:14:10.787Z</time></trkpt><trkpt lat="37.9039933" lon="14.961235"><ele>978.5</ele><time>2026-03-22T11:14:11.786Z</time></trkpt><trkpt lat="37.9041117" lon="14.9613367"><ele>978.25</ele><time>2026-03-22T11:14:12.786Z</time></trkpt><trkpt lat="37.9042367" lon="14.9614367"><ele>978.0</ele><time>2026-03-22T11:14:13.786Z</time></trkpt><trkpt lat="37.9043717" lon="14.9615333"><ele>978.0</ele><time>2026-03-22T11:14:14.787Z</time></trkpt><trkpt lat="37.9045133" lon="14.9616333"><ele>978.0</ele><time>2026-03-22T11:14:15.786Z</time></trkpt><trkpt lat="37.9046417" lon="14.961745"><ele>978.0</ele><time>2026-03-22T11:14:16.786Z</time></trkpt><trkpt lat="37.90475" lon="14.9618617"><ele>975.75</ele><time>2026-03-22T11:14:17.787Z</time></trkpt><trkpt lat="37.9048567" lon="14.9619683"><ele>973.5</ele><time>2026-03-22T11:14:18.787Z</time></trkpt><trkpt lat="37.9049733" lon="14.9620567"><ele>971.25</ele><time>2026-03-22T11:14:19.786Z</time></trkpt><trkpt lat="37.9051033" lon="14.9621183"><ele>969.0</ele><time>2026-03-22T11:14:20.787Z</time></trkpt><trkpt lat="37.9052467" lon="14.9621567"><ele>969.0</ele><time>2026-03-22T11:14:21.786Z</time></trkpt><trkpt lat="37.90539" lon="14.9621733"><ele>969.0</ele><time>2026-03-22T11:14:22.787Z</time></trkpt><trkpt lat="37.905535" lon="14.9621783"><ele>969.0</ele><time>2026-03-22T11:14:23.786Z</time></trkpt><trkpt lat="37.905675" lon="14.9621867"><ele>969.0</ele><time>2026-03-22T11:14:24.787Z</time></trkpt><trkpt lat="37.9058133" lon="14.962205"><ele>971.25</ele><time>2026-03-22T11:14:25.786Z</time></trkpt><trkpt lat="37.9059517" lon="14.9622467"><ele>973.5</ele><time>2026-03-22T11:14:26.786Z</time></trkpt><trkpt lat="37.9060783" lon="14.9623167"><ele>975.75</ele><time>2026-03-22T11:14:27.786Z</time></trkpt><trkpt lat="37.9062" lon="14.9624083"><ele>978.0</ele><time>2026-03-22T11:14:28.786Z</time></trkpt><trkpt lat="37.90631" lon="14.96252"><ele>976.5</ele><time>2026-03-22T11:14:29.787Z</time></trkpt><trkpt lat="37.9064" lon="14.9626517"><ele>975.0</ele><time>2026-03-22T11:14:30.786Z</time></trkpt><trkpt lat="37.9064783" lon="14.962805"><ele>973.5</ele><time>2026-03-22T11:14:31.786Z</time></trkpt><trkpt lat="37.9065483" lon="14.962965"><ele>972.0</ele><time>2026-03-22T11:14:32.787Z</time></trkpt><trkpt lat="37.9066183" lon="14.963135"><ele>972.0</ele><time>2026-03-22T11:14:33.787Z</time></trkpt><trkpt lat="37.9066917" lon="14.9633067"><ele>972.0</ele><time>2026-03-22T11:14:34.787Z</time></trkpt><trkpt lat="37.906765" lon="14.963485"><ele>972.0</ele><time>2026-03-22T11:14:35.786Z</time></trkpt><trkpt lat="37.9068417" lon="14.9636533"><ele>972.75</ele><time>2026-03-22T11:14:36.787Z</time></trkpt><trkpt lat="37.90691" lon="14.9638033"><ele>973.5</ele><time>2026-03-22T11:14:37.787Z</time></trkpt><trkpt lat="37.9069733" lon="14.963935"><ele>974.25</ele><time>2026-03-22T11:14:38.787Z</time></trkpt><trkpt lat="37.907045" lon="14.9640467"><ele>975.0</ele><time>2026-03-22T11:14:39.787Z</time></trkpt><trkpt lat="37.907135" lon="14.9641367"><ele>972.0</ele><time>2026-03-22T11:14:40.786Z</time></trkpt><trkpt lat="37.9072467" lon="14.9642017"><ele>969.0</ele><time>2026-03-22T11:14:41.787Z</time></trkpt><trkpt lat="37.907365" lon="14.9642433"><ele>966.0</ele><time>2026-03-22T11:14:42.786Z</time></trkpt><trkpt lat="37.9074917" lon="14.9642567"><ele>963.0</ele><time>2026-03-22T11:14:43.787Z</time></trkpt><trkpt lat="37.9076283" lon="14.9642483"><ele>963.0</ele><time>2026-03-22T11:14:44.787Z</time></trkpt><trkpt lat="37.90777" lon="14.964245"><ele>963.0</ele><time>2026-03-22T11:14:45.787Z</time></trkpt><trkpt lat="37.9079083" lon="14.9642467"><ele>963.0</ele><time>2026-03-22T11:14:46.786Z</time></trkpt><trkpt lat="37.90805" lon="14.964245"><ele>963.0</ele><time>2026-03-22T11:14:47.786Z</time></trkpt><trkpt lat="37.9081883" lon="14.9642467"><ele>963.0</ele><time>2026-03-22T11:14:48.787Z</time></trkpt><trkpt lat="37.90832" lon="14.9642417"><ele>963.0</ele><time>2026-03-22T11:14:49.787Z</time></trkpt><trkpt lat="37.9084483" lon="14.96422"><ele>963.0</ele><time>2026-03-22T11:14:50.786Z</time></trkpt><trkpt lat="37.9085717" lon="14.9641583"><ele>963.0</ele><time>2026-03-22T11:14:51.787Z</time></trkpt><trkpt lat="37.90869" lon="14.96407"><ele>967.25</ele><time>2026-03-22T11:14:52.787Z</time></trkpt><trkpt lat="37.9088067" lon="14.9639767"><ele>971.5</ele><time>2026-03-22T11:14:53.787Z</time></trkpt><trkpt lat="37.90893" lon="14.963885"><ele>975.75</ele><time>2026-03-22T11:14:54.786Z</time></trkpt><trkpt lat="37.90905" lon="14.9637967"><ele>980.0</ele><time>2026-03-22T11:14:55.787Z</time></trkpt><trkpt lat="37.9091683" lon="14.9637133"><ele>980.25</ele><time>2026-03-22T11:14:56.787Z</time></trkpt><trkpt lat="37.90929" lon="14.9636383"><ele>980.5</ele><time>2026-03-22T11:14:57.787Z</time></trkpt><trkpt lat="37.9094167" lon="14.9635867"><ele>980.75</ele><time>2026-03-22T11:14:58.786Z</time></trkpt><trkpt lat="37.9095483" lon="14.9635667"><ele>981.0</ele><time>2026-03-22T11:14:59.787Z</time></trkpt><trkpt lat="37.9096833" lon="14.96358"><ele>981.0</ele><time>2026-03-22T11:15:00.786Z</time></trkpt><trkpt lat="37.9098233" lon="14.9636117"><ele>981.0</ele><time>2026-03-22T11:15:01.786Z</time></trkpt><trkpt lat="37.9099633" lon="14.9636583"><ele>981.0</ele><time>2026-03-22T11:15:02.786Z</time></trkpt><trkpt lat="37.9101067" lon="14.963705"><ele>981.0</ele><time>2026-03-22T11:15:03.786Z</time></trkpt><trkpt lat="37.9102467" lon="14.9637583"><ele>985.6666666666667</ele><time>2026-03-22T11:15:04.786Z</time></trkpt><trkpt lat="37.9103967" lon="14.9638067"><ele>990.3333333333334</ele><time>2026-03-22T11:15:05.786Z</time></trkpt><trkpt lat="37.9105467" lon="14.963855"><ele>995.0</ele><time>2026-03-22T11:15:06.787Z</time></trkpt><trkpt lat="37.9106817" lon="14.9639067"><ele>995.0</ele><time>2026-03-22T11:15:07.786Z</time></trkpt><trkpt lat="37.9108017" lon="14.9639633"><ele>995.0</ele><time>2026-03-22T11:15:08.787Z</time></trkpt><trkpt lat="37.910915" lon="14.96405"><ele>995.0</ele><time>2026-03-22T11:15:09.786Z</time></trkpt><trkpt lat="37.91102" lon="14.9641583"><ele>995.0</ele><time>2026-03-22T11:15:10.787Z</time></trkpt><trkpt lat="37.91112" lon="14.96427"><ele>996.0</ele><time>2026-03-22T11:15:11.786Z</time></trkpt><trkpt lat="37.9112267" lon="14.964385"><ele>997.0</ele><time>2026-03-22T11:15:12.787Z</time></trkpt><trkpt lat="37.9113383" lon="14.9644967"><ele>998.0</ele><time>2026-03-22T11:15:13.786Z</time></trkpt><trkpt lat="37.9114483" lon="14.9645967"><ele>999.0</ele><time>2026-03-22T11:15:14.786Z</time></trkpt><trkpt lat="37.911555" lon="14.9646683"><ele>999.0</ele><time>2026-03-22T11:15:15.787Z</time></trkpt><trkpt lat="37.9116633" lon="14.9647183"><ele>999.0</ele><time>2026-03-22T11:15:16.787Z</time></trkpt><trkpt lat="37.911775" lon="14.9647283"><ele>999.0</ele><time>2026-03-22T11:15:17.787Z</time></trkpt><trkpt lat="37.9118917" lon="14.9646883"><ele>999.0</ele><time>2026-03-22T11:15:18.786Z</time></trkpt><trkpt lat="37.912005" lon="14.9646383"><ele>1000.25</ele><time>2026-03-22T11:15:19.786Z</time></trkpt><trkpt lat="37.912125" lon="14.9645867"><ele>1001.5</ele><time>2026-03-22T11:15:20.787Z</time></trkpt><trkpt lat="37.9122533" lon="14.9645483"><ele>1002.75</ele><time>2026-03-22T11:15:21.786Z</time></trkpt><trkpt lat="37.9123817" lon="14.96454"><ele>1004.0</ele><time>2026-03-22T11:15:22.786Z</time></trkpt><trkpt lat="37.9125017" lon="14.9645717"><ele>1006.75</ele><time>2026-03-22T11:15:23.786Z</time></trkpt><trkpt lat="37.9126233" lon="14.96462"><ele>1009.5</ele><time>2026-03-22T11:15:24.787Z</time></trkpt><trkpt lat="37.9127367" lon="14.96469"><ele>1012.25</ele><time>2026-03-22T11:15:25.786Z</time></trkpt><trkpt lat="37.91284" lon="14.9647633"><ele>1015.0</ele><time>2026-03-22T11:15:26.786Z</time></trkpt><trkpt lat="37.9129367" lon="14.9648267"><ele>1015.0</ele><time>2026-03-22T11:15:27.786Z</time></trkpt><trkpt lat="37.9130367" lon="14.964865"><ele>1015.0</ele><time>2026-03-22T11:15:28.787Z</time></trkpt><trkpt lat="37.91313" lon="14.964875"><ele>1015.0</ele><time>2026-03-22T11:15:29.787Z</time></trkpt><trkpt lat="37.9132283" lon="14.964855"><ele>1015.0</ele><time>2026-03-22T11:15:30.787Z</time></trkpt><trkpt lat="37.91333" lon="14.964815"><ele>1015.0</ele><time>2026-03-22T11:15:31.786Z</time></trkpt><trkpt lat="37.9134367" lon="14.9647633"><ele>1015.0</ele><time>2026-03-22T11:15:32.787Z</time></trkpt><trkpt lat="37.9135433" lon="14.964705"><ele>1015.0</ele><time>2026-03-22T11:15:33.787Z</time></trkpt><trkpt lat="37.9136517" lon="14.9646567"><ele>1015.0</ele><time>2026-03-22T11:15:34.787Z</time></trkpt><trkpt lat="37.913765" lon="14.9645967"><ele>1015.0</ele><time>2026-03-22T11:15:35.786Z</time></trkpt><trkpt lat="37.9138833" lon="14.9645267"><ele>1015.0</ele><time>2026-03-22T11:15:36.787Z</time></trkpt><trkpt lat="37.914005" lon="14.9644617"><ele>1015.0</ele><time>2026-03-22T11:15:37.786Z</time></trkpt><trkpt lat="37.914125" lon="14.9644"><ele>1015.0</ele><time>2026-03-22T11:15:38.787Z</time></trkpt><trkpt lat="37.914245" lon="14.9643467"><ele>1015.0</ele><time>2026-03-22T11:15:39.787Z</time></trkpt><trkpt lat="37.9143517" lon="14.9642817"><ele>1017.0</ele><time>2026-03-22T11:15:40.787Z</time></trkpt><trkpt lat="37.9144633" lon="14.964225"><ele>1019.0</ele><time>2026-03-22T11:15:41.787Z</time></trkpt><trkpt lat="37.914565" lon="14.9641367"><ele>1021.0</ele><time>2026-03-22T11:15:42.787Z</time></trkpt><trkpt lat="37.9146517" lon="14.964035"><ele>1023.0</ele><time>2026-03-22T11:15:43.786Z</time></trkpt><trkpt lat="37.9147433" lon="14.96392"><ele>1023.0</ele><time>2026-03-22T11:15:44.787Z</time></trkpt><trkpt lat="37.9148517" lon="14.96383"><ele>1023.0</ele><time>2026-03-22T11:15:45.787Z</time></trkpt><trkpt lat="37.9149583" lon="14.9637183"><ele>1023.0</ele><time>2026-03-22T11:15:46.786Z</time></trkpt><trkpt lat="37.9150533" lon="14.96359"><ele>1023.0</ele><time>2026-03-22T11:15:47.787Z</time></trkpt><trkpt lat="37.9151633" lon="14.9634867"><ele>1022.5</ele><time>2026-03-22T11:15:48.787Z</time></trkpt><trkpt lat="37.915285" lon="14.96341"><ele>1022.0</ele><time>2026-03-22T11:15:49.786Z</time></trkpt><trkpt lat="37.91541" lon="14.96335"><ele>1021.5</ele><time>2026-03-22T11:15:50.786Z</time></trkpt><trkpt lat="37.9155383" lon="14.9633067"><ele>1021.0</ele><time>2026-03-22T11:15:51.787Z</time></trkpt><trkpt lat="37.9156717" lon="14.9632733"><ele>1022.8</ele><time>2026-03-22T11:15:52.786Z</time></trkpt><trkpt lat="37.9157967" lon="14.963245"><ele>1024.6</ele><time>2026-03-22T11:15:53.786Z</time></trkpt><trkpt lat="37.9159083" lon="14.963215"><ele>1026.4</ele><time>2026-03-22T11:15:54.786Z</time></trkpt><trkpt lat="37.9160133" lon="14.9631817"><ele>1028.2</ele><time>2026-03-22T11:15:55.787Z</time></trkpt><trkpt lat="37.9161067" lon="14.9631533"><ele>1030.0</ele><time>2026-03-22T11:15:56.787Z</time></trkpt><trkpt lat="37.916195" lon="14.9631283"><ele>1030.0</ele><time>2026-03-22T11:15:57.786Z</time></trkpt><trkpt lat="37.91627" lon="14.9631017"><ele>1030.0</ele><time>2026-03-22T11:15:58.787Z</time></trkpt><trkpt lat="37.9163333" lon="14.9630767"><ele>1030.0</ele><time>2026-03-22T11:15:59.786Z</time></trkpt><trkpt lat="37.9164283" lon="14.963025"><ele>1030.0</ele><time>2026-03-22T11:16:01.787Z</time></trkpt><trkpt lat="37.91649" lon="14.9629917"><ele>1030.0</ele><time>2026-03-22T11:16:03.788Z</time></trkpt><trkpt lat="37.91659" lon="14.9629367"><ele>1030.0</ele><time>2026-03-22T11:16:05.788Z</time></trkpt><trkpt lat="37.91667" lon="14.96289"><ele>1027.8</ele><time>2026-03-22T11:16:06.788Z</time></trkpt><trkpt lat="37.916765" lon="14.9628417"><ele>1025.6</ele><time>2026-03-22T11:16:07.787Z</time></trkpt><trkpt lat="37.91687" lon="14.9627917"><ele>1023.4000000000001</ele><time>2026-03-22T11:16:08.788Z</time></trkpt><trkpt lat="37.9169667" lon="14.962735"><ele>1021.2</ele><time>2026-03-22T11:16:09.788Z</time></trkpt><trkpt lat="37.91706" lon="14.9626933"><ele>1019.0</ele><time>2026-03-22T11:16:10.788Z</time></trkpt><trkpt lat="37.917155" lon="14.96265"><ele>1019.0</ele><time>2026-03-22T11:16:11.788Z</time></trkpt><trkpt lat="37.9172533" lon="14.9626083"><ele>1019.0000000000001</ele><time>2026-03-22T11:16:12.787Z</time></trkpt><trkpt lat="37.9173533" lon="14.9625833"><ele>1019.0000000000001</ele><time>2026-03-22T11:16:13.787Z</time></trkpt><trkpt lat="37.9174483" lon="14.9625467"><ele>1019.0</ele><time>2026-03-22T11:16:14.787Z</time></trkpt><trkpt lat="37.9175483" lon="14.962515"><ele>1019.0</ele><time>2026-03-22T11:16:15.788Z</time></trkpt><trkpt lat="37.91764" lon="14.962475"><ele>1020.0</ele><time>2026-03-22T11:16:16.788Z</time></trkpt><trkpt lat="37.917745" lon="14.962445"><ele>1021.0000000000001</ele><time>2026-03-22T11:16:17.788Z</time></trkpt><trkpt lat="37.9178533" lon="14.9624217"><ele>1022.0000000000001</ele><time>2026-03-22T11:16:18.788Z</time></trkpt><trkpt lat="37.9179633" lon="14.9623883"><ele>1023.0</ele><time>2026-03-22T11:16:19.788Z</time></trkpt><trkpt lat="37.9180733" lon="14.96235"><ele>1024.0</ele><time>2026-03-22T11:16:20.787Z</time></trkpt><trkpt lat="37.918175" lon="14.9623217"><ele>1024.0</ele><time>2026-03-22T11:16:21.788Z</time></trkpt><trkpt lat="37.9182817" lon="14.9623033"><ele>1024.0</ele><time>2026-03-22T11:16:22.787Z</time></trkpt><trkpt lat="37.91839" lon="14.9622983"><ele>1024.0</ele><time>2026-03-22T11:16:23.788Z</time></trkpt><trkpt lat="37.918495" lon="14.9623183"><ele>1024.0</ele><time>2026-03-22T11:16:24.787Z</time></trkpt><trkpt lat="37.9185883" lon="14.9623367"><ele>1024.0</ele><time>2026-03-22T11:16:25.787Z</time></trkpt><trkpt lat="37.918675" lon="14.96237"><ele>1024.4</ele><time>2026-03-22T11:16:26.787Z</time></trkpt><trkpt lat="37.91877" lon="14.96238"><ele>1024.8000000000002</ele><time>2026-03-22T11:16:27.787Z</time></trkpt><trkpt lat="37.9188667" lon="14.9623883"><ele>1025.1999999999998</ele><time>2026-03-22T11:16:28.788Z</time></trkpt><trkpt lat="37.918975" lon="14.9623867"><ele>1025.6</ele><time>2026-03-22T11:16:29.788Z</time></trkpt><trkpt lat="37.9190717" lon="14.9623933"><ele>1026.0</ele><time>2026-03-22T11:16:30.787Z</time></trkpt><trkpt lat="37.9191617" lon="14.9624167"><ele>1026.2</ele><time>2026-03-22T11:16:31.788Z</time></trkpt><trkpt lat="37.9192517" lon="14.9624367"><ele>1026.3999999999999</ele><time>2026-03-22T11:16:32.787Z</time></trkpt><trkpt lat="37.9193567" lon="14.962435"><ele>1026.6</ele><time>2026-03-22T11:16:33.788Z</time></trkpt><trkpt lat="37.9194667" lon="14.962405"><ele>1026.8</ele><time>2026-03-22T11:16:34.787Z</time></trkpt><trkpt lat="37.9195683" lon="14.9623717"><ele>1027.0</ele><time>2026-03-22T11:16:35.787Z</time></trkpt><trkpt lat="37.9196667" lon="14.96234"><ele>1027.0</ele><time>2026-03-22T11:16:36.787Z</time></trkpt><trkpt lat="37.919775" lon="14.962295"><ele>1027.0</ele><time>2026-03-22T11:16:37.787Z</time></trkpt><trkpt lat="37.9198817" lon="14.9622467"><ele>1027.0</ele><time>2026-03-22T11:16:38.788Z</time></trkpt><trkpt lat="37.9199767" lon="14.9622067"><ele>1027.0</ele><time>2026-03-22T11:16:39.788Z</time></trkpt><trkpt lat="37.920065" lon="14.9621517"><ele>1027.0</ele><time>2026-03-22T11:16:40.788Z</time></trkpt><trkpt lat="37.9201467" lon="14.962095"><ele>1026.2</ele><time>2026-03-22T11:16:41.787Z</time></trkpt><trkpt lat="37.92021" lon="14.9620167"><ele>1025.4</ele><time>2026-03-22T11:16:42.787Z</time></trkpt><trkpt lat="37.9202767" lon="14.9619333"><ele>1024.6</ele><time>2026-03-22T11:16:43.787Z</time></trkpt><trkpt lat="37.9203217" lon="14.9618217"><ele>1023.8</ele><time>2026-03-22T11:16:44.788Z</time></trkpt><trkpt lat="37.9203683" lon="14.96169"><ele>1023.0</ele><time>2026-03-22T11:16:45.787Z</time></trkpt><trkpt lat="37.9204383" lon="14.9615783"><ele>1026.25</ele><time>2026-03-22T11:16:46.788Z</time></trkpt><trkpt lat="37.9205283" lon="14.9614883"><ele>1029.5</ele><time>2026-03-22T11:16:47.788Z</time></trkpt><trkpt lat="37.9206217" lon="14.9613883"><ele>1032.75</ele><time>2026-03-22T11:16:48.788Z</time></trkpt><trkpt lat="37.9207167" lon="14.9612983"><ele>1036.0</ele><time>2026-03-22T11:16:49.788Z</time></trkpt><trkpt lat="37.920825" lon="14.9612133"><ele>1036.0</ele><time>2026-03-22T11:16:50.788Z</time></trkpt><trkpt lat="37.9209383" lon="14.9611283"><ele>1036.0</ele><time>2026-03-22T11:16:51.788Z</time></trkpt><trkpt lat="37.921055" lon="14.9610417"><ele>1036.0</ele><time>2026-03-22T11:16:52.787Z</time></trkpt><trkpt lat="37.92117" lon="14.9609467"><ele>1036.0</ele><time>2026-03-22T11:16:53.787Z</time></trkpt><trkpt lat="37.9212883" lon="14.9608567"><ele>1037.25</ele><time>2026-03-22T11:16:54.787Z</time></trkpt><trkpt lat="37.92141" lon="14.9607633"><ele>1038.5</ele><time>2026-03-22T11:16:55.787Z</time></trkpt><trkpt lat="37.9215317" lon="14.960665"><ele>1039.75</ele><time>2026-03-22T11:16:56.787Z</time></trkpt><trkpt lat="37.92165" lon="14.9605717"><ele>1041.0</ele><time>2026-03-22T11:16:57.788Z</time></trkpt><trkpt lat="37.9217667" lon="14.9604833"><ele>1041.0</ele><time>2026-03-22T11:16:58.787Z</time></trkpt><trkpt lat="37.9218833" lon="14.960385"><ele>1041.0</ele><time>2026-03-22T11:16:59.788Z</time></trkpt><trkpt lat="37.921995" lon="14.9602717"><ele>1041.0</ele><time>2026-03-22T11:17:00.787Z</time></trkpt><trkpt lat="37.9221017" lon="14.9601433"><ele>1041.0</ele><time>2026-03-22T11:17:01.787Z</time></trkpt><trkpt lat="37.9221933" lon="14.96001"><ele>1042.3999999999999</ele><time>2026-03-22T11:17:02.788Z</time></trkpt><trkpt lat="37.9222767" lon="14.9598817"><ele>1043.8</ele><time>2026-03-22T11:17:03.787Z</time></trkpt><trkpt lat="37.9223417" lon="14.959765"><ele>1045.1999999999998</ele><time>2026-03-22T11:17:04.787Z</time></trkpt><trkpt lat="37.922385" lon="14.9596533"><ele>1046.6</ele><time>2026-03-22T11:17:05.788Z</time></trkpt><trkpt lat="37.9224017" lon="14.959545"><ele>1048.0</ele><time>2026-03-22T11:17:06.787Z</time></trkpt><trkpt lat="37.9223917" lon="14.959445"><ele>1048.0</ele><time>2026-03-22T11:17:07.788Z</time></trkpt><trkpt lat="37.9223567" lon="14.9593633"><ele>1048.0</ele><time>2026-03-22T11:17:08.787Z</time></trkpt><trkpt lat="37.9223067" lon="14.9592967"><ele>1048.0</ele><time>2026-03-22T11:17:09.788Z</time></trkpt><trkpt lat="37.9222417" lon="14.9592517"><ele>1048.0</ele><time>2026-03-22T11:17:10.787Z</time></trkpt><trkpt lat="37.9221667" lon="14.9592317"><ele>1048.0</ele><time>2026-03-22T11:17:11.788Z</time></trkpt><trkpt lat="37.9220933" lon="14.9592417"><ele>1048.0</ele><time>2026-03-22T11:17:12.788Z</time></trkpt><trkpt lat="37.9219883" lon="14.9592917"><ele>1048.0</ele><time>2026-03-22T11:17:14.787Z</time></trkpt><trkpt lat="37.92189" lon="14.9593867"><ele>1048.0</ele><time>2026-03-22T11:17:17.787Z</time></trkpt><trkpt lat="37.9218283" lon="14.959465"><ele>1048.0</ele><time>2026-03-22T11:17:20.787Z</time></trkpt><trkpt lat="37.92179" lon="14.95954"><ele>1048.0</ele><time>2026-03-22T11:19:08.788Z</time></trkpt><trkpt lat="37.9217183" lon="14.95963"><ele>1048.0</ele><time>2026-03-22T11:19:10.787Z</time></trkpt><trkpt lat="37.9216617" lon="14.9596867"><ele>1048.8</ele><time>2026-03-22T11:19:11.788Z</time></trkpt><trkpt lat="37.9215967" lon="14.959755"><ele>1049.6</ele><time>2026-03-22T11:19:12.788Z</time></trkpt><trkpt lat="37.9215267" lon="14.9598317"><ele>1050.4</ele><time>2026-03-22T11:19:13.788Z</time></trkpt><trkpt lat="37.9214583" lon="14.9599233"><ele>1051.2</ele><time>2026-03-22T11:19:14.788Z</time></trkpt><trkpt lat="37.9213933" lon="14.96001"><ele>1052.0</ele><time>2026-03-22T11:19:15.788Z</time></trkpt><trkpt lat="37.921325" lon="14.96009"><ele>1050.1666666666667</ele><time>2026-03-22T11:19:16.788Z</time></trkpt><trkpt lat="37.9212533" lon="14.96016"><ele>1048.3333333333335</ele><time>2026-03-22T11:19:17.788Z</time></trkpt><trkpt lat="37.9211867" lon="14.9602217"><ele>1046.5</ele><time>2026-03-22T11:19:18.788Z</time></trkpt><trkpt lat="37.921115" lon="14.96027"><ele>1044.6666666666667</ele><time>2026-03-22T11:19:19.787Z</time></trkpt><trkpt lat="37.9210417" lon="14.96028"><ele>1042.8333333333333</ele><time>2026-03-22T11:19:20.787Z</time></trkpt><trkpt lat="37.9209667" lon="14.9602533"><ele>1041.0</ele><time>2026-03-22T11:19:21.788Z</time></trkpt><trkpt lat="37.9209017" lon="14.9602017"><ele>1042.3333333333333</ele><time>2026-03-22T11:19:22.788Z</time></trkpt><trkpt lat="37.92085" lon="14.96013"><ele>1043.6666666666667</ele><time>2026-03-22T11:19:23.787Z</time></trkpt><trkpt lat="37.920805" lon="14.9600467"><ele>1045.0</ele><time>2026-03-22T11:19:24.787Z</time></trkpt><trkpt lat="37.9207917" lon="14.959945"><ele>1046.3333333333335</ele><time>2026-03-22T11:19:25.787Z</time></trkpt><trkpt lat="37.920805" lon="14.9598417"><ele>1047.6666666666667</ele><time>2026-03-22T11:19:26.788Z</time></trkpt><trkpt lat="37.9208383" lon="14.95974"><ele>1049.0</ele><time>2026-03-22T11:19:27.787Z</time></trkpt><trkpt lat="37.920885" lon="14.95965"><ele>1049.6000000000001</ele><time>2026-03-22T11:19:28.788Z</time></trkpt><trkpt lat="37.920945" lon="14.9595617"><ele>1050.2</ele><time>2026-03-22T11:19:29.788Z</time></trkpt><trkpt lat="37.92101" lon="14.9594667"><ele>1050.8000000000002</ele><time>2026-03-22T11:19:30.787Z</time></trkpt><trkpt lat="37.9210833" lon="14.9593833"><ele>1051.4</ele><time>2026-03-22T11:19:31.787Z</time></trkpt><trkpt lat="37.921165" lon="14.9592933"><ele>1052.0</ele><time>2026-03-22T11:19:32.788Z</time></trkpt><trkpt lat="37.92125" lon="14.9592033"><ele>1056.0</ele><time>2026-03-22T11:19:33.787Z</time></trkpt><trkpt lat="37.9213367" lon="14.9591067"><ele>1060.0</ele><time>2026-03-22T11:19:34.788Z</time></trkpt><trkpt lat="37.9214233" lon="14.9590017"><ele>1064.0</ele><time>2026-03-22T11:19:35.787Z</time></trkpt><trkpt lat="37.9215067" lon="14.9588933"><ele>1068.0</ele><time>2026-03-22T11:19:36.788Z</time></trkpt><trkpt lat="37.9215883" lon="14.9587783"><ele>1068.0</ele><time>2026-03-22T11:19:37.788Z</time></trkpt><trkpt lat="37.921675" lon="14.9586633"><ele>1068.0</ele><time>2026-03-22T11:19:38.787Z</time></trkpt><trkpt lat="37.9217633" lon="14.9585467"><ele>1068.0</ele><time>2026-03-22T11:19:39.788Z</time></trkpt><trkpt lat="37.9218483" lon="14.958435"><ele>1068.0</ele><time>2026-03-22T11:19:40.787Z</time></trkpt><trkpt lat="37.9219433" lon="14.95833"><ele>1068.5</ele><time>2026-03-22T11:19:41.788Z</time></trkpt><trkpt lat="37.9220383" lon="14.9582283"><ele>1069.0</ele><time>2026-03-22T11:19:42.787Z</time></trkpt><trkpt lat="37.9221317" lon="14.95813"><ele>1069.5</ele><time>2026-03-22T11:19:43.787Z</time></trkpt><trkpt lat="37.9222233" lon="14.958045"><ele>1070.0</ele><time>2026-03-22T11:19:44.787Z</time></trkpt><trkpt lat="37.9223167" lon="14.95797"><ele>1070.0</ele><time>2026-03-22T11:19:45.788Z</time></trkpt><trkpt lat="37.9224167" lon="14.9579033"><ele>1070.0</ele><time>2026-03-22T11:19:46.788Z</time></trkpt><trkpt lat="37.92253" lon="14.957865"><ele>1070.0</ele><time>2026-03-22T11:19:47.787Z</time></trkpt><trkpt lat="37.922645" lon="14.9578533"><ele>1070.0</ele><time>2026-03-22T11:19:48.787Z</time></trkpt><trkpt lat="37.9227683" lon="14.9578567"><ele>1070.75</ele><time>2026-03-22T11:19:49.788Z</time></trkpt><trkpt lat="37.9228917" lon="14.9578633"><ele>1071.5</ele><time>2026-03-22T11:19:50.787Z</time></trkpt><trkpt lat="37.9230183" lon="14.9578583"><ele>1072.25</ele><time>2026-03-22T11:19:51.788Z</time></trkpt><trkpt lat="37.9231467" lon="14.95785"><ele>1073.0</ele><time>2026-03-22T11:19:52.787Z</time></trkpt><trkpt lat="37.9232784" lon="14.9578415"><ele>1076.25</ele><time>2026-03-22T11:19:53.788Z</time></trkpt><trkpt lat="37.9234126" lon="14.9578331"><ele>1079.5</ele><time>2026-03-22T11:19:54.788Z</time></trkpt><trkpt lat="37.9235427" lon="14.9578307"><ele>1082.75</ele><time>2026-03-22T11:19:55.787Z</time></trkpt><trkpt lat="37.9236715" lon="14.9578485"><ele>1086.0</ele><time>2026-03-22T11:19:56.788Z</time></trkpt><trkpt lat="37.9237971" lon="14.9578806"><ele>1086.0</ele><time>2026-03-22T11:19:57.788Z</time></trkpt><trkpt lat="37.9239174" lon="14.9579338"><ele>1086.0</ele><time>2026-03-22T11:19:58.788Z</time></trkpt><trkpt lat="37.9240386" lon="14.9580028"><ele>1086.0</ele><time>2026-03-22T11:19:59.787Z</time></trkpt><trkpt lat="37.9241525" lon="14.9580958"><ele>1086.0</ele><time>2026-03-22T11:20:00.788Z</time></trkpt><trkpt lat="37.9242619" lon="14.9581985"><ele>1086.25</ele><time>2026-03-22T11:20:01.787Z</time></trkpt><trkpt lat="37.9243675" lon="14.9583104"><ele>1086.5</ele><time>2026-03-22T11:20:02.788Z</time></trkpt><trkpt lat="37.924474" lon="14.9584235"><ele>1086.75</ele><time>2026-03-22T11:20:03.787Z</time></trkpt><trkpt lat="37.9245866" lon="14.9585337"><ele>1087.0</ele><time>2026-03-22T11:20:04.788Z</time></trkpt><trkpt lat="37.9247093" lon="14.9586333"><ele>1087.0</ele><time>2026-03-22T11:20:05.788Z</time></trkpt><trkpt lat="37.9248351" lon="14.9587241"><ele>1087.0</ele><time>2026-03-22T11:20:06.788Z</time></trkpt><trkpt lat="37.9249677" lon="14.9588031"><ele>1087.0</ele><time>2026-03-22T11:20:07.787Z</time></trkpt><trkpt lat="37.9251002" lon="14.9588749"><ele>1087.0</ele><time>2026-03-22T11:20:08.787Z</time></trkpt><trkpt lat="37.9252347" lon="14.9589365"><ele>1090.25</ele><time>2026-03-22T11:20:09.787Z</time></trkpt><trkpt lat="37.9253644" lon="14.9589845"><ele>1093.5</ele><time>2026-03-22T11:20:10.787Z</time></trkpt><trkpt lat="37.9254924" lon="14.9590153"><ele>1096.75</ele><time>2026-03-22T11:20:11.787Z</time></trkpt><trkpt lat="37.9256169" lon="14.9590279"><ele>1100.0</ele><time>2026-03-22T11:20:12.788Z</time></trkpt><trkpt lat="37.9257361" lon="14.9590546"><ele>1100.0</ele><time>2026-03-22T11:20:13.787Z</time></trkpt><trkpt lat="37.9258452" lon="14.9591088"><ele>1100.0</ele><time>2026-03-22T11:20:14.788Z</time></trkpt><trkpt lat="37.9259324" lon="14.9591958"><ele>1100.0</ele><time>2026-03-22T11:20:15.787Z</time></trkpt><trkpt lat="37.9259965" lon="14.9592957"><ele>1100.0</ele><time>2026-03-22T11:20:16.787Z</time></trkpt><trkpt lat="37.9260454" lon="14.9593816"><ele>1100.0</ele><time>2026-03-22T11:20:17.787Z</time></trkpt><trkpt lat="37.9261036" lon="14.9594373"><ele>1101.6666666666667</ele><time>2026-03-22T11:20:18.787Z</time></trkpt><trkpt lat="37.9261754" lon="14.9594621"><ele>1103.3333333333335</ele><time>2026-03-22T11:20:19.787Z</time></trkpt><trkpt lat="37.9262537" lon="14.9594483"><ele>1105.0</ele><time>2026-03-22T11:20:20.787Z</time></trkpt><trkpt lat="37.9263318" lon="14.9593932"><ele>1106.6666666666667</ele><time>2026-03-22T11:20:21.788Z</time></trkpt><trkpt lat="37.9264049" lon="14.9593119"><ele>1108.3333333333333</ele><time>2026-03-22T11:20:22.787Z</time></trkpt><trkpt lat="37.9264768" lon="14.9592169"><ele>1110.0</ele><time>2026-03-22T11:20:23.788Z</time></trkpt><trkpt lat="37.9265555" lon="14.9591195"><ele>1110.0</ele><time>2026-03-22T11:20:24.788Z</time></trkpt><trkpt lat="37.9266406" lon="14.959022"><ele>1110.0</ele><time>2026-03-22T11:20:25.787Z</time></trkpt><trkpt lat="37.9267401" lon="14.9589311"><ele>1110.0</ele><time>2026-03-22T11:20:26.787Z</time></trkpt><trkpt lat="37.926846" lon="14.9588516"><ele>1110.0</ele><time>2026-03-22T11:20:27.787Z</time></trkpt><trkpt lat="37.9269538" lon="14.9587769"><ele>1107.5</ele><time>2026-03-22T11:20:28.787Z</time></trkpt><trkpt lat="37.9270587" lon="14.9587045"><ele>1105.0</ele><time>2026-03-22T11:20:29.788Z</time></trkpt><trkpt lat="37.927168" lon="14.9586439"><ele>1102.5</ele><time>2026-03-22T11:20:30.788Z</time></trkpt><trkpt lat="37.9272837" lon="14.958613"><ele>1100.0</ele><time>2026-03-22T11:20:31.788Z</time></trkpt><trkpt lat="37.927399" lon="14.9586218"><ele>1100.0</ele><time>2026-03-22T11:20:32.787Z</time></trkpt><trkpt lat="37.9275157" lon="14.9586586"><ele>1100.0</ele><time>2026-03-22T11:20:33.787Z</time></trkpt><trkpt lat="37.9276298" lon="14.9587128"><ele>1100.0</ele><time>2026-03-22T11:20:34.787Z</time></trkpt><trkpt lat="37.9277414" lon="14.9587712"><ele>1100.0</ele><time>2026-03-22T11:20:35.788Z</time></trkpt><trkpt lat="37.9278465" lon="14.9588135"><ele>1097.8</ele><time>2026-03-22T11:20:36.787Z</time></trkpt><trkpt lat="37.9279437" lon="14.958817"><ele>1095.6</ele><time>2026-03-22T11:20:37.787Z</time></trkpt><trkpt lat="37.9280341" lon="14.9587869"><ele>1093.4</ele><time>2026-03-22T11:20:38.788Z</time></trkpt><trkpt lat="37.928112" lon="14.9587185"><ele>1091.2</ele><time>2026-03-22T11:20:39.787Z</time></trkpt><trkpt lat="37.9281818" lon="14.9586207"><ele>1089.0</ele><time>2026-03-22T11:20:40.788Z</time></trkpt><trkpt lat="37.9282467" lon="14.9585033"><ele>1089.0</ele><time>2026-03-22T11:20:41.787Z</time></trkpt><trkpt lat="37.92832" lon="14.9583817"><ele>1089.0</ele><time>2026-03-22T11:20:42.788Z</time></trkpt><trkpt lat="37.9283967" lon="14.9582533"><ele>1089.0</ele><time>2026-03-22T11:20:43.787Z</time></trkpt><trkpt lat="37.92847" lon="14.9581283"><ele>1089.0</ele><time>2026-03-22T11:20:44.788Z</time></trkpt><trkpt lat="37.9285533" lon="14.958005"><ele>1091.25</ele><time>2026-03-22T11:20:45.788Z</time></trkpt><trkpt lat="37.928645" lon="14.957895"><ele>1093.5</ele><time>2026-03-22T11:20:46.787Z</time></trkpt><trkpt lat="37.9287467" lon="14.9577967"><ele>1095.75</ele><time>2026-03-22T11:20:47.787Z</time></trkpt><trkpt lat="37.928855" lon="14.9577017"><ele>1098.0</ele><time>2026-03-22T11:20:48.788Z</time></trkpt><trkpt lat="37.928965" lon="14.9575967"><ele>1097.5</ele><time>2026-03-22T11:20:49.788Z</time></trkpt><trkpt lat="37.9290733" lon="14.9574917"><ele>1097.0</ele><time>2026-03-22T11:20:50.788Z</time></trkpt><trkpt lat="37.9291767" lon="14.9573867"><ele>1096.5</ele><time>2026-03-22T11:20:51.787Z</time></trkpt><trkpt lat="37.9292733" lon="14.9572783"><ele>1096.0</ele><time>2026-03-22T11:20:52.788Z</time></trkpt><trkpt lat="37.92936" lon="14.9571667"><ele>1096.0</ele><time>2026-03-22T11:20:53.788Z</time></trkpt><trkpt lat="37.9294317" lon="14.9570333"><ele>1096.0</ele><time>2026-03-22T11:20:54.788Z</time></trkpt><trkpt lat="37.9294783" lon="14.9568883"><ele>1096.0</ele><time>2026-03-22T11:20:55.787Z</time></trkpt><trkpt lat="37.9294933" lon="14.9567383"><ele>1096.0</ele><time>2026-03-22T11:20:56.787Z</time></trkpt><trkpt lat="37.9295167" lon="14.9566033"><ele>1101.5</ele><time>2026-03-22T11:20:57.787Z</time></trkpt><trkpt lat="37.929565" lon="14.9564717"><ele>1107.0</ele><time>2026-03-22T11:20:58.787Z</time></trkpt><trkpt lat="37.9296367" lon="14.95635"><ele>1112.5</ele><time>2026-03-22T11:20:59.788Z</time></trkpt><trkpt lat="37.9297167" lon="14.9562367"><ele>1118.0</ele><time>2026-03-22T11:21:00.787Z</time></trkpt><trkpt lat="37.9297983" lon="14.9561183"><ele>1118.0</ele><time>2026-03-22T11:21:01.787Z</time></trkpt><trkpt lat="37.92988" lon="14.9559967"><ele>1118.0</ele><time>2026-03-22T11:21:02.787Z</time></trkpt><trkpt lat="37.9299683" lon="14.9558717"><ele>1118.0</ele><time>2026-03-22T11:21:03.787Z</time></trkpt><trkpt lat="37.9300767" lon="14.9557733"><ele>1118.0</ele><time>2026-03-22T11:21:04.788Z</time></trkpt><trkpt lat="37.9302017" lon="14.95569"><ele>1119.25</ele><time>2026-03-22T11:21:05.787Z</time></trkpt><trkpt lat="37.9303317" lon="14.95561"><ele>1120.5</ele><time>2026-03-22T11:21:06.787Z</time></trkpt><trkpt lat="37.9304633" lon="14.9555333"><ele>1121.75</ele><time>2026-03-22T11:21:07.788Z</time></trkpt><trkpt lat="37.93059" lon="14.9554367"><ele>1123.0</ele><time>2026-03-22T11:21:08.788Z</time></trkpt><trkpt lat="37.9307067" lon="14.95534"><ele>1123.0</ele><time>2026-03-22T11:21:09.788Z</time></trkpt><trkpt lat="37.9308133" lon="14.955245"><ele>1123.0</ele><time>2026-03-22T11:21:10.787Z</time></trkpt><trkpt lat="37.93092" lon="14.9551633"><ele>1123.0</ele><time>2026-03-22T11:21:11.787Z</time></trkpt><trkpt lat="37.9310217" lon="14.95509"><ele>1123.0</ele><time>2026-03-22T11:21:12.787Z</time></trkpt><trkpt lat="37.9311283" lon="14.9550333"><ele>1121.75</ele><time>2026-03-22T11:21:13.788Z</time></trkpt><trkpt lat="37.9312383" lon="14.9550133"><ele>1120.5</ele><time>2026-03-22T11:21:14.787Z</time></trkpt><trkpt lat="37.931355" lon="14.9550067"><ele>1119.25</ele><time>2026-03-22T11:21:15.788Z</time></trkpt><trkpt lat="37.93147" lon="14.95503"><ele>1118.0</ele><time>2026-03-22T11:21:16.787Z</time></trkpt><trkpt lat="37.931585" lon="14.9550417"><ele>1120.5</ele><time>2026-03-22T11:21:17.787Z</time></trkpt><trkpt lat="37.931705" lon="14.955035"><ele>1123.0</ele><time>2026-03-22T11:21:18.787Z</time></trkpt><trkpt lat="37.9318283" lon="14.9549983"><ele>1125.5</ele><time>2026-03-22T11:21:19.787Z</time></trkpt><trkpt lat="37.9319533" lon="14.9549417"><ele>1128.0</ele><time>2026-03-22T11:21:20.787Z</time></trkpt><trkpt lat="37.932075" lon="14.9548733"><ele>1128.0</ele><time>2026-03-22T11:21:21.788Z</time></trkpt><trkpt lat="37.9321917" lon="14.95481"><ele>1128.0</ele><time>2026-03-22T11:21:22.787Z</time></trkpt><trkpt lat="37.9323033" lon="14.9547533"><ele>1128.0</ele><time>2026-03-22T11:21:23.787Z</time></trkpt><trkpt lat="37.932395" lon="14.954695"><ele>1128.0</ele><time>2026-03-22T11:21:24.788Z</time></trkpt><trkpt lat="37.932475" lon="14.95463"><ele>1128.0</ele><time>2026-03-22T11:21:25.788Z</time></trkpt><trkpt lat="37.932545" lon="14.954535"><ele>1128.8</ele><time>2026-03-22T11:21:26.787Z</time></trkpt><trkpt lat="37.9326017" lon="14.95442"><ele>1129.6</ele><time>2026-03-22T11:21:27.788Z</time></trkpt><trkpt lat="37.9326533" lon="14.9542983"><ele>1130.4</ele><time>2026-03-22T11:21:28.788Z</time></trkpt><trkpt lat="37.932705" lon="14.95418"><ele>1131.2</ele><time>2026-03-22T11:21:29.787Z</time></trkpt><trkpt lat="37.9327583" lon="14.9540617"><ele>1132.0</ele><time>2026-03-22T11:21:30.787Z</time></trkpt><trkpt lat="37.9328183" lon="14.9539417"><ele>1132.0</ele><time>2026-03-22T11:21:31.787Z</time></trkpt><trkpt lat="37.9328833" lon="14.9538383"><ele>1132.0</ele><time>2026-03-22T11:21:32.787Z</time></trkpt><trkpt lat="37.9329483" lon="14.9537383"><ele>1132.0</ele><time>2026-03-22T11:21:33.787Z</time></trkpt><trkpt lat="37.9330117" lon="14.95365"><ele>1132.0</ele><time>2026-03-22T11:21:34.787Z</time></trkpt><trkpt lat="37.9330733" lon="14.95357"><ele>1132.0</ele><time>2026-03-22T11:21:35.787Z</time></trkpt><trkpt lat="37.9331417" lon="14.953505"><ele>1132.0</ele><time>2026-03-22T11:21:36.788Z</time></trkpt><trkpt lat="37.93322" lon="14.9534683"><ele>1132.0</ele><time>2026-03-22T11:21:37.787Z</time></trkpt><trkpt lat="37.9333" lon="14.95347"><ele>1132.0</ele><time>2026-03-22T11:21:38.788Z</time></trkpt><trkpt lat="37.933385" lon="14.9535083"><ele>1132.0</ele><time>2026-03-22T11:21:39.788Z</time></trkpt><trkpt lat="37.9334533" lon="14.953575"><ele>1132.0</ele><time>2026-03-22T11:21:40.788Z</time></trkpt><trkpt lat="37.9334983" lon="14.95366"><ele>1132.0</ele><time>2026-03-22T11:21:41.787Z</time></trkpt><trkpt lat="37.933505" lon="14.9537683"><ele>1135.5</ele><time>2026-03-22T11:21:42.787Z</time></trkpt><trkpt lat="37.9334867" lon="14.9538917"><ele>1139.0</ele><time>2026-03-22T11:21:43.788Z</time></trkpt><trkpt lat="37.9334683" lon="14.9540317"><ele>1142.5</ele><time>2026-03-22T11:21:44.788Z</time></trkpt><trkpt lat="37.9334817" lon="14.9541817"><ele>1146.0</ele><time>2026-03-22T11:21:45.787Z</time></trkpt><trkpt lat="37.9335217" lon="14.9543283"><ele>1146.0</ele><time>2026-03-22T11:21:46.787Z</time></trkpt><trkpt lat="37.9335783" lon="14.9544783"><ele>1146.0</ele><time>2026-03-22T11:21:47.788Z</time></trkpt><trkpt lat="37.9336433" lon="14.9546283"><ele>1146.0</ele><time>2026-03-22T11:21:48.788Z</time></trkpt><trkpt lat="37.9337133" lon="14.954785"><ele>1146.0</ele><time>2026-03-22T11:21:49.788Z</time></trkpt><trkpt lat="37.9337867" lon="14.9549417"><ele>1143.25</ele><time>2026-03-22T11:21:50.787Z</time></trkpt><trkpt lat="37.9338583" lon="14.9550967"><ele>1140.5</ele><time>2026-03-22T11:21:51.788Z</time></trkpt><trkpt lat="37.9339167" lon="14.9552483"><ele>1137.75</ele><time>2026-03-22T11:21:52.788Z</time></trkpt><trkpt lat="37.933965" lon="14.95541"><ele>1135.0</ele><time>2026-03-22T11:21:53.788Z</time></trkpt><trkpt lat="37.9339883" lon="14.9555617"><ele>1135.0</ele><time>2026-03-22T11:21:54.788Z</time></trkpt><trkpt lat="37.9339917" lon="14.9557217"><ele>1135.0</ele><time>2026-03-22T11:21:55.788Z</time></trkpt><trkpt lat="37.9340083" lon="14.955885"><ele>1135.0</ele><time>2026-03-22T11:21:56.788Z</time></trkpt><trkpt lat="37.934045" lon="14.9560533"><ele>1135.0</ele><time>2026-03-22T11:21:57.787Z</time></trkpt><trkpt lat="37.9340767" lon="14.956225"><ele>1135.25</ele><time>2026-03-22T11:21:58.787Z</time></trkpt><trkpt lat="37.934105" lon="14.9564083"><ele>1135.5</ele><time>2026-03-22T11:21:59.788Z</time></trkpt><trkpt lat="37.934115" lon="14.9565967"><ele>1135.75</ele><time>2026-03-22T11:22:00.787Z</time></trkpt><trkpt lat="37.9341067" lon="14.9567767"><ele>1136.0</ele><time>2026-03-22T11:22:01.788Z</time></trkpt><trkpt lat="37.934105" lon="14.9569433"><ele>1134.0</ele><time>2026-03-22T11:22:02.787Z</time></trkpt><trkpt lat="37.9341183" lon="14.9571017"><ele>1132.0</ele><time>2026-03-22T11:22:03.788Z</time></trkpt><trkpt lat="37.9341533" lon="14.95725"><ele>1130.0</ele><time>2026-03-22T11:22:04.788Z</time></trkpt><trkpt lat="37.9342117" lon="14.95738"><ele>1128.0</ele><time>2026-03-22T11:22:05.788Z</time></trkpt><trkpt lat="37.9343017" lon="14.9574767"><ele>1126.0</ele><time>2026-03-22T11:22:06.788Z</time></trkpt><trkpt lat="37.934405" lon="14.957565"><ele>1124.0</ele><time>2026-03-22T11:22:07.788Z</time></trkpt><trkpt lat="37.9345233" lon="14.95764"><ele>1122.0</ele><time>2026-03-22T11:22:08.788Z</time></trkpt><trkpt lat="37.9346467" lon="14.9577117"><ele>1120.0</ele><time>2026-03-22T11:22:09.788Z</time></trkpt><trkpt lat="37.93477" lon="14.9577917"><ele>1120.0</ele><time>2026-03-22T11:22:10.788Z</time></trkpt><trkpt lat="37.9348867" lon="14.9578717"><ele>1120.0</ele><time>2026-03-22T11:22:11.787Z</time></trkpt><trkpt lat="37.9349983" lon="14.9579533"><ele>1120.0</ele><time>2026-03-22T11:22:12.788Z</time></trkpt><trkpt lat="37.93511" lon="14.9580317"><ele>1120.0</ele><time>2026-03-22T11:22:13.788Z</time></trkpt><trkpt lat="37.935225" lon="14.9580983"><ele>1124.75</ele><time>2026-03-22T11:22:14.788Z</time></trkpt><trkpt lat="37.9353483" lon="14.9581367"><ele>1129.5</ele><time>2026-03-22T11:22:15.787Z</time></trkpt><trkpt lat="37.9354633" lon="14.9581383"><ele>1134.25</ele><time>2026-03-22T11:22:16.787Z</time></trkpt><trkpt lat="37.9355717" lon="14.9581233"><ele>1139.0</ele><time>2026-03-22T11:22:17.787Z</time></trkpt><trkpt lat="37.9356833" lon="14.9581183"><ele>1139.0</ele><time>2026-03-22T11:22:18.787Z</time></trkpt><trkpt lat="37.9357883" lon="14.9581433"><ele>1139.0</ele><time>2026-03-22T11:22:19.788Z</time></trkpt><trkpt lat="37.935885" lon="14.9582"><ele>1139.0</ele><time>2026-03-22T11:22:20.787Z</time></trkpt><trkpt lat="37.9359733" lon="14.958285"><ele>1139.0</ele><time>2026-03-22T11:22:21.787Z</time></trkpt><trkpt lat="37.93606" lon="14.958385"><ele>1139.0</ele><time>2026-03-22T11:22:22.788Z</time></trkpt><trkpt lat="37.936145" lon="14.9584933"><ele>1138.25</ele><time>2026-03-22T11:22:23.787Z</time></trkpt><trkpt lat="37.9362417" lon="14.9586033"><ele>1137.5</ele><time>2026-03-22T11:22:24.788Z</time></trkpt><trkpt lat="37.93634" lon="14.9587167"><ele>1136.75</ele><time>2026-03-22T11:22:25.788Z</time></trkpt><trkpt lat="37.9364433" lon="14.9588267"><ele>1136.0</ele><time>2026-03-22T11:22:26.787Z</time></trkpt><trkpt lat="37.9365533" lon="14.9589283"><ele>1136.0</ele><time>2026-03-22T11:22:27.787Z</time></trkpt><trkpt lat="37.9366783" lon="14.9590083"><ele>1136.0</ele><time>2026-03-22T11:22:28.787Z</time></trkpt><trkpt lat="37.9368083" lon="14.9590767"><ele>1136.0</ele><time>2026-03-22T11:22:29.788Z</time></trkpt><trkpt lat="37.9369383" lon="14.959135"><ele>1136.0</ele><time>2026-03-22T11:22:30.787Z</time></trkpt><trkpt lat="37.9370733" lon="14.959165"><ele>1138.0</ele><time>2026-03-22T11:22:31.787Z</time></trkpt><trkpt lat="37.937215" lon="14.959175"><ele>1140.0</ele><time>2026-03-22T11:22:32.787Z</time></trkpt><trkpt lat="37.9373617" lon="14.9591633"><ele>1142.0</ele><time>2026-03-22T11:22:33.789Z</time></trkpt><trkpt lat="37.9375167" lon="14.9591433"><ele>1144.0</ele><time>2026-03-22T11:22:34.788Z</time></trkpt><trkpt lat="37.9376783" lon="14.9591067"><ele>1144.0</ele><time>2026-03-22T11:22:35.788Z</time></trkpt><trkpt lat="37.9378367" lon="14.95907"><ele>1144.0</ele><time>2026-03-22T11:22:36.788Z</time></trkpt><trkpt lat="37.93798" lon="14.95903"><ele>1144.0</ele><time>2026-03-22T11:22:37.788Z</time></trkpt><trkpt lat="37.9381167" lon="14.9589883"><ele>1144.0</ele><time>2026-03-22T11:22:38.789Z</time></trkpt><trkpt lat="37.9382383" lon="14.9589567"><ele>1144.0</ele><time>2026-03-22T11:22:39.789Z</time></trkpt><trkpt lat="37.93836" lon="14.9589217"><ele>1144.0</ele><time>2026-03-22T11:22:40.788Z</time></trkpt><trkpt lat="37.9384767" lon="14.958905"><ele>1144.0</ele><time>2026-03-22T11:22:41.789Z</time></trkpt><trkpt lat="37.9385933" lon="14.95892"><ele>1144.0</ele><time>2026-03-22T11:22:42.788Z</time></trkpt><trkpt lat="37.9387083" lon="14.958965"><ele>1141.25</ele><time>2026-03-22T11:22:43.788Z</time></trkpt><trkpt lat="37.93882" lon="14.9590417"><ele>1138.5</ele><time>2026-03-22T11:22:44.789Z</time></trkpt><trkpt lat="37.9389267" lon="14.9591367"><ele>1135.75</ele><time>2026-03-22T11:22:45.789Z</time></trkpt><trkpt lat="37.93904" lon="14.9592417"><ele>1133.0</ele><time>2026-03-22T11:22:46.788Z</time></trkpt><trkpt lat="37.9391517" lon="14.9593517"><ele>1140.6666666666667</ele><time>2026-03-22T11:22:47.788Z</time></trkpt><trkpt lat="37.939275" lon="14.959455"><ele>1148.3333333333333</ele><time>2026-03-22T11:22:48.789Z</time></trkpt><trkpt lat="37.939405" lon="14.9595667"><ele>1156.0</ele><time>2026-03-22T11:22:49.788Z</time></trkpt><trkpt lat="37.93953" lon="14.9596733"><ele>1156.0</ele><time>2026-03-22T11:22:50.789Z</time></trkpt><trkpt lat="37.9396517" lon="14.9597767"><ele>1156.0</ele><time>2026-03-22T11:22:51.788Z</time></trkpt><trkpt lat="37.9397733" lon="14.9598817"><ele>1156.0</ele><time>2026-03-22T11:22:52.789Z</time></trkpt><trkpt lat="37.9398717" lon="14.9600017"><ele>1156.0</ele><time>2026-03-22T11:22:53.788Z</time></trkpt><trkpt lat="37.93996" lon="14.9601117"><ele>1152.3999999999999</ele><time>2026-03-22T11:22:54.788Z</time></trkpt><trkpt lat="37.9400483" lon="14.96021"><ele>1148.8</ele><time>2026-03-22T11:22:55.789Z</time></trkpt><trkpt lat="37.940125" lon="14.9602883"><ele>1145.1999999999998</ele><time>2026-03-22T11:22:56.789Z</time></trkpt><trkpt lat="37.9401917" lon="14.9603483"><ele>1141.6</ele><time>2026-03-22T11:22:57.788Z</time></trkpt><trkpt lat="37.9402717" lon="14.9603717"><ele>1138.0</ele><time>2026-03-22T11:22:58.789Z</time></trkpt><trkpt lat="37.9403467" lon="14.9603567"><ele>1138.0</ele><time>2026-03-22T11:22:59.788Z</time></trkpt><trkpt lat="37.9404133" lon="14.9603"><ele>1138.0</ele><time>2026-03-22T11:23:00.789Z</time></trkpt><trkpt lat="37.94048" lon="14.9602083"><ele>1138.0</ele><time>2026-03-22T11:23:01.788Z</time></trkpt><trkpt lat="37.9405467" lon="14.9600917"><ele>1138.0</ele><time>2026-03-22T11:23:02.789Z</time></trkpt><trkpt lat="37.9406117" lon="14.959975"><ele>1138.0</ele><time>2026-03-22T11:23:03.788Z</time></trkpt><trkpt lat="37.9406717" lon="14.9598767"><ele>1143.2</ele><time>2026-03-22T11:23:04.789Z</time></trkpt><trkpt lat="37.9407383" lon="14.9598"><ele>1148.4</ele><time>2026-03-22T11:23:05.788Z</time></trkpt><trkpt lat="37.9408167" lon="14.959755"><ele>1153.6000000000001</ele><time>2026-03-22T11:23:06.788Z</time></trkpt><trkpt lat="37.940905" lon="14.9597433"><ele>1158.8</ele><time>2026-03-22T11:23:07.788Z</time></trkpt><trkpt lat="37.9410033" lon="14.959765"><ele>1164.0</ele><time>2026-03-22T11:23:08.788Z</time></trkpt><trkpt lat="37.941115" lon="14.959805"><ele>1164.75</ele><time>2026-03-22T11:23:09.789Z</time></trkpt><trkpt lat="37.9412317" lon="14.9598483"><ele>1165.5</ele><time>2026-03-22T11:23:10.789Z</time></trkpt><trkpt lat="37.9413583" lon="14.9598983"><ele>1166.25</ele><time>2026-03-22T11:23:11.788Z</time></trkpt><trkpt lat="37.9414717" lon="14.9599583"><ele>1167.0</ele><time>2026-03-22T11:23:12.789Z</time></trkpt><trkpt lat="37.941575" lon="14.96003"><ele>1162.0</ele><time>2026-03-22T11:23:13.789Z</time></trkpt><trkpt lat="37.9416733" lon="14.9601067"><ele>1157.0</ele><time>2026-03-22T11:23:14.789Z</time></trkpt><trkpt lat="37.9417733" lon="14.9601867"><ele>1152.0</ele><time>2026-03-22T11:23:15.789Z</time></trkpt><trkpt lat="37.941875" lon="14.9602417"><ele>1147.0</ele><time>2026-03-22T11:23:16.788Z</time></trkpt><trkpt lat="37.9419683" lon="14.9602817"><ele>1142.0</ele><time>2026-03-22T11:23:17.788Z</time></trkpt><trkpt lat="37.942045" lon="14.9603017"><ele>1141.0</ele><time>2026-03-22T11:23:18.788Z</time></trkpt><trkpt lat="37.9421317" lon="14.9602683"><ele>1140.0</ele><time>2026-03-22T11:23:19.789Z</time></trkpt><trkpt lat="37.9422233" lon="14.9601767"><ele>1139.0</ele><time>2026-03-22T11:23:20.789Z</time></trkpt><trkpt lat="37.9422883" lon="14.9600717"><ele>1138.0</ele><time>2026-03-22T11:23:21.788Z</time></trkpt><trkpt lat="37.94232" lon="14.9599433"><ele>1137.0</ele><time>2026-03-22T11:23:22.789Z</time></trkpt><trkpt lat="37.9423233" lon="14.9597967"><ele>1138.2</ele><time>2026-03-22T11:23:23.789Z</time></trkpt><trkpt lat="37.9423383" lon="14.9596633"><ele>1139.4</ele><time>2026-03-22T11:23:24.788Z</time></trkpt><trkpt lat="37.9423717" lon="14.95954"><ele>1140.6</ele><time>2026-03-22T11:23:25.788Z</time></trkpt><trkpt lat="37.9424267" lon="14.9594417"><ele>1141.8</ele><time>2026-03-22T11:23:26.788Z</time></trkpt><trkpt lat="37.942515" lon="14.959385"><ele>1143.0</ele><time>2026-03-22T11:23:27.788Z</time></trkpt><trkpt lat="37.9426183" lon="14.959355"><ele>1143.0</ele><time>2026-03-22T11:23:28.789Z</time></trkpt><trkpt lat="37.9427267" lon="14.9593383"><ele>1143.0</ele><time>2026-03-22T11:23:29.789Z</time></trkpt><trkpt lat="37.9428433" lon="14.9593017"><ele>1143.0</ele><time>2026-03-22T11:23:30.788Z</time></trkpt><trkpt lat="37.9429617" lon="14.959245"><ele>1143.0</ele><time>2026-03-22T11:23:31.789Z</time></trkpt><trkpt lat="37.9430883" lon="14.95916"><ele>1147.5</ele><time>2026-03-22T11:23:32.788Z</time></trkpt><trkpt lat="37.9432183" lon="14.9590783"><ele>1152.0</ele><time>2026-03-22T11:23:33.788Z</time></trkpt><trkpt lat="37.94335" lon="14.9589867"><ele>1156.5</ele><time>2026-03-22T11:23:34.789Z</time></trkpt><trkpt lat="37.943485" lon="14.958905"><ele>1161.0</ele><time>2026-03-22T11:23:35.789Z</time></trkpt><trkpt lat="37.9436033" lon="14.958825"><ele>1161.3999999999999</ele><time>2026-03-22T11:23:36.788Z</time></trkpt><trkpt lat="37.94371" lon="14.9587617"><ele>1161.8</ele><time>2026-03-22T11:23:37.788Z</time></trkpt><trkpt lat="37.9437983" lon="14.9587067"><ele>1162.1999999999998</ele><time>2026-03-22T11:23:38.789Z</time></trkpt><trkpt lat="37.94389" lon="14.9586567"><ele>1162.6</ele><time>2026-03-22T11:23:39.788Z</time></trkpt><trkpt lat="37.9439817" lon="14.9586367"><ele>1163.0</ele><time>2026-03-22T11:23:40.789Z</time></trkpt><trkpt lat="37.9440633" lon="14.95865"><ele>1163.0</ele><time>2026-03-22T11:23:41.788Z</time></trkpt><trkpt lat="37.9441317" lon="14.958695"><ele>1163.0</ele><time>2026-03-22T11:23:42.789Z</time></trkpt><trkpt lat="37.9441917" lon="14.958765"><ele>1163.0</ele><time>2026-03-22T11:23:43.788Z</time></trkpt><trkpt lat="37.9442433" lon="14.9588583"><ele>1163.0</ele><time>2026-03-22T11:23:44.789Z</time></trkpt><trkpt lat="37.944285" lon="14.958995"><ele>1163.0</ele><time>2026-03-22T11:23:45.788Z</time></trkpt><trkpt lat="37.94433" lon="14.9591317"><ele>1162.5</ele><time>2026-03-22T11:23:46.788Z</time></trkpt><trkpt lat="37.94438" lon="14.95928"><ele>1162.0</ele><time>2026-03-22T11:23:47.788Z</time></trkpt><trkpt lat="37.9444217" lon="14.95942"><ele>1161.5</ele><time>2026-03-22T11:23:48.788Z</time></trkpt><trkpt lat="37.9444733" lon="14.95955"><ele>1161.0</ele><time>2026-03-22T11:23:49.788Z</time></trkpt><trkpt lat="37.9445367" lon="14.9596533"><ele>1161.0</ele><time>2026-03-22T11:23:50.788Z</time></trkpt><trkpt lat="37.94462" lon="14.9597133"><ele>1161.0</ele><time>2026-03-22T11:23:51.788Z</time></trkpt><trkpt lat="37.944715" lon="14.9597467"><ele>1161.0</ele><time>2026-03-22T11:23:52.788Z</time></trkpt><trkpt lat="37.9448217" lon="14.9597517"><ele>1161.0</ele><time>2026-03-22T11:23:53.788Z</time></trkpt><trkpt lat="37.9449383" lon="14.9597483"><ele>1161.0</ele><time>2026-03-22T11:23:54.788Z</time></trkpt><trkpt lat="37.9450433" lon="14.95976"><ele>1160.8</ele><time>2026-03-22T11:23:55.789Z</time></trkpt><trkpt lat="37.9451417" lon="14.9597983"><ele>1160.6</ele><time>2026-03-22T11:23:56.788Z</time></trkpt><trkpt lat="37.9452367" lon="14.9598633"><ele>1160.4</ele><time>2026-03-22T11:23:57.789Z</time></trkpt><trkpt lat="37.9453133" lon="14.9599583"><ele>1160.2</ele><time>2026-03-22T11:23:58.789Z</time></trkpt><trkpt lat="37.945375" lon="14.9600817"><ele>1160.0</ele><time>2026-03-22T11:23:59.788Z</time></trkpt><trkpt lat="37.9454267" lon="14.9602133"><ele>1160.0</ele><time>2026-03-22T11:24:00.788Z</time></trkpt><trkpt lat="37.945495" lon="14.96034"><ele>1160.0</ele><time>2026-03-22T11:24:01.789Z</time></trkpt><trkpt lat="37.9455817" lon="14.9604517"><ele>1160.0</ele><time>2026-03-22T11:24:02.789Z</time></trkpt><trkpt lat="37.9456833" lon="14.960555"><ele>1160.0</ele><time>2026-03-22T11:24:03.789Z</time></trkpt><trkpt lat="37.945795" lon="14.960655"><ele>1157.75</ele><time>2026-03-22T11:24:04.788Z</time></trkpt><trkpt lat="37.9459017" lon="14.960765"><ele>1155.5</ele><time>2026-03-22T11:24:05.789Z</time></trkpt><trkpt lat="37.946005" lon="14.9608633"><ele>1153.25</ele><time>2026-03-22T11:24:06.789Z</time></trkpt><trkpt lat="37.9461" lon="14.960935"><ele>1151.0</ele><time>2026-03-22T11:24:07.789Z</time></trkpt><trkpt lat="37.9462033" lon="14.96099"><ele>1151.0</ele><time>2026-03-22T11:24:08.788Z</time></trkpt><trkpt lat="37.94632" lon="14.9610083"><ele>1151.0</ele><time>2026-03-22T11:24:09.789Z</time></trkpt><trkpt lat="37.946445" lon="14.9609967"><ele>1151.0</ele><time>2026-03-22T11:24:10.789Z</time></trkpt><trkpt lat="37.94657" lon="14.9609633"><ele>1151.0</ele><time>2026-03-22T11:24:11.789Z</time></trkpt><trkpt lat="37.9467017" lon="14.9609217"><ele>1151.75</ele><time>2026-03-22T11:24:12.789Z</time></trkpt><trkpt lat="37.946835" lon="14.9608733"><ele>1152.5</ele><time>2026-03-22T11:24:13.789Z</time></trkpt><trkpt lat="37.9469767" lon="14.9608317"><ele>1153.25</ele><time>2026-03-22T11:24:14.788Z</time></trkpt><trkpt lat="37.94712" lon="14.9607917"><ele>1154.0</ele><time>2026-03-22T11:24:15.788Z</time></trkpt><trkpt lat="37.94727" lon="14.9607633"><ele>1156.25</ele><time>2026-03-22T11:24:16.789Z</time></trkpt><trkpt lat="37.9474217" lon="14.9607533"><ele>1158.5</ele><time>2026-03-22T11:24:17.788Z</time></trkpt><trkpt lat="37.9475717" lon="14.960755"><ele>1160.75</ele><time>2026-03-22T11:24:18.789Z</time></trkpt><trkpt lat="37.9477117" lon="14.96076"><ele>1163.0</ele><time>2026-03-22T11:24:19.789Z</time></trkpt><trkpt lat="37.9478467" lon="14.9607783"><ele>1163.0</ele><time>2026-03-22T11:24:20.789Z</time></trkpt><trkpt lat="37.9479717" lon="14.9607783"><ele>1163.0</ele><time>2026-03-22T11:24:21.789Z</time></trkpt><trkpt lat="37.94809" lon="14.9607517"><ele>1163.0</ele><time>2026-03-22T11:24:22.788Z</time></trkpt><trkpt lat="37.9481983" lon="14.960695"><ele>1163.0</ele><time>2026-03-22T11:24:23.788Z</time></trkpt><trkpt lat="37.9482933" lon="14.9606167"><ele>1162.75</ele><time>2026-03-22T11:24:24.788Z</time></trkpt><trkpt lat="37.9483767" lon="14.960505"><ele>1162.5</ele><time>2026-03-22T11:24:25.789Z</time></trkpt><trkpt lat="37.9484483" lon="14.9603717"><ele>1162.25</ele><time>2026-03-22T11:24:26.788Z</time></trkpt><trkpt lat="37.9485267" lon="14.9602283"><ele>1162.0</ele><time>2026-03-22T11:24:27.788Z</time></trkpt><trkpt lat="37.948605" lon="14.9600817"><ele>1162.75</ele><time>2026-03-22T11:24:28.788Z</time></trkpt><trkpt lat="37.9486783" lon="14.9599333"><ele>1163.5</ele><time>2026-03-22T11:24:29.789Z</time></trkpt><trkpt lat="37.9487533" lon="14.9597933"><ele>1164.25</ele><time>2026-03-22T11:24:30.788Z</time></trkpt><trkpt lat="37.9488217" lon="14.9596617"><ele>1165.0</ele><time>2026-03-22T11:24:31.789Z</time></trkpt><trkpt lat="37.9488983" lon="14.959535"><ele>1165.0</ele><time>2026-03-22T11:24:32.789Z</time></trkpt><trkpt lat="37.9489883" lon="14.95942"><ele>1165.0</ele><time>2026-03-22T11:24:33.789Z</time></trkpt><trkpt lat="37.9490967" lon="14.959315"><ele>1165.0</ele><time>2026-03-22T11:24:34.788Z</time></trkpt><trkpt lat="37.9492167" lon="14.9592183"><ele>1165.0</ele><time>2026-03-22T11:24:35.789Z</time></trkpt><trkpt lat="37.9493483" lon="14.959125"><ele>1166.3333333333333</ele><time>2026-03-22T11:24:36.789Z</time></trkpt><trkpt lat="37.94948" lon="14.9590267"><ele>1167.6666666666667</ele><time>2026-03-22T11:24:37.788Z</time></trkpt><trkpt lat="37.9496183" lon="14.95893"><ele>1169.0</ele><time>2026-03-22T11:24:38.788Z</time></trkpt><trkpt lat="37.9497483" lon="14.9588367"><ele>1169.0</ele><time>2026-03-22T11:24:39.789Z</time></trkpt><trkpt lat="37.9498667" lon="14.95874"><ele>1169.0</ele><time>2026-03-22T11:24:40.789Z</time></trkpt><trkpt lat="37.9499733" lon="14.9586333"><ele>1169.0</ele><time>2026-03-22T11:24:41.789Z</time></trkpt><trkpt lat="37.9500833" lon="14.9585233"><ele>1169.0</ele><time>2026-03-22T11:24:42.789Z</time></trkpt><trkpt lat="37.950195" lon="14.95841"><ele>1171.0</ele><time>2026-03-22T11:24:43.789Z</time></trkpt><trkpt lat="37.9503217" lon="14.9583067"><ele>1173.0</ele><time>2026-03-22T11:24:44.788Z</time></trkpt><trkpt lat="37.95046" lon="14.9582067"><ele>1175.0</ele><time>2026-03-22T11:24:45.788Z</time></trkpt><trkpt lat="37.9505967" lon="14.9581017"><ele>1175.0</ele><time>2026-03-22T11:24:46.788Z</time></trkpt><trkpt lat="37.950735" lon="14.9579983"><ele>1175.0</ele><time>2026-03-22T11:24:47.789Z</time></trkpt><trkpt lat="37.9508733" lon="14.957905"><ele>1175.0</ele><time>2026-03-22T11:24:48.788Z</time></trkpt><trkpt lat="37.9510033" lon="14.9578183"><ele>1182.5</ele><time>2026-03-22T11:24:49.788Z</time></trkpt><trkpt lat="37.9511383" lon="14.9577367"><ele>1190.0</ele><time>2026-03-22T11:24:50.788Z</time></trkpt><trkpt lat="37.9512767" lon="14.9576733"><ele>1197.5</ele><time>2026-03-22T11:24:51.789Z</time></trkpt><trkpt lat="37.9514167" lon="14.9576217"><ele>1205.0</ele><time>2026-03-22T11:24:52.788Z</time></trkpt><trkpt lat="37.951555" lon="14.9575883"><ele>1205.0</ele><time>2026-03-22T11:24:53.788Z</time></trkpt><trkpt lat="37.9516933" lon="14.9575633"><ele>1205.0</ele><time>2026-03-22T11:24:54.789Z</time></trkpt><trkpt lat="37.9518417" lon="14.9575717"><ele>1205.0</ele><time>2026-03-22T11:24:55.788Z</time></trkpt><trkpt lat="37.951995" lon="14.9575983"><ele>1205.0</ele><time>2026-03-22T11:24:56.789Z</time></trkpt><trkpt lat="37.95215" lon="14.95762"><ele>1212.3333333333335</ele><time>2026-03-22T11:24:57.788Z</time></trkpt><trkpt lat="37.9523133" lon="14.9576167"><ele>1219.6666666666667</ele><time>2026-03-22T11:24:58.788Z</time></trkpt><trkpt lat="37.9524783" lon="14.9576083"><ele>1227.0</ele><time>2026-03-22T11:24:59.788Z</time></trkpt><trkpt lat="37.9526433" lon="14.9575867"><ele>1231.0</ele><time>2026-03-22T11:25:00.789Z</time></trkpt><trkpt lat="37.952805" lon="14.95756"><ele>1235.0</ele><time>2026-03-22T11:25:01.789Z</time></trkpt><trkpt lat="37.9529483" lon="14.957535"><ele>1239.0</ele><time>2026-03-22T11:25:02.789Z</time></trkpt><trkpt lat="37.95309" lon="14.9575067"><ele>1236.0</ele><time>2026-03-22T11:25:03.788Z</time></trkpt><trkpt lat="37.9532367" lon="14.957475"><ele>1233.0</ele><time>2026-03-22T11:25:04.788Z</time></trkpt><trkpt lat="37.9533833" lon="14.9574183"><ele>1230.0</ele><time>2026-03-22T11:25:05.788Z</time></trkpt><trkpt lat="37.95351" lon="14.9573467"><ele>1227.0</ele><time>2026-03-22T11:25:06.789Z</time></trkpt><trkpt lat="37.9536017" lon="14.9572417"><ele>1227.0</ele><time>2026-03-22T11:25:07.789Z</time></trkpt><trkpt lat="37.9536733" lon="14.9570967"><ele>1227.0</ele><time>2026-03-22T11:25:08.788Z</time></trkpt><trkpt lat="37.9537267" lon="14.95695"><ele>1227.0</ele><time>2026-03-22T11:25:09.789Z</time></trkpt><trkpt lat="37.9537683" lon="14.956795"><ele>1227.0</ele><time>2026-03-22T11:25:10.788Z</time></trkpt><trkpt lat="37.953825" lon="14.9566467"><ele>1228.5</ele><time>2026-03-22T11:25:11.789Z</time></trkpt><trkpt lat="37.9538983" lon="14.9565117"><ele>1230.0</ele><time>2026-03-22T11:25:12.789Z</time></trkpt><trkpt lat="37.9539917" lon="14.9563967"><ele>1231.5</ele><time>2026-03-22T11:25:13.789Z</time></trkpt><trkpt lat="37.9541033" lon="14.9563033"><ele>1233.0</ele><time>2026-03-22T11:25:14.789Z</time></trkpt><trkpt lat="37.9542183" lon="14.9562017"><ele>1233.0</ele><time>2026-03-22T11:25:15.788Z</time></trkpt><trkpt lat="37.95434" lon="14.9560967"><ele>1233.0</ele><time>2026-03-22T11:25:16.789Z</time></trkpt><trkpt lat="37.954465" lon="14.95599"><ele>1233.0</ele><time>2026-03-22T11:25:17.789Z</time></trkpt><trkpt lat="37.9545867" lon="14.9558783"><ele>1233.0</ele><time>2026-03-22T11:25:18.788Z</time></trkpt><trkpt lat="37.9547167" lon="14.9557817"><ele>1230.6666666666667</ele><time>2026-03-22T11:25:19.789Z</time></trkpt><trkpt lat="37.9548517" lon="14.9557083"><ele>1228.3333333333335</ele><time>2026-03-22T11:25:20.788Z</time></trkpt><trkpt lat="37.9549983" lon="14.9556483"><ele>1226.0</ele><time>2026-03-22T11:25:21.789Z</time></trkpt><trkpt lat="37.95515" lon="14.955595"><ele>1226.0</ele><time>2026-03-22T11:25:22.788Z</time></trkpt><trkpt lat="37.9552933" lon="14.9555483"><ele>1226.0</ele><time>2026-03-22T11:25:23.788Z</time></trkpt><trkpt lat="37.9554333" lon="14.9554967"><ele>1226.0</ele><time>2026-03-22T11:25:24.789Z</time></trkpt><trkpt lat="37.955565" lon="14.95544"><ele>1226.0</ele><time>2026-03-22T11:25:25.789Z</time></trkpt><trkpt lat="37.9556917" lon="14.95538"><ele>1226.0</ele><time>2026-03-22T11:25:26.788Z</time></trkpt><trkpt lat="37.9558067" lon="14.9552867"><ele>1226.0</ele><time>2026-03-22T11:25:27.788Z</time></trkpt><trkpt lat="37.9559183" lon="14.95518"><ele>1226.0</ele><time>2026-03-22T11:25:28.789Z</time></trkpt><trkpt lat="37.9560267" lon="14.955055"><ele>1226.0</ele><time>2026-03-22T11:25:29.789Z</time></trkpt><trkpt lat="37.9561517" lon="14.95497"><ele>1225.0</ele><time>2026-03-22T11:25:30.788Z</time></trkpt><trkpt lat="37.956295" lon="14.9549117"><ele>1224.0</ele><time>2026-03-22T11:25:31.788Z</time></trkpt><trkpt lat="37.9564283" lon="14.9548333"><ele>1223.0</ele><time>2026-03-22T11:25:32.789Z</time></trkpt><trkpt lat="37.95654" lon="14.954735"><ele>1222.0</ele><time>2026-03-22T11:25:33.788Z</time></trkpt><trkpt lat="37.95663" lon="14.95463"><ele>1224.5</ele><time>2026-03-22T11:25:34.789Z</time></trkpt><trkpt lat="37.9567133" lon="14.9545117"><ele>1227.0</ele><time>2026-03-22T11:25:35.788Z</time></trkpt><trkpt lat="37.9568117" lon="14.9544317"><ele>1229.5</ele><time>2026-03-22T11:25:36.788Z</time></trkpt><trkpt lat="37.9569233" lon="14.9543817"><ele>1232.0</ele><time>2026-03-22T11:25:37.788Z</time></trkpt><trkpt lat="37.957045" lon="14.9543533"><ele>1232.0</ele><time>2026-03-22T11:25:38.788Z</time></trkpt><trkpt lat="37.957185" lon="14.9543383"><ele>1232.0</ele><time>2026-03-22T11:25:39.788Z</time></trkpt><trkpt lat="37.9573283" lon="14.9543333"><ele>1232.0</ele><time>2026-03-22T11:25:40.789Z</time></trkpt><trkpt lat="37.95748" lon="14.9543267"><ele>1232.0</ele><time>2026-03-22T11:25:41.789Z</time></trkpt><trkpt lat="37.9576383" lon="14.9543267"><ele>1231.6666666666667</ele><time>2026-03-22T11:25:42.789Z</time></trkpt><trkpt lat="37.9577967" lon="14.954325"><ele>1231.3333333333333</ele><time>2026-03-22T11:25:43.789Z</time></trkpt><trkpt lat="37.95795" lon="14.9543117"><ele>1231.0</ele><time>2026-03-22T11:25:44.789Z</time></trkpt><trkpt lat="37.9581033" lon="14.95428"><ele>1231.0</ele><time>2026-03-22T11:25:45.788Z</time></trkpt><trkpt lat="37.9582583" lon="14.95426"><ele>1231.0</ele><time>2026-03-22T11:25:46.788Z</time></trkpt><trkpt lat="37.9584167" lon="14.9542483"><ele>1231.0</ele><time>2026-03-22T11:25:47.788Z</time></trkpt><trkpt lat="37.958575" lon="14.9542417"><ele>1229.3333333333333</ele><time>2026-03-22T11:25:48.789Z</time></trkpt><trkpt lat="37.9587383" lon="14.95424"><ele>1227.6666666666667</ele><time>2026-03-22T11:25:49.789Z</time></trkpt><trkpt lat="37.9589067" lon="14.9542533"><ele>1226.0</ele><time>2026-03-22T11:25:50.788Z</time></trkpt><trkpt lat="37.9590717" lon="14.9542633"><ele>1221.0</ele><time>2026-03-22T11:25:51.789Z</time></trkpt><trkpt lat="37.9592383" lon="14.9542733"><ele>1216.0</ele><time>2026-03-22T11:25:52.789Z</time></trkpt><trkpt lat="37.9594033" lon="14.9542817"><ele>1211.0</ele><time>2026-03-22T11:25:53.788Z</time></trkpt><trkpt lat="37.9595717" lon="14.9542883"><ele>1211.0</ele><time>2026-03-22T11:25:54.789Z</time></trkpt><trkpt lat="37.9597483" lon="14.9542883"><ele>1211.0</ele><time>2026-03-22T11:25:55.789Z</time></trkpt><trkpt lat="37.9599183" lon="14.9542983"><ele>1211.0</ele><time>2026-03-22T11:25:56.789Z</time></trkpt><trkpt lat="37.9600933" lon="14.9543383"><ele>1213.3333333333335</ele><time>2026-03-22T11:25:57.788Z</time></trkpt><trkpt lat="37.9602667" lon="14.9543967"><ele>1215.6666666666667</ele><time>2026-03-22T11:25:58.789Z</time></trkpt><trkpt lat="37.960445" lon="14.9544517"><ele>1218.0</ele><time>2026-03-22T11:25:59.788Z</time></trkpt><trkpt lat="37.960625" lon="14.9545067"><ele>1218.0</ele><time>2026-03-22T11:26:00.789Z</time></trkpt><trkpt lat="37.9608083" lon="14.95456"><ele>1218.0</ele><time>2026-03-22T11:26:01.788Z</time></trkpt><trkpt lat="37.960985" lon="14.95461"><ele>1218.0</ele><time>2026-03-22T11:26:02.788Z</time></trkpt><trkpt lat="37.9611583" lon="14.9546617"><ele>1219.6666666666667</ele><time>2026-03-22T11:26:03.788Z</time></trkpt><trkpt lat="37.9613167" lon="14.9547167"><ele>1221.3333333333335</ele><time>2026-03-22T11:26:04.788Z</time></trkpt><trkpt lat="37.9614717" lon="14.9547783"><ele>1223.0</ele><time>2026-03-22T11:26:05.788Z</time></trkpt><trkpt lat="37.9616167" lon="14.95484"><ele>1224.0</ele><time>2026-03-22T11:26:06.789Z</time></trkpt><trkpt lat="37.96176" lon="14.9549183"><ele>1225.0</ele><time>2026-03-22T11:26:07.788Z</time></trkpt><trkpt lat="37.9619033" lon="14.9550133"><ele>1226.0</ele><time>2026-03-22T11:26:08.788Z</time></trkpt><trkpt lat="37.9620533" lon="14.955135"><ele>1226.0</ele><time>2026-03-22T11:26:09.789Z</time></trkpt><trkpt lat="37.9621833" lon="14.9552667"><ele>1226.0</ele><time>2026-03-22T11:26:10.788Z</time></trkpt><trkpt lat="37.9623083" lon="14.9553967"><ele>1226.0</ele><time>2026-03-22T11:26:11.788Z</time></trkpt><trkpt lat="37.962425" lon="14.9555167"><ele>1225.75</ele><time>2026-03-22T11:26:12.789Z</time></trkpt><trkpt lat="37.9625433" lon="14.955625"><ele>1225.5</ele><time>2026-03-22T11:26:13.789Z</time></trkpt><trkpt lat="37.96266" lon="14.9557367"><ele>1225.25</ele><time>2026-03-22T11:26:14.788Z</time></trkpt><trkpt lat="37.962785" lon="14.955835"><ele>1225.0</ele><time>2026-03-22T11:26:15.788Z</time></trkpt><trkpt lat="37.9629233" lon="14.9559083"><ele>1224.25</ele><time>2026-03-22T11:26:16.788Z</time></trkpt><trkpt lat="37.963075" lon="14.95595"><ele>1223.5</ele><time>2026-03-22T11:26:17.789Z</time></trkpt><trkpt lat="37.9632133" lon="14.95597"><ele>1222.75</ele><time>2026-03-22T11:26:18.789Z</time></trkpt><trkpt lat="37.9633567" lon="14.9559733"><ele>1222.0</ele><time>2026-03-22T11:26:19.789Z</time></trkpt><trkpt lat="37.96351" lon="14.955965"><ele>1222.0</ele><time>2026-03-22T11:26:20.788Z</time></trkpt><trkpt lat="37.963665" lon="14.9559533"><ele>1222.0</ele><time>2026-03-22T11:26:21.788Z</time></trkpt><trkpt lat="37.96382" lon="14.9559333"><ele>1222.0</ele><time>2026-03-22T11:26:22.788Z</time></trkpt><trkpt lat="37.963975" lon="14.955905"><ele>1224.0</ele><time>2026-03-22T11:26:23.789Z</time></trkpt><trkpt lat="37.964135" lon="14.9558583"><ele>1226.0</ele><time>2026-03-22T11:26:24.788Z</time></trkpt><trkpt lat="37.9642933" lon="14.95582"><ele>1228.0</ele><time>2026-03-22T11:26:25.788Z</time></trkpt><trkpt lat="37.9644483" lon="14.9557717"><ele>1229.3333333333333</ele><time>2026-03-22T11:26:26.789Z</time></trkpt><trkpt lat="37.9646033" lon="14.9557233"><ele>1230.6666666666667</ele><time>2026-03-22T11:26:27.789Z</time></trkpt><trkpt lat="37.9647517" lon="14.9556917"><ele>1232.0</ele><time>2026-03-22T11:26:28.788Z</time></trkpt><trkpt lat="37.9649017" lon="14.9556667"><ele>1232.0</ele><time>2026-03-22T11:26:29.788Z</time></trkpt><trkpt lat="37.9650567" lon="14.95563"><ele>1232.0</ele><time>2026-03-22T11:26:30.788Z</time></trkpt><trkpt lat="37.9652117" lon="14.9555783"><ele>1232.0</ele><time>2026-03-22T11:26:31.788Z</time></trkpt><trkpt lat="37.9653583" lon="14.955515"><ele>1232.0</ele><time>2026-03-22T11:26:32.789Z</time></trkpt><trkpt lat="37.965505" lon="14.9554383"><ele>1232.0</ele><time>2026-03-22T11:26:33.789Z</time></trkpt><trkpt lat="37.96565" lon="14.9553517"><ele>1232.0</ele><time>2026-03-22T11:26:34.789Z</time></trkpt><trkpt lat="37.9657933" lon="14.9552567"><ele>1237.3333333333335</ele><time>2026-03-22T11:26:35.789Z</time></trkpt><trkpt lat="37.9659383" lon="14.955175"><ele>1242.6666666666667</ele><time>2026-03-22T11:26:36.788Z</time></trkpt><trkpt lat="37.96608" lon="14.9550833"><ele>1248.0</ele><time>2026-03-22T11:26:37.788Z</time></trkpt><trkpt lat="37.9662083" lon="14.9549883"><ele>1248.25</ele><time>2026-03-22T11:26:38.789Z</time></trkpt><trkpt lat="37.966335" lon="14.954885"><ele>1248.5</ele><time>2026-03-22T11:26:39.789Z</time></trkpt><trkpt lat="37.9664567" lon="14.95479"><ele>1248.75</ele><time>2026-03-22T11:26:40.788Z</time></trkpt><trkpt lat="37.966575" lon="14.9546933"><ele>1249.0</ele><time>2026-03-22T11:26:41.788Z</time></trkpt><trkpt lat="37.9667067" lon="14.9546233"><ele>1252.25</ele><time>2026-03-22T11:26:42.789Z</time></trkpt><trkpt lat="37.9668433" lon="14.9545917"><ele>1255.5</ele><time>2026-03-22T11:26:43.789Z</time></trkpt><trkpt lat="37.9669733" lon="14.9546067"><ele>1258.75</ele><time>2026-03-22T11:26:44.789Z</time></trkpt><trkpt lat="37.96711" lon="14.9546317"><ele>1262.0</ele><time>2026-03-22T11:26:45.788Z</time></trkpt><trkpt lat="37.9672583" lon="14.95465"><ele>1262.0</ele><time>2026-03-22T11:26:46.789Z</time></trkpt><trkpt lat="37.9674117" lon="14.95466"><ele>1262.0</ele><time>2026-03-22T11:26:47.788Z</time></trkpt><trkpt lat="37.9675567" lon="14.9546633"><ele>1262.0</ele><time>2026-03-22T11:26:48.789Z</time></trkpt><trkpt lat="37.9677083" lon="14.954655"><ele>1264.6666666666667</ele><time>2026-03-22T11:26:49.789Z</time></trkpt><trkpt lat="37.9678617" lon="14.9546433"><ele>1267.3333333333333</ele><time>2026-03-22T11:26:50.788Z</time></trkpt><trkpt lat="37.9680233" lon="14.9546267"><ele>1270.0</ele><time>2026-03-22T11:26:51.789Z</time></trkpt><trkpt lat="37.9681867" lon="14.9546133"><ele>1270.0</ele><time>2026-03-22T11:26:52.789Z</time></trkpt><trkpt lat="37.96835" lon="14.9545983"><ele>1270.0</ele><time>2026-03-22T11:26:53.788Z</time></trkpt><trkpt lat="37.9685133" lon="14.9545817"><ele>1270.0</ele><time>2026-03-22T11:26:54.788Z</time></trkpt><trkpt lat="37.9686733" lon="14.9545717"><ele>1271.0</ele><time>2026-03-22T11:26:55.788Z</time></trkpt><trkpt lat="37.96884" lon="14.9545533"><ele>1272.0</ele><time>2026-03-22T11:26:56.788Z</time></trkpt><trkpt lat="37.9690033" lon="14.954545"><ele>1273.0</ele><time>2026-03-22T11:26:57.789Z</time></trkpt><trkpt lat="37.9691683" lon="14.9545417"><ele>1273.3333333333333</ele><time>2026-03-22T11:26:58.788Z</time></trkpt><trkpt lat="37.96933" lon="14.9545367"><ele>1273.6666666666667</ele><time>2026-03-22T11:26:59.788Z</time></trkpt><trkpt lat="37.9694933" lon="14.9545283"><ele>1274.0</ele><time>2026-03-22T11:27:00.788Z</time></trkpt><trkpt lat="37.9696483" lon="14.954525"><ele>1274.0</ele><time>2026-03-22T11:27:01.788Z</time></trkpt><trkpt lat="37.9697967" lon="14.9545117"><ele>1274.0</ele><time>2026-03-22T11:27:02.789Z</time></trkpt><trkpt lat="37.9699333" lon="14.954495"><ele>1274.0</ele><time>2026-03-22T11:27:03.789Z</time></trkpt><trkpt lat="37.9700733" lon="14.9544533"><ele>1274.0</ele><time>2026-03-22T11:27:04.788Z</time></trkpt><trkpt lat="37.9702067" lon="14.9543817"><ele>1274.0</ele><time>2026-03-22T11:27:05.789Z</time></trkpt><trkpt lat="37.9703317" lon="14.9542883"><ele>1274.0</ele><time>2026-03-22T11:27:06.788Z</time></trkpt><trkpt lat="37.970455" lon="14.9541767"><ele>1274.0</ele><time>2026-03-22T11:27:07.788Z</time></trkpt><trkpt lat="37.9705733" lon="14.9540817"><ele>1274.0</ele><time>2026-03-22T11:27:08.789Z</time></trkpt><trkpt lat="37.9706917" lon="14.953995"><ele>1272.25</ele><time>2026-03-22T11:27:09.789Z</time></trkpt><trkpt lat="37.9708117" lon="14.9539133"><ele>1270.5</ele><time>2026-03-22T11:27:10.788Z</time></trkpt><trkpt lat="37.9709383" lon="14.953845"><ele>1268.75</ele><time>2026-03-22T11:27:11.789Z</time></trkpt><trkpt lat="37.9710733" lon="14.95381"><ele>1267.0</ele><time>2026-03-22T11:27:12.788Z</time></trkpt><trkpt lat="37.971215" lon="14.9537917"><ele>1265.3333333333333</ele><time>2026-03-22T11:27:13.788Z</time></trkpt><trkpt lat="37.9713633" lon="14.9537833"><ele>1263.6666666666667</ele><time>2026-03-22T11:27:14.788Z</time></trkpt><trkpt lat="37.97151" lon="14.95378"><ele>1262.0</ele><time>2026-03-22T11:27:15.789Z</time></trkpt><trkpt lat="37.971665" lon="14.9537767"><ele>1258.0</ele><time>2026-03-22T11:27:16.788Z</time></trkpt><trkpt lat="37.97182" lon="14.9537733"><ele>1254.0</ele><time>2026-03-22T11:27:17.789Z</time></trkpt><trkpt lat="37.97198" lon="14.95376"><ele>1250.0</ele><time>2026-03-22T11:27:18.788Z</time></trkpt><trkpt lat="37.9721367" lon="14.953755"><ele>1250.0</ele><time>2026-03-22T11:27:19.789Z</time></trkpt><trkpt lat="37.9722967" lon="14.953755"><ele>1250.0</ele><time>2026-03-22T11:27:20.789Z</time></trkpt><trkpt lat="37.9724533" lon="14.95376"><ele>1250.0</ele><time>2026-03-22T11:27:21.789Z</time></trkpt><trkpt lat="37.9726083" lon="14.9537533"><ele>1250.6666666666667</ele><time>2026-03-22T11:27:22.789Z</time></trkpt><trkpt lat="37.97276" lon="14.9537317"><ele>1251.3333333333333</ele><time>2026-03-22T11:27:23.788Z</time></trkpt><trkpt lat="37.9729183" lon="14.9536967"><ele>1252.0</ele><time>2026-03-22T11:27:24.788Z</time></trkpt><trkpt lat="37.9730683" lon="14.9536433"><ele>1252.0</ele><time>2026-03-22T11:27:25.789Z</time></trkpt><trkpt lat="37.97321" lon="14.9535767"><ele>1252.0</ele><time>2026-03-22T11:27:26.789Z</time></trkpt><trkpt lat="37.9733433" lon="14.95351"><ele>1252.0</ele><time>2026-03-22T11:27:27.788Z</time></trkpt><trkpt lat="37.9734683" lon="14.9534383"><ele>1252.0</ele><time>2026-03-22T11:27:28.788Z</time></trkpt><trkpt lat="37.9735817" lon="14.9533767"><ele>1254.0</ele><time>2026-03-22T11:27:29.789Z</time></trkpt><trkpt lat="37.97369" lon="14.9533217"><ele>1256.0</ele><time>2026-03-22T11:27:30.789Z</time></trkpt><trkpt lat="37.9738" lon="14.95328"><ele>1258.0</ele><time>2026-03-22T11:27:31.789Z</time></trkpt><trkpt lat="37.9739" lon="14.9532483"><ele>1260.0</ele><time>2026-03-22T11:27:32.788Z</time></trkpt><trkpt lat="37.9739967" lon="14.95323"><ele>1262.0</ele><time>2026-03-22T11:27:33.789Z</time></trkpt><trkpt lat="37.9740717" lon="14.953225"><ele>1262.0</ele><time>2026-03-22T11:27:34.789Z</time></trkpt><trkpt lat="37.97416" lon="14.9532183"><ele>1262.0</ele><time>2026-03-22T11:27:36.788Z</time></trkpt><trkpt lat="37.9742267" lon="14.9532367"><ele>1262.0</ele><time>2026-03-22T11:27:38.789Z</time></trkpt><trkpt lat="37.9742833" lon="14.9533017"><ele>1262.0</ele><time>2026-03-22T11:27:41.788Z</time></trkpt><trkpt lat="37.9743567" lon="14.9533533"><ele>1262.0</ele><time>2026-03-22T11:27:44.788Z</time></trkpt><trkpt lat="37.974435" lon="14.953365"><ele>1262.0</ele><time>2026-03-22T11:27:47.789Z</time></trkpt><trkpt lat="37.9745117" lon="14.9533517"><ele>1261.0</ele><time>2026-03-22T11:27:51.788Z</time></trkpt><trkpt lat="37.9745833" lon="14.95332"><ele>1260.0</ele><time>2026-03-22T11:30:42.79Z</time></trkpt><trkpt lat="37.974635" lon="14.95327"><ele>1259.0</ele><time>2026-03-22T11:30:47.79Z</time></trkpt><trkpt lat="37.97462" lon="14.9531533"><ele>1258.0</ele><time>2026-03-22T11:32:44.79Z</time></trkpt><trkpt lat="37.97456" lon="14.953065"><ele>1257.0</ele><time>2026-03-22T11:32:48.79Z</time></trkpt><trkpt lat="37.9744967" lon="14.9530683"><ele>1256.0</ele><time>2026-03-22T11:32:49.789Z</time></trkpt><trkpt lat="37.974415" lon="14.953095"><ele>1256.0</ele><time>2026-03-22T11:32:50.789Z</time></trkpt><trkpt lat="37.9743317" lon="14.9531267"><ele>1256.0</ele><time>2026-03-22T11:32:51.789Z</time></trkpt><trkpt lat="37.9742583" lon="14.9531533"><ele>1256.0</ele><time>2026-03-22T11:32:52.79Z</time></trkpt><trkpt lat="37.9741833" lon="14.9531783"><ele>1256.0</ele><time>2026-03-22T11:32:53.79Z</time></trkpt><trkpt lat="37.9741183" lon="14.9531917"><ele>1256.0</ele><time>2026-03-22T11:32:54.79Z</time></trkpt><trkpt lat="37.974045" lon="14.9532017"><ele>1256.0</ele><time>2026-03-22T11:32:55.789Z</time></trkpt><trkpt lat="37.973965" lon="14.95322"><ele>1257.0</ele><time>2026-03-22T11:32:56.789Z</time></trkpt><trkpt lat="37.9738833" lon="14.953245"><ele>1258.0</ele><time>2026-03-22T11:32:57.789Z</time></trkpt><trkpt lat="37.9738017" lon="14.95327"><ele>1259.0</ele><time>2026-03-22T11:32:58.789Z</time></trkpt><trkpt lat="37.97372" lon="14.9532933"><ele>1260.0</ele><time>2026-03-22T11:32:59.789Z</time></trkpt><trkpt lat="37.97363" lon="14.9533317"><ele>1261.0</ele><time>2026-03-22T11:33:00.79Z</time></trkpt><trkpt lat="37.9735383" lon="14.953375"><ele>1262.0</ele><time>2026-03-22T11:33:01.79Z</time></trkpt><trkpt lat="37.9734467" lon="14.9534233"><ele>1259.5</ele><time>2026-03-22T11:33:02.789Z</time></trkpt><trkpt lat="37.97335" lon="14.9534733"><ele>1257.0</ele><time>2026-03-22T11:33:03.789Z</time></trkpt><trkpt lat="37.9732483" lon="14.9535267"><ele>1254.5</ele><time>2026-03-22T11:33:04.79Z</time></trkpt><trkpt lat="37.9731383" lon="14.9535817"><ele>1252.0</ele><time>2026-03-22T11:33:05.79Z</time></trkpt><trkpt lat="37.9730267" lon="14.9536267"><ele>1252.0</ele><time>2026-03-22T11:33:06.79Z</time></trkpt><trkpt lat="37.9729117" lon="14.9536617"><ele>1252.0</ele><time>2026-03-22T11:33:07.789Z</time></trkpt><trkpt lat="37.97279" lon="14.9536917"><ele>1252.0</ele><time>2026-03-22T11:33:08.789Z</time></trkpt><trkpt lat="37.972665" lon="14.953705"><ele>1252.0</ele><time>2026-03-22T11:33:09.789Z</time></trkpt><trkpt lat="37.97254" lon="14.9537117"><ele>1251.5</ele><time>2026-03-22T11:33:10.79Z</time></trkpt><trkpt lat="37.9724217" lon="14.9537133"><ele>1251.0</ele><time>2026-03-22T11:33:11.79Z</time></trkpt><trkpt lat="37.972305" lon="14.9537167"><ele>1250.5</ele><time>2026-03-22T11:33:12.79Z</time></trkpt><trkpt lat="37.9721867" lon="14.9537233"><ele>1250.0</ele><time>2026-03-22T11:33:13.789Z</time></trkpt><trkpt lat="37.97207" lon="14.95373"><ele>1250.0</ele><time>2026-03-22T11:33:14.79Z</time></trkpt><trkpt lat="37.971955" lon="14.9537333"><ele>1250.0</ele><time>2026-03-22T11:33:15.789Z</time></trkpt><trkpt lat="37.971845" lon="14.9537367"><ele>1250.0</ele><time>2026-03-22T11:33:16.789Z</time></trkpt><trkpt lat="37.9717383" lon="14.9537433"><ele>1250.0</ele><time>2026-03-22T11:33:17.79Z</time></trkpt><trkpt lat="37.9716367" lon="14.9537467"><ele>1250.0</ele><time>2026-03-22T11:33:18.79Z</time></trkpt><trkpt lat="37.971535" lon="14.9537483"><ele>1253.0</ele><time>2026-03-22T11:33:19.789Z</time></trkpt><trkpt lat="37.971425" lon="14.95375"><ele>1256.0</ele><time>2026-03-22T11:33:20.79Z</time></trkpt><trkpt lat="37.971315" lon="14.9537567"><ele>1259.0</ele><time>2026-03-22T11:33:21.789Z</time></trkpt><trkpt lat="37.9711983" lon="14.9537667"><ele>1262.0</ele><time>2026-03-22T11:33:22.789Z</time></trkpt><trkpt lat="37.9710783" lon="14.9537833"><ele>1262.0</ele><time>2026-03-22T11:33:23.789Z</time></trkpt><trkpt lat="37.9709533" lon="14.9538167"><ele>1262.0</ele><time>2026-03-22T11:33:24.789Z</time></trkpt><trkpt lat="37.9708267" lon="14.9538717"><ele>1262.0</ele><time>2026-03-22T11:33:25.79Z</time></trkpt><trkpt lat="37.970705" lon="14.9539433"><ele>1262.0</ele><time>2026-03-22T11:33:26.789Z</time></trkpt><trkpt lat="37.970585" lon="14.9540283"><ele>1263.25</ele><time>2026-03-22T11:33:27.789Z</time></trkpt><trkpt lat="37.9704683" lon="14.9541183"><ele>1264.5</ele><time>2026-03-22T11:33:28.789Z</time></trkpt><trkpt lat="37.97036" lon="14.9541983"><ele>1265.75</ele><time>2026-03-22T11:33:29.789Z</time></trkpt><trkpt lat="37.9702533" lon="14.9542767"><ele>1267.0</ele><time>2026-03-22T11:33:30.79Z</time></trkpt><trkpt lat="37.9701433" lon="14.954345"><ele>1268.75</ele><time>2026-03-22T11:33:31.79Z</time></trkpt><trkpt lat="37.9700317" lon="14.9544017"><ele>1270.5</ele><time>2026-03-22T11:33:32.79Z</time></trkpt><trkpt lat="37.969905" lon="14.9544467"><ele>1272.25</ele><time>2026-03-22T11:33:33.789Z</time></trkpt><trkpt lat="37.9697733" lon="14.9544683"><ele>1274.0</ele><time>2026-03-22T11:33:34.79Z</time></trkpt><trkpt lat="37.9696367" lon="14.9544783"><ele>1274.0</ele><time>2026-03-22T11:33:35.79Z</time></trkpt><trkpt lat="37.9695033" lon="14.9544833"><ele>1274.0</ele><time>2026-03-22T11:33:36.79Z</time></trkpt><trkpt lat="37.9693667" lon="14.9544883"><ele>1274.0</ele><time>2026-03-22T11:33:37.789Z</time></trkpt><trkpt lat="37.969235" lon="14.9544933"><ele>1274.0</ele><time>2026-03-22T11:33:38.789Z</time></trkpt><trkpt lat="37.9690967" lon="14.9544983"><ele>1273.75</ele><time>2026-03-22T11:33:39.79Z</time></trkpt><trkpt lat="37.9689583" lon="14.9545033"><ele>1273.5</ele><time>2026-03-22T11:33:40.79Z</time></trkpt><trkpt lat="37.9688183" lon="14.954505"><ele>1273.25</ele><time>2026-03-22T11:33:41.79Z</time></trkpt><trkpt lat="37.9686883" lon="14.9545083"><ele>1273.0</ele><time>2026-03-22T11:33:42.789Z</time></trkpt><trkpt lat="37.9685617" lon="14.9545167"><ele>1273.0</ele><time>2026-03-22T11:33:43.79Z</time></trkpt><trkpt lat="37.968435" lon="14.9545183"><ele>1273.0</ele><time>2026-03-22T11:33:44.79Z</time></trkpt><trkpt lat="37.9683067" lon="14.9545267"><ele>1273.0</ele><time>2026-03-22T11:33:45.79Z</time></trkpt><trkpt lat="37.968165" lon="14.954545"><ele>1273.0</ele><time>2026-03-22T11:33:46.79Z</time></trkpt><trkpt lat="37.968025" lon="14.9545617"><ele>1272.25</ele><time>2026-03-22T11:33:47.789Z</time></trkpt><trkpt lat="37.9678883" lon="14.9545767"><ele>1271.5</ele><time>2026-03-22T11:33:48.79Z</time></trkpt><trkpt lat="37.9677583" lon="14.9545933"><ele>1270.75</ele><time>2026-03-22T11:33:49.789Z</time></trkpt><trkpt lat="37.9676183" lon="14.9546017"><ele>1270.0</ele><time>2026-03-22T11:33:50.789Z</time></trkpt><trkpt lat="37.96748" lon="14.9546083"><ele>1268.0</ele><time>2026-03-22T11:33:51.789Z</time></trkpt><trkpt lat="37.9673467" lon="14.9546033"><ele>1266.0</ele><time>2026-03-22T11:33:52.79Z</time></trkpt><trkpt lat="37.9672167" lon="14.9545883"><ele>1264.0</ele><time>2026-03-22T11:33:53.79Z</time></trkpt><trkpt lat="37.9670883" lon="14.9545683"><ele>1262.0</ele><time>2026-03-22T11:33:54.79Z</time></trkpt><trkpt lat="37.9669617" lon="14.9545533"><ele>1262.0</ele><time>2026-03-22T11:33:55.79Z</time></trkpt><trkpt lat="37.9668383" lon="14.9545417"><ele>1262.0</ele><time>2026-03-22T11:33:56.789Z</time></trkpt><trkpt lat="37.9667283" lon="14.9545467"><ele>1262.0</ele><time>2026-03-22T11:33:57.789Z</time></trkpt><trkpt lat="37.966615" lon="14.9545783"><ele>1262.0</ele><time>2026-03-22T11:33:58.789Z</time></trkpt><trkpt lat="37.96651" lon="14.95463"><ele>1258.75</ele><time>2026-03-22T11:33:59.79Z</time></trkpt><trkpt lat="37.9664117" lon="14.9547083"><ele>1255.5</ele><time>2026-03-22T11:34:00.789Z</time></trkpt><trkpt lat="37.96631" lon="14.954805"><ele>1252.25</ele><time>2026-03-22T11:34:01.789Z</time></trkpt><trkpt lat="37.966215" lon="14.954895"><ele>1249.0</ele><time>2026-03-22T11:34:02.79Z</time></trkpt><trkpt lat="37.9661067" lon="14.9549833"><ele>1248.75</ele><time>2026-03-22T11:34:03.79Z</time></trkpt><trkpt lat="37.9660033" lon="14.955055"><ele>1248.5</ele><time>2026-03-22T11:34:04.789Z</time></trkpt><trkpt lat="37.9659" lon="14.9551317"><ele>1248.25</ele><time>2026-03-22T11:34:05.789Z</time></trkpt><trkpt lat="37.9657983" lon="14.95521"><ele>1248.0</ele><time>2026-03-22T11:34:06.79Z</time></trkpt><trkpt lat="37.9656867" lon="14.955285"><ele>1244.0</ele><time>2026-03-22T11:34:07.789Z</time></trkpt><trkpt lat="37.9655767" lon="14.9553533"><ele>1240.0</ele><time>2026-03-22T11:34:08.789Z</time></trkpt><trkpt lat="37.96546" lon="14.9554217"><ele>1236.0</ele><time>2026-03-22T11:34:09.789Z</time></trkpt><trkpt lat="37.9653333" lon="14.9554783"><ele>1232.0</ele><time>2026-03-22T11:34:10.789Z</time></trkpt><trkpt lat="37.9652" lon="14.9555367"><ele>1232.0</ele><time>2026-03-22T11:34:11.79Z</time></trkpt><trkpt lat="37.9650667" lon="14.9555717"><ele>1232.0</ele><time>2026-03-22T11:34:12.79Z</time></trkpt><trkpt lat="37.9649267" lon="14.9555883"><ele>1232.0</ele><time>2026-03-22T11:34:13.789Z</time></trkpt><trkpt lat="37.9647833" lon="14.955615"><ele>1232.0</ele><time>2026-03-22T11:34:14.789Z</time></trkpt><trkpt lat="37.96464" lon="14.955645"><ele>1232.0</ele><time>2026-03-22T11:34:15.79Z</time></trkpt><trkpt lat="37.9644983" lon="14.9556783"><ele>1232.0</ele><time>2026-03-22T11:34:16.789Z</time></trkpt><trkpt lat="37.9643667" lon="14.9557283"><ele>1232.0</ele><time>2026-03-22T11:34:17.789Z</time></trkpt><trkpt lat="37.96423" lon="14.95578"><ele>1232.0</ele><time>2026-03-22T11:34:18.79Z</time></trkpt><trkpt lat="37.964095" lon="14.9558167"><ele>1231.0</ele><time>2026-03-22T11:34:19.79Z</time></trkpt><trkpt lat="37.963955" lon="14.9558517"><ele>1230.0</ele><time>2026-03-22T11:34:20.79Z</time></trkpt><trkpt lat="37.9638167" lon="14.9558817"><ele>1229.0</ele><time>2026-03-22T11:34:21.789Z</time></trkpt><trkpt lat="37.9636817" lon="14.9558983"><ele>1228.0</ele><time>2026-03-22T11:34:22.79Z</time></trkpt><trkpt lat="37.9635567" lon="14.9559083"><ele>1226.5</ele><time>2026-03-22T11:34:23.789Z</time></trkpt><trkpt lat="37.9634367" lon="14.9559167"><ele>1225.0</ele><time>2026-03-22T11:34:24.79Z</time></trkpt><trkpt lat="37.9633267" lon="14.9559167"><ele>1223.5</ele><time>2026-03-22T11:34:25.79Z</time></trkpt><trkpt lat="37.963215" lon="14.95592"><ele>1222.0</ele><time>2026-03-22T11:34:26.789Z</time></trkpt><trkpt lat="37.963105" lon="14.955915"><ele>1222.75</ele><time>2026-03-22T11:34:27.789Z</time></trkpt><trkpt lat="37.9629967" lon="14.9558983"><ele>1223.5</ele><time>2026-03-22T11:34:28.789Z</time></trkpt><trkpt lat="37.9628917" lon="14.9558433"><ele>1224.25</ele><time>2026-03-22T11:34:29.79Z</time></trkpt><trkpt lat="37.96278" lon="14.9557717"><ele>1225.0</ele><time>2026-03-22T11:34:30.79Z</time></trkpt><trkpt lat="37.9626733" lon="14.9556817"><ele>1225.0</ele><time>2026-03-22T11:34:31.789Z</time></trkpt><trkpt lat="37.9625617" lon="14.9555833"><ele>1225.0</ele><time>2026-03-22T11:34:32.789Z</time></trkpt><trkpt lat="37.9624517" lon="14.955485"><ele>1225.0</ele><time>2026-03-22T11:34:33.79Z</time></trkpt><trkpt lat="37.9623417" lon="14.9553983"><ele>1225.0</ele><time>2026-03-22T11:34:34.79Z</time></trkpt><trkpt lat="37.962235" lon="14.9553117"><ele>1225.25</ele><time>2026-03-22T11:34:35.79Z</time></trkpt><trkpt lat="37.962145" lon="14.955215"><ele>1225.5</ele><time>2026-03-22T11:34:36.789Z</time></trkpt><trkpt lat="37.962065" lon="14.95512"><ele>1225.75</ele><time>2026-03-22T11:34:37.789Z</time></trkpt><trkpt lat="37.96197" lon="14.9550333"><ele>1226.0</ele><time>2026-03-22T11:34:38.79Z</time></trkpt><trkpt lat="37.9618733" lon="14.9549417"><ele>1226.25</ele><time>2026-03-22T11:34:39.79Z</time></trkpt><trkpt lat="37.9617667" lon="14.9548683"><ele>1226.5</ele><time>2026-03-22T11:34:40.789Z</time></trkpt><trkpt lat="37.9616567" lon="14.9548083"><ele>1226.75</ele><time>2026-03-22T11:34:41.789Z</time></trkpt><trkpt lat="37.9615417" lon="14.95476"><ele>1227.0</ele><time>2026-03-22T11:34:42.789Z</time></trkpt><trkpt lat="37.961415" lon="14.954715"><ele>1226.0</ele><time>2026-03-22T11:34:43.789Z</time></trkpt><trkpt lat="37.96128" lon="14.9546683"><ele>1225.0</ele><time>2026-03-22T11:34:44.79Z</time></trkpt><trkpt lat="37.9611367" lon="14.9546433"><ele>1224.0</ele><time>2026-03-22T11:34:45.789Z</time></trkpt><trkpt lat="37.9610017" lon="14.9546133"><ele>1223.0</ele><time>2026-03-22T11:34:46.79Z</time></trkpt><trkpt lat="37.9608717" lon="14.954585"><ele>1221.75</ele><time>2026-03-22T11:34:47.79Z</time></trkpt><trkpt lat="37.96074" lon="14.954545"><ele>1220.5</ele><time>2026-03-22T11:34:48.789Z</time></trkpt><trkpt lat="37.960615" lon="14.954505"><ele>1219.25</ele><time>2026-03-22T11:34:49.79Z</time></trkpt><trkpt lat="37.9604967" lon="14.954455"><ele>1218.0</ele><time>2026-03-22T11:34:50.79Z</time></trkpt><trkpt lat="37.9603767" lon="14.9544083"><ele>1218.0</ele><time>2026-03-22T11:34:51.789Z</time></trkpt><trkpt lat="37.960255" lon="14.9543633"><ele>1218.0</ele><time>2026-03-22T11:34:52.789Z</time></trkpt><trkpt lat="37.960135" lon="14.9543217"><ele>1218.0</ele><time>2026-03-22T11:34:53.789Z</time></trkpt><trkpt lat="37.9600067" lon="14.954285"><ele>1218.0</ele><time>2026-03-22T11:34:54.789Z</time></trkpt><trkpt lat="37.959875" lon="14.95426"><ele>1216.25</ele><time>2026-03-22T11:34:55.789Z</time></trkpt><trkpt lat="37.9597433" lon="14.9542483"><ele>1214.5</ele><time>2026-03-22T11:34:56.789Z</time></trkpt><trkpt lat="37.959605" lon="14.9542367"><ele>1212.75</ele><time>2026-03-22T11:34:57.789Z</time></trkpt><trkpt lat="37.9594667" lon="14.95424"><ele>1211.0</ele><time>2026-03-22T11:34:58.79Z</time></trkpt><trkpt lat="37.9593283" lon="14.9542333"><ele>1214.75</ele><time>2026-03-22T11:34:59.789Z</time></trkpt><trkpt lat="37.9591867" lon="14.95423"><ele>1218.5</ele><time>2026-03-22T11:35:00.789Z</time></trkpt><trkpt lat="37.959045" lon="14.95422"><ele>1222.25</ele><time>2026-03-22T11:35:01.789Z</time></trkpt><trkpt lat="37.958905" lon="14.9542117"><ele>1226.0</ele><time>2026-03-22T11:35:02.79Z</time></trkpt><trkpt lat="37.9587683" lon="14.954205"><ele>1226.0</ele><time>2026-03-22T11:35:03.789Z</time></trkpt><trkpt lat="37.9586383" lon="14.9542017"><ele>1226.0</ele><time>2026-03-22T11:35:04.79Z</time></trkpt><trkpt lat="37.9585" lon="14.95421"><ele>1226.0</ele><time>2026-03-22T11:35:05.789Z</time></trkpt><trkpt lat="37.9583583" lon="14.9542217"><ele>1226.0</ele><time>2026-03-22T11:35:06.79Z</time></trkpt><trkpt lat="37.9582083" lon="14.954235"><ele>1227.25</ele><time>2026-03-22T11:35:07.789Z</time></trkpt><trkpt lat="37.9580633" lon="14.9542483"><ele>1228.5</ele><time>2026-03-22T11:35:08.789Z</time></trkpt><trkpt lat="37.9579167" lon="14.9542667"><ele>1229.75</ele><time>2026-03-22T11:35:09.789Z</time></trkpt><trkpt lat="37.9577683" lon="14.9542833"><ele>1231.0</ele><time>2026-03-22T11:35:10.79Z</time></trkpt><trkpt lat="37.9576167" lon="14.9542933"><ele>1231.3333333333333</ele><time>2026-03-22T11:35:11.79Z</time></trkpt><trkpt lat="37.9574583" lon="14.9543033"><ele>1231.6666666666667</ele><time>2026-03-22T11:35:12.79Z</time></trkpt><trkpt lat="37.9573033" lon="14.95431"><ele>1232.0</ele><time>2026-03-22T11:35:13.789Z</time></trkpt><trkpt lat="37.9571517" lon="14.9543167"><ele>1232.0</ele><time>2026-03-22T11:35:14.79Z</time></trkpt><trkpt lat="37.9570117" lon="14.95433"><ele>1232.0</ele><time>2026-03-22T11:35:15.789Z</time></trkpt><trkpt lat="37.9568767" lon="14.9543467"><ele>1232.0</ele><time>2026-03-22T11:35:16.79Z</time></trkpt><trkpt lat="37.9567533" lon="14.954385"><ele>1232.0</ele><time>2026-03-22T11:35:17.789Z</time></trkpt><trkpt lat="37.956645" lon="14.9544417"><ele>1229.5</ele><time>2026-03-22T11:35:18.79Z</time></trkpt><trkpt lat="37.9565517" lon="14.9545167"><ele>1227.0</ele><time>2026-03-22T11:35:19.789Z</time></trkpt><trkpt lat="37.9564733" lon="14.9546067"><ele>1224.5</ele><time>2026-03-22T11:35:20.79Z</time></trkpt><trkpt lat="37.9563867" lon="14.954705"><ele>1222.0</ele><time>2026-03-22T11:35:21.789Z</time></trkpt><trkpt lat="37.9562767" lon="14.9547883"><ele>1222.0</ele><time>2026-03-22T11:35:22.789Z</time></trkpt><trkpt lat="37.9561683" lon="14.9548483"><ele>1222.0</ele><time>2026-03-22T11:35:23.789Z</time></trkpt><trkpt lat="37.9560617" lon="14.9549017"><ele>1222.0</ele><time>2026-03-22T11:35:24.79Z</time></trkpt><trkpt lat="37.9559517" lon="14.9549717"><ele>1222.0</ele><time>2026-03-22T11:35:25.789Z</time></trkpt><trkpt lat="37.955845" lon="14.9550567"><ele>1223.0</ele><time>2026-03-22T11:35:26.79Z</time></trkpt><trkpt lat="37.9557567" lon="14.9551567"><ele>1224.0</ele><time>2026-03-22T11:35:27.789Z</time></trkpt><trkpt lat="37.9556717" lon="14.9552667"><ele>1225.0</ele><time>2026-03-22T11:35:28.79Z</time></trkpt><trkpt lat="37.9555767" lon="14.9553583"><ele>1226.0</ele><time>2026-03-22T11:35:29.789Z</time></trkpt><trkpt lat="37.9554633" lon="14.9554333"><ele>1226.0</ele><time>2026-03-22T11:35:30.789Z</time></trkpt><trkpt lat="37.9553333" lon="14.9554917"><ele>1226.0</ele><time>2026-03-22T11:35:31.79Z</time></trkpt><trkpt lat="37.95519" lon="14.95554"><ele>1226.0</ele><time>2026-03-22T11:35:32.79Z</time></trkpt><trkpt lat="37.95505" lon="14.955585"><ele>1226.0</ele><time>2026-03-22T11:35:33.79Z</time></trkpt><trkpt lat="37.9549167" lon="14.9556333"><ele>1227.75</ele><time>2026-03-22T11:35:34.79Z</time></trkpt><trkpt lat="37.9547867" lon="14.9556867"><ele>1229.5</ele><time>2026-03-22T11:35:35.789Z</time></trkpt><trkpt lat="37.95466" lon="14.9557617"><ele>1231.25</ele><time>2026-03-22T11:35:36.79Z</time></trkpt><trkpt lat="37.9545417" lon="14.9558483"><ele>1233.0</ele><time>2026-03-22T11:35:37.789Z</time></trkpt><trkpt lat="37.9544267" lon="14.9559483"><ele>1233.0</ele><time>2026-03-22T11:35:38.789Z</time></trkpt><trkpt lat="37.9543133" lon="14.95604"><ele>1233.0</ele><time>2026-03-22T11:35:39.79Z</time></trkpt><trkpt lat="37.9542017" lon="14.9561317"><ele>1233.0</ele><time>2026-03-22T11:35:40.789Z</time></trkpt><trkpt lat="37.9540967" lon="14.956225"><ele>1233.0</ele><time>2026-03-22T11:35:41.79Z</time></trkpt><trkpt lat="37.9539917" lon="14.95631"><ele>1231.5</ele><time>2026-03-22T11:35:42.789Z</time></trkpt><trkpt lat="37.9538983" lon="14.9564"><ele>1230.0</ele><time>2026-03-22T11:35:43.79Z</time></trkpt><trkpt lat="37.9538167" lon="14.9565217"><ele>1228.5</ele><time>2026-03-22T11:35:44.79Z</time></trkpt><trkpt lat="37.9537517" lon="14.9566667"><ele>1227.0</ele><time>2026-03-22T11:35:45.789Z</time></trkpt><trkpt lat="37.9537017" lon="14.9568167"><ele>1227.0</ele><time>2026-03-22T11:35:46.789Z</time></trkpt><trkpt lat="37.9536567" lon="14.9569617"><ele>1227.0</ele><time>2026-03-22T11:35:47.789Z</time></trkpt><trkpt lat="37.9536017" lon="14.9571"><ele>1227.0</ele><time>2026-03-22T11:35:48.789Z</time></trkpt><trkpt lat="37.9535333" lon="14.9572217"><ele>1227.0</ele><time>2026-03-22T11:35:49.789Z</time></trkpt><trkpt lat="37.9534433" lon="14.95732"><ele>1220.25</ele><time>2026-03-22T11:35:50.79Z</time></trkpt><trkpt lat="37.9533317" lon="14.9573883"><ele>1213.5</ele><time>2026-03-22T11:35:51.789Z</time></trkpt><trkpt lat="37.9532067" lon="14.9574367"><ele>1206.75</ele><time>2026-03-22T11:35:52.79Z</time></trkpt><trkpt lat="37.953075" lon="14.9574767"><ele>1200.0</ele><time>2026-03-22T11:35:53.79Z</time></trkpt><trkpt lat="37.952935" lon="14.9575017"><ele>1206.75</ele><time>2026-03-22T11:35:54.79Z</time></trkpt><trkpt lat="37.9527833" lon="14.9575367"><ele>1213.5</ele><time>2026-03-22T11:35:55.789Z</time></trkpt><trkpt lat="37.95264" lon="14.9575667"><ele>1220.25</ele><time>2026-03-22T11:35:56.789Z</time></trkpt><trkpt lat="37.9524933" lon="14.9575883"><ele>1227.0</ele><time>2026-03-22T11:35:57.79Z</time></trkpt><trkpt lat="37.9523483" lon="14.9576"><ele>1227.0</ele><time>2026-03-22T11:35:58.79Z</time></trkpt><trkpt lat="37.9522117" lon="14.9576067"><ele>1227.0</ele><time>2026-03-22T11:35:59.79Z</time></trkpt><trkpt lat="37.9520717" lon="14.9576"><ele>1227.0</ele><time>2026-03-22T11:36:00.789Z</time></trkpt><trkpt lat="37.9519317" lon="14.9575783"><ele>1227.0</ele><time>2026-03-22T11:36:01.79Z</time></trkpt><trkpt lat="37.951795" lon="14.95756"><ele>1221.5</ele><time>2026-03-22T11:36:02.79Z</time></trkpt><trkpt lat="37.9516517" lon="14.95756"><ele>1216.0</ele><time>2026-03-22T11:36:03.789Z</time></trkpt><trkpt lat="37.9515017" lon="14.95758"><ele>1210.5</ele><time>2026-03-22T11:36:04.789Z</time></trkpt><trkpt lat="37.9513633" lon="14.9576183"><ele>1205.0</ele><time>2026-03-22T11:36:05.789Z</time></trkpt><trkpt lat="37.95122" lon="14.957665"><ele>1205.0</ele><time>2026-03-22T11:36:06.789Z</time></trkpt><trkpt lat="37.951075" lon="14.9577417"><ele>1205.0</ele><time>2026-03-22T11:36:07.789Z</time></trkpt><trkpt lat="37.9509417" lon="14.957835"><ele>1205.0</ele><time>2026-03-22T11:36:08.79Z</time></trkpt><trkpt lat="37.9508117" lon="14.9579317"><ele>1197.5</ele><time>2026-03-22T11:36:09.79Z</time></trkpt><trkpt lat="37.950685" lon="14.9580117"><ele>1190.0</ele><time>2026-03-22T11:36:10.789Z</time></trkpt><trkpt lat="37.9505667" lon="14.9580917"><ele>1182.5</ele><time>2026-03-22T11:36:11.789Z</time></trkpt><trkpt lat="37.9504517" lon="14.95817"><ele>1175.0</ele><time>2026-03-22T11:36:12.789Z</time></trkpt><trkpt lat="37.95034" lon="14.9582583"><ele>1175.0</ele><time>2026-03-22T11:36:13.79Z</time></trkpt><trkpt lat="37.95023" lon="14.9583517"><ele>1175.0</ele><time>2026-03-22T11:36:14.789Z</time></trkpt><trkpt lat="37.95012" lon="14.9584567"><ele>1175.0</ele><time>2026-03-22T11:36:15.789Z</time></trkpt><trkpt lat="37.9500117" lon="14.9585667"><ele>1175.0</ele><time>2026-03-22T11:36:16.789Z</time></trkpt><trkpt lat="37.9499033" lon="14.9586683"><ele>1173.5</ele><time>2026-03-22T11:36:17.79Z</time></trkpt><trkpt lat="37.949795" lon="14.9587567"><ele>1172.0</ele><time>2026-03-22T11:36:18.789Z</time></trkpt><trkpt lat="37.9496867" lon="14.9588367"><ele>1170.5</ele><time>2026-03-22T11:36:19.789Z</time></trkpt><trkpt lat="37.9495883" lon="14.958905"><ele>1169.0</ele><time>2026-03-22T11:36:20.79Z</time></trkpt><trkpt lat="37.9495067" lon="14.9589783"><ele>1169.0</ele><time>2026-03-22T11:36:21.789Z</time></trkpt><trkpt lat="37.94942" lon="14.9590367"><ele>1169.0</ele><time>2026-03-22T11:36:22.79Z</time></trkpt><trkpt lat="37.9493433" lon="14.95909"><ele>1169.0</ele><time>2026-03-22T11:36:23.789Z</time></trkpt><trkpt lat="37.94927" lon="14.9591517"><ele>1169.0</ele><time>2026-03-22T11:36:24.79Z</time></trkpt><trkpt lat="37.9491967" lon="14.9592117"><ele>1169.0</ele><time>2026-03-22T11:36:25.789Z</time></trkpt><trkpt lat="37.9491183" lon="14.9592667"><ele>1168.2</ele><time>2026-03-22T11:36:26.789Z</time></trkpt><trkpt lat="37.9490433" lon="14.9593367"><ele>1167.4</ele><time>2026-03-22T11:36:27.79Z</time></trkpt><trkpt lat="37.948965" lon="14.9594167"><ele>1166.6</ele><time>2026-03-22T11:36:28.789Z</time></trkpt><trkpt lat="37.9488867" lon="14.9595233"><ele>1165.8</ele><time>2026-03-22T11:36:29.789Z</time></trkpt><trkpt lat="37.94881" lon="14.9596467"><ele>1165.0</ele><time>2026-03-22T11:36:30.789Z</time></trkpt><trkpt lat="37.9487433" lon="14.9597717"><ele>1165.0</ele><time>2026-03-22T11:36:31.79Z</time></trkpt><trkpt lat="37.948675" lon="14.9599"><ele>1165.0</ele><time>2026-03-22T11:36:32.79Z</time></trkpt><trkpt lat="37.9486133" lon="14.9600217"><ele>1165.0</ele><time>2026-03-22T11:36:33.79Z</time></trkpt><trkpt lat="37.9485483" lon="14.9601467"><ele>1165.0</ele><time>2026-03-22T11:36:34.789Z</time></trkpt><trkpt lat="37.9484833" lon="14.9602767"><ele>1164.6</ele><time>2026-03-22T11:36:35.789Z</time></trkpt><trkpt lat="37.9484183" lon="14.9603967"><ele>1164.2</ele><time>2026-03-22T11:36:36.789Z</time></trkpt><trkpt lat="37.94835" lon="14.9605033"><ele>1163.8</ele><time>2026-03-22T11:36:37.789Z</time></trkpt><trkpt lat="37.9482783" lon="14.9605917"><ele>1163.4</ele><time>2026-03-22T11:36:38.789Z</time></trkpt><trkpt lat="37.94819" lon="14.9606517"><ele>1163.0</ele><time>2026-03-22T11:36:39.79Z</time></trkpt><trkpt lat="37.9481017" lon="14.9606983"><ele>1163.0</ele><time>2026-03-22T11:36:40.79Z</time></trkpt><trkpt lat="37.948" lon="14.96072"><ele>1163.0</ele><time>2026-03-22T11:36:41.789Z</time></trkpt><trkpt lat="37.9478967" lon="14.960715"><ele>1163.0</ele><time>2026-03-22T11:36:42.789Z</time></trkpt><trkpt lat="37.9477817" lon="14.9607133"><ele>1163.0</ele><time>2026-03-22T11:36:43.789Z</time></trkpt><trkpt lat="37.94766" lon="14.9607083"><ele>1163.0</ele><time>2026-03-22T11:36:44.79Z</time></trkpt><trkpt lat="37.9475367" lon="14.9607033"><ele>1164.25</ele><time>2026-03-22T11:36:45.789Z</time></trkpt><trkpt lat="37.9474233" lon="14.9606983"><ele>1165.5</ele><time>2026-03-22T11:36:46.79Z</time></trkpt><trkpt lat="37.947305" lon="14.9607033"><ele>1166.75</ele><time>2026-03-22T11:36:47.79Z</time></trkpt><trkpt lat="37.9471833" lon="14.9607233"><ele>1168.0</ele><time>2026-03-22T11:36:48.79Z</time></trkpt><trkpt lat="37.94706" lon="14.960755"><ele>1168.0</ele><time>2026-03-22T11:36:49.789Z</time></trkpt><trkpt lat="37.94694" lon="14.9607983"><ele>1168.0</ele><time>2026-03-22T11:36:50.79Z</time></trkpt><trkpt lat="37.9468183" lon="14.96084"><ele>1168.0</ele><time>2026-03-22T11:36:51.789Z</time></trkpt><trkpt lat="37.946705" lon="14.9608783"><ele>1168.0</ele><time>2026-03-22T11:36:52.79Z</time></trkpt><trkpt lat="37.9465983" lon="14.9609133"><ele>1164.6</ele><time>2026-03-22T11:36:53.789Z</time></trkpt><trkpt lat="37.9464967" lon="14.9609483"><ele>1161.1999999999998</ele><time>2026-03-22T11:36:54.79Z</time></trkpt><trkpt lat="37.9463983" lon="14.9609833"><ele>1157.8</ele><time>2026-03-22T11:36:55.79Z</time></trkpt><trkpt lat="37.9463017" lon="14.9609983"><ele>1154.3999999999999</ele><time>2026-03-22T11:36:56.791Z</time></trkpt><trkpt lat="37.94621" lon="14.9609817"><ele>1151.0</ele><time>2026-03-22T11:36:57.79Z</time></trkpt><trkpt lat="37.9461267" lon="14.96094"><ele>1151.0</ele><time>2026-03-22T11:36:58.79Z</time></trkpt><trkpt lat="37.94604" lon="14.9608733"><ele>1151.0</ele><time>2026-03-22T11:36:59.79Z</time></trkpt><trkpt lat="37.9459617" lon="14.9607883"><ele>1151.0</ele><time>2026-03-22T11:37:00.79Z</time></trkpt><trkpt lat="37.9458783" lon="14.960705"><ele>1151.0</ele><time>2026-03-22T11:37:01.79Z</time></trkpt><trkpt lat="37.9457983" lon="14.9606233"><ele>1151.0</ele><time>2026-03-22T11:37:02.791Z</time></trkpt><trkpt lat="37.94572" lon="14.960545"><ele>1152.8</ele><time>2026-03-22T11:37:03.791Z</time></trkpt><trkpt lat="37.945645" lon="14.9604683"><ele>1154.6</ele><time>2026-03-22T11:37:04.79Z</time></trkpt><trkpt lat="37.9455717" lon="14.9603883"><ele>1156.4</ele><time>2026-03-22T11:37:05.791Z</time></trkpt><trkpt lat="37.94551" lon="14.9602833"><ele>1158.2</ele><time>2026-03-22T11:37:06.79Z</time></trkpt><trkpt lat="37.945455" lon="14.960175"><ele>1160.0</ele><time>2026-03-22T11:37:07.791Z</time></trkpt><trkpt lat="37.9454117" lon="14.9600583"><ele>1160.2</ele><time>2026-03-22T11:37:08.79Z</time></trkpt><trkpt lat="37.9453633" lon="14.9599483"><ele>1160.4</ele><time>2026-03-22T11:37:09.791Z</time></trkpt><trkpt lat="37.9453" lon="14.9598517"><ele>1160.6</ele><time>2026-03-22T11:37:10.79Z</time></trkpt><trkpt lat="37.9452233" lon="14.9597683"><ele>1160.8</ele><time>2026-03-22T11:37:11.79Z</time></trkpt><trkpt lat="37.9451317" lon="14.95972"><ele>1161.0</ele><time>2026-03-22T11:37:12.791Z</time></trkpt><trkpt lat="37.9450267" lon="14.959705"><ele>1161.0</ele><time>2026-03-22T11:37:13.79Z</time></trkpt><trkpt lat="37.9449217" lon="14.9596983"><ele>1161.0</ele><time>2026-03-22T11:37:14.791Z</time></trkpt><trkpt lat="37.9448283" lon="14.9596967"><ele>1161.0</ele><time>2026-03-22T11:37:15.791Z</time></trkpt><trkpt lat="37.94474" lon="14.9596933"><ele>1161.0</ele><time>2026-03-22T11:37:16.79Z</time></trkpt><trkpt lat="37.9446533" lon="14.959675"><ele>1161.0</ele><time>2026-03-22T11:37:17.791Z</time></trkpt><trkpt lat="37.9445767" lon="14.9596267"><ele>1161.0</ele><time>2026-03-22T11:37:18.79Z</time></trkpt><trkpt lat="37.944515" lon="14.9595533"><ele>1161.0</ele><time>2026-03-22T11:37:19.791Z</time></trkpt><trkpt lat="37.94447" lon="14.9594583"><ele>1161.0</ele><time>2026-03-22T11:37:20.79Z</time></trkpt><trkpt lat="37.944425" lon="14.9593467"><ele>1161.0</ele><time>2026-03-22T11:37:21.791Z</time></trkpt><trkpt lat="37.9443783" lon="14.9592317"><ele>1161.0</ele><time>2026-03-22T11:37:22.79Z</time></trkpt><trkpt lat="37.9443317" lon="14.95912"><ele>1161.3333333333333</ele><time>2026-03-22T11:37:23.791Z</time></trkpt><trkpt lat="37.94429" lon="14.9590117"><ele>1161.6666666666667</ele><time>2026-03-22T11:37:24.791Z</time></trkpt><trkpt lat="37.9442517" lon="14.9589117"><ele>1162.0</ele><time>2026-03-22T11:37:25.791Z</time></trkpt><trkpt lat="37.9442133" lon="14.95882"><ele>1162.3333333333335</ele><time>2026-03-22T11:37:26.791Z</time></trkpt><trkpt lat="37.9441783" lon="14.9587367"><ele>1162.6666666666667</ele><time>2026-03-22T11:37:27.791Z</time></trkpt><trkpt lat="37.9441383" lon="14.95867"><ele>1163.0</ele><time>2026-03-22T11:37:28.791Z</time></trkpt><trkpt lat="37.94409" lon="14.9586067"><ele>1163.0</ele><time>2026-03-22T11:37:29.79Z</time></trkpt><trkpt lat="37.9440317" lon="14.9585717"><ele>1163.0</ele><time>2026-03-22T11:37:30.79Z</time></trkpt><trkpt lat="37.9439433" lon="14.9585767"><ele>1163.0</ele><time>2026-03-22T11:37:31.79Z</time></trkpt><trkpt lat="37.9438467" lon="14.95863"><ele>1163.0</ele><time>2026-03-22T11:37:32.79Z</time></trkpt><trkpt lat="37.94375" lon="14.9587"><ele>1163.0</ele><time>2026-03-22T11:37:33.79Z</time></trkpt><trkpt lat="37.9436583" lon="14.9587683"><ele>1163.0</ele><time>2026-03-22T11:37:34.79Z</time></trkpt><trkpt lat="37.9435717" lon="14.95883"><ele>1163.0</ele><time>2026-03-22T11:37:35.791Z</time></trkpt><trkpt lat="37.943485" lon="14.9588833"><ele>1163.0</ele><time>2026-03-22T11:37:36.79Z</time></trkpt><trkpt lat="37.94339" lon="14.95893"><ele>1163.0</ele><time>2026-03-22T11:37:37.791Z</time></trkpt><trkpt lat="37.943295" lon="14.9589883"><ele>1163.0</ele><time>2026-03-22T11:37:38.791Z</time></trkpt><trkpt lat="37.9431933" lon="14.9590417"><ele>1162.5</ele><time>2026-03-22T11:37:39.79Z</time></trkpt><trkpt lat="37.943085" lon="14.9590983"><ele>1162.0</ele><time>2026-03-22T11:37:40.791Z</time></trkpt><trkpt lat="37.94297" lon="14.9591617"><ele>1161.5</ele><time>2026-03-22T11:37:41.791Z</time></trkpt><trkpt lat="37.9428517" lon="14.9592183"><ele>1161.0</ele><time>2026-03-22T11:37:42.791Z</time></trkpt><trkpt lat="37.9427417" lon="14.9592517"><ele>1159.6</ele><time>2026-03-22T11:37:43.791Z</time></trkpt><trkpt lat="37.94264" lon="14.959275"><ele>1158.1999999999998</ele><time>2026-03-22T11:37:44.79Z</time></trkpt><trkpt lat="37.94254" lon="14.9593133"><ele>1156.8000000000002</ele><time>2026-03-22T11:37:45.79Z</time></trkpt><trkpt lat="37.9424533" lon="14.9593833"><ele>1155.4</ele><time>2026-03-22T11:37:46.791Z</time></trkpt><trkpt lat="37.9423717" lon="14.959465"><ele>1154.0</ele><time>2026-03-22T11:37:47.79Z</time></trkpt><trkpt lat="37.942315" lon="14.9595783"><ele>1154.0</ele><time>2026-03-22T11:37:48.791Z</time></trkpt><trkpt lat="37.9422833" lon="14.95971"><ele>1154.0</ele><time>2026-03-22T11:37:49.791Z</time></trkpt><trkpt lat="37.9422817" lon="14.9598433"><ele>1154.0</ele><time>2026-03-22T11:37:50.791Z</time></trkpt><trkpt lat="37.9422633" lon="14.9599533"><ele>1154.0</ele><time>2026-03-22T11:37:51.79Z</time></trkpt><trkpt lat="37.94223" lon="14.9600583"><ele>1154.0</ele><time>2026-03-22T11:37:52.791Z</time></trkpt><trkpt lat="37.9421817" lon="14.96015"><ele>1152.0</ele><time>2026-03-22T11:37:53.791Z</time></trkpt><trkpt lat="37.9421117" lon="14.9602167"><ele>1150.0</ele><time>2026-03-22T11:37:54.791Z</time></trkpt><trkpt lat="37.9420267" lon="14.9602483"><ele>1148.0</ele><time>2026-03-22T11:37:55.79Z</time></trkpt><trkpt lat="37.94195" lon="14.96025"><ele>1146.0</ele><time>2026-03-22T11:37:56.79Z</time></trkpt><trkpt lat="37.941865" lon="14.9602183"><ele>1144.0</ele><time>2026-03-22T11:37:57.79Z</time></trkpt><trkpt lat="37.941775" lon="14.9601583"><ele>1142.0</ele><time>2026-03-22T11:37:58.791Z</time></trkpt><trkpt lat="37.94168" lon="14.9600833"><ele>1147.0</ele><time>2026-03-22T11:37:59.79Z</time></trkpt><trkpt lat="37.9415917" lon="14.9599933"><ele>1152.0</ele><time>2026-03-22T11:38:00.791Z</time></trkpt><trkpt lat="37.9415033" lon="14.95992"><ele>1157.0</ele><time>2026-03-22T11:38:01.791Z</time></trkpt><trkpt lat="37.941435" lon="14.9598567"><ele>1162.0</ele><time>2026-03-22T11:38:02.79Z</time></trkpt><trkpt lat="37.941365" lon="14.9598167"><ele>1167.0</ele><time>2026-03-22T11:38:03.79Z</time></trkpt><trkpt lat="37.9412967" lon="14.959795"><ele>1167.0</ele><time>2026-03-22T11:38:04.79Z</time></trkpt><trkpt lat="37.9412317" lon="14.9597783"><ele>1167.0</ele><time>2026-03-22T11:38:05.791Z</time></trkpt><trkpt lat="37.941125" lon="14.9597517"><ele>1167.0</ele><time>2026-03-22T11:38:07.791Z</time></trkpt><trkpt lat="37.94102" lon="14.9597233"><ele>1167.0</ele><time>2026-03-22T11:38:09.791Z</time></trkpt><trkpt lat="37.9408983" lon="14.9597183"><ele>1167.0</ele><time>2026-03-22T11:38:11.79Z</time></trkpt><trkpt lat="37.9407917" lon="14.9597483"><ele>1166.5</ele><time>2026-03-22T11:38:13.791Z</time></trkpt><trkpt lat="37.9407117" lon="14.9597983"><ele>1166.0</ele><time>2026-03-22T11:38:15.79Z</time></trkpt><trkpt lat="37.9406333" lon="14.9598617"><ele>1165.5</ele><time>2026-03-22T11:38:17.79Z</time></trkpt><trkpt lat="37.9405683" lon="14.9599317"><ele>1165.0</ele><time>2026-03-22T11:38:19.79Z</time></trkpt><trkpt lat="37.9405267" lon="14.9599917"><ele>1164.5</ele><time>2026-03-22T11:38:20.79Z</time></trkpt><trkpt lat="37.94048" lon="14.9600633"><ele>1164.0</ele><time>2026-03-22T11:38:21.79Z</time></trkpt><trkpt lat="37.9404233" lon="14.9601517"><ele>1159.6666666666667</ele><time>2026-03-22T11:38:22.791Z</time></trkpt><trkpt lat="37.9403583" lon="14.9602333"><ele>1155.3333333333333</ele><time>2026-03-22T11:38:23.79Z</time></trkpt><trkpt lat="37.940285" lon="14.960295"><ele>1151.0</ele><time>2026-03-22T11:38:24.791Z</time></trkpt><trkpt lat="37.9402183" lon="14.9603283"><ele>1146.6666666666665</ele><time>2026-03-22T11:38:25.79Z</time></trkpt><trkpt lat="37.9401033" lon="14.9603067"><ele>1142.3333333333333</ele><time>2026-03-22T11:38:27.79Z</time></trkpt><trkpt lat="37.940045" lon="14.9602417"><ele>1138.0</ele><time>2026-03-22T11:38:28.79Z</time></trkpt><trkpt lat="37.939995" lon="14.9601667"><ele>1136.3333333333333</ele><time>2026-03-22T11:38:29.79Z</time></trkpt><trkpt lat="37.939945" lon="14.9600817"><ele>1134.6666666666665</ele><time>2026-03-22T11:38:30.791Z</time></trkpt><trkpt lat="37.9398867" lon="14.9600067"><ele>1133.0</ele><time>2026-03-22T11:38:31.791Z</time></trkpt><trkpt lat="37.9398333" lon="14.9599317"><ele>1131.3333333333333</ele><time>2026-03-22T11:38:32.791Z</time></trkpt><trkpt lat="37.9397817" lon="14.9598617"><ele>1129.6666666666667</ele><time>2026-03-22T11:38:33.791Z</time></trkpt><trkpt lat="37.939715" lon="14.959795"><ele>1128.0</ele><time>2026-03-22T11:38:34.79Z</time></trkpt><trkpt lat="37.93964" lon="14.9597383"><ele>1133.6</ele><time>2026-03-22T11:38:35.79Z</time></trkpt><trkpt lat="37.9395633" lon="14.9596767"><ele>1139.1999999999998</ele><time>2026-03-22T11:38:36.79Z</time></trkpt><trkpt lat="37.9394867" lon="14.959615"><ele>1144.8</ele><time>2026-03-22T11:38:37.79Z</time></trkpt><trkpt lat="37.9394083" lon="14.9595567"><ele>1150.3999999999999</ele><time>2026-03-22T11:38:38.791Z</time></trkpt><trkpt lat="37.9393267" lon="14.9594917"><ele>1156.0</ele><time>2026-03-22T11:38:39.79Z</time></trkpt><trkpt lat="37.9392433" lon="14.9594333"><ele>1156.3333333333333</ele><time>2026-03-22T11:38:40.791Z</time></trkpt><trkpt lat="37.9391683" lon="14.959365"><ele>1156.6666666666665</ele><time>2026-03-22T11:38:41.79Z</time></trkpt><trkpt lat="37.9390983" lon="14.959295"><ele>1157.0</ele><time>2026-03-22T11:38:42.791Z</time></trkpt><trkpt lat="37.9390383" lon="14.9592333"><ele>1157.3333333333333</ele><time>2026-03-22T11:38:43.79Z</time></trkpt><trkpt lat="37.9389883" lon="14.9591817"><ele>1157.6666666666667</ele><time>2026-03-22T11:38:44.791Z</time></trkpt><trkpt lat="37.93894" lon="14.95913"><ele>1158.0</ele><time>2026-03-22T11:38:45.791Z</time></trkpt><trkpt lat="37.9388817" lon="14.9590833"><ele>1158.0</ele><time>2026-03-22T11:38:46.79Z</time></trkpt><trkpt lat="37.93882" lon="14.9590333"><ele>1158.0</ele><time>2026-03-22T11:38:47.79Z</time></trkpt><trkpt lat="37.9387567" lon="14.958985"><ele>1158.0</ele><time>2026-03-22T11:38:48.791Z</time></trkpt><trkpt lat="37.9386883" lon="14.9589417"><ele>1158.0</ele><time>2026-03-22T11:38:49.79Z</time></trkpt><trkpt lat="37.9386067" lon="14.958905"><ele>1158.0</ele><time>2026-03-22T11:38:50.791Z</time></trkpt><trkpt lat="37.9385167" lon="14.95888"><ele>1158.0</ele><time>2026-03-22T11:38:51.79Z</time></trkpt><trkpt lat="37.9384283" lon="14.9588717"><ele>1155.2</ele><time>2026-03-22T11:38:52.79Z</time></trkpt><trkpt lat="37.9383533" lon="14.9588783"><ele>1152.4</ele><time>2026-03-22T11:38:53.79Z</time></trkpt><trkpt lat="37.93824" lon="14.9589017"><ele>1149.6000000000001</ele><time>2026-03-22T11:38:55.791Z</time></trkpt><trkpt lat="37.93814" lon="14.958925"><ele>1146.8</ele><time>2026-03-22T11:38:57.791Z</time></trkpt><trkpt lat="37.9380367" lon="14.9589567"><ele>1144.0</ele><time>2026-03-22T11:38:59.791Z</time></trkpt><trkpt lat="37.93796" lon="14.9589783"><ele>1144.0</ele><time>2026-03-22T11:39:01.79Z</time></trkpt><trkpt lat="37.937885" lon="14.959005"><ele>1144.0</ele><time>2026-03-22T11:39:04.791Z</time></trkpt><trkpt lat="37.9379117" lon="14.9590783"><ele>1144.0</ele><time>2026-03-22T11:39:21.791Z</time></trkpt><trkpt lat="37.9380183" lon="14.959055"><ele>1144.0</ele><time>2026-03-22T11:39:23.79Z</time></trkpt><trkpt lat="37.9381433" lon="14.9590083"><ele>1144.0</ele><time>2026-03-22T11:39:25.791Z</time></trkpt><trkpt lat="37.9382233" lon="14.9589717"><ele>1144.0</ele><time>2026-03-22T11:39:26.791Z</time></trkpt><trkpt lat="37.9383133" lon="14.9589483"><ele>1144.0</ele><time>2026-03-22T11:39:27.79Z</time></trkpt><trkpt lat="37.9383983" lon="14.9589367"><ele>1144.0</ele><time>2026-03-22T11:39:28.79Z</time></trkpt><trkpt lat="37.9384833" lon="14.9589383"><ele>1144.0</ele><time>2026-03-22T11:39:29.791Z</time></trkpt><trkpt lat="37.9385733" lon="14.95894"><ele>1144.0</ele><time>2026-03-22T11:39:30.79Z</time></trkpt><trkpt lat="37.93866" lon="14.9589667"><ele>1144.0</ele><time>2026-03-22T11:39:31.791Z</time></trkpt><trkpt lat="37.9387367" lon="14.95901"><ele>1142.4285714285713</ele><time>2026-03-22T11:39:32.79Z</time></trkpt><trkpt lat="37.9388067" lon="14.9590583"><ele>1140.857142857143</ele><time>2026-03-22T11:39:33.791Z</time></trkpt><trkpt lat="37.9388733" lon="14.959105"><ele>1139.2857142857142</ele><time>2026-03-22T11:39:34.791Z</time></trkpt><trkpt lat="37.9389283" lon="14.959155"><ele>1137.7142857142858</ele><time>2026-03-22T11:39:35.79Z</time></trkpt><trkpt lat="37.938985" lon="14.9592033"><ele>1136.142857142857</ele><time>2026-03-22T11:39:36.79Z</time></trkpt><trkpt lat="37.9390483" lon="14.9592567"><ele>1134.5714285714284</ele><time>2026-03-22T11:39:37.79Z</time></trkpt><trkpt lat="37.9391133" lon="14.959315"><ele>1133.0</ele><time>2026-03-22T11:39:38.791Z</time></trkpt><trkpt lat="37.9391883" lon="14.9593817"><ele>1137.6</ele><time>2026-03-22T11:39:39.79Z</time></trkpt><trkpt lat="37.93926" lon="14.9594383"><ele>1142.1999999999998</ele><time>2026-03-22T11:39:40.791Z</time></trkpt><trkpt lat="37.9393317" lon="14.9595067"><ele>1146.8</ele><time>2026-03-22T11:39:41.79Z</time></trkpt><trkpt lat="37.9394083" lon="14.9595717"><ele>1151.3999999999999</ele><time>2026-03-22T11:39:42.791Z</time></trkpt><trkpt lat="37.9394917" lon="14.9596467"><ele>1156.0</ele><time>2026-03-22T11:39:43.791Z</time></trkpt><trkpt lat="37.93958" lon="14.9597267"><ele>1156.0</ele><time>2026-03-22T11:39:44.791Z</time></trkpt><trkpt lat="37.9396667" lon="14.959815"><ele>1156.0</ele><time>2026-03-22T11:39:45.791Z</time></trkpt><trkpt lat="37.939755" lon="14.9599017"><ele>1156.0</ele><time>2026-03-22T11:39:46.791Z</time></trkpt><trkpt lat="37.9398317" lon="14.959985"><ele>1156.0</ele><time>2026-03-22T11:39:47.791Z</time></trkpt><trkpt lat="37.939905" lon="14.96007"><ele>1156.0</ele><time>2026-03-22T11:39:48.79Z</time></trkpt><trkpt lat="37.9399783" lon="14.9601583"><ele>1153.0</ele><time>2026-03-22T11:39:49.791Z</time></trkpt><trkpt lat="37.9400467" lon="14.96024"><ele>1150.0</ele><time>2026-03-22T11:39:50.79Z</time></trkpt><trkpt lat="37.9401183" lon="14.9603067"><ele>1147.0</ele><time>2026-03-22T11:39:51.79Z</time></trkpt><trkpt lat="37.94018" lon="14.9603633"><ele>1144.0</ele><time>2026-03-22T11:39:52.791Z</time></trkpt><trkpt lat="37.94025" lon="14.9603933"><ele>1141.0</ele><time>2026-03-22T11:39:53.791Z</time></trkpt><trkpt lat="37.9403333" lon="14.96038"><ele>1138.0</ele><time>2026-03-22T11:39:54.79Z</time></trkpt><trkpt lat="37.9404" lon="14.9603283"><ele>1138.0</ele><time>2026-03-22T11:39:55.79Z</time></trkpt><trkpt lat="37.940455" lon="14.9602517"><ele>1138.0</ele><time>2026-03-22T11:39:56.791Z</time></trkpt><trkpt lat="37.940505" lon="14.9601667"><ele>1138.0</ele><time>2026-03-22T11:39:57.79Z</time></trkpt><trkpt lat="37.94055" lon="14.96008"><ele>1138.0</ele><time>2026-03-22T11:39:58.79Z</time></trkpt><trkpt lat="37.9405967" lon="14.9600083"><ele>1138.0</ele><time>2026-03-22T11:39:59.79Z</time></trkpt><trkpt lat="37.9406383" lon="14.9599383"><ele>1138.0</ele><time>2026-03-22T11:40:00.79Z</time></trkpt><trkpt lat="37.9406817" lon="14.959875"><ele>1141.7142857142858</ele><time>2026-03-22T11:40:01.79Z</time></trkpt><trkpt lat="37.9407467" lon="14.9598017"><ele>1145.4285714285716</ele><time>2026-03-22T11:40:03.791Z</time></trkpt><trkpt lat="37.9408167" lon="14.95976"><ele>1149.142857142857</ele><time>2026-03-22T11:40:06.79Z</time></trkpt><trkpt lat="37.9408817" lon="14.9597317"><ele>1152.857142857143</ele><time>2026-03-22T11:40:12.791Z</time></trkpt><trkpt lat="37.94094" lon="14.95969"><ele>1156.5714285714284</ele><time>2026-03-22T11:40:39.79Z</time></trkpt><trkpt lat="37.940885" lon="14.959745"><ele>1160.2857142857142</ele><time>2026-03-22T11:46:14.792Z</time></trkpt><trkpt lat="37.9408179" lon="14.9597955"><ele>1164.0</ele><time>2026-03-22T11:46:20.72Z</time></trkpt><trkpt lat="37.9407493" lon="14.9598159"><ele>1164.0</ele><time>2026-03-22T11:46:23.498Z</time></trkpt><trkpt lat="37.9406744" lon="14.9598104"><ele>1164.0</ele><time>2026-03-22T11:46:28.618Z</time></trkpt><trkpt lat="37.9406672" lon="14.9599041"><ele>1164.0</ele><time>2026-03-22T11:46:40.807Z</time></trkpt><trkpt lat="37.9407146" lon="14.9599605"><ele>1164.0</ele><time>2026-03-22T11:46:53.807Z</time></trkpt><trkpt lat="37.940756" lon="14.9600987"><ele>1138.0</ele><time>2026-03-22T11:46:59.839Z</time></trkpt><trkpt lat="37.9408332" lon="14.9601572"><ele>1138.0</ele><time>2026-03-22T11:47:16.895Z</time></trkpt></trkseg><trkseg><trkpt lat="37.9408133" lon="14.95941"><ele>1164.4285714285713</ele><time>2026-03-22T13:03:50.574Z</time></trkpt><trkpt lat="37.9408867" lon="14.9594567"><ele>1164.8571428571427</ele><time>2026-03-22T13:03:51.573Z</time></trkpt><trkpt lat="37.9409483" lon="14.9595517"><ele>1165.2857142857142</ele><time>2026-03-22T13:03:53.074Z</time></trkpt><trkpt lat="37.9409417" lon="14.9596317"><ele>1165.7142857142858</ele><time>2026-03-22T13:03:54.073Z</time></trkpt><trkpt lat="37.941005" lon="14.959615"><ele>1166.1428571428573</ele><time>2026-03-22T13:04:03.775Z</time></trkpt><trkpt lat="37.94094" lon="14.9595983"><ele>1166.5714285714287</ele><time>2026-03-22T13:05:52.776Z</time></trkpt><trkpt lat="37.9409733" lon="14.9596667"><ele>1167.0</ele><time>2026-03-22T13:06:14.777Z</time></trkpt><trkpt lat="37.9409783" lon="14.9597533"><ele>1167.0</ele><time>2026-03-22T13:06:36.776Z</time></trkpt><trkpt lat="37.9409117" lon="14.959715"><ele>1167.0</ele><time>2026-03-22T13:06:56.776Z</time></trkpt><trkpt lat="37.94082" lon="14.9597367"><ele>1167.0</ele><time>2026-03-22T13:07:34.777Z</time></trkpt><trkpt lat="37.9407367" lon="14.9597817"><ele>1167.0</ele><time>2026-03-22T13:07:36.777Z</time></trkpt><trkpt lat="37.9406817" lon="14.9598367"><ele>1167.0</ele><time>2026-03-22T13:07:37.776Z</time></trkpt><trkpt lat="37.9406317" lon="14.9598917"><ele>1167.0</ele><time>2026-03-22T13:07:38.776Z</time></trkpt><trkpt lat="37.9405767" lon="14.9599517"><ele>1166.5</ele><time>2026-03-22T13:07:39.776Z</time></trkpt><trkpt lat="37.9405217" lon="14.9600233"><ele>1166.0</ele><time>2026-03-22T13:07:40.777Z</time></trkpt><trkpt lat="37.940465" lon="14.960095"><ele>1165.5</ele><time>2026-03-22T13:07:41.776Z</time></trkpt><trkpt lat="37.940405" lon="14.9601633"><ele>1165.0</ele><time>2026-03-22T13:07:42.777Z</time></trkpt><trkpt lat="37.9403417" lon="14.960245"><ele>1164.5</ele><time>2026-03-22T13:07:43.777Z</time></trkpt><trkpt lat="37.9402817" lon="14.9603017"><ele>1164.0</ele><time>2026-03-22T13:07:44.777Z</time></trkpt><trkpt lat="37.9402133" lon="14.9603283"><ele>1162.6666666666667</ele><time>2026-03-22T13:07:45.776Z</time></trkpt><trkpt lat="37.9401417" lon="14.9603167"><ele>1161.3333333333333</ele><time>2026-03-22T13:07:46.777Z</time></trkpt><trkpt lat="37.940075" lon="14.9602717"><ele>1160.0</ele><time>2026-03-22T13:07:47.776Z</time></trkpt><trkpt lat="37.9400117" lon="14.9602133"><ele>1158.6666666666665</ele><time>2026-03-22T13:07:48.776Z</time></trkpt><trkpt lat="37.939955" lon="14.96014"><ele>1157.3333333333333</ele><time>2026-03-22T13:07:49.777Z</time></trkpt><trkpt lat="37.9398933" lon="14.9600467"><ele>1156.0</ele><time>2026-03-22T13:07:50.777Z</time></trkpt><trkpt lat="37.9398233" lon="14.9599617"><ele>1156.0</ele><time>2026-03-22T13:07:51.776Z</time></trkpt><trkpt lat="37.939745" lon="14.959885"><ele>1156.0</ele><time>2026-03-22T13:07:52.777Z</time></trkpt><trkpt lat="37.939665" lon="14.959805"><ele>1156.0</ele><time>2026-03-22T13:07:53.777Z</time></trkpt><trkpt lat="37.93958" lon="14.95974"><ele>1156.0</ele><time>2026-03-22T13:07:54.777Z</time></trkpt><trkpt lat="37.9394933" lon="14.95966"><ele>1156.0</ele><time>2026-03-22T13:07:55.776Z</time></trkpt><trkpt lat="37.9394067" lon="14.9595833"><ele>1156.0</ele><time>2026-03-22T13:07:56.776Z</time></trkpt><trkpt lat="37.9393217" lon="14.9595"><ele>1156.0</ele><time>2026-03-22T13:07:57.776Z</time></trkpt><trkpt lat="37.9392367" lon="14.9594217"><ele>1156.0</ele><time>2026-03-22T13:07:58.777Z</time></trkpt><trkpt lat="37.9391517" lon="14.9593483"><ele>1156.0</ele><time>2026-03-22T13:07:59.777Z</time></trkpt><trkpt lat="37.9390633" lon="14.95927"><ele>1156.0</ele><time>2026-03-22T13:08:00.777Z</time></trkpt><trkpt lat="37.9389783" lon="14.959185"><ele>1156.3999999999999</ele><time>2026-03-22T13:08:01.777Z</time></trkpt><trkpt lat="37.9388883" lon="14.9590983"><ele>1156.8</ele><time>2026-03-22T13:08:02.776Z</time></trkpt><trkpt lat="37.9387967" lon="14.9590217"><ele>1157.1999999999998</ele><time>2026-03-22T13:08:03.776Z</time></trkpt><trkpt lat="37.9387067" lon="14.9589567"><ele>1157.6</ele><time>2026-03-22T13:08:04.776Z</time></trkpt><trkpt lat="37.9386167" lon="14.9589033"><ele>1158.0</ele><time>2026-03-22T13:08:05.777Z</time></trkpt><trkpt lat="37.93852" lon="14.9588767"><ele>1158.0</ele><time>2026-03-22T13:08:06.777Z</time></trkpt><trkpt lat="37.938415" lon="14.9588717"><ele>1158.0</ele><time>2026-03-22T13:08:07.777Z</time></trkpt><trkpt lat="37.9383017" lon="14.9588867"><ele>1158.0</ele><time>2026-03-22T13:08:08.776Z</time></trkpt><trkpt lat="37.938195" lon="14.958915"><ele>1158.0</ele><time>2026-03-22T13:08:09.776Z</time></trkpt><trkpt lat="37.9380917" lon="14.9589517"><ele>1158.0</ele><time>2026-03-22T13:08:10.776Z</time></trkpt><trkpt lat="37.93798" lon="14.9589817"><ele>1154.5</ele><time>2026-03-22T13:08:11.777Z</time></trkpt><trkpt lat="37.937865" lon="14.9590167"><ele>1151.0</ele><time>2026-03-22T13:08:12.777Z</time></trkpt><trkpt lat="37.9377483" lon="14.9590517"><ele>1147.5</ele><time>2026-03-22T13:08:13.776Z</time></trkpt><trkpt lat="37.9376317" lon="14.95908"><ele>1144.0</ele><time>2026-03-22T13:08:14.776Z</time></trkpt><trkpt lat="37.9375167" lon="14.9591033"><ele>1144.0</ele><time>2026-03-22T13:08:15.777Z</time></trkpt><trkpt lat="37.9373983" lon="14.959125"><ele>1144.0</ele><time>2026-03-22T13:08:16.776Z</time></trkpt><trkpt lat="37.9372817" lon="14.9591417"><ele>1144.0</ele><time>2026-03-22T13:08:17.776Z</time></trkpt><trkpt lat="37.937165" lon="14.9591433"><ele>1144.0</ele><time>2026-03-22T13:08:18.776Z</time></trkpt><trkpt lat="37.937045" lon="14.9591317"><ele>1144.0</ele><time>2026-03-22T13:08:19.776Z</time></trkpt><trkpt lat="37.9369183" lon="14.9590983"><ele>1144.0</ele><time>2026-03-22T13:08:20.776Z</time></trkpt><trkpt lat="37.9367933" lon="14.9590483"><ele>1144.0</ele><time>2026-03-22T13:08:21.776Z</time></trkpt><trkpt lat="37.93667" lon="14.95899"><ele>1144.0</ele><time>2026-03-22T13:08:22.777Z</time></trkpt><trkpt lat="37.9365533" lon="14.958915"><ele>1142.0</ele><time>2026-03-22T13:08:23.776Z</time></trkpt><trkpt lat="37.9364467" lon="14.95882"><ele>1140.0</ele><time>2026-03-22T13:08:24.777Z</time></trkpt><trkpt lat="37.9363467" lon="14.9587167"><ele>1138.0</ele><time>2026-03-22T13:08:25.776Z</time></trkpt><trkpt lat="37.9362567" lon="14.9586183"><ele>1136.0</ele><time>2026-03-22T13:08:26.777Z</time></trkpt><trkpt lat="37.9361717" lon="14.95852"><ele>1136.0</ele><time>2026-03-22T13:08:27.776Z</time></trkpt><trkpt lat="37.9360917" lon="14.9584217"><ele>1136.0</ele><time>2026-03-22T13:08:28.776Z</time></trkpt><trkpt lat="37.936015" lon="14.95833"><ele>1136.0</ele><time>2026-03-22T13:08:29.777Z</time></trkpt><trkpt lat="37.93594" lon="14.958235"><ele>1136.0</ele><time>2026-03-22T13:08:30.777Z</time></trkpt><trkpt lat="37.9358483" lon="14.95816"><ele>1136.0</ele><time>2026-03-22T13:08:31.776Z</time></trkpt><trkpt lat="37.9357483" lon="14.95811"><ele>1136.6</ele><time>2026-03-22T13:08:32.777Z</time></trkpt><trkpt lat="37.9356417" lon="14.9580867"><ele>1137.1999999999998</ele><time>2026-03-22T13:08:33.777Z</time></trkpt><trkpt lat="37.93554" lon="14.9580833"><ele>1137.8000000000002</ele><time>2026-03-22T13:08:34.776Z</time></trkpt><trkpt lat="37.9354383" lon="14.9580917"><ele>1138.4</ele><time>2026-03-22T13:08:35.777Z</time></trkpt><trkpt lat="37.9353383" lon="14.9580933"><ele>1139.0</ele><time>2026-03-22T13:08:36.776Z</time></trkpt><trkpt lat="37.9352367" lon="14.9580717"><ele>1139.0</ele><time>2026-03-22T13:08:37.777Z</time></trkpt><trkpt lat="37.9351383" lon="14.9580233"><ele>1139.0</ele><time>2026-03-22T13:08:38.777Z</time></trkpt><trkpt lat="37.93504" lon="14.95796"><ele>1139.0</ele><time>2026-03-22T13:08:39.776Z</time></trkpt><trkpt lat="37.934935" lon="14.9578933"><ele>1139.0</ele><time>2026-03-22T13:08:40.776Z</time></trkpt><trkpt lat="37.934825" lon="14.957825"><ele>1141.25</ele><time>2026-03-22T13:08:41.777Z</time></trkpt><trkpt lat="37.9347167" lon="14.9577483"><ele>1143.5</ele><time>2026-03-22T13:08:42.776Z</time></trkpt><trkpt lat="37.93461" lon="14.9576767"><ele>1145.75</ele><time>2026-03-22T13:08:43.777Z</time></trkpt><trkpt lat="37.9345017" lon="14.9576083"><ele>1148.0</ele><time>2026-03-22T13:08:44.777Z</time></trkpt><trkpt lat="37.9343967" lon="14.9575333"><ele>1148.0</ele><time>2026-03-22T13:08:45.776Z</time></trkpt><trkpt lat="37.9342967" lon="14.9574533"><ele>1148.0</ele><time>2026-03-22T13:08:46.776Z</time></trkpt><trkpt lat="37.93421" lon="14.95736"><ele>1148.0</ele><time>2026-03-22T13:08:47.777Z</time></trkpt><trkpt lat="37.93415" lon="14.9572467"><ele>1148.0</ele><time>2026-03-22T13:08:48.776Z</time></trkpt><trkpt lat="37.9341167" lon="14.9571133"><ele>1145.6</ele><time>2026-03-22T13:08:49.777Z</time></trkpt><trkpt lat="37.934105" lon="14.956975"><ele>1143.1999999999998</ele><time>2026-03-22T13:08:50.776Z</time></trkpt><trkpt lat="37.934105" lon="14.9568383"><ele>1140.8</ele><time>2026-03-22T13:08:51.777Z</time></trkpt><trkpt lat="37.9341083" lon="14.9566967"><ele>1138.3999999999999</ele><time>2026-03-22T13:08:52.777Z</time></trkpt><trkpt lat="37.93411" lon="14.9565533"><ele>1136.0</ele><time>2026-03-22T13:08:53.776Z</time></trkpt><trkpt lat="37.9341017" lon="14.95641"><ele>1136.0</ele><time>2026-03-22T13:08:54.777Z</time></trkpt><trkpt lat="37.934085" lon="14.9562667"><ele>1136.0</ele><time>2026-03-22T13:08:55.777Z</time></trkpt><trkpt lat="37.9340617" lon="14.9561283"><ele>1136.0</ele><time>2026-03-22T13:08:56.777Z</time></trkpt><trkpt lat="37.93403" lon="14.9559867"><ele>1136.0</ele><time>2026-03-22T13:08:57.777Z</time></trkpt><trkpt lat="37.9340017" lon="14.9558417"><ele>1135.8</ele><time>2026-03-22T13:08:58.777Z</time></trkpt><trkpt lat="37.9339833" lon="14.95571"><ele>1135.6</ele><time>2026-03-22T13:08:59.777Z</time></trkpt><trkpt lat="37.9339817" lon="14.9555817"><ele>1135.4</ele><time>2026-03-22T13:09:00.776Z</time></trkpt><trkpt lat="37.933975" lon="14.9554583"><ele>1135.2</ele><time>2026-03-22T13:09:01.776Z</time></trkpt><trkpt lat="37.933945" lon="14.9553333"><ele>1135.0</ele><time>2026-03-22T13:09:02.776Z</time></trkpt><trkpt lat="37.9338983" lon="14.9552"><ele>1135.0</ele><time>2026-03-22T13:09:03.776Z</time></trkpt><trkpt lat="37.93384" lon="14.95506"><ele>1135.0</ele><time>2026-03-22T13:09:04.777Z</time></trkpt><trkpt lat="37.9337767" lon="14.95491"><ele>1135.0</ele><time>2026-03-22T13:09:05.776Z</time></trkpt><trkpt lat="37.9337083" lon="14.954755"><ele>1135.0</ele><time>2026-03-22T13:09:06.777Z</time></trkpt><trkpt lat="37.93364" lon="14.9545983"><ele>1137.75</ele><time>2026-03-22T13:09:07.777Z</time></trkpt><trkpt lat="37.933575" lon="14.954445"><ele>1140.5</ele><time>2026-03-22T13:09:08.776Z</time></trkpt><trkpt lat="37.93352" lon="14.9542917"><ele>1143.25</ele><time>2026-03-22T13:09:09.777Z</time></trkpt><trkpt lat="37.933485" lon="14.9541517"><ele>1146.0</ele><time>2026-03-22T13:09:10.776Z</time></trkpt><trkpt lat="37.9334717" lon="14.954015"><ele>1143.6666666666667</ele><time>2026-03-22T13:09:11.776Z</time></trkpt><trkpt lat="37.9334733" lon="14.9538917"><ele>1141.3333333333333</ele><time>2026-03-22T13:09:12.777Z</time></trkpt><trkpt lat="37.933485" lon="14.9537717"><ele>1139.0</ele><time>2026-03-22T13:09:13.777Z</time></trkpt><trkpt lat="37.9334833" lon="14.9536633"><ele>1136.6666666666665</ele><time>2026-03-22T13:09:14.776Z</time></trkpt><trkpt lat="37.9334533" lon="14.9535683"><ele>1134.3333333333333</ele><time>2026-03-22T13:09:15.777Z</time></trkpt><trkpt lat="37.9333983" lon="14.95349"><ele>1132.0</ele><time>2026-03-22T13:09:16.776Z</time></trkpt><trkpt lat="37.9333217" lon="14.9534467"><ele>1132.0</ele><time>2026-03-22T13:09:17.777Z</time></trkpt><trkpt lat="37.93324" lon="14.9534383"><ele>1132.0</ele><time>2026-03-22T13:09:18.776Z</time></trkpt><trkpt lat="37.9331583" lon="14.953465"><ele>1132.0</ele><time>2026-03-22T13:09:19.777Z</time></trkpt><trkpt lat="37.9330783" lon="14.9535183"><ele>1132.0</ele><time>2026-03-22T13:09:20.776Z</time></trkpt><trkpt lat="37.9330083" lon="14.95359"><ele>1132.0</ele><time>2026-03-22T13:09:21.777Z</time></trkpt><trkpt lat="37.9329383" lon="14.95368"><ele>1132.0</ele><time>2026-03-22T13:09:22.777Z</time></trkpt><trkpt lat="37.9328767" lon="14.953785"><ele>1132.0</ele><time>2026-03-22T13:09:23.776Z</time></trkpt><trkpt lat="37.932815" lon="14.9538817"><ele>1132.0</ele><time>2026-03-22T13:09:24.776Z</time></trkpt><trkpt lat="37.9327533" lon="14.9539767"><ele>1132.0</ele><time>2026-03-22T13:09:25.777Z</time></trkpt><trkpt lat="37.9326967" lon="14.9540817"><ele>1132.0</ele><time>2026-03-22T13:09:26.777Z</time></trkpt><trkpt lat="37.9326517" lon="14.954185"><ele>1132.0</ele><time>2026-03-22T13:09:27.777Z</time></trkpt><trkpt lat="37.93261" lon="14.95431"><ele>1131.2</ele><time>2026-03-22T13:09:28.776Z</time></trkpt><trkpt lat="37.9325667" lon="14.9544183"><ele>1130.4</ele><time>2026-03-22T13:09:29.776Z</time></trkpt><trkpt lat="37.9325133" lon="14.9545217"><ele>1129.6</ele><time>2026-03-22T13:09:30.777Z</time></trkpt><trkpt lat="37.9324383" lon="14.95461"><ele>1128.8</ele><time>2026-03-22T13:09:31.776Z</time></trkpt><trkpt lat="37.9323467" lon="14.95468"><ele>1128.0</ele><time>2026-03-22T13:09:32.777Z</time></trkpt><trkpt lat="37.9322433" lon="14.9547383"><ele>1128.0</ele><time>2026-03-22T13:09:33.776Z</time></trkpt><trkpt lat="37.9321333" lon="14.954785"><ele>1128.0</ele><time>2026-03-22T13:09:34.777Z</time></trkpt><trkpt lat="37.9320283" lon="14.95484"><ele>1128.0</ele><time>2026-03-22T13:09:35.777Z</time></trkpt><trkpt lat="37.931925" lon="14.9548883"><ele>1128.0</ele><time>2026-03-22T13:09:36.777Z</time></trkpt><trkpt lat="37.9318183" lon="14.9549367"><ele>1130.5</ele><time>2026-03-22T13:09:37.777Z</time></trkpt><trkpt lat="37.9317117" lon="14.9549683"><ele>1133.0</ele><time>2026-03-22T13:09:38.777Z</time></trkpt><trkpt lat="37.9315917" lon="14.95498"><ele>1135.5</ele><time>2026-03-22T13:09:39.776Z</time></trkpt><trkpt lat="37.9314617" lon="14.9549767"><ele>1138.0</ele><time>2026-03-22T13:09:40.776Z</time></trkpt><trkpt lat="37.9313267" lon="14.9549617"><ele>1138.0</ele><time>2026-03-22T13:09:41.776Z</time></trkpt><trkpt lat="37.9311967" lon="14.9549683"><ele>1138.0</ele><time>2026-03-22T13:09:42.777Z</time></trkpt><trkpt lat="37.93107" lon="14.95501"><ele>1138.0</ele><time>2026-03-22T13:09:43.776Z</time></trkpt><trkpt lat="37.93095" lon="14.9550867"><ele>1138.0</ele><time>2026-03-22T13:09:44.777Z</time></trkpt><trkpt lat="37.93084" lon="14.9551767"><ele>1134.25</ele><time>2026-03-22T13:09:45.776Z</time></trkpt><trkpt lat="37.9307383" lon="14.9552617"><ele>1130.5</ele><time>2026-03-22T13:09:46.777Z</time></trkpt><trkpt lat="37.930645" lon="14.9553433"><ele>1126.75</ele><time>2026-03-22T13:09:47.776Z</time></trkpt><trkpt lat="37.9305483" lon="14.9554233"><ele>1123.0</ele><time>2026-03-22T13:09:48.777Z</time></trkpt><trkpt lat="37.9304467" lon="14.9555083"><ele>1123.0</ele><time>2026-03-22T13:09:49.776Z</time></trkpt><trkpt lat="37.9303367" lon="14.9556"><ele>1123.0</ele><time>2026-03-22T13:09:50.776Z</time></trkpt><trkpt lat="37.93022" lon="14.9556617"><ele>1123.0</ele><time>2026-03-22T13:09:51.777Z</time></trkpt><trkpt lat="37.9301067" lon="14.9557183"><ele>1123.0</ele><time>2026-03-22T13:09:52.777Z</time></trkpt><trkpt lat="37.93" lon="14.9558017"><ele>1121.75</ele><time>2026-03-22T13:09:53.777Z</time></trkpt><trkpt lat="37.929915" lon="14.9559"><ele>1120.5</ele><time>2026-03-22T13:09:54.777Z</time></trkpt><trkpt lat="37.9298383" lon="14.956005"><ele>1119.25</ele><time>2026-03-22T13:09:55.776Z</time></trkpt><trkpt lat="37.9297567" lon="14.9561233"><ele>1118.0</ele><time>2026-03-22T13:09:56.776Z</time></trkpt><trkpt lat="37.929675" lon="14.9562433"><ele>1118.0</ele><time>2026-03-22T13:09:57.776Z</time></trkpt><trkpt lat="37.9295967" lon="14.9563633"><ele>1118.0</ele><time>2026-03-22T13:09:58.776Z</time></trkpt><trkpt lat="37.92953" lon="14.956485"><ele>1118.0</ele><time>2026-03-22T13:09:59.777Z</time></trkpt><trkpt lat="37.92948" lon="14.9566117"><ele>1118.0</ele><time>2026-03-22T13:10:00.777Z</time></trkpt><trkpt lat="37.9294567" lon="14.956745"><ele>1119.4</ele><time>2026-03-22T13:10:01.777Z</time></trkpt><trkpt lat="37.9294467" lon="14.956865"><ele>1120.8</ele><time>2026-03-22T13:10:02.776Z</time></trkpt><trkpt lat="37.9294217" lon="14.956985"><ele>1122.2</ele><time>2026-03-22T13:10:03.776Z</time></trkpt><trkpt lat="37.9293717" lon="14.9571017"><ele>1123.6</ele><time>2026-03-22T13:10:04.776Z</time></trkpt><trkpt lat="37.9292967" lon="14.957215"><ele>1125.0</ele><time>2026-03-22T13:10:05.777Z</time></trkpt><trkpt lat="37.9292" lon="14.957315"><ele>1125.0</ele><time>2026-03-22T13:10:06.776Z</time></trkpt><trkpt lat="37.9291" lon="14.957415"><ele>1125.0</ele><time>2026-03-22T13:10:07.777Z</time></trkpt><trkpt lat="37.929005" lon="14.9575033"><ele>1125.0</ele><time>2026-03-22T13:10:08.777Z</time></trkpt><trkpt lat="37.9289117" lon="14.9575867"><ele>1125.0</ele><time>2026-03-22T13:10:09.776Z</time></trkpt><trkpt lat="37.9288183" lon="14.9576717"><ele>1118.25</ele><time>2026-03-22T13:10:10.777Z</time></trkpt><trkpt lat="37.928725" lon="14.9577633"><ele>1111.5</ele><time>2026-03-22T13:10:11.776Z</time></trkpt><trkpt lat="37.9286367" lon="14.9578583"><ele>1104.75</ele><time>2026-03-22T13:10:12.776Z</time></trkpt><trkpt lat="37.928545" lon="14.957965"><ele>1098.0</ele><time>2026-03-22T13:10:13.777Z</time></trkpt><trkpt lat="37.9284583" lon="14.9580833"><ele>1095.75</ele><time>2026-03-22T13:10:14.778Z</time></trkpt><trkpt lat="37.9283767" lon="14.9582083"><ele>1093.5</ele><time>2026-03-22T13:10:15.777Z</time></trkpt><trkpt lat="37.9282967" lon="14.958345"><ele>1091.25</ele><time>2026-03-22T13:10:16.778Z</time></trkpt><trkpt lat="37.9282167" lon="14.9584767"><ele>1089.0</ele><time>2026-03-22T13:10:17.777Z</time></trkpt><trkpt lat="37.928135" lon="14.958605"><ele>1089.0</ele><time>2026-03-22T13:10:18.777Z</time></trkpt><trkpt lat="37.928045" lon="14.9587117"><ele>1089.0</ele><time>2026-03-22T13:10:19.778Z</time></trkpt><trkpt lat="37.927945" lon="14.9587667"><ele>1089.0</ele><time>2026-03-22T13:10:20.777Z</time></trkpt><trkpt lat="37.9278383" lon="14.958775"><ele>1089.0</ele><time>2026-03-22T13:10:21.777Z</time></trkpt><trkpt lat="37.9277233" lon="14.9587417"><ele>1089.0</ele><time>2026-03-22T13:10:22.777Z</time></trkpt><trkpt lat="37.9276117" lon="14.958695"><ele>1089.0</ele><time>2026-03-22T13:10:23.778Z</time></trkpt><trkpt lat="37.927505" lon="14.958655"><ele>1089.0</ele><time>2026-03-22T13:10:24.778Z</time></trkpt><trkpt lat="37.927395" lon="14.9586133"><ele>1089.0</ele><time>2026-03-22T13:10:25.777Z</time></trkpt><trkpt lat="37.9272883" lon="14.9585967"><ele>1091.75</ele><time>2026-03-22T13:10:26.777Z</time></trkpt><trkpt lat="37.9271833" lon="14.958615"><ele>1094.5</ele><time>2026-03-22T13:10:27.778Z</time></trkpt><trkpt lat="37.9270717" lon="14.9586683"><ele>1097.25</ele><time>2026-03-22T13:10:28.777Z</time></trkpt><trkpt lat="37.9269583" lon="14.9587467"><ele>1100.0</ele><time>2026-03-22T13:10:29.777Z</time></trkpt><trkpt lat="37.9268367" lon="14.9588383"><ele>1102.5</ele><time>2026-03-22T13:10:30.777Z</time></trkpt><trkpt lat="37.926715" lon="14.9589333"><ele>1105.0</ele><time>2026-03-22T13:10:31.777Z</time></trkpt><trkpt lat="37.9265967" lon="14.9590333"><ele>1107.5</ele><time>2026-03-22T13:10:32.777Z</time></trkpt><trkpt lat="37.92649" lon="14.9591367"><ele>1110.0</ele><time>2026-03-22T13:10:33.778Z</time></trkpt><trkpt lat="37.926405" lon="14.9592367"><ele>1104.1666666666667</ele><time>2026-03-22T13:10:34.777Z</time></trkpt><trkpt lat="37.9263283" lon="14.9593283"><ele>1098.3333333333333</ele><time>2026-03-22T13:10:35.778Z</time></trkpt><trkpt lat="37.9262533" lon="14.9593917"><ele>1092.5</ele><time>2026-03-22T13:10:36.777Z</time></trkpt><trkpt lat="37.9261833" lon="14.95942"><ele>1086.6666666666665</ele><time>2026-03-22T13:10:37.777Z</time></trkpt><trkpt lat="37.9261017" lon="14.959415"><ele>1080.8333333333333</ele><time>2026-03-22T13:10:38.777Z</time></trkpt><trkpt lat="37.92603" lon="14.9593717"><ele>1075.0</ele><time>2026-03-22T13:10:39.778Z</time></trkpt><trkpt lat="37.9259717" lon="14.9592767"><ele>1081.25</ele><time>2026-03-22T13:10:40.778Z</time></trkpt><trkpt lat="37.9259083" lon="14.95917"><ele>1087.5</ele><time>2026-03-22T13:10:41.777Z</time></trkpt><trkpt lat="37.925825" lon="14.95909"><ele>1093.75</ele><time>2026-03-22T13:10:42.778Z</time></trkpt><trkpt lat="37.9257067" lon="14.9590417"><ele>1100.0</ele><time>2026-03-22T13:10:43.777Z</time></trkpt><trkpt lat="37.9255867" lon="14.9590183"><ele>1100.0</ele><time>2026-03-22T13:10:44.778Z</time></trkpt><trkpt lat="37.925475" lon="14.9590067"><ele>1100.0</ele><time>2026-03-22T13:10:45.777Z</time></trkpt><trkpt lat="37.92536" lon="14.9589817"><ele>1100.0</ele><time>2026-03-22T13:10:46.778Z</time></trkpt><trkpt lat="37.9252383" lon="14.9589317"><ele>1100.0</ele><time>2026-03-22T13:10:47.778Z</time></trkpt><trkpt lat="37.9251133" lon="14.9588667"><ele>1096.75</ele><time>2026-03-22T13:10:48.778Z</time></trkpt><trkpt lat="37.9249933" lon="14.958805"><ele>1093.5</ele><time>2026-03-22T13:10:49.777Z</time></trkpt><trkpt lat="37.924875" lon="14.9587417"><ele>1090.25</ele><time>2026-03-22T13:10:50.777Z</time></trkpt><trkpt lat="37.9247567" lon="14.9586633"><ele>1087.0</ele><time>2026-03-22T13:10:51.777Z</time></trkpt><trkpt lat="37.92464" lon="14.95857"><ele>1087.0</ele><time>2026-03-22T13:10:52.777Z</time></trkpt><trkpt lat="37.9245267" lon="14.958465"><ele>1087.0</ele><time>2026-03-22T13:10:53.777Z</time></trkpt><trkpt lat="37.9244217" lon="14.9583533"><ele>1087.0</ele><time>2026-03-22T13:10:54.778Z</time></trkpt><trkpt lat="37.9243183" lon="14.9582433"><ele>1087.0</ele><time>2026-03-22T13:10:55.777Z</time></trkpt><trkpt lat="37.924215" lon="14.9581367"><ele>1086.75</ele><time>2026-03-22T13:10:56.778Z</time></trkpt><trkpt lat="37.9241033" lon="14.9580317"><ele>1086.5</ele><time>2026-03-22T13:10:57.778Z</time></trkpt><trkpt lat="37.9239767" lon="14.9579483"><ele>1086.25</ele><time>2026-03-22T13:10:58.778Z</time></trkpt><trkpt lat="37.9238333" lon="14.9578817"><ele>1086.0</ele><time>2026-03-22T13:10:59.778Z</time></trkpt><trkpt lat="37.9236867" lon="14.9578383"><ele>1086.0</ele><time>2026-03-22T13:11:00.777Z</time></trkpt><trkpt lat="37.92354" lon="14.9578167"><ele>1086.0</ele><time>2026-03-22T13:11:01.778Z</time></trkpt><trkpt lat="37.9233883" lon="14.9578167"><ele>1086.0</ele><time>2026-03-22T13:11:02.778Z</time></trkpt><trkpt lat="37.9232433" lon="14.957825"><ele>1086.0</ele><time>2026-03-22T13:11:03.778Z</time></trkpt><trkpt lat="37.9231017" lon="14.9578267"><ele>1082.75</ele><time>2026-03-22T13:11:04.777Z</time></trkpt><trkpt lat="37.9229667" lon="14.9578267"><ele>1079.5</ele><time>2026-03-22T13:11:05.778Z</time></trkpt><trkpt lat="37.922835" lon="14.95783"><ele>1076.25</ele><time>2026-03-22T13:11:06.777Z</time></trkpt><trkpt lat="37.9227117" lon="14.9578283"><ele>1073.0</ele><time>2026-03-22T13:11:07.778Z</time></trkpt><trkpt lat="37.9225917" lon="14.9578317"><ele>1072.25</ele><time>2026-03-22T13:11:08.778Z</time></trkpt><trkpt lat="37.9224767" lon="14.957855"><ele>1071.5</ele><time>2026-03-22T13:11:09.777Z</time></trkpt><trkpt lat="37.9223617" lon="14.9579"><ele>1070.75</ele><time>2026-03-22T13:11:10.778Z</time></trkpt><trkpt lat="37.9222517" lon="14.95798"><ele>1070.0</ele><time>2026-03-22T13:11:11.777Z</time></trkpt><trkpt lat="37.9221517" lon="14.9580817"><ele>1070.0</ele><time>2026-03-22T13:11:12.778Z</time></trkpt><trkpt lat="37.92205" lon="14.9581933"><ele>1070.0</ele><time>2026-03-22T13:11:13.777Z</time></trkpt><trkpt lat="37.9219417" lon="14.9582967"><ele>1070.0</ele><time>2026-03-22T13:11:14.777Z</time></trkpt><trkpt lat="37.9218383" lon="14.9584017"><ele>1070.0</ele><time>2026-03-22T13:11:15.777Z</time></trkpt><trkpt lat="37.921745" lon="14.95851"><ele>1069.5</ele><time>2026-03-22T13:11:16.778Z</time></trkpt><trkpt lat="37.9216567" lon="14.95862"><ele>1069.0</ele><time>2026-03-22T13:11:17.777Z</time></trkpt><trkpt lat="37.9215733" lon="14.9587283"><ele>1068.5</ele><time>2026-03-22T13:11:18.777Z</time></trkpt><trkpt lat="37.9214933" lon="14.9588367"><ele>1068.0</ele><time>2026-03-22T13:11:19.777Z</time></trkpt><trkpt lat="37.9214083" lon="14.9589483"><ele>1068.0</ele><time>2026-03-22T13:11:20.777Z</time></trkpt><trkpt lat="37.9213183" lon="14.9590617"><ele>1068.0</ele><time>2026-03-22T13:11:21.777Z</time></trkpt><trkpt lat="37.9212267" lon="14.95917"><ele>1068.0</ele><time>2026-03-22T13:11:22.778Z</time></trkpt><trkpt lat="37.921135" lon="14.9592717"><ele>1068.0</ele><time>2026-03-22T13:11:23.778Z</time></trkpt><trkpt lat="37.9210383" lon="14.959375"><ele>1067.5</ele><time>2026-03-22T13:11:24.777Z</time></trkpt><trkpt lat="37.9209517" lon="14.9594783"><ele>1067.0</ele><time>2026-03-22T13:11:25.777Z</time></trkpt><trkpt lat="37.920875" lon="14.959585"><ele>1066.5</ele><time>2026-03-22T13:11:26.777Z</time></trkpt><trkpt lat="37.9208117" lon="14.959695"><ele>1066.0</ele><time>2026-03-22T13:11:27.777Z</time></trkpt><trkpt lat="37.92076" lon="14.9598183"><ele>1066.0</ele><time>2026-03-22T13:11:28.777Z</time></trkpt><trkpt lat="37.9207383" lon="14.9599433"><ele>1066.0</ele><time>2026-03-22T13:11:29.777Z</time></trkpt><trkpt lat="37.9207633" lon="14.96008"><ele>1066.0</ele><time>2026-03-22T13:11:30.777Z</time></trkpt><trkpt lat="37.9208117" lon="14.9602017"><ele>1066.0</ele><time>2026-03-22T13:11:31.777Z</time></trkpt><trkpt lat="37.9208883" lon="14.9602933"><ele>1066.0</ele><time>2026-03-22T13:11:32.778Z</time></trkpt><trkpt lat="37.9209867" lon="14.96035"><ele>1063.2</ele><time>2026-03-22T13:11:33.778Z</time></trkpt><trkpt lat="37.9210933" lon="14.9603617"><ele>1060.3999999999999</ele><time>2026-03-22T13:11:34.778Z</time></trkpt><trkpt lat="37.9211917" lon="14.9603233"><ele>1057.6</ele><time>2026-03-22T13:11:35.778Z</time></trkpt><trkpt lat="37.9212767" lon="14.9602333"><ele>1054.8</ele><time>2026-03-22T13:11:36.777Z</time></trkpt><trkpt lat="37.92134" lon="14.9601217"><ele>1052.0</ele><time>2026-03-22T13:11:37.777Z</time></trkpt><trkpt lat="37.9214" lon="14.960015"><ele>1052.0</ele><time>2026-03-22T13:11:38.778Z</time></trkpt><trkpt lat="37.9214683" lon="14.959915"><ele>1052.0</ele><time>2026-03-22T13:11:39.777Z</time></trkpt><trkpt lat="37.9215433" lon="14.9598167"><ele>1052.0</ele><time>2026-03-22T13:11:40.778Z</time></trkpt><trkpt lat="37.921625" lon="14.9597183"><ele>1052.0</ele><time>2026-03-22T13:11:41.778Z</time></trkpt><trkpt lat="37.921705" lon="14.9596267"><ele>1052.0</ele><time>2026-03-22T13:11:42.778Z</time></trkpt><trkpt lat="37.92178" lon="14.95954"><ele>1051.3333333333335</ele><time>2026-03-22T13:11:43.778Z</time></trkpt><trkpt lat="37.9218483" lon="14.9594633"><ele>1050.6666666666667</ele><time>2026-03-22T13:11:44.777Z</time></trkpt><trkpt lat="37.92191" lon="14.9593817"><ele>1050.0</ele><time>2026-03-22T13:11:45.778Z</time></trkpt><trkpt lat="37.9219833" lon="14.9593183"><ele>1049.3333333333333</ele><time>2026-03-22T13:11:46.777Z</time></trkpt><trkpt lat="37.922065" lon="14.9592883"><ele>1048.6666666666665</ele><time>2026-03-22T13:11:47.777Z</time></trkpt><trkpt lat="37.9221483" lon="14.959295"><ele>1048.0</ele><time>2026-03-22T13:11:48.778Z</time></trkpt><trkpt lat="37.9222217" lon="14.9593317"><ele>1048.0</ele><time>2026-03-22T13:11:49.777Z</time></trkpt><trkpt lat="37.922285" lon="14.9594017"><ele>1048.0</ele><time>2026-03-22T13:11:50.778Z</time></trkpt><trkpt lat="37.9223233" lon="14.9594983"><ele>1048.0</ele><time>2026-03-22T13:11:51.778Z</time></trkpt><trkpt lat="37.922315" lon="14.959625"><ele>1048.0</ele><time>2026-03-22T13:11:52.778Z</time></trkpt><trkpt lat="37.9222717" lon="14.9597567"><ele>1048.0</ele><time>2026-03-22T13:11:53.777Z</time></trkpt><trkpt lat="37.922215" lon="14.95988"><ele>1048.0</ele><time>2026-03-22T13:11:54.777Z</time></trkpt><trkpt lat="37.922155" lon="14.95999"><ele>1048.0</ele><time>2026-03-22T13:11:55.778Z</time></trkpt><trkpt lat="37.92209" lon="14.9600933"><ele>1048.0</ele><time>2026-03-22T13:11:56.778Z</time></trkpt><trkpt lat="37.9220167" lon="14.9601933"><ele>1048.0</ele><time>2026-03-22T13:11:57.778Z</time></trkpt><trkpt lat="37.9219283" lon="14.9603"><ele>1048.0</ele><time>2026-03-22T13:11:58.777Z</time></trkpt><trkpt lat="37.9218267" lon="14.9603983"><ele>1046.25</ele><time>2026-03-22T13:11:59.778Z</time></trkpt><trkpt lat="37.921715" lon="14.9604883"><ele>1044.5</ele><time>2026-03-22T13:12:00.777Z</time></trkpt><trkpt lat="37.9215967" lon="14.96058"><ele>1042.75</ele><time>2026-03-22T13:12:01.777Z</time></trkpt><trkpt lat="37.9214817" lon="14.9606717"><ele>1041.0</ele><time>2026-03-22T13:12:02.778Z</time></trkpt><trkpt lat="37.92136" lon="14.9607667"><ele>1041.0</ele><time>2026-03-22T13:12:03.778Z</time></trkpt><trkpt lat="37.92124" lon="14.9608617"><ele>1041.0</ele><time>2026-03-22T13:12:04.778Z</time></trkpt><trkpt lat="37.9211267" lon="14.9609517"><ele>1041.0</ele><time>2026-03-22T13:12:05.778Z</time></trkpt><trkpt lat="37.921015" lon="14.9610367"><ele>1041.0</ele><time>2026-03-22T13:12:06.777Z</time></trkpt><trkpt lat="37.9209067" lon="14.9611217"><ele>1039.75</ele><time>2026-03-22T13:12:07.777Z</time></trkpt><trkpt lat="37.9208" lon="14.961205"><ele>1038.5</ele><time>2026-03-22T13:12:08.777Z</time></trkpt><trkpt lat="37.9207017" lon="14.9612833"><ele>1037.25</ele><time>2026-03-22T13:12:09.778Z</time></trkpt><trkpt lat="37.920605" lon="14.9613633"><ele>1036.0</ele><time>2026-03-22T13:12:10.777Z</time></trkpt><trkpt lat="37.920515" lon="14.9614533"><ele>1036.0</ele><time>2026-03-22T13:12:11.778Z</time></trkpt><trkpt lat="37.920425" lon="14.96155"><ele>1036.0</ele><time>2026-03-22T13:12:12.777Z</time></trkpt><trkpt lat="37.9203367" lon="14.9616567"><ele>1036.0</ele><time>2026-03-22T13:12:13.778Z</time></trkpt><trkpt lat="37.9202733" lon="14.9617683"><ele>1036.0</ele><time>2026-03-22T13:12:14.778Z</time></trkpt><trkpt lat="37.92022" lon="14.961875"><ele>1036.0</ele><time>2026-03-22T13:12:15.778Z</time></trkpt><trkpt lat="37.9201633" lon="14.9619767"><ele>1034.2</ele><time>2026-03-22T13:12:16.778Z</time></trkpt><trkpt lat="37.9201" lon="14.9620617"><ele>1032.3999999999999</ele><time>2026-03-22T13:12:17.778Z</time></trkpt><trkpt lat="37.9200233" lon="14.96213"><ele>1030.6</ele><time>2026-03-22T13:12:18.777Z</time></trkpt><trkpt lat="37.9199183" lon="14.9621733"><ele>1028.8</ele><time>2026-03-22T13:12:19.778Z</time></trkpt><trkpt lat="37.91981" lon="14.962215"><ele>1027.0</ele><time>2026-03-22T13:12:20.777Z</time></trkpt><trkpt lat="37.9197" lon="14.96226"><ele>1027.0</ele><time>2026-03-22T13:12:21.777Z</time></trkpt><trkpt lat="37.9195933" lon="14.9623017"><ele>1027.0</ele><time>2026-03-22T13:12:22.777Z</time></trkpt><trkpt lat="37.9194867" lon="14.9623433"><ele>1027.0</ele><time>2026-03-22T13:12:23.778Z</time></trkpt><trkpt lat="37.9193833" lon="14.9623867"><ele>1027.0</ele><time>2026-03-22T13:12:24.777Z</time></trkpt><trkpt lat="37.9192783" lon="14.9624233"><ele>1027.0</ele><time>2026-03-22T13:12:25.778Z</time></trkpt><trkpt lat="37.9191783" lon="14.9624333"><ele>1026.8</ele><time>2026-03-22T13:12:26.777Z</time></trkpt><trkpt lat="37.9190767" lon="14.9624317"><ele>1026.6</ele><time>2026-03-22T13:12:27.778Z</time></trkpt><trkpt lat="37.9189733" lon="14.9624033"><ele>1026.3999999999999</ele><time>2026-03-22T13:12:28.777Z</time></trkpt><trkpt lat="37.9188783" lon="14.9623833"><ele>1026.2</ele><time>2026-03-22T13:12:29.777Z</time></trkpt><trkpt lat="37.9187867" lon="14.9623733"><ele>1026.0</ele><time>2026-03-22T13:12:30.778Z</time></trkpt><trkpt lat="37.9187" lon="14.962365"><ele>1026.0</ele><time>2026-03-22T13:12:31.778Z</time></trkpt><trkpt lat="37.9186133" lon="14.96235"><ele>1026.0</ele><time>2026-03-22T13:12:32.777Z</time></trkpt><trkpt lat="37.9185283" lon="14.9623333"><ele>1026.0</ele><time>2026-03-22T13:12:33.777Z</time></trkpt><trkpt lat="37.918445" lon="14.9623133"><ele>1026.0</ele><time>2026-03-22T13:12:34.777Z</time></trkpt><trkpt lat="37.918365" lon="14.9623017"><ele>1026.0</ele><time>2026-03-22T13:12:35.778Z</time></trkpt><trkpt lat="37.9182767" lon="14.9622933"><ele>1026.0</ele><time>2026-03-22T13:12:36.778Z</time></trkpt><trkpt lat="37.91819" lon="14.9622933"><ele>1025.7142857142858</ele><time>2026-03-22T13:12:37.777Z</time></trkpt><trkpt lat="37.9181117" lon="14.9623067"><ele>1025.4285714285716</ele><time>2026-03-22T13:12:38.778Z</time></trkpt><trkpt lat="37.9180433" lon="14.9623217"><ele>1025.142857142857</ele><time>2026-03-22T13:12:39.777Z</time></trkpt><trkpt lat="37.9179767" lon="14.9623367"><ele>1024.857142857143</ele><time>2026-03-22T13:12:40.777Z</time></trkpt><trkpt lat="37.9179117" lon="14.9623617"><ele>1024.5714285714284</ele><time>2026-03-22T13:12:41.777Z</time></trkpt><trkpt lat="37.9178433" lon="14.9623933"><ele>1024.2857142857142</ele><time>2026-03-22T13:12:42.778Z</time></trkpt><trkpt lat="37.9177733" lon="14.9624333"><ele>1024.0</ele><time>2026-03-22T13:12:43.777Z</time></trkpt><trkpt lat="37.9177" lon="14.9624583"><ele>1024.0</ele><time>2026-03-22T13:12:44.777Z</time></trkpt><trkpt lat="37.9176267" lon="14.9624767"><ele>1023.9999999999999</ele><time>2026-03-22T13:12:45.777Z</time></trkpt><trkpt lat="37.9175583" lon="14.9625017"><ele>1024.0</ele><time>2026-03-22T13:12:46.777Z</time></trkpt><trkpt lat="37.9174933" lon="14.9625267"><ele>1024.0</ele><time>2026-03-22T13:12:47.777Z</time></trkpt><trkpt lat="37.91743" lon="14.9625517"><ele>1023.9999999999999</ele><time>2026-03-22T13:12:48.777Z</time></trkpt><trkpt lat="37.9173567" lon="14.9625783"><ele>1024.0</ele><time>2026-03-22T13:12:49.778Z</time></trkpt><trkpt lat="37.9172833" lon="14.9626033"><ele>1024.0</ele><time>2026-03-22T13:12:50.777Z</time></trkpt><trkpt lat="37.9172183" lon="14.96263"><ele>1023.1666666666666</ele><time>2026-03-22T13:12:51.778Z</time></trkpt><trkpt lat="37.9171433" lon="14.962655"><ele>1022.3333333333333</ele><time>2026-03-22T13:12:52.778Z</time></trkpt><trkpt lat="37.9170667" lon="14.962685"><ele>1021.5</ele><time>2026-03-22T13:12:53.777Z</time></trkpt><trkpt lat="37.91699" lon="14.9627167"><ele>1020.6666666666667</ele><time>2026-03-22T13:12:54.777Z</time></trkpt><trkpt lat="37.9169183" lon="14.962755"><ele>1019.8333333333334</ele><time>2026-03-22T13:12:55.777Z</time></trkpt><trkpt lat="37.9168467" lon="14.9627983"><ele>1019.0</ele><time>2026-03-22T13:12:56.777Z</time></trkpt><trkpt lat="37.916775" lon="14.962845"><ele>1020.8333333333334</ele><time>2026-03-22T13:12:57.777Z</time></trkpt><trkpt lat="37.9167" lon="14.9628967"><ele>1022.6666666666667</ele><time>2026-03-22T13:12:58.778Z</time></trkpt><trkpt lat="37.9166333" lon="14.9629317"><ele>1024.5</ele><time>2026-03-22T13:12:59.778Z</time></trkpt><trkpt lat="37.9165567" lon="14.9629683"><ele>1026.3333333333333</ele><time>2026-03-22T13:13:00.777Z</time></trkpt><trkpt lat="37.91648" lon="14.9630033"><ele>1028.1666666666665</ele><time>2026-03-22T13:13:01.777Z</time></trkpt><trkpt lat="37.9163883" lon="14.963035"><ele>1030.0</ele><time>2026-03-22T13:13:02.777Z</time></trkpt><trkpt lat="37.9162867" lon="14.963055"><ele>1030.0</ele><time>2026-03-22T13:13:03.777Z</time></trkpt><trkpt lat="37.91618" lon="14.9630717"><ele>1030.0</ele><time>2026-03-22T13:13:04.777Z</time></trkpt><trkpt lat="37.9160717" lon="14.9630983"><ele>1030.0</ele><time>2026-03-22T13:13:05.778Z</time></trkpt><trkpt lat="37.9159667" lon="14.9631483"><ele>1030.0</ele><time>2026-03-22T13:13:06.778Z</time></trkpt><trkpt lat="37.9158617" lon="14.9631883"><ele>1030.0</ele><time>2026-03-22T13:13:07.778Z</time></trkpt><trkpt lat="37.91577" lon="14.963215"><ele>1030.25</ele><time>2026-03-22T13:13:08.777Z</time></trkpt><trkpt lat="37.9156683" lon="14.9632467"><ele>1030.5</ele><time>2026-03-22T13:13:09.778Z</time></trkpt><trkpt lat="37.91556" lon="14.9632724"><ele>1030.75</ele><time>2026-03-22T13:13:10.777Z</time></trkpt><trkpt lat="37.9154432" lon="14.9632945"><ele>1031.0</ele><time>2026-03-22T13:13:11.777Z</time></trkpt><trkpt lat="37.9153289" lon="14.963337"><ele>1029.0</ele><time>2026-03-22T13:13:12.778Z</time></trkpt><trkpt lat="37.9152284" lon="14.9634124"><ele>1027.0</ele><time>2026-03-22T13:13:13.778Z</time></trkpt><trkpt lat="37.9151326" lon="14.9635172"><ele>1025.0</ele><time>2026-03-22T13:13:14.778Z</time></trkpt><trkpt lat="37.9150309" lon="14.9636223"><ele>1023.0</ele><time>2026-03-22T13:13:15.778Z</time></trkpt><trkpt lat="37.9149331" lon="14.9637189"><ele>1023.0</ele><time>2026-03-22T13:13:16.777Z</time></trkpt><trkpt lat="37.914844" lon="14.9637987"><ele>1023.0</ele><time>2026-03-22T13:13:17.777Z</time></trkpt><trkpt lat="37.9147586" lon="14.9638874"><ele>1023.0</ele><time>2026-03-22T13:13:18.778Z</time></trkpt><trkpt lat="37.9146747" lon="14.9639676"><ele>1023.0</ele><time>2026-03-22T13:13:19.777Z</time></trkpt><trkpt lat="37.9145969" lon="14.9640451"><ele>1023.0</ele><time>2026-03-22T13:13:20.777Z</time></trkpt><trkpt lat="37.9145259" lon="14.9641204"><ele>1023.0</ele><time>2026-03-22T13:13:21.777Z</time></trkpt><trkpt lat="37.9144388" lon="14.964187"><ele>1023.0</ele><time>2026-03-22T13:13:22.777Z</time></trkpt><trkpt lat="37.9143321" lon="14.9642434"><ele>1023.0</ele><time>2026-03-22T13:13:23.777Z</time></trkpt><trkpt lat="37.9142188" lon="14.9643051"><ele>1023.0</ele><time>2026-03-22T13:13:24.777Z</time></trkpt><trkpt lat="37.9140994" lon="14.9643719"><ele>1021.0</ele><time>2026-03-22T13:13:25.777Z</time></trkpt><trkpt lat="37.9139824" lon="14.9644427"><ele>1019.0</ele><time>2026-03-22T13:13:26.777Z</time></trkpt><trkpt lat="37.9138635" lon="14.9645129"><ele>1017.0</ele><time>2026-03-22T13:13:27.778Z</time></trkpt><trkpt lat="37.9137399" lon="14.9645812"><ele>1015.0</ele><time>2026-03-22T13:13:28.778Z</time></trkpt><trkpt lat="37.9136125" lon="14.9646431"><ele>1015.0</ele><time>2026-03-22T13:13:29.778Z</time></trkpt><trkpt lat="37.9134839" lon="14.9647091"><ele>1015.0</ele><time>2026-03-22T13:13:30.778Z</time></trkpt><trkpt lat="37.9133593" lon="14.964769"><ele>1015.0</ele><time>2026-03-22T13:13:31.778Z</time></trkpt><trkpt lat="37.913247" lon="14.9648163"><ele>1015.0</ele><time>2026-03-22T13:13:32.777Z</time></trkpt><trkpt lat="37.9131411" lon="14.9648489"><ele>1015.0</ele><time>2026-03-22T13:13:33.778Z</time></trkpt><trkpt lat="37.9130397" lon="14.9648544"><ele>1015.0</ele><time>2026-03-22T13:13:34.777Z</time></trkpt><trkpt lat="37.9129317" lon="14.9648252"><ele>1015.0</ele><time>2026-03-22T13:13:35.777Z</time></trkpt><trkpt lat="37.9128278" lon="14.9647549"><ele>1015.0</ele><time>2026-03-22T13:13:36.777Z</time></trkpt><trkpt lat="37.9127251" lon="14.9646667"><ele>1015.0</ele><time>2026-03-22T13:13:37.778Z</time></trkpt><trkpt lat="37.9126218" lon="14.9645963"><ele>1015.0</ele><time>2026-03-22T13:13:38.777Z</time></trkpt><trkpt lat="37.9125064" lon="14.9645523"><ele>1015.0</ele><time>2026-03-22T13:13:39.778Z</time></trkpt><trkpt lat="37.9123866" lon="14.9645274"><ele>1015.0</ele><time>2026-03-22T13:13:40.777Z</time></trkpt><trkpt lat="37.9122706" lon="14.9645224"><ele>1012.8</ele><time>2026-03-22T13:13:41.778Z</time></trkpt><trkpt lat="37.9121633" lon="14.9645357"><ele>1010.6</ele><time>2026-03-22T13:13:42.777Z</time></trkpt><trkpt lat="37.912061" lon="14.9645621"><ele>1008.4000000000001</ele><time>2026-03-22T13:13:43.778Z</time></trkpt><trkpt lat="37.911961" lon="14.9645996"><ele>1006.2</ele><time>2026-03-22T13:13:44.777Z</time></trkpt><trkpt lat="37.9118684" lon="14.9646413"><ele>1004.0</ele><time>2026-03-22T13:13:45.778Z</time></trkpt><trkpt lat="37.9117851" lon="14.9646778"><ele>1003.0</ele><time>2026-03-22T13:13:46.778Z</time></trkpt><trkpt lat="37.9116963" lon="14.9646981"><ele>1002.0000000000001</ele><time>2026-03-22T13:13:47.778Z</time></trkpt><trkpt lat="37.9116024" lon="14.9646896"><ele>1001.0000000000001</ele><time>2026-03-22T13:13:48.777Z</time></trkpt><trkpt lat="37.9115102" lon="14.9646432"><ele>1000.0</ele><time>2026-03-22T13:13:49.778Z</time></trkpt><trkpt lat="37.9114173" lon="14.9645728"><ele>999.0</ele><time>2026-03-22T13:13:50.777Z</time></trkpt><trkpt lat="37.9113269" lon="14.964492"><ele>999.0</ele><time>2026-03-22T13:13:51.777Z</time></trkpt><trkpt lat="37.9112454" lon="14.9644078"><ele>999.0000000000001</ele><time>2026-03-22T13:13:52.777Z</time></trkpt><trkpt lat="37.9111672" lon="14.9643272"><ele>999.0000000000001</ele><time>2026-03-22T13:13:53.777Z</time></trkpt><trkpt lat="37.9110919" lon="14.9642452"><ele>999.0</ele><time>2026-03-22T13:13:54.777Z</time></trkpt><trkpt lat="37.9110134" lon="14.9641617"><ele>999.0</ele><time>2026-03-22T13:13:55.777Z</time></trkpt><trkpt lat="37.9109253" lon="14.964074"><ele>998.0</ele><time>2026-03-22T13:13:56.778Z</time></trkpt><trkpt lat="37.9108221" lon="14.9639909"><ele>997.0</ele><time>2026-03-22T13:13:57.778Z</time></trkpt><trkpt lat="37.91071" lon="14.9639233"><ele>996.0</ele><time>2026-03-22T13:13:58.778Z</time></trkpt><trkpt lat="37.9106083" lon="14.9638783"><ele>995.0</ele><time>2026-03-22T13:13:59.777Z</time></trkpt><trkpt lat="37.9105033" lon="14.96384"><ele>995.0</ele><time>2026-03-22T13:14:00.777Z</time></trkpt><trkpt lat="37.9104067" lon="14.96381"><ele>995.0</ele><time>2026-03-22T13:14:01.777Z</time></trkpt><trkpt lat="37.9103067" lon="14.9637783"><ele>995.0</ele><time>2026-03-22T13:14:02.777Z</time></trkpt><trkpt lat="37.9101933" lon="14.9637467"><ele>995.0</ele><time>2026-03-22T13:14:03.777Z</time></trkpt><trkpt lat="37.9100883" lon="14.9637083"><ele>995.0</ele><time>2026-03-22T13:14:04.777Z</time></trkpt><trkpt lat="37.9099817" lon="14.9636717"><ele>992.2</ele><time>2026-03-22T13:14:05.778Z</time></trkpt><trkpt lat="37.90988" lon="14.9636283"><ele>989.4</ele><time>2026-03-22T13:14:06.777Z</time></trkpt><trkpt lat="37.90978" lon="14.963595"><ele>986.5999999999999</ele><time>2026-03-22T13:14:07.777Z</time></trkpt><trkpt lat="37.9096833" lon="14.9635617"><ele>983.8</ele><time>2026-03-22T13:14:08.777Z</time></trkpt><trkpt lat="37.9095817" lon="14.9635467"><ele>981.0</ele><time>2026-03-22T13:14:09.777Z</time></trkpt><trkpt lat="37.9094767" lon="14.9635517"><ele>981.0</ele><time>2026-03-22T13:14:10.778Z</time></trkpt><trkpt lat="37.9093617" lon="14.9635867"><ele>981.0</ele><time>2026-03-22T13:14:11.778Z</time></trkpt><trkpt lat="37.9092417" lon="14.9636467"><ele>981.0</ele><time>2026-03-22T13:14:12.778Z</time></trkpt><trkpt lat="37.909115" lon="14.9637317"><ele>981.0</ele><time>2026-03-22T13:14:13.778Z</time></trkpt><trkpt lat="37.9089833" lon="14.9638333"><ele>980.6666666666667</ele><time>2026-03-22T13:14:14.777Z</time></trkpt><trkpt lat="37.9088383" lon="14.963935"><ele>980.3333333333334</ele><time>2026-03-22T13:14:15.778Z</time></trkpt><trkpt lat="37.9086967" lon="14.9640433"><ele>980.0</ele><time>2026-03-22T13:14:16.778Z</time></trkpt><trkpt lat="37.908565" lon="14.9641383"><ele>980.0</ele><time>2026-03-22T13:14:17.778Z</time></trkpt><trkpt lat="37.9084467" lon="14.9641867"><ele>980.0</ele><time>2026-03-22T13:14:18.778Z</time></trkpt><trkpt lat="37.9083117" lon="14.96421"><ele>980.0</ele><time>2026-03-22T13:14:19.777Z</time></trkpt><trkpt lat="37.908165" lon="14.9642167"><ele>980.0</ele><time>2026-03-22T13:14:20.778Z</time></trkpt><trkpt lat="37.9080067" lon="14.9642167"><ele>975.75</ele><time>2026-03-22T13:14:21.778Z</time></trkpt><trkpt lat="37.9078567" lon="14.96422"><ele>971.5</ele><time>2026-03-22T13:14:22.777Z</time></trkpt><trkpt lat="37.9077117" lon="14.9642267"><ele>967.25</ele><time>2026-03-22T13:14:23.778Z</time></trkpt><trkpt lat="37.9075717" lon="14.96424"><ele>963.0</ele><time>2026-03-22T13:14:24.777Z</time></trkpt><trkpt lat="37.90744" lon="14.9642483"><ele>962.0</ele><time>2026-03-22T13:14:25.778Z</time></trkpt><trkpt lat="37.90731" lon="14.9642217"><ele>961.0</ele><time>2026-03-22T13:14:26.777Z</time></trkpt><trkpt lat="37.907185" lon="14.9641633"><ele>960.0</ele><time>2026-03-22T13:14:27.778Z</time></trkpt><trkpt lat="37.9070733" lon="14.96408"><ele>959.0</ele><time>2026-03-22T13:14:28.777Z</time></trkpt><trkpt lat="37.90698" lon="14.9639633"><ele>962.25</ele><time>2026-03-22T13:14:29.777Z</time></trkpt><trkpt lat="37.9069083" lon="14.96382"><ele>965.5</ele><time>2026-03-22T13:14:30.777Z</time></trkpt><trkpt lat="37.9068383" lon="14.9636517"><ele>968.75</ele><time>2026-03-22T13:14:31.777Z</time></trkpt><trkpt lat="37.906765" lon="14.9634867"><ele>972.0</ele><time>2026-03-22T13:14:32.778Z</time></trkpt><trkpt lat="37.9066967" lon="14.9633333"><ele>972.0</ele><time>2026-03-22T13:14:33.777Z</time></trkpt><trkpt lat="37.9066267" lon="14.963185"><ele>972.0</ele><time>2026-03-22T13:14:34.778Z</time></trkpt><trkpt lat="37.906565" lon="14.9630367"><ele>972.0</ele><time>2026-03-22T13:14:35.777Z</time></trkpt><trkpt lat="37.9065033" lon="14.9628983"><ele>972.0</ele><time>2026-03-22T13:14:36.777Z</time></trkpt><trkpt lat="37.9064417" lon="14.9627583"><ele>972.0</ele><time>2026-03-22T13:14:37.778Z</time></trkpt><trkpt lat="37.9063717" lon="14.9626183"><ele>972.0</ele><time>2026-03-22T13:14:38.777Z</time></trkpt><trkpt lat="37.906285" lon="14.9624983"><ele>972.0</ele><time>2026-03-22T13:14:39.777Z</time></trkpt><trkpt lat="37.9061817" lon="14.9623983"><ele>972.0</ele><time>2026-03-22T13:14:40.777Z</time></trkpt><trkpt lat="37.9060683" lon="14.9623117"><ele>971.25</ele><time>2026-03-22T13:14:41.777Z</time></trkpt><trkpt lat="37.9059483" lon="14.9622433"><ele>970.5</ele><time>2026-03-22T13:14:42.778Z</time></trkpt><trkpt lat="37.9058283" lon="14.9621933"><ele>969.75</ele><time>2026-03-22T13:14:43.778Z</time></trkpt><trkpt lat="37.9056983" lon="14.96217"><ele>969.0</ele><time>2026-03-22T13:14:44.778Z</time></trkpt><trkpt lat="37.9055667" lon="14.9621633"><ele>969.0</ele><time>2026-03-22T13:14:45.778Z</time></trkpt><trkpt lat="37.905425" lon="14.9621583"><ele>969.0</ele><time>2026-03-22T13:14:46.778Z</time></trkpt><trkpt lat="37.9052817" lon="14.9621467"><ele>969.0</ele><time>2026-03-22T13:14:47.778Z</time></trkpt><trkpt lat="37.9051417" lon="14.962125"><ele>969.0</ele><time>2026-03-22T13:14:48.778Z</time></trkpt><trkpt lat="37.905005" lon="14.9620717"><ele>966.6666666666667</ele><time>2026-03-22T13:14:49.778Z</time></trkpt><trkpt lat="37.9048783" lon="14.9619833"><ele>964.3333333333334</ele><time>2026-03-22T13:14:50.778Z</time></trkpt><trkpt lat="37.9047567" lon="14.9618633"><ele>962.0</ele><time>2026-03-22T13:14:51.777Z</time></trkpt><trkpt lat="37.90464" lon="14.9617283"><ele>962.3333333333334</ele><time>2026-03-22T13:14:52.777Z</time></trkpt><trkpt lat="37.9045117" lon="14.9616117"><ele>962.6666666666667</ele><time>2026-03-22T13:14:53.777Z</time></trkpt><trkpt lat="37.9043717" lon="14.9615117"><ele>963.0</ele><time>2026-03-22T13:14:54.778Z</time></trkpt><trkpt lat="37.9042333" lon="14.9614183"><ele>963.0</ele><time>2026-03-22T13:14:55.777Z</time></trkpt><trkpt lat="37.9040983" lon="14.96132"><ele>963.0</ele><time>2026-03-22T13:14:56.778Z</time></trkpt><trkpt lat="37.90396" lon="14.96121"><ele>963.0</ele><time>2026-03-22T13:14:57.777Z</time></trkpt><trkpt lat="37.9038283" lon="14.9611017"><ele>963.0</ele><time>2026-03-22T13:14:58.778Z</time></trkpt><trkpt lat="37.9037117" lon="14.9610017"><ele>963.0</ele><time>2026-03-22T13:14:59.777Z</time></trkpt><trkpt lat="37.9036217" lon="14.9608983"><ele>963.0</ele><time>2026-03-22T13:15:00.778Z</time></trkpt><trkpt lat="37.9035683" lon="14.9607533"><ele>963.0</ele><time>2026-03-22T13:15:01.778Z</time></trkpt><trkpt lat="37.9035417" lon="14.9605833"><ele>963.5</ele><time>2026-03-22T13:15:02.778Z</time></trkpt><trkpt lat="37.90352" lon="14.9604067"><ele>964.0</ele><time>2026-03-22T13:15:03.778Z</time></trkpt><trkpt lat="37.9034767" lon="14.9602267"><ele>964.5</ele><time>2026-03-22T13:15:04.777Z</time></trkpt><trkpt lat="37.9034133" lon="14.9600533"><ele>965.0</ele><time>2026-03-22T13:15:05.777Z</time></trkpt><trkpt lat="37.9033283" lon="14.9598833"><ele>968.0</ele><time>2026-03-22T13:15:06.777Z</time></trkpt><trkpt lat="37.9032233" lon="14.9597283"><ele>971.0</ele><time>2026-03-22T13:15:07.778Z</time></trkpt><trkpt lat="37.9031" lon="14.95959"><ele>974.0</ele><time>2026-03-22T13:15:08.778Z</time></trkpt><trkpt lat="37.9029683" lon="14.9594633"><ele>974.0</ele><time>2026-03-22T13:15:09.777Z</time></trkpt><trkpt lat="37.9028333" lon="14.9593467"><ele>974.0</ele><time>2026-03-22T13:15:10.778Z</time></trkpt><trkpt lat="37.90269" lon="14.959245"><ele>974.0</ele><time>2026-03-22T13:15:11.778Z</time></trkpt><trkpt lat="37.9025417" lon="14.95916"><ele>975.6666666666667</ele><time>2026-03-22T13:15:12.778Z</time></trkpt><trkpt lat="37.9023883" lon="14.9590883"><ele>977.3333333333333</ele><time>2026-03-22T13:15:13.777Z</time></trkpt><trkpt lat="37.9022333" lon="14.959035"><ele>979.0</ele><time>2026-03-22T13:15:14.778Z</time></trkpt><trkpt lat="37.90208" lon="14.95899"><ele>979.0</ele><time>2026-03-22T13:15:15.778Z</time></trkpt><trkpt lat="37.901935" lon="14.9589383"><ele>979.0</ele><time>2026-03-22T13:15:16.778Z</time></trkpt><trkpt lat="37.9017917" lon="14.9588733"><ele>979.0</ele><time>2026-03-22T13:15:17.778Z</time></trkpt><trkpt lat="37.901655" lon="14.9587933"><ele>979.75</ele><time>2026-03-22T13:15:18.778Z</time></trkpt><trkpt lat="37.90153" lon="14.9587"><ele>980.5</ele><time>2026-03-22T13:15:19.779Z</time></trkpt><trkpt lat="37.90142" lon="14.9585817"><ele>981.25</ele><time>2026-03-22T13:15:20.779Z</time></trkpt><trkpt lat="37.9013117" lon="14.958435"><ele>982.0</ele><time>2026-03-22T13:15:21.779Z</time></trkpt><trkpt lat="37.9012067" lon="14.95828"><ele>980.0</ele><time>2026-03-22T13:15:22.779Z</time></trkpt><trkpt lat="37.9010983" lon="14.958135"><ele>978.0</ele><time>2026-03-22T13:15:23.779Z</time></trkpt><trkpt lat="37.9009833" lon="14.9579817"><ele>976.0</ele><time>2026-03-22T13:15:24.779Z</time></trkpt><trkpt lat="37.9008717" lon="14.9578233"><ele>976.0</ele><time>2026-03-22T13:15:25.778Z</time></trkpt><trkpt lat="37.9007733" lon="14.957635"><ele>976.0</ele><time>2026-03-22T13:15:26.779Z</time></trkpt><trkpt lat="37.9006983" lon="14.9574267"><ele>976.0</ele><time>2026-03-22T13:15:27.779Z</time></trkpt><trkpt lat="37.9006267" lon="14.9572117"><ele>977.3333333333333</ele><time>2026-03-22T13:15:28.778Z</time></trkpt><trkpt lat="37.90055" lon="14.9569917"><ele>978.6666666666667</ele><time>2026-03-22T13:15:29.779Z</time></trkpt><trkpt lat="37.900465" lon="14.9567767"><ele>980.0</ele><time>2026-03-22T13:15:30.779Z</time></trkpt><trkpt lat="37.90037" lon="14.9565767"><ele>983.0</ele><time>2026-03-22T13:15:31.778Z</time></trkpt><trkpt lat="37.9002467" lon="14.9564133"><ele>986.0</ele><time>2026-03-22T13:15:32.778Z</time></trkpt><trkpt lat="37.900105" lon="14.9562633"><ele>989.0</ele><time>2026-03-22T13:15:33.778Z</time></trkpt><trkpt lat="37.8999583" lon="14.9561083"><ele>982.6666666666667</ele><time>2026-03-22T13:15:34.779Z</time></trkpt><trkpt lat="37.8998083" lon="14.9559417"><ele>976.3333333333333</ele><time>2026-03-22T13:15:35.778Z</time></trkpt><trkpt lat="37.899655" lon="14.9557617"><ele>970.0</ele><time>2026-03-22T13:15:36.778Z</time></trkpt><trkpt lat="37.8995017" lon="14.955575"><ele>970.0</ele><time>2026-03-22T13:15:37.778Z</time></trkpt><trkpt lat="37.8993567" lon="14.955385"><ele>970.0</ele><time>2026-03-22T13:15:38.778Z</time></trkpt><trkpt lat="37.8992267" lon="14.9552117"><ele>970.0</ele><time>2026-03-22T13:15:39.779Z</time></trkpt><trkpt lat="37.899105" lon="14.95505"><ele>967.6666666666666</ele><time>2026-03-22T13:15:40.778Z</time></trkpt><trkpt lat="37.8989883" lon="14.9549"><ele>965.3333333333333</ele><time>2026-03-22T13:15:41.779Z</time></trkpt><trkpt lat="37.898875" lon="14.9547683"><ele>963.0</ele><time>2026-03-22T13:15:42.779Z</time></trkpt><trkpt lat="37.8987633" lon="14.9546567"><ele>963.0</ele><time>2026-03-22T13:15:43.778Z</time></trkpt><trkpt lat="37.89865" lon="14.954595"><ele>963.0</ele><time>2026-03-22T13:15:44.778Z</time></trkpt><trkpt lat="37.898535" lon="14.9545667"><ele>963.0</ele><time>2026-03-22T13:15:45.778Z</time></trkpt><trkpt lat="37.8984167" lon="14.9545933"><ele>963.0</ele><time>2026-03-22T13:15:46.779Z</time></trkpt><trkpt lat="37.8983083" lon="14.954655"><ele>960.25</ele><time>2026-03-22T13:15:47.779Z</time></trkpt><trkpt lat="37.89822" lon="14.954765"><ele>957.5</ele><time>2026-03-22T13:15:48.778Z</time></trkpt><trkpt lat="37.8981583" lon="14.9549"><ele>954.75</ele><time>2026-03-22T13:15:49.779Z</time></trkpt><trkpt lat="37.8981283" lon="14.9550517"><ele>952.0</ele><time>2026-03-22T13:15:50.778Z</time></trkpt><trkpt lat="37.8981367" lon="14.9552067"><ele>952.25</ele><time>2026-03-22T13:15:51.778Z</time></trkpt><trkpt lat="37.8981933" lon="14.9553617"><ele>952.5</ele><time>2026-03-22T13:15:52.779Z</time></trkpt><trkpt lat="37.898275" lon="14.9554933"><ele>952.75</ele><time>2026-03-22T13:15:53.779Z</time></trkpt><trkpt lat="37.898395" lon="14.9556133"><ele>953.0</ele><time>2026-03-22T13:15:54.779Z</time></trkpt><trkpt lat="37.8985217" lon="14.9557383"><ele>953.0</ele><time>2026-03-22T13:15:55.778Z</time></trkpt><trkpt lat="37.8986433" lon="14.955865"><ele>953.0</ele><time>2026-03-22T13:15:56.779Z</time></trkpt><trkpt lat="37.89876" lon="14.95599"><ele>953.0</ele><time>2026-03-22T13:15:57.779Z</time></trkpt><trkpt lat="37.8988783" lon="14.9561067"><ele>954.25</ele><time>2026-03-22T13:15:58.778Z</time></trkpt><trkpt lat="37.8989917" lon="14.95623"><ele>955.5</ele><time>2026-03-22T13:15:59.778Z</time></trkpt><trkpt lat="37.89911" lon="14.9563517"><ele>956.75</ele><time>2026-03-22T13:16:00.779Z</time></trkpt><trkpt lat="37.8992183" lon="14.9564633"><ele>958.0</ele><time>2026-03-22T13:16:01.778Z</time></trkpt><trkpt lat="37.8993183" lon="14.956565"><ele>958.0</ele><time>2026-03-22T13:16:02.778Z</time></trkpt><trkpt lat="37.8994083" lon="14.9566617"><ele>958.0</ele><time>2026-03-22T13:16:03.778Z</time></trkpt><trkpt lat="37.89948" lon="14.95675"><ele>958.0</ele><time>2026-03-22T13:16:04.779Z</time></trkpt><trkpt lat="37.8995217" lon="14.9568517"><ele>958.0</ele><time>2026-03-22T13:16:05.778Z</time></trkpt><trkpt lat="37.8995233" lon="14.9569667"><ele>958.0</ele><time>2026-03-22T13:16:06.779Z</time></trkpt><trkpt lat="37.8994983" lon="14.9570667"><ele>956.2</ele><time>2026-03-22T13:16:07.778Z</time></trkpt><trkpt lat="37.8994433" lon="14.9571367"><ele>954.4</ele><time>2026-03-22T13:16:08.779Z</time></trkpt><trkpt lat="37.8993633" lon="14.95716"><ele>952.6000000000001</ele><time>2026-03-22T13:16:09.778Z</time></trkpt><trkpt lat="37.89928" lon="14.9571267"><ele>950.8000000000001</ele><time>2026-03-22T13:16:10.779Z</time></trkpt><trkpt lat="37.8992" lon="14.9570467"><ele>949.0</ele><time>2026-03-22T13:16:11.779Z</time></trkpt><trkpt lat="37.89911" lon="14.9569467"><ele>942.75</ele><time>2026-03-22T13:16:12.779Z</time></trkpt><trkpt lat="37.8989983" lon="14.9568533"><ele>936.5</ele><time>2026-03-22T13:16:13.779Z</time></trkpt><trkpt lat="37.8988683" lon="14.956805"><ele>930.25</ele><time>2026-03-22T13:16:14.779Z</time></trkpt><trkpt lat="37.8987283" lon="14.9567817"><ele>924.0</ele><time>2026-03-22T13:16:15.779Z</time></trkpt><trkpt lat="37.8985767" lon="14.9567767"><ele>924.6666666666667</ele><time>2026-03-22T13:16:16.778Z</time></trkpt><trkpt lat="37.8984167" lon="14.956765"><ele>925.3333333333334</ele><time>2026-03-22T13:16:17.778Z</time></trkpt><trkpt lat="37.8982567" lon="14.9567383"><ele>926.0</ele><time>2026-03-22T13:16:18.779Z</time></trkpt><trkpt lat="37.8981" lon="14.9566983"><ele>926.0</ele><time>2026-03-22T13:16:19.778Z</time></trkpt><trkpt lat="37.8979517" lon="14.9566483"><ele>926.0</ele><time>2026-03-22T13:16:20.779Z</time></trkpt><trkpt lat="37.897805" lon="14.95659"><ele>926.0</ele><time>2026-03-22T13:16:21.779Z</time></trkpt><trkpt lat="37.8976667" lon="14.9565217"><ele>923.5</ele><time>2026-03-22T13:16:22.779Z</time></trkpt><trkpt lat="37.897535" lon="14.9564533"><ele>921.0</ele><time>2026-03-22T13:16:23.778Z</time></trkpt><trkpt lat="37.8974133" lon="14.956375"><ele>918.5</ele><time>2026-03-22T13:16:24.779Z</time></trkpt><trkpt lat="37.897305" lon="14.95627"><ele>916.0</ele><time>2026-03-22T13:16:25.778Z</time></trkpt><trkpt lat="37.8972" lon="14.9561383"><ele>916.0</ele><time>2026-03-22T13:16:26.778Z</time></trkpt><trkpt lat="37.8970917" lon="14.9559917"><ele>916.0</ele><time>2026-03-22T13:16:27.779Z</time></trkpt><trkpt lat="37.89699" lon="14.9558433"><ele>916.0</ele><time>2026-03-22T13:16:28.779Z</time></trkpt><trkpt lat="37.8968983" lon="14.95569"><ele>914.25</ele><time>2026-03-22T13:16:29.778Z</time></trkpt><trkpt lat="37.8968067" lon="14.9555533"><ele>912.5</ele><time>2026-03-22T13:16:30.779Z</time></trkpt><trkpt lat="37.8967" lon="14.9554467"><ele>910.75</ele><time>2026-03-22T13:16:31.778Z</time></trkpt><trkpt lat="37.89659" lon="14.9553833"><ele>909.0</ele><time>2026-03-22T13:16:32.778Z</time></trkpt><trkpt lat="37.896475" lon="14.955365"><ele>909.0</ele><time>2026-03-22T13:16:33.779Z</time></trkpt><trkpt lat="37.8963633" lon="14.9553917"><ele>909.0</ele><time>2026-03-22T13:16:34.778Z</time></trkpt><trkpt lat="37.8962617" lon="14.9554333"><ele>909.0</ele><time>2026-03-22T13:16:35.778Z</time></trkpt><trkpt lat="37.896155" lon="14.9554467"><ele>909.0</ele><time>2026-03-22T13:16:36.779Z</time></trkpt><trkpt lat="37.896035" lon="14.955415"><ele>905.75</ele><time>2026-03-22T13:16:37.779Z</time></trkpt><trkpt lat="37.8959" lon="14.955355"><ele>902.5</ele><time>2026-03-22T13:16:38.778Z</time></trkpt><trkpt lat="37.8957633" lon="14.9552917"><ele>899.25</ele><time>2026-03-22T13:16:39.778Z</time></trkpt><trkpt lat="37.8956383" lon="14.9552233"><ele>896.0</ele><time>2026-03-22T13:16:40.778Z</time></trkpt><trkpt lat="37.895525" lon="14.9551283"><ele>901.6666666666667</ele><time>2026-03-22T13:16:41.779Z</time></trkpt><trkpt lat="37.89542" lon="14.9550067"><ele>907.3333333333333</ele><time>2026-03-22T13:16:42.778Z</time></trkpt><trkpt lat="37.8953117" lon="14.9548617"><ele>913.0</ele><time>2026-03-22T13:16:43.778Z</time></trkpt><trkpt lat="37.89519" lon="14.9547133"><ele>906.3333333333333</ele><time>2026-03-22T13:16:44.778Z</time></trkpt><trkpt lat="37.8950617" lon="14.9545767"><ele>899.6666666666667</ele><time>2026-03-22T13:16:45.778Z</time></trkpt><trkpt lat="37.8949233" lon="14.954455"><ele>893.0</ele><time>2026-03-22T13:16:46.779Z</time></trkpt><trkpt lat="37.894785" lon="14.954355"><ele>893.0</ele><time>2026-03-22T13:16:47.779Z</time></trkpt><trkpt lat="37.8946417" lon="14.954275"><ele>893.0</ele><time>2026-03-22T13:16:48.779Z</time></trkpt><trkpt lat="37.8944933" lon="14.95421"><ele>893.0</ele><time>2026-03-22T13:16:49.778Z</time></trkpt><trkpt lat="37.89433" lon="14.954165"><ele>894.3333333333334</ele><time>2026-03-22T13:16:50.779Z</time></trkpt><trkpt lat="37.8941617" lon="14.9541267"><ele>895.6666666666667</ele><time>2026-03-22T13:16:51.779Z</time></trkpt><trkpt lat="37.8939883" lon="14.9540983"><ele>897.0</ele><time>2026-03-22T13:16:52.779Z</time></trkpt><trkpt lat="37.8938167" lon="14.95407"><ele>897.0</ele><time>2026-03-22T13:16:53.778Z</time></trkpt><trkpt lat="37.893655" lon="14.95404"><ele>897.0</ele><time>2026-03-22T13:16:54.778Z</time></trkpt><trkpt lat="37.8935033" lon="14.9540117"><ele>897.0</ele><time>2026-03-22T13:16:55.779Z</time></trkpt><trkpt lat="37.89336" lon="14.953985"><ele>895.75</ele><time>2026-03-22T13:16:56.779Z</time></trkpt><trkpt lat="37.8932267" lon="14.9539633"><ele>894.5</ele><time>2026-03-22T13:16:57.778Z</time></trkpt><trkpt lat="37.8931" lon="14.953955"><ele>893.25</ele><time>2026-03-22T13:16:58.779Z</time></trkpt><trkpt lat="37.89299" lon="14.9539567"><ele>892.0</ele><time>2026-03-22T13:16:59.778Z</time></trkpt><trkpt lat="37.8928967" lon="14.95398"><ele>892.0</ele><time>2026-03-22T13:17:00.779Z</time></trkpt><trkpt lat="37.8928283" lon="14.9540367"><ele>892.0</ele><time>2026-03-22T13:17:01.779Z</time></trkpt><trkpt lat="37.892795" lon="14.9541367"><ele>892.0</ele><time>2026-03-22T13:17:02.778Z</time></trkpt><trkpt lat="37.8928083" lon="14.9542617"><ele>892.0</ele><time>2026-03-22T13:17:03.779Z</time></trkpt><trkpt lat="37.8928517" lon="14.9543883"><ele>892.0</ele><time>2026-03-22T13:17:04.778Z</time></trkpt><trkpt lat="37.8929233" lon="14.9545133"><ele>889.5</ele><time>2026-03-22T13:17:05.779Z</time></trkpt><trkpt lat="37.8930017" lon="14.9546283"><ele>887.0</ele><time>2026-03-22T13:17:06.778Z</time></trkpt><trkpt lat="37.89309" lon="14.9547217"><ele>884.5</ele><time>2026-03-22T13:17:07.778Z</time></trkpt><trkpt lat="37.89319" lon="14.9547833"><ele>882.0</ele><time>2026-03-22T13:17:08.779Z</time></trkpt><trkpt lat="37.8932967" lon="14.954815"><ele>882.0</ele><time>2026-03-22T13:17:09.779Z</time></trkpt><trkpt lat="37.89339" lon="14.9548483"><ele>882.0</ele><time>2026-03-22T13:17:10.778Z</time></trkpt><trkpt lat="37.8934583" lon="14.9549033"><ele>882.0</ele><time>2026-03-22T13:17:11.778Z</time></trkpt><trkpt lat="37.8934933" lon="14.9549933"><ele>882.0</ele><time>2026-03-22T13:17:12.779Z</time></trkpt><trkpt lat="37.89349" lon="14.95508"><ele>882.0</ele><time>2026-03-22T13:17:13.778Z</time></trkpt><trkpt lat="37.8934317" lon="14.9551617"><ele>882.0</ele><time>2026-03-22T13:17:14.778Z</time></trkpt><trkpt lat="37.89335" lon="14.9552083"><ele>877.0</ele><time>2026-03-22T13:17:15.779Z</time></trkpt><trkpt lat="37.8932567" lon="14.95522"><ele>872.0</ele><time>2026-03-22T13:17:16.778Z</time></trkpt><trkpt lat="37.8931467" lon="14.95519"><ele>867.0</ele><time>2026-03-22T13:17:17.778Z</time></trkpt><trkpt lat="37.89302" lon="14.9551483"><ele>862.0</ele><time>2026-03-22T13:17:18.779Z</time></trkpt><trkpt lat="37.8929" lon="14.9551383"><ele>862.0</ele><time>2026-03-22T13:17:19.779Z</time></trkpt><trkpt lat="37.892785" lon="14.955185"><ele>862.0</ele><time>2026-03-22T13:17:20.779Z</time></trkpt><trkpt lat="37.8926667" lon="14.9552683"><ele>862.0</ele><time>2026-03-22T13:17:21.779Z</time></trkpt><trkpt lat="37.8925433" lon="14.9553567"><ele>862.0</ele><time>2026-03-22T13:17:22.779Z</time></trkpt><trkpt lat="37.892415" lon="14.955455"><ele>863.0</ele><time>2026-03-22T13:17:23.778Z</time></trkpt><trkpt lat="37.8922817" lon="14.9555467"><ele>864.0</ele><time>2026-03-22T13:17:24.779Z</time></trkpt><trkpt lat="37.8921483" lon="14.95564"><ele>865.0</ele><time>2026-03-22T13:17:25.779Z</time></trkpt><trkpt lat="37.89201" lon="14.9557133"><ele>865.0</ele><time>2026-03-22T13:17:26.779Z</time></trkpt><trkpt lat="37.8918683" lon="14.9557617"><ele>865.0</ele><time>2026-03-22T13:17:27.779Z</time></trkpt><trkpt lat="37.8917217" lon="14.9557883"><ele>865.0</ele><time>2026-03-22T13:17:28.779Z</time></trkpt><trkpt lat="37.891575" lon="14.9557817"><ele>865.0</ele><time>2026-03-22T13:17:29.778Z</time></trkpt><trkpt lat="37.891425" lon="14.9557467"><ele>864.3333333333333</ele><time>2026-03-22T13:17:30.778Z</time></trkpt><trkpt lat="37.891275" lon="14.9556917"><ele>863.6666666666667</ele><time>2026-03-22T13:17:31.779Z</time></trkpt><trkpt lat="37.891135" lon="14.95561"><ele>863.0</ele><time>2026-03-22T13:17:32.779Z</time></trkpt><trkpt lat="37.891005" lon="14.9555083"><ele>859.0</ele><time>2026-03-22T13:17:33.779Z</time></trkpt><trkpt lat="37.890875" lon="14.95541"><ele>855.0</ele><time>2026-03-22T13:17:34.779Z</time></trkpt><trkpt lat="37.8907467" lon="14.955335"><ele>851.0</ele><time>2026-03-22T13:17:35.779Z</time></trkpt><trkpt lat="37.89061" lon="14.9552967"><ele>847.0</ele><time>2026-03-22T13:17:36.779Z</time></trkpt><trkpt lat="37.89046" lon="14.9553"><ele>847.0</ele><time>2026-03-22T13:17:37.779Z</time></trkpt><trkpt lat="37.8903" lon="14.9553233"><ele>847.0</ele><time>2026-03-22T13:17:38.778Z</time></trkpt><trkpt lat="37.89014" lon="14.95534"><ele>847.0</ele><time>2026-03-22T13:17:39.779Z</time></trkpt><trkpt lat="37.8899783" lon="14.955355"><ele>843.3333333333333</ele><time>2026-03-22T13:17:40.778Z</time></trkpt><trkpt lat="37.8898133" lon="14.95536"><ele>839.6666666666667</ele><time>2026-03-22T13:17:41.778Z</time></trkpt><trkpt lat="37.8896433" lon="14.9553467"><ele>836.0</ele><time>2026-03-22T13:17:42.779Z</time></trkpt><trkpt lat="37.8894667" lon="14.955325"><ele>836.0</ele><time>2026-03-22T13:17:43.779Z</time></trkpt><trkpt lat="37.8892883" lon="14.955295"><ele>836.0</ele><time>2026-03-22T13:17:44.779Z</time></trkpt><trkpt lat="37.8891083" lon="14.9552667"><ele>836.0</ele><time>2026-03-22T13:17:45.779Z</time></trkpt><trkpt lat="37.88893" lon="14.9552383"><ele>835.3333333333334</ele><time>2026-03-22T13:17:46.778Z</time></trkpt><trkpt lat="37.8887567" lon="14.9552133"><ele>834.6666666666667</ele><time>2026-03-22T13:17:47.778Z</time></trkpt><trkpt lat="37.888595" lon="14.9551867"><ele>834.0</ele><time>2026-03-22T13:17:48.778Z</time></trkpt><trkpt lat="37.8884467" lon="14.9551617"><ele>833.0</ele><time>2026-03-22T13:17:49.779Z</time></trkpt><trkpt lat="37.8883033" lon="14.9551217"><ele>832.0</ele><time>2026-03-22T13:17:50.779Z</time></trkpt><trkpt lat="37.8881617" lon="14.9550467"><ele>831.0</ele><time>2026-03-22T13:17:51.779Z</time></trkpt><trkpt lat="37.8880117" lon="14.9549517"><ele>831.3333333333333</ele><time>2026-03-22T13:17:52.778Z</time></trkpt><trkpt lat="37.88786" lon="14.9548467"><ele>831.6666666666666</ele><time>2026-03-22T13:17:53.779Z</time></trkpt><trkpt lat="37.8877017" lon="14.9547383"><ele>832.0</ele><time>2026-03-22T13:17:54.778Z</time></trkpt><trkpt lat="37.8875383" lon="14.954625"><ele>832.0</ele><time>2026-03-22T13:17:55.778Z</time></trkpt><trkpt lat="37.8873733" lon="14.954505"><ele>832.0</ele><time>2026-03-22T13:17:56.778Z</time></trkpt><trkpt lat="37.88721" lon="14.9543783"><ele>832.0</ele><time>2026-03-22T13:17:57.779Z</time></trkpt><trkpt lat="37.8870567" lon="14.9542533"><ele>833.3333333333333</ele><time>2026-03-22T13:17:58.778Z</time></trkpt><trkpt lat="37.8869067" lon="14.9541283"><ele>834.6666666666667</ele><time>2026-03-22T13:17:59.779Z</time></trkpt><trkpt lat="37.8867667" lon="14.9540183"><ele>836.0</ele><time>2026-03-22T13:18:00.779Z</time></trkpt><trkpt lat="37.88664" lon="14.9539183"><ele>833.0</ele><time>2026-03-22T13:18:01.778Z</time></trkpt><trkpt lat="37.88653" lon="14.9538217"><ele>830.0</ele><time>2026-03-22T13:18:02.778Z</time></trkpt><trkpt lat="37.886435" lon="14.9537133"><ele>827.0</ele><time>2026-03-22T13:18:03.779Z</time></trkpt><trkpt lat="37.8863483" lon="14.9535817"><ele>824.0</ele><time>2026-03-22T13:18:04.779Z</time></trkpt><trkpt lat="37.886295" lon="14.9534183"><ele>826.0</ele><time>2026-03-22T13:18:05.778Z</time></trkpt><trkpt lat="37.8862617" lon="14.953235"><ele>828.0</ele><time>2026-03-22T13:18:06.779Z</time></trkpt><trkpt lat="37.886265" lon="14.953035"><ele>830.0</ele><time>2026-03-22T13:18:07.779Z</time></trkpt><trkpt lat="37.8862883" lon="14.9528367"><ele>830.0</ele><time>2026-03-22T13:18:08.779Z</time></trkpt><trkpt lat="37.886315" lon="14.9526583"><ele>830.0</ele><time>2026-03-22T13:18:09.778Z</time></trkpt><trkpt lat="37.8863217" lon="14.952505"><ele>830.0</ele><time>2026-03-22T13:18:10.778Z</time></trkpt><trkpt lat="37.886295" lon="14.95238"><ele>830.0</ele><time>2026-03-22T13:18:11.778Z</time></trkpt><trkpt lat="37.886225" lon="14.9522633"><ele>830.0</ele><time>2026-03-22T13:18:12.778Z</time></trkpt><trkpt lat="37.8861133" lon="14.95217"><ele>830.0</ele><time>2026-03-22T13:18:13.778Z</time></trkpt><trkpt lat="37.8859983" lon="14.9520717"><ele>830.0</ele><time>2026-03-22T13:18:14.779Z</time></trkpt><trkpt lat="37.8858933" lon="14.9519433"><ele>830.0</ele><time>2026-03-22T13:18:15.779Z</time></trkpt><trkpt lat="37.885795" lon="14.9517833"><ele>825.6666666666667</ele><time>2026-03-22T13:18:16.778Z</time></trkpt><trkpt lat="37.8857183" lon="14.9516033"><ele>821.3333333333333</ele><time>2026-03-22T13:18:17.779Z</time></trkpt><trkpt lat="37.885655" lon="14.9514117"><ele>817.0</ele><time>2026-03-22T13:18:18.779Z</time></trkpt><trkpt lat="37.8856033" lon="14.95123"><ele>817.0</ele><time>2026-03-22T13:18:19.779Z</time></trkpt><trkpt lat="37.885545" lon="14.9510567"><ele>817.0</ele><time>2026-03-22T13:18:20.778Z</time></trkpt><trkpt lat="37.88546" lon="14.9509017"><ele>817.0</ele><time>2026-03-22T13:18:21.779Z</time></trkpt><trkpt lat="37.8853467" lon="14.95078"><ele>817.0</ele><time>2026-03-22T13:18:22.779Z</time></trkpt><trkpt lat="37.8852033" lon="14.950695"><ele>813.0</ele><time>2026-03-22T13:18:23.779Z</time></trkpt><trkpt lat="37.8850467" lon="14.9506517"><ele>809.0</ele><time>2026-03-22T13:18:24.778Z</time></trkpt><trkpt lat="37.8848783" lon="14.9506083"><ele>805.0</ele><time>2026-03-22T13:18:25.778Z</time></trkpt><trkpt lat="37.8847167" lon="14.9505617"><ele>805.0</ele><time>2026-03-22T13:18:26.779Z</time></trkpt><trkpt lat="37.8845483" lon="14.950515"><ele>805.0</ele><time>2026-03-22T13:18:27.778Z</time></trkpt><trkpt lat="37.8843867" lon="14.9504667"><ele>805.0</ele><time>2026-03-22T13:18:28.779Z</time></trkpt><trkpt lat="37.88423" lon="14.9504183"><ele>801.0</ele><time>2026-03-22T13:18:29.779Z</time></trkpt><trkpt lat="37.8840833" lon="14.9503633"><ele>797.0</ele><time>2026-03-22T13:18:30.778Z</time></trkpt><trkpt lat="37.8839483" lon="14.9502917"><ele>793.0</ele><time>2026-03-22T13:18:31.779Z</time></trkpt><trkpt lat="37.88383" lon="14.950185"><ele>789.0</ele><time>2026-03-22T13:18:32.778Z</time></trkpt><trkpt lat="37.8837183" lon="14.9500583"><ele>795.6666666666667</ele><time>2026-03-22T13:18:33.778Z</time></trkpt><trkpt lat="37.8836267" lon="14.9499117"><ele>802.3333333333334</ele><time>2026-03-22T13:18:34.778Z</time></trkpt><trkpt lat="37.8835517" lon="14.949745"><ele>809.0</ele><time>2026-03-22T13:18:35.778Z</time></trkpt><trkpt lat="37.883495" lon="14.9495633"><ele>809.0</ele><time>2026-03-22T13:18:36.778Z</time></trkpt><trkpt lat="37.8834667" lon="14.94937"><ele>809.0</ele><time>2026-03-22T13:18:37.778Z</time></trkpt><trkpt lat="37.8834667" lon="14.94917"><ele>809.0</ele><time>2026-03-22T13:18:38.778Z</time></trkpt><trkpt lat="37.88349" lon="14.9489783"><ele>810.75</ele><time>2026-03-22T13:18:39.779Z</time></trkpt><trkpt lat="37.8835217" lon="14.948805"><ele>812.5</ele><time>2026-03-22T13:18:40.778Z</time></trkpt><trkpt lat="37.8835483" lon="14.9486483"><ele>814.25</ele><time>2026-03-22T13:18:41.779Z</time></trkpt><trkpt lat="37.88357" lon="14.94852"><ele>816.0</ele><time>2026-03-22T13:18:42.778Z</time></trkpt><trkpt lat="37.883575" lon="14.94842"><ele>815.7142857142858</ele><time>2026-03-22T13:18:43.779Z</time></trkpt><trkpt lat="37.8835583" lon="14.9483317"><ele>815.4285714285714</ele><time>2026-03-22T13:18:44.779Z</time></trkpt><trkpt lat="37.883505" lon="14.9482867"><ele>815.1428571428571</ele><time>2026-03-22T13:18:45.778Z</time></trkpt><trkpt lat="37.883435" lon="14.94828"><ele>814.8571428571429</ele><time>2026-03-22T13:18:46.778Z</time></trkpt><trkpt lat="37.88337" lon="14.948315"><ele>814.5714285714286</ele><time>2026-03-22T13:18:47.779Z</time></trkpt><trkpt lat="37.8833333" lon="14.9483967"><ele>814.2857142857143</ele><time>2026-03-22T13:18:48.779Z</time></trkpt><trkpt lat="37.88332" lon="14.94852"><ele>814.0</ele><time>2026-03-22T13:18:49.779Z</time></trkpt><trkpt lat="37.8833167" lon="14.9486767"><ele>807.75</ele><time>2026-03-22T13:18:50.779Z</time></trkpt><trkpt lat="37.8832883" lon="14.9488533"><ele>801.5</ele><time>2026-03-22T13:18:51.778Z</time></trkpt><trkpt lat="37.8832483" lon="14.9490267"><ele>795.25</ele><time>2026-03-22T13:18:52.779Z</time></trkpt><trkpt lat="37.8832067" lon="14.9492033"><ele>789.0</ele><time>2026-03-22T13:18:53.779Z</time></trkpt><trkpt lat="37.883175" lon="14.9493717"><ele>787.5</ele><time>2026-03-22T13:18:54.778Z</time></trkpt><trkpt lat="37.8831617" lon="14.94953"><ele>786.0</ele><time>2026-03-22T13:18:55.779Z</time></trkpt><trkpt lat="37.8831733" lon="14.949695"><ele>784.5</ele><time>2026-03-22T13:18:56.778Z</time></trkpt><trkpt lat="37.883215" lon="14.9498583"><ele>783.0</ele><time>2026-03-22T13:18:57.778Z</time></trkpt><trkpt lat="37.8832733" lon="14.9500267"><ele>784.5</ele><time>2026-03-22T13:18:58.778Z</time></trkpt><trkpt lat="37.883335" lon="14.9501917"><ele>786.0</ele><time>2026-03-22T13:18:59.779Z</time></trkpt><trkpt lat="37.8834067" lon="14.9503433"><ele>787.5</ele><time>2026-03-22T13:19:00.778Z</time></trkpt><trkpt lat="37.88348" lon="14.95049"><ele>789.0</ele><time>2026-03-22T13:19:01.779Z</time></trkpt><trkpt lat="37.8835233" lon="14.9506283"><ele>789.0</ele><time>2026-03-22T13:19:02.779Z</time></trkpt><trkpt lat="37.8835367" lon="14.950755"><ele>789.0</ele><time>2026-03-22T13:19:03.778Z</time></trkpt><trkpt lat="37.8835333" lon="14.9508733"><ele>789.0</ele><time>2026-03-22T13:19:04.778Z</time></trkpt><trkpt lat="37.8835433" lon="14.9509783"><ele>789.0</ele><time>2026-03-22T13:19:05.778Z</time></trkpt><trkpt lat="37.8835783" lon="14.9510867"><ele>789.0</ele><time>2026-03-22T13:19:06.779Z</time></trkpt><trkpt lat="37.8836433" lon="14.9511967"><ele>786.2</ele><time>2026-03-22T13:19:07.778Z</time></trkpt><trkpt lat="37.8837217" lon="14.9513117"><ele>783.4000000000001</ele><time>2026-03-22T13:19:08.778Z</time></trkpt><trkpt lat="37.8837933" lon="14.9514117"><ele>780.6</ele><time>2026-03-22T13:19:09.778Z</time></trkpt><trkpt lat="37.88387" lon="14.9514617"><ele>777.8</ele><time>2026-03-22T13:19:10.778Z</time></trkpt><trkpt lat="37.8839467" lon="14.9514783"><ele>775.0</ele><time>2026-03-22T13:19:11.778Z</time></trkpt><trkpt lat="37.8840333" lon="14.95147"><ele>775.0</ele><time>2026-03-22T13:19:12.779Z</time></trkpt><trkpt lat="37.8841067" lon="14.9514783"><ele>775.0</ele><time>2026-03-22T13:19:13.779Z</time></trkpt><trkpt lat="37.8841617" lon="14.9515217"><ele>775.0</ele><time>2026-03-22T13:19:14.778Z</time></trkpt><trkpt lat="37.884135" lon="14.9516567"><ele>775.0</ele><time>2026-03-22T13:19:16.779Z</time></trkpt><trkpt lat="37.883995" lon="14.9516817"><ele>775.0</ele><time>2026-03-22T13:19:18.778Z</time></trkpt><trkpt lat="37.8838933" lon="14.9516233"><ele>775.0</ele><time>2026-03-22T13:19:19.779Z</time></trkpt><trkpt lat="37.88379" lon="14.951545"><ele>775.0</ele><time>2026-03-22T13:19:20.778Z</time></trkpt><trkpt lat="37.8836833" lon="14.9514433"><ele>775.0</ele><time>2026-03-22T13:19:21.779Z</time></trkpt><trkpt lat="37.8835767" lon="14.9513317"><ele>775.0</ele><time>2026-03-22T13:19:22.778Z</time></trkpt><trkpt lat="37.8834733" lon="14.9512283"><ele>772.75</ele><time>2026-03-22T13:19:23.778Z</time></trkpt><trkpt lat="37.88339" lon="14.9511283"><ele>770.5</ele><time>2026-03-22T13:19:24.778Z</time></trkpt><trkpt lat="37.8833333" lon="14.9510067"><ele>768.25</ele><time>2026-03-22T13:19:25.779Z</time></trkpt><trkpt lat="37.8833" lon="14.95087"><ele>766.0</ele><time>2026-03-22T13:19:26.778Z</time></trkpt><trkpt lat="37.8832683" lon="14.95073"><ele>766.0</ele><time>2026-03-22T13:19:27.779Z</time></trkpt><trkpt lat="37.8832033" lon="14.9506017"><ele>766.0</ele><time>2026-03-22T13:19:28.779Z</time></trkpt><trkpt lat="37.8831083" lon="14.9505067"><ele>766.0</ele><time>2026-03-22T13:19:29.779Z</time></trkpt><trkpt lat="37.8829933" lon="14.95044"><ele>766.0</ele><time>2026-03-22T13:19:30.779Z</time></trkpt><trkpt lat="37.88288" lon="14.9503867"><ele>766.0</ele><time>2026-03-22T13:19:31.778Z</time></trkpt><trkpt lat="37.8827817" lon="14.950345"><ele>766.0</ele><time>2026-03-22T13:19:32.779Z</time></trkpt><trkpt lat="37.88269" lon="14.9503167"><ele>766.0</ele><time>2026-03-22T13:19:33.779Z</time></trkpt><trkpt lat="37.8826033" lon="14.9502683"><ele>766.0</ele><time>2026-03-22T13:19:34.779Z</time></trkpt><trkpt lat="37.8825283" lon="14.950185"><ele>766.0</ele><time>2026-03-22T13:19:35.778Z</time></trkpt><trkpt lat="37.8824783" lon="14.9500533"><ele>763.5</ele><time>2026-03-22T13:19:36.778Z</time></trkpt><trkpt lat="37.8824567" lon="14.949895"><ele>761.0</ele><time>2026-03-22T13:19:37.779Z</time></trkpt><trkpt lat="37.8824467" lon="14.9497267"><ele>758.5</ele><time>2026-03-22T13:19:38.778Z</time></trkpt><trkpt lat="37.8824333" lon="14.9495683"><ele>756.0</ele><time>2026-03-22T13:19:39.778Z</time></trkpt><trkpt lat="37.882405" lon="14.94943"><ele>756.0</ele><time>2026-03-22T13:19:40.778Z</time></trkpt><trkpt lat="37.8823367" lon="14.9493083"><ele>756.0</ele><time>2026-03-22T13:19:41.778Z</time></trkpt><trkpt lat="37.8822417" lon="14.9492067"><ele>756.0</ele><time>2026-03-22T13:19:42.779Z</time></trkpt><trkpt lat="37.8821383" lon="14.9491117"><ele>756.0</ele><time>2026-03-22T13:19:43.778Z</time></trkpt><trkpt lat="37.8820517" lon="14.9490067"><ele>757.5999999999999</ele><time>2026-03-22T13:19:44.778Z</time></trkpt><trkpt lat="37.8819783" lon="14.9488817"><ele>759.2</ele><time>2026-03-22T13:19:45.779Z</time></trkpt><trkpt lat="37.8819117" lon="14.948775"><ele>760.8</ele><time>2026-03-22T13:19:46.779Z</time></trkpt><trkpt lat="37.8818417" lon="14.9486967"><ele>762.4000000000001</ele><time>2026-03-22T13:19:47.779Z</time></trkpt><trkpt lat="37.8817633" lon="14.9486633"><ele>764.0</ele><time>2026-03-22T13:19:48.778Z</time></trkpt><trkpt lat="37.8816967" lon="14.9486833"><ele>762.4000000000001</ele><time>2026-03-22T13:19:49.779Z</time></trkpt><trkpt lat="37.88165" lon="14.9487567"><ele>760.8</ele><time>2026-03-22T13:19:50.778Z</time></trkpt><trkpt lat="37.8816417" lon="14.948855"><ele>759.2</ele><time>2026-03-22T13:19:51.778Z</time></trkpt><trkpt lat="37.8816717" lon="14.9489783"><ele>757.5999999999999</ele><time>2026-03-22T13:19:52.778Z</time></trkpt><trkpt lat="37.8817167" lon="14.94911"><ele>756.0</ele><time>2026-03-22T13:19:53.778Z</time></trkpt><trkpt lat="37.8817667" lon="14.9492567"><ele>756.0</ele><time>2026-03-22T13:19:54.778Z</time></trkpt><trkpt lat="37.8818183" lon="14.949405"><ele>756.0</ele><time>2026-03-22T13:19:55.778Z</time></trkpt><trkpt lat="37.8818683" lon="14.94955"><ele>756.0</ele><time>2026-03-22T13:19:56.778Z</time></trkpt><trkpt lat="37.8819167" lon="14.9496867"><ele>756.0</ele><time>2026-03-22T13:19:57.778Z</time></trkpt><trkpt lat="37.881955" lon="14.9498167"><ele>756.0</ele><time>2026-03-22T13:19:58.778Z</time></trkpt><trkpt lat="37.8819733" lon="14.9499433"><ele>756.0</ele><time>2026-03-22T13:19:59.778Z</time></trkpt><trkpt lat="37.8819617" lon="14.950065"><ele>756.0</ele><time>2026-03-22T13:20:00.778Z</time></trkpt><trkpt lat="37.88192" lon="14.9501533"><ele>756.0</ele><time>2026-03-22T13:20:01.778Z</time></trkpt><trkpt lat="37.8818583" lon="14.9501833"><ele>756.0</ele><time>2026-03-22T13:20:02.778Z</time></trkpt><trkpt lat="37.8817883" lon="14.9501617"><ele>756.0</ele><time>2026-03-22T13:20:03.778Z</time></trkpt><trkpt lat="37.8817267" lon="14.9500867"><ele>751.5</ele><time>2026-03-22T13:20:04.778Z</time></trkpt><trkpt lat="37.8816683" lon="14.94998"><ele>747.0</ele><time>2026-03-22T13:20:05.779Z</time></trkpt><trkpt lat="37.8815967" lon="14.9498517"><ele>742.5</ele><time>2026-03-22T13:20:06.778Z</time></trkpt><trkpt lat="37.8815217" lon="14.94973"><ele>738.0</ele><time>2026-03-22T13:20:07.778Z</time></trkpt><trkpt lat="37.8814583" lon="14.9496133"><ele>738.0</ele><time>2026-03-22T13:20:08.779Z</time></trkpt><trkpt lat="37.8813917" lon="14.9494983"><ele>738.0</ele><time>2026-03-22T13:20:09.778Z</time></trkpt><trkpt lat="37.8813217" lon="14.9493933"><ele>738.0</ele><time>2026-03-22T13:20:10.779Z</time></trkpt><trkpt lat="37.8812633" lon="14.9493033"><ele>738.0</ele><time>2026-03-22T13:20:11.778Z</time></trkpt><trkpt lat="37.8812067" lon="14.9492267"><ele>738.0</ele><time>2026-03-22T13:20:12.778Z</time></trkpt><trkpt lat="37.8811467" lon="14.9491833"><ele>738.0</ele><time>2026-03-22T13:20:13.779Z</time></trkpt><trkpt lat="37.88108" lon="14.9491833"><ele>738.0</ele><time>2026-03-22T13:20:14.779Z</time></trkpt><trkpt lat="37.8810183" lon="14.9492183"><ele>738.0</ele><time>2026-03-22T13:20:15.779Z</time></trkpt><trkpt lat="37.8809783" lon="14.94934"><ele>738.0</ele><time>2026-03-22T13:20:17.779Z</time></trkpt><trkpt lat="37.8810367" lon="14.9495"><ele>738.0</ele><time>2026-03-22T13:20:19.778Z</time></trkpt><trkpt lat="37.88108" lon="14.9495917"><ele>738.0</ele><time>2026-03-22T13:20:20.778Z</time></trkpt><trkpt lat="37.8811183" lon="14.949675"><ele>738.0</ele><time>2026-03-22T13:20:21.778Z</time></trkpt><trkpt lat="37.881165" lon="14.9497883"><ele>738.0</ele><time>2026-03-22T13:20:23.778Z</time></trkpt><trkpt lat="37.8811883" lon="14.9498717"><ele>738.0</ele><time>2026-03-22T13:20:26.78Z</time></trkpt><trkpt lat="37.8812217" lon="14.9499567"><ele>738.0</ele><time>2026-03-22T13:20:38.779Z</time></trkpt><trkpt lat="37.8812567" lon="14.95003"><ele>738.0</ele><time>2026-03-22T13:20:39.779Z</time></trkpt><trkpt lat="37.881295" lon="14.95012"><ele>735.0</ele><time>2026-03-22T13:20:40.78Z</time></trkpt><trkpt lat="37.8813083" lon="14.9502233"><ele>732.0</ele><time>2026-03-22T13:20:41.78Z</time></trkpt><trkpt lat="37.8813067" lon="14.9503333"><ele>729.0</ele><time>2026-03-22T13:20:42.779Z</time></trkpt><trkpt lat="37.881295" lon="14.9504417"><ele>726.0</ele><time>2026-03-22T13:20:43.779Z</time></trkpt><trkpt lat="37.881265" lon="14.95055"><ele>723.0</ele><time>2026-03-22T13:20:44.779Z</time></trkpt><trkpt lat="37.8812267" lon="14.950655"><ele>720.0</ele><time>2026-03-22T13:20:45.78Z</time></trkpt><trkpt lat="37.8811867" lon="14.9507633"><ele>718.4</ele><time>2026-03-22T13:20:46.779Z</time></trkpt><trkpt lat="37.8811433" lon="14.9508867"><ele>716.8</ele><time>2026-03-22T13:20:47.779Z</time></trkpt><trkpt lat="37.8810983" lon="14.9510183"><ele>715.2</ele><time>2026-03-22T13:20:48.78Z</time></trkpt><trkpt lat="37.8810533" lon="14.9511517"><ele>713.6</ele><time>2026-03-22T13:20:49.779Z</time></trkpt><trkpt lat="37.8810083" lon="14.9512833"><ele>712.0</ele><time>2026-03-22T13:20:50.78Z</time></trkpt><trkpt lat="37.8809667" lon="14.9514183"><ele>713.8</ele><time>2026-03-22T13:20:51.779Z</time></trkpt><trkpt lat="37.88092" lon="14.951555"><ele>715.6</ele><time>2026-03-22T13:20:52.779Z</time></trkpt><trkpt lat="37.8808733" lon="14.9516883"><ele>717.4</ele><time>2026-03-22T13:20:53.78Z</time></trkpt><trkpt lat="37.8808317" lon="14.9518167"><ele>719.1999999999999</ele><time>2026-03-22T13:20:54.78Z</time></trkpt><trkpt lat="37.88079" lon="14.95194"><ele>721.0</ele><time>2026-03-22T13:20:55.78Z</time></trkpt><trkpt lat="37.8807467" lon="14.9520633"><ele>723.5999999999999</ele><time>2026-03-22T13:20:56.78Z</time></trkpt><trkpt lat="37.8807067" lon="14.9521883"><ele>726.2</ele><time>2026-03-22T13:20:57.779Z</time></trkpt><trkpt lat="37.880685" lon="14.9523217"><ele>728.8</ele><time>2026-03-22T13:20:58.779Z</time></trkpt><trkpt lat="37.880675" lon="14.9524633"><ele>731.4000000000001</ele><time>2026-03-22T13:20:59.779Z</time></trkpt><trkpt lat="37.880675" lon="14.9525967"><ele>734.0</ele><time>2026-03-22T13:21:00.78Z</time></trkpt><trkpt lat="37.88067" lon="14.95271"><ele>734.2</ele><time>2026-03-22T13:21:01.779Z</time></trkpt><trkpt lat="37.8806433" lon="14.9528267"><ele>734.4000000000001</ele><time>2026-03-22T13:21:02.78Z</time></trkpt><trkpt lat="37.8805967" lon="14.9529383"><ele>734.6</ele><time>2026-03-22T13:21:03.78Z</time></trkpt><trkpt lat="37.8805233" lon="14.95304"><ele>734.8</ele><time>2026-03-22T13:21:04.78Z</time></trkpt><trkpt lat="37.8804483" lon="14.9531183"><ele>735.0</ele><time>2026-03-22T13:21:05.779Z</time></trkpt><trkpt lat="37.88037" lon="14.9531733"><ele>735.0</ele><time>2026-03-22T13:21:06.78Z</time></trkpt><trkpt lat="37.88029" lon="14.9532167"><ele>735.0</ele><time>2026-03-22T13:21:07.779Z</time></trkpt><trkpt lat="37.880215" lon="14.9532467"><ele>735.0</ele><time>2026-03-22T13:21:08.779Z</time></trkpt><trkpt lat="37.8801467" lon="14.9532783"><ele>735.0</ele><time>2026-03-22T13:21:09.78Z</time></trkpt><trkpt lat="37.8800767" lon="14.9532967"><ele>735.0</ele><time>2026-03-22T13:21:10.78Z</time></trkpt><trkpt lat="37.8800133" lon="14.953305"><ele>735.0</ele><time>2026-03-22T13:21:11.779Z</time></trkpt><trkpt lat="37.87992" lon="14.9532883"><ele>736.1666666666666</ele><time>2026-03-22T13:21:13.779Z</time></trkpt><trkpt lat="37.8798383" lon="14.95322"><ele>737.3333333333334</ele><time>2026-03-22T13:21:15.779Z</time></trkpt><trkpt lat="37.8797833" lon="14.95316"><ele>738.5</ele><time>2026-03-22T13:21:16.779Z</time></trkpt><trkpt lat="37.8797167" lon="14.9530933"><ele>739.6666666666667</ele><time>2026-03-22T13:21:17.78Z</time></trkpt><trkpt lat="37.8796433" lon="14.9530233"><ele>740.8333333333334</ele><time>2026-03-22T13:21:18.78Z</time></trkpt><trkpt lat="37.87957" lon="14.9529467"><ele>742.0</ele><time>2026-03-22T13:21:19.78Z</time></trkpt><trkpt lat="37.87949" lon="14.9528583"><ele>742.0</ele><time>2026-03-22T13:21:20.78Z</time></trkpt><trkpt lat="37.8794017" lon="14.9527633"><ele>742.0</ele><time>2026-03-22T13:21:21.779Z</time></trkpt><trkpt lat="37.8793117" lon="14.9526617"><ele>742.0</ele><time>2026-03-22T13:21:22.78Z</time></trkpt><trkpt lat="37.8792183" lon="14.9525583"><ele>742.0</ele><time>2026-03-22T13:21:23.78Z</time></trkpt><trkpt lat="37.879125" lon="14.9524583"><ele>743.25</ele><time>2026-03-22T13:21:24.78Z</time></trkpt><trkpt lat="37.8790333" lon="14.9523583"><ele>744.5</ele><time>2026-03-22T13:21:25.779Z</time></trkpt><trkpt lat="37.8789417" lon="14.9522483"><ele>745.75</ele><time>2026-03-22T13:21:26.78Z</time></trkpt><trkpt lat="37.87884" lon="14.9521367"><ele>747.0</ele><time>2026-03-22T13:21:27.779Z</time></trkpt><trkpt lat="37.878745" lon="14.9520217"><ele>747.0</ele><time>2026-03-22T13:21:28.78Z</time></trkpt><trkpt lat="37.8786433" lon="14.9519117"><ele>747.0</ele><time>2026-03-22T13:21:29.78Z</time></trkpt><trkpt lat="37.8785433" lon="14.9517983"><ele>747.0</ele><time>2026-03-22T13:21:30.78Z</time></trkpt><trkpt lat="37.87844" lon="14.9516817"><ele>747.0</ele><time>2026-03-22T13:21:31.78Z</time></trkpt><trkpt lat="37.8783367" lon="14.9515717"><ele>748.25</ele><time>2026-03-22T13:21:32.779Z</time></trkpt><trkpt lat="37.8782383" lon="14.9514617"><ele>749.5</ele><time>2026-03-22T13:21:33.78Z</time></trkpt><trkpt lat="37.8781383" lon="14.951345"><ele>750.75</ele><time>2026-03-22T13:21:34.779Z</time></trkpt><trkpt lat="37.87805" lon="14.951225"><ele>752.0</ele><time>2026-03-22T13:21:35.779Z</time></trkpt><trkpt lat="37.877965" lon="14.9511333"><ele>752.0</ele><time>2026-03-22T13:21:36.78Z</time></trkpt><trkpt lat="37.8779" lon="14.951045"><ele>752.0</ele><time>2026-03-22T13:21:37.78Z</time></trkpt><trkpt lat="37.877855" lon="14.950975"><ele>752.0</ele><time>2026-03-22T13:21:38.78Z</time></trkpt><trkpt lat="37.8777983" lon="14.9508367"><ele>752.0</ele><time>2026-03-22T13:21:40.779Z</time></trkpt><trkpt lat="37.8777783" lon="14.950755"><ele>752.0</ele><time>2026-03-22T13:21:41.779Z</time></trkpt><trkpt lat="37.8777633" lon="14.9506717"><ele>752.0</ele><time>2026-03-22T13:21:42.779Z</time></trkpt><trkpt lat="37.8777433" lon="14.950515"><ele>752.6666666666666</ele><time>2026-03-22T13:21:44.779Z</time></trkpt><trkpt lat="37.8777333" lon="14.9504267"><ele>753.3333333333333</ele><time>2026-03-22T13:21:45.779Z</time></trkpt><trkpt lat="37.8777167" lon="14.9503317"><ele>754.0</ele><time>2026-03-22T13:21:46.779Z</time></trkpt><trkpt lat="37.8776967" lon="14.9502317"><ele>754.6666666666666</ele><time>2026-03-22T13:21:47.779Z</time></trkpt><trkpt lat="37.87768" lon="14.9501333"><ele>755.3333333333334</ele><time>2026-03-22T13:21:48.78Z</time></trkpt><trkpt lat="37.8776667" lon="14.95003"><ele>756.0</ele><time>2026-03-22T13:21:49.779Z</time></trkpt><trkpt lat="37.877645" lon="14.94993"><ele>756.1666666666666</ele><time>2026-03-22T13:21:50.78Z</time></trkpt><trkpt lat="37.8776167" lon="14.9498367"><ele>756.3333333333334</ele><time>2026-03-22T13:21:51.779Z</time></trkpt><trkpt lat="37.8775867" lon="14.949745"><ele>756.5</ele><time>2026-03-22T13:21:52.779Z</time></trkpt><trkpt lat="37.8775467" lon="14.9496583"><ele>756.6666666666667</ele><time>2026-03-22T13:21:53.779Z</time></trkpt><trkpt lat="37.8775067" lon="14.94957"><ele>756.8333333333334</ele><time>2026-03-22T13:21:54.78Z</time></trkpt><trkpt lat="37.8774667" lon="14.949485"><ele>757.0</ele><time>2026-03-22T13:21:55.78Z</time></trkpt><trkpt lat="37.8774333" lon="14.9494017"><ele>756.5</ele><time>2026-03-22T13:21:56.779Z</time></trkpt><trkpt lat="37.877405" lon="14.949315"><ele>756.0</ele><time>2026-03-22T13:21:57.779Z</time></trkpt><trkpt lat="37.877375" lon="14.94923"><ele>755.5</ele><time>2026-03-22T13:21:58.78Z</time></trkpt><trkpt lat="37.8773367" lon="14.9491433"><ele>755.0</ele><time>2026-03-22T13:21:59.779Z</time></trkpt><trkpt lat="37.8772967" lon="14.9490633"><ele>754.5</ele><time>2026-03-22T13:22:00.779Z</time></trkpt><trkpt lat="37.877255" lon="14.94898"><ele>754.0</ele><time>2026-03-22T13:22:01.779Z</time></trkpt><trkpt lat="37.8772118" lon="14.9488921"><ele>755.2</ele><time>2026-03-22T13:22:02.78Z</time></trkpt><trkpt lat="37.8771617" lon="14.9488015"><ele>756.4000000000001</ele><time>2026-03-22T13:22:03.78Z</time></trkpt><trkpt lat="37.8771124" lon="14.9487097"><ele>757.6</ele><time>2026-03-22T13:22:04.779Z</time></trkpt><trkpt lat="37.8770651" lon="14.9486078"><ele>758.8</ele><time>2026-03-22T13:22:05.78Z</time></trkpt><trkpt lat="37.8770236" lon="14.9485007"><ele>760.0</ele><time>2026-03-22T13:22:06.779Z</time></trkpt><trkpt lat="37.8769795" lon="14.9483994"><ele>760.2</ele><time>2026-03-22T13:22:07.78Z</time></trkpt><trkpt lat="37.8769353" lon="14.9483021"><ele>760.4</ele><time>2026-03-22T13:22:08.779Z</time></trkpt><trkpt lat="37.8768863" lon="14.9482031"><ele>760.5999999999999</ele><time>2026-03-22T13:22:09.78Z</time></trkpt><trkpt lat="37.87684" lon="14.9481076"><ele>760.8</ele><time>2026-03-22T13:22:10.78Z</time></trkpt><trkpt lat="37.876791" lon="14.9480086"><ele>761.0</ele><time>2026-03-22T13:22:11.779Z</time></trkpt><trkpt lat="37.8767449" lon="14.9478968"><ele>761.3333333333333</ele><time>2026-03-22T13:22:12.78Z</time></trkpt><trkpt lat="37.8766985" lon="14.94778"><ele>761.6666666666666</ele><time>2026-03-22T13:22:13.78Z</time></trkpt><trkpt lat="37.8766592" lon="14.9476736"><ele>762.0</ele><time>2026-03-22T13:22:14.779Z</time></trkpt><trkpt lat="37.8766218" lon="14.9475765"><ele>762.3333333333334</ele><time>2026-03-22T13:22:15.779Z</time></trkpt><trkpt lat="37.8765904" lon="14.9474955"><ele>762.6666666666667</ele><time>2026-03-22T13:22:16.78Z</time></trkpt><trkpt lat="37.8765659" lon="14.9474191"><ele>763.0</ele><time>2026-03-22T13:22:17.779Z</time></trkpt><trkpt lat="37.8765219" lon="14.9472878"><ele>763.4</ele><time>2026-03-22T13:22:19.779Z</time></trkpt><trkpt lat="37.8764739" lon="14.9471691"><ele>763.8</ele><time>2026-03-22T13:22:21.779Z</time></trkpt><trkpt lat="37.8764516" lon="14.9470415"><ele>764.2</ele><time>2026-03-22T13:22:23.779Z</time></trkpt><trkpt lat="37.8764352" lon="14.9469622"><ele>764.6</ele><time>2026-03-22T13:22:24.779Z</time></trkpt><trkpt lat="37.8764205" lon="14.9468584"><ele>765.0</ele><time>2026-03-22T13:22:25.779Z</time></trkpt><trkpt lat="37.8764006" lon="14.9467398"><ele>765.4</ele><time>2026-03-22T13:22:26.78Z</time></trkpt><trkpt lat="37.8763791" lon="14.9466166"><ele>765.8</ele><time>2026-03-22T13:22:27.78Z</time></trkpt><trkpt lat="37.8763594" lon="14.9464846"><ele>766.2</ele><time>2026-03-22T13:22:28.78Z</time></trkpt><trkpt lat="37.8763391" lon="14.9463421"><ele>766.6</ele><time>2026-03-22T13:22:29.78Z</time></trkpt><trkpt lat="37.8763175" lon="14.9461945"><ele>767.0</ele><time>2026-03-22T13:22:30.78Z</time></trkpt><trkpt lat="37.8762828" lon="14.9460394"><ele>767.0</ele><time>2026-03-22T13:22:31.78Z</time></trkpt><trkpt lat="37.876227" lon="14.9459004"><ele>767.0</ele><time>2026-03-22T13:22:32.78Z</time></trkpt><trkpt lat="37.8761406" lon="14.9457855"><ele>767.0</ele><time>2026-03-22T13:22:33.779Z</time></trkpt><trkpt lat="37.8760383" lon="14.9456777"><ele>767.0</ele><time>2026-03-22T13:22:34.78Z</time></trkpt><trkpt lat="37.8759329" lon="14.9455729"><ele>768.75</ele><time>2026-03-22T13:22:35.78Z</time></trkpt><trkpt lat="37.8758198" lon="14.9454824"><ele>770.5</ele><time>2026-03-22T13:22:36.78Z</time></trkpt><trkpt lat="37.8756956" lon="14.945407"><ele>772.25</ele><time>2026-03-22T13:22:37.78Z</time></trkpt><trkpt lat="37.8755559" lon="14.9453443"><ele>774.0</ele><time>2026-03-22T13:22:38.78Z</time></trkpt><trkpt lat="37.8754119" lon="14.945278"><ele>774.0</ele><time>2026-03-22T13:22:39.779Z</time></trkpt><trkpt lat="37.8752717" lon="14.9452116"><ele>774.0</ele><time>2026-03-22T13:22:40.78Z</time></trkpt><trkpt lat="37.8751447" lon="14.945152"><ele>774.0</ele><time>2026-03-22T13:22:41.779Z</time></trkpt><trkpt lat="37.8750401" lon="14.9451028"><ele>774.0</ele><time>2026-03-22T13:22:42.779Z</time></trkpt><trkpt lat="37.8749732" lon="14.9450675"><ele>775.8000000000001</ele><time>2026-03-22T13:22:43.779Z</time></trkpt><trkpt lat="37.874925" lon="14.9449999"><ele>777.6</ele><time>2026-03-22T13:22:45.78Z</time></trkpt><trkpt lat="37.8749736" lon="14.9449346"><ele>779.4</ele><time>2026-03-22T13:22:47.779Z</time></trkpt><trkpt lat="37.8751083" lon="14.94496"><ele>781.2</ele><time>2026-03-22T13:22:49.779Z</time></trkpt><trkpt lat="37.8751933" lon="14.9450017"><ele>783.0</ele><time>2026-03-22T13:22:50.779Z</time></trkpt><trkpt lat="37.8752883" lon="14.94504"><ele>783.5999999999999</ele><time>2026-03-22T13:22:51.78Z</time></trkpt><trkpt lat="37.8753733" lon="14.9450617"><ele>784.1999999999999</ele><time>2026-03-22T13:22:52.78Z</time></trkpt><trkpt lat="37.8754517" lon="14.9450683"><ele>784.8</ele><time>2026-03-22T13:22:53.779Z</time></trkpt><trkpt lat="37.875515" lon="14.9450317"><ele>785.4</ele><time>2026-03-22T13:22:54.78Z</time></trkpt><trkpt lat="37.875555" lon="14.9448767"><ele>786.0</ele><time>2026-03-22T13:22:56.779Z</time></trkpt><trkpt lat="37.875525" lon="14.94477"><ele>786.0</ele><time>2026-03-22T13:22:57.779Z</time></trkpt><trkpt lat="37.8754783" lon="14.9446583"><ele>786.0</ele><time>2026-03-22T13:22:58.779Z</time></trkpt><trkpt lat="37.8754167" lon="14.9445517"><ele>786.0</ele><time>2026-03-22T13:22:59.78Z</time></trkpt><trkpt lat="37.8753633" lon="14.944445"><ele>786.0</ele><time>2026-03-22T13:23:00.78Z</time></trkpt><trkpt lat="37.8753133" lon="14.9443367"><ele>786.0</ele><time>2026-03-22T13:23:01.779Z</time></trkpt><trkpt lat="37.8752667" lon="14.944215"><ele>785.25</ele><time>2026-03-22T13:23:02.78Z</time></trkpt><trkpt lat="37.87522" lon="14.9440917"><ele>784.5</ele><time>2026-03-22T13:23:03.779Z</time></trkpt><trkpt lat="37.8751667" lon="14.943965"><ele>783.75</ele><time>2026-03-22T13:23:04.78Z</time></trkpt><trkpt lat="37.8751083" lon="14.9438383"><ele>783.0</ele><time>2026-03-22T13:23:05.779Z</time></trkpt><trkpt lat="37.875045" lon="14.9437117"><ele>783.0</ele><time>2026-03-22T13:23:06.779Z</time></trkpt><trkpt lat="37.8749783" lon="14.9435917"><ele>783.0</ele><time>2026-03-22T13:23:07.78Z</time></trkpt><trkpt lat="37.8749133" lon="14.9434783"><ele>783.0</ele><time>2026-03-22T13:23:08.78Z</time></trkpt><trkpt lat="37.87485" lon="14.9433733"><ele>783.0</ele><time>2026-03-22T13:23:09.78Z</time></trkpt><trkpt lat="37.8747833" lon="14.9432683"><ele>783.0</ele><time>2026-03-22T13:23:10.779Z</time></trkpt><trkpt lat="37.8747167" lon="14.9431717"><ele>783.0</ele><time>2026-03-22T13:23:11.78Z</time></trkpt><trkpt lat="37.8746517" lon="14.9430683"><ele>783.0</ele><time>2026-03-22T13:23:12.779Z</time></trkpt><trkpt lat="37.8745867" lon="14.9429733"><ele>783.0</ele><time>2026-03-22T13:23:13.779Z</time></trkpt><trkpt lat="37.87453" lon="14.942875"><ele>783.0</ele><time>2026-03-22T13:23:14.779Z</time></trkpt><trkpt lat="37.8744817" lon="14.9427833"><ele>783.0</ele><time>2026-03-22T13:23:15.779Z</time></trkpt><trkpt lat="37.8744583" lon="14.9426783"><ele>783.0</ele><time>2026-03-22T13:23:16.78Z</time></trkpt><trkpt lat="37.87445" lon="14.9425633"><ele>783.0</ele><time>2026-03-22T13:23:17.78Z</time></trkpt><trkpt lat="37.874465" lon="14.9424333"><ele>783.0</ele><time>2026-03-22T13:23:18.78Z</time></trkpt><trkpt lat="37.8744883" lon="14.9422983"><ele>783.0</ele><time>2026-03-22T13:23:19.779Z</time></trkpt><trkpt lat="37.87451" lon="14.9421517"><ele>783.0</ele><time>2026-03-22T13:23:20.78Z</time></trkpt><trkpt lat="37.8745283" lon="14.9419983"><ele>782.5</ele><time>2026-03-22T13:23:21.78Z</time></trkpt><trkpt lat="37.87454" lon="14.94184"><ele>782.0</ele><time>2026-03-22T13:23:22.78Z</time></trkpt><trkpt lat="37.8745567" lon="14.9416733"><ele>781.5</ele><time>2026-03-22T13:23:23.78Z</time></trkpt><trkpt lat="37.874565" lon="14.9414967"><ele>781.0</ele><time>2026-03-22T13:23:24.779Z</time></trkpt><trkpt lat="37.8745683" lon="14.9413167"><ele>783.25</ele><time>2026-03-22T13:23:25.78Z</time></trkpt><trkpt lat="37.8745767" lon="14.94114"><ele>785.5</ele><time>2026-03-22T13:23:26.779Z</time></trkpt><trkpt lat="37.8745733" lon="14.9409733"><ele>787.75</ele><time>2026-03-22T13:23:27.78Z</time></trkpt><trkpt lat="37.8745617" lon="14.9408067"><ele>790.0</ele><time>2026-03-22T13:23:28.779Z</time></trkpt><trkpt lat="37.87454" lon="14.9406383"><ele>790.25</ele><time>2026-03-22T13:23:29.78Z</time></trkpt><trkpt lat="37.874505" lon="14.94048"><ele>790.5</ele><time>2026-03-22T13:23:30.779Z</time></trkpt><trkpt lat="37.874445" lon="14.940325"><ele>790.75</ele><time>2026-03-22T13:23:31.78Z</time></trkpt><trkpt lat="37.8743733" lon="14.94018"><ele>791.0</ele><time>2026-03-22T13:23:32.78Z</time></trkpt><trkpt lat="37.8743167" lon="14.9400383"><ele>794.25</ele><time>2026-03-22T13:23:33.78Z</time></trkpt><trkpt lat="37.8742633" lon="14.939905"><ele>797.5</ele><time>2026-03-22T13:23:34.779Z</time></trkpt><trkpt lat="37.874215" lon="14.9397683"><ele>800.75</ele><time>2026-03-22T13:23:35.779Z</time></trkpt><trkpt lat="37.87416" lon="14.939625"><ele>804.0</ele><time>2026-03-22T13:23:36.78Z</time></trkpt><trkpt lat="37.8740983" lon="14.939475"><ele>804.0</ele><time>2026-03-22T13:23:37.779Z</time></trkpt><trkpt lat="37.87403" lon="14.9393217"><ele>804.0</ele><time>2026-03-22T13:23:38.78Z</time></trkpt><trkpt lat="37.87396" lon="14.9391667"><ele>804.0</ele><time>2026-03-22T13:23:39.78Z</time></trkpt><trkpt lat="37.8738917" lon="14.9390117"><ele>804.0</ele><time>2026-03-22T13:23:40.779Z</time></trkpt><trkpt lat="37.8738317" lon="14.9388633"><ele>803.0</ele><time>2026-03-22T13:23:41.779Z</time></trkpt><trkpt lat="37.8737783" lon="14.9387267"><ele>802.0</ele><time>2026-03-22T13:23:42.779Z</time></trkpt><trkpt lat="37.8737283" lon="14.9386033"><ele>801.0</ele><time>2026-03-22T13:23:43.779Z</time></trkpt><trkpt lat="37.873675" lon="14.93849"><ele>800.0</ele><time>2026-03-22T13:23:44.779Z</time></trkpt><trkpt lat="37.8736067" lon="14.9383833"><ele>799.0</ele><time>2026-03-22T13:23:45.779Z</time></trkpt><trkpt lat="37.8735167" lon="14.9382833"><ele>799.25</ele><time>2026-03-22T13:23:46.779Z</time></trkpt><trkpt lat="37.873405" lon="14.938195"><ele>799.5</ele><time>2026-03-22T13:23:47.779Z</time></trkpt><trkpt lat="37.87328" lon="14.938115"><ele>799.75</ele><time>2026-03-22T13:23:48.779Z</time></trkpt><trkpt lat="37.873155" lon="14.93804"><ele>800.0</ele><time>2026-03-22T13:23:49.78Z</time></trkpt><trkpt lat="37.8730333" lon="14.9379617"><ele>800.0</ele><time>2026-03-22T13:23:50.779Z</time></trkpt><trkpt lat="37.872915" lon="14.9378767"><ele>800.0</ele><time>2026-03-22T13:23:51.78Z</time></trkpt><trkpt lat="37.8727983" lon="14.937775"><ele>800.0</ele><time>2026-03-22T13:23:52.78Z</time></trkpt><trkpt lat="37.8726967" lon="14.9376483"><ele>800.0</ele><time>2026-03-22T13:23:53.78Z</time></trkpt><trkpt lat="37.87262" lon="14.9375"><ele>798.25</ele><time>2026-03-22T13:23:54.78Z</time></trkpt><trkpt lat="37.87256" lon="14.9373367"><ele>796.5</ele><time>2026-03-22T13:23:55.78Z</time></trkpt><trkpt lat="37.87251" lon="14.9371733"><ele>794.75</ele><time>2026-03-22T13:23:56.779Z</time></trkpt><trkpt lat="37.8724717" lon="14.937015"><ele>793.0</ele><time>2026-03-22T13:23:57.779Z</time></trkpt><trkpt lat="37.8724417" lon="14.93686"><ele>793.0</ele><time>2026-03-22T13:23:58.779Z</time></trkpt><trkpt lat="37.8724217" lon="14.9367067"><ele>793.0</ele><time>2026-03-22T13:23:59.78Z</time></trkpt><trkpt lat="37.87241" lon="14.9365483"><ele>793.0</ele><time>2026-03-22T13:24:00.779Z</time></trkpt><trkpt lat="37.8724133" lon="14.93639"><ele>793.0</ele><time>2026-03-22T13:24:01.78Z</time></trkpt><trkpt lat="37.8724283" lon="14.93623"><ele>793.0</ele><time>2026-03-22T13:24:02.779Z</time></trkpt><trkpt lat="37.872445" lon="14.936075"><ele>793.0</ele><time>2026-03-22T13:24:03.78Z</time></trkpt><trkpt lat="37.8724567" lon="14.9359133"><ele>793.0</ele><time>2026-03-22T13:24:04.78Z</time></trkpt><trkpt lat="37.872465" lon="14.9357583"><ele>793.0</ele><time>2026-03-22T13:24:05.779Z</time></trkpt><trkpt lat="37.8724533" lon="14.9356"><ele>793.25</ele><time>2026-03-22T13:24:06.779Z</time></trkpt><trkpt lat="37.8724317" lon="14.9354367"><ele>793.5</ele><time>2026-03-22T13:24:07.78Z</time></trkpt><trkpt lat="37.872405" lon="14.93526"><ele>793.75</ele><time>2026-03-22T13:24:08.779Z</time></trkpt><trkpt lat="37.8723883" lon="14.9350767"><ele>794.0</ele><time>2026-03-22T13:24:09.779Z</time></trkpt><trkpt lat="37.8723817" lon="14.9348817"><ele>792.6666666666667</ele><time>2026-03-22T13:24:10.78Z</time></trkpt><trkpt lat="37.87238" lon="14.93468"><ele>791.3333333333333</ele><time>2026-03-22T13:24:11.78Z</time></trkpt><trkpt lat="37.87238" lon="14.9344733"><ele>790.0</ele><time>2026-03-22T13:24:12.779Z</time></trkpt><trkpt lat="37.8723867" lon="14.9342633"><ele>790.6666666666666</ele><time>2026-03-22T13:24:13.779Z</time></trkpt><trkpt lat="37.8723933" lon="14.9340633"><ele>791.3333333333333</ele><time>2026-03-22T13:24:14.779Z</time></trkpt><trkpt lat="37.872395" lon="14.93386"><ele>792.0</ele><time>2026-03-22T13:24:15.78Z</time></trkpt><trkpt lat="37.8723917" lon="14.9336617"><ele>792.0</ele><time>2026-03-22T13:24:16.779Z</time></trkpt><trkpt lat="37.8723817" lon="14.9334733"><ele>792.0</ele><time>2026-03-22T13:24:17.78Z</time></trkpt><trkpt lat="37.8723517" lon="14.93329"><ele>792.0</ele><time>2026-03-22T13:24:18.779Z</time></trkpt><trkpt lat="37.8723117" lon="14.9331017"><ele>793.0</ele><time>2026-03-22T13:24:19.779Z</time></trkpt><trkpt lat="37.8722717" lon="14.932915"><ele>794.0</ele><time>2026-03-22T13:24:20.779Z</time></trkpt><trkpt lat="37.8722183" lon="14.9327233"><ele>795.0</ele><time>2026-03-22T13:24:21.779Z</time></trkpt><trkpt lat="37.8721517" lon="14.9325383"><ele>795.0</ele><time>2026-03-22T13:24:22.78Z</time></trkpt><trkpt lat="37.8720667" lon="14.9323567"><ele>795.0</ele><time>2026-03-22T13:24:23.78Z</time></trkpt><trkpt lat="37.8719733" lon="14.9321917"><ele>795.0</ele><time>2026-03-22T13:24:24.78Z</time></trkpt><trkpt lat="37.87186" lon="14.9320467"><ele>797.6666666666667</ele><time>2026-03-22T13:24:25.78Z</time></trkpt><trkpt lat="37.8717317" lon="14.9319217"><ele>800.3333333333334</ele><time>2026-03-22T13:24:26.78Z</time></trkpt><trkpt lat="37.871595" lon="14.9318083"><ele>803.0</ele><time>2026-03-22T13:24:27.779Z</time></trkpt><trkpt lat="37.8714483" lon="14.9317133"><ele>803.0</ele><time>2026-03-22T13:24:28.78Z</time></trkpt><trkpt lat="37.871295" lon="14.9316283"><ele>803.0</ele><time>2026-03-22T13:24:29.779Z</time></trkpt><trkpt lat="37.87115" lon="14.9315517"><ele>803.0</ele><time>2026-03-22T13:24:30.779Z</time></trkpt><trkpt lat="37.8710167" lon="14.9314733"><ele>805.3333333333334</ele><time>2026-03-22T13:24:31.779Z</time></trkpt><trkpt lat="37.870885" lon="14.9313817"><ele>807.6666666666667</ele><time>2026-03-22T13:24:32.78Z</time></trkpt><trkpt lat="37.8707583" lon="14.9312733"><ele>810.0</ele><time>2026-03-22T13:24:33.779Z</time></trkpt><trkpt lat="37.8706367" lon="14.9311467"><ele>810.0</ele><time>2026-03-22T13:24:34.78Z</time></trkpt><trkpt lat="37.8705267" lon="14.9310017"><ele>810.0</ele><time>2026-03-22T13:24:35.78Z</time></trkpt><trkpt lat="37.870425" lon="14.9308433"><ele>810.0</ele><time>2026-03-22T13:24:36.779Z</time></trkpt><trkpt lat="37.8703433" lon="14.9306817"><ele>808.25</ele><time>2026-03-22T13:24:37.779Z</time></trkpt><trkpt lat="37.8702683" lon="14.93052"><ele>806.5</ele><time>2026-03-22T13:24:38.78Z</time></trkpt><trkpt lat="37.8702167" lon="14.9303583"><ele>804.75</ele><time>2026-03-22T13:24:39.78Z</time></trkpt><trkpt lat="37.870175" lon="14.9302033"><ele>803.0</ele><time>2026-03-22T13:24:40.78Z</time></trkpt><trkpt lat="37.8701433" lon="14.9300533"><ele>802.8</ele><time>2026-03-22T13:24:41.78Z</time></trkpt><trkpt lat="37.8701133" lon="14.9299133"><ele>802.5999999999999</ele><time>2026-03-22T13:24:42.779Z</time></trkpt><trkpt lat="37.8700817" lon="14.92978"><ele>802.4000000000001</ele><time>2026-03-22T13:24:43.779Z</time></trkpt><trkpt lat="37.870035" lon="14.9296583"><ele>802.2</ele><time>2026-03-22T13:24:44.779Z</time></trkpt><trkpt lat="37.8699667" lon="14.92955"><ele>802.0</ele><time>2026-03-22T13:24:45.779Z</time></trkpt><trkpt lat="37.8698917" lon="14.9294467"><ele>804.75</ele><time>2026-03-22T13:24:46.78Z</time></trkpt><trkpt lat="37.8698267" lon="14.9293167"><ele>807.5</ele><time>2026-03-22T13:24:47.78Z</time></trkpt><trkpt lat="37.869765" lon="14.9291767"><ele>810.25</ele><time>2026-03-22T13:24:48.779Z</time></trkpt><trkpt lat="37.869705" lon="14.9290217"><ele>813.0</ele><time>2026-03-22T13:24:49.78Z</time></trkpt><trkpt lat="37.8696417" lon="14.92886"><ele>814.3333333333333</ele><time>2026-03-22T13:24:50.779Z</time></trkpt><trkpt lat="37.8695733" lon="14.92869"><ele>815.6666666666666</ele><time>2026-03-22T13:24:51.779Z</time></trkpt><trkpt lat="37.8695033" lon="14.9285133"><ele>817.0</ele><time>2026-03-22T13:24:52.779Z</time></trkpt><trkpt lat="37.8694217" lon="14.928335"><ele>817.6666666666666</ele><time>2026-03-22T13:24:53.78Z</time></trkpt><trkpt lat="37.8693333" lon="14.9281767"><ele>818.3333333333333</ele><time>2026-03-22T13:24:54.78Z</time></trkpt><trkpt lat="37.8692217" lon="14.9280417"><ele>819.0</ele><time>2026-03-22T13:24:55.78Z</time></trkpt><trkpt lat="37.8690967" lon="14.9279167"><ele>819.0</ele><time>2026-03-22T13:24:56.78Z</time></trkpt><trkpt lat="37.8689533" lon="14.9278083"><ele>819.0</ele><time>2026-03-22T13:24:57.779Z</time></trkpt><trkpt lat="37.8688017" lon="14.92771"><ele>819.0</ele><time>2026-03-22T13:24:58.779Z</time></trkpt><trkpt lat="37.8686367" lon="14.927625"><ele>818.6666666666667</ele><time>2026-03-22T13:24:59.779Z</time></trkpt><trkpt lat="37.8684683" lon="14.9275483"><ele>818.3333333333334</ele><time>2026-03-22T13:25:00.78Z</time></trkpt><trkpt lat="37.868295" lon="14.927475"><ele>818.0</ele><time>2026-03-22T13:25:01.779Z</time></trkpt><trkpt lat="37.8681183" lon="14.9273983"><ele>819.3333333333334</ele><time>2026-03-22T13:25:02.78Z</time></trkpt><trkpt lat="37.86794" lon="14.927325"><ele>820.6666666666667</ele><time>2026-03-22T13:25:03.78Z</time></trkpt><trkpt lat="37.8677783" lon="14.9272583"><ele>822.0</ele><time>2026-03-22T13:25:04.779Z</time></trkpt><trkpt lat="37.8676267" lon="14.9272"><ele>822.0</ele><time>2026-03-22T13:25:05.78Z</time></trkpt><trkpt lat="37.8674833" lon="14.9271567"><ele>822.0</ele><time>2026-03-22T13:25:06.779Z</time></trkpt><trkpt lat="37.8673483" lon="14.9271217"><ele>822.0</ele><time>2026-03-22T13:25:07.779Z</time></trkpt><trkpt lat="37.8672117" lon="14.9271133"><ele>822.0</ele><time>2026-03-22T13:25:08.779Z</time></trkpt><trkpt lat="37.86707" lon="14.9271133"><ele>822.0</ele><time>2026-03-22T13:25:09.779Z</time></trkpt><trkpt lat="37.86693" lon="14.9271217"><ele>822.0</ele><time>2026-03-22T13:25:10.779Z</time></trkpt><trkpt lat="37.8667883" lon="14.9271267"><ele>822.0</ele><time>2026-03-22T13:25:11.78Z</time></trkpt><trkpt lat="37.8666417" lon="14.9271317"><ele>822.0</ele><time>2026-03-22T13:25:12.78Z</time></trkpt><trkpt lat="37.8664917" lon="14.92714"><ele>823.0</ele><time>2026-03-22T13:25:13.78Z</time></trkpt><trkpt lat="37.866335" lon="14.9271533"><ele>824.0</ele><time>2026-03-22T13:25:14.779Z</time></trkpt><trkpt lat="37.8661767" lon="14.927165"><ele>825.0</ele><time>2026-03-22T13:25:15.779Z</time></trkpt><trkpt lat="37.8660167" lon="14.9271733"><ele>827.0</ele><time>2026-03-22T13:25:16.78Z</time></trkpt><trkpt lat="37.8658533" lon="14.927185"><ele>829.0</ele><time>2026-03-22T13:25:17.78Z</time></trkpt><trkpt lat="37.8656867" lon="14.927195"><ele>831.0</ele><time>2026-03-22T13:25:18.779Z</time></trkpt><trkpt lat="37.8655217" lon="14.9271967"><ele>831.0</ele><time>2026-03-22T13:25:19.779Z</time></trkpt><trkpt lat="37.8653533" lon="14.9272067"><ele>831.0</ele><time>2026-03-22T13:25:20.779Z</time></trkpt><trkpt lat="37.86518" lon="14.9272133"><ele>831.0</ele><time>2026-03-22T13:25:21.78Z</time></trkpt><trkpt lat="37.8650067" lon="14.92722"><ele>831.6666666666667</ele><time>2026-03-22T13:25:22.78Z</time></trkpt><trkpt lat="37.86483" lon="14.9272283"><ele>832.3333333333334</ele><time>2026-03-22T13:25:23.78Z</time></trkpt><trkpt lat="37.8646533" lon="14.92724"><ele>833.0</ele><time>2026-03-22T13:25:24.779Z</time></trkpt><trkpt lat="37.8644733" lon="14.92725"><ele>833.0</ele><time>2026-03-22T13:25:25.779Z</time></trkpt><trkpt lat="37.86429" lon="14.92726"><ele>833.0</ele><time>2026-03-22T13:25:26.779Z</time></trkpt><trkpt lat="37.8641133" lon="14.9272633"><ele>833.0</ele><time>2026-03-22T13:25:27.779Z</time></trkpt><trkpt lat="37.8639433" lon="14.9272567"><ele>833.6666666666667</ele><time>2026-03-22T13:25:28.779Z</time></trkpt><trkpt lat="37.8637783" lon="14.9272333"><ele>834.3333333333333</ele><time>2026-03-22T13:25:29.779Z</time></trkpt><trkpt lat="37.863615" lon="14.9271867"><ele>835.0</ele><time>2026-03-22T13:25:30.78Z</time></trkpt><trkpt lat="37.8634567" lon="14.9271167"><ele>836.3333333333333</ele><time>2026-03-22T13:25:31.779Z</time></trkpt><trkpt lat="37.8632933" lon="14.9270283"><ele>837.6666666666667</ele><time>2026-03-22T13:25:32.78Z</time></trkpt><trkpt lat="37.8631333" lon="14.9269317"><ele>839.0</ele><time>2026-03-22T13:25:33.78Z</time></trkpt><trkpt lat="37.86298" lon="14.9268267"><ele>840.6666666666667</ele><time>2026-03-22T13:25:34.779Z</time></trkpt><trkpt lat="37.8628233" lon="14.9267233"><ele>842.3333333333333</ele><time>2026-03-22T13:25:35.779Z</time></trkpt><trkpt lat="37.86266" lon="14.9266183"><ele>844.0</ele><time>2026-03-22T13:25:36.78Z</time></trkpt><trkpt lat="37.8625" lon="14.9265083"><ele>844.3333333333333</ele><time>2026-03-22T13:25:37.78Z</time></trkpt><trkpt lat="37.8623383" lon="14.92639"><ele>844.6666666666667</ele><time>2026-03-22T13:25:38.78Z</time></trkpt><trkpt lat="37.8621867" lon="14.92626"><ele>845.0</ele><time>2026-03-22T13:25:39.78Z</time></trkpt><trkpt lat="37.8620417" lon="14.9261133"><ele>845.0</ele><time>2026-03-22T13:25:40.779Z</time></trkpt><trkpt lat="37.8618967" lon="14.925965"><ele>845.0</ele><time>2026-03-22T13:25:41.78Z</time></trkpt><trkpt lat="37.8617467" lon="14.92582"><ele>845.0</ele><time>2026-03-22T13:25:42.779Z</time></trkpt><trkpt lat="37.861595" lon="14.9256767"><ele>845.6666666666667</ele><time>2026-03-22T13:25:43.779Z</time></trkpt><trkpt lat="37.8614533" lon="14.9255317"><ele>846.3333333333333</ele><time>2026-03-22T13:25:44.78Z</time></trkpt><trkpt lat="37.8613083" lon="14.9253783"><ele>847.0</ele><time>2026-03-22T13:25:45.779Z</time></trkpt><trkpt lat="37.86119" lon="14.9252083"><ele>846.6666666666666</ele><time>2026-03-22T13:25:46.78Z</time></trkpt><trkpt lat="37.8610883" lon="14.9250167"><ele>846.3333333333333</ele><time>2026-03-22T13:25:47.779Z</time></trkpt><trkpt lat="37.860995" lon="14.9248133"><ele>846.0</ele><time>2026-03-22T13:25:48.78Z</time></trkpt><trkpt lat="37.8609" lon="14.9246117"><ele>848.6666666666667</ele><time>2026-03-22T13:25:49.78Z</time></trkpt><trkpt lat="37.860805" lon="14.9244133"><ele>851.3333333333334</ele><time>2026-03-22T13:25:50.78Z</time></trkpt><trkpt lat="37.86071" lon="14.9242183"><ele>854.0</ele><time>2026-03-22T13:25:51.781Z</time></trkpt><trkpt lat="37.8606183" lon="14.92402"><ele>855.3333333333334</ele><time>2026-03-22T13:25:52.781Z</time></trkpt><trkpt lat="37.86052" lon="14.9238233"><ele>856.6666666666667</ele><time>2026-03-22T13:25:53.78Z</time></trkpt><trkpt lat="37.8604217" lon="14.9236317"><ele>858.0</ele><time>2026-03-22T13:25:54.781Z</time></trkpt><trkpt lat="37.8603183" lon="14.9234383"><ele>858.3333333333333</ele><time>2026-03-22T13:25:55.78Z</time></trkpt><trkpt lat="37.86021" lon="14.9232517"><ele>858.6666666666666</ele><time>2026-03-22T13:25:56.78Z</time></trkpt><trkpt lat="37.8601033" lon="14.9230767"><ele>859.0</ele><time>2026-03-22T13:25:57.781Z</time></trkpt><trkpt lat="37.8599883" lon="14.9229183"><ele>861.0</ele><time>2026-03-22T13:25:58.781Z</time></trkpt><trkpt lat="37.8598567" lon="14.9227883"><ele>863.0</ele><time>2026-03-22T13:25:59.781Z</time></trkpt><trkpt lat="37.8597033" lon="14.9226983"><ele>865.0</ele><time>2026-03-22T13:26:00.781Z</time></trkpt><trkpt lat="37.8595417" lon="14.9226367"><ele>865.0</ele><time>2026-03-22T13:26:01.78Z</time></trkpt><trkpt lat="37.8593683" lon="14.92259"><ele>865.0</ele><time>2026-03-22T13:26:02.78Z</time></trkpt><trkpt lat="37.8591917" lon="14.9225483"><ele>865.0</ele><time>2026-03-22T13:26:03.781Z</time></trkpt><trkpt lat="37.8590083" lon="14.92251"><ele>866.0</ele><time>2026-03-22T13:26:04.78Z</time></trkpt><trkpt lat="37.8588267" lon="14.9224683"><ele>867.0</ele><time>2026-03-22T13:26:05.78Z</time></trkpt><trkpt lat="37.858645" lon="14.922425"><ele>868.0</ele><time>2026-03-22T13:26:06.78Z</time></trkpt><trkpt lat="37.8584617" lon="14.9223833"><ele>869.3333333333333</ele><time>2026-03-22T13:26:07.781Z</time></trkpt><trkpt lat="37.8582783" lon="14.9223433"><ele>870.6666666666667</ele><time>2026-03-22T13:26:08.78Z</time></trkpt><trkpt lat="37.858095" lon="14.9223017"><ele>872.0</ele><time>2026-03-22T13:26:09.78Z</time></trkpt><trkpt lat="37.8579067" lon="14.9222583"><ele>872.0</ele><time>2026-03-22T13:26:10.78Z</time></trkpt><trkpt lat="37.8577183" lon="14.922215"><ele>872.0</ele><time>2026-03-22T13:26:11.78Z</time></trkpt><trkpt lat="37.85753" lon="14.9221733"><ele>872.0</ele><time>2026-03-22T13:26:12.781Z</time></trkpt><trkpt lat="37.85734" lon="14.9221333"><ele>872.6666666666667</ele><time>2026-03-22T13:26:13.781Z</time></trkpt><trkpt lat="37.85715" lon="14.9220917"><ele>873.3333333333333</ele><time>2026-03-22T13:26:14.78Z</time></trkpt><trkpt lat="37.8569583" lon="14.9220433"><ele>874.0</ele><time>2026-03-22T13:26:15.781Z</time></trkpt><trkpt lat="37.8567717" lon="14.9220017"><ele>876.0</ele><time>2026-03-22T13:26:16.781Z</time></trkpt><trkpt lat="37.8565967" lon="14.9219633"><ele>878.0</ele><time>2026-03-22T13:26:17.78Z</time></trkpt><trkpt lat="37.85643" lon="14.9219217"><ele>880.0</ele><time>2026-03-22T13:26:18.781Z</time></trkpt><trkpt lat="37.85627" lon="14.9218683"><ele>880.0</ele><time>2026-03-22T13:26:19.78Z</time></trkpt><trkpt lat="37.8561167" lon="14.9217967"><ele>880.0</ele><time>2026-03-22T13:26:20.781Z</time></trkpt><trkpt lat="37.8559717" lon="14.9217033"><ele>880.0</ele><time>2026-03-22T13:26:21.781Z</time></trkpt><trkpt lat="37.855845" lon="14.9215767"><ele>880.75</ele><time>2026-03-22T13:26:22.781Z</time></trkpt><trkpt lat="37.8557417" lon="14.9214233"><ele>881.5</ele><time>2026-03-22T13:26:23.781Z</time></trkpt><trkpt lat="37.8556533" lon="14.9212717"><ele>882.25</ele><time>2026-03-22T13:26:24.781Z</time></trkpt><trkpt lat="37.8555683" lon="14.9211383"><ele>883.0</ele><time>2026-03-22T13:26:25.781Z</time></trkpt><trkpt lat="37.85547" lon="14.921035"><ele>883.0</ele><time>2026-03-22T13:26:26.78Z</time></trkpt><trkpt lat="37.8553533" lon="14.9209567"><ele>883.0</ele><time>2026-03-22T13:26:27.78Z</time></trkpt><trkpt lat="37.8552283" lon="14.9209017"><ele>883.0</ele><time>2026-03-22T13:26:28.78Z</time></trkpt><trkpt lat="37.855095" lon="14.9208733"><ele>883.0</ele><time>2026-03-22T13:26:29.78Z</time></trkpt><trkpt lat="37.85495" lon="14.920865"><ele>884.3333333333333</ele><time>2026-03-22T13:26:30.78Z</time></trkpt><trkpt lat="37.8548033" lon="14.9208733"><ele>885.6666666666667</ele><time>2026-03-22T13:26:31.781Z</time></trkpt><trkpt lat="37.8546517" lon="14.92089"><ele>887.0</ele><time>2026-03-22T13:26:32.78Z</time></trkpt><trkpt lat="37.8544917" lon="14.92091"><ele>888.6666666666667</ele><time>2026-03-22T13:26:33.78Z</time></trkpt><trkpt lat="37.8543333" lon="14.9209133"><ele>890.3333333333333</ele><time>2026-03-22T13:26:34.781Z</time></trkpt><trkpt lat="37.85417" lon="14.9208917"><ele>892.0</ele><time>2026-03-22T13:26:35.781Z</time></trkpt><trkpt lat="37.8540117" lon="14.9208333"><ele>893.0</ele><time>2026-03-22T13:26:36.781Z</time></trkpt><trkpt lat="37.8538617" lon="14.9207433"><ele>894.0</ele><time>2026-03-22T13:26:37.78Z</time></trkpt><trkpt lat="37.85372" lon="14.920655"><ele>895.0</ele><time>2026-03-22T13:26:38.78Z</time></trkpt><trkpt lat="37.85357" lon="14.920585"><ele>897.0</ele><time>2026-03-22T13:26:39.78Z</time></trkpt><trkpt lat="37.853425" lon="14.9205517"><ele>899.0</ele><time>2026-03-22T13:26:40.781Z</time></trkpt><trkpt lat="37.8532867" lon="14.920545"><ele>901.0</ele><time>2026-03-22T13:26:41.781Z</time></trkpt><trkpt lat="37.853165" lon="14.92058"><ele>903.0</ele><time>2026-03-22T13:26:42.78Z</time></trkpt><trkpt lat="37.85305" lon="14.9206567"><ele>903.0</ele><time>2026-03-22T13:26:43.78Z</time></trkpt><trkpt lat="37.8529433" lon="14.92076"><ele>903.0</ele><time>2026-03-22T13:26:44.781Z</time></trkpt><trkpt lat="37.8528383" lon="14.9208617"><ele>903.0</ele><time>2026-03-22T13:26:45.78Z</time></trkpt><trkpt lat="37.8527233" lon="14.9209583"><ele>903.0</ele><time>2026-03-22T13:26:46.78Z</time></trkpt><trkpt lat="37.8526067" lon="14.9210517"><ele>905.75</ele><time>2026-03-22T13:26:47.78Z</time></trkpt><trkpt lat="37.8524933" lon="14.9211017"><ele>908.5</ele><time>2026-03-22T13:26:48.781Z</time></trkpt><trkpt lat="37.85238" lon="14.9211"><ele>911.25</ele><time>2026-03-22T13:26:49.781Z</time></trkpt><trkpt lat="37.8522733" lon="14.92105"><ele>914.0</ele><time>2026-03-22T13:26:50.78Z</time></trkpt><trkpt lat="37.852165" lon="14.9209833"><ele>914.0</ele><time>2026-03-22T13:26:51.781Z</time></trkpt><trkpt lat="37.8520567" lon="14.9209117"><ele>914.0</ele><time>2026-03-22T13:26:52.781Z</time></trkpt><trkpt lat="37.8519433" lon="14.9208367"><ele>914.0</ele><time>2026-03-22T13:26:53.78Z</time></trkpt><trkpt lat="37.8518233" lon="14.92076"><ele>914.0</ele><time>2026-03-22T13:26:54.781Z</time></trkpt><trkpt lat="37.8517017" lon="14.92068"><ele>913.5</ele><time>2026-03-22T13:26:55.781Z</time></trkpt><trkpt lat="37.8515733" lon="14.9205967"><ele>913.0</ele><time>2026-03-22T13:26:56.781Z</time></trkpt><trkpt lat="37.851445" lon="14.920505"><ele>912.5</ele><time>2026-03-22T13:26:57.78Z</time></trkpt><trkpt lat="37.85131" lon="14.920415"><ele>912.0</ele><time>2026-03-22T13:26:58.78Z</time></trkpt><trkpt lat="37.8511717" lon="14.9203183"><ele>912.0</ele><time>2026-03-22T13:26:59.781Z</time></trkpt><trkpt lat="37.85103" lon="14.9202217"><ele>912.0</ele><time>2026-03-22T13:27:00.781Z</time></trkpt><trkpt lat="37.85088" lon="14.9201267"><ele>912.0</ele><time>2026-03-22T13:27:01.78Z</time></trkpt><trkpt lat="37.8507283" lon="14.92003"><ele>912.6666666666667</ele><time>2026-03-22T13:27:02.781Z</time></trkpt><trkpt lat="37.850575" lon="14.91993"><ele>913.3333333333334</ele><time>2026-03-22T13:27:03.781Z</time></trkpt><trkpt lat="37.8504233" lon="14.9198283"><ele>914.0</ele><time>2026-03-22T13:27:04.781Z</time></trkpt><trkpt lat="37.8502667" lon="14.9197217"><ele>915.3333333333334</ele><time>2026-03-22T13:27:05.781Z</time></trkpt><trkpt lat="37.850105" lon="14.9196133"><ele>916.6666666666667</ele><time>2026-03-22T13:27:06.781Z</time></trkpt><trkpt lat="37.8499433" lon="14.9195017"><ele>918.0</ele><time>2026-03-22T13:27:07.781Z</time></trkpt><trkpt lat="37.8497833" lon="14.9193917"><ele>918.0</ele><time>2026-03-22T13:27:08.78Z</time></trkpt><trkpt lat="37.8496317" lon="14.9192883"><ele>918.0</ele><time>2026-03-22T13:27:09.781Z</time></trkpt><trkpt lat="37.8494867" lon="14.91919"><ele>918.0</ele><time>2026-03-22T13:27:10.781Z</time></trkpt><trkpt lat="37.8493483" lon="14.91909"><ele>919.6666666666667</ele><time>2026-03-22T13:27:11.781Z</time></trkpt><trkpt lat="37.84922" lon="14.91898"><ele>921.3333333333334</ele><time>2026-03-22T13:27:12.78Z</time></trkpt><trkpt lat="37.84911" lon="14.9188433"><ele>923.0</ele><time>2026-03-22T13:27:13.781Z</time></trkpt><trkpt lat="37.8490233" lon="14.9186817"><ele>923.0</ele><time>2026-03-22T13:27:14.781Z</time></trkpt><trkpt lat="37.84897" lon="14.9184983"><ele>923.0</ele><time>2026-03-22T13:27:15.78Z</time></trkpt><trkpt lat="37.84894" lon="14.9183067"><ele>923.0</ele><time>2026-03-22T13:27:16.781Z</time></trkpt><trkpt lat="37.8489167" lon="14.9181117"><ele>924.0</ele><time>2026-03-22T13:27:17.78Z</time></trkpt><trkpt lat="37.8488967" lon="14.9179233"><ele>925.0</ele><time>2026-03-22T13:27:18.781Z</time></trkpt><trkpt lat="37.8488717" lon="14.9177283"><ele>926.0</ele><time>2026-03-22T13:27:19.781Z</time></trkpt><trkpt lat="37.8488367" lon="14.91753"><ele>927.0</ele><time>2026-03-22T13:27:20.781Z</time></trkpt><trkpt lat="37.8487933" lon="14.9173283"><ele>928.0</ele><time>2026-03-22T13:27:21.781Z</time></trkpt><trkpt lat="37.8487367" lon="14.9171333"><ele>929.0</ele><time>2026-03-22T13:27:22.78Z</time></trkpt><trkpt lat="37.8486617" lon="14.9169433"><ele>929.0</ele><time>2026-03-22T13:27:23.78Z</time></trkpt><trkpt lat="37.8485783" lon="14.9167517"><ele>929.0</ele><time>2026-03-22T13:27:24.78Z</time></trkpt><trkpt lat="37.8484883" lon="14.9165683"><ele>929.0</ele><time>2026-03-22T13:27:25.781Z</time></trkpt><trkpt lat="37.848395" lon="14.9164033"><ele>929.6666666666667</ele><time>2026-03-22T13:27:26.78Z</time></trkpt><trkpt lat="37.8482783" lon="14.916245"><ele>930.3333333333333</ele><time>2026-03-22T13:27:27.781Z</time></trkpt><trkpt lat="37.8481483" lon="14.9161"><ele>931.0</ele><time>2026-03-22T13:27:28.781Z</time></trkpt><trkpt lat="37.8480033" lon="14.915975"><ele>931.6666666666666</ele><time>2026-03-22T13:27:29.781Z</time></trkpt><trkpt lat="37.8478533" lon="14.91586"><ele>932.3333333333333</ele><time>2026-03-22T13:27:30.781Z</time></trkpt><trkpt lat="37.847695" lon="14.9157583"><ele>933.0</ele><time>2026-03-22T13:27:31.78Z</time></trkpt><trkpt lat="37.8475233" lon="14.9156783"><ele>933.0</ele><time>2026-03-22T13:27:32.78Z</time></trkpt><trkpt lat="37.8473517" lon="14.9156083"><ele>933.0</ele><time>2026-03-22T13:27:33.781Z</time></trkpt><trkpt lat="37.8471917" lon="14.91555"><ele>933.0</ele><time>2026-03-22T13:27:34.781Z</time></trkpt><trkpt lat="37.8470317" lon="14.9154933"><ele>933.0</ele><time>2026-03-22T13:27:35.781Z</time></trkpt><trkpt lat="37.8468767" lon="14.9154217"><ele>933.0</ele><time>2026-03-22T13:27:36.78Z</time></trkpt><trkpt lat="37.8467317" lon="14.91533"><ele>933.0</ele><time>2026-03-22T13:27:37.78Z</time></trkpt><trkpt lat="37.846605" lon="14.9152133"><ele>933.0</ele><time>2026-03-22T13:27:38.781Z</time></trkpt><trkpt lat="37.8464967" lon="14.91508"><ele>933.0</ele><time>2026-03-22T13:27:39.781Z</time></trkpt><trkpt lat="37.8464133" lon="14.9149233"><ele>933.0</ele><time>2026-03-22T13:27:40.78Z</time></trkpt><trkpt lat="37.846355" lon="14.914745"><ele>932.6666666666667</ele><time>2026-03-22T13:27:41.781Z</time></trkpt><trkpt lat="37.8463267" lon="14.91455"><ele>932.3333333333334</ele><time>2026-03-22T13:27:42.78Z</time></trkpt><trkpt lat="37.846315" lon="14.9143517"><ele>932.0</ele><time>2026-03-22T13:27:43.78Z</time></trkpt><trkpt lat="37.846305" lon="14.9141517"><ele>930.6666666666667</ele><time>2026-03-22T13:27:44.78Z</time></trkpt><trkpt lat="37.8462867" lon="14.9139433"><ele>929.3333333333333</ele><time>2026-03-22T13:27:45.781Z</time></trkpt><trkpt lat="37.8462483" lon="14.91374"><ele>928.0</ele><time>2026-03-22T13:27:46.781Z</time></trkpt><trkpt lat="37.84619" lon="14.9135433"><ele>927.3333333333333</ele><time>2026-03-22T13:27:47.78Z</time></trkpt><trkpt lat="37.8461183" lon="14.9133483"><ele>926.6666666666667</ele><time>2026-03-22T13:27:48.78Z</time></trkpt><trkpt lat="37.8460383" lon="14.9131533"><ele>926.0</ele><time>2026-03-22T13:27:49.78Z</time></trkpt><trkpt lat="37.8459433" lon="14.9129767"><ele>928.0</ele><time>2026-03-22T13:27:50.781Z</time></trkpt><trkpt lat="37.8458317" lon="14.9128133"><ele>930.0</ele><time>2026-03-22T13:27:51.78Z</time></trkpt><trkpt lat="37.8457133" lon="14.9126583"><ele>932.0</ele><time>2026-03-22T13:27:52.78Z</time></trkpt><trkpt lat="37.8455833" lon="14.9125033"><ele>932.0</ele><time>2026-03-22T13:27:53.781Z</time></trkpt><trkpt lat="37.8454533" lon="14.9123433"><ele>932.0</ele><time>2026-03-22T13:27:54.78Z</time></trkpt><trkpt lat="37.845325" lon="14.9121817"><ele>932.0</ele><time>2026-03-22T13:27:55.781Z</time></trkpt><trkpt lat="37.8451967" lon="14.9120217"><ele>934.6666666666667</ele><time>2026-03-22T13:27:56.78Z</time></trkpt><trkpt lat="37.8450667" lon="14.9118683"><ele>937.3333333333333</ele><time>2026-03-22T13:27:57.781Z</time></trkpt><trkpt lat="37.8449283" lon="14.911725"><ele>940.0</ele><time>2026-03-22T13:27:58.78Z</time></trkpt><trkpt lat="37.8447817" lon="14.9115967"><ele>940.0</ele><time>2026-03-22T13:27:59.78Z</time></trkpt><trkpt lat="37.8446233" lon="14.911495"><ele>940.0</ele><time>2026-03-22T13:28:00.78Z</time></trkpt><trkpt lat="37.844455" lon="14.9114117"><ele>940.0</ele><time>2026-03-22T13:28:01.78Z</time></trkpt><trkpt lat="37.844285" lon="14.9113317"><ele>942.3333333333333</ele><time>2026-03-22T13:28:02.781Z</time></trkpt><trkpt lat="37.8441183" lon="14.9112517"><ele>944.6666666666667</ele><time>2026-03-22T13:28:03.781Z</time></trkpt><trkpt lat="37.8439533" lon="14.91117"><ele>947.0</ele><time>2026-03-22T13:28:04.781Z</time></trkpt><trkpt lat="37.84379" lon="14.9110867"><ele>947.0</ele><time>2026-03-22T13:28:05.781Z</time></trkpt><trkpt lat="37.84363" lon="14.9110033"><ele>947.0</ele><time>2026-03-22T13:28:06.781Z</time></trkpt><trkpt lat="37.84347" lon="14.910925"><ele>947.0</ele><time>2026-03-22T13:28:07.78Z</time></trkpt><trkpt lat="37.8433083" lon="14.9108433"><ele>949.0</ele><time>2026-03-22T13:28:08.78Z</time></trkpt><trkpt lat="37.843145" lon="14.9107667"><ele>951.0</ele><time>2026-03-22T13:28:09.781Z</time></trkpt><trkpt lat="37.8429817" lon="14.9106883"><ele>953.0</ele><time>2026-03-22T13:28:10.78Z</time></trkpt><trkpt lat="37.8428167" lon="14.9106067"><ele>953.0</ele><time>2026-03-22T13:28:11.781Z</time></trkpt><trkpt lat="37.8426517" lon="14.9105217"><ele>953.0</ele><time>2026-03-22T13:28:12.781Z</time></trkpt><trkpt lat="37.8424817" lon="14.9104367"><ele>953.0</ele><time>2026-03-22T13:28:13.781Z</time></trkpt><trkpt lat="37.8423133" lon="14.9103533"><ele>954.6666666666667</ele><time>2026-03-22T13:28:14.78Z</time></trkpt><trkpt lat="37.84214" lon="14.9102683"><ele>956.3333333333333</ele><time>2026-03-22T13:28:15.78Z</time></trkpt><trkpt lat="37.8419717" lon="14.9101817"><ele>958.0</ele><time>2026-03-22T13:28:16.781Z</time></trkpt><trkpt lat="37.8417983" lon="14.910095"><ele>959.3333333333333</ele><time>2026-03-22T13:28:17.781Z</time></trkpt><trkpt lat="37.8416283" lon="14.91001"><ele>960.6666666666667</ele><time>2026-03-22T13:28:18.78Z</time></trkpt><trkpt lat="37.841455" lon="14.9099217"><ele>962.0</ele><time>2026-03-22T13:28:19.78Z</time></trkpt><trkpt lat="37.8412783" lon="14.9098333"><ele>962.0</ele><time>2026-03-22T13:28:20.78Z</time></trkpt><trkpt lat="37.8410983" lon="14.9097433"><ele>962.0</ele><time>2026-03-22T13:28:21.78Z</time></trkpt><trkpt lat="37.8409133" lon="14.9096533"><ele>962.0</ele><time>2026-03-22T13:28:22.781Z</time></trkpt><trkpt lat="37.84073" lon="14.909565"><ele>963.6666666666667</ele><time>2026-03-22T13:28:23.781Z</time></trkpt><trkpt lat="37.8405467" lon="14.909475"><ele>965.3333333333333</ele><time>2026-03-22T13:28:24.781Z</time></trkpt><trkpt lat="37.8403633" lon="14.9093883"><ele>967.0</ele><time>2026-03-22T13:28:25.78Z</time></trkpt><trkpt lat="37.8401767" lon="14.9092933"><ele>967.3333333333333</ele><time>2026-03-22T13:28:26.781Z</time></trkpt><trkpt lat="37.83999" lon="14.9092"><ele>967.6666666666667</ele><time>2026-03-22T13:28:27.78Z</time></trkpt><trkpt lat="37.8398117" lon="14.9091017"><ele>968.0</ele><time>2026-03-22T13:28:28.781Z</time></trkpt><trkpt lat="37.8396317" lon="14.90901"><ele>968.0</ele><time>2026-03-22T13:28:29.781Z</time></trkpt><trkpt lat="37.8394467" lon="14.9089167"><ele>968.0</ele><time>2026-03-22T13:28:30.78Z</time></trkpt><trkpt lat="37.8392683" lon="14.9088267"><ele>968.0</ele><time>2026-03-22T13:28:31.78Z</time></trkpt><trkpt lat="37.83909" lon="14.908735"><ele>970.3333333333334</ele><time>2026-03-22T13:28:32.781Z</time></trkpt><trkpt lat="37.8389117" lon="14.908645"><ele>972.6666666666667</ele><time>2026-03-22T13:28:33.78Z</time></trkpt><trkpt lat="37.8387383" lon="14.9085567"><ele>975.0</ele><time>2026-03-22T13:28:34.78Z</time></trkpt><trkpt lat="37.8385617" lon="14.9084683"><ele>976.6666666666667</ele><time>2026-03-22T13:28:35.78Z</time></trkpt><trkpt lat="37.838385" lon="14.90838"><ele>978.3333333333334</ele><time>2026-03-22T13:28:36.78Z</time></trkpt><trkpt lat="37.8382117" lon="14.90829"><ele>980.0</ele><time>2026-03-22T13:28:37.78Z</time></trkpt><trkpt lat="37.838035" lon="14.9082017"><ele>980.0</ele><time>2026-03-22T13:28:38.781Z</time></trkpt><trkpt lat="37.83786" lon="14.9081133"><ele>980.0</ele><time>2026-03-22T13:28:39.781Z</time></trkpt><trkpt lat="37.837685" lon="14.908025"><ele>980.0</ele><time>2026-03-22T13:28:40.781Z</time></trkpt><trkpt lat="37.8375067" lon="14.9079367"><ele>981.3333333333334</ele><time>2026-03-22T13:28:41.781Z</time></trkpt><trkpt lat="37.83733" lon="14.9078483"><ele>982.6666666666667</ele><time>2026-03-22T13:28:42.78Z</time></trkpt><trkpt lat="37.8371533" lon="14.90776"><ele>984.0</ele><time>2026-03-22T13:28:43.781Z</time></trkpt><trkpt lat="37.836975" lon="14.9076717"><ele>985.0</ele><time>2026-03-22T13:28:44.781Z</time></trkpt><trkpt lat="37.8367983" lon="14.9075833"><ele>986.0</ele><time>2026-03-22T13:28:45.781Z</time></trkpt><trkpt lat="37.8366317" lon="14.9075017"><ele>987.0</ele><time>2026-03-22T13:28:46.781Z</time></trkpt><trkpt lat="37.8364783" lon="14.9074133"><ele>987.0</ele><time>2026-03-22T13:28:47.781Z</time></trkpt><trkpt lat="37.8363267" lon="14.9073233"><ele>987.0</ele><time>2026-03-22T13:28:48.78Z</time></trkpt><trkpt lat="37.8361867" lon="14.9072167"><ele>987.0</ele><time>2026-03-22T13:28:49.781Z</time></trkpt><trkpt lat="37.836065" lon="14.9070933"><ele>987.0</ele><time>2026-03-22T13:28:50.781Z</time></trkpt><trkpt lat="37.8359783" lon="14.90695"><ele>987.0</ele><time>2026-03-22T13:28:51.781Z</time></trkpt><trkpt lat="37.83591" lon="14.906785"><ele>987.0</ele><time>2026-03-22T13:28:52.78Z</time></trkpt><trkpt lat="37.8358517" lon="14.90661"><ele>987.0</ele><time>2026-03-22T13:28:53.78Z</time></trkpt><trkpt lat="37.8358083" lon="14.9064333"><ele>989.0</ele><time>2026-03-22T13:28:54.781Z</time></trkpt><trkpt lat="37.835765" lon="14.9062517"><ele>991.0</ele><time>2026-03-22T13:28:55.781Z</time></trkpt><trkpt lat="37.8357217" lon="14.90607"><ele>993.0</ele><time>2026-03-22T13:28:56.78Z</time></trkpt><trkpt lat="37.8356783" lon="14.9058767"><ele>994.0</ele><time>2026-03-22T13:28:57.781Z</time></trkpt><trkpt lat="37.835635" lon="14.9056767"><ele>995.0</ele><time>2026-03-22T13:28:58.78Z</time></trkpt><trkpt lat="37.8355967" lon="14.9054733"><ele>996.0</ele><time>2026-03-22T13:28:59.781Z</time></trkpt><trkpt lat="37.8355517" lon="14.9052667"><ele>996.6666666666667</ele><time>2026-03-22T13:29:00.781Z</time></trkpt><trkpt lat="37.8355017" lon="14.905055"><ele>997.3333333333334</ele><time>2026-03-22T13:29:01.78Z</time></trkpt><trkpt lat="37.8354433" lon="14.9048483"><ele>998.0</ele><time>2026-03-22T13:29:02.78Z</time></trkpt><trkpt lat="37.8353717" lon="14.904645"><ele>998.0</ele><time>2026-03-22T13:29:03.781Z</time></trkpt><trkpt lat="37.83528" lon="14.9044483"><ele>998.0</ele><time>2026-03-22T13:29:04.781Z</time></trkpt><trkpt lat="37.8351817" lon="14.90426"><ele>998.0</ele><time>2026-03-22T13:29:05.781Z</time></trkpt><trkpt lat="37.8350733" lon="14.9040717"><ele>1000.3333333333334</ele><time>2026-03-22T13:29:06.781Z</time></trkpt><trkpt lat="37.8349633" lon="14.9038883"><ele>1002.6666666666667</ele><time>2026-03-22T13:29:07.781Z</time></trkpt><trkpt lat="37.8348533" lon="14.90371"><ele>1005.0</ele><time>2026-03-22T13:29:08.781Z</time></trkpt><trkpt lat="37.8347433" lon="14.9035383"><ele>1002.6666666666667</ele><time>2026-03-22T13:29:09.78Z</time></trkpt><trkpt lat="37.8346333" lon="14.9033733"><ele>1000.3333333333334</ele><time>2026-03-22T13:29:10.78Z</time></trkpt><trkpt lat="37.8345117" lon="14.9032283"><ele>998.0</ele><time>2026-03-22T13:29:11.78Z</time></trkpt><trkpt lat="37.83438" lon="14.9031017"><ele>1000.3333333333334</ele><time>2026-03-22T13:29:12.781Z</time></trkpt><trkpt lat="37.8342417" lon="14.90298"><ele>1002.6666666666667</ele><time>2026-03-22T13:29:13.781Z</time></trkpt><trkpt lat="37.8340983" lon="14.9028583"><ele>1005.0</ele><time>2026-03-22T13:29:14.781Z</time></trkpt><trkpt lat="37.8339667" lon="14.9027317"><ele>1005.0</ele><time>2026-03-22T13:29:15.78Z</time></trkpt><trkpt lat="37.8338417" lon="14.9025917"><ele>1005.0</ele><time>2026-03-22T13:29:16.781Z</time></trkpt><trkpt lat="37.833735" lon="14.9024283"><ele>1005.0</ele><time>2026-03-22T13:29:17.78Z</time></trkpt><trkpt lat="37.8336467" lon="14.9022383"><ele>1003.6666666666667</ele><time>2026-03-22T13:29:18.781Z</time></trkpt><trkpt lat="37.8335683" lon="14.9020317"><ele>1002.3333333333334</ele><time>2026-03-22T13:29:19.781Z</time></trkpt><trkpt lat="37.8335" lon="14.9018167"><ele>1001.0</ele><time>2026-03-22T13:29:20.78Z</time></trkpt><trkpt lat="37.83345" lon="14.90159"><ele>1001.0</ele><time>2026-03-22T13:29:21.781Z</time></trkpt><trkpt lat="37.8334117" lon="14.9013583"><ele>1001.0</ele><time>2026-03-22T13:29:22.781Z</time></trkpt><trkpt lat="37.83338" lon="14.90112"><ele>1001.0</ele><time>2026-03-22T13:29:23.781Z</time></trkpt><trkpt lat="37.83335" lon="14.9008833"><ele>1001.3333333333334</ele><time>2026-03-22T13:29:24.78Z</time></trkpt><trkpt lat="37.8333167" lon="14.90064"><ele>1001.6666666666667</ele><time>2026-03-22T13:29:25.781Z</time></trkpt><trkpt lat="37.8332883" lon="14.9003933"><ele>1002.0</ele><time>2026-03-22T13:29:26.781Z</time></trkpt><trkpt lat="37.8332583" lon="14.9001483"><ele>1001.6666666666667</ele><time>2026-03-22T13:29:27.78Z</time></trkpt><trkpt lat="37.8332233" lon="14.8999017"><ele>1001.3333333333334</ele><time>2026-03-22T13:29:28.78Z</time></trkpt><trkpt lat="37.8331933" lon="14.89966"><ele>1001.0</ele><time>2026-03-22T13:29:29.781Z</time></trkpt><trkpt lat="37.833165" lon="14.8994283"><ele>1001.3333333333334</ele><time>2026-03-22T13:29:30.78Z</time></trkpt><trkpt lat="37.8331417" lon="14.8992083"><ele>1001.6666666666667</ele><time>2026-03-22T13:29:31.781Z</time></trkpt><trkpt lat="37.8331117" lon="14.89899"><ele>1002.0</ele><time>2026-03-22T13:29:32.781Z</time></trkpt><trkpt lat="37.833085" lon="14.8987867"><ele>1002.0</ele><time>2026-03-22T13:29:33.78Z</time></trkpt><trkpt lat="37.8330433" lon="14.8985883"><ele>1002.0</ele><time>2026-03-22T13:29:34.779Z</time></trkpt><trkpt lat="37.832985" lon="14.8983917"><ele>1002.0</ele><time>2026-03-22T13:29:35.781Z</time></trkpt><trkpt lat="37.8329117" lon="14.8982033"><ele>1001.6666666666667</ele><time>2026-03-22T13:29:36.781Z</time></trkpt><trkpt lat="37.8328267" lon="14.8980067"><ele>1001.3333333333334</ele><time>2026-03-22T13:29:37.78Z</time></trkpt><trkpt lat="37.832735" lon="14.89781"><ele>1001.0</ele><time>2026-03-22T13:29:38.78Z</time></trkpt><trkpt lat="37.8326333" lon="14.8976183"><ele>1002.6666666666667</ele><time>2026-03-22T13:29:39.781Z</time></trkpt><trkpt lat="37.8325233" lon="14.8974517"><ele>1004.3333333333333</ele><time>2026-03-22T13:29:40.781Z</time></trkpt><trkpt lat="37.832395" lon="14.8973083"><ele>1006.0</ele><time>2026-03-22T13:29:41.78Z</time></trkpt><trkpt lat="37.8322483" lon="14.8971767"><ele>1006.0</ele><time>2026-03-22T13:29:42.781Z</time></trkpt><trkpt lat="37.832095" lon="14.8970467"><ele>1006.0</ele><time>2026-03-22T13:29:43.78Z</time></trkpt><trkpt lat="37.8319283" lon="14.8969117"><ele>1006.0</ele><time>2026-03-22T13:29:44.78Z</time></trkpt><trkpt lat="37.83177" lon="14.896765"><ele>1005.3333333333333</ele><time>2026-03-22T13:29:45.78Z</time></trkpt><trkpt lat="37.831615" lon="14.8966117"><ele>1004.6666666666667</ele><time>2026-03-22T13:29:46.78Z</time></trkpt><trkpt lat="37.8314717" lon="14.8964483"><ele>1004.0</ele><time>2026-03-22T13:29:47.78Z</time></trkpt><trkpt lat="37.8313383" lon="14.8962817"><ele>1004.0</ele><time>2026-03-22T13:29:48.78Z</time></trkpt><trkpt lat="37.8312017" lon="14.8961167"><ele>1004.0</ele><time>2026-03-22T13:29:49.78Z</time></trkpt><trkpt lat="37.8310633" lon="14.8959483"><ele>1004.0</ele><time>2026-03-22T13:29:50.78Z</time></trkpt><trkpt lat="37.830925" lon="14.895785"><ele>1006.6666666666667</ele><time>2026-03-22T13:29:51.781Z</time></trkpt><trkpt lat="37.8307867" lon="14.8956317"><ele>1009.3333333333333</ele><time>2026-03-22T13:29:52.781Z</time></trkpt><trkpt lat="37.830645" lon="14.8954883"><ele>1012.0</ele><time>2026-03-22T13:29:53.781Z</time></trkpt><trkpt lat="37.8304983" lon="14.8953533"><ele>1012.0</ele><time>2026-03-22T13:29:54.781Z</time></trkpt><trkpt lat="37.83035" lon="14.89522"><ele>1012.0</ele><time>2026-03-22T13:29:55.78Z</time></trkpt><trkpt lat="37.8302017" lon="14.89508"><ele>1012.0</ele><time>2026-03-22T13:29:56.78Z</time></trkpt><trkpt lat="37.8300533" lon="14.8949367"><ele>1013.6666666666666</ele><time>2026-03-22T13:29:57.78Z</time></trkpt><trkpt lat="37.8299" lon="14.8947917"><ele>1015.3333333333333</ele><time>2026-03-22T13:29:58.78Z</time></trkpt><trkpt lat="37.8297467" lon="14.8946467"><ele>1017.0</ele><time>2026-03-22T13:29:59.781Z</time></trkpt><trkpt lat="37.8295867" lon="14.8944967"><ele>1017.0</ele><time>2026-03-22T13:30:00.781Z</time></trkpt><trkpt lat="37.82943" lon="14.8943467"><ele>1017.0</ele><time>2026-03-22T13:30:01.781Z</time></trkpt><trkpt lat="37.8292683" lon="14.894195"><ele>1017.0</ele><time>2026-03-22T13:30:02.78Z</time></trkpt><trkpt lat="37.8290983" lon="14.8940417"><ele>1017.3333333333333</ele><time>2026-03-22T13:30:03.781Z</time></trkpt><trkpt lat="37.8289317" lon="14.8938883"><ele>1017.6666666666666</ele><time>2026-03-22T13:30:04.78Z</time></trkpt><trkpt lat="37.8287617" lon="14.8937317"><ele>1018.0</ele><time>2026-03-22T13:30:05.781Z</time></trkpt><trkpt lat="37.8285917" lon="14.8935733"><ele>1019.6666666666666</ele><time>2026-03-22T13:30:06.78Z</time></trkpt><trkpt lat="37.8284217" lon="14.8934183"><ele>1021.3333333333333</ele><time>2026-03-22T13:30:07.78Z</time></trkpt><trkpt lat="37.8282517" lon="14.893265"><ele>1023.0</ele><time>2026-03-22T13:30:08.78Z</time></trkpt><trkpt lat="37.8280817" lon="14.8931133"><ele>1023.0</ele><time>2026-03-22T13:30:09.781Z</time></trkpt><trkpt lat="37.827915" lon="14.8929583"><ele>1023.0</ele><time>2026-03-22T13:30:10.78Z</time></trkpt><trkpt lat="37.8277483" lon="14.892805"><ele>1023.0</ele><time>2026-03-22T13:30:11.781Z</time></trkpt><trkpt lat="37.827575" lon="14.8926533"><ele>1024.0</ele><time>2026-03-22T13:30:12.781Z</time></trkpt><trkpt lat="37.8274067" lon="14.8925"><ele>1025.0</ele><time>2026-03-22T13:30:13.78Z</time></trkpt><trkpt lat="37.8272367" lon="14.89235"><ele>1026.0</ele><time>2026-03-22T13:30:14.78Z</time></trkpt><trkpt lat="37.82707" lon="14.8921983"><ele>1026.0</ele><time>2026-03-22T13:30:15.78Z</time></trkpt><trkpt lat="37.826905" lon="14.892045"><ele>1026.0</ele><time>2026-03-22T13:30:16.78Z</time></trkpt><trkpt lat="37.8267333" lon="14.8918883"><ele>1026.0</ele><time>2026-03-22T13:30:17.78Z</time></trkpt><trkpt lat="37.8265633" lon="14.8917317"><ele>1027.0</ele><time>2026-03-22T13:30:18.78Z</time></trkpt><trkpt lat="37.82639" lon="14.891575"><ele>1028.0</ele><time>2026-03-22T13:30:19.781Z</time></trkpt><trkpt lat="37.82622" lon="14.8914183"><ele>1029.0</ele><time>2026-03-22T13:30:20.78Z</time></trkpt><trkpt lat="37.82605" lon="14.89126"><ele>1031.3333333333333</ele><time>2026-03-22T13:30:21.78Z</time></trkpt><trkpt lat="37.8258817" lon="14.8911067"><ele>1033.6666666666665</ele><time>2026-03-22T13:30:22.78Z</time></trkpt><trkpt lat="37.825705" lon="14.8909517"><ele>1036.0</ele><time>2026-03-22T13:30:23.78Z</time></trkpt><trkpt lat="37.8255317" lon="14.890795"><ele>1036.3333333333333</ele><time>2026-03-22T13:30:24.781Z</time></trkpt><trkpt lat="37.8253583" lon="14.89064"><ele>1036.6666666666667</ele><time>2026-03-22T13:30:25.781Z</time></trkpt><trkpt lat="37.8251867" lon="14.8904817"><ele>1037.0</ele><time>2026-03-22T13:30:26.78Z</time></trkpt><trkpt lat="37.825025" lon="14.890325"><ele>1037.3333333333335</ele><time>2026-03-22T13:30:27.78Z</time></trkpt><trkpt lat="37.8248533" lon="14.8901683"><ele>1037.6666666666667</ele><time>2026-03-22T13:30:28.78Z</time></trkpt><trkpt lat="37.824685" lon="14.8900133"><ele>1038.0</ele><time>2026-03-22T13:30:29.781Z</time></trkpt><trkpt lat="37.8245183" lon="14.889855"><ele>1038.0</ele><time>2026-03-22T13:30:30.78Z</time></trkpt><trkpt lat="37.8243483" lon="14.8896983"><ele>1038.0</ele><time>2026-03-22T13:30:31.781Z</time></trkpt><trkpt lat="37.82417" lon="14.8895417"><ele>1038.0</ele><time>2026-03-22T13:30:32.781Z</time></trkpt><trkpt lat="37.8239917" lon="14.8893817"><ele>1039.0</ele><time>2026-03-22T13:30:33.781Z</time></trkpt><trkpt lat="37.823815" lon="14.889225"><ele>1040.0</ele><time>2026-03-22T13:30:34.78Z</time></trkpt><trkpt lat="37.823645" lon="14.8890733"><ele>1041.0</ele><time>2026-03-22T13:30:35.78Z</time></trkpt><trkpt lat="37.8234883" lon="14.8889317"><ele>1041.0</ele><time>2026-03-22T13:30:36.781Z</time></trkpt><trkpt lat="37.823335" lon="14.888795"><ele>1041.0</ele><time>2026-03-22T13:30:37.78Z</time></trkpt><trkpt lat="37.8231917" lon="14.8886617"><ele>1041.0</ele><time>2026-03-22T13:30:38.78Z</time></trkpt><trkpt lat="37.8230533" lon="14.8885367"><ele>1042.0</ele><time>2026-03-22T13:30:39.78Z</time></trkpt><trkpt lat="37.8229267" lon="14.8883983"><ele>1043.0</ele><time>2026-03-22T13:30:40.781Z</time></trkpt><trkpt lat="37.8228067" lon="14.888255"><ele>1044.0</ele><time>2026-03-22T13:30:41.78Z</time></trkpt><trkpt lat="37.8227083" lon="14.88809"><ele>1044.0</ele><time>2026-03-22T13:30:42.781Z</time></trkpt><trkpt lat="37.8226183" lon="14.88791"><ele>1044.0</ele><time>2026-03-22T13:30:43.781Z</time></trkpt><trkpt lat="37.8225467" lon="14.8877167"><ele>1044.0</ele><time>2026-03-22T13:30:44.78Z</time></trkpt><trkpt lat="37.822495" lon="14.8875083"><ele>1044.0</ele><time>2026-03-22T13:30:45.78Z</time></trkpt><trkpt lat="37.82246" lon="14.8872967"><ele>1044.0</ele><time>2026-03-22T13:30:46.781Z</time></trkpt><trkpt lat="37.8224317" lon="14.88707"><ele>1044.0</ele><time>2026-03-22T13:30:47.78Z</time></trkpt><trkpt lat="37.8224033" lon="14.8868383"><ele>1043.6666666666667</ele><time>2026-03-22T13:30:48.78Z</time></trkpt><trkpt lat="37.822375" lon="14.88661"><ele>1043.3333333333335</ele><time>2026-03-22T13:30:49.781Z</time></trkpt><trkpt lat="37.8223467" lon="14.886385"><ele>1043.0</ele><time>2026-03-22T13:30:50.781Z</time></trkpt><trkpt lat="37.8223167" lon="14.8861633"><ele>1043.0</ele><time>2026-03-22T13:30:51.781Z</time></trkpt><trkpt lat="37.82228" lon="14.885935"><ele>1043.0</ele><time>2026-03-22T13:30:52.78Z</time></trkpt><trkpt lat="37.8222483" lon="14.88572"><ele>1043.0</ele><time>2026-03-22T13:30:53.78Z</time></trkpt><trkpt lat="37.8222233" lon="14.8855183"><ele>1043.3333333333335</ele><time>2026-03-22T13:30:54.781Z</time></trkpt><trkpt lat="37.8222033" lon="14.8853233"><ele>1043.6666666666667</ele><time>2026-03-22T13:30:55.78Z</time></trkpt><trkpt lat="37.822195" lon="14.8851183"><ele>1044.0</ele><time>2026-03-22T13:30:56.781Z</time></trkpt><trkpt lat="37.8222" lon="14.8849033"><ele>1043.0</ele><time>2026-03-22T13:30:57.781Z</time></trkpt><trkpt lat="37.8222183" lon="14.88468"><ele>1042.0</ele><time>2026-03-22T13:30:58.78Z</time></trkpt><trkpt lat="37.8222383" lon="14.8844483"><ele>1041.0</ele><time>2026-03-22T13:30:59.781Z</time></trkpt><trkpt lat="37.82226" lon="14.8842067"><ele>1039.6666666666667</ele><time>2026-03-22T13:31:00.78Z</time></trkpt><trkpt lat="37.82228" lon="14.8839583"><ele>1038.3333333333335</ele><time>2026-03-22T13:31:01.78Z</time></trkpt><trkpt lat="37.8223017" lon="14.8837033"><ele>1037.0</ele><time>2026-03-22T13:31:02.78Z</time></trkpt><trkpt lat="37.822325" lon="14.88344"><ele>1036.0</ele><time>2026-03-22T13:31:03.78Z</time></trkpt><trkpt lat="37.8223483" lon="14.88317"><ele>1035.0</ele><time>2026-03-22T13:31:04.781Z</time></trkpt><trkpt lat="37.8223717" lon="14.8828967"><ele>1034.0</ele><time>2026-03-22T13:31:05.781Z</time></trkpt><trkpt lat="37.822395" lon="14.8826217"><ele>1032.6666666666667</ele><time>2026-03-22T13:31:06.781Z</time></trkpt><trkpt lat="37.8224183" lon="14.88236"><ele>1031.3333333333333</ele><time>2026-03-22T13:31:07.78Z</time></trkpt><trkpt lat="37.8224383" lon="14.8821067"><ele>1030.0</ele><time>2026-03-22T13:31:08.78Z</time></trkpt><trkpt lat="37.8224483" lon="14.8818583"><ele>1028.3333333333333</ele><time>2026-03-22T13:31:09.781Z</time></trkpt><trkpt lat="37.8224317" lon="14.8816033"><ele>1026.6666666666667</ele><time>2026-03-22T13:31:10.78Z</time></trkpt><trkpt lat="37.8223883" lon="14.881345"><ele>1025.0</ele><time>2026-03-22T13:31:11.78Z</time></trkpt><trkpt lat="37.82233" lon="14.8810817"><ele>1025.0</ele><time>2026-03-22T13:31:12.78Z</time></trkpt><trkpt lat="37.8222667" lon="14.8808167"><ele>1025.0</ele><time>2026-03-22T13:31:13.78Z</time></trkpt><trkpt lat="37.8222067" lon="14.8805567"><ele>1025.0</ele><time>2026-03-22T13:31:14.781Z</time></trkpt><trkpt lat="37.8221533" lon="14.88031"><ele>1026.0</ele><time>2026-03-22T13:31:15.78Z</time></trkpt><trkpt lat="37.8221083" lon="14.8800767"><ele>1027.0</ele><time>2026-03-22T13:31:16.78Z</time></trkpt><trkpt lat="37.8220667" lon="14.8798767"><ele>1028.0</ele><time>2026-03-22T13:31:17.78Z</time></trkpt><trkpt lat="37.8220383" lon="14.8796917"><ele>1028.0</ele><time>2026-03-22T13:31:18.781Z</time></trkpt><trkpt lat="37.8220283" lon="14.8795017"><ele>1028.0</ele><time>2026-03-22T13:31:19.78Z</time></trkpt><trkpt lat="37.8220383" lon="14.8792967"><ele>1028.0</ele><time>2026-03-22T13:31:20.781Z</time></trkpt><trkpt lat="37.822055" lon="14.87908"><ele>1028.6666666666667</ele><time>2026-03-22T13:31:21.78Z</time></trkpt><trkpt lat="37.8220683" lon="14.8788583"><ele>1029.3333333333333</ele><time>2026-03-22T13:31:22.78Z</time></trkpt><trkpt lat="37.8220817" lon="14.87863"><ele>1030.0</ele><time>2026-03-22T13:31:23.781Z</time></trkpt><trkpt lat="37.8220917" lon="14.8784017"><ele>1028.6666666666665</ele><time>2026-03-22T13:31:24.78Z</time></trkpt><trkpt lat="37.8220983" lon="14.8781733"><ele>1027.3333333333333</ele><time>2026-03-22T13:31:25.78Z</time></trkpt><trkpt lat="37.822095" lon="14.877955"><ele>1026.0</ele><time>2026-03-22T13:31:26.78Z</time></trkpt><trkpt lat="37.822075" lon="14.8777317"><ele>1026.0</ele><time>2026-03-22T13:31:27.781Z</time></trkpt><trkpt lat="37.822035" lon="14.87751"><ele>1026.0</ele><time>2026-03-22T13:31:28.782Z</time></trkpt><trkpt lat="37.8219767" lon="14.87729"><ele>1026.0</ele><time>2026-03-22T13:31:29.781Z</time></trkpt><trkpt lat="37.8219" lon="14.8770783"><ele>1024.0</ele><time>2026-03-22T13:31:30.781Z</time></trkpt><trkpt lat="37.8218017" lon="14.87687"><ele>1022.0</ele><time>2026-03-22T13:31:31.781Z</time></trkpt><trkpt lat="37.82169" lon="14.8766733"><ele>1020.0</ele><time>2026-03-22T13:31:32.782Z</time></trkpt><trkpt lat="37.8215783" lon="14.8764783"><ele>1020.0</ele><time>2026-03-22T13:31:33.781Z</time></trkpt><trkpt lat="37.8214917" lon="14.8762817"><ele>1020.0</ele><time>2026-03-22T13:31:34.782Z</time></trkpt><trkpt lat="37.8214183" lon="14.8760833"><ele>1020.0</ele><time>2026-03-22T13:31:35.781Z</time></trkpt><trkpt lat="37.8213583" lon="14.8758733"><ele>1021.0</ele><time>2026-03-22T13:31:36.781Z</time></trkpt><trkpt lat="37.8213133" lon="14.8756533"><ele>1022.0</ele><time>2026-03-22T13:31:37.781Z</time></trkpt><trkpt lat="37.8212867" lon="14.875425"><ele>1023.0</ele><time>2026-03-22T13:31:38.781Z</time></trkpt><trkpt lat="37.8212717" lon="14.8751917"><ele>1024.0</ele><time>2026-03-22T13:31:39.781Z</time></trkpt><trkpt lat="37.82127" lon="14.8749517"><ele>1025.0</ele><time>2026-03-22T13:31:40.781Z</time></trkpt><trkpt lat="37.8212617" lon="14.8747133"><ele>1026.0</ele><time>2026-03-22T13:31:41.782Z</time></trkpt><trkpt lat="37.8212533" lon="14.874475"><ele>1027.3333333333333</ele><time>2026-03-22T13:31:42.781Z</time></trkpt><trkpt lat="37.8212467" lon="14.87424"><ele>1028.6666666666665</ele><time>2026-03-22T13:31:43.781Z</time></trkpt><trkpt lat="37.8212383" lon="14.87401"><ele>1030.0</ele><time>2026-03-22T13:31:44.781Z</time></trkpt><trkpt lat="37.82123" lon="14.873785"><ele>1030.0</ele><time>2026-03-22T13:31:45.782Z</time></trkpt><trkpt lat="37.821245" lon="14.8735617"><ele>1030.0</ele><time>2026-03-22T13:31:46.782Z</time></trkpt><trkpt lat="37.8212733" lon="14.8733333"><ele>1030.0</ele><time>2026-03-22T13:31:47.782Z</time></trkpt><trkpt lat="37.8213133" lon="14.8731033"><ele>1030.3333333333333</ele><time>2026-03-22T13:31:48.781Z</time></trkpt><trkpt lat="37.8213733" lon="14.8728767"><ele>1030.6666666666667</ele><time>2026-03-22T13:31:49.782Z</time></trkpt><trkpt lat="37.82145" lon="14.8726567"><ele>1031.0</ele><time>2026-03-22T13:31:50.781Z</time></trkpt><trkpt lat="37.8215333" lon="14.8724433"><ele>1029.0</ele><time>2026-03-22T13:31:51.781Z</time></trkpt><trkpt lat="37.821615" lon="14.8722233"><ele>1027.0</ele><time>2026-03-22T13:31:52.781Z</time></trkpt><trkpt lat="37.8216817" lon="14.8719967"><ele>1025.0</ele><time>2026-03-22T13:31:53.782Z</time></trkpt><trkpt lat="37.821725" lon="14.871765"><ele>1023.0</ele><time>2026-03-22T13:31:54.781Z</time></trkpt><trkpt lat="37.8217467" lon="14.8715283"><ele>1021.0</ele><time>2026-03-22T13:31:55.781Z</time></trkpt><trkpt lat="37.82175" lon="14.8713017"><ele>1019.0</ele><time>2026-03-22T13:31:56.782Z</time></trkpt><trkpt lat="37.8217433" lon="14.871095"><ele>1018.6666666666667</ele><time>2026-03-22T13:31:57.782Z</time></trkpt><trkpt lat="37.8217433" lon="14.870895"><ele>1018.3333333333333</ele><time>2026-03-22T13:31:58.782Z</time></trkpt><trkpt lat="37.8217617" lon="14.870695"><ele>1018.0</ele><time>2026-03-22T13:31:59.781Z</time></trkpt><trkpt lat="37.8218" lon="14.8704983"><ele>1022.6666666666666</ele><time>2026-03-22T13:32:00.781Z</time></trkpt><trkpt lat="37.8218567" lon="14.8703083"><ele>1027.3333333333333</ele><time>2026-03-22T13:32:01.781Z</time></trkpt><trkpt lat="37.8219383" lon="14.8701283"><ele>1032.0</ele><time>2026-03-22T13:32:02.782Z</time></trkpt><trkpt lat="37.82203" lon="14.86995"><ele>1032.0</ele><time>2026-03-22T13:32:03.782Z</time></trkpt><trkpt lat="37.822125" lon="14.8697733"><ele>1032.0</ele><time>2026-03-22T13:32:04.782Z</time></trkpt><trkpt lat="37.8222233" lon="14.869595"><ele>1032.0</ele><time>2026-03-22T13:32:05.782Z</time></trkpt><trkpt lat="37.8223233" lon="14.8694167"><ele>1030.6666666666667</ele><time>2026-03-22T13:32:06.781Z</time></trkpt><trkpt lat="37.8224233" lon="14.8692383"><ele>1029.3333333333335</ele><time>2026-03-22T13:32:07.781Z</time></trkpt><trkpt lat="37.8225217" lon="14.86906"><ele>1028.0</ele><time>2026-03-22T13:32:08.781Z</time></trkpt><trkpt lat="37.8226167" lon="14.8688917"><ele>1029.6666666666667</ele><time>2026-03-22T13:32:09.782Z</time></trkpt><trkpt lat="37.8226983" lon="14.8687217"><ele>1031.3333333333333</ele><time>2026-03-22T13:32:10.782Z</time></trkpt><trkpt lat="37.8227717" lon="14.8685483"><ele>1033.0</ele><time>2026-03-22T13:32:11.782Z</time></trkpt><trkpt lat="37.822825" lon="14.8683617"><ele>1033.0</ele><time>2026-03-22T13:32:12.781Z</time></trkpt><trkpt lat="37.8228583" lon="14.8681667"><ele>1033.0</ele><time>2026-03-22T13:32:13.781Z</time></trkpt><trkpt lat="37.8228683" lon="14.867965"><ele>1033.0</ele><time>2026-03-22T13:32:14.781Z</time></trkpt><trkpt lat="37.8228533" lon="14.867755"><ele>1031.3333333333333</ele><time>2026-03-22T13:32:15.782Z</time></trkpt><trkpt lat="37.8228233" lon="14.8675417"><ele>1029.6666666666667</ele><time>2026-03-22T13:32:16.781Z</time></trkpt><trkpt lat="37.82279" lon="14.8673367"><ele>1028.0</ele><time>2026-03-22T13:32:17.781Z</time></trkpt><trkpt lat="37.8227583" lon="14.86714"><ele>1028.0</ele><time>2026-03-22T13:32:18.782Z</time></trkpt><trkpt lat="37.822715" lon="14.8669533"><ele>1028.0</ele><time>2026-03-22T13:32:19.781Z</time></trkpt><trkpt lat="37.82266" lon="14.86677"><ele>1028.0</ele><time>2026-03-22T13:32:20.781Z</time></trkpt><trkpt lat="37.822595" lon="14.8666"><ele>1025.6666666666667</ele><time>2026-03-22T13:32:21.782Z</time></trkpt><trkpt lat="37.822515" lon="14.866435"><ele>1023.3333333333333</ele><time>2026-03-22T13:32:22.782Z</time></trkpt><trkpt lat="37.8224167" lon="14.8662783"><ele>1021.0</ele><time>2026-03-22T13:32:23.781Z</time></trkpt><trkpt lat="37.822305" lon="14.8661217"><ele>1021.0</ele><time>2026-03-22T13:32:24.782Z</time></trkpt><trkpt lat="37.8221783" lon="14.86597"><ele>1021.0</ele><time>2026-03-22T13:32:25.782Z</time></trkpt><trkpt lat="37.8220383" lon="14.8658267"><ele>1021.0</ele><time>2026-03-22T13:32:26.781Z</time></trkpt><trkpt lat="37.8218917" lon="14.8656833"><ele>1020.3333333333333</ele><time>2026-03-22T13:32:27.782Z</time></trkpt><trkpt lat="37.82174" lon="14.8655417"><ele>1019.6666666666667</ele><time>2026-03-22T13:32:28.782Z</time></trkpt><trkpt lat="37.821585" lon="14.865405"><ele>1019.0</ele><time>2026-03-22T13:32:29.782Z</time></trkpt><trkpt lat="37.8214367" lon="14.86526"><ele>1019.0</ele><time>2026-03-22T13:32:30.781Z</time></trkpt><trkpt lat="37.8212817" lon="14.865115"><ele>1019.0</ele><time>2026-03-22T13:32:31.781Z</time></trkpt><trkpt lat="37.82113" lon="14.86496"><ele>1019.0</ele><time>2026-03-22T13:32:32.782Z</time></trkpt><trkpt lat="37.8209717" lon="14.8648067"><ele>1017.6666666666667</ele><time>2026-03-22T13:32:33.781Z</time></trkpt><trkpt lat="37.82082" lon="14.86465"><ele>1016.3333333333333</ele><time>2026-03-22T13:32:34.781Z</time></trkpt><trkpt lat="37.820665" lon="14.864495"><ele>1015.0</ele><time>2026-03-22T13:32:35.782Z</time></trkpt><trkpt lat="37.82052" lon="14.8643433"><ele>1014.3333333333333</ele><time>2026-03-22T13:32:36.782Z</time></trkpt><trkpt lat="37.8203817" lon="14.8641983"><ele>1013.6666666666667</ele><time>2026-03-22T13:32:37.781Z</time></trkpt><trkpt lat="37.8202467" lon="14.8640483"><ele>1013.0</ele><time>2026-03-22T13:32:38.781Z</time></trkpt><trkpt lat="37.8201067" lon="14.8638983"><ele>1011.3333333333334</ele><time>2026-03-22T13:32:39.781Z</time></trkpt><trkpt lat="37.8199583" lon="14.863745"><ele>1009.6666666666667</ele><time>2026-03-22T13:32:40.781Z</time></trkpt><trkpt lat="37.8198183" lon="14.86358"><ele>1008.0</ele><time>2026-03-22T13:32:41.781Z</time></trkpt><trkpt lat="37.819695" lon="14.863395"><ele>1006.6666666666667</ele><time>2026-03-22T13:32:42.782Z</time></trkpt><trkpt lat="37.81958" lon="14.8631933"><ele>1005.3333333333334</ele><time>2026-03-22T13:32:43.782Z</time></trkpt><trkpt lat="37.8194767" lon="14.8629733"><ele>1004.0</ele><time>2026-03-22T13:32:44.782Z</time></trkpt><trkpt lat="37.819385" lon="14.8627417"><ele>1005.6666666666667</ele><time>2026-03-22T13:32:45.782Z</time></trkpt><trkpt lat="37.8192883" lon="14.862505"><ele>1007.3333333333333</ele><time>2026-03-22T13:32:46.782Z</time></trkpt><trkpt lat="37.8191933" lon="14.8622667"><ele>1009.0</ele><time>2026-03-22T13:32:47.781Z</time></trkpt><trkpt lat="37.8191033" lon="14.862025"><ele>1009.0</ele><time>2026-03-22T13:32:48.782Z</time></trkpt><trkpt lat="37.8190183" lon="14.8617883"><ele>1009.0</ele><time>2026-03-22T13:32:49.781Z</time></trkpt><trkpt lat="37.8189267" lon="14.861555"><ele>1009.0</ele><time>2026-03-22T13:32:50.782Z</time></trkpt><trkpt lat="37.8188383" lon="14.86133"><ele>1006.6666666666666</ele><time>2026-03-22T13:32:51.782Z</time></trkpt><trkpt lat="37.8187517" lon="14.861115"><ele>1004.3333333333333</ele><time>2026-03-22T13:32:52.782Z</time></trkpt><trkpt lat="37.8186583" lon="14.8609217"><ele>1002.0</ele><time>2026-03-22T13:32:53.782Z</time></trkpt><trkpt lat="37.8185533" lon="14.8607333"><ele>1005.3333333333333</ele><time>2026-03-22T13:32:54.781Z</time></trkpt><trkpt lat="37.818435" lon="14.86056"><ele>1008.6666666666666</ele><time>2026-03-22T13:32:55.781Z</time></trkpt><trkpt lat="37.8183033" lon="14.86039"><ele>1012.0</ele><time>2026-03-22T13:32:56.781Z</time></trkpt><trkpt lat="37.81816" lon="14.8602267"><ele>1006.6666666666666</ele><time>2026-03-22T13:32:57.782Z</time></trkpt><trkpt lat="37.8180133" lon="14.8600733"><ele>1001.3333333333333</ele><time>2026-03-22T13:32:58.781Z</time></trkpt><trkpt lat="37.8178583" lon="14.8599333"><ele>996.0</ele><time>2026-03-22T13:32:59.782Z</time></trkpt><trkpt lat="37.81769" lon="14.8598067"><ele>999.6666666666667</ele><time>2026-03-22T13:33:00.781Z</time></trkpt><trkpt lat="37.8175133" lon="14.8596883"><ele>1003.3333333333334</ele><time>2026-03-22T13:33:01.781Z</time></trkpt><trkpt lat="37.8173317" lon="14.859575"><ele>1007.0</ele><time>2026-03-22T13:33:02.782Z</time></trkpt><trkpt lat="37.8171467" lon="14.85946"><ele>1007.0</ele><time>2026-03-22T13:33:03.782Z</time></trkpt><trkpt lat="37.8169683" lon="14.8593467"><ele>1007.0</ele><time>2026-03-22T13:33:04.782Z</time></trkpt><trkpt lat="37.8167883" lon="14.8592283"><ele>1007.0</ele><time>2026-03-22T13:33:05.782Z</time></trkpt><trkpt lat="37.8166067" lon="14.8591017"><ele>1004.6666666666667</ele><time>2026-03-22T13:33:06.781Z</time></trkpt><trkpt lat="37.81642" lon="14.85897"><ele>1002.3333333333333</ele><time>2026-03-22T13:33:07.782Z</time></trkpt><trkpt lat="37.8162417" lon="14.8588267"><ele>1000.0</ele><time>2026-03-22T13:33:08.782Z</time></trkpt><trkpt lat="37.8160717" lon="14.85868"><ele>1002.6666666666666</ele><time>2026-03-22T13:33:09.782Z</time></trkpt><trkpt lat="37.815905" lon="14.85854"><ele>1005.3333333333333</ele><time>2026-03-22T13:33:10.782Z</time></trkpt><trkpt lat="37.8157417" lon="14.8584033"><ele>1008.0</ele><time>2026-03-22T13:33:11.782Z</time></trkpt><trkpt lat="37.815575" lon="14.85827"><ele>1004.3333333333333</ele><time>2026-03-22T13:33:12.781Z</time></trkpt><trkpt lat="37.8154033" lon="14.858145"><ele>1000.6666666666666</ele><time>2026-03-22T13:33:13.781Z</time></trkpt><trkpt lat="37.8152283" lon="14.8580233"><ele>997.0</ele><time>2026-03-22T13:33:14.782Z</time></trkpt><trkpt lat="37.8150483" lon="14.8579183"><ele>997.0</ele><time>2026-03-22T13:33:15.781Z</time></trkpt><trkpt lat="37.814865" lon="14.8578233"><ele>997.0</ele><time>2026-03-22T13:33:16.781Z</time></trkpt><trkpt lat="37.814675" lon="14.85774"><ele>997.0</ele><time>2026-03-22T13:33:17.781Z</time></trkpt><trkpt lat="37.8144767" lon="14.8576683"><ele>994.0</ele><time>2026-03-22T13:33:18.782Z</time></trkpt><trkpt lat="37.8142767" lon="14.8576067"><ele>991.0</ele><time>2026-03-22T13:33:19.781Z</time></trkpt><trkpt lat="37.8140683" lon="14.8575533"><ele>988.0</ele><time>2026-03-22T13:33:20.782Z</time></trkpt><trkpt lat="37.8138583" lon="14.8575083"><ele>988.0</ele><time>2026-03-22T13:33:21.781Z</time></trkpt><trkpt lat="37.813645" lon="14.8574683"><ele>988.0</ele><time>2026-03-22T13:33:22.782Z</time></trkpt><trkpt lat="37.8134283" lon="14.85743"><ele>988.0</ele><time>2026-03-22T13:33:23.782Z</time></trkpt><trkpt lat="37.8132133" lon="14.8573883"><ele>986.3333333333333</ele><time>2026-03-22T13:33:24.782Z</time></trkpt><trkpt lat="37.8129917" lon="14.8573467"><ele>984.6666666666667</ele><time>2026-03-22T13:33:25.781Z</time></trkpt><trkpt lat="37.81277" lon="14.8573"><ele>983.0</ele><time>2026-03-22T13:33:26.782Z</time></trkpt><trkpt lat="37.8125467" lon="14.857255"><ele>983.0</ele><time>2026-03-22T13:33:27.782Z</time></trkpt><trkpt lat="37.8123217" lon="14.8572067"><ele>983.0</ele><time>2026-03-22T13:33:28.781Z</time></trkpt><trkpt lat="37.8120933" lon="14.8571633"><ele>983.0</ele><time>2026-03-22T13:33:29.782Z</time></trkpt><trkpt lat="37.8118667" lon="14.8571133"><ele>983.0</ele><time>2026-03-22T13:33:30.782Z</time></trkpt><trkpt lat="37.811635" lon="14.8570683"><ele>981.0</ele><time>2026-03-22T13:33:31.782Z</time></trkpt><trkpt lat="37.8114017" lon="14.8570233"><ele>979.0</ele><time>2026-03-22T13:33:32.782Z</time></trkpt><trkpt lat="37.81117" lon="14.8569733"><ele>979.0</ele><time>2026-03-22T13:33:33.782Z</time></trkpt><trkpt lat="37.8109367" lon="14.8569233"><ele>979.0</ele><time>2026-03-22T13:33:34.781Z</time></trkpt><trkpt lat="37.8107017" lon="14.8568767"><ele>979.0</ele><time>2026-03-22T13:33:35.782Z</time></trkpt><trkpt lat="37.8104667" lon="14.856825"><ele>979.0</ele><time>2026-03-22T13:33:36.781Z</time></trkpt><trkpt lat="37.8102317" lon="14.8567733"><ele>980.0</ele><time>2026-03-22T13:33:37.781Z</time></trkpt><trkpt lat="37.8099967" lon="14.8567283"><ele>981.0</ele><time>2026-03-22T13:33:38.782Z</time></trkpt><trkpt lat="37.8097617" lon="14.8566783"><ele>981.0</ele><time>2026-03-22T13:33:39.781Z</time></trkpt><trkpt lat="37.8095267" lon="14.8566267"><ele>981.0</ele><time>2026-03-22T13:33:40.782Z</time></trkpt><trkpt lat="37.8092967" lon="14.8565733"><ele>979.0</ele><time>2026-03-22T13:33:41.782Z</time></trkpt><trkpt lat="37.8090717" lon="14.8565233"><ele>977.0</ele><time>2026-03-22T13:33:42.781Z</time></trkpt><trkpt lat="37.808845" lon="14.8564767"><ele>977.0</ele><time>2026-03-22T13:33:43.782Z</time></trkpt><trkpt lat="37.8086267" lon="14.8564233"><ele>977.0</ele><time>2026-03-22T13:33:44.782Z</time></trkpt><trkpt lat="37.8084083" lon="14.856375"><ele>977.0</ele><time>2026-03-22T13:33:45.782Z</time></trkpt><trkpt lat="37.80819" lon="14.8563267"><ele>977.0</ele><time>2026-03-22T13:33:46.781Z</time></trkpt><trkpt lat="37.8079783" lon="14.85628"><ele>977.0</ele><time>2026-03-22T13:33:47.782Z</time></trkpt><trkpt lat="37.8077817" lon="14.856235"><ele>977.0</ele><time>2026-03-22T13:33:48.781Z</time></trkpt><trkpt lat="37.8075783" lon="14.856185"><ele>976.6666666666667</ele><time>2026-03-22T13:33:49.782Z</time></trkpt><trkpt lat="37.8073817" lon="14.8561333"><ele>976.3333333333333</ele><time>2026-03-22T13:33:50.782Z</time></trkpt><trkpt lat="37.8071883" lon="14.85608"><ele>976.0</ele><time>2026-03-22T13:33:51.782Z</time></trkpt><trkpt lat="37.8069933" lon="14.8560217"><ele>979.0</ele><time>2026-03-22T13:33:52.782Z</time></trkpt><trkpt lat="37.8068067" lon="14.85594"><ele>982.0</ele><time>2026-03-22T13:33:53.781Z</time></trkpt><trkpt lat="37.8066283" lon="14.8558367"><ele>985.0</ele><time>2026-03-22T13:33:54.782Z</time></trkpt><trkpt lat="37.8064617" lon="14.8557117"><ele>985.0</ele><time>2026-03-22T13:33:55.782Z</time></trkpt><trkpt lat="37.806295" lon="14.8555883"><ele>985.0</ele><time>2026-03-22T13:33:56.782Z</time></trkpt><trkpt lat="37.80613" lon="14.8554783"><ele>985.0</ele><time>2026-03-22T13:33:57.782Z</time></trkpt><trkpt lat="37.8059633" lon="14.8553767"><ele>984.6666666666666</ele><time>2026-03-22T13:33:58.782Z</time></trkpt><trkpt lat="37.8057917" lon="14.8552817"><ele>984.3333333333333</ele><time>2026-03-22T13:33:59.782Z</time></trkpt><trkpt lat="37.80562" lon="14.8551867"><ele>984.0</ele><time>2026-03-22T13:34:00.782Z</time></trkpt><trkpt lat="37.8054583" lon="14.8550933"><ele>985.0</ele><time>2026-03-22T13:34:01.781Z</time></trkpt><trkpt lat="37.8052933" lon="14.8550067"><ele>986.0</ele><time>2026-03-22T13:34:02.782Z</time></trkpt><trkpt lat="37.805125" lon="14.8549133"><ele>987.0</ele><time>2026-03-22T13:34:03.782Z</time></trkpt><trkpt lat="37.8049633" lon="14.8548217"><ele>987.0</ele><time>2026-03-22T13:34:04.782Z</time></trkpt><trkpt lat="37.804805" lon="14.8547283"><ele>987.0</ele><time>2026-03-22T13:34:05.782Z</time></trkpt><trkpt lat="37.8046533" lon="14.8546117"><ele>987.0</ele><time>2026-03-22T13:34:06.782Z</time></trkpt><trkpt lat="37.80452" lon="14.8544783"><ele>987.0</ele><time>2026-03-22T13:34:07.781Z</time></trkpt><trkpt lat="37.80441" lon="14.8543433"><ele>987.0</ele><time>2026-03-22T13:34:08.781Z</time></trkpt><trkpt lat="37.8043117" lon="14.8542033"><ele>987.0</ele><time>2026-03-22T13:34:09.781Z</time></trkpt><trkpt lat="37.8042083" lon="14.854085"><ele>987.0</ele><time>2026-03-22T13:34:10.782Z</time></trkpt><trkpt lat="37.8040867" lon="14.8539983"><ele>984.5</ele><time>2026-03-22T13:34:11.782Z</time></trkpt><trkpt lat="37.8039567" lon="14.8539533"><ele>982.0</ele><time>2026-03-22T13:34:12.782Z</time></trkpt><trkpt lat="37.8038083" lon="14.8539483"><ele>979.5</ele><time>2026-03-22T13:34:13.782Z</time></trkpt><trkpt lat="37.8036633" lon="14.85396"><ele>977.0</ele><time>2026-03-22T13:34:14.782Z</time></trkpt><trkpt lat="37.8035083" lon="14.8539583"><ele>977.3333333333334</ele><time>2026-03-22T13:34:15.782Z</time></trkpt><trkpt lat="37.8033467" lon="14.853935"><ele>977.6666666666667</ele><time>2026-03-22T13:34:16.782Z</time></trkpt><trkpt lat="37.80318" lon="14.8538783"><ele>978.0</ele><time>2026-03-22T13:34:17.781Z</time></trkpt><trkpt lat="37.8030133" lon="14.8538067"><ele>978.0</ele><time>2026-03-22T13:34:18.782Z</time></trkpt><trkpt lat="37.8028567" lon="14.8537367"><ele>978.0</ele><time>2026-03-22T13:34:19.781Z</time></trkpt><trkpt lat="37.80271" lon="14.8536683"><ele>978.0</ele><time>2026-03-22T13:34:20.781Z</time></trkpt><trkpt lat="37.802575" lon="14.8536067"><ele>978.75</ele><time>2026-03-22T13:34:21.781Z</time></trkpt><trkpt lat="37.8024433" lon="14.8535317"><ele>979.5</ele><time>2026-03-22T13:34:22.782Z</time></trkpt><trkpt lat="37.8023217" lon="14.85344"><ele>980.25</ele><time>2026-03-22T13:34:23.781Z</time></trkpt><trkpt lat="37.8022217" lon="14.8533267"><ele>981.0</ele><time>2026-03-22T13:34:24.781Z</time></trkpt><trkpt lat="37.8021317" lon="14.8531733"><ele>975.3333333333333</ele><time>2026-03-22T13:34:25.782Z</time></trkpt><trkpt lat="37.8020667" lon="14.852995"><ele>969.6666666666666</ele><time>2026-03-22T13:34:26.781Z</time></trkpt><trkpt lat="37.8020133" lon="14.8528067"><ele>964.0</ele><time>2026-03-22T13:34:27.782Z</time></trkpt><trkpt lat="37.8019617" lon="14.852615"><ele>963.0</ele><time>2026-03-22T13:34:28.782Z</time></trkpt><trkpt lat="37.8019117" lon="14.852435"><ele>962.0</ele><time>2026-03-22T13:34:29.781Z</time></trkpt><trkpt lat="37.801855" lon="14.8522633"><ele>961.0</ele><time>2026-03-22T13:34:30.782Z</time></trkpt><trkpt lat="37.8017817" lon="14.8521083"><ele>960.0</ele><time>2026-03-22T13:34:31.782Z</time></trkpt><trkpt lat="37.80167" lon="14.8519767"><ele>960.0</ele><time>2026-03-22T13:34:32.782Z</time></trkpt><trkpt lat="37.801535" lon="14.851875"><ele>960.0</ele><time>2026-03-22T13:34:33.782Z</time></trkpt><trkpt lat="37.801395" lon="14.8517833"><ele>960.0</ele><time>2026-03-22T13:34:34.781Z</time></trkpt><trkpt lat="37.80126" lon="14.8517"><ele>956.0</ele><time>2026-03-22T13:34:35.781Z</time></trkpt><trkpt lat="37.8011217" lon="14.8516317"><ele>952.0</ele><time>2026-03-22T13:34:36.782Z</time></trkpt><trkpt lat="37.8009683" lon="14.8516017"><ele>948.0</ele><time>2026-03-22T13:34:37.782Z</time></trkpt><trkpt lat="37.8008133" lon="14.8515967"><ele>948.0</ele><time>2026-03-22T13:34:38.782Z</time></trkpt><trkpt lat="37.8006533" lon="14.8516083"><ele>948.0</ele><time>2026-03-22T13:34:39.782Z</time></trkpt><trkpt lat="37.800495" lon="14.8516233"><ele>948.0</ele><time>2026-03-22T13:34:40.781Z</time></trkpt><trkpt lat="37.8003433" lon="14.8516383"><ele>948.0</ele><time>2026-03-22T13:34:41.781Z</time></trkpt><trkpt lat="37.80019" lon="14.85166"><ele>948.0</ele><time>2026-03-22T13:34:42.782Z</time></trkpt><trkpt lat="37.8000383" lon="14.8516783"><ele>948.0</ele><time>2026-03-22T13:34:43.781Z</time></trkpt><trkpt lat="37.7998983" lon="14.8516933"><ele>948.0</ele><time>2026-03-22T13:34:44.781Z</time></trkpt><trkpt lat="37.7997767" lon="14.851675"><ele>946.25</ele><time>2026-03-22T13:34:45.781Z</time></trkpt><trkpt lat="37.7996833" lon="14.8516033"><ele>944.5</ele><time>2026-03-22T13:34:46.781Z</time></trkpt><trkpt lat="37.7996133" lon="14.8514867"><ele>942.75</ele><time>2026-03-22T13:34:47.782Z</time></trkpt><trkpt lat="37.7995467" lon="14.8513517"><ele>941.0</ele><time>2026-03-22T13:34:48.781Z</time></trkpt><trkpt lat="37.7994717" lon="14.8512333"><ele>941.0</ele><time>2026-03-22T13:34:49.781Z</time></trkpt><trkpt lat="37.7993783" lon="14.851145"><ele>941.0</ele><time>2026-03-22T13:34:50.782Z</time></trkpt><trkpt lat="37.7992717" lon="14.8511067"><ele>941.0</ele><time>2026-03-22T13:34:51.781Z</time></trkpt><trkpt lat="37.79914" lon="14.8511167"><ele>941.0</ele><time>2026-03-22T13:34:52.781Z</time></trkpt><trkpt lat="37.7990033" lon="14.85116"><ele>940.25</ele><time>2026-03-22T13:34:53.781Z</time></trkpt><trkpt lat="37.7988667" lon="14.8512383"><ele>939.5</ele><time>2026-03-22T13:34:54.781Z</time></trkpt><trkpt lat="37.7987417" lon="14.8513433"><ele>938.75</ele><time>2026-03-22T13:34:55.782Z</time></trkpt><trkpt lat="37.7986317" lon="14.8514683"><ele>938.0</ele><time>2026-03-22T13:34:56.781Z</time></trkpt><trkpt lat="37.79854" lon="14.8515967"><ele>935.5</ele><time>2026-03-22T13:34:57.782Z</time></trkpt><trkpt lat="37.798455" lon="14.851705"><ele>933.0</ele><time>2026-03-22T13:34:58.782Z</time></trkpt><trkpt lat="37.7983533" lon="14.8517867"><ele>930.5</ele><time>2026-03-22T13:34:59.781Z</time></trkpt><trkpt lat="37.7982317" lon="14.8518383"><ele>928.0</ele><time>2026-03-22T13:35:00.781Z</time></trkpt><trkpt lat="37.798105" lon="14.8518567"><ele>928.0</ele><time>2026-03-22T13:35:01.782Z</time></trkpt><trkpt lat="37.7979817" lon="14.851855"><ele>928.0</ele><time>2026-03-22T13:35:02.782Z</time></trkpt><trkpt lat="37.7978683" lon="14.85182"><ele>928.0</ele><time>2026-03-22T13:35:03.782Z</time></trkpt><trkpt lat="37.7977667" lon="14.8517333"><ele>928.0</ele><time>2026-03-22T13:35:04.782Z</time></trkpt><trkpt lat="37.7976667" lon="14.851605"><ele>927.3333333333333</ele><time>2026-03-22T13:35:05.782Z</time></trkpt><trkpt lat="37.797565" lon="14.8514533"><ele>926.6666666666667</ele><time>2026-03-22T13:35:06.782Z</time></trkpt><trkpt lat="37.79746" lon="14.85129"><ele>926.0</ele><time>2026-03-22T13:35:07.782Z</time></trkpt><trkpt lat="37.7973583" lon="14.8511167"><ele>921.3333333333334</ele><time>2026-03-22T13:35:08.781Z</time></trkpt><trkpt lat="37.79727" lon="14.8509417"><ele>916.6666666666667</ele><time>2026-03-22T13:35:09.782Z</time></trkpt><trkpt lat="37.7971867" lon="14.8507717"><ele>912.0</ele><time>2026-03-22T13:35:10.782Z</time></trkpt><trkpt lat="37.7971067" lon="14.8506"><ele>912.0</ele><time>2026-03-22T13:35:11.781Z</time></trkpt><trkpt lat="37.7970333" lon="14.8504283"><ele>912.0</ele><time>2026-03-22T13:35:12.782Z</time></trkpt><trkpt lat="37.7969633" lon="14.8502617"><ele>912.0</ele><time>2026-03-22T13:35:13.781Z</time></trkpt><trkpt lat="37.7968967" lon="14.8501017"><ele>912.0</ele><time>2026-03-22T13:35:14.781Z</time></trkpt><trkpt lat="37.796825" lon="14.849945"><ele>912.6666666666667</ele><time>2026-03-22T13:35:15.781Z</time></trkpt><trkpt lat="37.7967433" lon="14.8497933"><ele>913.3333333333334</ele><time>2026-03-22T13:35:16.781Z</time></trkpt><trkpt lat="37.7966367" lon="14.849655"><ele>914.0</ele><time>2026-03-22T13:35:17.781Z</time></trkpt><trkpt lat="37.79651" lon="14.849535"><ele>914.0</ele><time>2026-03-22T13:35:18.782Z</time></trkpt><trkpt lat="37.7963733" lon="14.8494267"><ele>914.0</ele><time>2026-03-22T13:35:19.782Z</time></trkpt><trkpt lat="37.7962467" lon="14.849315"><ele>914.0</ele><time>2026-03-22T13:35:20.782Z</time></trkpt><trkpt lat="37.796115" lon="14.849215"><ele>910.25</ele><time>2026-03-22T13:35:21.782Z</time></trkpt><trkpt lat="37.795985" lon="14.84915"><ele>906.5</ele><time>2026-03-22T13:35:22.781Z</time></trkpt><trkpt lat="37.7958417" lon="14.849125"><ele>902.75</ele><time>2026-03-22T13:35:23.782Z</time></trkpt><trkpt lat="37.7957033" lon="14.8491433"><ele>899.0</ele><time>2026-03-22T13:35:24.781Z</time></trkpt><trkpt lat="37.7955733" lon="14.8491783"><ele>899.0</ele><time>2026-03-22T13:35:25.781Z</time></trkpt><trkpt lat="37.795445" lon="14.8492167"><ele>899.0</ele><time>2026-03-22T13:35:26.781Z</time></trkpt><trkpt lat="37.795325" lon="14.8492317"><ele>899.0</ele><time>2026-03-22T13:35:27.781Z</time></trkpt><trkpt lat="37.7952117" lon="14.8492117"><ele>899.0</ele><time>2026-03-22T13:35:28.781Z</time></trkpt><trkpt lat="37.7951183" lon="14.8491367"><ele>898.0</ele><time>2026-03-22T13:35:29.781Z</time></trkpt><trkpt lat="37.79504" lon="14.8490083"><ele>897.0</ele><time>2026-03-22T13:35:30.781Z</time></trkpt><trkpt lat="37.794965" lon="14.8488533"><ele>896.0</ele><time>2026-03-22T13:35:31.782Z</time></trkpt><trkpt lat="37.7948783" lon="14.84869"><ele>895.0</ele><time>2026-03-22T13:35:32.782Z</time></trkpt><trkpt lat="37.7947833" lon="14.8485267"><ele>892.75</ele><time>2026-03-22T13:35:33.781Z</time></trkpt><trkpt lat="37.7946933" lon="14.8483717"><ele>890.5</ele><time>2026-03-22T13:35:34.781Z</time></trkpt><trkpt lat="37.7946083" lon="14.848225"><ele>888.25</ele><time>2026-03-22T13:35:35.782Z</time></trkpt><trkpt lat="37.7945267" lon="14.8480783"><ele>886.0</ele><time>2026-03-22T13:35:36.781Z</time></trkpt><trkpt lat="37.794455" lon="14.847935"><ele>886.0</ele><time>2026-03-22T13:35:37.782Z</time></trkpt><trkpt lat="37.794405" lon="14.8478067"><ele>885.9999999999999</ele><time>2026-03-22T13:35:38.782Z</time></trkpt><trkpt lat="37.794365" lon="14.8476817"><ele>885.9999999999999</ele><time>2026-03-22T13:35:39.782Z</time></trkpt><trkpt lat="37.7943233" lon="14.8475533"><ele>886.0</ele><time>2026-03-22T13:35:40.782Z</time></trkpt><trkpt lat="37.794275" lon="14.8474283"><ele>886.0</ele><time>2026-03-22T13:35:41.781Z</time></trkpt><trkpt lat="37.79421" lon="14.8473083"><ele>885.25</ele><time>2026-03-22T13:35:42.782Z</time></trkpt><trkpt lat="37.7941367" lon="14.8471933"><ele>884.5</ele><time>2026-03-22T13:35:43.781Z</time></trkpt><trkpt lat="37.7940517" lon="14.84709"><ele>883.75</ele><time>2026-03-22T13:35:44.782Z</time></trkpt><trkpt lat="37.7939517" lon="14.8469983"><ele>883.0</ele><time>2026-03-22T13:35:45.782Z</time></trkpt><trkpt lat="37.793845" lon="14.8469033"><ele>883.0</ele><time>2026-03-22T13:35:46.782Z</time></trkpt><trkpt lat="37.7937383" lon="14.846805"><ele>883.0</ele><time>2026-03-22T13:35:47.782Z</time></trkpt><trkpt lat="37.793635" lon="14.8467083"><ele>883.0</ele><time>2026-03-22T13:35:48.781Z</time></trkpt><trkpt lat="37.7935367" lon="14.8466083"><ele>883.0</ele><time>2026-03-22T13:35:49.782Z</time></trkpt><trkpt lat="37.7934433" lon="14.84651"><ele>882.25</ele><time>2026-03-22T13:35:50.782Z</time></trkpt><trkpt lat="37.7933667" lon="14.8464017"><ele>881.5</ele><time>2026-03-22T13:35:51.782Z</time></trkpt><trkpt lat="37.7932933" lon="14.846285"><ele>880.75</ele><time>2026-03-22T13:35:52.782Z</time></trkpt><trkpt lat="37.7932217" lon="14.8461733"><ele>880.0</ele><time>2026-03-22T13:35:53.781Z</time></trkpt><trkpt lat="37.7931533" lon="14.846065"><ele>879.2</ele><time>2026-03-22T13:35:54.781Z</time></trkpt><trkpt lat="37.793085" lon="14.8459567"><ele>878.4</ele><time>2026-03-22T13:35:55.781Z</time></trkpt><trkpt lat="37.793025" lon="14.8458483"><ele>877.5999999999999</ele><time>2026-03-22T13:35:56.781Z</time></trkpt><trkpt lat="37.7929633" lon="14.8457433"><ele>876.8</ele><time>2026-03-22T13:35:57.781Z</time></trkpt><trkpt lat="37.7929" lon="14.84564"><ele>876.0</ele><time>2026-03-22T13:35:58.781Z</time></trkpt><trkpt lat="37.79284" lon="14.845535"><ele>876.0</ele><time>2026-03-22T13:35:59.782Z</time></trkpt><trkpt lat="37.792775" lon="14.84543"><ele>875.9999999999999</ele><time>2026-03-22T13:36:00.781Z</time></trkpt><trkpt lat="37.7927083" lon="14.8453267"><ele>875.9999999999999</ele><time>2026-03-22T13:36:01.782Z</time></trkpt><trkpt lat="37.792635" lon="14.84522"><ele>876.0</ele><time>2026-03-22T13:36:02.781Z</time></trkpt><trkpt lat="37.7925683" lon="14.8451067"><ele>876.0</ele><time>2026-03-22T13:36:03.782Z</time></trkpt><trkpt lat="37.7924983" lon="14.844995"><ele>874.4</ele><time>2026-03-22T13:36:04.781Z</time></trkpt><trkpt lat="37.79243" lon="14.844885"><ele>872.8</ele><time>2026-03-22T13:36:05.781Z</time></trkpt><trkpt lat="37.7923633" lon="14.8447733"><ele>871.1999999999999</ele><time>2026-03-22T13:36:06.781Z</time></trkpt><trkpt lat="37.7922983" lon="14.844665"><ele>869.5999999999999</ele><time>2026-03-22T13:36:07.782Z</time></trkpt><trkpt lat="37.7922367" lon="14.844555"><ele>868.0</ele><time>2026-03-22T13:36:08.782Z</time></trkpt><trkpt lat="37.7921783" lon="14.84444"><ele>868.0</ele><time>2026-03-22T13:36:09.782Z</time></trkpt><trkpt lat="37.7921217" lon="14.8443133"><ele>868.0</ele><time>2026-03-22T13:36:10.782Z</time></trkpt><trkpt lat="37.7920683" lon="14.8441717"><ele>868.0</ele><time>2026-03-22T13:36:11.782Z</time></trkpt><trkpt lat="37.79201" lon="14.8440417"><ele>868.0</ele><time>2026-03-22T13:36:12.781Z</time></trkpt><trkpt lat="37.7919533" lon="14.8439"><ele>867.75</ele><time>2026-03-22T13:36:13.782Z</time></trkpt><trkpt lat="37.7918983" lon="14.843765"><ele>867.5</ele><time>2026-03-22T13:36:14.782Z</time></trkpt><trkpt lat="37.7918483" lon="14.8436267"><ele>867.25</ele><time>2026-03-22T13:36:15.782Z</time></trkpt><trkpt lat="37.7917917" lon="14.843495"><ele>867.0</ele><time>2026-03-22T13:36:16.782Z</time></trkpt><trkpt lat="37.7917417" lon="14.84336"><ele>863.75</ele><time>2026-03-22T13:36:17.782Z</time></trkpt><trkpt lat="37.7916883" lon="14.8432267"><ele>860.5</ele><time>2026-03-22T13:36:18.781Z</time></trkpt><trkpt lat="37.791635" lon="14.843095"><ele>857.25</ele><time>2026-03-22T13:36:19.781Z</time></trkpt><trkpt lat="37.7915867" lon="14.8429633"><ele>854.0</ele><time>2026-03-22T13:36:20.781Z</time></trkpt><trkpt lat="37.7915383" lon="14.84283"><ele>854.0</ele><time>2026-03-22T13:36:21.782Z</time></trkpt><trkpt lat="37.7914967" lon="14.8426983"><ele>854.0000000000001</ele><time>2026-03-22T13:36:22.782Z</time></trkpt><trkpt lat="37.7914617" lon="14.8425667"><ele>854.0000000000001</ele><time>2026-03-22T13:36:23.782Z</time></trkpt><trkpt lat="37.79143" lon="14.8424333"><ele>854.0</ele><time>2026-03-22T13:36:24.781Z</time></trkpt><trkpt lat="37.7914" lon="14.842295"><ele>854.0</ele><time>2026-03-22T13:36:25.781Z</time></trkpt><trkpt lat="37.7913667" lon="14.8421633"><ele>853.0</ele><time>2026-03-22T13:36:26.781Z</time></trkpt><trkpt lat="37.7913267" lon="14.8420467"><ele>852.0000000000001</ele><time>2026-03-22T13:36:27.781Z</time></trkpt><trkpt lat="37.7912617" lon="14.8419433"><ele>851.0</ele><time>2026-03-22T13:36:28.782Z</time></trkpt><trkpt lat="37.7911767" lon="14.8418483"><ele>850.0</ele><time>2026-03-22T13:36:29.781Z</time></trkpt><trkpt lat="37.7910967" lon="14.8417583"><ele>849.0</ele><time>2026-03-22T13:36:30.781Z</time></trkpt><trkpt lat="37.7910083" lon="14.841685"><ele>847.8000000000001</ele><time>2026-03-22T13:36:31.782Z</time></trkpt><trkpt lat="37.79093" lon="14.8416"><ele>846.6</ele><time>2026-03-22T13:36:32.782Z</time></trkpt><trkpt lat="37.79087" lon="14.841505"><ele>845.4</ele><time>2026-03-22T13:36:33.781Z</time></trkpt><trkpt lat="37.7908183" lon="14.84139"><ele>844.2</ele><time>2026-03-22T13:36:34.782Z</time></trkpt><trkpt lat="37.7907967" lon="14.8412583"><ele>843.0</ele><time>2026-03-22T13:36:35.782Z</time></trkpt><trkpt lat="37.7907967" lon="14.84112"><ele>843.0</ele><time>2026-03-22T13:36:36.781Z</time></trkpt><trkpt lat="37.790805" lon="14.8409717"><ele>843.0</ele><time>2026-03-22T13:36:37.782Z</time></trkpt><trkpt lat="37.7908067" lon="14.8408333"><ele>843.0</ele><time>2026-03-22T13:36:38.782Z</time></trkpt><trkpt lat="37.79079" lon="14.84071"><ele>843.0</ele><time>2026-03-22T13:36:39.781Z</time></trkpt><trkpt lat="37.790765" lon="14.8405917"><ele>843.0</ele><time>2026-03-22T13:36:40.782Z</time></trkpt><trkpt lat="37.79073" lon="14.840475"><ele>841.8333333333334</ele><time>2026-03-22T13:36:41.782Z</time></trkpt><trkpt lat="37.7906933" lon="14.8403667"><ele>840.6666666666667</ele><time>2026-03-22T13:36:42.782Z</time></trkpt><trkpt lat="37.790655" lon="14.840265"><ele>839.5</ele><time>2026-03-22T13:36:43.781Z</time></trkpt><trkpt lat="37.79062" lon="14.8401683"><ele>838.3333333333334</ele><time>2026-03-22T13:36:44.781Z</time></trkpt><trkpt lat="37.790585" lon="14.8400783"><ele>837.1666666666667</ele><time>2026-03-22T13:36:45.781Z</time></trkpt><trkpt lat="37.7905517" lon="14.8399817"><ele>836.0</ele><time>2026-03-22T13:36:46.782Z</time></trkpt><trkpt lat="37.790515" lon="14.8398883"><ele>835.0</ele><time>2026-03-22T13:36:47.782Z</time></trkpt><trkpt lat="37.790475" lon="14.839795"><ele>834.0</ele><time>2026-03-22T13:36:48.781Z</time></trkpt><trkpt lat="37.7904283" lon="14.8397017"><ele>833.0</ele><time>2026-03-22T13:36:49.781Z</time></trkpt><trkpt lat="37.790365" lon="14.83961"><ele>832.0</ele><time>2026-03-22T13:36:50.781Z</time></trkpt><trkpt lat="37.790285" lon="14.8395267"><ele>831.0</ele><time>2026-03-22T13:36:51.781Z</time></trkpt><trkpt lat="37.7902" lon="14.8394333"><ele>831.4</ele><time>2026-03-22T13:36:52.782Z</time></trkpt><trkpt lat="37.7901283" lon="14.83933"><ele>831.8</ele><time>2026-03-22T13:36:53.782Z</time></trkpt><trkpt lat="37.790055" lon="14.8392217"><ele>832.1999999999999</ele><time>2026-03-22T13:36:54.782Z</time></trkpt><trkpt lat="37.7899833" lon="14.8391183"><ele>832.5999999999999</ele><time>2026-03-22T13:36:55.781Z</time></trkpt><trkpt lat="37.7899183" lon="14.8390117"><ele>833.0</ele><time>2026-03-22T13:36:56.782Z</time></trkpt><trkpt lat="37.789865" lon="14.8389117"><ele>833.0</ele><time>2026-03-22T13:36:57.782Z</time></trkpt><trkpt lat="37.7898133" lon="14.8388133"><ele>833.0</ele><time>2026-03-22T13:36:58.783Z</time></trkpt><trkpt lat="37.78976" lon="14.83872"><ele>833.0</ele><time>2026-03-22T13:36:59.782Z</time></trkpt><trkpt lat="37.7897" lon="14.8386317"><ele>833.0</ele><time>2026-03-22T13:37:00.782Z</time></trkpt><trkpt lat="37.7896383" lon="14.8385533"><ele>833.0</ele><time>2026-03-22T13:37:01.782Z</time></trkpt><trkpt lat="37.7895667" lon="14.8384867"><ele>833.2</ele><time>2026-03-22T13:37:02.783Z</time></trkpt><trkpt lat="37.7894867" lon="14.83843"><ele>833.4</ele><time>2026-03-22T13:37:03.782Z</time></trkpt><trkpt lat="37.7894017" lon="14.8383733"><ele>833.6</ele><time>2026-03-22T13:37:04.783Z</time></trkpt><trkpt lat="37.7893167" lon="14.8383183"><ele>833.8000000000001</ele><time>2026-03-22T13:37:05.782Z</time></trkpt><trkpt lat="37.7892267" lon="14.8382717"><ele>834.0</ele><time>2026-03-22T13:37:06.782Z</time></trkpt><trkpt lat="37.7891267" lon="14.8382317"><ele>834.0</ele><time>2026-03-22T13:37:07.783Z</time></trkpt><trkpt lat="37.789025" lon="14.8382033"><ele>834.0</ele><time>2026-03-22T13:37:08.782Z</time></trkpt><trkpt lat="37.7889233" lon="14.8381783"><ele>834.0</ele><time>2026-03-22T13:37:09.782Z</time></trkpt><trkpt lat="37.7888133" lon="14.83817"><ele>834.0</ele><time>2026-03-22T13:37:10.783Z</time></trkpt><trkpt lat="37.7887017" lon="14.83817"><ele>834.0</ele><time>2026-03-22T13:37:11.783Z</time></trkpt><trkpt lat="37.7885867" lon="14.838175"><ele>834.4000000000001</ele><time>2026-03-22T13:37:12.782Z</time></trkpt><trkpt lat="37.78847" lon="14.8381767"><ele>834.8</ele><time>2026-03-22T13:37:13.783Z</time></trkpt><trkpt lat="37.788355" lon="14.838185"><ele>835.2</ele><time>2026-03-22T13:37:14.783Z</time></trkpt><trkpt lat="37.7882417" lon="14.8381933"><ele>835.5999999999999</ele><time>2026-03-22T13:37:15.782Z</time></trkpt><trkpt lat="37.78814" lon="14.8382017"><ele>836.0</ele><time>2026-03-22T13:37:16.782Z</time></trkpt><trkpt lat="37.7880383" lon="14.8382117"><ele>836.0</ele><time>2026-03-22T13:37:17.782Z</time></trkpt><trkpt lat="37.78794" lon="14.83822"><ele>836.0</ele><time>2026-03-22T13:37:18.782Z</time></trkpt><trkpt lat="37.787845" lon="14.838225"><ele>836.0</ele><time>2026-03-22T13:37:19.782Z</time></trkpt><trkpt lat="37.787745" lon="14.838235"><ele>836.0</ele><time>2026-03-22T13:37:20.783Z</time></trkpt><trkpt lat="37.7876417" lon="14.83825"><ele>836.0</ele><time>2026-03-22T13:37:21.783Z</time></trkpt><trkpt lat="37.7875333" lon="14.8382667"><ele>835.75</ele><time>2026-03-22T13:37:22.782Z</time></trkpt><trkpt lat="37.7874217" lon="14.83828"><ele>835.5</ele><time>2026-03-22T13:37:23.782Z</time></trkpt><trkpt lat="37.7873083" lon="14.8382833"><ele>835.25</ele><time>2026-03-22T13:37:24.783Z</time></trkpt><trkpt lat="37.787195" lon="14.8382783"><ele>835.0</ele><time>2026-03-22T13:37:25.782Z</time></trkpt><trkpt lat="37.787075" lon="14.8382517"><ele>835.0</ele><time>2026-03-22T13:37:26.782Z</time></trkpt><trkpt lat="37.7869583" lon="14.83821"><ele>835.0</ele><time>2026-03-22T13:37:27.782Z</time></trkpt><trkpt lat="37.786845" lon="14.838165"><ele>835.0</ele><time>2026-03-22T13:37:28.782Z</time></trkpt><trkpt lat="37.7867367" lon="14.8381167"><ele>835.0</ele><time>2026-03-22T13:37:29.783Z</time></trkpt><trkpt lat="37.78663" lon="14.838095"><ele>835.2</ele><time>2026-03-22T13:37:30.783Z</time></trkpt><trkpt lat="37.7865217" lon="14.8380817"><ele>835.4</ele><time>2026-03-22T13:37:31.783Z</time></trkpt><trkpt lat="37.7864233" lon="14.8380683"><ele>835.5999999999999</ele><time>2026-03-22T13:37:32.783Z</time></trkpt><trkpt lat="37.7863267" lon="14.8380467"><ele>835.8</ele><time>2026-03-22T13:37:33.782Z</time></trkpt><trkpt lat="37.7862333" lon="14.8380267"><ele>836.0</ele><time>2026-03-22T13:37:34.782Z</time></trkpt><trkpt lat="37.7861367" lon="14.8380183"><ele>836.0</ele><time>2026-03-22T13:37:35.783Z</time></trkpt><trkpt lat="37.786035" lon="14.8380017"><ele>836.0</ele><time>2026-03-22T13:37:36.783Z</time></trkpt><trkpt lat="37.7859267" lon="14.837975"><ele>836.0</ele><time>2026-03-22T13:37:37.782Z</time></trkpt><trkpt lat="37.7858267" lon="14.837955"><ele>836.0</ele><time>2026-03-22T13:37:38.782Z</time></trkpt><trkpt lat="37.7857317" lon="14.83793"><ele>836.0</ele><time>2026-03-22T13:37:39.783Z</time></trkpt><trkpt lat="37.78564" lon="14.8379083"><ele>835.5000000000001</ele><time>2026-03-22T13:37:40.783Z</time></trkpt><trkpt lat="37.7855567" lon="14.83788"><ele>835.0</ele><time>2026-03-22T13:37:41.782Z</time></trkpt><trkpt lat="37.7854817" lon="14.8378483"><ele>834.5</ele><time>2026-03-22T13:37:42.782Z</time></trkpt><trkpt lat="37.7854017" lon="14.8378217"><ele>834.0</ele><time>2026-03-22T13:37:43.782Z</time></trkpt><trkpt lat="37.7853317" lon="14.8377833"><ele>833.5000000000001</ele><time>2026-03-22T13:37:44.783Z</time></trkpt><trkpt lat="37.7852683" lon="14.8377617"><ele>833.0</ele><time>2026-03-22T13:37:45.782Z</time></trkpt><trkpt lat="37.7852017" lon="14.8377333"><ele>832.5714285714286</ele><time>2026-03-22T13:37:46.783Z</time></trkpt><trkpt lat="37.785145" lon="14.8376967"><ele>832.1428571428571</ele><time>2026-03-22T13:37:47.783Z</time></trkpt><trkpt lat="37.7850883" lon="14.8376533"><ele>831.7142857142858</ele><time>2026-03-22T13:37:48.783Z</time></trkpt><trkpt lat="37.7850233" lon="14.8376267"><ele>831.2857142857142</ele><time>2026-03-22T13:37:49.783Z</time></trkpt><trkpt lat="37.7849517" lon="14.8375967"><ele>830.8571428571429</ele><time>2026-03-22T13:37:50.783Z</time></trkpt><trkpt lat="37.78488" lon="14.83756"><ele>830.4285714285714</ele><time>2026-03-22T13:37:51.782Z</time></trkpt><trkpt lat="37.7848033" lon="14.8375133"><ele>830.0</ele><time>2026-03-22T13:37:52.783Z</time></trkpt><trkpt lat="37.78472" lon="14.837445"><ele>828.6666666666667</ele><time>2026-03-22T13:37:53.783Z</time></trkpt><trkpt lat="37.7846333" lon="14.8373933"><ele>827.3333333333334</ele><time>2026-03-22T13:37:54.783Z</time></trkpt><trkpt lat="37.78455" lon="14.8373467"><ele>826.0</ele><time>2026-03-22T13:37:55.783Z</time></trkpt><trkpt lat="37.7844767" lon="14.8373"><ele>824.6666666666667</ele><time>2026-03-22T13:37:56.782Z</time></trkpt><trkpt lat="37.784405" lon="14.83726"><ele>823.3333333333334</ele><time>2026-03-22T13:37:57.783Z</time></trkpt><trkpt lat="37.78433" lon="14.8372233"><ele>822.0</ele><time>2026-03-22T13:37:58.782Z</time></trkpt><trkpt lat="37.7842567" lon="14.83718"><ele>822.0</ele><time>2026-03-22T13:37:59.783Z</time></trkpt><trkpt lat="37.7841883" lon="14.8371233"><ele>822.0</ele><time>2026-03-22T13:38:00.783Z</time></trkpt><trkpt lat="37.7841167" lon="14.837075"><ele>822.0</ele><time>2026-03-22T13:38:01.782Z</time></trkpt><trkpt lat="37.7840467" lon="14.8370017"><ele>822.0</ele><time>2026-03-22T13:38:03.783Z</time></trkpt><trkpt lat="37.7839967" lon="14.8369533"><ele>822.0</ele><time>2026-03-22T13:38:06.782Z</time></trkpt><trkpt lat="37.7839117" lon="14.8368633"><ele>822.0</ele><time>2026-03-22T13:38:09.782Z</time></trkpt><trkpt lat="37.7838567" lon="14.8368083"><ele>821.6</ele><time>2026-03-22T13:38:10.782Z</time></trkpt><trkpt lat="37.7837933" lon="14.83674"><ele>821.2</ele><time>2026-03-22T13:38:11.783Z</time></trkpt><trkpt lat="37.7837233" lon="14.8366683"><ele>820.8</ele><time>2026-03-22T13:38:12.783Z</time></trkpt><trkpt lat="37.78365" lon="14.8365933"><ele>820.4</ele><time>2026-03-22T13:38:13.782Z</time></trkpt><trkpt lat="37.7835717" lon="14.8365133"><ele>820.0</ele><time>2026-03-22T13:38:14.782Z</time></trkpt><trkpt lat="37.7834783" lon="14.8364433"><ele>820.0</ele><time>2026-03-22T13:38:15.782Z</time></trkpt><trkpt lat="37.7833933" lon="14.836375"><ele>820.0</ele><time>2026-03-22T13:38:16.782Z</time></trkpt><trkpt lat="37.7833133" lon="14.8363067"><ele>820.0</ele><time>2026-03-22T13:38:17.783Z</time></trkpt><trkpt lat="37.7832383" lon="14.836235"><ele>820.0</ele><time>2026-03-22T13:38:18.782Z</time></trkpt><trkpt lat="37.7831617" lon="14.836155"><ele>820.0</ele><time>2026-03-22T13:38:19.782Z</time></trkpt><trkpt lat="37.7830883" lon="14.8360817"><ele>819.9999999999999</ele><time>2026-03-22T13:38:20.782Z</time></trkpt><trkpt lat="37.783015" lon="14.8360167"><ele>820.0</ele><time>2026-03-22T13:38:21.783Z</time></trkpt><trkpt lat="37.782945" lon="14.835955"><ele>820.0</ele><time>2026-03-22T13:38:22.783Z</time></trkpt><trkpt lat="37.78288" lon="14.8359"><ele>820.0</ele><time>2026-03-22T13:38:23.783Z</time></trkpt><trkpt lat="37.7828217" lon="14.8358517"><ele>819.9999999999999</ele><time>2026-03-22T13:38:24.782Z</time></trkpt><trkpt lat="37.78276" lon="14.8357883"><ele>820.0</ele><time>2026-03-22T13:38:25.782Z</time></trkpt><trkpt lat="37.782695" lon="14.8357233"><ele>820.3333333333333</ele><time>2026-03-22T13:38:26.782Z</time></trkpt><trkpt lat="37.7826283" lon="14.8356583"><ele>820.6666666666666</ele><time>2026-03-22T13:38:27.783Z</time></trkpt><trkpt lat="37.7825617" lon="14.8356"><ele>821.0</ele><time>2026-03-22T13:38:28.783Z</time></trkpt><trkpt lat="37.7824983" lon="14.8355417"><ele>821.3333333333333</ele><time>2026-03-22T13:38:29.782Z</time></trkpt><trkpt lat="37.7824383" lon="14.8354817"><ele>821.6666666666666</ele><time>2026-03-22T13:38:30.783Z</time></trkpt><trkpt lat="37.7823767" lon="14.8354233"><ele>822.0</ele><time>2026-03-22T13:38:31.782Z</time></trkpt><trkpt lat="37.782305" lon="14.8353633"><ele>822.0</ele><time>2026-03-22T13:38:32.783Z</time></trkpt><trkpt lat="37.782235" lon="14.8353033"><ele>822.0</ele><time>2026-03-22T13:38:33.783Z</time></trkpt><trkpt lat="37.7821683" lon="14.83524"><ele>822.0</ele><time>2026-03-22T13:38:34.783Z</time></trkpt><trkpt lat="37.7821" lon="14.835175"><ele>822.0</ele><time>2026-03-22T13:38:35.782Z</time></trkpt><trkpt lat="37.7820317" lon="14.8351117"><ele>822.0</ele><time>2026-03-22T13:38:36.783Z</time></trkpt><trkpt lat="37.7819667" lon="14.835045"><ele>822.0</ele><time>2026-03-22T13:38:37.783Z</time></trkpt><trkpt lat="37.7819" lon="14.8349667"><ele>822.1666666666666</ele><time>2026-03-22T13:38:38.782Z</time></trkpt><trkpt lat="37.7818433" lon="14.8348883"><ele>822.3333333333333</ele><time>2026-03-22T13:38:39.782Z</time></trkpt><trkpt lat="37.7817917" lon="14.8348167"><ele>822.5</ele><time>2026-03-22T13:38:40.782Z</time></trkpt><trkpt lat="37.781755" lon="14.8347233"><ele>822.6666666666666</ele><time>2026-03-22T13:38:41.782Z</time></trkpt><trkpt lat="37.7817317" lon="14.8346167"><ele>822.8333333333333</ele><time>2026-03-22T13:38:42.782Z</time></trkpt><trkpt lat="37.7817217" lon="14.8345"><ele>823.0</ele><time>2026-03-22T13:38:43.782Z</time></trkpt><trkpt lat="37.78173" lon="14.8343667"><ele>822.4</ele><time>2026-03-22T13:38:44.782Z</time></trkpt><trkpt lat="37.7817517" lon="14.8342233"><ele>821.8</ele><time>2026-03-22T13:38:45.783Z</time></trkpt><trkpt lat="37.78179" lon="14.83409"><ele>821.2</ele><time>2026-03-22T13:38:46.783Z</time></trkpt><trkpt lat="37.7818333" lon="14.8339667"><ele>820.6</ele><time>2026-03-22T13:38:47.782Z</time></trkpt><trkpt lat="37.7818733" lon="14.8338467"><ele>820.0</ele><time>2026-03-22T13:38:48.782Z</time></trkpt><trkpt lat="37.7819083" lon="14.833735"><ele>819.0</ele><time>2026-03-22T13:38:49.783Z</time></trkpt><trkpt lat="37.7819467" lon="14.83363"><ele>818.0</ele><time>2026-03-22T13:38:50.782Z</time></trkpt><trkpt lat="37.781985" lon="14.8335283"><ele>817.0</ele><time>2026-03-22T13:38:51.782Z</time></trkpt><trkpt lat="37.7820167" lon="14.8334117"><ele>816.0</ele><time>2026-03-22T13:38:52.783Z</time></trkpt><trkpt lat="37.78205" lon="14.8332983"><ele>815.0</ele><time>2026-03-22T13:38:53.782Z</time></trkpt><trkpt lat="37.7820733" lon="14.8331767"><ele>814.6</ele><time>2026-03-22T13:38:54.782Z</time></trkpt><trkpt lat="37.7820917" lon="14.833045"><ele>814.2</ele><time>2026-03-22T13:38:55.783Z</time></trkpt><trkpt lat="37.7821033" lon="14.8329067"><ele>813.8</ele><time>2026-03-22T13:38:56.782Z</time></trkpt><trkpt lat="37.7821033" lon="14.8327717"><ele>813.4</ele><time>2026-03-22T13:38:57.782Z</time></trkpt><trkpt lat="37.782095" lon="14.832635"><ele>813.0</ele><time>2026-03-22T13:38:58.783Z</time></trkpt><trkpt lat="37.7820833" lon="14.832485"><ele>810.5</ele><time>2026-03-22T13:38:59.783Z</time></trkpt><trkpt lat="37.7820717" lon="14.83233"><ele>808.0</ele><time>2026-03-22T13:39:00.782Z</time></trkpt><trkpt lat="37.7820567" lon="14.8321617"><ele>805.5</ele><time>2026-03-22T13:39:01.782Z</time></trkpt><trkpt lat="37.7820433" lon="14.8320033"><ele>803.0</ele><time>2026-03-22T13:39:02.782Z</time></trkpt><trkpt lat="37.7820267" lon="14.8318467"><ele>800.0</ele><time>2026-03-22T13:39:03.782Z</time></trkpt><trkpt lat="37.782005" lon="14.8316917"><ele>797.0</ele><time>2026-03-22T13:39:04.783Z</time></trkpt><trkpt lat="37.7819833" lon="14.83154"><ele>794.0</ele><time>2026-03-22T13:39:05.783Z</time></trkpt><trkpt lat="37.781965" lon="14.8313917"><ele>791.0</ele><time>2026-03-22T13:39:06.782Z</time></trkpt><trkpt lat="37.7819483" lon="14.8312267"><ele>791.0</ele><time>2026-03-22T13:39:07.783Z</time></trkpt><trkpt lat="37.7819167" lon="14.8310667"><ele>791.0</ele><time>2026-03-22T13:39:08.782Z</time></trkpt><trkpt lat="37.7818717" lon="14.8309167"><ele>791.0</ele><time>2026-03-22T13:39:09.782Z</time></trkpt><trkpt lat="37.7818133" lon="14.8307767"><ele>791.0</ele><time>2026-03-22T13:39:10.783Z</time></trkpt><trkpt lat="37.7817533" lon="14.8306417"><ele>792.25</ele><time>2026-03-22T13:39:11.782Z</time></trkpt><trkpt lat="37.7816983" lon="14.830505"><ele>793.5</ele><time>2026-03-22T13:39:12.782Z</time></trkpt><trkpt lat="37.7816467" lon="14.8303567"><ele>794.75</ele><time>2026-03-22T13:39:13.782Z</time></trkpt><trkpt lat="37.781605" lon="14.8302017"><ele>796.0</ele><time>2026-03-22T13:39:14.782Z</time></trkpt><trkpt lat="37.781575" lon="14.8300483"><ele>796.0</ele><time>2026-03-22T13:39:15.782Z</time></trkpt><trkpt lat="37.7815617" lon="14.8298883"><ele>796.0</ele><time>2026-03-22T13:39:16.782Z</time></trkpt><trkpt lat="37.78156" lon="14.8297233"><ele>796.0</ele><time>2026-03-22T13:39:17.782Z</time></trkpt><trkpt lat="37.7815733" lon="14.8295633"><ele>796.0</ele><time>2026-03-22T13:39:18.782Z</time></trkpt><trkpt lat="37.7815883" lon="14.8294067"><ele>795.25</ele><time>2026-03-22T13:39:19.783Z</time></trkpt><trkpt lat="37.7816183" lon="14.8292533"><ele>794.5</ele><time>2026-03-22T13:39:20.782Z</time></trkpt><trkpt lat="37.7816633" lon="14.8291"><ele>793.75</ele><time>2026-03-22T13:39:21.783Z</time></trkpt><trkpt lat="37.7817167" lon="14.8289583"><ele>793.0</ele><time>2026-03-22T13:39:22.783Z</time></trkpt><trkpt lat="37.7817817" lon="14.8288233"><ele>790.5</ele><time>2026-03-22T13:39:23.783Z</time></trkpt><trkpt lat="37.7818567" lon="14.8287017"><ele>788.0</ele><time>2026-03-22T13:39:24.783Z</time></trkpt><trkpt lat="37.7819383" lon="14.8285967"><ele>785.5</ele><time>2026-03-22T13:39:25.782Z</time></trkpt><trkpt lat="37.782035" lon="14.82851"><ele>783.0</ele><time>2026-03-22T13:39:26.782Z</time></trkpt><trkpt lat="37.7821333" lon="14.8284433"><ele>783.0</ele><time>2026-03-22T13:39:27.782Z</time></trkpt><trkpt lat="37.7822267" lon="14.8283783"><ele>783.0</ele><time>2026-03-22T13:39:28.783Z</time></trkpt><trkpt lat="37.7823367" lon="14.828315"><ele>783.0</ele><time>2026-03-22T13:39:29.782Z</time></trkpt><trkpt lat="37.78244" lon="14.828245"><ele>783.0</ele><time>2026-03-22T13:39:30.782Z</time></trkpt><trkpt lat="37.7825467" lon="14.8281767"><ele>783.0</ele><time>2026-03-22T13:39:31.782Z</time></trkpt><trkpt lat="37.782645" lon="14.8280967"><ele>783.0</ele><time>2026-03-22T13:39:32.782Z</time></trkpt><trkpt lat="37.7827417" lon="14.8280183"><ele>783.0</ele><time>2026-03-22T13:39:33.783Z</time></trkpt><trkpt lat="37.7828333" lon="14.8279383"><ele>783.0</ele><time>2026-03-22T13:39:34.782Z</time></trkpt><trkpt lat="37.7829183" lon="14.827855"><ele>782.1666666666666</ele><time>2026-03-22T13:39:35.782Z</time></trkpt><trkpt lat="37.78299" lon="14.8277817"><ele>781.3333333333333</ele><time>2026-03-22T13:39:36.783Z</time></trkpt><trkpt lat="37.78305" lon="14.8277217"><ele>780.5</ele><time>2026-03-22T13:39:37.782Z</time></trkpt><trkpt lat="37.7831067" lon="14.8276683"><ele>779.6666666666666</ele><time>2026-03-22T13:39:38.782Z</time></trkpt><trkpt lat="37.7831867" lon="14.827585"><ele>778.8333333333333</ele><time>2026-03-22T13:39:40.782Z</time></trkpt><trkpt lat="37.7832733" lon="14.827555"><ele>778.0</ele><time>2026-03-22T13:39:42.782Z</time></trkpt><trkpt lat="37.7833317" lon="14.82759"><ele>777.9999999999999</ele><time>2026-03-22T13:39:43.783Z</time></trkpt><trkpt lat="37.7833983" lon="14.8276383"><ele>778.0</ele><time>2026-03-22T13:39:44.782Z</time></trkpt><trkpt lat="37.7834617" lon="14.8276633"><ele>778.0</ele><time>2026-03-22T13:39:45.782Z</time></trkpt><trkpt lat="37.7835683" lon="14.827595"><ele>778.0</ele><time>2026-03-22T13:39:47.783Z</time></trkpt><trkpt lat="37.7836067" lon="14.8275133"><ele>777.9999999999999</ele><time>2026-03-22T13:39:48.783Z</time></trkpt><trkpt lat="37.783645" lon="14.8274317"><ele>778.0</ele><time>2026-03-22T13:39:49.783Z</time></trkpt><trkpt lat="37.78368" lon="14.8273433"><ele>775.4999999999999</ele><time>2026-03-22T13:39:50.782Z</time></trkpt><trkpt lat="37.7837133" lon="14.8272583"><ele>773.0</ele><time>2026-03-22T13:39:51.783Z</time></trkpt><trkpt lat="37.783745" lon="14.8271767"><ele>770.5</ele><time>2026-03-22T13:39:52.782Z</time></trkpt><trkpt lat="37.7837767" lon="14.8271033"><ele>768.0</ele><time>2026-03-22T13:39:53.782Z</time></trkpt><trkpt lat="37.7838083" lon="14.82703"><ele>765.5</ele><time>2026-03-22T13:39:54.783Z</time></trkpt><trkpt lat="37.78383" lon="14.8268917"><ele>763.0</ele><time>2026-03-22T13:39:56.782Z</time></trkpt><trkpt lat="37.783795" lon="14.826765"><ele>763.0</ele><time>2026-03-22T13:39:58.782Z</time></trkpt><trkpt lat="37.7837383" lon="14.8266483"><ele>763.0</ele><time>2026-03-22T13:40:00.783Z</time></trkpt><trkpt lat="37.7836633" lon="14.826525"><ele>763.0</ele><time>2026-03-22T13:40:02.783Z</time></trkpt><trkpt lat="37.7836233" lon="14.8264583"><ele>763.0</ele><time>2026-03-22T13:40:03.783Z</time></trkpt><trkpt lat="37.78358" lon="14.8263983"><ele>763.0</ele><time>2026-03-22T13:40:04.783Z</time></trkpt><trkpt lat="37.7834967" lon="14.82628"><ele>762.4</ele><time>2026-03-22T13:40:06.783Z</time></trkpt><trkpt lat="37.7833933" lon="14.8261767"><ele>761.8</ele><time>2026-03-22T13:40:08.782Z</time></trkpt><trkpt lat="37.7833267" lon="14.8261167"><ele>761.2</ele><time>2026-03-22T13:40:09.783Z</time></trkpt><trkpt lat="37.78325" lon="14.8260483"><ele>760.6</ele><time>2026-03-22T13:40:10.783Z</time></trkpt><trkpt lat="37.7831683" lon="14.8259817"><ele>760.0</ele><time>2026-03-22T13:40:11.783Z</time></trkpt><trkpt lat="37.7830867" lon="14.8259133"><ele>760.0</ele><time>2026-03-22T13:40:12.782Z</time></trkpt><trkpt lat="37.7830017" lon="14.82585"><ele>760.0</ele><time>2026-03-22T13:40:13.782Z</time></trkpt><trkpt lat="37.7829183" lon="14.8257933"><ele>760.0</ele><time>2026-03-22T13:40:14.783Z</time></trkpt><trkpt lat="37.7828283" lon="14.8257367"><ele>760.0</ele><time>2026-03-22T13:40:15.783Z</time></trkpt><trkpt lat="37.7827317" lon="14.825685"><ele>760.0</ele><time>2026-03-22T13:40:16.783Z</time></trkpt><trkpt lat="37.782635" lon="14.8256317"><ele>762.4</ele><time>2026-03-22T13:40:17.783Z</time></trkpt><trkpt lat="37.7825367" lon="14.8255883"><ele>764.8</ele><time>2026-03-22T13:40:18.783Z</time></trkpt><trkpt lat="37.7824283" lon="14.825555"><ele>767.2</ele><time>2026-03-22T13:40:19.782Z</time></trkpt><trkpt lat="37.78232" lon="14.8255283"><ele>769.6</ele><time>2026-03-22T13:40:20.783Z</time></trkpt><trkpt lat="37.7822133" lon="14.8255267"><ele>772.0</ele><time>2026-03-22T13:40:21.782Z</time></trkpt><trkpt lat="37.7821067" lon="14.8255417"><ele>772.0</ele><time>2026-03-22T13:40:22.783Z</time></trkpt><trkpt lat="37.781985" lon="14.8255683"><ele>772.0</ele><time>2026-03-22T13:40:23.783Z</time></trkpt><trkpt lat="37.7818517" lon="14.8255817"><ele>772.0</ele><time>2026-03-22T13:40:24.783Z</time></trkpt><trkpt lat="37.78171" lon="14.82558"><ele>772.0</ele><time>2026-03-22T13:40:25.783Z</time></trkpt><trkpt lat="37.78156" lon="14.8255667"><ele>772.0</ele><time>2026-03-22T13:40:26.782Z</time></trkpt><trkpt lat="37.7814083" lon="14.8255183"><ele>772.0</ele><time>2026-03-22T13:40:27.782Z</time></trkpt><trkpt lat="37.78126" lon="14.8254467"><ele>772.0</ele><time>2026-03-22T13:40:28.782Z</time></trkpt><trkpt lat="37.781115" lon="14.8253467"><ele>774.3333333333333</ele><time>2026-03-22T13:40:29.782Z</time></trkpt><trkpt lat="37.7809733" lon="14.8252433"><ele>776.6666666666667</ele><time>2026-03-22T13:40:30.782Z</time></trkpt><trkpt lat="37.7808383" lon="14.825125"><ele>779.0</ele><time>2026-03-22T13:40:31.783Z</time></trkpt><trkpt lat="37.78069" lon="14.8250117"><ele>774.0</ele><time>2026-03-22T13:40:32.783Z</time></trkpt><trkpt lat="37.7805367" lon="14.8249067"><ele>769.0</ele><time>2026-03-22T13:40:33.783Z</time></trkpt><trkpt lat="37.7803767" lon="14.8248033"><ele>764.0</ele><time>2026-03-22T13:40:34.782Z</time></trkpt><trkpt lat="37.7802283" lon="14.8246883"><ele>765.0</ele><time>2026-03-22T13:40:35.783Z</time></trkpt><trkpt lat="37.7800833" lon="14.8245733"><ele>766.0</ele><time>2026-03-22T13:40:36.783Z</time></trkpt><trkpt lat="37.7799117" lon="14.8245867"><ele>767.0</ele><time>2026-03-22T13:40:37.782Z</time></trkpt><trkpt lat="37.7797517" lon="14.8245817"><ele>767.0</ele><time>2026-03-22T13:40:38.782Z</time></trkpt><trkpt lat="37.77957" lon="14.82461"><ele>767.0</ele><time>2026-03-22T13:40:39.782Z</time></trkpt><trkpt lat="37.7793783" lon="14.8246533"><ele>767.0</ele><time>2026-03-22T13:40:40.783Z</time></trkpt><trkpt lat="37.7791883" lon="14.8246983"><ele>763.6666666666666</ele><time>2026-03-22T13:40:41.782Z</time></trkpt><trkpt lat="37.77899" lon="14.8247517"><ele>760.3333333333334</ele><time>2026-03-22T13:40:42.783Z</time></trkpt><trkpt lat="37.7787967" lon="14.8248033"><ele>757.0</ele><time>2026-03-22T13:40:43.782Z</time></trkpt><trkpt lat="37.7786033" lon="14.8248567"><ele>754.6666666666667</ele><time>2026-03-22T13:40:44.783Z</time></trkpt><trkpt lat="37.7784083" lon="14.8249167"><ele>752.3333333333334</ele><time>2026-03-22T13:40:45.783Z</time></trkpt><trkpt lat="37.7782183" lon="14.82499"><ele>750.0</ele><time>2026-03-22T13:40:46.783Z</time></trkpt><trkpt lat="37.77803" lon="14.8250883"><ele>753.6666666666666</ele><time>2026-03-22T13:40:47.783Z</time></trkpt><trkpt lat="37.777845" lon="14.8252033"><ele>757.3333333333333</ele><time>2026-03-22T13:40:48.783Z</time></trkpt><trkpt lat="37.77767" lon="14.825335"><ele>761.0</ele><time>2026-03-22T13:40:49.782Z</time></trkpt><trkpt lat="37.777495" lon="14.825465"><ele>761.0</ele><time>2026-03-22T13:40:50.782Z</time></trkpt><trkpt lat="37.7773133" lon="14.8256067"><ele>761.0</ele><time>2026-03-22T13:40:51.783Z</time></trkpt><trkpt lat="37.7771383" lon="14.8257533"><ele>761.0</ele><time>2026-03-22T13:40:52.782Z</time></trkpt><trkpt lat="37.7769767" lon="14.825905"><ele>755.3333333333333</ele><time>2026-03-22T13:40:53.782Z</time></trkpt><trkpt lat="37.776815" lon="14.8260017"><ele>749.6666666666666</ele><time>2026-03-22T13:40:54.782Z</time></trkpt><trkpt lat="37.77664" lon="14.8260867"><ele>744.0</ele><time>2026-03-22T13:40:55.783Z</time></trkpt><trkpt lat="37.77646" lon="14.826155"><ele>744.0</ele><time>2026-03-22T13:40:56.783Z</time></trkpt><trkpt lat="37.7762733" lon="14.82621"><ele>744.0</ele><time>2026-03-22T13:40:57.783Z</time></trkpt><trkpt lat="37.7760717" lon="14.8262433"><ele>744.0</ele><time>2026-03-22T13:40:58.782Z</time></trkpt><trkpt lat="37.7758717" lon="14.8262533"><ele>740.6666666666666</ele><time>2026-03-22T13:40:59.782Z</time></trkpt><trkpt lat="37.7756633" lon="14.82625"><ele>737.3333333333333</ele><time>2026-03-22T13:41:00.782Z</time></trkpt><trkpt lat="37.7754533" lon="14.8262283"><ele>734.0</ele><time>2026-03-22T13:41:01.782Z</time></trkpt><trkpt lat="37.77524" lon="14.826185"><ele>735.0</ele><time>2026-03-22T13:41:02.783Z</time></trkpt><trkpt lat="37.775025" lon="14.82613"><ele>736.0</ele><time>2026-03-22T13:41:03.783Z</time></trkpt><trkpt lat="37.7748033" lon="14.8260733"><ele>737.0</ele><time>2026-03-22T13:41:04.783Z</time></trkpt><trkpt lat="37.774575" lon="14.8260117"><ele>731.5</ele><time>2026-03-22T13:41:05.783Z</time></trkpt><trkpt lat="37.7743383" lon="14.8259517"><ele>726.0</ele><time>2026-03-22T13:41:06.782Z</time></trkpt><trkpt lat="37.7740983" lon="14.8258917"><ele>726.0</ele><time>2026-03-22T13:41:07.783Z</time></trkpt><trkpt lat="37.7738517" lon="14.8258333"><ele>726.0</ele><time>2026-03-22T13:41:08.782Z</time></trkpt><trkpt lat="37.7736017" lon="14.8257717"><ele>724.5</ele><time>2026-03-22T13:41:09.782Z</time></trkpt><trkpt lat="37.77335" lon="14.8257117"><ele>723.0</ele><time>2026-03-22T13:41:10.783Z</time></trkpt><trkpt lat="37.773095" lon="14.82565"><ele>723.0</ele><time>2026-03-22T13:41:11.783Z</time></trkpt><trkpt lat="37.7728383" lon="14.8255867"><ele>723.0</ele><time>2026-03-22T13:41:12.782Z</time></trkpt><trkpt lat="37.7725817" lon="14.8255233"><ele>724.5</ele><time>2026-03-22T13:41:13.783Z</time></trkpt><trkpt lat="37.772325" lon="14.8254617"><ele>726.0</ele><time>2026-03-22T13:41:14.782Z</time></trkpt><trkpt lat="37.7720867" lon="14.8253983"><ele>726.0</ele><time>2026-03-22T13:41:15.782Z</time></trkpt><trkpt lat="37.7718667" lon="14.825335"><ele>726.0</ele><time>2026-03-22T13:41:16.783Z</time></trkpt><trkpt lat="37.77166" lon="14.8252667"><ele>726.0</ele><time>2026-03-22T13:41:17.782Z</time></trkpt><trkpt lat="37.7714617" lon="14.8251817"><ele>723.3333333333334</ele><time>2026-03-22T13:41:18.783Z</time></trkpt><trkpt lat="37.77127" lon="14.8250717"><ele>720.6666666666667</ele><time>2026-03-22T13:41:19.783Z</time></trkpt><trkpt lat="37.771085" lon="14.824935"><ele>718.0</ele><time>2026-03-22T13:41:20.782Z</time></trkpt><trkpt lat="37.7709067" lon="14.8247783"><ele>718.0</ele><time>2026-03-22T13:41:21.782Z</time></trkpt><trkpt lat="37.7707442" lon="14.8246003"><ele>718.0</ele><time>2026-03-22T13:41:22.782Z</time></trkpt><trkpt lat="37.7705906" lon="14.8244052"><ele>718.0</ele><time>2026-03-22T13:41:23.783Z</time></trkpt><trkpt lat="37.7704403" lon="14.8242115"><ele>718.3333333333334</ele><time>2026-03-22T13:41:24.782Z</time></trkpt><trkpt lat="37.7702915" lon="14.8240262"><ele>718.6666666666666</ele><time>2026-03-22T13:41:25.783Z</time></trkpt><trkpt lat="37.7701421" lon="14.823849"><ele>719.0</ele><time>2026-03-22T13:41:26.783Z</time></trkpt><trkpt lat="37.7699891" lon="14.8236848"><ele>719.0</ele><time>2026-03-22T13:41:27.783Z</time></trkpt><trkpt lat="37.7698327" lon="14.8235433"><ele>719.0</ele><time>2026-03-22T13:41:28.783Z</time></trkpt><trkpt lat="37.7696688" lon="14.8234209"><ele>719.0</ele><time>2026-03-22T13:41:29.782Z</time></trkpt><trkpt lat="37.769497" lon="14.8233103"><ele>717.3333333333333</ele><time>2026-03-22T13:41:30.782Z</time></trkpt><trkpt lat="37.7693153" lon="14.8232158"><ele>715.6666666666666</ele><time>2026-03-22T13:41:31.782Z</time></trkpt><trkpt lat="37.7691228" lon="14.8231438"><ele>714.0</ele><time>2026-03-22T13:41:32.782Z</time></trkpt><trkpt lat="37.7689293" lon="14.823083"><ele>714.0</ele><time>2026-03-22T13:41:33.783Z</time></trkpt><trkpt lat="37.7687386" lon="14.823028"><ele>714.0</ele><time>2026-03-22T13:41:34.782Z</time></trkpt><trkpt lat="37.7685508" lon="14.8229758"><ele>714.0</ele><time>2026-03-22T13:41:35.782Z</time></trkpt><trkpt lat="37.7683608" lon="14.8229214"><ele>713.0</ele><time>2026-03-22T13:41:36.783Z</time></trkpt><trkpt lat="37.7681687" lon="14.8228629"><ele>712.0</ele><time>2026-03-22T13:41:37.783Z</time></trkpt><trkpt lat="37.7679724" lon="14.8228054"><ele>711.0</ele><time>2026-03-22T13:41:38.783Z</time></trkpt><trkpt lat="37.7677703" lon="14.822753"><ele>712.3333333333334</ele><time>2026-03-22T13:41:39.782Z</time></trkpt><trkpt lat="37.7675614" lon="14.8227154"><ele>713.6666666666667</ele><time>2026-03-22T13:41:40.783Z</time></trkpt><trkpt lat="37.7673555" lon="14.8227"><ele>715.0</ele><time>2026-03-22T13:41:41.783Z</time></trkpt><trkpt lat="37.7671505" lon="14.8227116"><ele>715.0</ele><time>2026-03-22T13:41:42.783Z</time></trkpt><trkpt lat="37.7669497" lon="14.8227426"><ele>715.0</ele><time>2026-03-22T13:41:43.783Z</time></trkpt><trkpt lat="37.7667541" lon="14.8227897"><ele>715.0</ele><time>2026-03-22T13:41:44.783Z</time></trkpt><trkpt lat="37.7665638" lon="14.8228473"><ele>715.3333333333334</ele><time>2026-03-22T13:41:45.782Z</time></trkpt><trkpt lat="37.7663796" lon="14.8229067"><ele>715.6666666666666</ele><time>2026-03-22T13:41:46.783Z</time></trkpt><trkpt lat="37.7661936" lon="14.8229684"><ele>716.0</ele><time>2026-03-22T13:41:47.782Z</time></trkpt><trkpt lat="37.7660043" lon="14.8230224"><ele>716.0</ele><time>2026-03-22T13:41:48.783Z</time></trkpt><trkpt lat="37.7658116" lon="14.8230795"><ele>716.0</ele><time>2026-03-22T13:41:49.782Z</time></trkpt><trkpt lat="37.7656201" lon="14.8231306"><ele>716.0</ele><time>2026-03-22T13:41:50.782Z</time></trkpt><trkpt lat="37.7654286" lon="14.823188"><ele>716.0</ele><time>2026-03-22T13:41:51.782Z</time></trkpt><trkpt lat="37.765238" lon="14.8232472"><ele>716.0</ele><time>2026-03-22T13:41:52.783Z</time></trkpt><trkpt lat="37.7650455" lon="14.8233118"><ele>716.0</ele><time>2026-03-22T13:41:53.782Z</time></trkpt><trkpt lat="37.7648548" lon="14.8233767"><ele>716.6666666666666</ele><time>2026-03-22T13:41:54.783Z</time></trkpt><trkpt lat="37.7646649" lon="14.8234429"><ele>717.3333333333334</ele><time>2026-03-22T13:41:55.783Z</time></trkpt><trkpt lat="37.7644788" lon="14.8235131"><ele>718.0</ele><time>2026-03-22T13:41:56.782Z</time></trkpt><trkpt lat="37.7642959" lon="14.8235968"><ele>723.6666666666667</ele><time>2026-03-22T13:41:57.783Z</time></trkpt><trkpt lat="37.7641196" lon="14.8236897"><ele>729.3333333333334</ele><time>2026-03-22T13:41:58.782Z</time></trkpt><trkpt lat="37.763945" lon="14.8237911"><ele>735.0</ele><time>2026-03-22T13:41:59.783Z</time></trkpt><trkpt lat="37.7637707" lon="14.8238985"><ele>735.0</ele><time>2026-03-22T13:42:00.782Z</time></trkpt><trkpt lat="37.7635952" lon="14.8240066"><ele>735.0</ele><time>2026-03-22T13:42:01.783Z</time></trkpt><trkpt lat="37.763419" lon="14.8241151"><ele>735.0</ele><time>2026-03-22T13:42:02.782Z</time></trkpt><trkpt lat="37.7632396" lon="14.8242219"><ele>737.3333333333334</ele><time>2026-03-22T13:42:03.783Z</time></trkpt><trkpt lat="37.7630547" lon="14.8243243"><ele>739.6666666666667</ele><time>2026-03-22T13:42:04.783Z</time></trkpt><trkpt lat="37.762859" lon="14.8244371"><ele>742.0</ele><time>2026-03-22T13:42:05.783Z</time></trkpt><trkpt lat="37.7626676" lon="14.8245399"><ele>742.0</ele><time>2026-03-22T13:42:06.783Z</time></trkpt><trkpt lat="37.7623013" lon="14.8247494"><ele>742.0</ele><time>2026-03-22T13:42:08.783Z</time></trkpt><trkpt lat="37.7621463" lon="14.8248407"><ele>742.0</ele><time>2026-03-22T13:42:09.782Z</time></trkpt><trkpt lat="37.7620033" lon="14.8249217"><ele>742.0</ele><time>2026-03-22T13:42:10.782Z</time></trkpt><trkpt lat="37.7618283" lon="14.8249833"><ele>742.0</ele><time>2026-03-22T13:42:11.783Z</time></trkpt><trkpt lat="37.7616467" lon="14.8250367"><ele>741.0</ele><time>2026-03-22T13:42:12.782Z</time></trkpt><trkpt lat="37.7614617" lon="14.82509"><ele>740.0</ele><time>2026-03-22T13:42:13.782Z</time></trkpt><trkpt lat="37.7612733" lon="14.8251383"><ele>739.0</ele><time>2026-03-22T13:42:14.782Z</time></trkpt><trkpt lat="37.76109" lon="14.8251867"><ele>742.6666666666667</ele><time>2026-03-22T13:42:15.783Z</time></trkpt><trkpt lat="37.7609083" lon="14.82523"><ele>746.3333333333334</ele><time>2026-03-22T13:42:16.783Z</time></trkpt><trkpt lat="37.7607217" lon="14.8252717"><ele>750.0</ele><time>2026-03-22T13:42:17.782Z</time></trkpt><trkpt lat="37.7605367" lon="14.825315"><ele>750.0</ele><time>2026-03-22T13:42:18.782Z</time></trkpt><trkpt lat="37.7603533" lon="14.8253617"><ele>750.0</ele><time>2026-03-22T13:42:19.783Z</time></trkpt><trkpt lat="37.76017" lon="14.8254117"><ele>750.0</ele><time>2026-03-22T13:42:20.782Z</time></trkpt><trkpt lat="37.7599867" lon="14.825475"><ele>751.0</ele><time>2026-03-22T13:42:21.782Z</time></trkpt><trkpt lat="37.7598017" lon="14.8255483"><ele>752.0</ele><time>2026-03-22T13:42:22.782Z</time></trkpt><trkpt lat="37.7596183" lon="14.8256217"><ele>753.0</ele><time>2026-03-22T13:42:23.782Z</time></trkpt><trkpt lat="37.7594367" lon="14.825705"><ele>754.3333333333334</ele><time>2026-03-22T13:42:24.782Z</time></trkpt><trkpt lat="37.7592533" lon="14.8257883"><ele>755.6666666666667</ele><time>2026-03-22T13:42:25.782Z</time></trkpt><trkpt lat="37.7590683" lon="14.8258817"><ele>757.0</ele><time>2026-03-22T13:42:26.782Z</time></trkpt><trkpt lat="37.7588767" lon="14.825985"><ele>758.0</ele><time>2026-03-22T13:42:27.782Z</time></trkpt><trkpt lat="37.7586833" lon="14.82609"><ele>759.0</ele><time>2026-03-22T13:42:28.783Z</time></trkpt><trkpt lat="37.758495" lon="14.8261967"><ele>760.0</ele><time>2026-03-22T13:42:29.782Z</time></trkpt><trkpt lat="37.7583067" lon="14.8263"><ele>757.3333333333334</ele><time>2026-03-22T13:42:30.783Z</time></trkpt><trkpt lat="37.7581117" lon="14.8263917"><ele>754.6666666666666</ele><time>2026-03-22T13:42:31.782Z</time></trkpt><trkpt lat="37.7579233" lon="14.826465"><ele>752.0</ele><time>2026-03-22T13:42:32.782Z</time></trkpt><trkpt lat="37.7577333" lon="14.8265267"><ele>750.6666666666666</ele><time>2026-03-22T13:42:33.782Z</time></trkpt><trkpt lat="37.7575417" lon="14.8265717"><ele>749.3333333333334</ele><time>2026-03-22T13:42:34.782Z</time></trkpt><trkpt lat="37.7573433" lon="14.8265983"><ele>748.0</ele><time>2026-03-22T13:42:35.782Z</time></trkpt><trkpt lat="37.7571433" lon="14.82661"><ele>748.0</ele><time>2026-03-22T13:42:36.783Z</time></trkpt><trkpt lat="37.7569367" lon="14.8266083"><ele>748.0</ele><time>2026-03-22T13:42:37.782Z</time></trkpt><trkpt lat="37.7567283" lon="14.82659"><ele>748.0</ele><time>2026-03-22T13:42:38.783Z</time></trkpt><trkpt lat="37.7565217" lon="14.8265467"><ele>748.0</ele><time>2026-03-22T13:42:39.783Z</time></trkpt><trkpt lat="37.7563117" lon="14.826485"><ele>748.0</ele><time>2026-03-22T13:42:40.783Z</time></trkpt><trkpt lat="37.756105" lon="14.8264017"><ele>748.0</ele><time>2026-03-22T13:42:41.783Z</time></trkpt><trkpt lat="37.7559017" lon="14.8262983"><ele>747.3333333333334</ele><time>2026-03-22T13:42:42.783Z</time></trkpt><trkpt lat="37.7557017" lon="14.82618"><ele>746.6666666666666</ele><time>2026-03-22T13:42:43.783Z</time></trkpt><trkpt lat="37.75551" lon="14.8260417"><ele>746.0</ele><time>2026-03-22T13:42:44.784Z</time></trkpt><trkpt lat="37.7553133" lon="14.8258933"><ele>744.0</ele><time>2026-03-22T13:42:45.783Z</time></trkpt><trkpt lat="37.7551167" lon="14.8257367"><ele>742.0</ele><time>2026-03-22T13:42:46.783Z</time></trkpt><trkpt lat="37.7549217" lon="14.8255767"><ele>742.0</ele><time>2026-03-22T13:42:47.783Z</time></trkpt><trkpt lat="37.7547317" lon="14.8254217"><ele>742.0</ele><time>2026-03-22T13:42:48.783Z</time></trkpt><trkpt lat="37.75454" lon="14.8252733"><ele>738.3333333333334</ele><time>2026-03-22T13:42:49.784Z</time></trkpt><trkpt lat="37.75435" lon="14.8251383"><ele>734.6666666666666</ele><time>2026-03-22T13:42:50.783Z</time></trkpt><trkpt lat="37.7541583" lon="14.8250167"><ele>731.0</ele><time>2026-03-22T13:42:51.783Z</time></trkpt><trkpt lat="37.7539567" lon="14.8249183"><ele>731.0</ele><time>2026-03-22T13:42:52.783Z</time></trkpt><trkpt lat="37.7537417" lon="14.8248467"><ele>731.0</ele><time>2026-03-22T13:42:53.783Z</time></trkpt><trkpt lat="37.7535217" lon="14.8247967"><ele>731.0</ele><time>2026-03-22T13:42:54.784Z</time></trkpt><trkpt lat="37.7532983" lon="14.8247617"><ele>729.5</ele><time>2026-03-22T13:42:55.784Z</time></trkpt><trkpt lat="37.75307" lon="14.8247383"><ele>728.0</ele><time>2026-03-22T13:42:56.783Z</time></trkpt><trkpt lat="37.7528383" lon="14.8247217"><ele>725.5</ele><time>2026-03-22T13:42:57.783Z</time></trkpt><trkpt lat="37.7526067" lon="14.8246933"><ele>723.0</ele><time>2026-03-22T13:42:58.784Z</time></trkpt><trkpt lat="37.7523733" lon="14.8246633"><ele>723.0</ele><time>2026-03-22T13:42:59.783Z</time></trkpt><trkpt lat="37.75214" lon="14.8246383"><ele>723.0</ele><time>2026-03-22T13:43:00.783Z</time></trkpt><trkpt lat="37.751905" lon="14.8246083"><ele>722.0</ele><time>2026-03-22T13:43:01.783Z</time></trkpt><trkpt lat="37.7516767" lon="14.8245917"><ele>721.0</ele><time>2026-03-22T13:43:02.783Z</time></trkpt><trkpt lat="37.75146" lon="14.8246"><ele>720.0</ele><time>2026-03-22T13:43:03.783Z</time></trkpt><trkpt lat="37.7512533" lon="14.82465"><ele>720.0</ele><time>2026-03-22T13:43:04.783Z</time></trkpt><trkpt lat="37.751055" lon="14.82473"><ele>720.0</ele><time>2026-03-22T13:43:05.784Z</time></trkpt><trkpt lat="37.7508783" lon="14.8248367"><ele>720.0</ele><time>2026-03-22T13:43:06.784Z</time></trkpt><trkpt lat="37.7507283" lon="14.8249567"><ele>723.0</ele><time>2026-03-22T13:43:07.783Z</time></trkpt><trkpt lat="37.750585" lon="14.82509"><ele>726.0</ele><time>2026-03-22T13:43:08.783Z</time></trkpt><trkpt lat="37.750455" lon="14.825235"><ele>729.0</ele><time>2026-03-22T13:43:09.783Z</time></trkpt><trkpt lat="37.750345" lon="14.825395"><ele>730.0</ele><time>2026-03-22T13:43:10.783Z</time></trkpt><trkpt lat="37.7502467" lon="14.8255417"><ele>731.0</ele><time>2026-03-22T13:43:11.784Z</time></trkpt><trkpt lat="37.7501383" lon="14.8256733"><ele>732.0</ele><time>2026-03-22T13:43:12.783Z</time></trkpt><trkpt lat="37.750015" lon="14.825785"><ele>733.0</ele><time>2026-03-22T13:43:13.783Z</time></trkpt><trkpt lat="37.7498783" lon="14.82589"><ele>734.0</ele><time>2026-03-22T13:43:14.783Z</time></trkpt><trkpt lat="37.7497367" lon="14.8259933"><ele>735.0</ele><time>2026-03-22T13:43:15.783Z</time></trkpt><trkpt lat="37.7495933" lon="14.826095"><ele>735.6666666666666</ele><time>2026-03-22T13:43:16.784Z</time></trkpt><trkpt lat="37.7494467" lon="14.8261967"><ele>736.3333333333333</ele><time>2026-03-22T13:43:17.784Z</time></trkpt><trkpt lat="37.7492983" lon="14.8262967"><ele>737.0</ele><time>2026-03-22T13:43:18.784Z</time></trkpt><trkpt lat="37.7491483" lon="14.826405"><ele>738.6666666666666</ele><time>2026-03-22T13:43:19.784Z</time></trkpt><trkpt lat="37.7489983" lon="14.8265167"><ele>740.3333333333334</ele><time>2026-03-22T13:43:20.784Z</time></trkpt><trkpt lat="37.7488433" lon="14.82664"><ele>742.0</ele><time>2026-03-22T13:43:21.784Z</time></trkpt><trkpt lat="37.7486883" lon="14.826765"><ele>743.6666666666667</ele><time>2026-03-22T13:43:22.784Z</time></trkpt><trkpt lat="37.74853" lon="14.8268833"><ele>745.3333333333334</ele><time>2026-03-22T13:43:23.784Z</time></trkpt><trkpt lat="37.7483717" lon="14.827005"><ele>747.0</ele><time>2026-03-22T13:43:24.783Z</time></trkpt><trkpt lat="37.7482133" lon="14.8271317"><ele>747.0</ele><time>2026-03-22T13:43:25.784Z</time></trkpt><trkpt lat="37.7480533" lon="14.8272583"><ele>747.0</ele><time>2026-03-22T13:43:26.784Z</time></trkpt><trkpt lat="37.747895" lon="14.827385"><ele>747.0</ele><time>2026-03-22T13:43:27.784Z</time></trkpt><trkpt lat="37.7477417" lon="14.8275183"><ele>748.0</ele><time>2026-03-22T13:43:28.784Z</time></trkpt><trkpt lat="37.7476" lon="14.827655"><ele>749.0</ele><time>2026-03-22T13:43:29.784Z</time></trkpt><trkpt lat="37.74746" lon="14.8277917"><ele>750.0</ele><time>2026-03-22T13:43:30.784Z</time></trkpt><trkpt lat="37.74732" lon="14.82794"><ele>750.0</ele><time>2026-03-22T13:43:31.784Z</time></trkpt><trkpt lat="37.7471783" lon="14.828095"><ele>750.0</ele><time>2026-03-22T13:43:32.784Z</time></trkpt><trkpt lat="37.7470367" lon="14.8282483"><ele>750.0</ele><time>2026-03-22T13:43:33.784Z</time></trkpt><trkpt lat="37.7468917" lon="14.8284033"><ele>750.3333333333334</ele><time>2026-03-22T13:43:34.783Z</time></trkpt><trkpt lat="37.7467433" lon="14.8285567"><ele>750.6666666666667</ele><time>2026-03-22T13:43:35.783Z</time></trkpt><trkpt lat="37.746585" lon="14.8287033"><ele>751.0</ele><time>2026-03-22T13:43:36.783Z</time></trkpt><trkpt lat="37.7464233" lon="14.8288483"><ele>751.0</ele><time>2026-03-22T13:43:37.784Z</time></trkpt><trkpt lat="37.7462533" lon="14.8289867"><ele>751.0</ele><time>2026-03-22T13:43:38.784Z</time></trkpt><trkpt lat="37.7460817" lon="14.8291283"><ele>751.0</ele><time>2026-03-22T13:43:39.783Z</time></trkpt><trkpt lat="37.745905" lon="14.82927"><ele>751.6666666666667</ele><time>2026-03-22T13:43:40.783Z</time></trkpt><trkpt lat="37.7457267" lon="14.8294167"><ele>752.3333333333334</ele><time>2026-03-22T13:43:41.783Z</time></trkpt><trkpt lat="37.7455517" lon="14.829565"><ele>753.0</ele><time>2026-03-22T13:43:42.784Z</time></trkpt><trkpt lat="37.7453833" lon="14.8297117"><ele>753.0</ele><time>2026-03-22T13:43:43.783Z</time></trkpt><trkpt lat="37.74522" lon="14.8298517"><ele>753.0</ele><time>2026-03-22T13:43:44.783Z</time></trkpt><trkpt lat="37.7450583" lon="14.8299883"><ele>753.0</ele><time>2026-03-22T13:43:45.783Z</time></trkpt><trkpt lat="37.744895" lon="14.8301083"><ele>753.6666666666666</ele><time>2026-03-22T13:43:46.784Z</time></trkpt><trkpt lat="37.7447283" lon="14.8302217"><ele>754.3333333333333</ele><time>2026-03-22T13:43:47.783Z</time></trkpt><trkpt lat="37.7445567" lon="14.8303183"><ele>755.0</ele><time>2026-03-22T13:43:48.783Z</time></trkpt><trkpt lat="37.7443783" lon="14.8304067"><ele>753.6666666666666</ele><time>2026-03-22T13:43:49.784Z</time></trkpt><trkpt lat="37.7441917" lon="14.830485"><ele>752.3333333333334</ele><time>2026-03-22T13:43:50.784Z</time></trkpt><trkpt lat="37.7440033" lon="14.8305517"><ele>751.0</ele><time>2026-03-22T13:43:51.783Z</time></trkpt><trkpt lat="37.743815" lon="14.8306067"><ele>751.0</ele><time>2026-03-22T13:43:52.783Z</time></trkpt><trkpt lat="37.7436317" lon="14.83065"><ele>751.0</ele><time>2026-03-22T13:43:53.783Z</time></trkpt><trkpt lat="37.7434567" lon="14.830685"><ele>751.0</ele><time>2026-03-22T13:43:54.783Z</time></trkpt><trkpt lat="37.74328" lon="14.8307167"><ele>750.6666666666667</ele><time>2026-03-22T13:43:55.783Z</time></trkpt><trkpt lat="37.7431117" lon="14.830725"><ele>750.3333333333334</ele><time>2026-03-22T13:43:56.783Z</time></trkpt><trkpt lat="37.7429517" lon="14.8307183"><ele>750.0</ele><time>2026-03-22T13:43:57.784Z</time></trkpt><trkpt lat="37.74279" lon="14.8306867"><ele>748.3333333333334</ele><time>2026-03-22T13:43:58.783Z</time></trkpt><trkpt lat="37.742635" lon="14.830625"><ele>746.6666666666667</ele><time>2026-03-22T13:43:59.784Z</time></trkpt><trkpt lat="37.74248" lon="14.830545"><ele>745.0</ele><time>2026-03-22T13:44:00.784Z</time></trkpt><trkpt lat="37.7423433" lon="14.83044"><ele>745.0</ele><time>2026-03-22T13:44:01.783Z</time></trkpt><trkpt lat="37.7422083" lon="14.8303167"><ele>745.0</ele><time>2026-03-22T13:44:02.784Z</time></trkpt><trkpt lat="37.7420783" lon="14.8301683"><ele>745.0</ele><time>2026-03-22T13:44:03.783Z</time></trkpt><trkpt lat="37.74196" lon="14.8299917"><ele>742.6666666666667</ele><time>2026-03-22T13:44:04.784Z</time></trkpt><trkpt lat="37.7418533" lon="14.8298067"><ele>740.3333333333334</ele><time>2026-03-22T13:44:05.783Z</time></trkpt><trkpt lat="37.74174" lon="14.8296283"><ele>738.0</ele><time>2026-03-22T13:44:06.783Z</time></trkpt><trkpt lat="37.7416083" lon="14.8294767"><ele>738.0</ele><time>2026-03-22T13:44:07.784Z</time></trkpt><trkpt lat="37.741455" lon="14.82934"><ele>738.0</ele><time>2026-03-22T13:44:08.784Z</time></trkpt><trkpt lat="37.74128" lon="14.8292283"><ele>738.0</ele><time>2026-03-22T13:44:09.784Z</time></trkpt><trkpt lat="37.7410867" lon="14.8291367"><ele>734.0</ele><time>2026-03-22T13:44:10.783Z</time></trkpt><trkpt lat="37.7408917" lon="14.82905"><ele>730.0</ele><time>2026-03-22T13:44:11.784Z</time></trkpt><trkpt lat="37.7406917" lon="14.8289667"><ele>726.0</ele><time>2026-03-22T13:44:12.784Z</time></trkpt><trkpt lat="37.7405017" lon="14.828885"><ele>726.0</ele><time>2026-03-22T13:44:13.784Z</time></trkpt><trkpt lat="37.7403217" lon="14.8288083"><ele>726.0</ele><time>2026-03-22T13:44:14.783Z</time></trkpt><trkpt lat="37.7401483" lon="14.82874"><ele>726.0</ele><time>2026-03-22T13:44:15.784Z</time></trkpt><trkpt lat="37.7399733" lon="14.8287"><ele>725.6666666666666</ele><time>2026-03-22T13:44:16.784Z</time></trkpt><trkpt lat="37.7397983" lon="14.8286933"><ele>725.3333333333333</ele><time>2026-03-22T13:44:17.783Z</time></trkpt><trkpt lat="37.73962" lon="14.8287383"><ele>725.0</ele><time>2026-03-22T13:44:18.783Z</time></trkpt><trkpt lat="37.7394417" lon="14.8288283"><ele>723.0</ele><time>2026-03-22T13:44:19.783Z</time></trkpt><trkpt lat="37.7392683" lon="14.828935"><ele>721.0</ele><time>2026-03-22T13:44:20.784Z</time></trkpt><trkpt lat="37.739095" lon="14.8290367"><ele>719.0</ele><time>2026-03-22T13:44:21.783Z</time></trkpt><trkpt lat="37.73891" lon="14.8291167"><ele>719.0</ele><time>2026-03-22T13:44:22.784Z</time></trkpt><trkpt lat="37.7387133" lon="14.8291733"><ele>719.0</ele><time>2026-03-22T13:44:23.784Z</time></trkpt><trkpt lat="37.7385083" lon="14.8292183"><ele>719.0</ele><time>2026-03-22T13:44:24.784Z</time></trkpt><trkpt lat="37.7382967" lon="14.829265"><ele>718.6666666666666</ele><time>2026-03-22T13:44:25.783Z</time></trkpt><trkpt lat="37.7380817" lon="14.8293133"><ele>718.3333333333334</ele><time>2026-03-22T13:44:26.783Z</time></trkpt><trkpt lat="37.7378617" lon="14.8293667"><ele>718.0</ele><time>2026-03-22T13:44:27.783Z</time></trkpt><trkpt lat="37.7376367" lon="14.8294233"><ele>714.0</ele><time>2026-03-22T13:44:28.784Z</time></trkpt><trkpt lat="37.7374083" lon="14.82948"><ele>710.0</ele><time>2026-03-22T13:44:29.784Z</time></trkpt><trkpt lat="37.7371767" lon="14.8295417"><ele>710.0</ele><time>2026-03-22T13:44:30.783Z</time></trkpt><trkpt lat="37.7369417" lon="14.829605"><ele>710.0</ele><time>2026-03-22T13:44:31.784Z</time></trkpt><trkpt lat="37.7367067" lon="14.8296783"><ele>706.5</ele><time>2026-03-22T13:44:32.783Z</time></trkpt><trkpt lat="37.7364817" lon="14.829765"><ele>703.0</ele><time>2026-03-22T13:44:33.784Z</time></trkpt><trkpt lat="37.736265" lon="14.8298617"><ele>701.3333333333334</ele><time>2026-03-22T13:44:34.784Z</time></trkpt><trkpt lat="37.7360517" lon="14.8299583"><ele>699.6666666666666</ele><time>2026-03-22T13:44:35.783Z</time></trkpt><trkpt lat="37.735845" lon="14.8300467"><ele>698.0</ele><time>2026-03-22T13:44:36.784Z</time></trkpt><trkpt lat="37.7356367" lon="14.830115"><ele>700.0</ele><time>2026-03-22T13:44:37.783Z</time></trkpt><trkpt lat="37.7354317" lon="14.8301517"><ele>702.0</ele><time>2026-03-22T13:44:38.783Z</time></trkpt><trkpt lat="37.735225" lon="14.8301583"><ele>704.0</ele><time>2026-03-22T13:44:39.783Z</time></trkpt><trkpt lat="37.7350167" lon="14.8301467"><ele>701.0</ele><time>2026-03-22T13:44:40.783Z</time></trkpt><trkpt lat="37.7348183" lon="14.83013"><ele>698.0</ele><time>2026-03-22T13:44:41.783Z</time></trkpt><trkpt lat="37.7346283" lon="14.83012"><ele>695.0</ele><time>2026-03-22T13:44:42.784Z</time></trkpt><trkpt lat="37.734445" lon="14.8301233"><ele>697.3333333333333</ele><time>2026-03-22T13:44:43.783Z</time></trkpt><trkpt lat="37.7342717" lon="14.830155"><ele>699.6666666666666</ele><time>2026-03-22T13:44:44.784Z</time></trkpt><trkpt lat="37.734105" lon="14.830235"><ele>702.0</ele><time>2026-03-22T13:44:45.783Z</time></trkpt><trkpt lat="37.7339467" lon="14.8303467"><ele>702.0</ele><time>2026-03-22T13:44:46.783Z</time></trkpt><trkpt lat="37.7337933" lon="14.8304717"><ele>702.0</ele><time>2026-03-22T13:44:47.783Z</time></trkpt><trkpt lat="37.7336417" lon="14.8305917"><ele>702.0</ele><time>2026-03-22T13:44:48.784Z</time></trkpt><trkpt lat="37.7334817" lon="14.8306983"><ele>701.0</ele><time>2026-03-22T13:44:49.784Z</time></trkpt><trkpt lat="37.733315" lon="14.8307867"><ele>700.0</ele><time>2026-03-22T13:44:50.784Z</time></trkpt><trkpt lat="37.7331383" lon="14.83085"><ele>699.0</ele><time>2026-03-22T13:44:51.783Z</time></trkpt><trkpt lat="37.73296" lon="14.8309"><ele>699.0</ele><time>2026-03-22T13:44:52.784Z</time></trkpt><trkpt lat="37.7327767" lon="14.8309317"><ele>699.0</ele><time>2026-03-22T13:44:53.783Z</time></trkpt><trkpt lat="37.7326" lon="14.8309383"><ele>699.0</ele><time>2026-03-22T13:44:54.784Z</time></trkpt><trkpt lat="37.7324233" lon="14.8309183"><ele>698.3333333333334</ele><time>2026-03-22T13:44:55.783Z</time></trkpt><trkpt lat="37.7322567" lon="14.8308667"><ele>697.6666666666667</ele><time>2026-03-22T13:44:56.784Z</time></trkpt><trkpt lat="37.7321083" lon="14.8307867"><ele>697.0</ele><time>2026-03-22T13:44:57.784Z</time></trkpt><trkpt lat="37.7319633" lon="14.830715"><ele>698.0</ele><time>2026-03-22T13:44:58.784Z</time></trkpt><trkpt lat="37.7318167" lon="14.8306767"><ele>699.0</ele><time>2026-03-22T13:44:59.784Z</time></trkpt><trkpt lat="37.7316617" lon="14.8306783"><ele>700.0</ele><time>2026-03-22T13:45:00.783Z</time></trkpt><trkpt lat="37.7315017" lon="14.83072"><ele>700.0</ele><time>2026-03-22T13:45:01.784Z</time></trkpt><trkpt lat="37.7313433" lon="14.8307883"><ele>700.0</ele><time>2026-03-22T13:45:02.784Z</time></trkpt><trkpt lat="37.7311867" lon="14.8308683"><ele>700.0</ele><time>2026-03-22T13:45:03.783Z</time></trkpt><trkpt lat="37.7310217" lon="14.8309533"><ele>702.6666666666667</ele><time>2026-03-22T13:45:04.784Z</time></trkpt><trkpt lat="37.7308533" lon="14.8310367"><ele>705.3333333333334</ele><time>2026-03-22T13:45:05.784Z</time></trkpt><trkpt lat="37.7306867" lon="14.8311183"><ele>708.0</ele><time>2026-03-22T13:45:06.784Z</time></trkpt><trkpt lat="37.730515" lon="14.8312017"><ele>708.0</ele><time>2026-03-22T13:45:07.784Z</time></trkpt><trkpt lat="37.7303433" lon="14.8312867"><ele>708.0</ele><time>2026-03-22T13:45:08.784Z</time></trkpt><trkpt lat="37.7301683" lon="14.8313783"><ele>708.0</ele><time>2026-03-22T13:45:09.784Z</time></trkpt><trkpt lat="37.7299933" lon="14.8314667"><ele>705.0</ele><time>2026-03-22T13:45:10.783Z</time></trkpt><trkpt lat="37.7298133" lon="14.8315533"><ele>702.0</ele><time>2026-03-22T13:45:11.783Z</time></trkpt><trkpt lat="37.7296317" lon="14.8316433"><ele>699.0</ele><time>2026-03-22T13:45:12.783Z</time></trkpt><trkpt lat="37.7294467" lon="14.8317367"><ele>701.6666666666666</ele><time>2026-03-22T13:45:13.783Z</time></trkpt><trkpt lat="37.7292617" lon="14.8318267"><ele>704.3333333333333</ele><time>2026-03-22T13:45:14.783Z</time></trkpt><trkpt lat="37.7290783" lon="14.831915"><ele>707.0</ele><time>2026-03-22T13:45:15.784Z</time></trkpt><trkpt lat="37.7288983" lon="14.832005"><ele>707.0</ele><time>2026-03-22T13:45:16.784Z</time></trkpt><trkpt lat="37.7287317" lon="14.8321117"><ele>707.0</ele><time>2026-03-22T13:45:17.783Z</time></trkpt><trkpt lat="37.7285667" lon="14.8322417"><ele>707.0</ele><time>2026-03-22T13:45:18.784Z</time></trkpt><trkpt lat="37.72841" lon="14.832385"><ele>706.3333333333333</ele><time>2026-03-22T13:45:19.783Z</time></trkpt><trkpt lat="37.7282617" lon="14.8325383"><ele>705.6666666666666</ele><time>2026-03-22T13:45:20.784Z</time></trkpt><trkpt lat="37.7281183" lon="14.832705"><ele>705.0</ele><time>2026-03-22T13:45:21.784Z</time></trkpt><trkpt lat="37.7279767" lon="14.8328767"><ele>705.3333333333334</ele><time>2026-03-22T13:45:22.784Z</time></trkpt><trkpt lat="37.7278367" lon="14.833045"><ele>705.6666666666667</ele><time>2026-03-22T13:45:23.784Z</time></trkpt><trkpt lat="37.72769" lon="14.8332117"><ele>706.0</ele><time>2026-03-22T13:45:24.784Z</time></trkpt><trkpt lat="37.72754" lon="14.8333683"><ele>709.0</ele><time>2026-03-22T13:45:25.784Z</time></trkpt><trkpt lat="37.7273817" lon="14.8335167"><ele>712.0</ele><time>2026-03-22T13:45:26.783Z</time></trkpt><trkpt lat="37.7272183" lon="14.8336533"><ele>715.0</ele><time>2026-03-22T13:45:27.784Z</time></trkpt><trkpt lat="37.7270467" lon="14.8337717"><ele>715.0</ele><time>2026-03-22T13:45:28.784Z</time></trkpt><trkpt lat="37.72687" lon="14.8338783"><ele>715.0</ele><time>2026-03-22T13:45:29.783Z</time></trkpt><trkpt lat="37.7266917" lon="14.833985"><ele>715.0</ele><time>2026-03-22T13:45:30.783Z</time></trkpt><trkpt lat="37.7265167" lon="14.8340933"><ele>715.0</ele><time>2026-03-22T13:45:31.783Z</time></trkpt><trkpt lat="37.7263433" lon="14.8342083"><ele>715.0</ele><time>2026-03-22T13:45:32.783Z</time></trkpt><trkpt lat="37.7261667" lon="14.8343233"><ele>715.0</ele><time>2026-03-22T13:45:33.784Z</time></trkpt><trkpt lat="37.7259883" lon="14.834435"><ele>717.3333333333334</ele><time>2026-03-22T13:45:34.783Z</time></trkpt><trkpt lat="37.725815" lon="14.83454"><ele>719.6666666666666</ele><time>2026-03-22T13:45:35.784Z</time></trkpt><trkpt lat="37.7256533" lon="14.8346383"><ele>722.0</ele><time>2026-03-22T13:45:36.784Z</time></trkpt><trkpt lat="37.7254967" lon="14.83473"><ele>722.0</ele><time>2026-03-22T13:45:37.783Z</time></trkpt><trkpt lat="37.7253333" lon="14.83481"><ele>722.0</ele><time>2026-03-22T13:45:38.783Z</time></trkpt><trkpt lat="37.72516" lon="14.8348667"><ele>722.0</ele><time>2026-03-22T13:45:39.783Z</time></trkpt><trkpt lat="37.724975" lon="14.8348983"><ele>720.6666666666666</ele><time>2026-03-22T13:45:40.784Z</time></trkpt><trkpt lat="37.724785" lon="14.8349017"><ele>719.3333333333334</ele><time>2026-03-22T13:45:41.783Z</time></trkpt><trkpt lat="37.7245917" lon="14.83488"><ele>718.0</ele><time>2026-03-22T13:45:42.783Z</time></trkpt><trkpt lat="37.7243983" lon="14.8348533"><ele>717.3333333333334</ele><time>2026-03-22T13:45:43.784Z</time></trkpt><trkpt lat="37.7242" lon="14.8348217"><ele>716.6666666666666</ele><time>2026-03-22T13:45:44.783Z</time></trkpt><trkpt lat="37.7240067" lon="14.8347817"><ele>716.0</ele><time>2026-03-22T13:45:45.783Z</time></trkpt><trkpt lat="37.72382" lon="14.83474"><ele>716.0</ele><time>2026-03-22T13:45:46.784Z</time></trkpt><trkpt lat="37.7236333" lon="14.8347117"><ele>716.0</ele><time>2026-03-22T13:45:47.783Z</time></trkpt><trkpt lat="37.7234483" lon="14.8347017"><ele>716.0</ele><time>2026-03-22T13:45:48.784Z</time></trkpt><trkpt lat="37.72327" lon="14.8347183"><ele>715.0</ele><time>2026-03-22T13:45:49.783Z</time></trkpt><trkpt lat="37.7230917" lon="14.8347683"><ele>714.0</ele><time>2026-03-22T13:45:50.783Z</time></trkpt><trkpt lat="37.7229183" lon="14.8348483"><ele>713.0</ele><time>2026-03-22T13:45:51.784Z</time></trkpt><trkpt lat="37.722735" lon="14.8349517"><ele>713.3333333333333</ele><time>2026-03-22T13:45:52.783Z</time></trkpt><trkpt lat="37.72255" lon="14.8350617"><ele>713.6666666666666</ele><time>2026-03-22T13:45:53.784Z</time></trkpt><trkpt lat="37.72236" lon="14.83517"><ele>714.0</ele><time>2026-03-22T13:45:54.784Z</time></trkpt><trkpt lat="37.7221667" lon="14.8352683"><ele>714.0</ele><time>2026-03-22T13:45:55.783Z</time></trkpt><trkpt lat="37.7219683" lon="14.8353583"><ele>714.0</ele><time>2026-03-22T13:45:56.783Z</time></trkpt><trkpt lat="37.7217733" lon="14.8354467"><ele>714.0</ele><time>2026-03-22T13:45:57.783Z</time></trkpt><trkpt lat="37.7215783" lon="14.8355383"><ele>710.6666666666666</ele><time>2026-03-22T13:45:58.784Z</time></trkpt><trkpt lat="37.7213917" lon="14.8356267"><ele>707.3333333333333</ele><time>2026-03-22T13:45:59.783Z</time></trkpt><trkpt lat="37.7212083" lon="14.83571"><ele>704.0</ele><time>2026-03-22T13:46:00.783Z</time></trkpt><trkpt lat="37.7210383" lon="14.8357833"><ele>698.3333333333333</ele><time>2026-03-22T13:46:01.784Z</time></trkpt><trkpt lat="37.7208733" lon="14.8358267"><ele>692.6666666666666</ele><time>2026-03-22T13:46:02.784Z</time></trkpt><trkpt lat="37.7207083" lon="14.8358383"><ele>687.0</ele><time>2026-03-22T13:46:03.783Z</time></trkpt><trkpt lat="37.7205417" lon="14.8358233"><ele>687.0</ele><time>2026-03-22T13:46:04.783Z</time></trkpt><trkpt lat="37.7203767" lon="14.8357767"><ele>687.0</ele><time>2026-03-22T13:46:05.783Z</time></trkpt><trkpt lat="37.7202217" lon="14.8357"><ele>687.0</ele><time>2026-03-22T13:46:06.783Z</time></trkpt><trkpt lat="37.7200917" lon="14.8356067"><ele>686.75</ele><time>2026-03-22T13:46:07.784Z</time></trkpt><trkpt lat="37.7199833" lon="14.835515"><ele>686.5</ele><time>2026-03-22T13:46:08.784Z</time></trkpt><trkpt lat="37.719895" lon="14.835395"><ele>686.25</ele><time>2026-03-22T13:46:09.783Z</time></trkpt><trkpt lat="37.7198217" lon="14.8352517"><ele>686.0</ele><time>2026-03-22T13:46:10.784Z</time></trkpt><trkpt lat="37.7197733" lon="14.8350817"><ele>684.0</ele><time>2026-03-22T13:46:11.784Z</time></trkpt><trkpt lat="37.7197483" lon="14.834895"><ele>682.0</ele><time>2026-03-22T13:46:12.784Z</time></trkpt><trkpt lat="37.71974" lon="14.8347017"><ele>680.0</ele><time>2026-03-22T13:46:13.783Z</time></trkpt><trkpt lat="37.7197267" lon="14.83452"><ele>678.0</ele><time>2026-03-22T13:46:14.783Z</time></trkpt><trkpt lat="37.7196917" lon="14.8343483"><ele>675.0</ele><time>2026-03-22T13:46:15.783Z</time></trkpt><trkpt lat="37.7196333" lon="14.8341817"><ele>672.0</ele><time>2026-03-22T13:46:16.784Z</time></trkpt><trkpt lat="37.719545" lon="14.8340183"><ele>669.0</ele><time>2026-03-22T13:46:17.784Z</time></trkpt><trkpt lat="37.7194283" lon="14.8338717"><ele>668.3333333333334</ele><time>2026-03-22T13:46:18.783Z</time></trkpt><trkpt lat="37.719295" lon="14.8337433"><ele>667.6666666666667</ele><time>2026-03-22T13:46:19.783Z</time></trkpt><trkpt lat="37.7191433" lon="14.8336383"><ele>667.0</ele><time>2026-03-22T13:46:20.784Z</time></trkpt><trkpt lat="37.71898" lon="14.8335517"><ele>667.0</ele><time>2026-03-22T13:46:21.784Z</time></trkpt><trkpt lat="37.71881" lon="14.8335"><ele>667.0</ele><time>2026-03-22T13:46:22.783Z</time></trkpt><trkpt lat="37.718635" lon="14.8334833"><ele>667.0</ele><time>2026-03-22T13:46:23.784Z</time></trkpt><trkpt lat="37.7184517" lon="14.8335117"><ele>664.0</ele><time>2026-03-22T13:46:24.784Z</time></trkpt><trkpt lat="37.718275" lon="14.8335767"><ele>661.0</ele><time>2026-03-22T13:46:25.783Z</time></trkpt><trkpt lat="37.7181067" lon="14.8336817"><ele>658.0</ele><time>2026-03-22T13:46:26.784Z</time></trkpt><trkpt lat="37.7179483" lon="14.8338133"><ele>658.0</ele><time>2026-03-22T13:46:27.784Z</time></trkpt><trkpt lat="37.7177883" lon="14.833965"><ele>658.0</ele><time>2026-03-22T13:46:28.784Z</time></trkpt><trkpt lat="37.7176283" lon="14.8341217"><ele>658.0</ele><time>2026-03-22T13:46:29.784Z</time></trkpt><trkpt lat="37.7174617" lon="14.8342833"><ele>658.6666666666667</ele><time>2026-03-22T13:46:30.784Z</time></trkpt><trkpt lat="37.7172867" lon="14.83445"><ele>659.3333333333334</ele><time>2026-03-22T13:46:31.783Z</time></trkpt><trkpt lat="37.7171133" lon="14.8346183"><ele>660.0</ele><time>2026-03-22T13:46:32.784Z</time></trkpt><trkpt lat="37.7169367" lon="14.834785"><ele>660.6666666666666</ele><time>2026-03-22T13:46:33.783Z</time></trkpt><trkpt lat="37.7167617" lon="14.8349533"><ele>661.3333333333333</ele><time>2026-03-22T13:46:34.783Z</time></trkpt><trkpt lat="37.7165833" lon="14.8351167"><ele>662.0</ele><time>2026-03-22T13:46:35.783Z</time></trkpt><trkpt lat="37.7164017" lon="14.83528"><ele>662.0</ele><time>2026-03-22T13:46:36.783Z</time></trkpt><trkpt lat="37.7162233" lon="14.8354433"><ele>662.0</ele><time>2026-03-22T13:46:37.783Z</time></trkpt><trkpt lat="37.716055" lon="14.8356017"><ele>662.0</ele><time>2026-03-22T13:46:38.784Z</time></trkpt><trkpt lat="37.71589" lon="14.8357617"><ele>663.3333333333333</ele><time>2026-03-22T13:46:39.783Z</time></trkpt><trkpt lat="37.7157317" lon="14.83592"><ele>664.6666666666666</ele><time>2026-03-22T13:46:40.784Z</time></trkpt><trkpt lat="37.7155733" lon="14.83607"><ele>666.0</ele><time>2026-03-22T13:46:41.784Z</time></trkpt><trkpt lat="37.7154133" lon="14.8362183"><ele>666.0</ele><time>2026-03-22T13:46:42.784Z</time></trkpt><trkpt lat="37.7152667" lon="14.8363583"><ele>666.0</ele><time>2026-03-22T13:46:43.784Z</time></trkpt><trkpt lat="37.71512" lon="14.8364983"><ele>666.0</ele><time>2026-03-22T13:46:44.783Z</time></trkpt><trkpt lat="37.71497" lon="14.836635"><ele>664.6666666666666</ele><time>2026-03-22T13:46:45.784Z</time></trkpt><trkpt lat="37.7148283" lon="14.8367617"><ele>663.3333333333333</ele><time>2026-03-22T13:46:46.783Z</time></trkpt><trkpt lat="37.71468" lon="14.83688"><ele>662.0</ele><time>2026-03-22T13:46:47.784Z</time></trkpt><trkpt lat="37.71452" lon="14.8369833"><ele>659.6666666666666</ele><time>2026-03-22T13:46:48.783Z</time></trkpt><trkpt lat="37.7143483" lon="14.837075"><ele>657.3333333333334</ele><time>2026-03-22T13:46:49.784Z</time></trkpt><trkpt lat="37.714165" lon="14.8371533"><ele>655.0</ele><time>2026-03-22T13:46:50.784Z</time></trkpt><trkpt lat="37.713975" lon="14.8372267"><ele>655.0</ele><time>2026-03-22T13:46:51.783Z</time></trkpt><trkpt lat="37.7137817" lon="14.837305"><ele>655.0</ele><time>2026-03-22T13:46:52.784Z</time></trkpt><trkpt lat="37.7135917" lon="14.8373833"><ele>655.0</ele><time>2026-03-22T13:46:53.784Z</time></trkpt><trkpt lat="37.7133917" lon="14.8374667"><ele>656.0</ele><time>2026-03-22T13:46:54.784Z</time></trkpt><trkpt lat="37.7131967" lon="14.8375517"><ele>657.0</ele><time>2026-03-22T13:46:55.783Z</time></trkpt><trkpt lat="37.713" lon="14.8376333"><ele>658.0</ele><time>2026-03-22T13:46:56.784Z</time></trkpt><trkpt lat="37.7128033" lon="14.837705"><ele>655.3333333333334</ele><time>2026-03-22T13:46:57.784Z</time></trkpt><trkpt lat="37.7126067" lon="14.8377767"><ele>652.6666666666666</ele><time>2026-03-22T13:46:58.784Z</time></trkpt><trkpt lat="37.7124067" lon="14.837845"><ele>650.0</ele><time>2026-03-22T13:46:59.784Z</time></trkpt><trkpt lat="37.7122067" lon="14.8379033"><ele>650.0</ele><time>2026-03-22T13:47:00.783Z</time></trkpt><trkpt lat="37.7120033" lon="14.837955"><ele>650.0</ele><time>2026-03-22T13:47:01.784Z</time></trkpt><trkpt lat="37.7117983" lon="14.8380033"><ele>650.0</ele><time>2026-03-22T13:47:02.784Z</time></trkpt><trkpt lat="37.711595" lon="14.8380483"><ele>648.0</ele><time>2026-03-22T13:47:03.784Z</time></trkpt><trkpt lat="37.7113933" lon="14.8380933"><ele>646.0</ele><time>2026-03-22T13:47:04.783Z</time></trkpt><trkpt lat="37.7111967" lon="14.8381333"><ele>644.0</ele><time>2026-03-22T13:47:05.783Z</time></trkpt><trkpt lat="37.711" lon="14.8381617"><ele>644.0</ele><time>2026-03-22T13:47:06.783Z</time></trkpt><trkpt lat="37.710805" lon="14.8381733"><ele>644.0</ele><time>2026-03-22T13:47:07.784Z</time></trkpt><trkpt lat="37.7106067" lon="14.83817"><ele>644.0</ele><time>2026-03-22T13:47:08.783Z</time></trkpt><trkpt lat="37.71041" lon="14.8381683"><ele>644.6666666666666</ele><time>2026-03-22T13:47:09.784Z</time></trkpt><trkpt lat="37.7102217" lon="14.83817"><ele>645.3333333333334</ele><time>2026-03-22T13:47:10.784Z</time></trkpt><trkpt lat="37.7100417" lon="14.8381733"><ele>646.0</ele><time>2026-03-22T13:47:11.783Z</time></trkpt><trkpt lat="37.70987" lon="14.8381933"><ele>646.0</ele><time>2026-03-22T13:47:12.784Z</time></trkpt><trkpt lat="37.709705" lon="14.8382317"><ele>646.0</ele><time>2026-03-22T13:47:13.783Z</time></trkpt><trkpt lat="37.7095467" lon="14.8382917"><ele>646.0</ele><time>2026-03-22T13:47:14.783Z</time></trkpt><trkpt lat="37.709395" lon="14.838375"><ele>646.0</ele><time>2026-03-22T13:47:15.783Z</time></trkpt><trkpt lat="37.70926" lon="14.8384583"><ele>646.0</ele><time>2026-03-22T13:47:16.784Z</time></trkpt><trkpt lat="37.7091283" lon="14.8385467"><ele>646.0</ele><time>2026-03-22T13:47:17.783Z</time></trkpt><trkpt lat="37.7090083" lon="14.8386233"><ele>646.0</ele><time>2026-03-22T13:47:18.784Z</time></trkpt><trkpt lat="37.7089" lon="14.8387083"><ele>646.1999999999999</ele><time>2026-03-22T13:47:19.784Z</time></trkpt><trkpt lat="37.7088" lon="14.8387833"><ele>646.4</ele><time>2026-03-22T13:47:20.784Z</time></trkpt><trkpt lat="37.70871" lon="14.8388567"><ele>646.6</ele><time>2026-03-22T13:47:21.783Z</time></trkpt><trkpt lat="37.7086317" lon="14.83893"><ele>646.8</ele><time>2026-03-22T13:47:22.784Z</time></trkpt><trkpt lat="37.70856" lon="14.838985"><ele>647.0</ele><time>2026-03-22T13:47:23.783Z</time></trkpt><trkpt lat="37.7084967" lon="14.839035"><ele>646.4000000000001</ele><time>2026-03-22T13:47:24.783Z</time></trkpt><trkpt lat="37.7084417" lon="14.83908"><ele>645.8000000000001</ele><time>2026-03-22T13:47:25.783Z</time></trkpt><trkpt lat="37.7083533" lon="14.8391517"><ele>645.2</ele><time>2026-03-22T13:47:27.784Z</time></trkpt><trkpt lat="37.70827" lon="14.8392117"><ele>644.6</ele><time>2026-03-22T13:47:29.783Z</time></trkpt><trkpt lat="37.708165" lon="14.83929"><ele>644.0</ele><time>2026-03-22T13:47:31.783Z</time></trkpt><trkpt lat="37.7081033" lon="14.8393433"><ele>643.5</ele><time>2026-03-22T13:47:32.783Z</time></trkpt><trkpt lat="37.7080417" lon="14.8393967"><ele>643.0</ele><time>2026-03-22T13:47:33.784Z</time></trkpt><trkpt lat="37.7079783" lon="14.83945"><ele>642.5</ele><time>2026-03-22T13:47:34.784Z</time></trkpt><trkpt lat="37.70791" lon="14.8395067"><ele>642.0</ele><time>2026-03-22T13:47:35.784Z</time></trkpt><trkpt lat="37.7078383" lon="14.8395633"><ele>641.5</ele><time>2026-03-22T13:47:36.783Z</time></trkpt><trkpt lat="37.70777" lon="14.83962"><ele>641.0</ele><time>2026-03-22T13:47:37.783Z</time></trkpt><trkpt lat="37.7076983" lon="14.839675"><ele>640.5</ele><time>2026-03-22T13:47:38.783Z</time></trkpt><trkpt lat="37.7076283" lon="14.8397317"><ele>640.0</ele><time>2026-03-22T13:47:39.783Z</time></trkpt><trkpt lat="37.707555" lon="14.8397867"><ele>639.5</ele><time>2026-03-22T13:47:40.784Z</time></trkpt><trkpt lat="37.7074833" lon="14.8398333"><ele>639.0</ele><time>2026-03-22T13:47:41.783Z</time></trkpt><trkpt lat="37.707405" lon="14.8398767"><ele>638.5</ele><time>2026-03-22T13:47:42.784Z</time></trkpt><trkpt lat="37.70732" lon="14.8399167"><ele>638.0</ele><time>2026-03-22T13:47:43.783Z</time></trkpt><trkpt lat="37.7072283" lon="14.83995"><ele>638.0</ele><time>2026-03-22T13:47:44.784Z</time></trkpt><trkpt lat="37.7071333" lon="14.8399683"><ele>638.0</ele><time>2026-03-22T13:47:45.783Z</time></trkpt><trkpt lat="37.7070217" lon="14.83998"><ele>638.0</ele><time>2026-03-22T13:47:46.783Z</time></trkpt><trkpt lat="37.7069067" lon="14.839985"><ele>638.0</ele><time>2026-03-22T13:47:47.784Z</time></trkpt><trkpt lat="37.7067833" lon="14.8399883"><ele>638.0</ele><time>2026-03-22T13:47:48.784Z</time></trkpt><trkpt lat="37.7066617" lon="14.83999"><ele>636.75</ele><time>2026-03-22T13:47:49.784Z</time></trkpt><trkpt lat="37.7065417" lon="14.83999"><ele>635.5</ele><time>2026-03-22T13:47:50.784Z</time></trkpt><trkpt lat="37.7064283" lon="14.839985"><ele>634.25</ele><time>2026-03-22T13:47:51.783Z</time></trkpt><trkpt lat="37.7063183" lon="14.8399833"><ele>633.0</ele><time>2026-03-22T13:47:52.784Z</time></trkpt><trkpt lat="37.7062117" lon="14.8399783"><ele>633.0</ele><time>2026-03-22T13:47:53.783Z</time></trkpt><trkpt lat="37.7061117" lon="14.8399717"><ele>633.0</ele><time>2026-03-22T13:47:54.783Z</time></trkpt><trkpt lat="37.70602" lon="14.839965"><ele>633.0</ele><time>2026-03-22T13:47:55.783Z</time></trkpt><trkpt lat="37.7059367" lon="14.8399633"><ele>633.0</ele><time>2026-03-22T13:47:56.784Z</time></trkpt><trkpt lat="37.7058583" lon="14.8399633"><ele>633.0</ele><time>2026-03-22T13:47:57.784Z</time></trkpt><trkpt lat="37.70577" lon="14.8399633"><ele>633.0</ele><time>2026-03-22T13:47:58.783Z</time></trkpt><trkpt lat="37.7056867" lon="14.8399633"><ele>632.6666666666666</ele><time>2026-03-22T13:47:59.784Z</time></trkpt><trkpt lat="37.7056183" lon="14.8399583"><ele>632.3333333333334</ele><time>2026-03-22T13:48:00.784Z</time></trkpt><trkpt lat="37.7055017" lon="14.8399267"><ele>632.0</ele><time>2026-03-22T13:48:02.783Z</time></trkpt><trkpt lat="37.705445" lon="14.83988"><ele>631.6666666666667</ele><time>2026-03-22T13:48:03.783Z</time></trkpt><trkpt lat="37.7053817" lon="14.8398083"><ele>631.3333333333334</ele><time>2026-03-22T13:48:04.783Z</time></trkpt><trkpt lat="37.7053183" lon="14.8397167"><ele>631.0</ele><time>2026-03-22T13:48:05.783Z</time></trkpt><trkpt lat="37.7052583" lon="14.8396217"><ele>630.8333333333334</ele><time>2026-03-22T13:48:06.784Z</time></trkpt><trkpt lat="37.7052033" lon="14.8395317"><ele>630.6666666666667</ele><time>2026-03-22T13:48:07.784Z</time></trkpt><trkpt lat="37.7051617" lon="14.8394533"><ele>630.5</ele><time>2026-03-22T13:48:08.784Z</time></trkpt><trkpt lat="37.70513" lon="14.8393683"><ele>630.3333333333334</ele><time>2026-03-22T13:48:09.783Z</time></trkpt><trkpt lat="37.7050967" lon="14.839265"><ele>630.1666666666666</ele><time>2026-03-22T13:48:10.783Z</time></trkpt><trkpt lat="37.7050617" lon="14.8391517"><ele>630.0</ele><time>2026-03-22T13:48:11.784Z</time></trkpt><trkpt lat="37.7050267" lon="14.83904"><ele>629.0</ele><time>2026-03-22T13:48:12.784Z</time></trkpt><trkpt lat="37.7049883" lon="14.8389333"><ele>628.0</ele><time>2026-03-22T13:48:13.783Z</time></trkpt><trkpt lat="37.7049483" lon="14.8388317"><ele>627.0</ele><time>2026-03-22T13:48:14.783Z</time></trkpt><trkpt lat="37.704905" lon="14.838735"><ele>626.0</ele><time>2026-03-22T13:48:15.783Z</time></trkpt><trkpt lat="37.7048567" lon="14.8386433"><ele>625.0</ele><time>2026-03-22T13:48:16.784Z</time></trkpt><trkpt lat="37.7048067" lon="14.838565"><ele>624.0</ele><time>2026-03-22T13:48:17.784Z</time></trkpt><trkpt lat="37.7047367" lon="14.8385017"><ele>624.0</ele><time>2026-03-22T13:48:18.783Z</time></trkpt><trkpt lat="37.7046433" lon="14.8384667"><ele>624.0</ele><time>2026-03-22T13:48:19.784Z</time></trkpt><trkpt lat="37.7045383" lon="14.83847"><ele>624.0</ele><time>2026-03-22T13:48:20.784Z</time></trkpt><trkpt lat="37.7044217" lon="14.838495"><ele>624.0</ele><time>2026-03-22T13:48:21.784Z</time></trkpt><trkpt lat="37.7042933" lon="14.8385333"><ele>623.0</ele><time>2026-03-22T13:48:22.783Z</time></trkpt><trkpt lat="37.7041617" lon="14.8385717"><ele>622.0</ele><time>2026-03-22T13:48:23.783Z</time></trkpt><trkpt lat="37.7040317" lon="14.83861"><ele>621.0</ele><time>2026-03-22T13:48:24.783Z</time></trkpt><trkpt lat="37.7039133" lon="14.838655"><ele>620.0</ele><time>2026-03-22T13:48:25.783Z</time></trkpt><trkpt lat="37.703805" lon="14.8387083"><ele>620.0</ele><time>2026-03-22T13:48:26.783Z</time></trkpt><trkpt lat="37.7037033" lon="14.8387767"><ele>620.0</ele><time>2026-03-22T13:48:27.784Z</time></trkpt><trkpt lat="37.7036083" lon="14.8388483"><ele>620.0</ele><time>2026-03-22T13:48:28.784Z</time></trkpt><trkpt lat="37.7035133" lon="14.8389217"><ele>620.0</ele><time>2026-03-22T13:48:29.784Z</time></trkpt><trkpt lat="37.703425" lon="14.8389867"><ele>620.0</ele><time>2026-03-22T13:48:30.784Z</time></trkpt><trkpt lat="37.70334" lon="14.8390517"><ele>618.6666666666666</ele><time>2026-03-22T13:48:31.783Z</time></trkpt><trkpt lat="37.7032583" lon="14.8391083"><ele>617.3333333333333</ele><time>2026-03-22T13:48:32.783Z</time></trkpt><trkpt lat="37.7031867" lon="14.83915"><ele>616.0</ele><time>2026-03-22T13:48:33.784Z</time></trkpt><trkpt lat="37.7031233" lon="14.839185"><ele>614.6666666666666</ele><time>2026-03-22T13:48:34.784Z</time></trkpt><trkpt lat="37.703055" lon="14.83919"><ele>613.3333333333334</ele><time>2026-03-22T13:48:35.784Z</time></trkpt><trkpt lat="37.7029883" lon="14.8391617"><ele>612.0</ele><time>2026-03-22T13:48:36.784Z</time></trkpt><trkpt lat="37.7029283" lon="14.8390917"><ele>612.0</ele><time>2026-03-22T13:48:37.784Z</time></trkpt><trkpt lat="37.702885" lon="14.83899"><ele>612.0</ele><time>2026-03-22T13:48:38.784Z</time></trkpt><trkpt lat="37.7028433" lon="14.8388667"><ele>612.0</ele><time>2026-03-22T13:48:39.784Z</time></trkpt><trkpt lat="37.7027933" lon="14.8387367"><ele>612.0</ele><time>2026-03-22T13:48:40.784Z</time></trkpt><trkpt lat="37.7027233" lon="14.8386267"><ele>612.0</ele><time>2026-03-22T13:48:41.784Z</time></trkpt><trkpt lat="37.7026283" lon="14.8385333"><ele>609.25</ele><time>2026-03-22T13:48:42.785Z</time></trkpt><trkpt lat="37.7025133" lon="14.8384533"><ele>606.5</ele><time>2026-03-22T13:48:43.785Z</time></trkpt><trkpt lat="37.7023817" lon="14.838385"><ele>603.75</ele><time>2026-03-22T13:48:44.784Z</time></trkpt><trkpt lat="37.702245" lon="14.838325"><ele>601.0</ele><time>2026-03-22T13:48:45.785Z</time></trkpt><trkpt lat="37.7020983" lon="14.8382717"><ele>601.0</ele><time>2026-03-22T13:48:46.784Z</time></trkpt><trkpt lat="37.7019467" lon="14.8382283"><ele>601.0</ele><time>2026-03-22T13:48:47.784Z</time></trkpt><trkpt lat="37.7017883" lon="14.8381917"><ele>601.0</ele><time>2026-03-22T13:48:48.784Z</time></trkpt><trkpt lat="37.7016267" lon="14.8381567"><ele>600.6666666666667</ele><time>2026-03-22T13:48:49.784Z</time></trkpt><trkpt lat="37.7014633" lon="14.8381133"><ele>600.3333333333334</ele><time>2026-03-22T13:48:50.784Z</time></trkpt><trkpt lat="37.7012917" lon="14.8380683"><ele>600.0</ele><time>2026-03-22T13:48:51.784Z</time></trkpt><trkpt lat="37.7011267" lon="14.838015"><ele>601.3333333333334</ele><time>2026-03-22T13:48:52.784Z</time></trkpt><trkpt lat="37.700965" lon="14.83797"><ele>602.6666666666667</ele><time>2026-03-22T13:48:53.784Z</time></trkpt><trkpt lat="37.7008017" lon="14.837925"><ele>604.0</ele><time>2026-03-22T13:48:54.784Z</time></trkpt><trkpt lat="37.7006483" lon="14.8378733"><ele>604.0</ele><time>2026-03-22T13:48:55.784Z</time></trkpt><trkpt lat="37.7004933" lon="14.83783"><ele>604.0</ele><time>2026-03-22T13:48:56.785Z</time></trkpt><trkpt lat="37.70034" lon="14.8377967"><ele>604.0</ele><time>2026-03-22T13:48:57.785Z</time></trkpt><trkpt lat="37.7001867" lon="14.83778"><ele>602.6666666666667</ele><time>2026-03-22T13:48:58.785Z</time></trkpt><trkpt lat="37.7000283" lon="14.8377883"><ele>601.3333333333334</ele><time>2026-03-22T13:48:59.785Z</time></trkpt><trkpt lat="37.699865" lon="14.83782"><ele>600.0</ele><time>2026-03-22T13:49:00.784Z</time></trkpt><trkpt lat="37.6997083" lon="14.8378533"><ele>600.0</ele><time>2026-03-22T13:49:01.785Z</time></trkpt><trkpt lat="37.6995533" lon="14.8378967"><ele>600.0</ele><time>2026-03-22T13:49:02.785Z</time></trkpt><trkpt lat="37.6994033" lon="14.837965"><ele>600.0</ele><time>2026-03-22T13:49:03.784Z</time></trkpt><trkpt lat="37.6992617" lon="14.8380533"><ele>599.0</ele><time>2026-03-22T13:49:04.784Z</time></trkpt><trkpt lat="37.69913" lon="14.8381617"><ele>598.0</ele><time>2026-03-22T13:49:05.784Z</time></trkpt><trkpt lat="37.6990083" lon="14.8382767"><ele>597.0</ele><time>2026-03-22T13:49:06.785Z</time></trkpt><trkpt lat="37.698895" lon="14.8383933"><ele>599.0</ele><time>2026-03-22T13:49:07.784Z</time></trkpt><trkpt lat="37.698785" lon="14.8385167"><ele>601.0</ele><time>2026-03-22T13:49:08.784Z</time></trkpt><trkpt lat="37.69868" lon="14.8386567"><ele>603.0</ele><time>2026-03-22T13:49:09.784Z</time></trkpt><trkpt lat="37.6985833" lon="14.8388033"><ele>603.25</ele><time>2026-03-22T13:49:10.785Z</time></trkpt><trkpt lat="37.69849" lon="14.838955"><ele>603.5</ele><time>2026-03-22T13:49:11.785Z</time></trkpt><trkpt lat="37.6983983" lon="14.8391"><ele>603.75</ele><time>2026-03-22T13:49:12.785Z</time></trkpt><trkpt lat="37.6983167" lon="14.8392333"><ele>604.0</ele><time>2026-03-22T13:49:13.784Z</time></trkpt><trkpt lat="37.69823" lon="14.839355"><ele>606.0</ele><time>2026-03-22T13:49:14.785Z</time></trkpt><trkpt lat="37.6981417" lon="14.8394567"><ele>608.0</ele><time>2026-03-22T13:49:15.784Z</time></trkpt><trkpt lat="37.69804" lon="14.83953"><ele>610.0</ele><time>2026-03-22T13:49:16.785Z</time></trkpt><trkpt lat="37.6979283" lon="14.8395717"><ele>612.0</ele><time>2026-03-22T13:49:17.785Z</time></trkpt><trkpt lat="37.6978133" lon="14.83957"><ele>611.75</ele><time>2026-03-22T13:49:18.785Z</time></trkpt><trkpt lat="37.6976933" lon="14.83955"><ele>611.5</ele><time>2026-03-22T13:49:19.785Z</time></trkpt><trkpt lat="37.697565" lon="14.8395217"><ele>611.25</ele><time>2026-03-22T13:49:20.784Z</time></trkpt><trkpt lat="37.6974333" lon="14.8394983"><ele>611.0</ele><time>2026-03-22T13:49:21.785Z</time></trkpt><trkpt lat="37.6972967" lon="14.8394767"><ele>611.0</ele><time>2026-03-22T13:49:22.784Z</time></trkpt><trkpt lat="37.69717" lon="14.8394633"><ele>611.0</ele><time>2026-03-22T13:49:23.784Z</time></trkpt><trkpt lat="37.6970483" lon="14.8394733"><ele>611.0</ele><time>2026-03-22T13:49:24.785Z</time></trkpt><trkpt lat="37.696925" lon="14.8395167"><ele>611.0</ele><time>2026-03-22T13:49:25.784Z</time></trkpt><trkpt lat="37.6968083" lon="14.839595"><ele>610.5</ele><time>2026-03-22T13:49:26.785Z</time></trkpt><trkpt lat="37.6967133" lon="14.8396967"><ele>610.0</ele><time>2026-03-22T13:49:27.785Z</time></trkpt><trkpt lat="37.69663" lon="14.839835"><ele>609.5</ele><time>2026-03-22T13:49:28.784Z</time></trkpt><trkpt lat="37.69655" lon="14.83999"><ele>609.0</ele><time>2026-03-22T13:49:29.785Z</time></trkpt><trkpt lat="37.6964683" lon="14.8401567"><ele>610.5</ele><time>2026-03-22T13:49:30.784Z</time></trkpt><trkpt lat="37.6963817" lon="14.8403183"><ele>612.0</ele><time>2026-03-22T13:49:31.784Z</time></trkpt><trkpt lat="37.6963033" lon="14.8404717"><ele>613.5</ele><time>2026-03-22T13:49:32.785Z</time></trkpt><trkpt lat="37.6962283" lon="14.8406133"><ele>615.0</ele><time>2026-03-22T13:49:33.784Z</time></trkpt><trkpt lat="37.69615" lon="14.84073"><ele>614.2</ele><time>2026-03-22T13:49:34.785Z</time></trkpt><trkpt lat="37.6960617" lon="14.84082"><ele>613.4</ele><time>2026-03-22T13:49:35.785Z</time></trkpt><trkpt lat="37.6959583" lon="14.840885"><ele>612.6</ele><time>2026-03-22T13:49:36.784Z</time></trkpt><trkpt lat="37.6958567" lon="14.8409267"><ele>611.8</ele><time>2026-03-22T13:49:37.785Z</time></trkpt><trkpt lat="37.69576" lon="14.8409517"><ele>611.0</ele><time>2026-03-22T13:49:38.784Z</time></trkpt><trkpt lat="37.695675" lon="14.8409967"><ele>612.3333333333333</ele><time>2026-03-22T13:49:39.784Z</time></trkpt><trkpt lat="37.69561" lon="14.8410583"><ele>613.6666666666666</ele><time>2026-03-22T13:49:40.784Z</time></trkpt><trkpt lat="37.695565" lon="14.84114"><ele>615.0</ele><time>2026-03-22T13:49:41.784Z</time></trkpt><trkpt lat="37.69555" lon="14.8412383"><ele>616.3333333333334</ele><time>2026-03-22T13:49:42.784Z</time></trkpt><trkpt lat="37.695555" lon="14.8413517"><ele>617.6666666666667</ele><time>2026-03-22T13:49:43.784Z</time></trkpt><trkpt lat="37.69556" lon="14.8414783"><ele>619.0</ele><time>2026-03-22T13:49:44.785Z</time></trkpt><trkpt lat="37.6955583" lon="14.8416033"><ele>619.0</ele><time>2026-03-22T13:49:45.784Z</time></trkpt><trkpt lat="37.69555" lon="14.841735"><ele>619.0</ele><time>2026-03-22T13:49:46.784Z</time></trkpt><trkpt lat="37.6955383" lon="14.8418667"><ele>619.0</ele><time>2026-03-22T13:49:47.785Z</time></trkpt><trkpt lat="37.6955183" lon="14.842"><ele>619.0</ele><time>2026-03-22T13:49:48.784Z</time></trkpt><trkpt lat="37.695495" lon="14.8421317"><ele>619.0</ele><time>2026-03-22T13:49:49.784Z</time></trkpt><trkpt lat="37.6954633" lon="14.8422317"><ele>620.1666666666667</ele><time>2026-03-22T13:49:50.784Z</time></trkpt><trkpt lat="37.69542" lon="14.8423083"><ele>621.3333333333334</ele><time>2026-03-22T13:49:51.784Z</time></trkpt><trkpt lat="37.6953583" lon="14.842365"><ele>622.5</ele><time>2026-03-22T13:49:52.784Z</time></trkpt><trkpt lat="37.6952783" lon="14.8424017"><ele>623.6666666666666</ele><time>2026-03-22T13:49:53.785Z</time></trkpt><trkpt lat="37.6951917" lon="14.8424267"><ele>624.8333333333333</ele><time>2026-03-22T13:49:54.785Z</time></trkpt><trkpt lat="37.6950933" lon="14.8424467"><ele>626.0</ele><time>2026-03-22T13:49:55.784Z</time></trkpt><trkpt lat="37.69499" lon="14.8424517"><ele>626.25</ele><time>2026-03-22T13:49:56.784Z</time></trkpt><trkpt lat="37.694885" lon="14.8424517"><ele>626.5</ele><time>2026-03-22T13:49:57.785Z</time></trkpt><trkpt lat="37.6947733" lon="14.8424367"><ele>626.75</ele><time>2026-03-22T13:49:58.784Z</time></trkpt><trkpt lat="37.6946567" lon="14.842415"><ele>627.0</ele><time>2026-03-22T13:49:59.784Z</time></trkpt><trkpt lat="37.6945333" lon="14.842395"><ele>628.0</ele><time>2026-03-22T13:50:00.785Z</time></trkpt><trkpt lat="37.6944067" lon="14.8423683"><ele>629.0</ele><time>2026-03-22T13:50:01.784Z</time></trkpt><trkpt lat="37.6942767" lon="14.8423467"><ele>630.0</ele><time>2026-03-22T13:50:02.784Z</time></trkpt><trkpt lat="37.694145" lon="14.8423383"><ele>631.0</ele><time>2026-03-22T13:50:03.785Z</time></trkpt><trkpt lat="37.6940133" lon="14.8423517"><ele>631.0</ele><time>2026-03-22T13:50:04.784Z</time></trkpt><trkpt lat="37.6938733" lon="14.8423883"><ele>631.0</ele><time>2026-03-22T13:50:05.785Z</time></trkpt><trkpt lat="37.6937283" lon="14.8424367"><ele>631.0</ele><time>2026-03-22T13:50:06.784Z</time></trkpt><trkpt lat="37.6935933" lon="14.8424817"><ele>631.0</ele><time>2026-03-22T13:50:07.785Z</time></trkpt><trkpt lat="37.6934583" lon="14.8425283"><ele>633.0</ele><time>2026-03-22T13:50:08.785Z</time></trkpt><trkpt lat="37.6933217" lon="14.8425767"><ele>635.0</ele><time>2026-03-22T13:50:09.784Z</time></trkpt><trkpt lat="37.6931883" lon="14.84262"><ele>637.0</ele><time>2026-03-22T13:50:10.784Z</time></trkpt><trkpt lat="37.6930533" lon="14.84266"><ele>639.0</ele><time>2026-03-22T13:50:11.784Z</time></trkpt><trkpt lat="37.69292" lon="14.842685"><ele>639.0</ele><time>2026-03-22T13:50:12.784Z</time></trkpt><trkpt lat="37.6927883" lon="14.8426767"><ele>639.0</ele><time>2026-03-22T13:50:13.784Z</time></trkpt><trkpt lat="37.6926583" lon="14.8426333"><ele>639.0</ele><time>2026-03-22T13:50:14.784Z</time></trkpt><trkpt lat="37.6925217" lon="14.84258"><ele>639.0</ele><time>2026-03-22T13:50:15.784Z</time></trkpt><trkpt lat="37.69238" lon="14.8425233"><ele>633.0</ele><time>2026-03-22T13:50:16.785Z</time></trkpt><trkpt lat="37.6922367" lon="14.8424633"><ele>627.0</ele><time>2026-03-22T13:50:17.785Z</time></trkpt><trkpt lat="37.69209" lon="14.8424017"><ele>621.0</ele><time>2026-03-22T13:50:18.785Z</time></trkpt><trkpt lat="37.69194" lon="14.8423383"><ele>624.25</ele><time>2026-03-22T13:50:19.785Z</time></trkpt><trkpt lat="37.691795" lon="14.842275"><ele>627.5</ele><time>2026-03-22T13:50:20.784Z</time></trkpt><trkpt lat="37.6916617" lon="14.8422083"><ele>630.75</ele><time>2026-03-22T13:50:21.785Z</time></trkpt><trkpt lat="37.6915433" lon="14.8421417"><ele>634.0</ele><time>2026-03-22T13:50:22.785Z</time></trkpt><trkpt lat="37.691435" lon="14.842075"><ele>634.0</ele><time>2026-03-22T13:50:23.784Z</time></trkpt><trkpt lat="37.6913267" lon="14.8420167"><ele>634.0</ele><time>2026-03-22T13:50:24.784Z</time></trkpt><trkpt lat="37.6912083" lon="14.8419817"><ele>634.0</ele><time>2026-03-22T13:50:25.785Z</time></trkpt><trkpt lat="37.6910883" lon="14.84198"><ele>634.0</ele><time>2026-03-22T13:50:26.784Z</time></trkpt><trkpt lat="37.6909633" lon="14.8420233"><ele>635.25</ele><time>2026-03-22T13:50:27.784Z</time></trkpt><trkpt lat="37.690845" lon="14.84209"><ele>636.5</ele><time>2026-03-22T13:50:28.785Z</time></trkpt><trkpt lat="37.6907333" lon="14.8421583"><ele>637.75</ele><time>2026-03-22T13:50:29.785Z</time></trkpt><trkpt lat="37.6906317" lon="14.8422133"><ele>639.0</ele><time>2026-03-22T13:50:30.785Z</time></trkpt><trkpt lat="37.69053" lon="14.8422567"><ele>639.0</ele><time>2026-03-22T13:50:31.784Z</time></trkpt><trkpt lat="37.6904283" lon="14.842275"><ele>639.0</ele><time>2026-03-22T13:50:32.785Z</time></trkpt><trkpt lat="37.6903317" lon="14.8422617"><ele>639.0</ele><time>2026-03-22T13:50:33.784Z</time></trkpt><trkpt lat="37.6902483" lon="14.8422117"><ele>639.0</ele><time>2026-03-22T13:50:34.785Z</time></trkpt><trkpt lat="37.6901867" lon="14.8421217"><ele>639.0</ele><time>2026-03-22T13:50:35.784Z</time></trkpt><trkpt lat="37.690145" lon="14.8420083"><ele>639.4</ele><time>2026-03-22T13:50:36.785Z</time></trkpt><trkpt lat="37.690105" lon="14.8418867"><ele>639.8</ele><time>2026-03-22T13:50:37.785Z</time></trkpt><trkpt lat="37.690065" lon="14.84176"><ele>640.1999999999999</ele><time>2026-03-22T13:50:38.785Z</time></trkpt><trkpt lat="37.6900217" lon="14.841645"><ele>640.5999999999999</ele><time>2026-03-22T13:50:39.785Z</time></trkpt><trkpt lat="37.6899583" lon="14.8415433"><ele>641.0</ele><time>2026-03-22T13:50:40.785Z</time></trkpt><trkpt lat="37.6898867" lon="14.84145"><ele>638.5</ele><time>2026-03-22T13:50:41.785Z</time></trkpt><trkpt lat="37.6897967" lon="14.84137"><ele>636.0</ele><time>2026-03-22T13:50:42.785Z</time></trkpt><trkpt lat="37.6896933" lon="14.8413"><ele>633.5</ele><time>2026-03-22T13:50:43.785Z</time></trkpt><trkpt lat="37.68958" lon="14.8412467"><ele>631.0</ele><time>2026-03-22T13:50:44.784Z</time></trkpt><trkpt lat="37.6894633" lon="14.8412133"><ele>632.2</ele><time>2026-03-22T13:50:45.784Z</time></trkpt><trkpt lat="37.6893583" lon="14.841185"><ele>633.4000000000001</ele><time>2026-03-22T13:50:46.785Z</time></trkpt><trkpt lat="37.689265" lon="14.841155"><ele>634.6</ele><time>2026-03-22T13:50:47.784Z</time></trkpt><trkpt lat="37.6891783" lon="14.841125"><ele>635.8000000000001</ele><time>2026-03-22T13:50:48.785Z</time></trkpt><trkpt lat="37.68909" lon="14.841095"><ele>637.0</ele><time>2026-03-22T13:50:49.784Z</time></trkpt><trkpt lat="37.6890133" lon="14.841055"><ele>637.0</ele><time>2026-03-22T13:50:50.784Z</time></trkpt><trkpt lat="37.68895" lon="14.8410017"><ele>637.0</ele><time>2026-03-22T13:50:51.785Z</time></trkpt><trkpt lat="37.688895" lon="14.8409317"><ele>637.0</ele><time>2026-03-22T13:50:52.784Z</time></trkpt><trkpt lat="37.6888433" lon="14.8408517"><ele>637.0</ele><time>2026-03-22T13:50:53.784Z</time></trkpt><trkpt lat="37.6887883" lon="14.8407867"><ele>637.0</ele><time>2026-03-22T13:50:54.784Z</time></trkpt><trkpt lat="37.6887286" lon="14.8407408"><ele>637.0</ele><time>2026-03-22T13:50:55.785Z</time></trkpt><trkpt lat="37.6886615" lon="14.840725"><ele>637.0</ele><time>2026-03-22T13:50:56.784Z</time></trkpt><trkpt lat="37.6885866" lon="14.8407351"><ele>637.1666666666667</ele><time>2026-03-22T13:50:57.785Z</time></trkpt><trkpt lat="37.688508" lon="14.8407665"><ele>637.3333333333334</ele><time>2026-03-22T13:50:58.785Z</time></trkpt><trkpt lat="37.688425" lon="14.8408134"><ele>637.5</ele><time>2026-03-22T13:50:59.785Z</time></trkpt><trkpt lat="37.6883533" lon="14.8408721"><ele>637.6666666666666</ele><time>2026-03-22T13:51:00.784Z</time></trkpt><trkpt lat="37.6882972" lon="14.8409308"><ele>637.8333333333333</ele><time>2026-03-22T13:51:01.784Z</time></trkpt><trkpt lat="37.6882482" lon="14.8409896"><ele>638.0</ele><time>2026-03-22T13:51:02.784Z</time></trkpt><trkpt lat="37.6881911" lon="14.8410406"><ele>638.0</ele><time>2026-03-22T13:51:03.784Z</time></trkpt><trkpt lat="37.6881069" lon="14.8410771"><ele>638.0</ele><time>2026-03-22T13:51:04.784Z</time></trkpt><trkpt lat="37.6880044" lon="14.841099"><ele>638.0</ele><time>2026-03-22T13:51:05.784Z</time></trkpt><trkpt lat="37.6878882" lon="14.8411103"><ele>638.0</ele><time>2026-03-22T13:51:06.785Z</time></trkpt><trkpt lat="37.6877607" lon="14.8411208"><ele>638.0</ele><time>2026-03-22T13:51:07.785Z</time></trkpt><trkpt lat="37.6876234" lon="14.8411308"><ele>639.0</ele><time>2026-03-22T13:51:08.785Z</time></trkpt><trkpt lat="37.6874802" lon="14.8411398"><ele>640.0</ele><time>2026-03-22T13:51:09.784Z</time></trkpt><trkpt lat="37.6873322" lon="14.8411474"><ele>641.0</ele><time>2026-03-22T13:51:10.784Z</time></trkpt><trkpt lat="37.6871789" lon="14.8411546"><ele>642.0</ele><time>2026-03-22T13:51:11.784Z</time></trkpt><trkpt lat="37.6870254" lon="14.841166"><ele>642.6666666666666</ele><time>2026-03-22T13:51:12.784Z</time></trkpt><trkpt lat="37.6868702" lon="14.8411832"><ele>643.3333333333333</ele><time>2026-03-22T13:51:13.785Z</time></trkpt><trkpt lat="37.6867152" lon="14.8411933"><ele>644.0</ele><time>2026-03-22T13:51:14.785Z</time></trkpt><trkpt lat="37.6865612" lon="14.8411863"><ele>644.0</ele><time>2026-03-22T13:51:15.784Z</time></trkpt><trkpt lat="37.6864109" lon="14.8411574"><ele>644.0</ele><time>2026-03-22T13:51:16.785Z</time></trkpt><trkpt lat="37.6862617" lon="14.8411126"><ele>644.0</ele><time>2026-03-22T13:51:17.785Z</time></trkpt><trkpt lat="37.686114" lon="14.8410616"><ele>643.0</ele><time>2026-03-22T13:51:18.784Z</time></trkpt><trkpt lat="37.6859696" lon="14.8410107"><ele>642.0</ele><time>2026-03-22T13:51:19.785Z</time></trkpt><trkpt lat="37.6858302" lon="14.8409529"><ele>641.0</ele><time>2026-03-22T13:51:20.784Z</time></trkpt><trkpt lat="37.6856906" lon="14.8408948"><ele>640.0</ele><time>2026-03-22T13:51:21.785Z</time></trkpt><trkpt lat="37.6855457" lon="14.8408378"><ele>638.0</ele><time>2026-03-22T13:51:22.785Z</time></trkpt><trkpt lat="37.6853929" lon="14.8407798"><ele>636.0</ele><time>2026-03-22T13:51:23.784Z</time></trkpt><trkpt lat="37.6852383" lon="14.8407228"><ele>634.0</ele><time>2026-03-22T13:51:24.784Z</time></trkpt><trkpt lat="37.6850847" lon="14.8406713"><ele>633.6666666666667</ele><time>2026-03-22T13:51:25.785Z</time></trkpt><trkpt lat="37.6849319" lon="14.8406267"><ele>633.3333333333334</ele><time>2026-03-22T13:51:26.784Z</time></trkpt><trkpt lat="37.6847839" lon="14.8405842"><ele>633.0</ele><time>2026-03-22T13:51:27.784Z</time></trkpt><trkpt lat="37.6846445" lon="14.8405405"><ele>633.0</ele><time>2026-03-22T13:51:28.784Z</time></trkpt><trkpt lat="37.6845087" lon="14.8404844"><ele>633.0</ele><time>2026-03-22T13:51:29.784Z</time></trkpt><trkpt lat="37.6843766" lon="14.8404058"><ele>633.0</ele><time>2026-03-22T13:51:30.784Z</time></trkpt><trkpt lat="37.6842463" lon="14.8403012"><ele>633.0</ele><time>2026-03-22T13:51:31.785Z</time></trkpt><trkpt lat="37.6841239" lon="14.8401736"><ele>632.6666666666666</ele><time>2026-03-22T13:51:32.785Z</time></trkpt><trkpt lat="37.6839997" lon="14.8400342"><ele>632.3333333333333</ele><time>2026-03-22T13:51:33.785Z</time></trkpt><trkpt lat="37.6838708" lon="14.8398906"><ele>632.0</ele><time>2026-03-22T13:51:34.785Z</time></trkpt><trkpt lat="37.6837393" lon="14.8397414"><ele>632.0</ele><time>2026-03-22T13:51:35.785Z</time></trkpt><trkpt lat="37.6836005" lon="14.8395876"><ele>632.0</ele><time>2026-03-22T13:51:36.784Z</time></trkpt><trkpt lat="37.6834563" lon="14.8394273"><ele>632.0</ele><time>2026-03-22T13:51:37.784Z</time></trkpt><trkpt lat="37.683315" lon="14.8392591"><ele>630.6666666666666</ele><time>2026-03-22T13:51:38.784Z</time></trkpt><trkpt lat="37.6831657" lon="14.8390967"><ele>629.3333333333334</ele><time>2026-03-22T13:51:39.784Z</time></trkpt><trkpt lat="37.6830192" lon="14.8389248"><ele>628.0</ele><time>2026-03-22T13:51:40.785Z</time></trkpt><trkpt lat="37.6828716" lon="14.8387469"><ele>627.6666666666667</ele><time>2026-03-22T13:51:41.785Z</time></trkpt><trkpt lat="37.6827248" lon="14.8385733"><ele>627.3333333333334</ele><time>2026-03-22T13:51:42.784Z</time></trkpt><trkpt lat="37.6825867" lon="14.83841"><ele>627.0</ele><time>2026-03-22T13:51:43.785Z</time></trkpt><trkpt lat="37.68246" lon="14.838265"><ele>626.75</ele><time>2026-03-22T13:51:44.785Z</time></trkpt><trkpt lat="37.682345" lon="14.8381333"><ele>626.5</ele><time>2026-03-22T13:51:45.784Z</time></trkpt><trkpt lat="37.6822433" lon="14.8380183"><ele>626.25</ele><time>2026-03-22T13:51:46.784Z</time></trkpt><trkpt lat="37.6821383" lon="14.8379317"><ele>626.0</ele><time>2026-03-22T13:51:47.785Z</time></trkpt><trkpt lat="37.6820133" lon="14.8378767"><ele>626.0</ele><time>2026-03-22T13:51:48.785Z</time></trkpt><trkpt lat="37.6818717" lon="14.8378583"><ele>626.0</ele><time>2026-03-22T13:51:49.785Z</time></trkpt><trkpt lat="37.68172" lon="14.8378567"><ele>626.0</ele><time>2026-03-22T13:51:50.784Z</time></trkpt><trkpt lat="37.68157" lon="14.8378517"><ele>626.0</ele><time>2026-03-22T13:51:51.785Z</time></trkpt><trkpt lat="37.68142" lon="14.837845"><ele>626.0</ele><time>2026-03-22T13:51:52.784Z</time></trkpt><trkpt lat="37.68127" lon="14.837845"><ele>626.0</ele><time>2026-03-22T13:51:53.785Z</time></trkpt><trkpt lat="37.681125" lon="14.8378433"><ele>626.0</ele><time>2026-03-22T13:51:54.785Z</time></trkpt><trkpt lat="37.6809917" lon="14.8378367"><ele>626.0</ele><time>2026-03-22T13:51:55.784Z</time></trkpt><trkpt lat="37.6808667" lon="14.8378067"><ele>625.1666666666666</ele><time>2026-03-22T13:51:56.785Z</time></trkpt><trkpt lat="37.6807567" lon="14.8377667"><ele>624.3333333333333</ele><time>2026-03-22T13:51:57.785Z</time></trkpt><trkpt lat="37.68066" lon="14.8377333"><ele>623.5</ele><time>2026-03-22T13:51:58.784Z</time></trkpt><trkpt lat="37.68058" lon="14.8377117"><ele>622.6666666666666</ele><time>2026-03-22T13:51:59.784Z</time></trkpt><trkpt lat="37.6805067" lon="14.8377"><ele>621.8333333333334</ele><time>2026-03-22T13:52:00.785Z</time></trkpt><trkpt lat="37.68044" lon="14.8376917"><ele>621.0</ele><time>2026-03-22T13:52:01.784Z</time></trkpt><trkpt lat="37.6803183" lon="14.83766"><ele>620.6666666666666</ele><time>2026-03-22T13:52:03.785Z</time></trkpt><trkpt lat="37.6802617" lon="14.8376167"><ele>620.3333333333334</ele><time>2026-03-22T13:52:04.784Z</time></trkpt><trkpt lat="37.6801933" lon="14.837525"><ele>620.0</ele><time>2026-03-22T13:52:06.784Z</time></trkpt><trkpt lat="37.680155" lon="14.83745"><ele>619.6666666666667</ele><time>2026-03-22T13:52:09.785Z</time></trkpt><trkpt lat="37.6800833" lon="14.8373917"><ele>619.3333333333334</ele><time>2026-03-22T13:52:29.785Z</time></trkpt><trkpt lat="37.67999" lon="14.8373"><ele>619.0</ele><time>2026-03-22T13:52:31.785Z</time></trkpt><trkpt lat="37.67993" lon="14.8372567"><ele>619.0</ele><time>2026-03-22T13:52:32.785Z</time></trkpt><trkpt lat="37.6798533" lon="14.8372217"><ele>619.0</ele><time>2026-03-22T13:52:33.785Z</time></trkpt><trkpt lat="37.679765" lon="14.8372083"><ele>619.0</ele><time>2026-03-22T13:52:34.785Z</time></trkpt><trkpt lat="37.67967" lon="14.8371983"><ele>619.0</ele><time>2026-03-22T13:52:35.785Z</time></trkpt><trkpt lat="37.6795717" lon="14.8371967"><ele>619.0</ele><time>2026-03-22T13:52:36.785Z</time></trkpt><trkpt lat="37.67947" lon="14.8371867"><ele>618.8</ele><time>2026-03-22T13:52:37.784Z</time></trkpt><trkpt lat="37.6793617" lon="14.8371733"><ele>618.5999999999999</ele><time>2026-03-22T13:52:38.785Z</time></trkpt><trkpt lat="37.6792533" lon="14.83717"><ele>618.4</ele><time>2026-03-22T13:52:39.784Z</time></trkpt><trkpt lat="37.679145" lon="14.8371567"><ele>618.1999999999999</ele><time>2026-03-22T13:52:40.785Z</time></trkpt><trkpt lat="37.679035" lon="14.8371417"><ele>618.0</ele><time>2026-03-22T13:52:41.785Z</time></trkpt><trkpt lat="37.6789117" lon="14.8371283"><ele>618.0</ele><time>2026-03-22T13:52:42.784Z</time></trkpt><trkpt lat="37.6787833" lon="14.837115"><ele>618.0</ele><time>2026-03-22T13:52:43.784Z</time></trkpt><trkpt lat="37.6786567" lon="14.8371033"><ele>618.0</ele><time>2026-03-22T13:52:44.784Z</time></trkpt><trkpt lat="37.6785283" lon="14.8370967"><ele>618.0</ele><time>2026-03-22T13:52:45.785Z</time></trkpt><trkpt lat="37.6784067" lon="14.837075"><ele>620.25</ele><time>2026-03-22T13:52:46.785Z</time></trkpt><trkpt lat="37.67828" lon="14.8370517"><ele>622.5</ele><time>2026-03-22T13:52:47.785Z</time></trkpt><trkpt lat="37.6781517" lon="14.837035"><ele>624.75</ele><time>2026-03-22T13:52:48.784Z</time></trkpt><trkpt lat="37.6780183" lon="14.8370183"><ele>627.0</ele><time>2026-03-22T13:52:49.785Z</time></trkpt><trkpt lat="37.6778783" lon="14.8370067"><ele>628.25</ele><time>2026-03-22T13:52:50.785Z</time></trkpt><trkpt lat="37.6777317" lon="14.83699"><ele>629.5</ele><time>2026-03-22T13:52:51.784Z</time></trkpt><trkpt lat="37.6775867" lon="14.8369733"><ele>630.75</ele><time>2026-03-22T13:52:52.784Z</time></trkpt><trkpt lat="37.6774467" lon="14.836955"><ele>632.0</ele><time>2026-03-22T13:52:53.784Z</time></trkpt><trkpt lat="37.6773117" lon="14.8369367"><ele>632.0</ele><time>2026-03-22T13:52:54.784Z</time></trkpt><trkpt lat="37.6771733" lon="14.836925"><ele>632.0</ele><time>2026-03-22T13:52:55.784Z</time></trkpt><trkpt lat="37.677035" lon="14.8369117"><ele>632.0</ele><time>2026-03-22T13:52:56.784Z</time></trkpt><trkpt lat="37.6768933" lon="14.8369033"><ele>632.0</ele><time>2026-03-22T13:52:57.785Z</time></trkpt><trkpt lat="37.67675" lon="14.8369133"><ele>632.5</ele><time>2026-03-22T13:52:58.784Z</time></trkpt><trkpt lat="37.67661" lon="14.83694"><ele>633.0</ele><time>2026-03-22T13:52:59.784Z</time></trkpt><trkpt lat="37.6764717" lon="14.8369883"><ele>633.5</ele><time>2026-03-22T13:53:00.785Z</time></trkpt><trkpt lat="37.676335" lon="14.8370517"><ele>634.0</ele><time>2026-03-22T13:53:01.785Z</time></trkpt><trkpt lat="37.676205" lon="14.8371317"><ele>633.75</ele><time>2026-03-22T13:53:02.784Z</time></trkpt><trkpt lat="37.6760883" lon="14.83722"><ele>633.5</ele><time>2026-03-22T13:53:03.784Z</time></trkpt><trkpt lat="37.6759867" lon="14.837315"><ele>633.25</ele><time>2026-03-22T13:53:04.784Z</time></trkpt><trkpt lat="37.6758983" lon="14.8374167"><ele>633.0</ele><time>2026-03-22T13:53:05.784Z</time></trkpt><trkpt lat="37.675815" lon="14.8375283"><ele>633.0</ele><time>2026-03-22T13:53:06.784Z</time></trkpt><trkpt lat="37.67574" lon="14.8376167"><ele>633.0</ele><time>2026-03-22T13:53:07.784Z</time></trkpt><trkpt lat="37.6756467" lon="14.837685"><ele>633.0</ele><time>2026-03-22T13:53:08.785Z</time></trkpt><trkpt lat="37.6755417" lon="14.8377367"><ele>633.0</ele><time>2026-03-22T13:53:09.785Z</time></trkpt><trkpt lat="37.6754433" lon="14.8377917"><ele>633.0</ele><time>2026-03-22T13:53:10.784Z</time></trkpt><trkpt lat="37.6753533" lon="14.8378683"><ele>633.25</ele><time>2026-03-22T13:53:11.785Z</time></trkpt><trkpt lat="37.6752767" lon="14.8379683"><ele>633.5</ele><time>2026-03-22T13:53:12.785Z</time></trkpt><trkpt lat="37.6752117" lon="14.838095"><ele>633.75</ele><time>2026-03-22T13:53:13.784Z</time></trkpt><trkpt lat="37.6751467" lon="14.8382417"><ele>634.0</ele><time>2026-03-22T13:53:14.785Z</time></trkpt><trkpt lat="37.6750833" lon="14.8384083"><ele>632.0</ele><time>2026-03-22T13:53:15.784Z</time></trkpt><trkpt lat="37.6750217" lon="14.8385817"><ele>630.0</ele><time>2026-03-22T13:53:16.784Z</time></trkpt><trkpt lat="37.6749633" lon="14.83877"><ele>628.0</ele><time>2026-03-22T13:53:17.784Z</time></trkpt><trkpt lat="37.6749083" lon="14.8389667"><ele>628.0</ele><time>2026-03-22T13:53:18.785Z</time></trkpt><trkpt lat="37.6748633" lon="14.8391617"><ele>628.0</ele><time>2026-03-22T13:53:19.784Z</time></trkpt><trkpt lat="37.674805" lon="14.8393783"><ele>628.0</ele><time>2026-03-22T13:53:20.784Z</time></trkpt><trkpt lat="37.674745" lon="14.8395933"><ele>629.3333333333334</ele><time>2026-03-22T13:53:21.784Z</time></trkpt><trkpt lat="37.674685" lon="14.8398067"><ele>630.6666666666666</ele><time>2026-03-22T13:53:22.784Z</time></trkpt><trkpt lat="37.6746183" lon="14.84004"><ele>632.0</ele><time>2026-03-22T13:53:23.784Z</time></trkpt><trkpt lat="37.6745517" lon="14.84028"><ele>632.3333333333333</ele><time>2026-03-22T13:53:24.785Z</time></trkpt><trkpt lat="37.6744817" lon="14.8405033"><ele>632.6666666666666</ele><time>2026-03-22T13:53:25.785Z</time></trkpt><trkpt lat="37.6744117" lon="14.8407267"><ele>633.0</ele><time>2026-03-22T13:53:26.785Z</time></trkpt><trkpt lat="37.674345" lon="14.8409467"><ele>631.6666666666666</ele><time>2026-03-22T13:53:27.785Z</time></trkpt><trkpt lat="37.674285" lon="14.8411683"><ele>630.3333333333333</ele><time>2026-03-22T13:53:28.785Z</time></trkpt><trkpt lat="37.67422" lon="14.841385"><ele>629.0</ele><time>2026-03-22T13:53:29.784Z</time></trkpt><trkpt lat="37.674155" lon="14.84161"><ele>629.0</ele><time>2026-03-22T13:53:30.785Z</time></trkpt><trkpt lat="37.6740917" lon="14.8418367"><ele>629.0</ele><time>2026-03-22T13:53:31.784Z</time></trkpt><trkpt lat="37.6740183" lon="14.8420683"><ele>629.0</ele><time>2026-03-22T13:53:32.784Z</time></trkpt><trkpt lat="37.6739483" lon="14.8422967"><ele>629.0</ele><time>2026-03-22T13:53:33.785Z</time></trkpt><trkpt lat="37.67388" lon="14.8425333"><ele>629.0</ele><time>2026-03-22T13:53:34.784Z</time></trkpt><trkpt lat="37.67381" lon="14.84277"><ele>629.0</ele><time>2026-03-22T13:53:35.785Z</time></trkpt><trkpt lat="37.6737433" lon="14.8430133"><ele>629.6666666666666</ele><time>2026-03-22T13:53:36.784Z</time></trkpt><trkpt lat="37.6736767" lon="14.8432567"><ele>630.3333333333334</ele><time>2026-03-22T13:53:37.785Z</time></trkpt><trkpt lat="37.6736017" lon="14.8434967"><ele>631.0</ele><time>2026-03-22T13:53:38.784Z</time></trkpt><trkpt lat="37.6735333" lon="14.8437283"><ele>632.3333333333334</ele><time>2026-03-22T13:53:39.785Z</time></trkpt><trkpt lat="37.6734633" lon="14.84396"><ele>633.6666666666666</ele><time>2026-03-22T13:53:40.785Z</time></trkpt><trkpt lat="37.673395" lon="14.8441917"><ele>635.0</ele><time>2026-03-22T13:53:41.784Z</time></trkpt><trkpt lat="37.6733283" lon="14.8444283"><ele>636.6666666666666</ele><time>2026-03-22T13:53:42.784Z</time></trkpt><trkpt lat="37.6732583" lon="14.8446683"><ele>638.3333333333334</ele><time>2026-03-22T13:53:43.785Z</time></trkpt><trkpt lat="37.6731933" lon="14.8449"><ele>640.0</ele><time>2026-03-22T13:53:44.785Z</time></trkpt><trkpt lat="37.6731283" lon="14.8451317"><ele>640.0</ele><time>2026-03-22T13:53:45.785Z</time></trkpt><trkpt lat="37.67306" lon="14.8453517"><ele>640.0</ele><time>2026-03-22T13:53:46.785Z</time></trkpt><trkpt lat="37.6729967" lon="14.8455667"><ele>640.0</ele><time>2026-03-22T13:53:47.784Z</time></trkpt><trkpt lat="37.6729367" lon="14.8457833"><ele>640.0</ele><time>2026-03-22T13:53:48.785Z</time></trkpt><trkpt lat="37.6728783" lon="14.8459933"><ele>640.0</ele><time>2026-03-22T13:53:49.785Z</time></trkpt><trkpt lat="37.672825" lon="14.8462017"><ele>640.0</ele><time>2026-03-22T13:53:50.784Z</time></trkpt><trkpt lat="37.67276" lon="14.8464083"><ele>639.3333333333334</ele><time>2026-03-22T13:53:51.784Z</time></trkpt><trkpt lat="37.6726867" lon="14.8466183"><ele>638.6666666666666</ele><time>2026-03-22T13:53:52.784Z</time></trkpt><trkpt lat="37.6726133" lon="14.846825"><ele>638.0</ele><time>2026-03-22T13:53:53.784Z</time></trkpt><trkpt lat="37.6725367" lon="14.8470317"><ele>638.0</ele><time>2026-03-22T13:53:54.784Z</time></trkpt><trkpt lat="37.6724567" lon="14.847235"><ele>638.0</ele><time>2026-03-22T13:53:55.785Z</time></trkpt><trkpt lat="37.67237" lon="14.8474383"><ele>638.0</ele><time>2026-03-22T13:53:56.784Z</time></trkpt><trkpt lat="37.67227" lon="14.847635"><ele>639.3333333333333</ele><time>2026-03-22T13:53:57.784Z</time></trkpt><trkpt lat="37.67217" lon="14.8478317"><ele>640.6666666666666</ele><time>2026-03-22T13:53:58.784Z</time></trkpt><trkpt lat="37.6720633" lon="14.848025"><ele>642.0</ele><time>2026-03-22T13:53:59.785Z</time></trkpt><trkpt lat="37.6719483" lon="14.84822"><ele>641.0</ele><time>2026-03-22T13:54:00.785Z</time></trkpt><trkpt lat="37.6718317" lon="14.8484017"><ele>640.0</ele><time>2026-03-22T13:54:01.784Z</time></trkpt><trkpt lat="37.6717167" lon="14.84858"><ele>639.0</ele><time>2026-03-22T13:54:02.785Z</time></trkpt><trkpt lat="37.6716" lon="14.848755"><ele>641.3333333333334</ele><time>2026-03-22T13:54:03.785Z</time></trkpt><trkpt lat="37.67148" lon="14.8489333"><ele>643.6666666666667</ele><time>2026-03-22T13:54:04.784Z</time></trkpt><trkpt lat="37.6713583" lon="14.84911"><ele>646.0</ele><time>2026-03-22T13:54:05.784Z</time></trkpt><trkpt lat="37.6712383" lon="14.8492883"><ele>644.6666666666667</ele><time>2026-03-22T13:54:06.784Z</time></trkpt><trkpt lat="37.6711183" lon="14.84947"><ele>643.3333333333334</ele><time>2026-03-22T13:54:07.784Z</time></trkpt><trkpt lat="37.6710017" lon="14.8496533"><ele>642.0</ele><time>2026-03-22T13:54:08.785Z</time></trkpt><trkpt lat="37.6708817" lon="14.8498417"><ele>642.0</ele><time>2026-03-22T13:54:09.784Z</time></trkpt><trkpt lat="37.67075" lon="14.8500333"><ele>642.0</ele><time>2026-03-22T13:54:10.785Z</time></trkpt><trkpt lat="37.6706167" lon="14.85023"><ele>642.0</ele><time>2026-03-22T13:54:11.784Z</time></trkpt><trkpt lat="37.6704783" lon="14.850435"><ele>642.0</ele><time>2026-03-22T13:54:12.784Z</time></trkpt><trkpt lat="37.6703383" lon="14.8506417"><ele>642.0</ele><time>2026-03-22T13:54:13.785Z</time></trkpt><trkpt lat="37.6701933" lon="14.8508533"><ele>642.0</ele><time>2026-03-22T13:54:14.784Z</time></trkpt><trkpt lat="37.67005" lon="14.85107"><ele>638.5</ele><time>2026-03-22T13:54:15.785Z</time></trkpt><trkpt lat="37.6699" lon="14.8512917"><ele>635.0</ele><time>2026-03-22T13:54:16.784Z</time></trkpt><trkpt lat="37.6697483" lon="14.8515217"><ele>635.0</ele><time>2026-03-22T13:54:17.785Z</time></trkpt><trkpt lat="37.6695933" lon="14.85175"><ele>635.0</ele><time>2026-03-22T13:54:18.785Z</time></trkpt><trkpt lat="37.6694383" lon="14.851985"><ele>631.0</ele><time>2026-03-22T13:54:19.784Z</time></trkpt><trkpt lat="37.6692817" lon="14.8522183"><ele>627.0</ele><time>2026-03-22T13:54:20.785Z</time></trkpt><trkpt lat="37.6691233" lon="14.8524533"><ele>628.0</ele><time>2026-03-22T13:54:21.785Z</time></trkpt><trkpt lat="37.668965" lon="14.85269"><ele>629.0</ele><time>2026-03-22T13:54:22.785Z</time></trkpt><trkpt lat="37.6688067" lon="14.8529317"><ele>629.0</ele><time>2026-03-22T13:54:23.785Z</time></trkpt><trkpt lat="37.66865" lon="14.8531683"><ele>629.0</ele><time>2026-03-22T13:54:24.784Z</time></trkpt><trkpt lat="37.668495" lon="14.853405"><ele>629.0</ele><time>2026-03-22T13:54:25.784Z</time></trkpt><trkpt lat="37.66834" lon="14.85364"><ele>629.0</ele><time>2026-03-22T13:54:26.784Z</time></trkpt><trkpt lat="37.6681867" lon="14.8538733"><ele>629.0</ele><time>2026-03-22T13:54:27.785Z</time></trkpt><trkpt lat="37.66803" lon="14.8541033"><ele>629.0</ele><time>2026-03-22T13:54:28.784Z</time></trkpt><trkpt lat="37.667875" lon="14.854335"><ele>630.0</ele><time>2026-03-22T13:54:29.785Z</time></trkpt><trkpt lat="37.6677217" lon="14.85457"><ele>631.0</ele><time>2026-03-22T13:54:30.785Z</time></trkpt><trkpt lat="37.6675717" lon="14.8548017"><ele>631.0</ele><time>2026-03-22T13:54:31.784Z</time></trkpt><trkpt lat="37.6674217" lon="14.8550333"><ele>631.0</ele><time>2026-03-22T13:54:32.785Z</time></trkpt><trkpt lat="37.6672733" lon="14.855265"><ele>636.5</ele><time>2026-03-22T13:54:33.784Z</time></trkpt><trkpt lat="37.6671283" lon="14.8555"><ele>642.0</ele><time>2026-03-22T13:54:34.784Z</time></trkpt><trkpt lat="37.6669867" lon="14.8557333"><ele>640.5</ele><time>2026-03-22T13:54:35.784Z</time></trkpt><trkpt lat="37.666845" lon="14.8559717"><ele>639.0</ele><time>2026-03-22T13:54:36.785Z</time></trkpt><trkpt lat="37.6667083" lon="14.8562133"><ele>639.0</ele><time>2026-03-22T13:54:37.785Z</time></trkpt><trkpt lat="37.6665767" lon="14.8564617"><ele>639.0</ele><time>2026-03-22T13:54:38.784Z</time></trkpt><trkpt lat="37.6664517" lon="14.8567133"><ele>639.0</ele><time>2026-03-22T13:54:39.785Z</time></trkpt><trkpt lat="37.66633" lon="14.85696"><ele>639.0</ele><time>2026-03-22T13:54:40.784Z</time></trkpt><trkpt lat="37.6662117" lon="14.8572117"><ele>637.0</ele><time>2026-03-22T13:54:41.785Z</time></trkpt><trkpt lat="37.6660967" lon="14.8574567"><ele>635.0</ele><time>2026-03-22T13:54:42.785Z</time></trkpt><trkpt lat="37.66598" lon="14.8577133"><ele>635.0</ele><time>2026-03-22T13:54:43.784Z</time></trkpt><trkpt lat="37.6658617" lon="14.8579733"><ele>635.0</ele><time>2026-03-22T13:54:44.784Z</time></trkpt><trkpt lat="37.6657467" lon="14.8582367"><ele>637.5</ele><time>2026-03-22T13:54:45.785Z</time></trkpt><trkpt lat="37.66563" lon="14.858495"><ele>640.0</ele><time>2026-03-22T13:54:46.785Z</time></trkpt><trkpt lat="37.6655117" lon="14.8587533"><ele>640.0</ele><time>2026-03-22T13:54:47.784Z</time></trkpt><trkpt lat="37.665395" lon="14.859015"><ele>640.0</ele><time>2026-03-22T13:54:48.785Z</time></trkpt><trkpt lat="37.6652767" lon="14.85927"><ele>637.5</ele><time>2026-03-22T13:54:49.784Z</time></trkpt><trkpt lat="37.6651583" lon="14.8595267"><ele>635.0</ele><time>2026-03-22T13:54:50.784Z</time></trkpt><trkpt lat="37.6650433" lon="14.85979"><ele>635.0</ele><time>2026-03-22T13:54:51.784Z</time></trkpt><trkpt lat="37.664925" lon="14.8600533"><ele>635.0</ele><time>2026-03-22T13:54:52.784Z</time></trkpt><trkpt lat="37.6648033" lon="14.860315"><ele>635.0</ele><time>2026-03-22T13:54:53.784Z</time></trkpt><trkpt lat="37.6646867" lon="14.860575"><ele>635.0</ele><time>2026-03-22T13:54:54.785Z</time></trkpt><trkpt lat="37.6645683" lon="14.860835"><ele>635.5</ele><time>2026-03-22T13:54:55.785Z</time></trkpt><trkpt lat="37.6644483" lon="14.8610967"><ele>636.0</ele><time>2026-03-22T13:54:56.785Z</time></trkpt><trkpt lat="37.66433" lon="14.86136"><ele>634.0</ele><time>2026-03-22T13:54:57.784Z</time></trkpt><trkpt lat="37.6642083" lon="14.8616267"><ele>632.0</ele><time>2026-03-22T13:54:58.785Z</time></trkpt><trkpt lat="37.6640867" lon="14.86189"><ele>632.0</ele><time>2026-03-22T13:54:59.785Z</time></trkpt><trkpt lat="37.6639733" lon="14.862155"><ele>632.0</ele><time>2026-03-22T13:55:00.785Z</time></trkpt><trkpt lat="37.6638533" lon="14.8624167"><ele>634.5</ele><time>2026-03-22T13:55:01.785Z</time></trkpt><trkpt lat="37.6637317" lon="14.8626883"><ele>637.0</ele><time>2026-03-22T13:55:02.784Z</time></trkpt><trkpt lat="37.6636117" lon="14.8629567"><ele>633.0</ele><time>2026-03-22T13:55:03.785Z</time></trkpt><trkpt lat="37.6634967" lon="14.8632283"><ele>629.0</ele><time>2026-03-22T13:55:04.784Z</time></trkpt><trkpt lat="37.6633783" lon="14.8634933"><ele>629.0</ele><time>2026-03-22T13:55:05.784Z</time></trkpt><trkpt lat="37.6632567" lon="14.8637633"><ele>629.0</ele><time>2026-03-22T13:55:06.785Z</time></trkpt><trkpt lat="37.6631317" lon="14.8640267"><ele>629.0</ele><time>2026-03-22T13:55:07.784Z</time></trkpt><trkpt lat="37.663015" lon="14.8642767"><ele>629.0</ele><time>2026-03-22T13:55:08.784Z</time></trkpt><trkpt lat="37.6629" lon="14.8645217"><ele>628.3333333333333</ele><time>2026-03-22T13:55:09.785Z</time></trkpt><trkpt lat="37.6627933" lon="14.86475"><ele>627.6666666666666</ele><time>2026-03-22T13:55:10.785Z</time></trkpt><trkpt lat="37.6626917" lon="14.8649667"><ele>627.0</ele><time>2026-03-22T13:55:11.784Z</time></trkpt><trkpt lat="37.6625933" lon="14.8651783"><ele>627.0</ele><time>2026-03-22T13:55:12.785Z</time></trkpt><trkpt lat="37.6624967" lon="14.86539"><ele>627.0</ele><time>2026-03-22T13:55:13.785Z</time></trkpt><trkpt lat="37.6623983" lon="14.8655917"><ele>627.0</ele><time>2026-03-22T13:55:14.784Z</time></trkpt><trkpt lat="37.6622933" lon="14.86579"><ele>628.0</ele><time>2026-03-22T13:55:15.785Z</time></trkpt><trkpt lat="37.6621783" lon="14.8659683"><ele>629.0</ele><time>2026-03-22T13:55:16.784Z</time></trkpt><trkpt lat="37.6620433" lon="14.866125"><ele>630.0</ele><time>2026-03-22T13:55:17.784Z</time></trkpt><trkpt lat="37.6619033" lon="14.8662667"><ele>630.0</ele><time>2026-03-22T13:55:18.785Z</time></trkpt><trkpt lat="37.66176" lon="14.8664017"><ele>630.0</ele><time>2026-03-22T13:55:19.785Z</time></trkpt><trkpt lat="37.6616017" lon="14.8665233"><ele>630.0</ele><time>2026-03-22T13:55:20.785Z</time></trkpt><trkpt lat="37.6614367" lon="14.8666233"><ele>630.0</ele><time>2026-03-22T13:55:21.785Z</time></trkpt><trkpt lat="37.6612633" lon="14.8667117"><ele>630.0</ele><time>2026-03-22T13:55:22.784Z</time></trkpt><trkpt lat="37.6610833" lon="14.866795"><ele>630.0</ele><time>2026-03-22T13:55:23.785Z</time></trkpt><trkpt lat="37.6609" lon="14.8668733"><ele>631.0</ele><time>2026-03-22T13:55:24.785Z</time></trkpt><trkpt lat="37.660715" lon="14.8669533"><ele>632.0</ele><time>2026-03-22T13:55:25.784Z</time></trkpt><trkpt lat="37.660525" lon="14.8670317"><ele>633.0</ele><time>2026-03-22T13:55:26.784Z</time></trkpt><trkpt lat="37.6603283" lon="14.8671167"><ele>631.3333333333334</ele><time>2026-03-22T13:55:27.784Z</time></trkpt><trkpt lat="37.6601317" lon="14.8671917"><ele>629.6666666666667</ele><time>2026-03-22T13:55:28.785Z</time></trkpt><trkpt lat="37.6599317" lon="14.8672733"><ele>628.0</ele><time>2026-03-22T13:55:29.785Z</time></trkpt><trkpt lat="37.6597333" lon="14.867355"><ele>628.0</ele><time>2026-03-22T13:55:30.785Z</time></trkpt><trkpt lat="37.6595333" lon="14.86744"><ele>628.0</ele><time>2026-03-22T13:55:31.785Z</time></trkpt><trkpt lat="37.6593283" lon="14.8675283"><ele>628.0</ele><time>2026-03-22T13:55:32.784Z</time></trkpt><trkpt lat="37.6591217" lon="14.8676183"><ele>628.6666666666667</ele><time>2026-03-22T13:55:33.784Z</time></trkpt><trkpt lat="37.6589133" lon="14.867695"><ele>629.3333333333334</ele><time>2026-03-22T13:55:34.784Z</time></trkpt><trkpt lat="37.6587033" lon="14.8677733"><ele>630.0</ele><time>2026-03-22T13:55:35.785Z</time></trkpt><trkpt lat="37.6584917" lon="14.867855"><ele>630.0</ele><time>2026-03-22T13:55:36.784Z</time></trkpt><trkpt lat="37.658285" lon="14.8679317"><ele>630.0</ele><time>2026-03-22T13:55:37.785Z</time></trkpt><trkpt lat="37.65808" lon="14.8680167"><ele>630.0</ele><time>2026-03-22T13:55:38.784Z</time></trkpt><trkpt lat="37.6578867" lon="14.868105"><ele>626.6666666666666</ele><time>2026-03-22T13:55:39.785Z</time></trkpt><trkpt lat="37.6576983" lon="14.8682"><ele>623.3333333333333</ele><time>2026-03-22T13:55:40.785Z</time></trkpt><trkpt lat="37.657515" lon="14.8683067"><ele>620.0</ele><time>2026-03-22T13:55:41.785Z</time></trkpt><trkpt lat="37.6573317" lon="14.86843"><ele>618.6666666666666</ele><time>2026-03-22T13:55:42.785Z</time></trkpt><trkpt lat="37.6571517" lon="14.868565"><ele>617.3333333333334</ele><time>2026-03-22T13:55:43.784Z</time></trkpt><trkpt lat="37.656975" lon="14.8687133"><ele>616.0</ele><time>2026-03-22T13:55:44.785Z</time></trkpt><trkpt lat="37.656805" lon="14.86888"><ele>616.0</ele><time>2026-03-22T13:55:45.784Z</time></trkpt><trkpt lat="37.6566483" lon="14.8690583"><ele>616.0</ele><time>2026-03-22T13:55:46.785Z</time></trkpt><trkpt lat="37.6565067" lon="14.8692517"><ele>616.0</ele><time>2026-03-22T13:55:47.785Z</time></trkpt><trkpt lat="37.6563733" lon="14.86945"><ele>615.6666666666667</ele><time>2026-03-22T13:55:48.785Z</time></trkpt><trkpt lat="37.656245" lon="14.8696667"><ele>615.3333333333334</ele><time>2026-03-22T13:55:49.784Z</time></trkpt><trkpt lat="37.656125" lon="14.86989"><ele>615.0</ele><time>2026-03-22T13:55:50.785Z</time></trkpt><trkpt lat="37.656005" lon="14.8701217"><ele>615.0</ele><time>2026-03-22T13:55:51.784Z</time></trkpt><trkpt lat="37.6558867" lon="14.8703567"><ele>615.0</ele><time>2026-03-22T13:55:52.784Z</time></trkpt><trkpt lat="37.655765" lon="14.8705933"><ele>615.0</ele><time>2026-03-22T13:55:53.784Z</time></trkpt><trkpt lat="37.6556433" lon="14.8708317"><ele>615.0</ele><time>2026-03-22T13:55:54.784Z</time></trkpt><trkpt lat="37.6555267" lon="14.8710733"><ele>615.0</ele><time>2026-03-22T13:55:55.784Z</time></trkpt><trkpt lat="37.6554117" lon="14.8713067"><ele>615.0</ele><time>2026-03-22T13:55:56.785Z</time></trkpt><trkpt lat="37.6553017" lon="14.8715233"><ele>615.3333333333334</ele><time>2026-03-22T13:55:57.785Z</time></trkpt><trkpt lat="37.6551917" lon="14.871745"><ele>615.6666666666667</ele><time>2026-03-22T13:55:58.785Z</time></trkpt><trkpt lat="37.6550817" lon="14.87197"><ele>616.0</ele><time>2026-03-22T13:55:59.784Z</time></trkpt><trkpt lat="37.6549717" lon="14.872195"><ele>616.0</ele><time>2026-03-22T13:56:00.785Z</time></trkpt><trkpt lat="37.6548633" lon="14.8724217"><ele>616.0</ele><time>2026-03-22T13:56:01.784Z</time></trkpt><trkpt lat="37.6547533" lon="14.872645"><ele>616.0</ele><time>2026-03-22T13:56:02.784Z</time></trkpt><trkpt lat="37.6546433" lon="14.8728717"><ele>616.6666666666667</ele><time>2026-03-22T13:56:03.784Z</time></trkpt><trkpt lat="37.6545317" lon="14.8730983"><ele>617.3333333333334</ele><time>2026-03-22T13:56:04.785Z</time></trkpt><trkpt lat="37.65442" lon="14.873325"><ele>618.0</ele><time>2026-03-22T13:56:05.784Z</time></trkpt><trkpt lat="37.65431" lon="14.8735483"><ele>616.6666666666666</ele><time>2026-03-22T13:56:06.784Z</time></trkpt><trkpt lat="37.6541983" lon="14.873775"><ele>615.3333333333333</ele><time>2026-03-22T13:56:07.785Z</time></trkpt><trkpt lat="37.6540883" lon="14.8739933"><ele>614.0</ele><time>2026-03-22T13:56:08.784Z</time></trkpt><trkpt lat="37.6539817" lon="14.874215"><ele>615.6666666666666</ele><time>2026-03-22T13:56:09.785Z</time></trkpt><trkpt lat="37.6538733" lon="14.8744333"><ele>617.3333333333334</ele><time>2026-03-22T13:56:10.784Z</time></trkpt><trkpt lat="37.6537617" lon="14.874655"><ele>619.0</ele><time>2026-03-22T13:56:11.784Z</time></trkpt><trkpt lat="37.65365" lon="14.8748767"><ele>619.0</ele><time>2026-03-22T13:56:12.784Z</time></trkpt><trkpt lat="37.6535417" lon="14.8750967"><ele>619.0</ele><time>2026-03-22T13:56:13.784Z</time></trkpt><trkpt lat="37.6534333" lon="14.8753133"><ele>619.0</ele><time>2026-03-22T13:56:14.784Z</time></trkpt><trkpt lat="37.65333" lon="14.8755317"><ele>619.0</ele><time>2026-03-22T13:56:15.785Z</time></trkpt><trkpt lat="37.6532217" lon="14.875745"><ele>619.0</ele><time>2026-03-22T13:56:16.784Z</time></trkpt><trkpt lat="37.6531183" lon="14.8759617"><ele>619.0</ele><time>2026-03-22T13:56:17.784Z</time></trkpt><trkpt lat="37.6530167" lon="14.8761717"><ele>619.3333333333334</ele><time>2026-03-22T13:56:18.785Z</time></trkpt><trkpt lat="37.6529167" lon="14.8763833"><ele>619.6666666666666</ele><time>2026-03-22T13:56:19.785Z</time></trkpt><trkpt lat="37.6528133" lon="14.87659"><ele>620.0</ele><time>2026-03-22T13:56:20.785Z</time></trkpt><trkpt lat="37.6527" lon="14.8768"><ele>619.0</ele><time>2026-03-22T13:56:21.784Z</time></trkpt><trkpt lat="37.6525783" lon="14.8769983"><ele>618.0</ele><time>2026-03-22T13:56:22.785Z</time></trkpt><trkpt lat="37.6524533" lon="14.8771917"><ele>617.0</ele><time>2026-03-22T13:56:23.784Z</time></trkpt><trkpt lat="37.6523183" lon="14.877375"><ele>617.0</ele><time>2026-03-22T13:56:24.785Z</time></trkpt><trkpt lat="37.6521767" lon="14.877555"><ele>617.0</ele><time>2026-03-22T13:56:25.784Z</time></trkpt><trkpt lat="37.652025" lon="14.8777233"><ele>617.0</ele><time>2026-03-22T13:56:26.785Z</time></trkpt><trkpt lat="37.651865" lon="14.8778783"><ele>616.6666666666666</ele><time>2026-03-22T13:56:27.785Z</time></trkpt><trkpt lat="37.6516983" lon="14.878025"><ele>616.3333333333334</ele><time>2026-03-22T13:56:28.784Z</time></trkpt><trkpt lat="37.651525" lon="14.8781717"><ele>616.0</ele><time>2026-03-22T13:56:29.785Z</time></trkpt><trkpt lat="37.6513467" lon="14.8783233"><ele>616.0</ele><time>2026-03-22T13:56:30.785Z</time></trkpt><trkpt lat="37.6511667" lon="14.8784783"><ele>616.0</ele><time>2026-03-22T13:56:31.785Z</time></trkpt><trkpt lat="37.6509883" lon="14.87863"><ele>616.0</ele><time>2026-03-22T13:56:32.784Z</time></trkpt><trkpt lat="37.650805" lon="14.87878"><ele>614.3333333333334</ele><time>2026-03-22T13:56:33.785Z</time></trkpt><trkpt lat="37.6506233" lon="14.8789317"><ele>612.6666666666666</ele><time>2026-03-22T13:56:34.784Z</time></trkpt><trkpt lat="37.6504433" lon="14.8790867"><ele>611.0</ele><time>2026-03-22T13:56:35.784Z</time></trkpt><trkpt lat="37.6502567" lon="14.8792433"><ele>612.0</ele><time>2026-03-22T13:56:36.784Z</time></trkpt><trkpt lat="37.65007" lon="14.8793983"><ele>613.0</ele><time>2026-03-22T13:56:37.785Z</time></trkpt><trkpt lat="37.6498833" lon="14.87956"><ele>613.0</ele><time>2026-03-22T13:56:38.784Z</time></trkpt><trkpt lat="37.649695" lon="14.8797183"><ele>613.0</ele><time>2026-03-22T13:56:39.784Z</time></trkpt><trkpt lat="37.6495017" lon="14.87988"><ele>610.0</ele><time>2026-03-22T13:56:40.785Z</time></trkpt><trkpt lat="37.6493117" lon="14.880035"><ele>607.0</ele><time>2026-03-22T13:56:41.784Z</time></trkpt><trkpt lat="37.6491267" lon="14.8801967"><ele>605.6666666666667</ele><time>2026-03-22T13:56:42.785Z</time></trkpt><trkpt lat="37.64894" lon="14.8803533"><ele>604.3333333333334</ele><time>2026-03-22T13:56:43.785Z</time></trkpt><trkpt lat="37.648755" lon="14.88051"><ele>603.0</ele><time>2026-03-22T13:56:44.784Z</time></trkpt><trkpt lat="37.6485717" lon="14.8806683"><ele>604.0</ele><time>2026-03-22T13:56:45.784Z</time></trkpt><trkpt lat="37.64839" lon="14.88083"><ele>605.0</ele><time>2026-03-22T13:56:46.785Z</time></trkpt><trkpt lat="37.6482117" lon="14.8809833"><ele>606.0</ele><time>2026-03-22T13:56:47.785Z</time></trkpt><trkpt lat="37.64803" lon="14.8811367"><ele>606.0</ele><time>2026-03-22T13:56:48.784Z</time></trkpt><trkpt lat="37.6478467" lon="14.88129"><ele>606.0</ele><time>2026-03-22T13:56:49.785Z</time></trkpt><trkpt lat="37.64766" lon="14.8814433"><ele>606.0</ele><time>2026-03-22T13:56:50.785Z</time></trkpt><trkpt lat="37.6474733" lon="14.8816033"><ele>604.0</ele><time>2026-03-22T13:56:51.784Z</time></trkpt><trkpt lat="37.6472767" lon="14.88177"><ele>602.0</ele><time>2026-03-22T13:56:52.785Z</time></trkpt><trkpt lat="37.64708" lon="14.8819383"><ele>599.0</ele><time>2026-03-22T13:56:53.785Z</time></trkpt><trkpt lat="37.6468767" lon="14.8821117"><ele>596.0</ele><time>2026-03-22T13:56:54.785Z</time></trkpt><trkpt lat="37.6466733" lon="14.8822833"><ele>596.0</ele><time>2026-03-22T13:56:55.784Z</time></trkpt><trkpt lat="37.6464717" lon="14.8824517"><ele>596.0</ele><time>2026-03-22T13:56:56.785Z</time></trkpt><trkpt lat="37.64627" lon="14.88262"><ele>593.5</ele><time>2026-03-22T13:56:57.785Z</time></trkpt><trkpt lat="37.64607" lon="14.8827933"><ele>591.0</ele><time>2026-03-22T13:56:58.784Z</time></trkpt><trkpt lat="37.6458783" lon="14.8829633"><ele>591.0</ele><time>2026-03-22T13:56:59.784Z</time></trkpt><trkpt lat="37.6456933" lon="14.8831267"><ele>591.0</ele><time>2026-03-22T13:57:00.784Z</time></trkpt><trkpt lat="37.6455067" lon="14.8832867"><ele>591.0</ele><time>2026-03-22T13:57:01.785Z</time></trkpt><trkpt lat="37.64532" lon="14.883445"><ele>591.0</ele><time>2026-03-22T13:57:02.785Z</time></trkpt><trkpt lat="37.645135" lon="14.8836033"><ele>591.0</ele><time>2026-03-22T13:57:03.785Z</time></trkpt><trkpt lat="37.6449483" lon="14.88376"><ele>588.3333333333334</ele><time>2026-03-22T13:57:04.785Z</time></trkpt><trkpt lat="37.6447617" lon="14.88392"><ele>585.6666666666667</ele><time>2026-03-22T13:57:05.785Z</time></trkpt><trkpt lat="37.6445767" lon="14.8840767"><ele>583.0</ele><time>2026-03-22T13:57:06.785Z</time></trkpt><trkpt lat="37.64439" lon="14.8842333"><ele>580.0</ele><time>2026-03-22T13:57:07.785Z</time></trkpt><trkpt lat="37.644205" lon="14.8843917"><ele>577.0</ele><time>2026-03-22T13:57:08.785Z</time></trkpt><trkpt lat="37.6440183" lon="14.8845483"><ele>574.0</ele><time>2026-03-22T13:57:09.786Z</time></trkpt><trkpt lat="37.6438333" lon="14.8847083"><ele>574.0</ele><time>2026-03-22T13:57:10.786Z</time></trkpt><trkpt lat="37.643645" lon="14.8848667"><ele>574.0</ele><time>2026-03-22T13:57:11.785Z</time></trkpt><trkpt lat="37.6434633" lon="14.8850233"><ele>574.0</ele><time>2026-03-22T13:57:12.785Z</time></trkpt><trkpt lat="37.6432967" lon="14.8851667"><ele>573.3333333333334</ele><time>2026-03-22T13:57:13.785Z</time></trkpt><trkpt lat="37.6431433" lon="14.8852967"><ele>572.6666666666666</ele><time>2026-03-22T13:57:14.785Z</time></trkpt><trkpt lat="37.643" lon="14.885415"><ele>572.0</ele><time>2026-03-22T13:57:15.786Z</time></trkpt><trkpt lat="37.6428683" lon="14.885525"><ele>571.5</ele><time>2026-03-22T13:57:16.786Z</time></trkpt><trkpt lat="37.642745" lon="14.8856283"><ele>571.0</ele><time>2026-03-22T13:57:17.785Z</time></trkpt><trkpt lat="37.6426317" lon="14.885725"><ele>570.5</ele><time>2026-03-22T13:57:18.785Z</time></trkpt><trkpt lat="37.6425067" lon="14.8858317"><ele>570.0</ele><time>2026-03-22T13:57:19.785Z</time></trkpt><trkpt lat="37.6423767" lon="14.8859417"><ele>570.0</ele><time>2026-03-22T13:57:20.786Z</time></trkpt><trkpt lat="37.6422383" lon="14.88606"><ele>570.0</ele><time>2026-03-22T13:57:21.786Z</time></trkpt><trkpt lat="37.6420917" lon="14.8861867"><ele>570.0</ele><time>2026-03-22T13:57:22.786Z</time></trkpt><trkpt lat="37.6419383" lon="14.8863133"><ele>568.3333333333334</ele><time>2026-03-22T13:57:23.786Z</time></trkpt><trkpt lat="37.641785" lon="14.8864467"><ele>566.6666666666667</ele><time>2026-03-22T13:57:24.786Z</time></trkpt><trkpt lat="37.6416233" lon="14.8865867"><ele>565.0</ele><time>2026-03-22T13:57:25.786Z</time></trkpt><trkpt lat="37.6414567" lon="14.88673"><ele>565.0</ele><time>2026-03-22T13:57:26.786Z</time></trkpt><trkpt lat="37.64128" lon="14.8868783"><ele>565.0</ele><time>2026-03-22T13:57:27.785Z</time></trkpt><trkpt lat="37.6411033" lon="14.8870233"><ele>565.0</ele><time>2026-03-22T13:57:28.785Z</time></trkpt><trkpt lat="37.640925" lon="14.8871717"><ele>563.6666666666667</ele><time>2026-03-22T13:57:29.786Z</time></trkpt><trkpt lat="37.6407433" lon="14.887325"><ele>562.3333333333334</ele><time>2026-03-22T13:57:30.786Z</time></trkpt><trkpt lat="37.6405617" lon="14.8874767"><ele>561.0</ele><time>2026-03-22T13:57:31.785Z</time></trkpt><trkpt lat="37.6403783" lon="14.8876317"><ele>559.0</ele><time>2026-03-22T13:57:32.785Z</time></trkpt><trkpt lat="37.640195" lon="14.8877883"><ele>557.0</ele><time>2026-03-22T13:57:33.785Z</time></trkpt><trkpt lat="37.6400067" lon="14.887945"><ele>555.0</ele><time>2026-03-22T13:57:34.786Z</time></trkpt><trkpt lat="37.6398133" lon="14.8881033"><ele>555.0</ele><time>2026-03-22T13:57:35.786Z</time></trkpt><trkpt lat="37.6396217" lon="14.8882633"><ele>555.0</ele><time>2026-03-22T13:57:36.786Z</time></trkpt><trkpt lat="37.63943" lon="14.8884233"><ele>554.0</ele><time>2026-03-22T13:57:37.786Z</time></trkpt><trkpt lat="37.63924" lon="14.88858"><ele>553.0</ele><time>2026-03-22T13:57:38.785Z</time></trkpt><trkpt lat="37.6390483" lon="14.8887417"><ele>553.0</ele><time>2026-03-22T13:57:39.785Z</time></trkpt><trkpt lat="37.6388567" lon="14.8889033"><ele>553.0</ele><time>2026-03-22T13:57:40.785Z</time></trkpt><trkpt lat="37.638665" lon="14.889065"><ele>552.5</ele><time>2026-03-22T13:57:41.786Z</time></trkpt><trkpt lat="37.6384733" lon="14.8892267"><ele>552.0</ele><time>2026-03-22T13:57:42.785Z</time></trkpt><trkpt lat="37.63828" lon="14.8893883"><ele>552.0</ele><time>2026-03-22T13:57:43.785Z</time></trkpt><trkpt lat="37.6380867" lon="14.8895483"><ele>552.0</ele><time>2026-03-22T13:57:44.785Z</time></trkpt><trkpt lat="37.63789" lon="14.889715"><ele>549.5</ele><time>2026-03-22T13:57:45.786Z</time></trkpt><trkpt lat="37.6376933" lon="14.8898767"><ele>547.0</ele><time>2026-03-22T13:57:46.785Z</time></trkpt><trkpt lat="37.637495" lon="14.890045"><ele>550.5</ele><time>2026-03-22T13:57:47.786Z</time></trkpt><trkpt lat="37.637295" lon="14.8902117"><ele>554.0</ele><time>2026-03-22T13:57:48.785Z</time></trkpt><trkpt lat="37.6370933" lon="14.8903733"><ele>551.0</ele><time>2026-03-22T13:57:49.786Z</time></trkpt><trkpt lat="37.636905" lon="14.89053"><ele>548.0</ele><time>2026-03-22T13:57:50.786Z</time></trkpt><trkpt lat="37.6367217" lon="14.8906833"><ele>545.0</ele><time>2026-03-22T13:57:51.786Z</time></trkpt><trkpt lat="37.636535" lon="14.8908317"><ele>545.6666666666666</ele><time>2026-03-22T13:57:52.786Z</time></trkpt><trkpt lat="37.63635" lon="14.8909867"><ele>546.3333333333334</ele><time>2026-03-22T13:57:53.785Z</time></trkpt><trkpt lat="37.6361617" lon="14.8911433"><ele>547.0</ele><time>2026-03-22T13:57:54.785Z</time></trkpt><trkpt lat="37.6359767" lon="14.8912983"><ele>547.0</ele><time>2026-03-22T13:57:55.785Z</time></trkpt><trkpt lat="37.6357917" lon="14.89145"><ele>547.0</ele><time>2026-03-22T13:57:56.785Z</time></trkpt><trkpt lat="37.6356083" lon="14.8916017"><ele>547.0</ele><time>2026-03-22T13:57:57.786Z</time></trkpt><trkpt lat="37.635425" lon="14.8917567"><ele>545.0</ele><time>2026-03-22T13:57:58.786Z</time></trkpt><trkpt lat="37.63524" lon="14.891915"><ele>543.0</ele><time>2026-03-22T13:57:59.786Z</time></trkpt><trkpt lat="37.6350567" lon="14.8920683"><ele>541.0</ele><time>2026-03-22T13:58:00.786Z</time></trkpt><trkpt lat="37.6348733" lon="14.89222"><ele>541.0</ele><time>2026-03-22T13:58:01.785Z</time></trkpt><trkpt lat="37.6346967" lon="14.8923683"><ele>541.0</ele><time>2026-03-22T13:58:02.785Z</time></trkpt><trkpt lat="37.6345217" lon="14.892515"><ele>541.0</ele><time>2026-03-22T13:58:03.786Z</time></trkpt><trkpt lat="37.6343467" lon="14.8926617"><ele>539.6666666666667</ele><time>2026-03-22T13:58:04.785Z</time></trkpt><trkpt lat="37.6341767" lon="14.8928017"><ele>538.3333333333334</ele><time>2026-03-22T13:58:05.785Z</time></trkpt><trkpt lat="37.6340133" lon="14.8929383"><ele>537.0</ele><time>2026-03-22T13:58:06.785Z</time></trkpt><trkpt lat="37.633845" lon="14.8930783"><ele>537.0</ele><time>2026-03-22T13:58:07.786Z</time></trkpt><trkpt lat="37.63367" lon="14.8932233"><ele>537.0</ele><time>2026-03-22T13:58:08.786Z</time></trkpt><trkpt lat="37.6334917" lon="14.893375"><ele>537.0</ele><time>2026-03-22T13:58:09.785Z</time></trkpt><trkpt lat="37.6333083" lon="14.8935317"><ele>535.6666666666666</ele><time>2026-03-22T13:58:10.785Z</time></trkpt><trkpt lat="37.6331267" lon="14.89369"><ele>534.3333333333333</ele><time>2026-03-22T13:58:11.786Z</time></trkpt><trkpt lat="37.63294" lon="14.8938483"><ele>533.0</ele><time>2026-03-22T13:58:12.785Z</time></trkpt><trkpt lat="37.6327533" lon="14.894005"><ele>533.5</ele><time>2026-03-22T13:58:13.785Z</time></trkpt><trkpt lat="37.632565" lon="14.8941667"><ele>534.0</ele><time>2026-03-22T13:58:14.786Z</time></trkpt><trkpt lat="37.6323717" lon="14.894325"><ele>534.0</ele><time>2026-03-22T13:58:15.786Z</time></trkpt><trkpt lat="37.63218" lon="14.89448"><ele>534.0</ele><time>2026-03-22T13:58:16.786Z</time></trkpt><trkpt lat="37.63199" lon="14.89463"><ele>531.6666666666666</ele><time>2026-03-22T13:58:17.785Z</time></trkpt><trkpt lat="37.6318067" lon="14.8947833"><ele>529.3333333333333</ele><time>2026-03-22T13:58:18.785Z</time></trkpt><trkpt lat="37.6316233" lon="14.8949333"><ele>527.0</ele><time>2026-03-22T13:58:19.786Z</time></trkpt><trkpt lat="37.631445" lon="14.8950817"><ele>528.0</ele><time>2026-03-22T13:58:20.785Z</time></trkpt><trkpt lat="37.6312717" lon="14.895225"><ele>529.0</ele><time>2026-03-22T13:58:21.786Z</time></trkpt><trkpt lat="37.6311067" lon="14.8953583"><ele>530.0</ele><time>2026-03-22T13:58:22.785Z</time></trkpt><trkpt lat="37.6309533" lon="14.895485"><ele>530.0</ele><time>2026-03-22T13:58:23.785Z</time></trkpt><trkpt lat="37.6308033" lon="14.8956067"><ele>530.0</ele><time>2026-03-22T13:58:24.785Z</time></trkpt><trkpt lat="37.6306483" lon="14.8957283"><ele>530.0</ele><time>2026-03-22T13:58:25.785Z</time></trkpt><trkpt lat="37.6304833" lon="14.8958333"><ele>529.6666666666666</ele><time>2026-03-22T13:58:26.785Z</time></trkpt><trkpt lat="37.6303033" lon="14.895915"><ele>529.3333333333334</ele><time>2026-03-22T13:58:27.785Z</time></trkpt><trkpt lat="37.630115" lon="14.8959833"><ele>529.0</ele><time>2026-03-22T13:58:28.786Z</time></trkpt><trkpt lat="37.6299217" lon="14.8960267"><ele>529.0</ele><time>2026-03-22T13:58:29.786Z</time></trkpt><trkpt lat="37.6297233" lon="14.8960583"><ele>529.0</ele><time>2026-03-22T13:58:30.785Z</time></trkpt><trkpt lat="37.62952" lon="14.8960633"><ele>529.0</ele><time>2026-03-22T13:58:31.786Z</time></trkpt><trkpt lat="37.6293133" lon="14.8960467"><ele>528.6666666666667</ele><time>2026-03-22T13:58:32.785Z</time></trkpt><trkpt lat="37.6291083" lon="14.89601"><ele>528.3333333333334</ele><time>2026-03-22T13:58:33.785Z</time></trkpt><trkpt lat="37.6288983" lon="14.8959667"><ele>528.0</ele><time>2026-03-22T13:58:34.785Z</time></trkpt><trkpt lat="37.62869" lon="14.8959283"><ele>525.3333333333334</ele><time>2026-03-22T13:58:35.785Z</time></trkpt><trkpt lat="37.628475" lon="14.8958917"><ele>522.6666666666667</ele><time>2026-03-22T13:58:36.785Z</time></trkpt><trkpt lat="37.628255" lon="14.8958533"><ele>520.0</ele><time>2026-03-22T13:58:37.786Z</time></trkpt><trkpt lat="37.628035" lon="14.8958183"><ele>520.0</ele><time>2026-03-22T13:58:38.785Z</time></trkpt><trkpt lat="37.627815" lon="14.8957817"><ele>520.0</ele><time>2026-03-22T13:58:39.786Z</time></trkpt><trkpt lat="37.62759" lon="14.8957517"><ele>520.0</ele><time>2026-03-22T13:58:40.786Z</time></trkpt><trkpt lat="37.627365" lon="14.8957183"><ele>521.6666666666667</ele><time>2026-03-22T13:58:41.785Z</time></trkpt><trkpt lat="37.6271383" lon="14.8956833"><ele>523.3333333333334</ele><time>2026-03-22T13:58:42.785Z</time></trkpt><trkpt lat="37.6269217" lon="14.8956483"><ele>525.0</ele><time>2026-03-22T13:58:43.785Z</time></trkpt><trkpt lat="37.6267133" lon="14.8956133"><ele>525.0</ele><time>2026-03-22T13:58:44.786Z</time></trkpt><trkpt lat="37.6265133" lon="14.895575"><ele>525.0</ele><time>2026-03-22T13:58:45.785Z</time></trkpt><trkpt lat="37.6263183" lon="14.8955433"><ele>525.0</ele><time>2026-03-22T13:58:46.785Z</time></trkpt><trkpt lat="37.62613" lon="14.8955117"><ele>522.6666666666666</ele><time>2026-03-22T13:58:47.786Z</time></trkpt><trkpt lat="37.625945" lon="14.89548"><ele>520.3333333333333</ele><time>2026-03-22T13:58:48.785Z</time></trkpt><trkpt lat="37.625755" lon="14.8954633"><ele>518.0</ele><time>2026-03-22T13:58:49.786Z</time></trkpt><trkpt lat="37.6255683" lon="14.8954767"><ele>518.0</ele><time>2026-03-22T13:58:50.785Z</time></trkpt><trkpt lat="37.6253867" lon="14.8955083"><ele>518.0</ele><time>2026-03-22T13:58:51.786Z</time></trkpt><trkpt lat="37.625205" lon="14.8955617"><ele>518.0</ele><time>2026-03-22T13:58:52.785Z</time></trkpt><trkpt lat="37.625025" lon="14.8956333"><ele>517.6666666666666</ele><time>2026-03-22T13:58:53.786Z</time></trkpt><trkpt lat="37.6248583" lon="14.8957283"><ele>517.3333333333334</ele><time>2026-03-22T13:58:54.785Z</time></trkpt><trkpt lat="37.624705" lon="14.8958367"><ele>517.0</ele><time>2026-03-22T13:58:55.786Z</time></trkpt><trkpt lat="37.62457" lon="14.8959617"><ele>515.3333333333334</ele><time>2026-03-22T13:58:56.786Z</time></trkpt><trkpt lat="37.6244433" lon="14.8960917"><ele>513.6666666666666</ele><time>2026-03-22T13:58:57.786Z</time></trkpt><trkpt lat="37.624325" lon="14.8962383"><ele>512.0</ele><time>2026-03-22T13:58:58.786Z</time></trkpt><trkpt lat="37.6242167" lon="14.8963967"><ele>512.0</ele><time>2026-03-22T13:58:59.786Z</time></trkpt><trkpt lat="37.6241133" lon="14.89657"><ele>512.0</ele><time>2026-03-22T13:59:00.785Z</time></trkpt><trkpt lat="37.6240117" lon="14.89675"><ele>512.0</ele><time>2026-03-22T13:59:01.785Z</time></trkpt><trkpt lat="37.6239167" lon="14.8969283"><ele>512.6666666666666</ele><time>2026-03-22T13:59:02.786Z</time></trkpt><trkpt lat="37.6238183" lon="14.8971083"><ele>513.3333333333334</ele><time>2026-03-22T13:59:03.785Z</time></trkpt><trkpt lat="37.623725" lon="14.8972817"><ele>514.0</ele><time>2026-03-22T13:59:04.785Z</time></trkpt><trkpt lat="37.623635" lon="14.897455"><ele>509.0</ele><time>2026-03-22T13:59:05.785Z</time></trkpt><trkpt lat="37.6235483" lon="14.8976283"><ele>504.0</ele><time>2026-03-22T13:59:06.786Z</time></trkpt><trkpt lat="37.6234583" lon="14.8978017"><ele>499.0</ele><time>2026-03-22T13:59:07.785Z</time></trkpt><trkpt lat="37.62337" lon="14.89797"><ele>499.0</ele><time>2026-03-22T13:59:08.785Z</time></trkpt><trkpt lat="37.623285" lon="14.8981267"><ele>499.0</ele><time>2026-03-22T13:59:09.785Z</time></trkpt><trkpt lat="37.6232017" lon="14.8982817"><ele>499.0</ele><time>2026-03-22T13:59:10.786Z</time></trkpt><trkpt lat="37.62312" lon="14.8984333"><ele>499.0</ele><time>2026-03-22T13:59:11.786Z</time></trkpt><trkpt lat="37.62304" lon="14.8985883"><ele>499.25</ele><time>2026-03-22T13:59:12.786Z</time></trkpt><trkpt lat="37.6229633" lon="14.8987383"><ele>499.5</ele><time>2026-03-22T13:59:13.785Z</time></trkpt><trkpt lat="37.6228783" lon="14.898895"><ele>499.75</ele><time>2026-03-22T13:59:14.786Z</time></trkpt><trkpt lat="37.6227867" lon="14.8990533"><ele>500.0</ele><time>2026-03-22T13:59:15.785Z</time></trkpt><trkpt lat="37.6226817" lon="14.89922"><ele>499.66666666666663</ele><time>2026-03-22T13:59:16.785Z</time></trkpt><trkpt lat="37.622555" lon="14.8993667"><ele>499.33333333333337</ele><time>2026-03-22T13:59:17.786Z</time></trkpt><trkpt lat="37.6224217" lon="14.8995083"><ele>499.0</ele><time>2026-03-22T13:59:18.785Z</time></trkpt><trkpt lat="37.6222767" lon="14.8996417"><ele>499.0</ele><time>2026-03-22T13:59:19.785Z</time></trkpt><trkpt lat="37.622125" lon="14.8997617"><ele>499.0</ele><time>2026-03-22T13:59:20.786Z</time></trkpt><trkpt lat="37.62196" lon="14.8998583"><ele>499.0</ele><time>2026-03-22T13:59:21.786Z</time></trkpt><trkpt lat="37.62178" lon="14.8999433"><ele>497.6666666666667</ele><time>2026-03-22T13:59:22.786Z</time></trkpt><trkpt lat="37.621595" lon="14.9000183"><ele>496.33333333333337</ele><time>2026-03-22T13:59:23.785Z</time></trkpt><trkpt lat="37.621405" lon="14.9000817"><ele>495.0</ele><time>2026-03-22T13:59:24.786Z</time></trkpt><trkpt lat="37.6212067" lon="14.9001483"><ele>492.0</ele><time>2026-03-22T13:59:25.786Z</time></trkpt><trkpt lat="37.621" lon="14.9002183"><ele>489.0</ele><time>2026-03-22T13:59:26.786Z</time></trkpt><trkpt lat="37.6207867" lon="14.9002867"><ele>486.0</ele><time>2026-03-22T13:59:27.785Z</time></trkpt><trkpt lat="37.6205717" lon="14.9003483"><ele>486.0</ele><time>2026-03-22T13:59:28.786Z</time></trkpt><trkpt lat="37.62035" lon="14.90042"><ele>486.0</ele><time>2026-03-22T13:59:29.785Z</time></trkpt><trkpt lat="37.6201217" lon="14.9004933"><ele>483.0</ele><time>2026-03-22T13:59:30.785Z</time></trkpt><trkpt lat="37.619895" lon="14.900565"><ele>480.0</ele><time>2026-03-22T13:59:31.785Z</time></trkpt><trkpt lat="37.6196633" lon="14.9006367"><ele>478.5</ele><time>2026-03-22T13:59:32.785Z</time></trkpt><trkpt lat="37.6194283" lon="14.9007133"><ele>477.0</ele><time>2026-03-22T13:59:33.785Z</time></trkpt><trkpt lat="37.61919" lon="14.9007867"><ele>477.0</ele><time>2026-03-22T13:59:34.785Z</time></trkpt><trkpt lat="37.6189467" lon="14.9008617"><ele>477.0</ele><time>2026-03-22T13:59:35.786Z</time></trkpt><trkpt lat="37.6187033" lon="14.9009417"><ele>475.5</ele><time>2026-03-22T13:59:36.786Z</time></trkpt><trkpt lat="37.6184567" lon="14.9010233"><ele>474.0</ele><time>2026-03-22T13:59:37.785Z</time></trkpt><trkpt lat="37.61821" lon="14.9011033"><ele>474.0</ele><time>2026-03-22T13:59:38.786Z</time></trkpt><trkpt lat="37.6179617" lon="14.9011833"><ele>474.0</ele><time>2026-03-22T13:59:39.786Z</time></trkpt><trkpt lat="37.6177083" lon="14.9012683"><ele>472.0</ele><time>2026-03-22T13:59:40.786Z</time></trkpt><trkpt lat="37.6174583" lon="14.9013483"><ele>470.0</ele><time>2026-03-22T13:59:41.785Z</time></trkpt><trkpt lat="37.6172017" lon="14.9014267"><ele>467.5</ele><time>2026-03-22T13:59:42.785Z</time></trkpt><trkpt lat="37.616945" lon="14.9015117"><ele>465.0</ele><time>2026-03-22T13:59:43.786Z</time></trkpt><trkpt lat="37.6166883" lon="14.9015967"><ele>465.0</ele><time>2026-03-22T13:59:44.785Z</time></trkpt><trkpt lat="37.61644" lon="14.9016733"><ele>465.0</ele><time>2026-03-22T13:59:45.785Z</time></trkpt><trkpt lat="37.6162083" lon="14.9017483"><ele>465.33333333333337</ele><time>2026-03-22T13:59:46.786Z</time></trkpt><trkpt lat="37.6159883" lon="14.9018217"><ele>465.6666666666667</ele><time>2026-03-22T13:59:47.785Z</time></trkpt><trkpt lat="37.61578" lon="14.9018967"><ele>466.0</ele><time>2026-03-22T13:59:48.786Z</time></trkpt><trkpt lat="37.61558" lon="14.901975"><ele>466.0</ele><time>2026-03-22T13:59:49.785Z</time></trkpt><trkpt lat="37.615385" lon="14.902065"><ele>466.0</ele><time>2026-03-22T13:59:50.786Z</time></trkpt><trkpt lat="37.615195" lon="14.90217"><ele>466.0</ele><time>2026-03-22T13:59:51.786Z</time></trkpt><trkpt lat="37.6150083" lon="14.902285"><ele>463.6666666666667</ele><time>2026-03-22T13:59:52.785Z</time></trkpt><trkpt lat="37.61482" lon="14.9024117"><ele>461.33333333333337</ele><time>2026-03-22T13:59:53.786Z</time></trkpt><trkpt lat="37.6146317" lon="14.9025483"><ele>459.0</ele><time>2026-03-22T13:59:54.786Z</time></trkpt><trkpt lat="37.6144517" lon="14.9026933"><ele>459.0</ele><time>2026-03-22T13:59:55.786Z</time></trkpt><trkpt lat="37.6142683" lon="14.90285"><ele>459.0</ele><time>2026-03-22T13:59:56.785Z</time></trkpt><trkpt lat="37.6140867" lon="14.9030067"><ele>459.0</ele><time>2026-03-22T13:59:57.786Z</time></trkpt><trkpt lat="37.6139017" lon="14.9031633"><ele>459.0</ele><time>2026-03-22T13:59:58.785Z</time></trkpt><trkpt lat="37.61372" lon="14.9033267"><ele>459.0</ele><time>2026-03-22T13:59:59.785Z</time></trkpt><trkpt lat="37.6135417" lon="14.9034867"><ele>459.0</ele><time>2026-03-22T14:00:00.785Z</time></trkpt><trkpt lat="37.61337" lon="14.9036367"><ele>455.66666666666663</ele><time>2026-03-22T14:00:01.785Z</time></trkpt><trkpt lat="37.6132" lon="14.9037867"><ele>452.3333333333333</ele><time>2026-03-22T14:00:02.785Z</time></trkpt><trkpt lat="37.61302" lon="14.9039333"><ele>449.0</ele><time>2026-03-22T14:00:03.785Z</time></trkpt><trkpt lat="37.6128383" lon="14.904085"><ele>447.0</ele><time>2026-03-22T14:00:04.785Z</time></trkpt><trkpt lat="37.61266" lon="14.9042383"><ele>445.0</ele><time>2026-03-22T14:00:05.786Z</time></trkpt><trkpt lat="37.61248" lon="14.904395"><ele>443.0</ele><time>2026-03-22T14:00:06.785Z</time></trkpt><trkpt lat="37.612295" lon="14.90455"><ele>442.3333333333333</ele><time>2026-03-22T14:00:07.785Z</time></trkpt><trkpt lat="37.61211" lon="14.90471"><ele>441.66666666666663</ele><time>2026-03-22T14:00:08.786Z</time></trkpt><trkpt lat="37.6119283" lon="14.9048717"><ele>441.0</ele><time>2026-03-22T14:00:09.786Z</time></trkpt><trkpt lat="37.6117417" lon="14.9050283"><ele>442.5</ele><time>2026-03-22T14:00:10.785Z</time></trkpt><trkpt lat="37.6115567" lon="14.9051883"><ele>444.0</ele><time>2026-03-22T14:00:11.785Z</time></trkpt><trkpt lat="37.6113683" lon="14.9053483"><ele>444.0</ele><time>2026-03-22T14:00:12.785Z</time></trkpt><trkpt lat="37.6111817" lon="14.9055083"><ele>444.0</ele><time>2026-03-22T14:00:13.785Z</time></trkpt><trkpt lat="37.6109917" lon="14.90567"><ele>442.5</ele><time>2026-03-22T14:00:14.785Z</time></trkpt><trkpt lat="37.6108" lon="14.905835"><ele>441.0</ele><time>2026-03-22T14:00:15.786Z</time></trkpt><trkpt lat="37.6106067" lon="14.906"><ele>440.5</ele><time>2026-03-22T14:00:16.785Z</time></trkpt><trkpt lat="37.610415" lon="14.90616"><ele>440.0</ele><time>2026-03-22T14:00:17.786Z</time></trkpt><trkpt lat="37.6102217" lon="14.90633"><ele>437.0</ele><time>2026-03-22T14:00:18.785Z</time></trkpt><trkpt lat="37.6100317" lon="14.9064983"><ele>434.0</ele><time>2026-03-22T14:00:19.785Z</time></trkpt><trkpt lat="37.6098333" lon="14.9066683"><ele>434.5</ele><time>2026-03-22T14:00:20.785Z</time></trkpt><trkpt lat="37.60964" lon="14.9068317"><ele>435.0</ele><time>2026-03-22T14:00:21.786Z</time></trkpt><trkpt lat="37.6094467" lon="14.9070017"><ele>433.0</ele><time>2026-03-22T14:00:22.786Z</time></trkpt><trkpt lat="37.6092533" lon="14.9071683"><ele>431.0</ele><time>2026-03-22T14:00:23.786Z</time></trkpt><trkpt lat="37.609055" lon="14.9073417"><ele>431.0</ele><time>2026-03-22T14:00:24.785Z</time></trkpt><trkpt lat="37.608855" lon="14.9075067"><ele>431.0</ele><time>2026-03-22T14:00:25.786Z</time></trkpt><trkpt lat="37.6086533" lon="14.907675"><ele>429.0</ele><time>2026-03-22T14:00:26.785Z</time></trkpt><trkpt lat="37.6084567" lon="14.90784"><ele>427.0</ele><time>2026-03-22T14:00:27.786Z</time></trkpt><trkpt lat="37.6082583" lon="14.90801"><ele>427.0</ele><time>2026-03-22T14:00:28.785Z</time></trkpt><trkpt lat="37.608065" lon="14.9081833"><ele>427.0</ele><time>2026-03-22T14:00:29.785Z</time></trkpt><trkpt lat="37.607875" lon="14.90835"><ele>425.5</ele><time>2026-03-22T14:00:30.785Z</time></trkpt><trkpt lat="37.6076917" lon="14.908515"><ele>424.0</ele><time>2026-03-22T14:00:31.785Z</time></trkpt><trkpt lat="37.6075067" lon="14.9086833"><ele>424.0</ele><time>2026-03-22T14:00:32.785Z</time></trkpt><trkpt lat="37.60732" lon="14.9088517"><ele>424.0</ele><time>2026-03-22T14:00:33.785Z</time></trkpt><trkpt lat="37.6071267" lon="14.90902"><ele>421.0</ele><time>2026-03-22T14:00:34.786Z</time></trkpt><trkpt lat="37.606935" lon="14.9091883"><ele>418.0</ele><time>2026-03-22T14:00:35.786Z</time></trkpt><trkpt lat="37.6067383" lon="14.9093483"><ele>418.0</ele><time>2026-03-22T14:00:36.785Z</time></trkpt><trkpt lat="37.6065367" lon="14.90951"><ele>418.0</ele><time>2026-03-22T14:00:37.785Z</time></trkpt><trkpt lat="37.6063367" lon="14.909675"><ele>415.5</ele><time>2026-03-22T14:00:38.786Z</time></trkpt><trkpt lat="37.6061317" lon="14.9098417"><ele>413.0</ele><time>2026-03-22T14:00:39.785Z</time></trkpt><trkpt lat="37.605935" lon="14.9100083"><ele>414.0</ele><time>2026-03-22T14:00:40.786Z</time></trkpt><trkpt lat="37.6057367" lon="14.91018"><ele>415.0</ele><time>2026-03-22T14:00:41.785Z</time></trkpt><trkpt lat="37.60554" lon="14.9103433"><ele>415.0</ele><time>2026-03-22T14:00:42.786Z</time></trkpt><trkpt lat="37.60535" lon="14.9105067"><ele>415.0</ele><time>2026-03-22T14:00:43.786Z</time></trkpt><trkpt lat="37.6051717" lon="14.9106567"><ele>415.0</ele><time>2026-03-22T14:00:44.786Z</time></trkpt><trkpt lat="37.6049967" lon="14.9108067"><ele>411.0</ele><time>2026-03-22T14:00:45.786Z</time></trkpt><trkpt lat="37.6048317" lon="14.910955"><ele>407.0</ele><time>2026-03-22T14:00:46.785Z</time></trkpt><trkpt lat="37.6046667" lon="14.9110917"><ele>403.0</ele><time>2026-03-22T14:00:47.786Z</time></trkpt><trkpt lat="37.60449" lon="14.9112133"><ele>401.6666666666667</ele><time>2026-03-22T14:00:48.785Z</time></trkpt><trkpt lat="37.6043067" lon="14.9113117"><ele>400.33333333333337</ele><time>2026-03-22T14:00:49.785Z</time></trkpt><trkpt lat="37.6041133" lon="14.9113967"><ele>399.0</ele><time>2026-03-22T14:00:50.785Z</time></trkpt><trkpt lat="37.6039117" lon="14.91146"><ele>399.0</ele><time>2026-03-22T14:00:51.786Z</time></trkpt><trkpt lat="37.6037033" lon="14.9115"><ele>399.0</ele><time>2026-03-22T14:00:52.785Z</time></trkpt><trkpt lat="37.6034867" lon="14.9115167"><ele>399.0</ele><time>2026-03-22T14:00:53.785Z</time></trkpt><trkpt lat="37.6032667" lon="14.9115233"><ele>397.5</ele><time>2026-03-22T14:00:54.786Z</time></trkpt><trkpt lat="37.6030417" lon="14.9115167"><ele>396.0</ele><time>2026-03-22T14:00:55.786Z</time></trkpt><trkpt lat="37.6028133" lon="14.9115083"><ele>394.5</ele><time>2026-03-22T14:00:56.786Z</time></trkpt><trkpt lat="37.6025817" lon="14.9114967"><ele>393.0</ele><time>2026-03-22T14:00:57.785Z</time></trkpt><trkpt lat="37.60235" lon="14.911485"><ele>393.0</ele><time>2026-03-22T14:00:58.785Z</time></trkpt><trkpt lat="37.6021183" lon="14.911475"><ele>393.0</ele><time>2026-03-22T14:00:59.785Z</time></trkpt><trkpt lat="37.6018867" lon="14.9114633"><ele>391.0</ele><time>2026-03-22T14:01:00.786Z</time></trkpt><trkpt lat="37.601655" lon="14.9114583"><ele>389.0</ele><time>2026-03-22T14:01:01.785Z</time></trkpt><trkpt lat="37.601425" lon="14.9114467"><ele>389.0</ele><time>2026-03-22T14:01:02.786Z</time></trkpt><trkpt lat="37.601195" lon="14.9114367"><ele>389.0</ele><time>2026-03-22T14:01:03.785Z</time></trkpt><trkpt lat="37.6009617" lon="14.9114317"><ele>388.0</ele><time>2026-03-22T14:01:04.786Z</time></trkpt><trkpt lat="37.6007233" lon="14.91143"><ele>387.0</ele><time>2026-03-22T14:01:05.786Z</time></trkpt><trkpt lat="37.6004833" lon="14.91142"><ele>385.5</ele><time>2026-03-22T14:01:06.786Z</time></trkpt><trkpt lat="37.60025" lon="14.91141"><ele>384.0</ele><time>2026-03-22T14:01:07.785Z</time></trkpt><trkpt lat="37.6000217" lon="14.9113983"><ele>384.0</ele><time>2026-03-22T14:01:08.786Z</time></trkpt><trkpt lat="37.5997983" lon="14.911385"><ele>384.0</ele><time>2026-03-22T14:01:09.785Z</time></trkpt><trkpt lat="37.59958" lon="14.9113733"><ele>384.0</ele><time>2026-03-22T14:01:10.786Z</time></trkpt><trkpt lat="37.5993617" lon="14.91137"><ele>381.6666666666667</ele><time>2026-03-22T14:01:11.785Z</time></trkpt><trkpt lat="37.5991467" lon="14.9113783"><ele>379.33333333333337</ele><time>2026-03-22T14:01:12.785Z</time></trkpt><trkpt lat="37.5989333" lon="14.9113967"><ele>377.0</ele><time>2026-03-22T14:01:13.786Z</time></trkpt><trkpt lat="37.59872" lon="14.9114267"><ele>374.6666666666667</ele><time>2026-03-22T14:01:14.786Z</time></trkpt><trkpt lat="37.5985067" lon="14.9114717"><ele>372.3333333333333</ele><time>2026-03-22T14:01:15.786Z</time></trkpt><trkpt lat="37.5982917" lon="14.9115333"><ele>370.0</ele><time>2026-03-22T14:01:16.786Z</time></trkpt><trkpt lat="37.5980783" lon="14.9116167"><ele>370.0</ele><time>2026-03-22T14:01:17.785Z</time></trkpt><trkpt lat="37.5978683" lon="14.9117167"><ele>370.0</ele><time>2026-03-22T14:01:18.785Z</time></trkpt><trkpt lat="37.597655" lon="14.911825"><ele>369.0</ele><time>2026-03-22T14:01:19.785Z</time></trkpt><trkpt lat="37.59744" lon="14.9119433"><ele>368.0</ele><time>2026-03-22T14:01:20.785Z</time></trkpt><trkpt lat="37.5972233" lon="14.9120683"><ele>368.0</ele><time>2026-03-22T14:01:21.785Z</time></trkpt><trkpt lat="37.5970083" lon="14.91219"><ele>368.0</ele><time>2026-03-22T14:01:22.785Z</time></trkpt><trkpt lat="37.5967883" lon="14.912315"><ele>365.5</ele><time>2026-03-22T14:01:23.786Z</time></trkpt><trkpt lat="37.59657" lon="14.91244"><ele>363.0</ele><time>2026-03-22T14:01:24.785Z</time></trkpt><trkpt lat="37.59635" lon="14.9125617"><ele>365.0</ele><time>2026-03-22T14:01:25.786Z</time></trkpt><trkpt lat="37.5961267" lon="14.912685"><ele>367.0</ele><time>2026-03-22T14:01:26.785Z</time></trkpt><trkpt lat="37.5959" lon="14.91281"><ele>367.0</ele><time>2026-03-22T14:01:27.785Z</time></trkpt><trkpt lat="37.5956717" lon="14.9129367"><ele>367.0</ele><time>2026-03-22T14:01:28.785Z</time></trkpt><trkpt lat="37.5954433" lon="14.9130633"><ele>364.5</ele><time>2026-03-22T14:01:29.785Z</time></trkpt><trkpt lat="37.5952133" lon="14.9131883"><ele>362.0</ele><time>2026-03-22T14:01:30.785Z</time></trkpt><trkpt lat="37.5949867" lon="14.9133233"><ele>365.5</ele><time>2026-03-22T14:01:31.786Z</time></trkpt><trkpt lat="37.5947567" lon="14.9134483"><ele>369.0</ele><time>2026-03-22T14:01:32.785Z</time></trkpt><trkpt lat="37.5945283" lon="14.913575"><ele>367.5</ele><time>2026-03-22T14:01:33.786Z</time></trkpt><trkpt lat="37.5943" lon="14.9137017"><ele>366.0</ele><time>2026-03-22T14:01:34.786Z</time></trkpt><trkpt lat="37.5940717" lon="14.913825"><ele>366.0</ele><time>2026-03-22T14:01:35.786Z</time></trkpt><trkpt lat="37.5938433" lon="14.913945"><ele>366.0</ele><time>2026-03-22T14:01:36.786Z</time></trkpt><trkpt lat="37.5936133" lon="14.9140633"><ele>365.5</ele><time>2026-03-22T14:01:37.786Z</time></trkpt><trkpt lat="37.593385" lon="14.9141833"><ele>365.0</ele><time>2026-03-22T14:01:38.786Z</time></trkpt><trkpt lat="37.5931592" lon="14.9143031"><ele>365.0</ele><time>2026-03-22T14:01:39.785Z</time></trkpt><trkpt lat="37.5929323" lon="14.9144253"><ele>365.0</ele><time>2026-03-22T14:01:40.785Z</time></trkpt><trkpt lat="37.592707" lon="14.9145483"><ele>362.0</ele><time>2026-03-22T14:01:41.785Z</time></trkpt><trkpt lat="37.5924799" lon="14.9146735"><ele>359.0</ele><time>2026-03-22T14:01:42.786Z</time></trkpt><trkpt lat="37.5922539" lon="14.9148022"><ele>359.0</ele><time>2026-03-22T14:01:43.785Z</time></trkpt><trkpt lat="37.5920286" lon="14.9149274"><ele>359.0</ele><time>2026-03-22T14:01:44.785Z</time></trkpt><trkpt lat="37.5918071" lon="14.915054"><ele>361.0</ele><time>2026-03-22T14:01:45.786Z</time></trkpt><trkpt lat="37.5915821" lon="14.9151819"><ele>363.0</ele><time>2026-03-22T14:01:46.785Z</time></trkpt><trkpt lat="37.5913571" lon="14.9153077"><ele>359.5</ele><time>2026-03-22T14:01:47.785Z</time></trkpt><trkpt lat="37.5911375" lon="14.9154308"><ele>356.0</ele><time>2026-03-22T14:01:48.786Z</time></trkpt><trkpt lat="37.5909316" lon="14.9155427"><ele>356.0</ele><time>2026-03-22T14:01:49.786Z</time></trkpt><trkpt lat="37.590734" lon="14.9156491"><ele>356.0</ele><time>2026-03-22T14:01:50.785Z</time></trkpt><trkpt lat="37.5905405" lon="14.9157462"><ele>356.0</ele><time>2026-03-22T14:01:51.785Z</time></trkpt><trkpt lat="37.5903427" lon="14.9158324"><ele>354.6666666666667</ele><time>2026-03-22T14:01:52.785Z</time></trkpt><trkpt lat="37.59014" lon="14.9159012"><ele>353.3333333333333</ele><time>2026-03-22T14:01:53.786Z</time></trkpt><trkpt lat="37.5899444" lon="14.9159602"><ele>352.0</ele><time>2026-03-22T14:01:54.785Z</time></trkpt><trkpt lat="37.5897511" lon="14.916011"><ele>352.0</ele><time>2026-03-22T14:01:55.786Z</time></trkpt><trkpt lat="37.5895641" lon="14.9160454"><ele>352.0</ele><time>2026-03-22T14:01:56.786Z</time></trkpt><trkpt lat="37.5893826" lon="14.9160738"><ele>352.0</ele><time>2026-03-22T14:01:57.785Z</time></trkpt><trkpt lat="37.589201" lon="14.9160927"><ele>351.3333333333333</ele><time>2026-03-22T14:01:58.786Z</time></trkpt><trkpt lat="37.5890079" lon="14.9161137"><ele>350.6666666666667</ele><time>2026-03-22T14:01:59.786Z</time></trkpt><trkpt lat="37.5888068" lon="14.9161377"><ele>350.0</ele><time>2026-03-22T14:02:00.786Z</time></trkpt><trkpt lat="37.5886057" lon="14.9161615"><ele>350.0</ele><time>2026-03-22T14:02:01.785Z</time></trkpt><trkpt lat="37.5883894" lon="14.916183"><ele>350.0</ele><time>2026-03-22T14:02:02.786Z</time></trkpt><trkpt lat="37.5881627" lon="14.9161999"><ele>350.0</ele><time>2026-03-22T14:02:03.786Z</time></trkpt><trkpt lat="37.5879331" lon="14.9162165"><ele>345.0</ele><time>2026-03-22T14:02:04.785Z</time></trkpt><trkpt lat="37.5877022" lon="14.9162377"><ele>340.0</ele><time>2026-03-22T14:02:05.786Z</time></trkpt><trkpt lat="37.5874711" lon="14.9162617"><ele>340.0</ele><time>2026-03-22T14:02:06.785Z</time></trkpt><trkpt lat="37.5872379" lon="14.9162868"><ele>340.0</ele><time>2026-03-22T14:02:07.786Z</time></trkpt><trkpt lat="37.5870072" lon="14.9163108"><ele>338.0</ele><time>2026-03-22T14:02:08.785Z</time></trkpt><trkpt lat="37.586776" lon="14.9163332"><ele>336.0</ele><time>2026-03-22T14:02:09.785Z</time></trkpt><trkpt lat="37.5865576" lon="14.9163537"><ele>336.0</ele><time>2026-03-22T14:02:10.785Z</time></trkpt><trkpt lat="37.5863463" lon="14.9163712"><ele>336.0</ele><time>2026-03-22T14:02:11.786Z</time></trkpt><trkpt lat="37.5861343" lon="14.9163881"><ele>336.0</ele><time>2026-03-22T14:02:12.785Z</time></trkpt><trkpt lat="37.585925" lon="14.9164104"><ele>334.0</ele><time>2026-03-22T14:02:13.786Z</time></trkpt><trkpt lat="37.5857294" lon="14.9164308"><ele>332.0</ele><time>2026-03-22T14:02:14.786Z</time></trkpt><trkpt lat="37.5855455" lon="14.9164507"><ele>330.0</ele><time>2026-03-22T14:02:15.786Z</time></trkpt><trkpt lat="37.5853752" lon="14.9164794"><ele>330.0</ele><time>2026-03-22T14:02:16.785Z</time></trkpt><trkpt lat="37.5852118" lon="14.9165142"><ele>330.0</ele><time>2026-03-22T14:02:17.786Z</time></trkpt><trkpt lat="37.585054" lon="14.9165442"><ele>330.0</ele><time>2026-03-22T14:02:18.785Z</time></trkpt><trkpt lat="37.5849042" lon="14.9165729"><ele>330.0</ele><time>2026-03-22T14:02:19.785Z</time></trkpt><trkpt lat="37.5847555" lon="14.9166099"><ele>330.0</ele><time>2026-03-22T14:02:20.785Z</time></trkpt><trkpt lat="37.5846033" lon="14.9166502"><ele>330.0</ele><time>2026-03-22T14:02:21.786Z</time></trkpt><trkpt lat="37.5844424" lon="14.916699"><ele>331.0</ele><time>2026-03-22T14:02:22.785Z</time></trkpt><trkpt lat="37.5842743" lon="14.9167584"><ele>332.0</ele><time>2026-03-22T14:02:23.785Z</time></trkpt><trkpt lat="37.5840984" lon="14.9168235"><ele>333.0</ele><time>2026-03-22T14:02:24.786Z</time></trkpt><trkpt lat="37.5839154" lon="14.9168882"><ele>333.0</ele><time>2026-03-22T14:02:25.786Z</time></trkpt><trkpt lat="37.5837341" lon="14.916951"><ele>333.0</ele><time>2026-03-22T14:02:26.785Z</time></trkpt><trkpt lat="37.583555" lon="14.9170117"><ele>333.0</ele><time>2026-03-22T14:02:27.785Z</time></trkpt><trkpt lat="37.583375" lon="14.9170833"><ele>331.3333333333333</ele><time>2026-03-22T14:02:28.785Z</time></trkpt><trkpt lat="37.5831917" lon="14.91715"><ele>329.66666666666663</ele><time>2026-03-22T14:02:29.786Z</time></trkpt><trkpt lat="37.58301" lon="14.9172117"><ele>328.0</ele><time>2026-03-22T14:02:30.786Z</time></trkpt><trkpt lat="37.58282" lon="14.9172817"><ele>325.3333333333333</ele><time>2026-03-22T14:02:31.785Z</time></trkpt><trkpt lat="37.5826317" lon="14.9173467"><ele>322.6666666666667</ele><time>2026-03-22T14:02:32.785Z</time></trkpt><trkpt lat="37.5824317" lon="14.9174167"><ele>320.0</ele><time>2026-03-22T14:02:33.786Z</time></trkpt><trkpt lat="37.5822317" lon="14.91749"><ele>320.0</ele><time>2026-03-22T14:02:34.786Z</time></trkpt><trkpt lat="37.582035" lon="14.91756"><ele>320.0</ele><time>2026-03-22T14:02:35.785Z</time></trkpt><trkpt lat="37.5818367" lon="14.9176317"><ele>320.0</ele><time>2026-03-22T14:02:36.786Z</time></trkpt><trkpt lat="37.581635" lon="14.9177017"><ele>320.6666666666667</ele><time>2026-03-22T14:02:37.785Z</time></trkpt><trkpt lat="37.5814317" lon="14.9177733"><ele>321.3333333333333</ele><time>2026-03-22T14:02:38.785Z</time></trkpt><trkpt lat="37.58124" lon="14.9178467"><ele>322.0</ele><time>2026-03-22T14:02:39.786Z</time></trkpt><trkpt lat="37.5810533" lon="14.9179167"><ele>320.3333333333333</ele><time>2026-03-22T14:02:40.785Z</time></trkpt><trkpt lat="37.5808667" lon="14.9179833"><ele>318.6666666666667</ele><time>2026-03-22T14:02:41.786Z</time></trkpt><trkpt lat="37.58069" lon="14.9180433"><ele>317.0</ele><time>2026-03-22T14:02:42.785Z</time></trkpt><trkpt lat="37.5805233" lon="14.9181033"><ele>317.0</ele><time>2026-03-22T14:02:43.786Z</time></trkpt><trkpt lat="37.5803683" lon="14.918155"><ele>317.0</ele><time>2026-03-22T14:02:44.785Z</time></trkpt><trkpt lat="37.5802217" lon="14.9182033"><ele>317.0</ele><time>2026-03-22T14:02:45.786Z</time></trkpt><trkpt lat="37.5800717" lon="14.9182583"><ele>316.6666666666667</ele><time>2026-03-22T14:02:46.786Z</time></trkpt><trkpt lat="37.5799183" lon="14.9183133"><ele>316.3333333333333</ele><time>2026-03-22T14:02:47.785Z</time></trkpt><trkpt lat="37.5797617" lon="14.9183683"><ele>316.0</ele><time>2026-03-22T14:02:48.786Z</time></trkpt><trkpt lat="37.579595" lon="14.9184283"><ele>314.3333333333333</ele><time>2026-03-22T14:02:49.785Z</time></trkpt><trkpt lat="37.5794267" lon="14.9184867"><ele>312.6666666666667</ele><time>2026-03-22T14:02:50.785Z</time></trkpt><trkpt lat="37.57925" lon="14.9185483"><ele>311.0</ele><time>2026-03-22T14:02:51.785Z</time></trkpt><trkpt lat="37.5790667" lon="14.9186067"><ele>311.0</ele><time>2026-03-22T14:02:52.786Z</time></trkpt><trkpt lat="37.5788933" lon="14.9186633"><ele>311.0</ele><time>2026-03-22T14:02:53.786Z</time></trkpt><trkpt lat="37.578715" lon="14.91873"><ele>311.0</ele><time>2026-03-22T14:02:54.786Z</time></trkpt><trkpt lat="37.57854" lon="14.9187917"><ele>310.33333333333337</ele><time>2026-03-22T14:02:55.786Z</time></trkpt><trkpt lat="37.5783683" lon="14.9188383"><ele>309.6666666666667</ele><time>2026-03-22T14:02:56.785Z</time></trkpt><trkpt lat="37.578185" lon="14.9188667"><ele>309.0</ele><time>2026-03-22T14:02:57.786Z</time></trkpt><trkpt lat="37.577995" lon="14.918875"><ele>307.6666666666667</ele><time>2026-03-22T14:02:58.785Z</time></trkpt><trkpt lat="37.577805" lon="14.9188617"><ele>306.33333333333337</ele><time>2026-03-22T14:02:59.786Z</time></trkpt><trkpt lat="37.5776033" lon="14.9188383"><ele>305.0</ele><time>2026-03-22T14:03:00.785Z</time></trkpt><trkpt lat="37.5774033" lon="14.9187917"><ele>305.0</ele><time>2026-03-22T14:03:01.786Z</time></trkpt><trkpt lat="37.5771983" lon="14.9187317"><ele>305.0</ele><time>2026-03-22T14:03:02.785Z</time></trkpt><trkpt lat="37.57699" lon="14.91865"><ele>305.0</ele><time>2026-03-22T14:03:03.785Z</time></trkpt><trkpt lat="37.5767867" lon="14.91855"><ele>304.33333333333337</ele><time>2026-03-22T14:03:04.786Z</time></trkpt><trkpt lat="37.5765767" lon="14.9184367"><ele>303.6666666666667</ele><time>2026-03-22T14:03:05.786Z</time></trkpt><trkpt lat="37.576375" lon="14.9183233"><ele>303.0</ele><time>2026-03-22T14:03:06.786Z</time></trkpt><trkpt lat="37.5761717" lon="14.91821"><ele>302.3333333333333</ele><time>2026-03-22T14:03:07.786Z</time></trkpt><trkpt lat="37.575975" lon="14.9180983"><ele>301.66666666666663</ele><time>2026-03-22T14:03:08.785Z</time></trkpt><trkpt lat="37.575775" lon="14.91799"><ele>301.0</ele><time>2026-03-22T14:03:09.786Z</time></trkpt><trkpt lat="37.5755833" lon="14.9178783"><ele>301.0</ele><time>2026-03-22T14:03:10.785Z</time></trkpt><trkpt lat="37.5753967" lon="14.9177683"><ele>301.0</ele><time>2026-03-22T14:03:11.785Z</time></trkpt><trkpt lat="37.5752083" lon="14.9176633"><ele>301.0</ele><time>2026-03-22T14:03:12.785Z</time></trkpt><trkpt lat="37.5750183" lon="14.9175567"><ele>299.66666666666663</ele><time>2026-03-22T14:03:13.785Z</time></trkpt><trkpt lat="37.57483" lon="14.9174533"><ele>298.3333333333333</ele><time>2026-03-22T14:03:14.785Z</time></trkpt><trkpt lat="37.5746433" lon="14.9173467"><ele>297.0</ele><time>2026-03-22T14:03:15.786Z</time></trkpt><trkpt lat="37.5744517" lon="14.9172367"><ele>297.0</ele><time>2026-03-22T14:03:16.786Z</time></trkpt><trkpt lat="37.5742517" lon="14.917135"><ele>297.0</ele><time>2026-03-22T14:03:17.785Z</time></trkpt><trkpt lat="37.5740483" lon="14.9170383"><ele>297.0</ele><time>2026-03-22T14:03:18.786Z</time></trkpt><trkpt lat="37.573835" lon="14.9169467"><ele>297.5</ele><time>2026-03-22T14:03:19.786Z</time></trkpt><trkpt lat="37.573615" lon="14.9168633"><ele>298.0</ele><time>2026-03-22T14:03:20.786Z</time></trkpt><trkpt lat="37.5733883" lon="14.9167833"><ele>288.5</ele><time>2026-03-22T14:03:21.786Z</time></trkpt><trkpt lat="37.5731583" lon="14.916705"><ele>279.0</ele><time>2026-03-22T14:03:22.785Z</time></trkpt><trkpt lat="37.5729233" lon="14.9166283"><ele>280.0</ele><time>2026-03-22T14:03:23.786Z</time></trkpt><trkpt lat="37.5726833" lon="14.9165517"><ele>281.0</ele><time>2026-03-22T14:03:24.785Z</time></trkpt><trkpt lat="37.5724383" lon="14.9164783"><ele>281.0</ele><time>2026-03-22T14:03:25.785Z</time></trkpt><trkpt lat="37.5721983" lon="14.9164"><ele>281.0</ele><time>2026-03-22T14:03:26.786Z</time></trkpt><trkpt lat="37.5719567" lon="14.9163233"><ele>281.5</ele><time>2026-03-22T14:03:27.786Z</time></trkpt><trkpt lat="37.5717117" lon="14.9162483"><ele>282.0</ele><time>2026-03-22T14:03:28.786Z</time></trkpt><trkpt lat="37.571475" lon="14.9161767"><ele>282.0</ele><time>2026-03-22T14:03:29.785Z</time></trkpt><trkpt lat="37.5712467" lon="14.91611"><ele>282.0</ele><time>2026-03-22T14:03:30.786Z</time></trkpt><trkpt lat="37.5710317" lon="14.9160583"><ele>282.3333333333333</ele><time>2026-03-22T14:03:31.785Z</time></trkpt><trkpt lat="37.57082" lon="14.9160233"><ele>282.66666666666663</ele><time>2026-03-22T14:03:32.786Z</time></trkpt><trkpt lat="37.5706083" lon="14.9160083"><ele>283.0</ele><time>2026-03-22T14:03:33.785Z</time></trkpt><trkpt lat="37.5704" lon="14.9160183"><ele>284.0</ele><time>2026-03-22T14:03:34.786Z</time></trkpt><trkpt lat="37.57019" lon="14.916055"><ele>285.0</ele><time>2026-03-22T14:03:35.786Z</time></trkpt><trkpt lat="37.56998" lon="14.916105"><ele>286.0</ele><time>2026-03-22T14:03:36.785Z</time></trkpt><trkpt lat="37.56977" lon="14.916155"><ele>286.0</ele><time>2026-03-22T14:03:37.786Z</time></trkpt><trkpt lat="37.569565" lon="14.916215"><ele>286.0</ele><time>2026-03-22T14:03:38.785Z</time></trkpt><trkpt lat="37.5693633" lon="14.9162833"><ele>286.0</ele><time>2026-03-22T14:03:39.785Z</time></trkpt><trkpt lat="37.5691583" lon="14.9163533"><ele>286.0</ele><time>2026-03-22T14:03:40.786Z</time></trkpt><trkpt lat="37.5689533" lon="14.9164183"><ele>286.0</ele><time>2026-03-22T14:03:41.786Z</time></trkpt><trkpt lat="37.5687467" lon="14.9164767"><ele>286.0</ele><time>2026-03-22T14:03:42.786Z</time></trkpt><trkpt lat="37.5685383" lon="14.9165367"><ele>283.3333333333333</ele><time>2026-03-22T14:03:43.785Z</time></trkpt><trkpt lat="37.5683283" lon="14.9165933"><ele>280.6666666666667</ele><time>2026-03-22T14:03:44.786Z</time></trkpt><trkpt lat="37.5681167" lon="14.91665"><ele>278.0</ele><time>2026-03-22T14:03:45.786Z</time></trkpt><trkpt lat="37.5679033" lon="14.916705"><ele>278.33333333333337</ele><time>2026-03-22T14:03:46.786Z</time></trkpt><trkpt lat="37.5676933" lon="14.9167617"><ele>278.6666666666667</ele><time>2026-03-22T14:03:47.786Z</time></trkpt><trkpt lat="37.5674817" lon="14.9168183"><ele>279.0</ele><time>2026-03-22T14:03:48.785Z</time></trkpt><trkpt lat="37.5672683" lon="14.9168733"><ele>279.0</ele><time>2026-03-22T14:03:49.786Z</time></trkpt><trkpt lat="37.567055" lon="14.9169367"><ele>279.0</ele><time>2026-03-22T14:03:50.786Z</time></trkpt><trkpt lat="37.566845" lon="14.9170033"><ele>279.0</ele><time>2026-03-22T14:03:51.786Z</time></trkpt><trkpt lat="37.5666367" lon="14.9170883"><ele>278.6666666666667</ele><time>2026-03-22T14:03:52.786Z</time></trkpt><trkpt lat="37.56643" lon="14.917185"><ele>278.33333333333337</ele><time>2026-03-22T14:03:53.786Z</time></trkpt><trkpt lat="37.5662317" lon="14.9172867"><ele>278.0</ele><time>2026-03-22T14:03:54.786Z</time></trkpt><trkpt lat="37.5660367" lon="14.9174083"><ele>278.33333333333337</ele><time>2026-03-22T14:03:55.786Z</time></trkpt><trkpt lat="37.5658417" lon="14.9175383"><ele>278.6666666666667</ele><time>2026-03-22T14:03:56.785Z</time></trkpt><trkpt lat="37.56565" lon="14.9176733"><ele>279.0</ele><time>2026-03-22T14:03:57.785Z</time></trkpt><trkpt lat="37.5654633" lon="14.9178133"><ele>279.3333333333333</ele><time>2026-03-22T14:03:58.786Z</time></trkpt><trkpt lat="37.5652833" lon="14.917955"><ele>279.66666666666663</ele><time>2026-03-22T14:03:59.786Z</time></trkpt><trkpt lat="37.5651033" lon="14.9180967"><ele>280.0</ele><time>2026-03-22T14:04:00.786Z</time></trkpt><trkpt lat="37.564925" lon="14.91824"><ele>280.0</ele><time>2026-03-22T14:04:01.786Z</time></trkpt><trkpt lat="37.5647467" lon="14.9183833"><ele>280.0</ele><time>2026-03-22T14:04:02.786Z</time></trkpt><trkpt lat="37.56457" lon="14.9185283"><ele>280.0</ele><time>2026-03-22T14:04:03.786Z</time></trkpt><trkpt lat="37.56439" lon="14.91867"><ele>285.0</ele><time>2026-03-22T14:04:04.785Z</time></trkpt><trkpt lat="37.5642117" lon="14.91881"><ele>290.0</ele><time>2026-03-22T14:04:05.785Z</time></trkpt><trkpt lat="37.5640323" lon="14.9189493"><ele>295.0</ele><time>2026-03-22T14:04:06.785Z</time></trkpt><trkpt lat="37.5638537" lon="14.9190873"><ele>296.66666666666663</ele><time>2026-03-22T14:04:07.785Z</time></trkpt><trkpt lat="37.5636766" lon="14.9192299"><ele>298.3333333333333</ele><time>2026-03-22T14:04:08.786Z</time></trkpt><trkpt lat="37.563503" lon="14.9193716"><ele>300.0</ele><time>2026-03-22T14:04:09.785Z</time></trkpt><trkpt lat="37.5633305" lon="14.9195118"><ele>300.0</ele><time>2026-03-22T14:04:10.785Z</time></trkpt><trkpt lat="37.563159" lon="14.9196504"><ele>300.0</ele><time>2026-03-22T14:04:11.786Z</time></trkpt><trkpt lat="37.5629888" lon="14.9197874"><ele>300.0</ele><time>2026-03-22T14:04:12.785Z</time></trkpt><trkpt lat="37.5628226" lon="14.9199238"><ele>300.0</ele><time>2026-03-22T14:04:13.786Z</time></trkpt><trkpt lat="37.5626574" lon="14.920059"><ele>300.0</ele><time>2026-03-22T14:04:14.785Z</time></trkpt><trkpt lat="37.5624937" lon="14.9201918"><ele>300.0</ele><time>2026-03-22T14:04:15.786Z</time></trkpt><trkpt lat="37.5623339" lon="14.9203226"><ele>300.0</ele><time>2026-03-22T14:04:16.785Z</time></trkpt><trkpt lat="37.5621768" lon="14.9204524"><ele>300.0</ele><time>2026-03-22T14:04:17.785Z</time></trkpt><trkpt lat="37.5620191" lon="14.9205844"><ele>300.0</ele><time>2026-03-22T14:04:18.786Z</time></trkpt><trkpt lat="37.5618633" lon="14.9207174"><ele>300.0</ele><time>2026-03-22T14:04:19.786Z</time></trkpt><trkpt lat="37.5617078" lon="14.9208518"><ele>300.0</ele><time>2026-03-22T14:04:20.785Z</time></trkpt><trkpt lat="37.5615595" lon="14.920985"><ele>300.0</ele><time>2026-03-22T14:04:21.785Z</time></trkpt><trkpt lat="37.5614183" lon="14.9211198"><ele>301.6666666666667</ele><time>2026-03-22T14:04:22.785Z</time></trkpt><trkpt lat="37.5612806" lon="14.9212655"><ele>303.33333333333337</ele><time>2026-03-22T14:04:23.785Z</time></trkpt><trkpt lat="37.5611466" lon="14.9214203"><ele>305.0</ele><time>2026-03-22T14:04:24.786Z</time></trkpt><trkpt lat="37.5610127" lon="14.9215761"><ele>306.33333333333337</ele><time>2026-03-22T14:04:25.786Z</time></trkpt><trkpt lat="37.5608814" lon="14.921743"><ele>307.6666666666667</ele><time>2026-03-22T14:04:26.785Z</time></trkpt><trkpt lat="37.5607528" lon="14.9219194"><ele>309.0</ele><time>2026-03-22T14:04:27.785Z</time></trkpt><trkpt lat="37.5606212" lon="14.9221035"><ele>309.0</ele><time>2026-03-22T14:04:28.786Z</time></trkpt><trkpt lat="37.5604903" lon="14.9222957"><ele>309.0</ele><time>2026-03-22T14:04:29.786Z</time></trkpt><trkpt lat="37.5603639" lon="14.9224925"><ele>309.0</ele><time>2026-03-22T14:04:30.786Z</time></trkpt><trkpt lat="37.5602397" lon="14.9226973"><ele>307.3333333333333</ele><time>2026-03-22T14:04:31.786Z</time></trkpt><trkpt lat="37.5601189" lon="14.922906"><ele>305.66666666666663</ele><time>2026-03-22T14:04:32.785Z</time></trkpt><trkpt lat="37.5599992" lon="14.923117"><ele>304.0</ele><time>2026-03-22T14:04:33.785Z</time></trkpt><trkpt lat="37.5598784" lon="14.9233233"><ele>304.0</ele><time>2026-03-22T14:04:34.785Z</time></trkpt><trkpt lat="37.5597536" lon="14.9235332"><ele>304.0</ele><time>2026-03-22T14:04:35.785Z</time></trkpt><trkpt lat="37.5596261" lon="14.9237448"><ele>304.0</ele><time>2026-03-22T14:04:36.786Z</time></trkpt><trkpt lat="37.5595015" lon="14.923954"><ele>304.0</ele><time>2026-03-22T14:04:37.786Z</time></trkpt><trkpt lat="37.5593766" lon="14.9241616"><ele>304.0</ele><time>2026-03-22T14:04:38.786Z</time></trkpt><trkpt lat="37.5592537" lon="14.9243746"><ele>304.0</ele><time>2026-03-22T14:04:39.785Z</time></trkpt><trkpt lat="37.5591313" lon="14.9245872"><ele>305.3333333333333</ele><time>2026-03-22T14:04:40.785Z</time></trkpt><trkpt lat="37.5590081" lon="14.9248018"><ele>306.6666666666667</ele><time>2026-03-22T14:04:41.785Z</time></trkpt><trkpt lat="37.5588812" lon="14.9250147"><ele>308.0</ele><time>2026-03-22T14:04:42.785Z</time></trkpt><trkpt lat="37.5587569" lon="14.9252243"><ele>307.6666666666667</ele><time>2026-03-22T14:04:43.785Z</time></trkpt><trkpt lat="37.5586353" lon="14.9254367"><ele>307.3333333333333</ele><time>2026-03-22T14:04:44.785Z</time></trkpt><trkpt lat="37.5585125" lon="14.9256521"><ele>307.0</ele><time>2026-03-22T14:04:45.785Z</time></trkpt><trkpt lat="37.5583857" lon="14.9258665"><ele>308.0</ele><time>2026-03-22T14:04:46.786Z</time></trkpt><trkpt lat="37.5582554" lon="14.926086"><ele>309.0</ele><time>2026-03-22T14:04:47.785Z</time></trkpt><trkpt lat="37.5581251" lon="14.9263029"><ele>310.0</ele><time>2026-03-22T14:04:48.785Z</time></trkpt><trkpt lat="37.557995" lon="14.926522"><ele>309.3333333333333</ele><time>2026-03-22T14:04:49.786Z</time></trkpt><trkpt lat="37.5578649" lon="14.9267406"><ele>308.6666666666667</ele><time>2026-03-22T14:04:50.786Z</time></trkpt><trkpt lat="37.5577372" lon="14.9269624"><ele>308.0</ele><time>2026-03-22T14:04:51.786Z</time></trkpt><trkpt lat="37.5576121" lon="14.9271818"><ele>308.0</ele><time>2026-03-22T14:04:52.786Z</time></trkpt><trkpt lat="37.5574827" lon="14.9274032"><ele>308.0</ele><time>2026-03-22T14:04:53.785Z</time></trkpt><trkpt lat="37.557355" lon="14.927625"><ele>308.0</ele><time>2026-03-22T14:04:54.785Z</time></trkpt><trkpt lat="37.5572267" lon="14.9278417"><ele>308.33333333333337</ele><time>2026-03-22T14:04:55.785Z</time></trkpt><trkpt lat="37.5570883" lon="14.9280633"><ele>308.6666666666667</ele><time>2026-03-22T14:04:56.785Z</time></trkpt><trkpt lat="37.55695" lon="14.9282817"><ele>309.0</ele><time>2026-03-22T14:04:57.785Z</time></trkpt><trkpt lat="37.55681" lon="14.9285"><ele>308.3333333333333</ele><time>2026-03-22T14:04:58.786Z</time></trkpt><trkpt lat="37.5566733" lon="14.9287183"><ele>307.66666666666663</ele><time>2026-03-22T14:04:59.786Z</time></trkpt><trkpt lat="37.55654" lon="14.9289383"><ele>307.0</ele><time>2026-03-22T14:05:00.785Z</time></trkpt><trkpt lat="37.5564083" lon="14.929165"><ele>308.0</ele><time>2026-03-22T14:05:01.785Z</time></trkpt><trkpt lat="37.556275" lon="14.9293917"><ele>309.0</ele><time>2026-03-22T14:05:02.786Z</time></trkpt><trkpt lat="37.55614" lon="14.9296183"><ele>310.0</ele><time>2026-03-22T14:05:03.786Z</time></trkpt><trkpt lat="37.5560017" lon="14.929845"><ele>307.5</ele><time>2026-03-22T14:05:04.785Z</time></trkpt><trkpt lat="37.5558633" lon="14.9300767"><ele>305.0</ele><time>2026-03-22T14:05:05.786Z</time></trkpt><trkpt lat="37.5557267" lon="14.9303067"><ele>305.0</ele><time>2026-03-22T14:05:06.785Z</time></trkpt><trkpt lat="37.5555917" lon="14.9305317"><ele>305.0</ele><time>2026-03-22T14:05:07.786Z</time></trkpt><trkpt lat="37.5554567" lon="14.93076"><ele>305.0</ele><time>2026-03-22T14:05:08.786Z</time></trkpt><trkpt lat="37.55532" lon="14.9309917"><ele>299.0</ele><time>2026-03-22T14:05:09.785Z</time></trkpt><trkpt lat="37.55518" lon="14.9312217"><ele>293.0</ele><time>2026-03-22T14:05:10.786Z</time></trkpt><trkpt lat="37.5550383" lon="14.931455"><ele>293.0</ele><time>2026-03-22T14:05:11.785Z</time></trkpt><trkpt lat="37.5549033" lon="14.93169"><ele>293.0</ele><time>2026-03-22T14:05:12.786Z</time></trkpt><trkpt lat="37.554765" lon="14.931925"><ele>293.0</ele><time>2026-03-22T14:05:13.785Z</time></trkpt><trkpt lat="37.5546333" lon="14.932155"><ele>293.0</ele><time>2026-03-22T14:05:14.785Z</time></trkpt><trkpt lat="37.5545033" lon="14.9323833"><ele>293.0</ele><time>2026-03-22T14:05:15.785Z</time></trkpt><trkpt lat="37.5543733" lon="14.9326133"><ele>291.0</ele><time>2026-03-22T14:05:16.785Z</time></trkpt><trkpt lat="37.5542367" lon="14.9328433"><ele>289.0</ele><time>2026-03-22T14:05:17.785Z</time></trkpt><trkpt lat="37.5541" lon="14.93308"><ele>289.0</ele><time>2026-03-22T14:05:18.785Z</time></trkpt><trkpt lat="37.553955" lon="14.933325"><ele>289.0</ele><time>2026-03-22T14:05:19.785Z</time></trkpt><trkpt lat="37.5538133" lon="14.9335633"><ele>285.5</ele><time>2026-03-22T14:05:20.786Z</time></trkpt><trkpt lat="37.5536683" lon="14.9338"><ele>282.0</ele><time>2026-03-22T14:05:21.786Z</time></trkpt><trkpt lat="37.553525" lon="14.9340433"><ele>283.0</ele><time>2026-03-22T14:05:22.785Z</time></trkpt><trkpt lat="37.553385" lon="14.9342833"><ele>284.0</ele><time>2026-03-22T14:05:23.786Z</time></trkpt><trkpt lat="37.5532467" lon="14.9345167"><ele>284.0</ele><time>2026-03-22T14:05:24.786Z</time></trkpt><trkpt lat="37.5531033" lon="14.9347533"><ele>284.0</ele><time>2026-03-22T14:05:25.785Z</time></trkpt><trkpt lat="37.5529617" lon="14.9349967"><ele>280.5</ele><time>2026-03-22T14:05:26.786Z</time></trkpt><trkpt lat="37.5528217" lon="14.9352367"><ele>277.0</ele><time>2026-03-22T14:05:27.786Z</time></trkpt><trkpt lat="37.5526817" lon="14.9354833"><ele>277.0</ele><time>2026-03-22T14:05:28.786Z</time></trkpt><trkpt lat="37.552535" lon="14.9357267"><ele>277.0</ele><time>2026-03-22T14:05:29.785Z</time></trkpt><trkpt lat="37.5523883" lon="14.9359717"><ele>277.5</ele><time>2026-03-22T14:05:30.785Z</time></trkpt><trkpt lat="37.5522433" lon="14.9362217"><ele>278.0</ele><time>2026-03-22T14:05:31.785Z</time></trkpt><trkpt lat="37.5521" lon="14.936465"><ele>276.33333333333337</ele><time>2026-03-22T14:05:32.786Z</time></trkpt><trkpt lat="37.55196" lon="14.9366933"><ele>274.6666666666667</ele><time>2026-03-22T14:05:33.786Z</time></trkpt><trkpt lat="37.5518283" lon="14.93691"><ele>273.0</ele><time>2026-03-22T14:05:34.786Z</time></trkpt><trkpt lat="37.5517017" lon="14.937125"><ele>273.0</ele><time>2026-03-22T14:05:35.786Z</time></trkpt><trkpt lat="37.551575" lon="14.93734"><ele>273.0</ele><time>2026-03-22T14:05:36.785Z</time></trkpt><trkpt lat="37.551445" lon="14.9375617"><ele>273.0</ele><time>2026-03-22T14:05:37.785Z</time></trkpt><trkpt lat="37.55132" lon="14.937785"><ele>272.6666666666667</ele><time>2026-03-22T14:05:38.786Z</time></trkpt><trkpt lat="37.5512" lon="14.93799"><ele>272.33333333333337</ele><time>2026-03-22T14:05:39.786Z</time></trkpt><trkpt lat="37.5510817" lon="14.9381867"><ele>272.0</ele><time>2026-03-22T14:05:40.786Z</time></trkpt><trkpt lat="37.5509617" lon="14.9383917"><ele>272.0</ele><time>2026-03-22T14:05:41.786Z</time></trkpt><trkpt lat="37.5508367" lon="14.938605"><ele>272.0</ele><time>2026-03-22T14:05:42.786Z</time></trkpt><trkpt lat="37.5507067" lon="14.938825"><ele>272.0</ele><time>2026-03-22T14:05:43.786Z</time></trkpt><trkpt lat="37.5505733" lon="14.9390433"><ele>272.0</ele><time>2026-03-22T14:05:44.786Z</time></trkpt><trkpt lat="37.5504417" lon="14.9392667"><ele>272.0</ele><time>2026-03-22T14:05:45.786Z</time></trkpt><trkpt lat="37.5503083" lon="14.9394967"><ele>272.0</ele><time>2026-03-22T14:05:46.786Z</time></trkpt><trkpt lat="37.5501767" lon="14.9397233"><ele>268.5</ele><time>2026-03-22T14:05:47.786Z</time></trkpt><trkpt lat="37.55004" lon="14.93995"><ele>265.0</ele><time>2026-03-22T14:05:48.786Z</time></trkpt><trkpt lat="37.5499017" lon="14.94018"><ele>265.0</ele><time>2026-03-22T14:05:49.786Z</time></trkpt><trkpt lat="37.549765" lon="14.9404117"><ele>265.0</ele><time>2026-03-22T14:05:50.786Z</time></trkpt><trkpt lat="37.54963" lon="14.9406433"><ele>263.0</ele><time>2026-03-22T14:05:51.785Z</time></trkpt><trkpt lat="37.5494917" lon="14.940875"><ele>261.0</ele><time>2026-03-22T14:05:52.785Z</time></trkpt><trkpt lat="37.5493533" lon="14.94111"><ele>259.5</ele><time>2026-03-22T14:05:53.786Z</time></trkpt><trkpt lat="37.5492033" lon="14.9413483"><ele>258.0</ele><time>2026-03-22T14:05:54.785Z</time></trkpt><trkpt lat="37.54907" lon="14.9415933"><ele>258.0</ele><time>2026-03-22T14:05:55.785Z</time></trkpt><trkpt lat="37.5489283" lon="14.941835"><ele>258.0</ele><time>2026-03-22T14:05:56.785Z</time></trkpt><trkpt lat="37.5487883" lon="14.9420733"><ele>256.5</ele><time>2026-03-22T14:05:57.785Z</time></trkpt><trkpt lat="37.5486417" lon="14.942315"><ele>255.0</ele><time>2026-03-22T14:05:58.786Z</time></trkpt><trkpt lat="37.5484983" lon="14.9425583"><ele>255.0</ele><time>2026-03-22T14:05:59.786Z</time></trkpt><trkpt lat="37.548355" lon="14.9428"><ele>255.0</ele><time>2026-03-22T14:06:00.786Z</time></trkpt><trkpt lat="37.5482067" lon="14.94304"><ele>255.0</ele><time>2026-03-22T14:06:01.785Z</time></trkpt><trkpt lat="37.548065" lon="14.9432867"><ele>255.0</ele><time>2026-03-22T14:06:02.786Z</time></trkpt><trkpt lat="37.54792" lon="14.9435283"><ele>252.5</ele><time>2026-03-22T14:06:03.785Z</time></trkpt><trkpt lat="37.5477733" lon="14.9437783"><ele>250.0</ele><time>2026-03-22T14:06:04.786Z</time></trkpt><trkpt lat="37.54763" lon="14.9440233"><ele>250.0</ele><time>2026-03-22T14:06:05.786Z</time></trkpt><trkpt lat="37.5474867" lon="14.9442683"><ele>250.0</ele><time>2026-03-22T14:06:06.786Z</time></trkpt><trkpt lat="37.5473433" lon="14.9445133"><ele>250.0</ele><time>2026-03-22T14:06:07.785Z</time></trkpt><trkpt lat="37.547195" lon="14.9447583"><ele>250.0</ele><time>2026-03-22T14:06:08.785Z</time></trkpt><trkpt lat="37.54705" lon="14.9450067"><ele>249.0</ele><time>2026-03-22T14:06:09.785Z</time></trkpt><trkpt lat="37.546905" lon="14.9452533"><ele>248.0</ele><time>2026-03-22T14:06:10.786Z</time></trkpt><trkpt lat="37.5467617" lon="14.945495"><ele>248.0</ele><time>2026-03-22T14:06:11.786Z</time></trkpt><trkpt lat="37.5466183" lon="14.9457417"><ele>248.0</ele><time>2026-03-22T14:06:12.785Z</time></trkpt><trkpt lat="37.5464767" lon="14.945985"><ele>248.0</ele><time>2026-03-22T14:06:13.786Z</time></trkpt><trkpt lat="37.54634" lon="14.9462267"><ele>248.0</ele><time>2026-03-22T14:06:14.785Z</time></trkpt><trkpt lat="37.546195" lon="14.9464667"><ele>249.5</ele><time>2026-03-22T14:06:15.785Z</time></trkpt><trkpt lat="37.5460483" lon="14.9467117"><ele>251.0</ele><time>2026-03-22T14:06:16.786Z</time></trkpt><trkpt lat="37.5459033" lon="14.946955"><ele>251.0</ele><time>2026-03-22T14:06:17.786Z</time></trkpt><trkpt lat="37.545765" lon="14.9471933"><ele>251.0</ele><time>2026-03-22T14:06:18.785Z</time></trkpt><trkpt lat="37.5456267" lon="14.9474333"><ele>250.5</ele><time>2026-03-22T14:06:19.786Z</time></trkpt><trkpt lat="37.54549" lon="14.947675"><ele>250.0</ele><time>2026-03-22T14:06:20.786Z</time></trkpt><trkpt lat="37.5453517" lon="14.94792"><ele>250.0</ele><time>2026-03-22T14:06:21.785Z</time></trkpt><trkpt lat="37.545215" lon="14.9481617"><ele>250.0</ele><time>2026-03-22T14:06:22.786Z</time></trkpt><trkpt lat="37.5450733" lon="14.948405"><ele>250.0</ele><time>2026-03-22T14:06:23.786Z</time></trkpt><trkpt lat="37.5449333" lon="14.9486433"><ele>250.0</ele><time>2026-03-22T14:06:24.786Z</time></trkpt><trkpt lat="37.5447983" lon="14.9488783"><ele>250.0</ele><time>2026-03-22T14:06:25.786Z</time></trkpt><trkpt lat="37.5446617" lon="14.949115"><ele>250.0</ele><time>2026-03-22T14:06:26.786Z</time></trkpt><trkpt lat="37.5445233" lon="14.9493533"><ele>250.5</ele><time>2026-03-22T14:06:27.785Z</time></trkpt><trkpt lat="37.5443817" lon="14.9495883"><ele>251.0</ele><time>2026-03-22T14:06:28.786Z</time></trkpt><trkpt lat="37.5442383" lon="14.9498183"><ele>249.5</ele><time>2026-03-22T14:06:29.786Z</time></trkpt><trkpt lat="37.5440983" lon="14.950045"><ele>248.0</ele><time>2026-03-22T14:06:30.786Z</time></trkpt><trkpt lat="37.5439583" lon="14.9502717"><ele>248.0</ele><time>2026-03-22T14:06:31.786Z</time></trkpt><trkpt lat="37.54382" lon="14.9505017"><ele>248.0</ele><time>2026-03-22T14:06:32.785Z</time></trkpt><trkpt lat="37.5436817" lon="14.9507317"><ele>248.0</ele><time>2026-03-22T14:06:33.785Z</time></trkpt><trkpt lat="37.543545" lon="14.9509567"><ele>248.0</ele><time>2026-03-22T14:06:34.785Z</time></trkpt><trkpt lat="37.543405" lon="14.9511917"><ele>248.0</ele><time>2026-03-22T14:06:35.785Z</time></trkpt><trkpt lat="37.54327" lon="14.951425"><ele>248.0</ele><time>2026-03-22T14:06:36.786Z</time></trkpt><trkpt lat="37.5431317" lon="14.9516583"><ele>248.5</ele><time>2026-03-22T14:06:37.786Z</time></trkpt><trkpt lat="37.5429917" lon="14.9518917"><ele>249.0</ele><time>2026-03-22T14:06:38.786Z</time></trkpt><trkpt lat="37.5428533" lon="14.9521217"><ele>249.0</ele><time>2026-03-22T14:06:39.785Z</time></trkpt><trkpt lat="37.5427117" lon="14.9523567"><ele>249.0</ele><time>2026-03-22T14:06:40.785Z</time></trkpt><trkpt lat="37.5425733" lon="14.95259"><ele>247.5</ele><time>2026-03-22T14:06:41.786Z</time></trkpt><trkpt lat="37.5424367" lon="14.9528217"><ele>246.0</ele><time>2026-03-22T14:06:42.786Z</time></trkpt><trkpt lat="37.5423017" lon="14.9530533"><ele>246.0</ele><time>2026-03-22T14:06:43.785Z</time></trkpt><trkpt lat="37.542165" lon="14.9532817"><ele>246.0</ele><time>2026-03-22T14:06:44.786Z</time></trkpt><trkpt lat="37.5420317" lon="14.953515"><ele>247.5</ele><time>2026-03-22T14:06:45.785Z</time></trkpt><trkpt lat="37.5418967" lon="14.95375"><ele>249.0</ele><time>2026-03-22T14:06:46.786Z</time></trkpt><trkpt lat="37.5417617" lon="14.9539817"><ele>249.0</ele><time>2026-03-22T14:06:47.786Z</time></trkpt><trkpt lat="37.5416267" lon="14.9542133"><ele>249.0</ele><time>2026-03-22T14:06:48.786Z</time></trkpt><trkpt lat="37.5414917" lon="14.954445"><ele>249.0</ele><time>2026-03-22T14:06:49.786Z</time></trkpt><trkpt lat="37.5413583" lon="14.954675"><ele>249.0</ele><time>2026-03-22T14:06:50.786Z</time></trkpt><trkpt lat="37.5412267" lon="14.954905"><ele>248.66666666666669</ele><time>2026-03-22T14:06:51.785Z</time></trkpt><trkpt lat="37.5410967" lon="14.9551317"><ele>248.33333333333334</ele><time>2026-03-22T14:06:52.785Z</time></trkpt><trkpt lat="37.5409717" lon="14.9553633"><ele>248.0</ele><time>2026-03-22T14:06:53.785Z</time></trkpt><trkpt lat="37.54085" lon="14.9555967"><ele>248.0</ele><time>2026-03-22T14:06:54.785Z</time></trkpt><trkpt lat="37.540735" lon="14.95583"><ele>248.0</ele><time>2026-03-22T14:06:55.785Z</time></trkpt><trkpt lat="37.54062" lon="14.9560617"><ele>248.0</ele><time>2026-03-22T14:06:56.785Z</time></trkpt><trkpt lat="37.5405167" lon="14.95629"><ele>248.33333333333334</ele><time>2026-03-22T14:06:57.786Z</time></trkpt><trkpt lat="37.5404233" lon="14.9565133"><ele>248.66666666666669</ele><time>2026-03-22T14:06:58.785Z</time></trkpt><trkpt lat="37.5403367" lon="14.956735"><ele>249.0</ele><time>2026-03-22T14:06:59.786Z</time></trkpt><trkpt lat="37.5402533" lon="14.9569533"><ele>249.0</ele><time>2026-03-22T14:07:00.786Z</time></trkpt><trkpt lat="37.5401733" lon="14.9571733"><ele>249.0</ele><time>2026-03-22T14:07:01.785Z</time></trkpt><trkpt lat="37.5400967" lon="14.9573967"><ele>249.0</ele><time>2026-03-22T14:07:02.785Z</time></trkpt><trkpt lat="37.540025" lon="14.9576267"><ele>249.0</ele><time>2026-03-22T14:07:03.786Z</time></trkpt><trkpt lat="37.539955" lon="14.9578633"><ele>249.0</ele><time>2026-03-22T14:07:04.785Z</time></trkpt><trkpt lat="37.539885" lon="14.95811"><ele>249.0</ele><time>2026-03-22T14:07:05.785Z</time></trkpt><trkpt lat="37.5398217" lon="14.958355"><ele>249.0</ele><time>2026-03-22T14:07:06.785Z</time></trkpt><trkpt lat="37.539765" lon="14.9586033"><ele>249.0</ele><time>2026-03-22T14:07:07.786Z</time></trkpt><trkpt lat="37.53971" lon="14.9588617"><ele>249.0</ele><time>2026-03-22T14:07:08.786Z</time></trkpt><trkpt lat="37.5396567" lon="14.9591217"><ele>249.33333333333331</ele><time>2026-03-22T14:07:09.785Z</time></trkpt><trkpt lat="37.5396067" lon="14.95939"><ele>249.66666666666666</ele><time>2026-03-22T14:07:10.785Z</time></trkpt><trkpt lat="37.53956" lon="14.9596567"><ele>250.0</ele><time>2026-03-22T14:07:11.786Z</time></trkpt><trkpt lat="37.539515" lon="14.9599317"><ele>249.0</ele><time>2026-03-22T14:07:12.786Z</time></trkpt><trkpt lat="37.53947" lon="14.9602083"><ele>248.0</ele><time>2026-03-22T14:07:13.785Z</time></trkpt><trkpt lat="37.5394283" lon="14.9604883"><ele>248.0</ele><time>2026-03-22T14:07:14.786Z</time></trkpt><trkpt lat="37.5393867" lon="14.9607683"><ele>248.0</ele><time>2026-03-22T14:07:15.785Z</time></trkpt><trkpt lat="37.5393433" lon="14.9610467"><ele>248.33333333333334</ele><time>2026-03-22T14:07:16.785Z</time></trkpt><trkpt lat="37.5393033" lon="14.961325"><ele>248.66666666666669</ele><time>2026-03-22T14:07:17.786Z</time></trkpt><trkpt lat="37.53926" lon="14.9616"><ele>249.0</ele><time>2026-03-22T14:07:18.786Z</time></trkpt><trkpt lat="37.5392167" lon="14.96188"><ele>247.5</ele><time>2026-03-22T14:07:19.785Z</time></trkpt><trkpt lat="37.539175" lon="14.9621633"><ele>246.0</ele><time>2026-03-22T14:07:20.786Z</time></trkpt><trkpt lat="37.53913" lon="14.962445"><ele>244.0</ele><time>2026-03-22T14:07:21.785Z</time></trkpt><trkpt lat="37.5390917" lon="14.962735"><ele>242.0</ele><time>2026-03-22T14:07:22.785Z</time></trkpt><trkpt lat="37.53905" lon="14.9630283"><ele>242.0</ele><time>2026-03-22T14:07:23.786Z</time></trkpt><trkpt lat="37.539015" lon="14.9633217"><ele>242.0</ele><time>2026-03-22T14:07:24.786Z</time></trkpt><trkpt lat="37.5389733" lon="14.9636217"><ele>242.0</ele><time>2026-03-22T14:07:25.786Z</time></trkpt><trkpt lat="37.538925" lon="14.963925"><ele>242.0</ele><time>2026-03-22T14:07:26.785Z</time></trkpt><trkpt lat="37.5388717" lon="14.9642233"><ele>242.0</ele><time>2026-03-22T14:07:27.785Z</time></trkpt><trkpt lat="37.5388217" lon="14.96452"><ele>242.0</ele><time>2026-03-22T14:07:28.785Z</time></trkpt><trkpt lat="37.538775" lon="14.9648217"><ele>242.5</ele><time>2026-03-22T14:07:29.785Z</time></trkpt><trkpt lat="37.5387283" lon="14.9651217"><ele>243.0</ele><time>2026-03-22T14:07:30.786Z</time></trkpt><trkpt lat="37.538685" lon="14.9654283"><ele>243.5</ele><time>2026-03-22T14:07:31.785Z</time></trkpt><trkpt lat="37.5386467" lon="14.9657317"><ele>244.0</ele><time>2026-03-22T14:07:32.785Z</time></trkpt><trkpt lat="37.5386067" lon="14.9660317"><ele>245.0</ele><time>2026-03-22T14:07:33.786Z</time></trkpt><trkpt lat="37.53856" lon="14.9663317"><ele>246.0</ele><time>2026-03-22T14:07:34.785Z</time></trkpt><trkpt lat="37.5385117" lon="14.9666317"><ele>246.5</ele><time>2026-03-22T14:07:35.786Z</time></trkpt><trkpt lat="37.5384667" lon="14.966925"><ele>247.0</ele><time>2026-03-22T14:07:36.786Z</time></trkpt><trkpt lat="37.5384233" lon="14.9672217"><ele>247.0</ele><time>2026-03-22T14:07:37.786Z</time></trkpt><trkpt lat="37.5383817" lon="14.96752"><ele>247.0</ele><time>2026-03-22T14:07:38.786Z</time></trkpt><trkpt lat="37.5383383" lon="14.9678133"><ele>248.0</ele><time>2026-03-22T14:07:39.786Z</time></trkpt><trkpt lat="37.5382917" lon="14.9681"><ele>249.0</ele><time>2026-03-22T14:07:40.786Z</time></trkpt><trkpt lat="37.53825" lon="14.9683883"><ele>250.0</ele><time>2026-03-22T14:07:41.786Z</time></trkpt><trkpt lat="37.5382067" lon="14.96867"><ele>251.0</ele><time>2026-03-22T14:07:42.785Z</time></trkpt><trkpt lat="37.53816" lon="14.968955"><ele>252.0</ele><time>2026-03-22T14:07:43.786Z</time></trkpt><trkpt lat="37.53811" lon="14.9692333"><ele>253.0</ele><time>2026-03-22T14:07:44.785Z</time></trkpt><trkpt lat="37.5380683" lon="14.969515"><ele>253.0</ele><time>2026-03-22T14:07:45.786Z</time></trkpt><trkpt lat="37.5380233" lon="14.9697883"><ele>253.0</ele><time>2026-03-22T14:07:46.785Z</time></trkpt><trkpt lat="37.53798" lon="14.9700617"><ele>253.0</ele><time>2026-03-22T14:07:47.786Z</time></trkpt><trkpt lat="37.5379317" lon="14.9703383"><ele>253.33333333333331</ele><time>2026-03-22T14:07:48.785Z</time></trkpt><trkpt lat="37.5378883" lon="14.970615"><ele>253.66666666666669</ele><time>2026-03-22T14:07:49.785Z</time></trkpt><trkpt lat="37.5378467" lon="14.97089"><ele>254.0</ele><time>2026-03-22T14:07:50.786Z</time></trkpt><trkpt lat="37.5378117" lon="14.9711783"><ele>254.0</ele><time>2026-03-22T14:07:51.785Z</time></trkpt><trkpt lat="37.53777" lon="14.9714567"><ele>254.0</ele><time>2026-03-22T14:07:52.785Z</time></trkpt><trkpt lat="37.537735" lon="14.9717333"><ele>254.0</ele><time>2026-03-22T14:07:53.785Z</time></trkpt><trkpt lat="37.5376967" lon="14.972015"><ele>254.33333333333334</ele><time>2026-03-22T14:07:54.785Z</time></trkpt><trkpt lat="37.537655" lon="14.9722867"><ele>254.66666666666669</ele><time>2026-03-22T14:07:55.786Z</time></trkpt><trkpt lat="37.537615" lon="14.9725683"><ele>255.0</ele><time>2026-03-22T14:07:56.785Z</time></trkpt><trkpt lat="37.5375717" lon="14.9728517"><ele>255.33333333333331</ele><time>2026-03-22T14:07:57.787Z</time></trkpt><trkpt lat="37.53754" lon="14.97313"><ele>255.66666666666666</ele><time>2026-03-22T14:07:58.786Z</time></trkpt><trkpt lat="37.5375033" lon="14.9734067"><ele>256.0</ele><time>2026-03-22T14:07:59.786Z</time></trkpt><trkpt lat="37.5374583" lon="14.9736817"><ele>256.0</ele><time>2026-03-22T14:08:00.787Z</time></trkpt><trkpt lat="37.5374083" lon="14.9739533"><ele>256.0</ele><time>2026-03-22T14:08:01.787Z</time></trkpt><trkpt lat="37.5373683" lon="14.9742383"><ele>256.0</ele><time>2026-03-22T14:08:02.787Z</time></trkpt><trkpt lat="37.5373286" lon="14.9745043"><ele>256.0</ele><time>2026-03-22T14:08:03.787Z</time></trkpt><trkpt lat="37.5372879" lon="14.974752"><ele>256.0</ele><time>2026-03-22T14:08:04.787Z</time></trkpt><trkpt lat="37.5372543" lon="14.9749901"><ele>255.33333333333331</ele><time>2026-03-22T14:08:05.787Z</time></trkpt><trkpt lat="37.5372161" lon="14.9752162"><ele>254.66666666666669</ele><time>2026-03-22T14:08:06.787Z</time></trkpt><trkpt lat="37.5371824" lon="14.9754419"><ele>254.0</ele><time>2026-03-22T14:08:07.786Z</time></trkpt><trkpt lat="37.5371456" lon="14.9756638"><ele>254.33333333333334</ele><time>2026-03-22T14:08:08.787Z</time></trkpt><trkpt lat="37.5371125" lon="14.9758874"><ele>254.66666666666669</ele><time>2026-03-22T14:08:09.787Z</time></trkpt><trkpt lat="37.5370791" lon="14.9761134"><ele>255.0</ele><time>2026-03-22T14:08:10.786Z</time></trkpt><trkpt lat="37.5370457" lon="14.9763418"><ele>255.0</ele><time>2026-03-22T14:08:11.786Z</time></trkpt><trkpt lat="37.5370123" lon="14.9765728"><ele>255.0</ele><time>2026-03-22T14:08:12.787Z</time></trkpt><trkpt lat="37.5369777" lon="14.9768026"><ele>255.0</ele><time>2026-03-22T14:08:13.786Z</time></trkpt><trkpt lat="37.536945" lon="14.9770364"><ele>254.66666666666669</ele><time>2026-03-22T14:08:14.786Z</time></trkpt><trkpt lat="37.536913" lon="14.9772712"><ele>254.33333333333334</ele><time>2026-03-22T14:08:15.787Z</time></trkpt><trkpt lat="37.5368778" lon="14.9775065"><ele>254.0</ele><time>2026-03-22T14:08:16.786Z</time></trkpt><trkpt lat="37.5368415" lon="14.977742"><ele>254.33333333333334</ele><time>2026-03-22T14:08:17.786Z</time></trkpt><trkpt lat="37.5368049" lon="14.9779775"><ele>254.66666666666669</ele><time>2026-03-22T14:08:18.787Z</time></trkpt><trkpt lat="37.5367693" lon="14.9782116"><ele>255.0</ele><time>2026-03-22T14:08:19.787Z</time></trkpt><trkpt lat="37.5367332" lon="14.9784469"><ele>255.0</ele><time>2026-03-22T14:08:20.786Z</time></trkpt><trkpt lat="37.5366923" lon="14.978684"><ele>255.0</ele><time>2026-03-22T14:08:21.786Z</time></trkpt><trkpt lat="37.5366487" lon="14.9789172"><ele>255.0</ele><time>2026-03-22T14:08:22.787Z</time></trkpt><trkpt lat="37.536604" lon="14.9791507"><ele>255.66666666666669</ele><time>2026-03-22T14:08:23.787Z</time></trkpt><trkpt lat="37.5365547" lon="14.9793817"><ele>256.33333333333337</ele><time>2026-03-22T14:08:24.787Z</time></trkpt><trkpt lat="37.5364982" lon="14.979607"><ele>257.0</ele><time>2026-03-22T14:08:25.787Z</time></trkpt><trkpt lat="37.536435" lon="14.9798362"><ele>256.6666666666667</ele><time>2026-03-22T14:08:26.786Z</time></trkpt><trkpt lat="37.5363648" lon="14.9800659"><ele>256.3333333333333</ele><time>2026-03-22T14:08:27.786Z</time></trkpt><trkpt lat="37.5362883" lon="14.9802938"><ele>256.0</ele><time>2026-03-22T14:08:28.787Z</time></trkpt><trkpt lat="37.5362083" lon="14.9805204"><ele>255.66666666666666</ele><time>2026-03-22T14:08:29.786Z</time></trkpt><trkpt lat="37.5361273" lon="14.9807454"><ele>255.33333333333331</ele><time>2026-03-22T14:08:30.786Z</time></trkpt><trkpt lat="37.5360392" lon="14.9809699"><ele>255.0</ele><time>2026-03-22T14:08:31.786Z</time></trkpt><trkpt lat="37.5359474" lon="14.9811935"><ele>255.0</ele><time>2026-03-22T14:08:32.786Z</time></trkpt><trkpt lat="37.5358544" lon="14.9814196"><ele>255.0</ele><time>2026-03-22T14:08:33.787Z</time></trkpt><trkpt lat="37.5357644" lon="14.9816431"><ele>255.0</ele><time>2026-03-22T14:08:34.786Z</time></trkpt><trkpt lat="37.5356767" lon="14.9818631"><ele>255.33333333333331</ele><time>2026-03-22T14:08:35.787Z</time></trkpt><trkpt lat="37.5355858" lon="14.9820881"><ele>255.66666666666666</ele><time>2026-03-22T14:08:36.787Z</time></trkpt><trkpt lat="37.5354892" lon="14.9823181"><ele>256.0</ele><time>2026-03-22T14:08:37.786Z</time></trkpt><trkpt lat="37.5353998" lon="14.9825498"><ele>256.3333333333333</ele><time>2026-03-22T14:08:38.787Z</time></trkpt><trkpt lat="37.5353119" lon="14.9827823"><ele>256.6666666666667</ele><time>2026-03-22T14:08:39.786Z</time></trkpt><trkpt lat="37.5352226" lon="14.9830157"><ele>257.0</ele><time>2026-03-22T14:08:40.787Z</time></trkpt><trkpt lat="37.5351291" lon="14.9832529"><ele>256.6666666666667</ele><time>2026-03-22T14:08:41.786Z</time></trkpt><trkpt lat="37.5350289" lon="14.9834923"><ele>256.3333333333333</ele><time>2026-03-22T14:08:42.786Z</time></trkpt><trkpt lat="37.5349353" lon="14.983734"><ele>256.0</ele><time>2026-03-22T14:08:43.787Z</time></trkpt><trkpt lat="37.5348418" lon="14.9839738"><ele>255.66666666666666</ele><time>2026-03-22T14:08:44.786Z</time></trkpt><trkpt lat="37.5347496" lon="14.9842126"><ele>255.33333333333331</ele><time>2026-03-22T14:08:45.787Z</time></trkpt><trkpt lat="37.5346535" lon="14.984448"><ele>255.0</ele><time>2026-03-22T14:08:46.786Z</time></trkpt><trkpt lat="37.5345587" lon="14.9846774"><ele>255.0</ele><time>2026-03-22T14:08:47.787Z</time></trkpt><trkpt lat="37.5344684" lon="14.9849092"><ele>255.0</ele><time>2026-03-22T14:08:48.787Z</time></trkpt><trkpt lat="37.5343771" lon="14.9851377"><ele>255.0</ele><time>2026-03-22T14:08:49.787Z</time></trkpt><trkpt lat="37.5342842" lon="14.9853687"><ele>255.0</ele><time>2026-03-22T14:08:50.787Z</time></trkpt><trkpt lat="37.5341917" lon="14.985595"><ele>255.0</ele><time>2026-03-22T14:08:51.786Z</time></trkpt><trkpt lat="37.5340983" lon="14.9858217"><ele>255.0</ele><time>2026-03-22T14:08:52.786Z</time></trkpt><trkpt lat="37.5339967" lon="14.9860483"><ele>255.0</ele><time>2026-03-22T14:08:53.787Z</time></trkpt><trkpt lat="37.533895" lon="14.986275"><ele>255.0</ele><time>2026-03-22T14:08:54.786Z</time></trkpt><trkpt lat="37.533795" lon="14.9865017"><ele>255.0</ele><time>2026-03-22T14:08:55.786Z</time></trkpt><trkpt lat="37.53369" lon="14.9867233"><ele>255.0</ele><time>2026-03-22T14:08:56.787Z</time></trkpt><trkpt lat="37.5335717" lon="14.9869467"><ele>255.0</ele><time>2026-03-22T14:08:57.786Z</time></trkpt><trkpt lat="37.53344" lon="14.9871683"><ele>255.0</ele><time>2026-03-22T14:08:58.787Z</time></trkpt><trkpt lat="37.5333017" lon="14.987385"><ele>254.66666666666669</ele><time>2026-03-22T14:08:59.786Z</time></trkpt><trkpt lat="37.5331617" lon="14.9876017"><ele>254.33333333333334</ele><time>2026-03-22T14:09:00.787Z</time></trkpt><trkpt lat="37.53301" lon="14.98781"><ele>254.0</ele><time>2026-03-22T14:09:01.786Z</time></trkpt><trkpt lat="37.5328517" lon="14.9880133"><ele>253.5</ele><time>2026-03-22T14:09:02.787Z</time></trkpt><trkpt lat="37.5326833" lon="14.9882167"><ele>253.0</ele><time>2026-03-22T14:09:03.787Z</time></trkpt><trkpt lat="37.5325067" lon="14.9884067"><ele>252.0</ele><time>2026-03-22T14:09:04.787Z</time></trkpt><trkpt lat="37.5323267" lon="14.9885967"><ele>251.0</ele><time>2026-03-22T14:09:05.786Z</time></trkpt><trkpt lat="37.5321433" lon="14.9887833"><ele>251.5</ele><time>2026-03-22T14:09:06.786Z</time></trkpt><trkpt lat="37.5319583" lon="14.9889717"><ele>252.0</ele><time>2026-03-22T14:09:07.787Z</time></trkpt><trkpt lat="37.5317817" lon="14.9891633"><ele>251.0</ele><time>2026-03-22T14:09:08.786Z</time></trkpt><trkpt lat="37.5315983" lon="14.989355"><ele>250.0</ele><time>2026-03-22T14:09:09.786Z</time></trkpt><trkpt lat="37.5314183" lon="14.9895433"><ele>250.0</ele><time>2026-03-22T14:09:10.786Z</time></trkpt><trkpt lat="37.5312433" lon="14.9897283"><ele>250.0</ele><time>2026-03-22T14:09:11.787Z</time></trkpt><trkpt lat="37.5310683" lon="14.9899167"><ele>249.5</ele><time>2026-03-22T14:09:12.786Z</time></trkpt><trkpt lat="37.530895" lon="14.9901033"><ele>249.0</ele><time>2026-03-22T14:09:13.786Z</time></trkpt><trkpt lat="37.5307167" lon="14.9902817"><ele>249.0</ele><time>2026-03-22T14:09:14.787Z</time></trkpt><trkpt lat="37.5305417" lon="14.9904633"><ele>249.0</ele><time>2026-03-22T14:09:15.786Z</time></trkpt><trkpt lat="37.5303683" lon="14.9906517"><ele>250.0</ele><time>2026-03-22T14:09:16.787Z</time></trkpt><trkpt lat="37.530195" lon="14.9908333"><ele>251.0</ele><time>2026-03-22T14:09:17.786Z</time></trkpt><trkpt lat="37.5300217" lon="14.9910183"><ele>251.33333333333334</ele><time>2026-03-22T14:09:18.787Z</time></trkpt><trkpt lat="37.5298467" lon="14.9911967"><ele>251.66666666666669</ele><time>2026-03-22T14:09:19.786Z</time></trkpt><trkpt lat="37.5296767" lon="14.9913733"><ele>252.0</ele><time>2026-03-22T14:09:20.786Z</time></trkpt><trkpt lat="37.52951" lon="14.9915467"><ele>252.33333333333331</ele><time>2026-03-22T14:09:21.787Z</time></trkpt><trkpt lat="37.5293467" lon="14.991715"><ele>252.66666666666666</ele><time>2026-03-22T14:09:22.786Z</time></trkpt><trkpt lat="37.5291833" lon="14.991885"><ele>253.0</ele><time>2026-03-22T14:09:23.787Z</time></trkpt><trkpt lat="37.5290183" lon="14.9920533"><ele>253.0</ele><time>2026-03-22T14:09:24.786Z</time></trkpt><trkpt lat="37.5288533" lon="14.992225"><ele>253.0</ele><time>2026-03-22T14:09:25.786Z</time></trkpt><trkpt lat="37.52869" lon="14.9923983"><ele>253.0</ele><time>2026-03-22T14:09:26.787Z</time></trkpt><trkpt lat="37.528525" lon="14.9925733"><ele>253.33333333333331</ele><time>2026-03-22T14:09:27.786Z</time></trkpt><trkpt lat="37.5283633" lon="14.9927417"><ele>253.66666666666669</ele><time>2026-03-22T14:09:28.786Z</time></trkpt><trkpt lat="37.5282017" lon="14.9929133"><ele>254.0</ele><time>2026-03-22T14:09:29.787Z</time></trkpt><trkpt lat="37.528035" lon="14.9930867"><ele>253.66666666666669</ele><time>2026-03-22T14:09:30.786Z</time></trkpt><trkpt lat="37.5278667" lon="14.993265"><ele>253.33333333333331</ele><time>2026-03-22T14:09:31.786Z</time></trkpt><trkpt lat="37.5277" lon="14.9934367"><ele>253.0</ele><time>2026-03-22T14:09:32.787Z</time></trkpt><trkpt lat="37.52753" lon="14.9936017"><ele>253.0</ele><time>2026-03-22T14:09:33.786Z</time></trkpt><trkpt lat="37.5273533" lon="14.993765"><ele>253.0</ele><time>2026-03-22T14:09:34.786Z</time></trkpt><trkpt lat="37.5271733" lon="14.9939167"><ele>253.0</ele><time>2026-03-22T14:09:35.786Z</time></trkpt><trkpt lat="37.5269917" lon="14.994055"><ele>253.66666666666666</ele><time>2026-03-22T14:09:36.786Z</time></trkpt><trkpt lat="37.5268083" lon="14.9941917"><ele>254.33333333333331</ele><time>2026-03-22T14:09:37.787Z</time></trkpt><trkpt lat="37.5266183" lon="14.9943183"><ele>255.0</ele><time>2026-03-22T14:09:38.787Z</time></trkpt><trkpt lat="37.526425" lon="14.9944417"><ele>255.0</ele><time>2026-03-22T14:09:39.786Z</time></trkpt><trkpt lat="37.5262333" lon="14.9945483"><ele>255.0</ele><time>2026-03-22T14:09:40.786Z</time></trkpt><trkpt lat="37.5260406" lon="14.9946508"><ele>255.0</ele><time>2026-03-22T14:09:41.786Z</time></trkpt><trkpt lat="37.5258455" lon="14.9947444"><ele>255.33333333333331</ele><time>2026-03-22T14:09:42.786Z</time></trkpt><trkpt lat="37.5256487" lon="14.9948329"><ele>255.66666666666666</ele><time>2026-03-22T14:09:43.786Z</time></trkpt><trkpt lat="37.5254492" lon="14.99492"><ele>256.0</ele><time>2026-03-22T14:09:44.787Z</time></trkpt><trkpt lat="37.5252487" lon="14.9950033"><ele>255.66666666666666</ele><time>2026-03-22T14:09:45.786Z</time></trkpt><trkpt lat="37.5250456" lon="14.9950857"><ele>255.33333333333331</ele><time>2026-03-22T14:09:46.787Z</time></trkpt><trkpt lat="37.5248406" lon="14.9951664"><ele>255.0</ele><time>2026-03-22T14:09:47.786Z</time></trkpt><trkpt lat="37.5246435" lon="14.9952457"><ele>254.33333333333331</ele><time>2026-03-22T14:09:48.786Z</time></trkpt><trkpt lat="37.5244591" lon="14.9953242"><ele>253.66666666666666</ele><time>2026-03-22T14:09:49.787Z</time></trkpt><trkpt lat="37.5242709" lon="14.9954086"><ele>253.0</ele><time>2026-03-22T14:09:50.787Z</time></trkpt><trkpt lat="37.5240782" lon="14.9954953"><ele>253.0</ele><time>2026-03-22T14:09:51.786Z</time></trkpt><trkpt lat="37.5238813" lon="14.9955851"><ele>253.0</ele><time>2026-03-22T14:09:52.787Z</time></trkpt><trkpt lat="37.5236783" lon="14.9956733"><ele>253.0</ele><time>2026-03-22T14:09:53.787Z</time></trkpt><trkpt lat="37.5234729" lon="14.9957713"><ele>252.5</ele><time>2026-03-22T14:09:54.787Z</time></trkpt><trkpt lat="37.5232667" lon="14.995882"><ele>252.0</ele><time>2026-03-22T14:09:55.787Z</time></trkpt><trkpt lat="37.5230603" lon="14.9960008"><ele>251.33333333333331</ele><time>2026-03-22T14:09:56.786Z</time></trkpt><trkpt lat="37.5228564" lon="14.9961174"><ele>250.66666666666666</ele><time>2026-03-22T14:09:57.787Z</time></trkpt><trkpt lat="37.5226599" lon="14.996236"><ele>250.0</ele><time>2026-03-22T14:09:58.787Z</time></trkpt><trkpt lat="37.5224738" lon="14.9963506"><ele>250.0</ele><time>2026-03-22T14:09:59.786Z</time></trkpt><trkpt lat="37.5222861" lon="14.9964632"><ele>250.0</ele><time>2026-03-22T14:10:00.786Z</time></trkpt><trkpt lat="37.5220988" lon="14.9965704"><ele>250.0</ele><time>2026-03-22T14:10:01.786Z</time></trkpt><trkpt lat="37.5219035" lon="14.9966775"><ele>249.0</ele><time>2026-03-22T14:10:02.787Z</time></trkpt><trkpt lat="37.5217054" lon="14.9967882"><ele>248.0</ele><time>2026-03-22T14:10:03.786Z</time></trkpt><trkpt lat="37.5215146" lon="14.9968992"><ele>247.0</ele><time>2026-03-22T14:10:04.786Z</time></trkpt><trkpt lat="37.5213303" lon="14.9970077"><ele>247.0</ele><time>2026-03-22T14:10:05.787Z</time></trkpt><trkpt lat="37.521152" lon="14.9971197"><ele>247.0</ele><time>2026-03-22T14:10:06.787Z</time></trkpt><trkpt lat="37.520974" lon="14.9972388"><ele>247.0</ele><time>2026-03-22T14:10:07.787Z</time></trkpt><trkpt lat="37.5207967" lon="14.9973705"><ele>246.66666666666666</ele><time>2026-03-22T14:10:08.786Z</time></trkpt><trkpt lat="37.5206203" lon="14.9975181"><ele>246.33333333333331</ele><time>2026-03-22T14:10:09.787Z</time></trkpt><trkpt lat="37.5204475" lon="14.9976765"><ele>246.0</ele><time>2026-03-22T14:10:10.787Z</time></trkpt><trkpt lat="37.5202817" lon="14.9978456"><ele>246.0</ele><time>2026-03-22T14:10:11.786Z</time></trkpt><trkpt lat="37.5201249" lon="14.998032"><ele>246.0</ele><time>2026-03-22T14:10:12.786Z</time></trkpt><trkpt lat="37.5199753" lon="14.9982276"><ele>246.0</ele><time>2026-03-22T14:10:13.786Z</time></trkpt><trkpt lat="37.5198368" lon="14.9984286"><ele>247.33333333333331</ele><time>2026-03-22T14:10:14.787Z</time></trkpt><trkpt lat="37.5197177" lon="14.9986291"><ele>248.66666666666666</ele><time>2026-03-22T14:10:15.786Z</time></trkpt><trkpt lat="37.5196123" lon="14.9988245"><ele>250.0</ele><time>2026-03-22T14:10:16.786Z</time></trkpt><trkpt lat="37.5195198" lon="14.9990194"><ele>247.0</ele><time>2026-03-22T14:10:17.786Z</time></trkpt><trkpt lat="37.5194292" lon="14.9992129"><ele>244.0</ele><time>2026-03-22T14:10:18.786Z</time></trkpt><trkpt lat="37.5193339" lon="14.9994175"><ele>241.0</ele><time>2026-03-22T14:10:19.786Z</time></trkpt><trkpt lat="37.519239" lon="14.9996344"><ele>241.0</ele><time>2026-03-22T14:10:20.786Z</time></trkpt><trkpt lat="37.5191415" lon="14.9998625"><ele>241.0</ele><time>2026-03-22T14:10:21.787Z</time></trkpt><trkpt lat="37.5190415" lon="15.0000901"><ele>241.0</ele><time>2026-03-22T14:10:22.786Z</time></trkpt><trkpt lat="37.5189394" lon="15.0003156"><ele>241.0</ele><time>2026-03-22T14:10:23.787Z</time></trkpt><trkpt lat="37.518834" lon="15.0005405"><ele>241.0</ele><time>2026-03-22T14:10:24.787Z</time></trkpt><trkpt lat="37.5187236" lon="15.00076"><ele>241.0</ele><time>2026-03-22T14:10:25.787Z</time></trkpt><trkpt lat="37.5186053" lon="15.0009769"><ele>235.0</ele><time>2026-03-22T14:10:26.786Z</time></trkpt><trkpt lat="37.5184798" lon="15.0011822"><ele>229.0</ele><time>2026-03-22T14:10:27.786Z</time></trkpt><trkpt lat="37.5183489" lon="15.001375"><ele>223.0</ele><time>2026-03-22T14:10:28.786Z</time></trkpt><trkpt lat="37.518205" lon="15.0015517"><ele>220.33333333333331</ele><time>2026-03-22T14:10:29.787Z</time></trkpt><trkpt lat="37.5180567" lon="15.001725"><ele>217.66666666666669</ele><time>2026-03-22T14:10:30.786Z</time></trkpt><trkpt lat="37.517905" lon="15.0018933"><ele>215.0</ele><time>2026-03-22T14:10:31.786Z</time></trkpt><trkpt lat="37.5177533" lon="15.0020533"><ele>215.0</ele><time>2026-03-22T14:10:32.787Z</time></trkpt><trkpt lat="37.5176017" lon="15.0022133"><ele>215.0</ele><time>2026-03-22T14:10:33.787Z</time></trkpt><trkpt lat="37.517445" lon="15.0023717"><ele>215.0</ele><time>2026-03-22T14:10:34.787Z</time></trkpt><trkpt lat="37.517295" lon="15.0025233"><ele>213.33333333333334</ele><time>2026-03-22T14:10:35.787Z</time></trkpt><trkpt lat="37.5171483" lon="15.002675"><ele>211.66666666666669</ele><time>2026-03-22T14:10:36.787Z</time></trkpt><trkpt lat="37.5170033" lon="15.0028217"><ele>210.0</ele><time>2026-03-22T14:10:37.786Z</time></trkpt><trkpt lat="37.5168617" lon="15.0029617"><ele>210.0</ele><time>2026-03-22T14:10:38.787Z</time></trkpt><trkpt lat="37.51672" lon="15.003105"><ele>210.0</ele><time>2026-03-22T14:10:39.786Z</time></trkpt><trkpt lat="37.5165733" lon="15.0032533"><ele>210.0</ele><time>2026-03-22T14:10:40.787Z</time></trkpt><trkpt lat="37.5164233" lon="15.003405"><ele>211.33333333333331</ele><time>2026-03-22T14:10:41.786Z</time></trkpt><trkpt lat="37.51627" lon="15.0035617"><ele>212.66666666666666</ele><time>2026-03-22T14:10:42.786Z</time></trkpt><trkpt lat="37.516115" lon="15.0037167"><ele>214.0</ele><time>2026-03-22T14:10:43.787Z</time></trkpt><trkpt lat="37.5159567" lon="15.0038783"><ele>212.33333333333331</ele><time>2026-03-22T14:10:44.787Z</time></trkpt><trkpt lat="37.515805" lon="15.004035"><ele>210.66666666666669</ele><time>2026-03-22T14:10:45.786Z</time></trkpt><trkpt lat="37.5156533" lon="15.004185"><ele>209.0</ele><time>2026-03-22T14:10:46.787Z</time></trkpt><trkpt lat="37.5155017" lon="15.0043367"><ele>205.66666666666669</ele><time>2026-03-22T14:10:47.787Z</time></trkpt><trkpt lat="37.5153467" lon="15.0044917"><ele>202.33333333333331</ele><time>2026-03-22T14:10:48.787Z</time></trkpt><trkpt lat="37.5151967" lon="15.00464"><ele>199.0</ele><time>2026-03-22T14:10:49.786Z</time></trkpt><trkpt lat="37.5150533" lon="15.0047883"><ele>199.0</ele><time>2026-03-22T14:10:50.786Z</time></trkpt><trkpt lat="37.5149183" lon="15.0049367"><ele>199.0</ele><time>2026-03-22T14:10:51.786Z</time></trkpt><trkpt lat="37.5147817" lon="15.0050783"><ele>199.0</ele><time>2026-03-22T14:10:52.787Z</time></trkpt><trkpt lat="37.5146483" lon="15.0052217"><ele>197.33333333333331</ele><time>2026-03-22T14:10:53.787Z</time></trkpt><trkpt lat="37.5145183" lon="15.0053617"><ele>195.66666666666669</ele><time>2026-03-22T14:10:54.787Z</time></trkpt><trkpt lat="37.5143917" lon="15.0055117"><ele>194.0</ele><time>2026-03-22T14:10:55.786Z</time></trkpt><trkpt lat="37.51427" lon="15.005665"><ele>194.0</ele><time>2026-03-22T14:10:56.787Z</time></trkpt><trkpt lat="37.5141517" lon="15.0058283"><ele>194.0</ele><time>2026-03-22T14:10:57.787Z</time></trkpt><trkpt lat="37.5140383" lon="15.0060067"><ele>194.0</ele><time>2026-03-22T14:10:58.787Z</time></trkpt><trkpt lat="37.513935" lon="15.00619"><ele>192.0</ele><time>2026-03-22T14:10:59.786Z</time></trkpt><trkpt lat="37.5138467" lon="15.0063883"><ele>190.0</ele><time>2026-03-22T14:11:00.787Z</time></trkpt><trkpt lat="37.51377" lon="15.0065917"><ele>188.0</ele><time>2026-03-22T14:11:01.786Z</time></trkpt><trkpt lat="37.5137017" lon="15.0067967"><ele>188.0</ele><time>2026-03-22T14:11:02.786Z</time></trkpt><trkpt lat="37.5136483" lon="15.0070083"><ele>188.0</ele><time>2026-03-22T14:11:03.786Z</time></trkpt><trkpt lat="37.5135983" lon="15.0072267"><ele>188.0</ele><time>2026-03-22T14:11:04.787Z</time></trkpt><trkpt lat="37.5135667" lon="15.0074467"><ele>187.66666666666666</ele><time>2026-03-22T14:11:05.787Z</time></trkpt><trkpt lat="37.5135433" lon="15.0076617"><ele>187.33333333333334</ele><time>2026-03-22T14:11:06.787Z</time></trkpt><trkpt lat="37.51353" lon="15.00788"><ele>187.0</ele><time>2026-03-22T14:11:07.786Z</time></trkpt><trkpt lat="37.5135217" lon="15.008105"><ele>185.33333333333334</ele><time>2026-03-22T14:11:08.786Z</time></trkpt><trkpt lat="37.5135267" lon="15.0083367"><ele>183.66666666666666</ele><time>2026-03-22T14:11:09.786Z</time></trkpt><trkpt lat="37.5135367" lon="15.0085733"><ele>182.0</ele><time>2026-03-22T14:11:10.786Z</time></trkpt><trkpt lat="37.5135533" lon="15.008815"><ele>182.0</ele><time>2026-03-22T14:11:11.787Z</time></trkpt><trkpt lat="37.513565" lon="15.0090567"><ele>182.0</ele><time>2026-03-22T14:11:12.786Z</time></trkpt><trkpt lat="37.51358" lon="15.0093033"><ele>182.0</ele><time>2026-03-22T14:11:13.787Z</time></trkpt><trkpt lat="37.51359" lon="15.00955"><ele>179.0</ele><time>2026-03-22T14:11:14.786Z</time></trkpt><trkpt lat="37.5135967" lon="15.0098"><ele>176.0</ele><time>2026-03-22T14:11:15.787Z</time></trkpt><trkpt lat="37.5136083" lon="15.0100483"><ele>173.0</ele><time>2026-03-22T14:11:16.787Z</time></trkpt><trkpt lat="37.5136183" lon="15.0102883"><ele>173.0</ele><time>2026-03-22T14:11:17.786Z</time></trkpt><trkpt lat="37.5136283" lon="15.01053"><ele>173.0</ele><time>2026-03-22T14:11:18.786Z</time></trkpt><trkpt lat="37.5136383" lon="15.0107717"><ele>173.0</ele><time>2026-03-22T14:11:19.787Z</time></trkpt><trkpt lat="37.51365" lon="15.01101"><ele>171.33333333333331</ele><time>2026-03-22T14:11:20.786Z</time></trkpt><trkpt lat="37.5136617" lon="15.011245"><ele>169.66666666666666</ele><time>2026-03-22T14:11:21.787Z</time></trkpt><trkpt lat="37.5136683" lon="15.0114867"><ele>168.0</ele><time>2026-03-22T14:11:22.786Z</time></trkpt><trkpt lat="37.5136783" lon="15.0117233"><ele>167.33333333333334</ele><time>2026-03-22T14:11:23.787Z</time></trkpt><trkpt lat="37.51368" lon="15.0119517"><ele>166.66666666666669</ele><time>2026-03-22T14:11:24.786Z</time></trkpt><trkpt lat="37.5136717" lon="15.01218"><ele>166.0</ele><time>2026-03-22T14:11:25.787Z</time></trkpt><trkpt lat="37.5136517" lon="15.0124117"><ele>165.66666666666669</ele><time>2026-03-22T14:11:26.786Z</time></trkpt><trkpt lat="37.5136217" lon="15.0126467"><ele>165.33333333333334</ele><time>2026-03-22T14:11:27.787Z</time></trkpt><trkpt lat="37.513585" lon="15.0128733"><ele>165.0</ele><time>2026-03-22T14:11:28.787Z</time></trkpt><trkpt lat="37.513545" lon="15.0131"><ele>165.0</ele><time>2026-03-22T14:11:29.786Z</time></trkpt><trkpt lat="37.5134983" lon="15.0133183"><ele>165.0</ele><time>2026-03-22T14:11:30.787Z</time></trkpt><trkpt lat="37.513435" lon="15.0135367"><ele>165.0</ele><time>2026-03-22T14:11:31.786Z</time></trkpt><trkpt lat="37.5133683" lon="15.0137467"><ele>164.33333333333334</ele><time>2026-03-22T14:11:32.787Z</time></trkpt><trkpt lat="37.5132917" lon="15.0139667"><ele>163.66666666666669</ele><time>2026-03-22T14:11:33.786Z</time></trkpt><trkpt lat="37.5132033" lon="15.01417"><ele>163.0</ele><time>2026-03-22T14:11:34.786Z</time></trkpt><trkpt lat="37.5131217" lon="15.0143733"><ele>163.0</ele><time>2026-03-22T14:11:35.787Z</time></trkpt><trkpt lat="37.5130183" lon="15.0145817"><ele>163.0</ele><time>2026-03-22T14:11:36.787Z</time></trkpt><trkpt lat="37.5129283" lon="15.0147817"><ele>163.0</ele><time>2026-03-22T14:11:37.786Z</time></trkpt><trkpt lat="37.512835" lon="15.0149767"><ele>162.33333333333334</ele><time>2026-03-22T14:11:38.787Z</time></trkpt><trkpt lat="37.5127483" lon="15.015155"><ele>161.66666666666666</ele><time>2026-03-22T14:11:39.786Z</time></trkpt><trkpt lat="37.5126717" lon="15.0153267"><ele>161.0</ele><time>2026-03-22T14:11:40.787Z</time></trkpt><trkpt lat="37.5125967" lon="15.0154883"><ele>161.0</ele><time>2026-03-22T14:11:41.787Z</time></trkpt><trkpt lat="37.5125217" lon="15.0156533"><ele>161.0</ele><time>2026-03-22T14:11:42.787Z</time></trkpt><trkpt lat="37.5124483" lon="15.0158317"><ele>161.0</ele><time>2026-03-22T14:11:43.787Z</time></trkpt><trkpt lat="37.5123767" lon="15.0160233"><ele>161.0</ele><time>2026-03-22T14:11:44.786Z</time></trkpt><trkpt lat="37.5123" lon="15.016225"><ele>161.0</ele><time>2026-03-22T14:11:45.787Z</time></trkpt><trkpt lat="37.5122233" lon="15.0164367"><ele>161.0</ele><time>2026-03-22T14:11:46.787Z</time></trkpt><trkpt lat="37.5121567" lon="15.016655"><ele>161.0</ele><time>2026-03-22T14:11:47.787Z</time></trkpt><trkpt lat="37.5120933" lon="15.0168783"><ele>161.0</ele><time>2026-03-22T14:11:48.787Z</time></trkpt><trkpt lat="37.5120267" lon="15.0170983"><ele>161.0</ele><time>2026-03-22T14:11:49.786Z</time></trkpt><trkpt lat="37.51196" lon="15.017325"><ele>161.0</ele><time>2026-03-22T14:11:50.786Z</time></trkpt><trkpt lat="37.511895" lon="15.017555"><ele>161.0</ele><time>2026-03-22T14:11:51.786Z</time></trkpt><trkpt lat="37.5118267" lon="15.0177883"><ele>161.0</ele><time>2026-03-22T14:11:52.786Z</time></trkpt><trkpt lat="37.5117567" lon="15.01802"><ele>161.0</ele><time>2026-03-22T14:11:53.786Z</time></trkpt><trkpt lat="37.511685" lon="15.0182517"><ele>161.0</ele><time>2026-03-22T14:11:54.787Z</time></trkpt><trkpt lat="37.5116117" lon="15.01848"><ele>161.0</ele><time>2026-03-22T14:11:55.786Z</time></trkpt><trkpt lat="37.5115383" lon="15.0187083"><ele>160.66666666666666</ele><time>2026-03-22T14:11:56.787Z</time></trkpt><trkpt lat="37.511465" lon="15.0189283"><ele>160.33333333333334</ele><time>2026-03-22T14:11:57.786Z</time></trkpt><trkpt lat="37.5113967" lon="15.0191517"><ele>160.0</ele><time>2026-03-22T14:11:58.786Z</time></trkpt><trkpt lat="37.51133" lon="15.0193883"><ele>160.33333333333334</ele><time>2026-03-22T14:11:59.787Z</time></trkpt><trkpt lat="37.5112667" lon="15.01961"><ele>160.66666666666666</ele><time>2026-03-22T14:12:00.786Z</time></trkpt><trkpt lat="37.5112083" lon="15.0198383"><ele>161.0</ele><time>2026-03-22T14:12:01.787Z</time></trkpt><trkpt lat="37.5111567" lon="15.0200783"><ele>160.33333333333331</ele><time>2026-03-22T14:12:02.786Z</time></trkpt><trkpt lat="37.51111" lon="15.0203183"><ele>159.66666666666666</ele><time>2026-03-22T14:12:03.787Z</time></trkpt><trkpt lat="37.511065" lon="15.0205583"><ele>159.0</ele><time>2026-03-22T14:12:04.787Z</time></trkpt><trkpt lat="37.5110233" lon="15.0207983"><ele>159.33333333333334</ele><time>2026-03-22T14:12:05.786Z</time></trkpt><trkpt lat="37.5109933" lon="15.0210317"><ele>159.66666666666669</ele><time>2026-03-22T14:12:06.787Z</time></trkpt><trkpt lat="37.5109567" lon="15.02126"><ele>160.0</ele><time>2026-03-22T14:12:07.786Z</time></trkpt><trkpt lat="37.5109233" lon="15.0214917"><ele>158.33333333333334</ele><time>2026-03-22T14:12:08.787Z</time></trkpt><trkpt lat="37.51089" lon="15.02173"><ele>156.66666666666666</ele><time>2026-03-22T14:12:09.786Z</time></trkpt><trkpt lat="37.5108633" lon="15.02197"><ele>155.0</ele><time>2026-03-22T14:12:10.786Z</time></trkpt><trkpt lat="37.510845" lon="15.0222167"><ele>155.0</ele><time>2026-03-22T14:12:11.786Z</time></trkpt><trkpt lat="37.51083" lon="15.022465"><ele>155.0</ele><time>2026-03-22T14:12:12.787Z</time></trkpt><trkpt lat="37.5108183" lon="15.0227133"><ele>155.0</ele><time>2026-03-22T14:12:13.787Z</time></trkpt><trkpt lat="37.5108067" lon="15.0229633"><ele>155.33333333333331</ele><time>2026-03-22T14:12:14.787Z</time></trkpt><trkpt lat="37.5108" lon="15.0232117"><ele>155.66666666666666</ele><time>2026-03-22T14:12:15.787Z</time></trkpt><trkpt lat="37.5107967" lon="15.0234617"><ele>156.0</ele><time>2026-03-22T14:12:16.787Z</time></trkpt><trkpt lat="37.5107933" lon="15.0237117"><ele>156.0</ele><time>2026-03-22T14:12:17.786Z</time></trkpt><trkpt lat="37.51079" lon="15.02396"><ele>156.0</ele><time>2026-03-22T14:12:18.787Z</time></trkpt><trkpt lat="37.5107867" lon="15.0242133"><ele>156.0</ele><time>2026-03-22T14:12:19.787Z</time></trkpt><trkpt lat="37.5107833" lon="15.0244617"><ele>156.0</ele><time>2026-03-22T14:12:20.786Z</time></trkpt><trkpt lat="37.5107667" lon="15.0246917"><ele>156.0</ele><time>2026-03-22T14:12:21.787Z</time></trkpt><trkpt lat="37.5107383" lon="15.02491"><ele>156.0</ele><time>2026-03-22T14:12:22.786Z</time></trkpt><trkpt lat="37.5106817" lon="15.0251067"><ele>155.66666666666666</ele><time>2026-03-22T14:12:23.786Z</time></trkpt><trkpt lat="37.510605" lon="15.0252917"><ele>155.33333333333331</ele><time>2026-03-22T14:12:24.787Z</time></trkpt><trkpt lat="37.5105067" lon="15.0254617"><ele>155.0</ele><time>2026-03-22T14:12:25.786Z</time></trkpt><trkpt lat="37.51039" lon="15.0256033"><ele>155.0</ele><time>2026-03-22T14:12:26.787Z</time></trkpt><trkpt lat="37.5102667" lon="15.0257"><ele>155.0</ele><time>2026-03-22T14:12:27.786Z</time></trkpt><trkpt lat="37.5101417" lon="15.0257767"><ele>155.0</ele><time>2026-03-22T14:12:28.786Z</time></trkpt><trkpt lat="37.51002" lon="15.025825"><ele>155.0</ele><time>2026-03-22T14:12:29.787Z</time></trkpt><trkpt lat="37.5098917" lon="15.02586"><ele>155.0</ele><time>2026-03-22T14:12:30.786Z</time></trkpt><trkpt lat="37.50978" lon="15.02588"><ele>155.0</ele><time>2026-03-22T14:12:31.786Z</time></trkpt><trkpt lat="37.50969" lon="15.0258933"><ele>155.0</ele><time>2026-03-22T14:12:32.786Z</time></trkpt><trkpt lat="37.5096183" lon="15.025895"><ele>155.0</ele><time>2026-03-22T14:12:33.787Z</time></trkpt><trkpt lat="37.5095317" lon="15.0258917"><ele>155.0</ele><time>2026-03-22T14:12:34.786Z</time></trkpt><trkpt lat="37.5094367" lon="15.0258867"><ele>156.75</ele><time>2026-03-22T14:12:35.786Z</time></trkpt><trkpt lat="37.50933" lon="15.025885"><ele>158.5</ele><time>2026-03-22T14:12:36.786Z</time></trkpt><trkpt lat="37.509215" lon="15.0259067"><ele>160.25</ele><time>2026-03-22T14:12:37.787Z</time></trkpt><trkpt lat="37.5090983" lon="15.0259517"><ele>162.0</ele><time>2026-03-22T14:12:38.787Z</time></trkpt><trkpt lat="37.5089967" lon="15.026015"><ele>162.0</ele><time>2026-03-22T14:12:39.786Z</time></trkpt><trkpt lat="37.5088867" lon="15.02609"><ele>162.0</ele><time>2026-03-22T14:12:40.786Z</time></trkpt><trkpt lat="37.5087833" lon="15.02619"><ele>162.0</ele><time>2026-03-22T14:12:41.787Z</time></trkpt><trkpt lat="37.508695" lon="15.02632"><ele>162.0</ele><time>2026-03-22T14:12:42.786Z</time></trkpt><trkpt lat="37.50863" lon="15.0264783"><ele>162.75</ele><time>2026-03-22T14:12:43.787Z</time></trkpt><trkpt lat="37.5085833" lon="15.0266433"><ele>163.5</ele><time>2026-03-22T14:12:44.787Z</time></trkpt><trkpt lat="37.5085483" lon="15.0268133"><ele>164.25</ele><time>2026-03-22T14:12:45.786Z</time></trkpt><trkpt lat="37.5085317" lon="15.0269833"><ele>165.0</ele><time>2026-03-22T14:12:46.786Z</time></trkpt><trkpt lat="37.5085367" lon="15.0271583"><ele>165.0</ele><time>2026-03-22T14:12:47.787Z</time></trkpt><trkpt lat="37.5085583" lon="15.0273317"><ele>165.0</ele><time>2026-03-22T14:12:48.786Z</time></trkpt><trkpt lat="37.5085917" lon="15.02749"><ele>165.0</ele><time>2026-03-22T14:12:49.787Z</time></trkpt><trkpt lat="37.5086383" lon="15.027635"><ele>165.0</ele><time>2026-03-22T14:12:50.786Z</time></trkpt><trkpt lat="37.5087017" lon="15.02777"><ele>164.25</ele><time>2026-03-22T14:12:51.787Z</time></trkpt><trkpt lat="37.508785" lon="15.0279"><ele>163.5</ele><time>2026-03-22T14:12:52.786Z</time></trkpt><trkpt lat="37.5088883" lon="15.02801"><ele>162.75</ele><time>2026-03-22T14:12:53.787Z</time></trkpt><trkpt lat="37.5089967" lon="15.0280917"><ele>162.0</ele><time>2026-03-22T14:12:54.786Z</time></trkpt><trkpt lat="37.50912" lon="15.0281567"><ele>162.0</ele><time>2026-03-22T14:12:55.787Z</time></trkpt><trkpt lat="37.5092433" lon="15.0282017"><ele>162.0</ele><time>2026-03-22T14:12:56.786Z</time></trkpt><trkpt lat="37.50937" lon="15.0282417"><ele>162.0</ele><time>2026-03-22T14:12:57.787Z</time></trkpt><trkpt lat="37.5095117" lon="15.0282583"><ele>162.0</ele><time>2026-03-22T14:12:58.786Z</time></trkpt><trkpt lat="37.5096383" lon="15.0282267"><ele>160.75</ele><time>2026-03-22T14:12:59.786Z</time></trkpt><trkpt lat="37.5097567" lon="15.0281733"><ele>159.5</ele><time>2026-03-22T14:13:00.786Z</time></trkpt><trkpt lat="37.5098667" lon="15.0280983"><ele>158.25</ele><time>2026-03-22T14:13:01.787Z</time></trkpt><trkpt lat="37.5099783" lon="15.028015"><ele>157.0</ele><time>2026-03-22T14:13:02.787Z</time></trkpt><trkpt lat="37.5100733" lon="15.0279133"><ele>157.0</ele><time>2026-03-22T14:13:03.787Z</time></trkpt><trkpt lat="37.5101583" lon="15.0277967"><ele>157.0</ele><time>2026-03-22T14:13:04.786Z</time></trkpt><trkpt lat="37.5102317" lon="15.02766"><ele>157.0</ele><time>2026-03-22T14:13:05.786Z</time></trkpt><trkpt lat="37.51029" lon="15.02751"><ele>157.0</ele><time>2026-03-22T14:13:06.786Z</time></trkpt><trkpt lat="37.510325" lon="15.02735"><ele>156.25</ele><time>2026-03-22T14:13:07.786Z</time></trkpt><trkpt lat="37.5103383" lon="15.0272"><ele>155.5</ele><time>2026-03-22T14:13:08.786Z</time></trkpt><trkpt lat="37.5103317" lon="15.027045"><ele>154.75</ele><time>2026-03-22T14:13:09.786Z</time></trkpt><trkpt lat="37.5103133" lon="15.0268933"><ele>154.0</ele><time>2026-03-22T14:13:10.786Z</time></trkpt><trkpt lat="37.5102717" lon="15.0267383"><ele>154.25</ele><time>2026-03-22T14:13:11.787Z</time></trkpt><trkpt lat="37.5102167" lon="15.02658"><ele>154.5</ele><time>2026-03-22T14:13:12.787Z</time></trkpt><trkpt lat="37.5101383" lon="15.0264283"><ele>154.75</ele><time>2026-03-22T14:13:13.787Z</time></trkpt><trkpt lat="37.5100533" lon="15.0263083"><ele>155.0</ele><time>2026-03-22T14:13:14.787Z</time></trkpt><trkpt lat="37.509955" lon="15.0262033"><ele>155.0</ele><time>2026-03-22T14:13:15.787Z</time></trkpt><trkpt lat="37.5098617" lon="15.026115"><ele>155.0</ele><time>2026-03-22T14:13:16.786Z</time></trkpt><trkpt lat="37.5097683" lon="15.026055"><ele>155.0</ele><time>2026-03-22T14:13:17.787Z</time></trkpt><trkpt lat="37.509685" lon="15.0260067"><ele>155.0</ele><time>2026-03-22T14:13:18.786Z</time></trkpt><trkpt lat="37.5095983" lon="15.0259733"><ele>155.0</ele><time>2026-03-22T14:13:19.786Z</time></trkpt><trkpt lat="37.5094983" lon="15.025945"><ele>156.75</ele><time>2026-03-22T14:13:20.786Z</time></trkpt><trkpt lat="37.509395" lon="15.0259267"><ele>158.5</ele><time>2026-03-22T14:13:21.786Z</time></trkpt><trkpt lat="37.5092767" lon="15.0259367"><ele>160.25</ele><time>2026-03-22T14:13:22.786Z</time></trkpt><trkpt lat="37.5091533" lon="15.02598"><ele>162.0</ele><time>2026-03-22T14:13:23.787Z</time></trkpt><trkpt lat="37.5090383" lon="15.0260367"><ele>162.0</ele><time>2026-03-22T14:13:24.787Z</time></trkpt><trkpt lat="37.5089283" lon="15.0260933"><ele>162.0</ele><time>2026-03-22T14:13:25.786Z</time></trkpt><trkpt lat="37.508835" lon="15.026195"><ele>162.0</ele><time>2026-03-22T14:13:26.786Z</time></trkpt><trkpt lat="37.5087567" lon="15.0263167"><ele>162.0</ele><time>2026-03-22T14:13:27.787Z</time></trkpt><trkpt lat="37.5086833" lon="15.0264433"><ele>162.6</ele><time>2026-03-22T14:13:28.787Z</time></trkpt><trkpt lat="37.5086233" lon="15.026575"><ele>163.2</ele><time>2026-03-22T14:13:29.787Z</time></trkpt><trkpt lat="37.5085817" lon="15.0267067"><ele>163.8</ele><time>2026-03-22T14:13:30.787Z</time></trkpt><trkpt lat="37.5085467" lon="15.02683"><ele>164.4</ele><time>2026-03-22T14:13:31.787Z</time></trkpt><trkpt lat="37.5085233" lon="15.0269483"><ele>165.0</ele><time>2026-03-22T14:13:32.787Z</time></trkpt><trkpt lat="37.508515" lon="15.0270767"><ele>165.0</ele><time>2026-03-22T14:13:33.786Z</time></trkpt><trkpt lat="37.5085183" lon="15.02722"><ele>165.0</ele><time>2026-03-22T14:13:34.787Z</time></trkpt><trkpt lat="37.508535" lon="15.02737"><ele>165.0</ele><time>2026-03-22T14:13:35.787Z</time></trkpt><trkpt lat="37.5085667" lon="15.027525"><ele>165.0</ele><time>2026-03-22T14:13:36.786Z</time></trkpt><trkpt lat="37.5086133" lon="15.027685"><ele>165.33333333333334</ele><time>2026-03-22T14:13:37.786Z</time></trkpt><trkpt lat="37.50868" lon="15.0278533"><ele>165.66666666666669</ele><time>2026-03-22T14:13:38.787Z</time></trkpt><trkpt lat="37.5087567" lon="15.0280183"><ele>166.0</ele><time>2026-03-22T14:13:39.786Z</time></trkpt><trkpt lat="37.5088383" lon="15.0281867"><ele>164.0</ele><time>2026-03-22T14:13:40.786Z</time></trkpt><trkpt lat="37.50892" lon="15.0283633"><ele>162.0</ele><time>2026-03-22T14:13:41.786Z</time></trkpt><trkpt lat="37.509" lon="15.0285433"><ele>160.0</ele><time>2026-03-22T14:13:42.786Z</time></trkpt><trkpt lat="37.5090783" lon="15.0287267"><ele>160.0</ele><time>2026-03-22T14:13:43.786Z</time></trkpt><trkpt lat="37.5091517" lon="15.0289083"><ele>160.0</ele><time>2026-03-22T14:13:44.786Z</time></trkpt><trkpt lat="37.5092267" lon="15.0290933"><ele>160.0</ele><time>2026-03-22T14:13:45.786Z</time></trkpt><trkpt lat="37.5092967" lon="15.0292817"><ele>160.0</ele><time>2026-03-22T14:13:46.786Z</time></trkpt><trkpt lat="37.5093667" lon="15.0294633"><ele>160.0</ele><time>2026-03-22T14:13:47.786Z</time></trkpt><trkpt lat="37.5094317" lon="15.02965"><ele>160.0</ele><time>2026-03-22T14:13:48.786Z</time></trkpt><trkpt lat="37.509495" lon="15.02984"><ele>159.0</ele><time>2026-03-22T14:13:49.786Z</time></trkpt><trkpt lat="37.50955" lon="15.0300183"><ele>158.0</ele><time>2026-03-22T14:13:50.787Z</time></trkpt><trkpt lat="37.5095967" lon="15.0301883"><ele>157.0</ele><time>2026-03-22T14:13:51.787Z</time></trkpt><trkpt lat="37.50964" lon="15.03036"><ele>156.0</ele><time>2026-03-22T14:13:52.786Z</time></trkpt><trkpt lat="37.50968" lon="15.030535"><ele>155.33333333333334</ele><time>2026-03-22T14:13:53.786Z</time></trkpt><trkpt lat="37.5097233" lon="15.03072"><ele>154.66666666666669</ele><time>2026-03-22T14:13:54.786Z</time></trkpt><trkpt lat="37.50977" lon="15.0309167"><ele>154.0</ele><time>2026-03-22T14:13:55.787Z</time></trkpt><trkpt lat="37.50982" lon="15.03112"><ele>153.0</ele><time>2026-03-22T14:13:56.786Z</time></trkpt><trkpt lat="37.5098683" lon="15.0313333"><ele>152.0</ele><time>2026-03-22T14:13:57.786Z</time></trkpt><trkpt lat="37.5099133" lon="15.0315517"><ele>151.0</ele><time>2026-03-22T14:13:58.786Z</time></trkpt><trkpt lat="37.5099617" lon="15.0317767"><ele>151.0</ele><time>2026-03-22T14:13:59.787Z</time></trkpt><trkpt lat="37.5100133" lon="15.0320017"><ele>151.0</ele><time>2026-03-22T14:14:00.786Z</time></trkpt><trkpt lat="37.51006" lon="15.0322233"><ele>151.0</ele><time>2026-03-22T14:14:01.786Z</time></trkpt><trkpt lat="37.51011" lon="15.0324533"><ele>150.66666666666669</ele><time>2026-03-22T14:14:02.787Z</time></trkpt><trkpt lat="37.5101617" lon="15.032685"><ele>150.33333333333334</ele><time>2026-03-22T14:14:03.786Z</time></trkpt><trkpt lat="37.51021" lon="15.0329217"><ele>150.0</ele><time>2026-03-22T14:14:04.787Z</time></trkpt><trkpt lat="37.5102617" lon="15.0331583"><ele>150.33333333333334</ele><time>2026-03-22T14:14:05.787Z</time></trkpt><trkpt lat="37.51032" lon="15.0333983"><ele>150.66666666666669</ele><time>2026-03-22T14:14:06.787Z</time></trkpt><trkpt lat="37.5103817" lon="15.0336317"><ele>151.0</ele><time>2026-03-22T14:14:07.787Z</time></trkpt><trkpt lat="37.510445" lon="15.03386"><ele>151.0</ele><time>2026-03-22T14:14:08.787Z</time></trkpt><trkpt lat="37.5105183" lon="15.0340817"><ele>151.0</ele><time>2026-03-22T14:14:09.786Z</time></trkpt><trkpt lat="37.5106083" lon="15.0342983"><ele>151.0</ele><time>2026-03-22T14:14:10.786Z</time></trkpt><trkpt lat="37.5107083" lon="15.0345067"><ele>150.66666666666669</ele><time>2026-03-22T14:14:11.786Z</time></trkpt><trkpt lat="37.5108083" lon="15.034715"><ele>150.33333333333334</ele><time>2026-03-22T14:14:12.786Z</time></trkpt><trkpt lat="37.5109117" lon="15.0349183"><ele>150.0</ele><time>2026-03-22T14:14:13.787Z</time></trkpt><trkpt lat="37.511015" lon="15.0351183"><ele>150.0</ele><time>2026-03-22T14:14:14.786Z</time></trkpt><trkpt lat="37.5111183" lon="15.0353283"><ele>150.0</ele><time>2026-03-22T14:14:15.786Z</time></trkpt><trkpt lat="37.51122" lon="15.035545"><ele>150.0</ele><time>2026-03-22T14:14:16.787Z</time></trkpt><trkpt lat="37.5113183" lon="15.0357633"><ele>149.66666666666666</ele><time>2026-03-22T14:14:17.786Z</time></trkpt><trkpt lat="37.5114067" lon="15.03598"><ele>149.33333333333331</ele><time>2026-03-22T14:14:18.786Z</time></trkpt><trkpt lat="37.5114983" lon="15.036195"><ele>149.0</ele><time>2026-03-22T14:14:19.786Z</time></trkpt><trkpt lat="37.5115867" lon="15.0364083"><ele>149.0</ele><time>2026-03-22T14:14:20.787Z</time></trkpt><trkpt lat="37.511685" lon="15.0366217"><ele>149.0</ele><time>2026-03-22T14:14:21.787Z</time></trkpt><trkpt lat="37.5117767" lon="15.036835"><ele>149.0</ele><time>2026-03-22T14:14:22.786Z</time></trkpt><trkpt lat="37.5118667" lon="15.0370433"><ele>149.33333333333331</ele><time>2026-03-22T14:14:23.786Z</time></trkpt><trkpt lat="37.5119567" lon="15.03726"><ele>149.66666666666666</ele><time>2026-03-22T14:14:24.787Z</time></trkpt><trkpt lat="37.5120433" lon="15.03748"><ele>150.0</ele><time>2026-03-22T14:14:25.787Z</time></trkpt><trkpt lat="37.512125" lon="15.037695"><ele>147.66666666666666</ele><time>2026-03-22T14:14:26.786Z</time></trkpt><trkpt lat="37.51221" lon="15.0379017"><ele>145.33333333333331</ele><time>2026-03-22T14:14:27.786Z</time></trkpt><trkpt lat="37.5122833" lon="15.0381033"><ele>143.0</ele><time>2026-03-22T14:14:28.786Z</time></trkpt><trkpt lat="37.5123483" lon="15.0382867"><ele>142.8</ele><time>2026-03-22T14:14:29.786Z</time></trkpt><trkpt lat="37.512405" lon="15.03844"><ele>142.60000000000002</ele><time>2026-03-22T14:14:30.787Z</time></trkpt><trkpt lat="37.51246" lon="15.0385633"><ele>142.39999999999998</ele><time>2026-03-22T14:14:31.787Z</time></trkpt><trkpt lat="37.5124967" lon="15.0386633"><ele>142.2</ele><time>2026-03-22T14:14:32.786Z</time></trkpt><trkpt lat="37.5125233" lon="15.038755"><ele>142.0</ele><time>2026-03-22T14:14:33.786Z</time></trkpt><trkpt lat="37.5125283" lon="15.0388417"><ele>142.0</ele><time>2026-03-22T14:14:34.786Z</time></trkpt><trkpt lat="37.512515" lon="15.03893"><ele>142.0</ele><time>2026-03-22T14:14:35.787Z</time></trkpt><trkpt lat="37.512475" lon="15.0390233"><ele>142.0</ele><time>2026-03-22T14:14:36.787Z</time></trkpt><trkpt lat="37.5124167" lon="15.03912"><ele>142.0</ele><time>2026-03-22T14:14:37.787Z</time></trkpt><trkpt lat="37.5123533" lon="15.0392333"><ele>142.0</ele><time>2026-03-22T14:14:38.787Z</time></trkpt><trkpt lat="37.5123133" lon="15.0393483"><ele>142.2</ele><time>2026-03-22T14:14:39.786Z</time></trkpt><trkpt lat="37.5123067" lon="15.0394667"><ele>142.39999999999998</ele><time>2026-03-22T14:14:40.786Z</time></trkpt><trkpt lat="37.5123183" lon="15.0395783"><ele>142.60000000000002</ele><time>2026-03-22T14:14:41.787Z</time></trkpt><trkpt lat="37.5123467" lon="15.0396867"><ele>142.8</ele><time>2026-03-22T14:14:42.787Z</time></trkpt><trkpt lat="37.51239" lon="15.03979"><ele>143.0</ele><time>2026-03-22T14:14:43.787Z</time></trkpt><trkpt lat="37.512445" lon="15.0398683"><ele>143.0</ele><time>2026-03-22T14:14:44.786Z</time></trkpt><trkpt lat="37.5125133" lon="15.0399367"><ele>143.0</ele><time>2026-03-22T14:14:45.787Z</time></trkpt><trkpt lat="37.5125967" lon="15.0399767"><ele>143.0</ele><time>2026-03-22T14:14:46.786Z</time></trkpt><trkpt lat="37.5126817" lon="15.0400067"><ele>143.0</ele><time>2026-03-22T14:14:47.787Z</time></trkpt><trkpt lat="37.5127717" lon="15.0400317"><ele>143.0</ele><time>2026-03-22T14:14:48.786Z</time></trkpt><trkpt lat="37.5128717" lon="15.04007"><ele>143.6</ele><time>2026-03-22T14:14:49.786Z</time></trkpt><trkpt lat="37.512965" lon="15.040135"><ele>144.20000000000002</ele><time>2026-03-22T14:14:50.786Z</time></trkpt><trkpt lat="37.5130467" lon="15.0402317"><ele>144.8</ele><time>2026-03-22T14:14:51.786Z</time></trkpt><trkpt lat="37.51312" lon="15.04034"><ele>145.4</ele><time>2026-03-22T14:14:52.786Z</time></trkpt><trkpt lat="37.5131833" lon="15.0404617"><ele>146.0</ele><time>2026-03-22T14:14:53.786Z</time></trkpt><trkpt lat="37.513245" lon="15.0405933"><ele>146.0</ele><time>2026-03-22T14:14:54.786Z</time></trkpt><trkpt lat="37.5133083" lon="15.04074"><ele>146.0</ele><time>2026-03-22T14:14:55.786Z</time></trkpt><trkpt lat="37.513375" lon="15.040895"><ele>146.0</ele><time>2026-03-22T14:14:56.787Z</time></trkpt><trkpt lat="37.5134417" lon="15.04106"><ele>146.0</ele><time>2026-03-22T14:14:57.786Z</time></trkpt><trkpt lat="37.5135117" lon="15.04123"><ele>144.33333333333331</ele><time>2026-03-22T14:14:58.787Z</time></trkpt><trkpt lat="37.5135817" lon="15.0414083"><ele>142.66666666666666</ele><time>2026-03-22T14:14:59.786Z</time></trkpt><trkpt lat="37.5136467" lon="15.041595"><ele>141.0</ele><time>2026-03-22T14:15:00.786Z</time></trkpt><trkpt lat="37.513705" lon="15.041785"><ele>143.0</ele><time>2026-03-22T14:15:01.786Z</time></trkpt><trkpt lat="37.5137667" lon="15.0419817"><ele>145.0</ele><time>2026-03-22T14:15:02.787Z</time></trkpt><trkpt lat="37.5138233" lon="15.042185"><ele>147.0</ele><time>2026-03-22T14:15:03.786Z</time></trkpt><trkpt lat="37.5138833" lon="15.042395"><ele>146.0</ele><time>2026-03-22T14:15:04.786Z</time></trkpt><trkpt lat="37.513945" lon="15.04261"><ele>145.0</ele><time>2026-03-22T14:15:05.787Z</time></trkpt><trkpt lat="37.5140083" lon="15.0428283"><ele>144.0</ele><time>2026-03-22T14:15:06.786Z</time></trkpt><trkpt lat="37.5140783" lon="15.0430483"><ele>144.0</ele><time>2026-03-22T14:15:07.786Z</time></trkpt><trkpt lat="37.51414" lon="15.0432633"><ele>144.0</ele><time>2026-03-22T14:15:08.787Z</time></trkpt><trkpt lat="37.514205" lon="15.04348"><ele>144.0</ele><time>2026-03-22T14:15:09.787Z</time></trkpt><trkpt lat="37.5142717" lon="15.043695"><ele>143.33333333333334</ele><time>2026-03-22T14:15:10.786Z</time></trkpt><trkpt lat="37.5143383" lon="15.0439133"><ele>142.66666666666669</ele><time>2026-03-22T14:15:11.786Z</time></trkpt><trkpt lat="37.5144083" lon="15.04413"><ele>142.0</ele><time>2026-03-22T14:15:12.786Z</time></trkpt><trkpt lat="37.5144817" lon="15.04435"><ele>142.0</ele><time>2026-03-22T14:15:13.787Z</time></trkpt><trkpt lat="37.51455" lon="15.0445683"><ele>142.0</ele><time>2026-03-22T14:15:14.786Z</time></trkpt><trkpt lat="37.5146233" lon="15.0447883"><ele>142.0</ele><time>2026-03-22T14:15:15.787Z</time></trkpt><trkpt lat="37.5146883" lon="15.0450067"><ele>143.66666666666669</ele><time>2026-03-22T14:15:16.787Z</time></trkpt><trkpt lat="37.5147567" lon="15.04523"><ele>145.33333333333334</ele><time>2026-03-22T14:15:17.786Z</time></trkpt><trkpt lat="37.5148217" lon="15.045455"><ele>147.0</ele><time>2026-03-22T14:15:18.787Z</time></trkpt><trkpt lat="37.5148817" lon="15.0456683"><ele>146.0</ele><time>2026-03-22T14:15:19.786Z</time></trkpt><trkpt lat="37.5149217" lon="15.0458433"><ele>145.0</ele><time>2026-03-22T14:15:20.786Z</time></trkpt><trkpt lat="37.5149667" lon="15.0459967"><ele>144.0</ele><time>2026-03-22T14:15:21.787Z</time></trkpt><trkpt lat="37.5150117" lon="15.046155"><ele>143.0</ele><time>2026-03-22T14:15:22.787Z</time></trkpt><trkpt lat="37.515065" lon="15.0463267"><ele>143.0</ele><time>2026-03-22T14:15:23.787Z</time></trkpt><trkpt lat="37.5151167" lon="15.0465067"><ele>143.0</ele><time>2026-03-22T14:15:24.787Z</time></trkpt><trkpt lat="37.5151783" lon="15.0466983"><ele>143.0</ele><time>2026-03-22T14:15:25.786Z</time></trkpt><trkpt lat="37.5152417" lon="15.0468967"><ele>142.0</ele><time>2026-03-22T14:15:26.787Z</time></trkpt><trkpt lat="37.515305" lon="15.0470967"><ele>141.0</ele><time>2026-03-22T14:15:27.786Z</time></trkpt><trkpt lat="37.5153667" lon="15.0473"><ele>140.0</ele><time>2026-03-22T14:15:28.787Z</time></trkpt><trkpt lat="37.5154333" lon="15.047495"><ele>140.0</ele><time>2026-03-22T14:15:29.786Z</time></trkpt><trkpt lat="37.5154883" lon="15.0476917"><ele>140.0</ele><time>2026-03-22T14:15:30.786Z</time></trkpt><trkpt lat="37.515545" lon="15.047895"><ele>140.0</ele><time>2026-03-22T14:15:31.787Z</time></trkpt><trkpt lat="37.515605" lon="15.0481067"><ele>139.33333333333331</ele><time>2026-03-22T14:15:32.787Z</time></trkpt><trkpt lat="37.51567" lon="15.0483233"><ele>138.66666666666666</ele><time>2026-03-22T14:15:33.787Z</time></trkpt><trkpt lat="37.5157333" lon="15.0485467"><ele>138.0</ele><time>2026-03-22T14:15:34.786Z</time></trkpt><trkpt lat="37.5157983" lon="15.048775"><ele>138.0</ele><time>2026-03-22T14:15:35.787Z</time></trkpt><trkpt lat="37.5158717" lon="15.0490017"><ele>138.0</ele><time>2026-03-22T14:15:36.786Z</time></trkpt><trkpt lat="37.5159433" lon="15.049235"><ele>138.0</ele><time>2026-03-22T14:15:37.786Z</time></trkpt><trkpt lat="37.51601" lon="15.0494683"><ele>137.0</ele><time>2026-03-22T14:15:38.787Z</time></trkpt><trkpt lat="37.5160783" lon="15.049695"><ele>136.0</ele><time>2026-03-22T14:15:39.786Z</time></trkpt><trkpt lat="37.516145" lon="15.04991"><ele>135.0</ele><time>2026-03-22T14:15:40.786Z</time></trkpt><trkpt lat="37.51619" lon="15.0501217"><ele>135.66666666666666</ele><time>2026-03-22T14:15:41.786Z</time></trkpt><trkpt lat="37.5162683" lon="15.0503183"><ele>136.33333333333331</ele><time>2026-03-22T14:15:42.787Z</time></trkpt><trkpt lat="37.51633" lon="15.0505033"><ele>137.0</ele><time>2026-03-22T14:15:43.787Z</time></trkpt><trkpt lat="37.5163867" lon="15.05068"><ele>136.5</ele><time>2026-03-22T14:15:44.786Z</time></trkpt><trkpt lat="37.5164433" lon="15.050855"><ele>136.0</ele><time>2026-03-22T14:15:45.786Z</time></trkpt><trkpt lat="37.5164983" lon="15.0510233"><ele>135.5</ele><time>2026-03-22T14:15:46.786Z</time></trkpt><trkpt lat="37.5165367" lon="15.0511717"><ele>135.0</ele><time>2026-03-22T14:15:47.787Z</time></trkpt><trkpt lat="37.51657" lon="15.0512933"><ele>135.0</ele><time>2026-03-22T14:15:48.786Z</time></trkpt><trkpt lat="37.51658" lon="15.0513967"><ele>135.0</ele><time>2026-03-22T14:15:49.786Z</time></trkpt><trkpt lat="37.516565" lon="15.0515033"><ele>135.0</ele><time>2026-03-22T14:15:50.787Z</time></trkpt><trkpt lat="37.5165183" lon="15.0516017"><ele>135.0</ele><time>2026-03-22T14:15:51.786Z</time></trkpt><trkpt lat="37.516475" lon="15.05169"><ele>135.0</ele><time>2026-03-22T14:15:52.787Z</time></trkpt><trkpt lat="37.516435" lon="15.0517667"><ele>135.0</ele><time>2026-03-22T14:15:53.787Z</time></trkpt><trkpt lat="37.5164183" lon="15.0518483"><ele>134.83333333333334</ele><time>2026-03-22T14:15:54.787Z</time></trkpt><trkpt lat="37.516435" lon="15.0519983"><ele>134.66666666666666</ele><time>2026-03-22T14:15:56.786Z</time></trkpt><trkpt lat="37.51647" lon="15.0520717"><ele>134.5</ele><time>2026-03-22T14:15:57.786Z</time></trkpt><trkpt lat="37.516515" lon="15.0521333"><ele>134.33333333333331</ele><time>2026-03-22T14:15:58.786Z</time></trkpt><trkpt lat="37.5165733" lon="15.0521817"><ele>134.16666666666666</ele><time>2026-03-22T14:15:59.787Z</time></trkpt><trkpt lat="37.51665" lon="15.0522183"><ele>134.0</ele><time>2026-03-22T14:16:00.787Z</time></trkpt><trkpt lat="37.5167317" lon="15.052265"><ele>134.0</ele><time>2026-03-22T14:16:01.786Z</time></trkpt><trkpt lat="37.5168167" lon="15.05232"><ele>134.0</ele><time>2026-03-22T14:16:02.787Z</time></trkpt><trkpt lat="37.51689" lon="15.05241"><ele>134.0</ele><time>2026-03-22T14:16:03.786Z</time></trkpt><trkpt lat="37.5169567" lon="15.0525383"><ele>134.0</ele><time>2026-03-22T14:16:04.787Z</time></trkpt><trkpt lat="37.51701" lon="15.05269"><ele>133.75</ele><time>2026-03-22T14:16:05.786Z</time></trkpt><trkpt lat="37.517055" lon="15.0528533"><ele>133.5</ele><time>2026-03-22T14:16:06.787Z</time></trkpt><trkpt lat="37.5170983" lon="15.053025"><ele>133.25</ele><time>2026-03-22T14:16:07.786Z</time></trkpt><trkpt lat="37.51715" lon="15.0532"><ele>133.0</ele><time>2026-03-22T14:16:08.787Z</time></trkpt><trkpt lat="37.5172017" lon="15.0533733"><ele>132.66666666666669</ele><time>2026-03-22T14:16:09.786Z</time></trkpt><trkpt lat="37.5172533" lon="15.0535467"><ele>132.33333333333334</ele><time>2026-03-22T14:16:10.787Z</time></trkpt><trkpt lat="37.51731" lon="15.053735"><ele>132.0</ele><time>2026-03-22T14:16:11.786Z</time></trkpt><trkpt lat="37.5173683" lon="15.0539217"><ele>132.0</ele><time>2026-03-22T14:16:12.787Z</time></trkpt><trkpt lat="37.517425" lon="15.0541167"><ele>132.0</ele><time>2026-03-22T14:16:13.786Z</time></trkpt><trkpt lat="37.517485" lon="15.0543117"><ele>132.0</ele><time>2026-03-22T14:16:14.787Z</time></trkpt><trkpt lat="37.5175433" lon="15.0544933"><ele>130.66666666666666</ele><time>2026-03-22T14:16:15.786Z</time></trkpt><trkpt lat="37.517605" lon="15.054675"><ele>129.33333333333331</ele><time>2026-03-22T14:16:16.786Z</time></trkpt><trkpt lat="37.5176567" lon="15.0548567"><ele>128.0</ele><time>2026-03-22T14:16:17.787Z</time></trkpt><trkpt lat="37.517705" lon="15.0550317"><ele>128.0</ele><time>2026-03-22T14:16:18.786Z</time></trkpt><trkpt lat="37.5177567" lon="15.0552083"><ele>128.0</ele><time>2026-03-22T14:16:19.787Z</time></trkpt><trkpt lat="37.51781" lon="15.0553783"><ele>128.0</ele><time>2026-03-22T14:16:20.786Z</time></trkpt><trkpt lat="37.51786" lon="15.0555533"><ele>128.0</ele><time>2026-03-22T14:16:21.786Z</time></trkpt><trkpt lat="37.51791" lon="15.05573"><ele>127.0</ele><time>2026-03-22T14:16:22.786Z</time></trkpt><trkpt lat="37.5179683" lon="15.05591"><ele>126.0</ele><time>2026-03-22T14:16:23.787Z</time></trkpt><trkpt lat="37.5180217" lon="15.0560717"><ele>125.0</ele><time>2026-03-22T14:16:24.787Z</time></trkpt><trkpt lat="37.5180667" lon="15.056225"><ele>124.0</ele><time>2026-03-22T14:16:25.787Z</time></trkpt><trkpt lat="37.518105" lon="15.0563583"><ele>124.00000000000001</ele><time>2026-03-22T14:16:26.787Z</time></trkpt><trkpt lat="37.51814" lon="15.0564733"><ele>124.0</ele><time>2026-03-22T14:16:27.786Z</time></trkpt><trkpt lat="37.5181717" lon="15.056575"><ele>124.0</ele><time>2026-03-22T14:16:28.787Z</time></trkpt><trkpt lat="37.5182" lon="15.0566633"><ele>124.0</ele><time>2026-03-22T14:16:29.787Z</time></trkpt><trkpt lat="37.51823" lon="15.0567583"><ele>124.00000000000001</ele><time>2026-03-22T14:16:30.786Z</time></trkpt><trkpt lat="37.51826" lon="15.0568617"><ele>124.0</ele><time>2026-03-22T14:16:31.787Z</time></trkpt><trkpt lat="37.518295" lon="15.05698"><ele>124.0</ele><time>2026-03-22T14:16:32.786Z</time></trkpt><trkpt lat="37.51833" lon="15.0571033"><ele>124.0</ele><time>2026-03-22T14:16:33.787Z</time></trkpt><trkpt lat="37.5183767" lon="15.0572417"><ele>124.0</ele><time>2026-03-22T14:16:34.786Z</time></trkpt><trkpt lat="37.5184233" lon="15.0573917"><ele>124.0</ele><time>2026-03-22T14:16:35.787Z</time></trkpt><trkpt lat="37.5184783" lon="15.0575517"><ele>123.33333333333334</ele><time>2026-03-22T14:16:36.787Z</time></trkpt><trkpt lat="37.5185317" lon="15.0577283"><ele>122.66666666666666</ele><time>2026-03-22T14:16:37.786Z</time></trkpt><trkpt lat="37.5185917" lon="15.057915"><ele>122.0</ele><time>2026-03-22T14:16:38.786Z</time></trkpt><trkpt lat="37.5186483" lon="15.0581067"><ele>122.33333333333333</ele><time>2026-03-22T14:16:39.786Z</time></trkpt><trkpt lat="37.518705" lon="15.0583033"><ele>122.66666666666666</ele><time>2026-03-22T14:16:40.786Z</time></trkpt><trkpt lat="37.5187683" lon="15.05851"><ele>123.0</ele><time>2026-03-22T14:16:41.786Z</time></trkpt><trkpt lat="37.5188317" lon="15.0587167"><ele>123.0</ele><time>2026-03-22T14:16:42.787Z</time></trkpt><trkpt lat="37.51889" lon="15.0589217"><ele>123.0</ele><time>2026-03-22T14:16:43.786Z</time></trkpt><trkpt lat="37.5189567" lon="15.0591267"><ele>123.0</ele><time>2026-03-22T14:16:44.787Z</time></trkpt><trkpt lat="37.5190183" lon="15.0593333"><ele>122.33333333333334</ele><time>2026-03-22T14:16:45.786Z</time></trkpt><trkpt lat="37.5190783" lon="15.0595433"><ele>121.66666666666667</ele><time>2026-03-22T14:16:46.787Z</time></trkpt><trkpt lat="37.519135" lon="15.0597483"><ele>121.0</ele><time>2026-03-22T14:16:47.787Z</time></trkpt><trkpt lat="37.5191983" lon="15.0599483"><ele>119.66666666666667</ele><time>2026-03-22T14:16:48.787Z</time></trkpt><trkpt lat="37.519265" lon="15.06015"><ele>118.33333333333334</ele><time>2026-03-22T14:16:49.786Z</time></trkpt><trkpt lat="37.5193233" lon="15.0603483"><ele>117.0</ele><time>2026-03-22T14:16:50.787Z</time></trkpt><trkpt lat="37.51938" lon="15.0605467"><ele>117.0</ele><time>2026-03-22T14:16:51.786Z</time></trkpt><trkpt lat="37.51944" lon="15.06074"><ele>117.0</ele><time>2026-03-22T14:16:52.787Z</time></trkpt><trkpt lat="37.51949" lon="15.060915"><ele>117.0</ele><time>2026-03-22T14:16:53.786Z</time></trkpt><trkpt lat="37.51954" lon="15.0610783"><ele>116.75</ele><time>2026-03-22T14:16:54.787Z</time></trkpt><trkpt lat="37.519595" lon="15.0612317"><ele>116.5</ele><time>2026-03-22T14:16:55.786Z</time></trkpt><trkpt lat="37.5196667" lon="15.0613817"><ele>116.25</ele><time>2026-03-22T14:16:56.787Z</time></trkpt><trkpt lat="37.5197483" lon="15.0615317"><ele>116.0</ele><time>2026-03-22T14:16:57.787Z</time></trkpt><trkpt lat="37.5198383" lon="15.061665"><ele>116.0</ele><time>2026-03-22T14:16:58.787Z</time></trkpt><trkpt lat="37.51993" lon="15.0617833"><ele>116.0</ele><time>2026-03-22T14:16:59.786Z</time></trkpt><trkpt lat="37.5200217" lon="15.0618867"><ele>116.0</ele><time>2026-03-22T14:17:00.786Z</time></trkpt><trkpt lat="37.5201233" lon="15.06199"><ele>116.0</ele><time>2026-03-22T14:17:01.786Z</time></trkpt><trkpt lat="37.520245" lon="15.0620883"><ele>116.0</ele><time>2026-03-22T14:17:02.787Z</time></trkpt><trkpt lat="37.5203733" lon="15.062175"><ele>116.0</ele><time>2026-03-22T14:17:03.786Z</time></trkpt><trkpt lat="37.52051" lon="15.062255"><ele>116.0</ele><time>2026-03-22T14:17:04.787Z</time></trkpt><trkpt lat="37.5206533" lon="15.062335"><ele>118.33333333333333</ele><time>2026-03-22T14:17:05.786Z</time></trkpt><trkpt lat="37.5207983" lon="15.06242"><ele>120.66666666666666</ele><time>2026-03-22T14:17:06.787Z</time></trkpt><trkpt lat="37.5209467" lon="15.062505"><ele>123.0</ele><time>2026-03-22T14:17:07.786Z</time></trkpt><trkpt lat="37.5210867" lon="15.06259"><ele>123.0</ele><time>2026-03-22T14:17:08.787Z</time></trkpt><trkpt lat="37.52122" lon="15.0626633"><ele>123.0</ele><time>2026-03-22T14:17:09.786Z</time></trkpt><trkpt lat="37.521335" lon="15.06273"><ele>123.0</ele><time>2026-03-22T14:17:10.787Z</time></trkpt><trkpt lat="37.521425" lon="15.0627983"><ele>123.0</ele><time>2026-03-22T14:17:11.787Z</time></trkpt><trkpt lat="37.5214883" lon="15.0628717"><ele>123.2</ele><time>2026-03-22T14:17:12.787Z</time></trkpt><trkpt lat="37.5215317" lon="15.0629617"><ele>123.4</ele><time>2026-03-22T14:17:13.787Z</time></trkpt><trkpt lat="37.5215583" lon="15.0630683"><ele>123.60000000000001</ele><time>2026-03-22T14:17:14.787Z</time></trkpt><trkpt lat="37.5215783" lon="15.0631883"><ele>123.80000000000001</ele><time>2026-03-22T14:17:15.786Z</time></trkpt><trkpt lat="37.5216033" lon="15.0633083"><ele>124.0</ele><time>2026-03-22T14:17:16.786Z</time></trkpt><trkpt lat="37.5216533" lon="15.0634117"><ele>124.2</ele><time>2026-03-22T14:17:17.786Z</time></trkpt><trkpt lat="37.521725" lon="15.063495"><ele>124.4</ele><time>2026-03-22T14:17:18.786Z</time></trkpt><trkpt lat="37.5218183" lon="15.0635567"><ele>124.6</ele><time>2026-03-22T14:17:19.786Z</time></trkpt><trkpt lat="37.5219133" lon="15.0635983"><ele>124.8</ele><time>2026-03-22T14:17:20.787Z</time></trkpt><trkpt lat="37.5220033" lon="15.06364"><ele>125.0</ele><time>2026-03-22T14:17:21.786Z</time></trkpt><trkpt lat="37.52207" lon="15.0637067"><ele>125.0</ele><time>2026-03-22T14:17:22.786Z</time></trkpt><trkpt lat="37.5221283" lon="15.0638017"><ele>125.0</ele><time>2026-03-22T14:17:23.787Z</time></trkpt><trkpt lat="37.52217" lon="15.06392"><ele>125.0</ele><time>2026-03-22T14:17:24.787Z</time></trkpt><trkpt lat="37.5222" lon="15.0640633"><ele>125.0</ele><time>2026-03-22T14:17:25.786Z</time></trkpt><trkpt lat="37.5222233" lon="15.0642217"><ele>125.0</ele><time>2026-03-22T14:17:26.786Z</time></trkpt><trkpt lat="37.5222483" lon="15.064385"><ele>124.5</ele><time>2026-03-22T14:17:27.786Z</time></trkpt><trkpt lat="37.5222733" lon="15.06456"><ele>124.0</ele><time>2026-03-22T14:17:28.787Z</time></trkpt><trkpt lat="37.5222933" lon="15.06474"><ele>123.5</ele><time>2026-03-22T14:17:29.787Z</time></trkpt><trkpt lat="37.5223183" lon="15.06492"><ele>123.0</ele><time>2026-03-22T14:17:30.787Z</time></trkpt><trkpt lat="37.52234" lon="15.065105"><ele>123.0</ele><time>2026-03-22T14:17:31.786Z</time></trkpt><trkpt lat="37.5223617" lon="15.0652967"><ele>123.0</ele><time>2026-03-22T14:17:32.786Z</time></trkpt><trkpt lat="37.52239" lon="15.0654883"><ele>123.0</ele><time>2026-03-22T14:17:33.786Z</time></trkpt><trkpt lat="37.522415" lon="15.0656783"><ele>123.0</ele><time>2026-03-22T14:17:34.786Z</time></trkpt><trkpt lat="37.5224467" lon="15.0658717"><ele>123.0</ele><time>2026-03-22T14:17:35.786Z</time></trkpt><trkpt lat="37.522475" lon="15.0660683"><ele>123.0</ele><time>2026-03-22T14:17:36.787Z</time></trkpt><trkpt lat="37.5225" lon="15.06627"><ele>123.0</ele><time>2026-03-22T14:17:37.786Z</time></trkpt><trkpt lat="37.5225283" lon="15.06647"><ele>123.0</ele><time>2026-03-22T14:17:38.786Z</time></trkpt><trkpt lat="37.5225583" lon="15.0666717"><ele>123.0</ele><time>2026-03-22T14:17:39.787Z</time></trkpt><trkpt lat="37.522585" lon="15.0668767"><ele>123.0</ele><time>2026-03-22T14:17:40.787Z</time></trkpt><trkpt lat="37.5226133" lon="15.06708"><ele>123.0</ele><time>2026-03-22T14:17:41.786Z</time></trkpt><trkpt lat="37.5226467" lon="15.0672917"><ele>123.0</ele><time>2026-03-22T14:17:42.786Z</time></trkpt><trkpt lat="37.5226767" lon="15.0675033"><ele>123.0</ele><time>2026-03-22T14:17:43.786Z</time></trkpt><trkpt lat="37.5227083" lon="15.0677133"><ele>123.0</ele><time>2026-03-22T14:17:44.787Z</time></trkpt><trkpt lat="37.522735" lon="15.0679117"><ele>123.0</ele><time>2026-03-22T14:17:45.787Z</time></trkpt><trkpt lat="37.5227583" lon="15.068105"><ele>123.5</ele><time>2026-03-22T14:17:46.787Z</time></trkpt><trkpt lat="37.5227767" lon="15.0682867"><ele>124.0</ele><time>2026-03-22T14:17:47.787Z</time></trkpt><trkpt lat="37.522795" lon="15.0684533"><ele>124.5</ele><time>2026-03-22T14:17:48.786Z</time></trkpt><trkpt lat="37.5228167" lon="15.0686133"><ele>125.0</ele><time>2026-03-22T14:17:49.787Z</time></trkpt><trkpt lat="37.52284" lon="15.068775"><ele>125.0</ele><time>2026-03-22T14:17:50.787Z</time></trkpt><trkpt lat="37.522865" lon="15.0689367"><ele>125.0</ele><time>2026-03-22T14:17:51.786Z</time></trkpt><trkpt lat="37.5228867" lon="15.0690983"><ele>125.0</ele><time>2026-03-22T14:17:52.786Z</time></trkpt><trkpt lat="37.5229133" lon="15.0692717"><ele>125.0</ele><time>2026-03-22T14:17:53.786Z</time></trkpt><trkpt lat="37.52294" lon="15.06944"><ele>127.5</ele><time>2026-03-22T14:17:54.786Z</time></trkpt><trkpt lat="37.522975" lon="15.0696067"><ele>130.0</ele><time>2026-03-22T14:17:55.787Z</time></trkpt><trkpt lat="37.5230067" lon="15.0697767"><ele>132.5</ele><time>2026-03-22T14:17:56.786Z</time></trkpt><trkpt lat="37.5230333" lon="15.0699533"><ele>135.0</ele><time>2026-03-22T14:17:57.786Z</time></trkpt><trkpt lat="37.5230517" lon="15.0701483"><ele>135.0</ele><time>2026-03-22T14:17:58.787Z</time></trkpt><trkpt lat="37.5230783" lon="15.0703383"><ele>135.0</ele><time>2026-03-22T14:17:59.787Z</time></trkpt><trkpt lat="37.5231133" lon="15.070525"><ele>135.0</ele><time>2026-03-22T14:18:00.787Z</time></trkpt><trkpt lat="37.5231467" lon="15.070715"><ele>135.25</ele><time>2026-03-22T14:18:01.787Z</time></trkpt><trkpt lat="37.523185" lon="15.0708917"><ele>135.5</ele><time>2026-03-22T14:18:02.786Z</time></trkpt><trkpt lat="37.52323" lon="15.071065"><ele>135.75</ele><time>2026-03-22T14:18:03.787Z</time></trkpt><trkpt lat="37.523275" lon="15.0712367"><ele>136.0</ele><time>2026-03-22T14:18:04.787Z</time></trkpt><trkpt lat="37.52334" lon="15.07139"><ele>136.0</ele><time>2026-03-22T14:18:05.787Z</time></trkpt><trkpt lat="37.5234" lon="15.0715383"><ele>136.0</ele><time>2026-03-22T14:18:06.786Z</time></trkpt><trkpt lat="37.5234617" lon="15.0716783"><ele>136.0</ele><time>2026-03-22T14:18:07.786Z</time></trkpt><trkpt lat="37.5235267" lon="15.0718117"><ele>136.0</ele><time>2026-03-22T14:18:08.787Z</time></trkpt><trkpt lat="37.523585" lon="15.0719517"><ele>136.0</ele><time>2026-03-22T14:18:09.787Z</time></trkpt><trkpt lat="37.5236533" lon="15.0720983"><ele>136.0</ele><time>2026-03-22T14:18:10.787Z</time></trkpt><trkpt lat="37.5237217" lon="15.0722533"><ele>136.0</ele><time>2026-03-22T14:18:11.786Z</time></trkpt><trkpt lat="37.5237833" lon="15.0723967"><ele>136.0</ele><time>2026-03-22T14:18:12.786Z</time></trkpt><trkpt lat="37.52384" lon="15.07254"><ele>137.0</ele><time>2026-03-22T14:18:13.787Z</time></trkpt><trkpt lat="37.523895" lon="15.0726783"><ele>138.0</ele><time>2026-03-22T14:18:14.787Z</time></trkpt><trkpt lat="37.5239483" lon="15.072805"><ele>139.0</ele><time>2026-03-22T14:18:15.786Z</time></trkpt><trkpt lat="37.5239883" lon="15.07292"><ele>140.0</ele><time>2026-03-22T14:18:16.787Z</time></trkpt><trkpt lat="37.5240333" lon="15.0730217"><ele>141.0</ele><time>2026-03-22T14:18:17.787Z</time></trkpt><trkpt lat="37.5240717" lon="15.0731"><ele>141.0</ele><time>2026-03-22T14:18:18.786Z</time></trkpt><trkpt lat="37.5241217" lon="15.0731533"><ele>141.0</ele><time>2026-03-22T14:18:19.787Z</time></trkpt><trkpt lat="37.5242083" lon="15.0731217"><ele>141.0</ele><time>2026-03-22T14:18:21.786Z</time></trkpt><trkpt lat="37.52425" lon="15.0729883"><ele>141.0</ele><time>2026-03-22T14:18:23.787Z</time></trkpt><trkpt lat="37.524175" lon="15.0728433"><ele>141.0</ele><time>2026-03-22T14:18:25.787Z</time></trkpt><trkpt lat="37.52412" lon="15.0727483"><ele>141.0</ele><time>2026-03-22T14:18:26.788Z</time></trkpt><trkpt lat="37.5240617" lon="15.0726433"><ele>141.0</ele><time>2026-03-22T14:18:27.787Z</time></trkpt><trkpt lat="37.5239933" lon="15.072535"><ele>141.0</ele><time>2026-03-22T14:18:28.788Z</time></trkpt><trkpt lat="37.5239183" lon="15.0724133"><ele>141.0</ele><time>2026-03-22T14:18:29.788Z</time></trkpt><trkpt lat="37.52384" lon="15.0722867"><ele>141.5</ele><time>2026-03-22T14:18:30.788Z</time></trkpt><trkpt lat="37.523775" lon="15.0721583"><ele>142.0</ele><time>2026-03-22T14:18:31.788Z</time></trkpt><trkpt lat="37.5237167" lon="15.0720217"><ele>142.5</ele><time>2026-03-22T14:18:32.787Z</time></trkpt><trkpt lat="37.523655" lon="15.07188"><ele>143.0</ele><time>2026-03-22T14:18:33.788Z</time></trkpt><trkpt lat="37.523595" lon="15.0717467"><ele>141.25</ele><time>2026-03-22T14:18:34.787Z</time></trkpt><trkpt lat="37.5235433" lon="15.07161"><ele>139.5</ele><time>2026-03-22T14:18:35.787Z</time></trkpt><trkpt lat="37.523495" lon="15.0714617"><ele>137.75</ele><time>2026-03-22T14:18:36.788Z</time></trkpt><trkpt lat="37.52345" lon="15.071325"><ele>136.0</ele><time>2026-03-22T14:18:37.788Z</time></trkpt><trkpt lat="37.5234017" lon="15.0711933"><ele>136.0</ele><time>2026-03-22T14:18:38.787Z</time></trkpt><trkpt lat="37.5233633" lon="15.0710767"><ele>136.0</ele><time>2026-03-22T14:18:39.787Z</time></trkpt><trkpt lat="37.5233367" lon="15.07095"><ele>136.0</ele><time>2026-03-22T14:18:40.787Z</time></trkpt><trkpt lat="37.5233183" lon="15.07081"><ele>136.0</ele><time>2026-03-22T14:18:41.788Z</time></trkpt><trkpt lat="37.5233183" lon="15.070645"><ele>136.0</ele><time>2026-03-22T14:18:42.787Z</time></trkpt><trkpt lat="37.523345" lon="15.0704783"><ele>135.75</ele><time>2026-03-22T14:18:43.788Z</time></trkpt><trkpt lat="37.523405" lon="15.0703233"><ele>135.5</ele><time>2026-03-22T14:18:44.788Z</time></trkpt><trkpt lat="37.52349" lon="15.0701933"><ele>135.25</ele><time>2026-03-22T14:18:45.787Z</time></trkpt><trkpt lat="37.5235883" lon="15.0700917"><ele>135.0</ele><time>2026-03-22T14:18:46.787Z</time></trkpt><trkpt lat="37.5236967" lon="15.0700283"><ele>136.75</ele><time>2026-03-22T14:18:47.787Z</time></trkpt><trkpt lat="37.5238167" lon="15.0699767"><ele>138.5</ele><time>2026-03-22T14:18:48.787Z</time></trkpt><trkpt lat="37.5239367" lon="15.0699283"><ele>140.25</ele><time>2026-03-22T14:18:49.788Z</time></trkpt><trkpt lat="37.524055" lon="15.0698783"><ele>142.0</ele><time>2026-03-22T14:18:50.788Z</time></trkpt><trkpt lat="37.524175" lon="15.0698333"><ele>143.0</ele><time>2026-03-22T14:18:51.787Z</time></trkpt><trkpt lat="37.5243" lon="15.0697883"><ele>144.0</ele><time>2026-03-22T14:18:52.787Z</time></trkpt><trkpt lat="37.5244233" lon="15.0697583"><ele>145.0</ele><time>2026-03-22T14:18:53.787Z</time></trkpt><trkpt lat="37.5245533" lon="15.06972"><ele>146.0</ele><time>2026-03-22T14:18:54.788Z</time></trkpt><trkpt lat="37.52469" lon="15.0696783"><ele>147.5</ele><time>2026-03-22T14:18:55.787Z</time></trkpt><trkpt lat="37.5248283" lon="15.0696433"><ele>149.0</ele><time>2026-03-22T14:18:56.788Z</time></trkpt><trkpt lat="37.5249733" lon="15.0696167"><ele>150.5</ele><time>2026-03-22T14:18:57.787Z</time></trkpt><trkpt lat="37.5251183" lon="15.0695867"><ele>152.0</ele><time>2026-03-22T14:18:58.788Z</time></trkpt><trkpt lat="37.5252667" lon="15.069565"><ele>154.66666666666666</ele><time>2026-03-22T14:18:59.787Z</time></trkpt><trkpt lat="37.5254133" lon="15.0695417"><ele>157.33333333333334</ele><time>2026-03-22T14:19:00.787Z</time></trkpt><trkpt lat="37.525565" lon="15.0695283"><ele>160.0</ele><time>2026-03-22T14:19:01.787Z</time></trkpt><trkpt lat="37.525715" lon="15.0695317"><ele>160.0</ele><time>2026-03-22T14:19:02.787Z</time></trkpt><trkpt lat="37.5258683" lon="15.0695583"><ele>160.0</ele><time>2026-03-22T14:19:03.787Z</time></trkpt><trkpt lat="37.526015" lon="15.0696017"><ele>160.0</ele><time>2026-03-22T14:19:04.788Z</time></trkpt><trkpt lat="37.5261667" lon="15.0696483"><ele>161.33333333333334</ele><time>2026-03-22T14:19:05.787Z</time></trkpt><trkpt lat="37.5263233" lon="15.0696917"><ele>162.66666666666666</ele><time>2026-03-22T14:19:06.787Z</time></trkpt><trkpt lat="37.5264883" lon="15.0697183"><ele>164.0</ele><time>2026-03-22T14:19:07.788Z</time></trkpt><trkpt lat="37.5266567" lon="15.0697433"><ele>164.0</ele><time>2026-03-22T14:19:08.787Z</time></trkpt><trkpt lat="37.5268217" lon="15.0697717"><ele>164.0</ele><time>2026-03-22T14:19:09.787Z</time></trkpt><trkpt lat="37.5269917" lon="15.0697867"><ele>164.0</ele><time>2026-03-22T14:19:10.788Z</time></trkpt><trkpt lat="37.527165" lon="15.0697867"><ele>164.33333333333331</ele><time>2026-03-22T14:19:11.787Z</time></trkpt><trkpt lat="37.52734" lon="15.069775"><ele>164.66666666666666</ele><time>2026-03-22T14:19:12.788Z</time></trkpt><trkpt lat="37.527515" lon="15.0697633"><ele>165.0</ele><time>2026-03-22T14:19:13.788Z</time></trkpt><trkpt lat="37.5276833" lon="15.0697367"><ele>165.0</ele><time>2026-03-22T14:19:14.788Z</time></trkpt><trkpt lat="37.52785" lon="15.06969"><ele>165.0</ele><time>2026-03-22T14:19:15.787Z</time></trkpt><trkpt lat="37.5280133" lon="15.0696117"><ele>165.0</ele><time>2026-03-22T14:19:16.788Z</time></trkpt><trkpt lat="37.528175" lon="15.0695267"><ele>166.33333333333334</ele><time>2026-03-22T14:19:17.788Z</time></trkpt><trkpt lat="37.5283317" lon="15.0694317"><ele>167.66666666666669</ele><time>2026-03-22T14:19:18.788Z</time></trkpt><trkpt lat="37.52848" lon="15.0693317"><ele>169.0</ele><time>2026-03-22T14:19:19.788Z</time></trkpt><trkpt lat="37.5286317" lon="15.0692467"><ele>171.33333333333334</ele><time>2026-03-22T14:19:20.787Z</time></trkpt><trkpt lat="37.528785" lon="15.06915"><ele>173.66666666666666</ele><time>2026-03-22T14:19:21.787Z</time></trkpt><trkpt lat="37.52894" lon="15.069045"><ele>176.0</ele><time>2026-03-22T14:19:22.788Z</time></trkpt><trkpt lat="37.5290883" lon="15.0689383"><ele>176.0</ele><time>2026-03-22T14:19:23.788Z</time></trkpt><trkpt lat="37.5292383" lon="15.06883"><ele>176.0</ele><time>2026-03-22T14:19:24.788Z</time></trkpt><trkpt lat="37.5293833" lon="15.0687233"><ele>176.0</ele><time>2026-03-22T14:19:25.788Z</time></trkpt><trkpt lat="37.52953" lon="15.0686317"><ele>177.33333333333331</ele><time>2026-03-22T14:19:26.788Z</time></trkpt><trkpt lat="37.5296767" lon="15.06854"><ele>178.66666666666666</ele><time>2026-03-22T14:19:27.787Z</time></trkpt><trkpt lat="37.5298317" lon="15.0684483"><ele>180.0</ele><time>2026-03-22T14:19:28.787Z</time></trkpt><trkpt lat="37.5299833" lon="15.0683483"><ele>180.33333333333334</ele><time>2026-03-22T14:19:29.788Z</time></trkpt><trkpt lat="37.53014" lon="15.068255"><ele>180.66666666666669</ele><time>2026-03-22T14:19:30.787Z</time></trkpt><trkpt lat="37.5302983" lon="15.06816"><ele>181.0</ele><time>2026-03-22T14:19:31.787Z</time></trkpt><trkpt lat="37.5304417" lon="15.0680733"><ele>181.0</ele><time>2026-03-22T14:19:32.787Z</time></trkpt><trkpt lat="37.5305667" lon="15.0680017"><ele>181.0</ele><time>2026-03-22T14:19:33.787Z</time></trkpt><trkpt lat="37.5306733" lon="15.067945"><ele>181.0</ele><time>2026-03-22T14:19:34.788Z</time></trkpt><trkpt lat="37.5307783" lon="15.0679083"><ele>181.0</ele><time>2026-03-22T14:19:35.788Z</time></trkpt><trkpt lat="37.530895" lon="15.0678683"><ele>181.0</ele><time>2026-03-22T14:19:36.787Z</time></trkpt><trkpt lat="37.5310183" lon="15.0678283"><ele>181.0</ele><time>2026-03-22T14:19:37.788Z</time></trkpt><trkpt lat="37.5311467" lon="15.067765"><ele>181.0</ele><time>2026-03-22T14:19:38.787Z</time></trkpt><trkpt lat="37.5312783" lon="15.0676933"><ele>181.0</ele><time>2026-03-22T14:19:39.787Z</time></trkpt><trkpt lat="37.5314083" lon="15.06762"><ele>182.0</ele><time>2026-03-22T14:19:40.787Z</time></trkpt><trkpt lat="37.5315467" lon="15.0675633"><ele>183.0</ele><time>2026-03-22T14:19:41.787Z</time></trkpt><trkpt lat="37.5316933" lon="15.0675333"><ele>184.0</ele><time>2026-03-22T14:19:42.787Z</time></trkpt><trkpt lat="37.5318383" lon="15.0675233"><ele>185.0</ele><time>2026-03-22T14:19:43.788Z</time></trkpt><trkpt lat="37.5319833" lon="15.0675317"><ele>186.5</ele><time>2026-03-22T14:19:44.788Z</time></trkpt><trkpt lat="37.5321233" lon="15.067555"><ele>188.0</ele><time>2026-03-22T14:19:45.788Z</time></trkpt><trkpt lat="37.5322633" lon="15.0675967"><ele>189.5</ele><time>2026-03-22T14:19:46.787Z</time></trkpt><trkpt lat="37.5324033" lon="15.067655"><ele>191.0</ele><time>2026-03-22T14:19:47.788Z</time></trkpt><trkpt lat="37.53254" lon="15.0677183"><ele>191.0</ele><time>2026-03-22T14:19:48.787Z</time></trkpt><trkpt lat="37.5326783" lon="15.0677783"><ele>191.0</ele><time>2026-03-22T14:19:49.788Z</time></trkpt><trkpt lat="37.5328183" lon="15.0678217"><ele>191.0</ele><time>2026-03-22T14:19:50.788Z</time></trkpt><trkpt lat="37.5329617" lon="15.0678367"><ele>191.0</ele><time>2026-03-22T14:19:51.787Z</time></trkpt><trkpt lat="37.5331067" lon="15.0678133"><ele>194.33333333333331</ele><time>2026-03-22T14:19:52.787Z</time></trkpt><trkpt lat="37.533255" lon="15.0677733"><ele>197.66666666666666</ele><time>2026-03-22T14:19:53.788Z</time></trkpt><trkpt lat="37.5334067" lon="15.0677267"><ele>201.0</ele><time>2026-03-22T14:19:54.788Z</time></trkpt><trkpt lat="37.53356" lon="15.06768"><ele>201.0</ele><time>2026-03-22T14:19:55.788Z</time></trkpt><trkpt lat="37.5337167" lon="15.067625"><ele>201.0</ele><time>2026-03-22T14:19:56.787Z</time></trkpt><trkpt lat="37.533875" lon="15.0675683"><ele>201.0</ele><time>2026-03-22T14:19:57.788Z</time></trkpt><trkpt lat="37.534025" lon="15.0675167"><ele>201.25</ele><time>2026-03-22T14:19:58.788Z</time></trkpt><trkpt lat="37.53416" lon="15.067465"><ele>201.5</ele><time>2026-03-22T14:19:59.787Z</time></trkpt><trkpt lat="37.5342833" lon="15.0674217"><ele>201.75</ele><time>2026-03-22T14:20:00.788Z</time></trkpt><trkpt lat="37.5343933" lon="15.06738"><ele>202.0</ele><time>2026-03-22T14:20:01.787Z</time></trkpt><trkpt lat="37.5345067" lon="15.0673517"><ele>202.0</ele><time>2026-03-22T14:20:02.787Z</time></trkpt><trkpt lat="37.5346317" lon="15.067335"><ele>202.0</ele><time>2026-03-22T14:20:03.788Z</time></trkpt><trkpt lat="37.5347683" lon="15.0673333"><ele>202.0</ele><time>2026-03-22T14:20:04.787Z</time></trkpt><trkpt lat="37.5349067" lon="15.0673533"><ele>202.0</ele><time>2026-03-22T14:20:05.788Z</time></trkpt><trkpt lat="37.5350383" lon="15.0673817"><ele>202.0</ele><time>2026-03-22T14:20:06.787Z</time></trkpt><trkpt lat="37.53518" lon="15.0674017"><ele>202.0</ele><time>2026-03-22T14:20:07.787Z</time></trkpt><trkpt lat="37.5353183" lon="15.067425"><ele>202.0</ele><time>2026-03-22T14:20:08.788Z</time></trkpt><trkpt lat="37.5354517" lon="15.0674483"><ele>202.0</ele><time>2026-03-22T14:20:09.787Z</time></trkpt><trkpt lat="37.5355817" lon="15.06747"><ele>201.0</ele><time>2026-03-22T14:20:10.787Z</time></trkpt><trkpt lat="37.5357133" lon="15.06749"><ele>200.0</ele><time>2026-03-22T14:20:11.788Z</time></trkpt><trkpt lat="37.5358533" lon="15.0675083"><ele>199.0</ele><time>2026-03-22T14:20:12.787Z</time></trkpt><trkpt lat="37.5359983" lon="15.0675267"><ele>198.0</ele><time>2026-03-22T14:20:13.788Z</time></trkpt><trkpt lat="37.5361483" lon="15.0675533"><ele>197.66666666666669</ele><time>2026-03-22T14:20:14.787Z</time></trkpt><trkpt lat="37.5363017" lon="15.067575"><ele>197.33333333333334</ele><time>2026-03-22T14:20:15.787Z</time></trkpt><trkpt lat="37.5364583" lon="15.0675983"><ele>197.0</ele><time>2026-03-22T14:20:16.788Z</time></trkpt><trkpt lat="37.5366167" lon="15.067615"><ele>197.0</ele><time>2026-03-22T14:20:17.787Z</time></trkpt><trkpt lat="37.536775" lon="15.06762"><ele>197.0</ele><time>2026-03-22T14:20:18.788Z</time></trkpt><trkpt lat="37.5369317" lon="15.067615"><ele>197.0</ele><time>2026-03-22T14:20:19.788Z</time></trkpt><trkpt lat="37.5370883" lon="15.0676033"><ele>197.25</ele><time>2026-03-22T14:20:20.787Z</time></trkpt><trkpt lat="37.5372333" lon="15.067595"><ele>197.5</ele><time>2026-03-22T14:20:21.788Z</time></trkpt><trkpt lat="37.5373733" lon="15.0675933"><ele>197.75</ele><time>2026-03-22T14:20:22.788Z</time></trkpt><trkpt lat="37.5375167" lon="15.0676033"><ele>198.0</ele><time>2026-03-22T14:20:23.788Z</time></trkpt><trkpt lat="37.5376567" lon="15.0676283"><ele>198.0</ele><time>2026-03-22T14:20:24.787Z</time></trkpt><trkpt lat="37.5377883" lon="15.06767"><ele>198.0</ele><time>2026-03-22T14:20:25.788Z</time></trkpt><trkpt lat="37.5379067" lon="15.0677333"><ele>198.0</ele><time>2026-03-22T14:20:26.788Z</time></trkpt><trkpt lat="37.5380167" lon="15.06782"><ele>198.0</ele><time>2026-03-22T14:20:27.788Z</time></trkpt><trkpt lat="37.538115" lon="15.0679183"><ele>198.4</ele><time>2026-03-22T14:20:28.787Z</time></trkpt><trkpt lat="37.5381883" lon="15.0680233"><ele>198.8</ele><time>2026-03-22T14:20:29.787Z</time></trkpt><trkpt lat="37.5382517" lon="15.0681283"><ele>199.2</ele><time>2026-03-22T14:20:30.788Z</time></trkpt><trkpt lat="37.538305" lon="15.06823"><ele>199.6</ele><time>2026-03-22T14:20:31.787Z</time></trkpt><trkpt lat="37.538355" lon="15.068315"><ele>200.0</ele><time>2026-03-22T14:20:32.787Z</time></trkpt><trkpt lat="37.5384" lon="15.0683733"><ele>200.00000000000003</ele><time>2026-03-22T14:20:33.787Z</time></trkpt><trkpt lat="37.5384683" lon="15.0684483"><ele>200.0</ele><time>2026-03-22T14:20:35.788Z</time></trkpt><trkpt lat="37.538565" lon="15.0684417"><ele>200.0</ele><time>2026-03-22T14:20:42.788Z</time></trkpt><trkpt lat="37.5386417" lon="15.0683367"><ele>200.0</ele><time>2026-03-22T14:20:44.787Z</time></trkpt><trkpt lat="37.5386733" lon="15.0682667"><ele>200.00000000000003</ele><time>2026-03-22T14:20:45.787Z</time></trkpt><trkpt lat="37.538705" lon="15.0681833"><ele>200.0</ele><time>2026-03-22T14:20:46.787Z</time></trkpt><trkpt lat="37.5387367" lon="15.0680967"><ele>200.83333333333334</ele><time>2026-03-22T14:20:47.788Z</time></trkpt><trkpt lat="37.538755" lon="15.0680067"><ele>201.66666666666669</ele><time>2026-03-22T14:20:48.788Z</time></trkpt><trkpt lat="37.53877" lon="15.0679083"><ele>202.5</ele><time>2026-03-22T14:20:49.788Z</time></trkpt><trkpt lat="37.5387783" lon="15.0678017"><ele>203.33333333333331</ele><time>2026-03-22T14:20:50.788Z</time></trkpt><trkpt lat="37.5387867" lon="15.0677"><ele>204.16666666666666</ele><time>2026-03-22T14:20:51.788Z</time></trkpt><trkpt lat="37.538785" lon="15.06759"><ele>205.0</ele><time>2026-03-22T14:20:52.788Z</time></trkpt><trkpt lat="37.5387767" lon="15.0674633"><ele>205.5</ele><time>2026-03-22T14:20:53.787Z</time></trkpt><trkpt lat="37.5387733" lon="15.0673333"><ele>206.0</ele><time>2026-03-22T14:20:54.788Z</time></trkpt><trkpt lat="37.5387783" lon="15.0671817"><ele>206.5</ele><time>2026-03-22T14:20:55.788Z</time></trkpt><trkpt lat="37.538785" lon="15.06703"><ele>207.0</ele><time>2026-03-22T14:20:56.787Z</time></trkpt><trkpt lat="37.5387933" lon="15.06687"><ele>207.0</ele><time>2026-03-22T14:20:57.788Z</time></trkpt><trkpt lat="37.5387967" lon="15.0667067"><ele>207.0</ele><time>2026-03-22T14:20:58.788Z</time></trkpt><trkpt lat="37.5387883" lon="15.0665367"><ele>207.0</ele><time>2026-03-22T14:20:59.788Z</time></trkpt><trkpt lat="37.5387683" lon="15.06637"><ele>207.0</ele><time>2026-03-22T14:21:00.787Z</time></trkpt><trkpt lat="37.5387367" lon="15.0662"><ele>207.0</ele><time>2026-03-22T14:21:01.787Z</time></trkpt><trkpt lat="37.5386967" lon="15.0660217"><ele>207.0</ele><time>2026-03-22T14:21:02.788Z</time></trkpt><trkpt lat="37.5386533" lon="15.0658467"><ele>207.0</ele><time>2026-03-22T14:21:03.787Z</time></trkpt><trkpt lat="37.53861" lon="15.0656783"><ele>207.0</ele><time>2026-03-22T14:21:04.788Z</time></trkpt><trkpt lat="37.5385733" lon="15.0655067"><ele>207.0</ele><time>2026-03-22T14:21:05.788Z</time></trkpt><trkpt lat="37.53854" lon="15.065335"><ele>207.0</ele><time>2026-03-22T14:21:06.787Z</time></trkpt><trkpt lat="37.5385067" lon="15.0651733"><ele>207.0</ele><time>2026-03-22T14:21:07.787Z</time></trkpt><trkpt lat="37.5384683" lon="15.065015"><ele>207.0</ele><time>2026-03-22T14:21:08.788Z</time></trkpt><trkpt lat="37.5384383" lon="15.064865"><ele>208.6</ele><time>2026-03-22T14:21:09.788Z</time></trkpt><trkpt lat="37.5384067" lon="15.06474"><ele>210.2</ele><time>2026-03-22T14:21:10.787Z</time></trkpt><trkpt lat="37.5383833" lon="15.0646283"><ele>211.8</ele><time>2026-03-22T14:21:11.787Z</time></trkpt><trkpt lat="37.538375" lon="15.0645283"><ele>213.4</ele><time>2026-03-22T14:21:12.788Z</time></trkpt><trkpt lat="37.53839" lon="15.0644283"><ele>215.0</ele><time>2026-03-22T14:21:13.788Z</time></trkpt><trkpt lat="37.5384183" lon="15.0643133"><ele>215.0</ele><time>2026-03-22T14:21:14.788Z</time></trkpt><trkpt lat="37.53845" lon="15.0641833"><ele>215.0</ele><time>2026-03-22T14:21:15.788Z</time></trkpt><trkpt lat="37.5384667" lon="15.064055"><ele>215.0</ele><time>2026-03-22T14:21:16.787Z</time></trkpt><trkpt lat="37.538485" lon="15.0639383"><ele>215.0</ele><time>2026-03-22T14:21:17.788Z</time></trkpt><trkpt lat="37.5384917" lon="15.06383"><ele>215.0</ele><time>2026-03-22T14:21:18.787Z</time></trkpt><trkpt lat="37.5384933" lon="15.0637267"><ele>215.6</ele><time>2026-03-22T14:21:19.787Z</time></trkpt><trkpt lat="37.5385" lon="15.063615"><ele>216.2</ele><time>2026-03-22T14:21:20.787Z</time></trkpt><trkpt lat="37.5385133" lon="15.0634983"><ele>216.8</ele><time>2026-03-22T14:21:21.788Z</time></trkpt><trkpt lat="37.5385433" lon="15.063375"><ele>217.4</ele><time>2026-03-22T14:21:22.787Z</time></trkpt><trkpt lat="37.53856" lon="15.0632383"><ele>218.0</ele><time>2026-03-22T14:21:23.787Z</time></trkpt><trkpt lat="37.5385733" lon="15.0631033"><ele>218.4</ele><time>2026-03-22T14:21:24.788Z</time></trkpt><trkpt lat="37.5385883" lon="15.062965"><ele>218.8</ele><time>2026-03-22T14:21:25.788Z</time></trkpt><trkpt lat="37.538615" lon="15.0628383"><ele>219.2</ele><time>2026-03-22T14:21:26.788Z</time></trkpt><trkpt lat="37.5386517" lon="15.0627117"><ele>219.6</ele><time>2026-03-22T14:21:27.787Z</time></trkpt><trkpt lat="37.5386817" lon="15.062575"><ele>220.0</ele><time>2026-03-22T14:21:28.787Z</time></trkpt><trkpt lat="37.5387117" lon="15.0624383"><ele>221.8</ele><time>2026-03-22T14:21:29.788Z</time></trkpt><trkpt lat="37.5387467" lon="15.0623133"><ele>223.6</ele><time>2026-03-22T14:21:30.787Z</time></trkpt><trkpt lat="37.5388017" lon="15.0622017"><ele>225.39999999999998</ele><time>2026-03-22T14:21:31.788Z</time></trkpt><trkpt lat="37.5388383" lon="15.0620817"><ele>227.2</ele><time>2026-03-22T14:21:32.788Z</time></trkpt><trkpt lat="37.538865" lon="15.06194"><ele>229.0</ele><time>2026-03-22T14:21:33.788Z</time></trkpt><trkpt lat="37.53888" lon="15.0618"><ele>229.0</ele><time>2026-03-22T14:21:34.787Z</time></trkpt><trkpt lat="37.53889" lon="15.06166"><ele>228.99999999999997</ele><time>2026-03-22T14:21:35.787Z</time></trkpt><trkpt lat="37.5388833" lon="15.0615183"><ele>228.99999999999997</ele><time>2026-03-22T14:21:36.788Z</time></trkpt><trkpt lat="37.5388683" lon="15.06139"><ele>229.0</ele><time>2026-03-22T14:21:37.787Z</time></trkpt><trkpt lat="37.5388533" lon="15.0612867"><ele>229.0</ele><time>2026-03-22T14:21:38.788Z</time></trkpt><trkpt lat="37.5388417" lon="15.0611517"><ele>229.39999999999998</ele><time>2026-03-22T14:21:40.788Z</time></trkpt><trkpt lat="37.538835" lon="15.0610667"><ele>229.79999999999998</ele><time>2026-03-22T14:21:42.787Z</time></trkpt><trkpt lat="37.538915" lon="15.061"><ele>230.20000000000002</ele><time>2026-03-22T14:21:45.788Z</time></trkpt><trkpt lat="37.539035" lon="15.0609383"><ele>230.60000000000002</ele><time>2026-03-22T14:21:47.787Z</time></trkpt><trkpt lat="37.539115" lon="15.0609"><ele>231.0</ele><time>2026-03-22T14:21:48.788Z</time></trkpt><trkpt lat="37.539205" lon="15.0608617"><ele>231.0</ele><time>2026-03-22T14:21:49.787Z</time></trkpt><trkpt lat="37.5392983" lon="15.0608283"><ele>231.00000000000003</ele><time>2026-03-22T14:21:50.787Z</time></trkpt><trkpt lat="37.5393983" lon="15.0607917"><ele>231.00000000000003</ele><time>2026-03-22T14:21:51.788Z</time></trkpt><trkpt lat="37.5395" lon="15.0607567"><ele>231.0</ele><time>2026-03-22T14:21:52.788Z</time></trkpt><trkpt lat="37.5396017" lon="15.0607217"><ele>231.0</ele><time>2026-03-22T14:21:53.788Z</time></trkpt><trkpt lat="37.5397" lon="15.0606617"><ele>232.0</ele><time>2026-03-22T14:21:54.787Z</time></trkpt><trkpt lat="37.5397917" lon="15.0605933"><ele>233.00000000000003</ele><time>2026-03-22T14:21:55.788Z</time></trkpt><trkpt lat="37.5398783" lon="15.0605083"><ele>234.00000000000003</ele><time>2026-03-22T14:21:56.787Z</time></trkpt><trkpt lat="37.5399433" lon="15.0603967"><ele>235.0</ele><time>2026-03-22T14:21:57.787Z</time></trkpt><trkpt lat="37.5400133" lon="15.0602867"><ele>236.0</ele><time>2026-03-22T14:21:58.788Z</time></trkpt><trkpt lat="37.54009" lon="15.0601783"><ele>236.0</ele><time>2026-03-22T14:21:59.787Z</time></trkpt><trkpt lat="37.5401617" lon="15.0600683"><ele>236.0</ele><time>2026-03-22T14:22:00.788Z</time></trkpt><trkpt lat="37.54022" lon="15.0599433"><ele>236.0</ele><time>2026-03-22T14:22:01.787Z</time></trkpt><trkpt lat="37.540265" lon="15.0598"><ele>236.0</ele><time>2026-03-22T14:22:02.788Z</time></trkpt><trkpt lat="37.54031" lon="15.0596583"><ele>236.4</ele><time>2026-03-22T14:22:03.787Z</time></trkpt><trkpt lat="37.540345" lon="15.0595233"><ele>236.8</ele><time>2026-03-22T14:22:04.788Z</time></trkpt><trkpt lat="37.5403783" lon="15.0594"><ele>237.20000000000002</ele><time>2026-03-22T14:22:05.787Z</time></trkpt><trkpt lat="37.5404183" lon="15.0592767"><ele>237.60000000000002</ele><time>2026-03-22T14:22:06.787Z</time></trkpt><trkpt lat="37.5404767" lon="15.05916"><ele>238.0</ele><time>2026-03-22T14:22:07.788Z</time></trkpt><trkpt lat="37.54055" lon="15.0590517"><ele>239.8</ele><time>2026-03-22T14:22:08.787Z</time></trkpt><trkpt lat="37.54063" lon="15.0589417"><ele>241.60000000000002</ele><time>2026-03-22T14:22:09.787Z</time></trkpt><trkpt lat="37.5407" lon="15.0588383"><ele>243.39999999999998</ele><time>2026-03-22T14:22:10.787Z</time></trkpt><trkpt lat="37.54074" lon="15.05871"><ele>245.2</ele><time>2026-03-22T14:22:11.788Z</time></trkpt><trkpt lat="37.5407517" lon="15.0585833"><ele>247.0</ele><time>2026-03-22T14:22:12.787Z</time></trkpt><trkpt lat="37.54076" lon="15.0584483"><ele>247.0</ele><time>2026-03-22T14:22:13.787Z</time></trkpt><trkpt lat="37.54078" lon="15.0583117"><ele>247.0</ele><time>2026-03-22T14:22:14.787Z</time></trkpt><trkpt lat="37.540825" lon="15.05818"><ele>247.0</ele><time>2026-03-22T14:22:15.788Z</time></trkpt><trkpt lat="37.5408883" lon="15.0580517"><ele>247.0</ele><time>2026-03-22T14:22:16.788Z</time></trkpt><trkpt lat="37.5409533" lon="15.0579283"><ele>247.5</ele><time>2026-03-22T14:22:17.787Z</time></trkpt><trkpt lat="37.5410133" lon="15.057795"><ele>248.0</ele><time>2026-03-22T14:22:18.788Z</time></trkpt><trkpt lat="37.54107" lon="15.057655"><ele>248.5</ele><time>2026-03-22T14:22:19.787Z</time></trkpt><trkpt lat="37.5411133" lon="15.0575033"><ele>249.0</ele><time>2026-03-22T14:22:20.787Z</time></trkpt><trkpt lat="37.5411467" lon="15.05734"><ele>249.5</ele><time>2026-03-22T14:22:21.788Z</time></trkpt><trkpt lat="37.54117" lon="15.0571717"><ele>250.0</ele><time>2026-03-22T14:22:22.788Z</time></trkpt><trkpt lat="37.5411967" lon="15.0570017"><ele>250.5</ele><time>2026-03-22T14:22:23.788Z</time></trkpt><trkpt lat="37.5412217" lon="15.056835"><ele>251.0</ele><time>2026-03-22T14:22:24.787Z</time></trkpt><trkpt lat="37.54124" lon="15.0566817"><ele>251.8</ele><time>2026-03-22T14:22:25.788Z</time></trkpt><trkpt lat="37.541245" lon="15.0565417"><ele>252.60000000000002</ele><time>2026-03-22T14:22:26.788Z</time></trkpt><trkpt lat="37.541235" lon="15.0564133"><ele>253.4</ele><time>2026-03-22T14:22:27.787Z</time></trkpt><trkpt lat="37.5411983" lon="15.0563"><ele>254.2</ele><time>2026-03-22T14:22:28.788Z</time></trkpt><trkpt lat="37.5411517" lon="15.056215"><ele>255.0</ele><time>2026-03-22T14:22:29.787Z</time></trkpt><trkpt lat="37.5411" lon="15.056115"><ele>255.0</ele><time>2026-03-22T14:22:31.787Z</time></trkpt><trkpt lat="37.5410883" lon="15.0560267"><ele>255.0</ele><time>2026-03-22T14:22:33.788Z</time></trkpt><trkpt lat="37.54112" lon="15.0558967"><ele>255.0</ele><time>2026-03-22T14:22:35.787Z</time></trkpt><trkpt lat="37.5411333" lon="15.0558183"><ele>255.0</ele><time>2026-03-22T14:22:36.788Z</time></trkpt><trkpt lat="37.5411683" lon="15.0556783"><ele>255.0</ele><time>2026-03-22T14:22:38.788Z</time></trkpt><trkpt lat="37.541245" lon="15.0555833"><ele>255.83333333333334</ele><time>2026-03-22T14:22:40.787Z</time></trkpt><trkpt lat="37.54131" lon="15.0555633"><ele>256.6666666666667</ele><time>2026-03-22T14:22:41.788Z</time></trkpt><trkpt lat="37.5413817" lon="15.0555467"><ele>257.5</ele><time>2026-03-22T14:22:42.788Z</time></trkpt><trkpt lat="37.5414533" lon="15.0555233"><ele>258.33333333333337</ele><time>2026-03-22T14:22:43.788Z</time></trkpt><trkpt lat="37.5415233" lon="15.0555017"><ele>259.1666666666667</ele><time>2026-03-22T14:22:44.788Z</time></trkpt><trkpt lat="37.5416117" lon="15.0554817"><ele>260.0</ele><time>2026-03-22T14:22:45.787Z</time></trkpt><trkpt lat="37.5417033" lon="15.055455"><ele>260.0</ele><time>2026-03-22T14:22:46.788Z</time></trkpt><trkpt lat="37.5417967" lon="15.05543"><ele>260.0</ele><time>2026-03-22T14:22:47.787Z</time></trkpt><trkpt lat="37.5418767" lon="15.0553967"><ele>260.0</ele><time>2026-03-22T14:22:48.788Z</time></trkpt><trkpt lat="37.5419567" lon="15.0553667"><ele>260.0</ele><time>2026-03-22T14:22:49.788Z</time></trkpt><trkpt lat="37.5420417" lon="15.0553333"><ele>260.0</ele><time>2026-03-22T14:22:50.787Z</time></trkpt><trkpt lat="37.5421267" lon="15.0553033"><ele>260.0</ele><time>2026-03-22T14:22:51.788Z</time></trkpt><trkpt lat="37.54221" lon="15.055275"><ele>260.5</ele><time>2026-03-22T14:22:52.787Z</time></trkpt><trkpt lat="37.5422883" lon="15.0552467"><ele>261.0</ele><time>2026-03-22T14:22:53.788Z</time></trkpt><trkpt lat="37.54236" lon="15.0552267"><ele>261.5</ele><time>2026-03-22T14:22:54.787Z</time></trkpt><trkpt lat="37.5424833" lon="15.055225"><ele>262.0</ele><time>2026-03-22T14:22:56.788Z</time></trkpt><trkpt lat="37.54255" lon="15.0552317"><ele>262.5</ele><time>2026-03-22T14:22:57.788Z</time></trkpt><trkpt lat="37.542615" lon="15.0552333"><ele>263.0</ele><time>2026-03-22T14:22:58.787Z</time></trkpt><trkpt lat="37.5427117" lon="15.0551683"><ele>263.0</ele><time>2026-03-22T14:23:00.788Z</time></trkpt><trkpt lat="37.54276" lon="15.0550567"><ele>263.0</ele><time>2026-03-22T14:23:02.788Z</time></trkpt><trkpt lat="37.5428133" lon="15.0549367"><ele>263.0</ele><time>2026-03-22T14:23:04.788Z</time></trkpt><trkpt lat="37.54287" lon="15.054875"><ele>263.0</ele><time>2026-03-22T14:23:05.787Z</time></trkpt><trkpt lat="37.542945" lon="15.0548017"><ele>263.0</ele><time>2026-03-22T14:23:06.787Z</time></trkpt><trkpt lat="37.54302" lon="15.0547283"><ele>264.0</ele><time>2026-03-22T14:23:07.787Z</time></trkpt><trkpt lat="37.5430783" lon="15.0546733"><ele>265.0</ele><time>2026-03-22T14:23:08.788Z</time></trkpt><trkpt lat="37.543125" lon="15.0546183"><ele>266.0</ele><time>2026-03-22T14:23:09.788Z</time></trkpt><trkpt lat="37.5431883" lon="15.054515"><ele>267.0</ele><time>2026-03-22T14:23:11.787Z</time></trkpt><trkpt lat="37.5432417" lon="15.0543867"><ele>268.0</ele><time>2026-03-22T14:23:13.788Z</time></trkpt><trkpt lat="37.5433067" lon="15.0542733"><ele>268.0</ele><time>2026-03-22T14:23:15.788Z</time></trkpt><trkpt lat="37.54339" lon="15.054165"><ele>268.0</ele><time>2026-03-22T14:23:17.788Z</time></trkpt><trkpt lat="37.54344" lon="15.05411"><ele>268.0</ele><time>2026-03-22T14:23:18.788Z</time></trkpt><trkpt lat="37.5434967" lon="15.0540583"><ele>268.0</ele><time>2026-03-22T14:23:19.788Z</time></trkpt><trkpt lat="37.5435567" lon="15.05402"><ele>268.0</ele><time>2026-03-22T14:23:20.788Z</time></trkpt><trkpt lat="37.5436167" lon="15.0539767"><ele>268.0</ele><time>2026-03-22T14:23:21.787Z</time></trkpt><trkpt lat="37.5436767" lon="15.0539383"><ele>268.3333333333333</ele><time>2026-03-22T14:23:22.787Z</time></trkpt><trkpt lat="37.5437367" lon="15.0539017"><ele>268.66666666666663</ele><time>2026-03-22T14:23:23.788Z</time></trkpt><trkpt lat="37.5438467" lon="15.05383"><ele>269.0</ele><time>2026-03-22T14:23:25.788Z</time></trkpt><trkpt lat="37.5439083" lon="15.0537817"><ele>269.3333333333333</ele><time>2026-03-22T14:23:26.787Z</time></trkpt><trkpt lat="37.5439733" lon="15.0537167"><ele>269.6666666666667</ele><time>2026-03-22T14:23:27.787Z</time></trkpt><trkpt lat="37.5440433" lon="15.053645"><ele>270.0</ele><time>2026-03-22T14:23:28.788Z</time></trkpt><trkpt lat="37.54411" lon="15.0535867"><ele>270.0</ele><time>2026-03-22T14:23:29.788Z</time></trkpt><trkpt lat="37.5441833" lon="15.0535467"><ele>270.0</ele><time>2026-03-22T14:23:30.788Z</time></trkpt><trkpt lat="37.5442667" lon="15.0535233"><ele>270.0</ele><time>2026-03-22T14:23:31.787Z</time></trkpt><trkpt lat="37.5443633" lon="15.053505"><ele>270.0</ele><time>2026-03-22T14:23:32.787Z</time></trkpt><trkpt lat="37.54447" lon="15.05348"><ele>270.0</ele><time>2026-03-22T14:23:33.787Z</time></trkpt><trkpt lat="37.54458" lon="15.0534483"><ele>271.25</ele><time>2026-03-22T14:23:34.788Z</time></trkpt><trkpt lat="37.5446933" lon="15.0534133"><ele>272.5</ele><time>2026-03-22T14:23:35.787Z</time></trkpt><trkpt lat="37.5448083" lon="15.0533783"><ele>273.75</ele><time>2026-03-22T14:23:36.788Z</time></trkpt><trkpt lat="37.5449183" lon="15.053345"><ele>275.0</ele><time>2026-03-22T14:23:37.788Z</time></trkpt><trkpt lat="37.54503" lon="15.05331"><ele>275.0</ele><time>2026-03-22T14:23:38.788Z</time></trkpt><trkpt lat="37.5451383" lon="15.053275"><ele>275.0</ele><time>2026-03-22T14:23:39.787Z</time></trkpt><trkpt lat="37.5452517" lon="15.053235"><ele>275.0</ele><time>2026-03-22T14:23:40.788Z</time></trkpt><trkpt lat="37.545355" lon="15.053205"><ele>275.0</ele><time>2026-03-22T14:23:41.787Z</time></trkpt><trkpt lat="37.54546" lon="15.0531717"><ele>275.0</ele><time>2026-03-22T14:23:42.788Z</time></trkpt><trkpt lat="37.5455667" lon="15.0531417"><ele>276.6</ele><time>2026-03-22T14:23:43.788Z</time></trkpt><trkpt lat="37.54567" lon="15.0531117"><ele>278.2</ele><time>2026-03-22T14:23:44.787Z</time></trkpt><trkpt lat="37.5457733" lon="15.0530833"><ele>279.8</ele><time>2026-03-22T14:23:45.788Z</time></trkpt><trkpt lat="37.5458733" lon="15.0530583"><ele>281.4</ele><time>2026-03-22T14:23:46.787Z</time></trkpt><trkpt lat="37.5459767" lon="15.0530317"><ele>283.0</ele><time>2026-03-22T14:23:47.787Z</time></trkpt><trkpt lat="37.5460783" lon="15.0530017"><ele>283.0</ele><time>2026-03-22T14:23:48.788Z</time></trkpt><trkpt lat="37.5461767" lon="15.0529733"><ele>283.0</ele><time>2026-03-22T14:23:49.788Z</time></trkpt><trkpt lat="37.5462783" lon="15.0529417"><ele>283.0</ele><time>2026-03-22T14:23:50.787Z</time></trkpt><trkpt lat="37.546375" lon="15.0529117"><ele>283.0</ele><time>2026-03-22T14:23:51.787Z</time></trkpt><trkpt lat="37.5464667" lon="15.0528833"><ele>283.0</ele><time>2026-03-22T14:23:52.788Z</time></trkpt><trkpt lat="37.546545" lon="15.0528583"><ele>283.5</ele><time>2026-03-22T14:23:53.787Z</time></trkpt><trkpt lat="37.5466067" lon="15.052835"><ele>284.0</ele><time>2026-03-22T14:23:54.787Z</time></trkpt><trkpt lat="37.54668" lon="15.0528067"><ele>284.5</ele><time>2026-03-22T14:23:56.788Z</time></trkpt><trkpt lat="37.5467617" lon="15.052785"><ele>285.0</ele><time>2026-03-22T14:23:59.788Z</time></trkpt><trkpt lat="37.5468283" lon="15.0527617"><ele>285.5</ele><time>2026-03-22T14:24:01.788Z</time></trkpt><trkpt lat="37.5469017" lon="15.0527417"><ele>286.0</ele><time>2026-03-22T14:24:03.787Z</time></trkpt><trkpt lat="37.5470067" lon="15.052705"><ele>286.85714285714283</ele><time>2026-03-22T14:24:05.788Z</time></trkpt><trkpt lat="37.5470717" lon="15.0526883"><ele>287.7142857142857</ele><time>2026-03-22T14:24:06.788Z</time></trkpt><trkpt lat="37.547145" lon="15.05267"><ele>288.57142857142856</ele><time>2026-03-22T14:24:07.788Z</time></trkpt><trkpt lat="37.5472183" lon="15.0526383"><ele>289.42857142857144</ele><time>2026-03-22T14:24:08.787Z</time></trkpt><trkpt lat="37.547295" lon="15.0526167"><ele>290.2857142857143</ele><time>2026-03-22T14:24:09.787Z</time></trkpt><trkpt lat="37.5473633" lon="15.0526017"><ele>291.1428571428571</ele><time>2026-03-22T14:24:10.787Z</time></trkpt><trkpt lat="37.54744" lon="15.0525883"><ele>292.0</ele><time>2026-03-22T14:24:11.787Z</time></trkpt><trkpt lat="37.5475017" lon="15.0525617"><ele>292.0</ele><time>2026-03-22T14:24:12.787Z</time></trkpt><trkpt lat="37.5475767" lon="15.0525417"><ele>292.0</ele><time>2026-03-22T14:24:13.788Z</time></trkpt><trkpt lat="37.5476433" lon="15.0525167"><ele>292.0</ele><time>2026-03-22T14:24:14.788Z</time></trkpt><trkpt lat="37.5477267" lon="15.0525"><ele>292.0</ele><time>2026-03-22T14:24:15.788Z</time></trkpt><trkpt lat="37.547815" lon="15.0524733"><ele>292.0</ele><time>2026-03-22T14:24:16.788Z</time></trkpt><trkpt lat="37.547895" lon="15.05244"><ele>292.0</ele><time>2026-03-22T14:24:17.787Z</time></trkpt><trkpt lat="37.5479817" lon="15.05242"><ele>292.66666666666663</ele><time>2026-03-22T14:24:18.788Z</time></trkpt><trkpt lat="37.5480667" lon="15.05239"><ele>293.3333333333333</ele><time>2026-03-22T14:24:19.788Z</time></trkpt><trkpt lat="37.548155" lon="15.05236"><ele>294.0</ele><time>2026-03-22T14:24:20.787Z</time></trkpt><trkpt lat="37.5482433" lon="15.052335"><ele>294.6666666666667</ele><time>2026-03-22T14:24:21.788Z</time></trkpt><trkpt lat="37.54833" lon="15.05231"><ele>295.33333333333337</ele><time>2026-03-22T14:24:22.787Z</time></trkpt><trkpt lat="37.5484167" lon="15.0522867"><ele>296.0</ele><time>2026-03-22T14:24:23.787Z</time></trkpt><trkpt lat="37.548495" lon="15.0522533"><ele>296.0</ele><time>2026-03-22T14:24:24.787Z</time></trkpt><trkpt lat="37.548575" lon="15.05222"><ele>296.0</ele><time>2026-03-22T14:24:25.787Z</time></trkpt><trkpt lat="37.54865" lon="15.0521933"><ele>296.0</ele><time>2026-03-22T14:24:26.787Z</time></trkpt><trkpt lat="37.548735" lon="15.0521717"><ele>296.0</ele><time>2026-03-22T14:24:27.788Z</time></trkpt><trkpt lat="37.5488217" lon="15.05214"><ele>296.0</ele><time>2026-03-22T14:24:28.788Z</time></trkpt><trkpt lat="37.5489083" lon="15.0521083"><ele>296.0</ele><time>2026-03-22T14:24:29.788Z</time></trkpt><trkpt lat="37.5489933" lon="15.05208"><ele>296.6</ele><time>2026-03-22T14:24:30.787Z</time></trkpt><trkpt lat="37.5490817" lon="15.0520583"><ele>297.20000000000005</ele><time>2026-03-22T14:24:31.788Z</time></trkpt><trkpt lat="37.5491733" lon="15.0520333"><ele>297.79999999999995</ele><time>2026-03-22T14:24:32.787Z</time></trkpt><trkpt lat="37.5492617" lon="15.0519967"><ele>298.4</ele><time>2026-03-22T14:24:33.787Z</time></trkpt><trkpt lat="37.5493533" lon="15.0519433"><ele>299.0</ele><time>2026-03-22T14:24:34.788Z</time></trkpt><trkpt lat="37.5494333" lon="15.0519033"><ele>299.0</ele><time>2026-03-22T14:24:35.787Z</time></trkpt><trkpt lat="37.5495067" lon="15.0518467"><ele>299.0</ele><time>2026-03-22T14:24:36.787Z</time></trkpt><trkpt lat="37.5495767" lon="15.051785"><ele>299.0</ele><time>2026-03-22T14:24:37.788Z</time></trkpt><trkpt lat="37.549645" lon="15.05172"><ele>299.0</ele><time>2026-03-22T14:24:38.788Z</time></trkpt><trkpt lat="37.549715" lon="15.0516583"><ele>299.0</ele><time>2026-03-22T14:24:39.787Z</time></trkpt><trkpt lat="37.5497883" lon="15.051595"><ele>299.0</ele><time>2026-03-22T14:24:40.788Z</time></trkpt><trkpt lat="37.5498633" lon="15.05153"><ele>299.83333333333337</ele><time>2026-03-22T14:24:41.788Z</time></trkpt><trkpt lat="37.5499417" lon="15.0514683"><ele>300.6666666666667</ele><time>2026-03-22T14:24:42.787Z</time></trkpt><trkpt lat="37.550015" lon="15.0514183"><ele>301.5</ele><time>2026-03-22T14:24:43.788Z</time></trkpt><trkpt lat="37.5500867" lon="15.0513733"><ele>302.3333333333333</ele><time>2026-03-22T14:24:44.788Z</time></trkpt><trkpt lat="37.5501467" lon="15.0513433"><ele>303.16666666666663</ele><time>2026-03-22T14:24:45.788Z</time></trkpt><trkpt lat="37.55026" lon="15.0512733"><ele>304.0</ele><time>2026-03-22T14:24:47.787Z</time></trkpt><trkpt lat="37.5503233" lon="15.051245"><ele>305.0</ele><time>2026-03-22T14:24:48.787Z</time></trkpt><trkpt lat="37.550385" lon="15.051195"><ele>306.0</ele><time>2026-03-22T14:24:49.788Z</time></trkpt><trkpt lat="37.550445" lon="15.05113"><ele>307.0</ele><time>2026-03-22T14:24:50.787Z</time></trkpt><trkpt lat="37.550505" lon="15.051065"><ele>308.0</ele><time>2026-03-22T14:24:51.787Z</time></trkpt><trkpt lat="37.55057" lon="15.050995"><ele>309.0</ele><time>2026-03-22T14:24:52.788Z</time></trkpt><trkpt lat="37.5506417" lon="15.0509217"><ele>310.0</ele><time>2026-03-22T14:24:53.787Z</time></trkpt><trkpt lat="37.5507167" lon="15.0508467"><ele>309.6</ele><time>2026-03-22T14:24:54.788Z</time></trkpt><trkpt lat="37.5507933" lon="15.05077"><ele>309.2</ele><time>2026-03-22T14:24:55.787Z</time></trkpt><trkpt lat="37.5508733" lon="15.0506933"><ele>308.8</ele><time>2026-03-22T14:24:56.787Z</time></trkpt><trkpt lat="37.5509567" lon="15.050625"><ele>308.4</ele><time>2026-03-22T14:24:57.788Z</time></trkpt><trkpt lat="37.5510383" lon="15.05056"><ele>308.0</ele><time>2026-03-22T14:24:58.787Z</time></trkpt><trkpt lat="37.5511217" lon="15.05051"><ele>308.0</ele><time>2026-03-22T14:24:59.788Z</time></trkpt><trkpt lat="37.5511967" lon="15.05047"><ele>308.0</ele><time>2026-03-22T14:25:00.788Z</time></trkpt><trkpt lat="37.5512783" lon="15.0504367"><ele>308.0</ele><time>2026-03-22T14:25:01.788Z</time></trkpt><trkpt lat="37.5513633" lon="15.05041"><ele>308.0</ele><time>2026-03-22T14:25:02.788Z</time></trkpt><trkpt lat="37.5514433" lon="15.0503883"><ele>308.0</ele><time>2026-03-22T14:25:03.787Z</time></trkpt><trkpt lat="37.5515183" lon="15.0503667"><ele>308.0</ele><time>2026-03-22T14:25:04.787Z</time></trkpt><trkpt lat="37.5515883" lon="15.0503533"><ele>309.1666666666667</ele><time>2026-03-22T14:25:05.788Z</time></trkpt><trkpt lat="37.5516583" lon="15.0503517"><ele>310.33333333333337</ele><time>2026-03-22T14:25:06.787Z</time></trkpt><trkpt lat="37.5517317" lon="15.0503467"><ele>311.5</ele><time>2026-03-22T14:25:07.787Z</time></trkpt><trkpt lat="37.55182" lon="15.0503467"><ele>312.6666666666667</ele><time>2026-03-22T14:25:08.788Z</time></trkpt><trkpt lat="37.55191" lon="15.05035"><ele>313.8333333333333</ele><time>2026-03-22T14:25:09.787Z</time></trkpt><trkpt lat="37.5520083" lon="15.050345"><ele>315.0</ele><time>2026-03-22T14:25:10.787Z</time></trkpt><trkpt lat="37.5521" lon="15.05034"><ele>315.3333333333333</ele><time>2026-03-22T14:25:11.788Z</time></trkpt><trkpt lat="37.5521817" lon="15.05034"><ele>315.6666666666667</ele><time>2026-03-22T14:25:12.788Z</time></trkpt><trkpt lat="37.552265" lon="15.050345"><ele>316.0</ele><time>2026-03-22T14:25:13.787Z</time></trkpt><trkpt lat="37.5523317" lon="15.05036"><ele>316.33333333333337</ele><time>2026-03-22T14:25:14.787Z</time></trkpt><trkpt lat="37.5524317" lon="15.0503983"><ele>316.6666666666667</ele><time>2026-03-22T14:25:16.787Z</time></trkpt><trkpt lat="37.55253" lon="15.0504633"><ele>317.0</ele><time>2026-03-22T14:25:18.787Z</time></trkpt><trkpt lat="37.55259" lon="15.0505067"><ele>317.0</ele><time>2026-03-22T14:25:20.787Z</time></trkpt><trkpt lat="37.5526467" lon="15.0505667"><ele>317.0</ele><time>2026-03-22T14:25:27.788Z</time></trkpt><trkpt lat="37.552765" lon="15.0506133"><ele>317.0</ele><time>2026-03-22T14:25:29.788Z</time></trkpt><trkpt lat="37.5528483" lon="15.0506483"><ele>317.0</ele><time>2026-03-22T14:25:30.787Z</time></trkpt><trkpt lat="37.55293" lon="15.050675"><ele>317.0</ele><time>2026-03-22T14:25:31.787Z</time></trkpt><trkpt lat="37.553" lon="15.050685"><ele>317.0</ele><time>2026-03-22T14:25:32.787Z</time></trkpt><trkpt lat="37.5530667" lon="15.0506617"><ele>318.5</ele><time>2026-03-22T14:25:33.787Z</time></trkpt><trkpt lat="37.5531317" lon="15.05061"><ele>320.0</ele><time>2026-03-22T14:25:34.788Z</time></trkpt><trkpt lat="37.553195" lon="15.050545"><ele>321.5</ele><time>2026-03-22T14:25:35.788Z</time></trkpt><trkpt lat="37.5532617" lon="15.05047"><ele>323.0</ele><time>2026-03-22T14:25:36.787Z</time></trkpt><trkpt lat="37.5533317" lon="15.0503933"><ele>324.5</ele><time>2026-03-22T14:25:37.788Z</time></trkpt><trkpt lat="37.5534" lon="15.05032"><ele>326.0</ele><time>2026-03-22T14:25:38.787Z</time></trkpt><trkpt lat="37.5534683" lon="15.05025"><ele>326.0</ele><time>2026-03-22T14:25:39.787Z</time></trkpt><trkpt lat="37.553545" lon="15.0501967"><ele>326.0</ele><time>2026-03-22T14:25:40.788Z</time></trkpt><trkpt lat="37.553615" lon="15.0501467"><ele>326.0</ele><time>2026-03-22T14:25:41.788Z</time></trkpt><trkpt lat="37.5536883" lon="15.0501133"><ele>326.0</ele><time>2026-03-22T14:25:42.787Z</time></trkpt><trkpt lat="37.5537783" lon="15.0500883"><ele>326.0</ele><time>2026-03-22T14:25:43.787Z</time></trkpt><trkpt lat="37.553885" lon="15.0500783"><ele>326.0</ele><time>2026-03-22T14:25:44.788Z</time></trkpt><trkpt lat="37.554005" lon="15.0500617"><ele>327.4</ele><time>2026-03-22T14:25:45.788Z</time></trkpt><trkpt lat="37.554115" lon="15.0500483"><ele>328.8</ele><time>2026-03-22T14:25:46.788Z</time></trkpt><trkpt lat="37.5542217" lon="15.0500367"><ele>330.2</ele><time>2026-03-22T14:25:47.787Z</time></trkpt><trkpt lat="37.55433" lon="15.050015"><ele>331.59999999999997</ele><time>2026-03-22T14:25:48.788Z</time></trkpt><trkpt lat="37.5544317" lon="15.0499917"><ele>333.0</ele><time>2026-03-22T14:25:49.787Z</time></trkpt><trkpt lat="37.5545267" lon="15.0499833"><ele>334.0</ele><time>2026-03-22T14:25:50.787Z</time></trkpt><trkpt lat="37.5546233" lon="15.0499567"><ele>335.0</ele><time>2026-03-22T14:25:51.788Z</time></trkpt><trkpt lat="37.5547233" lon="15.0499383"><ele>336.0</ele><time>2026-03-22T14:25:52.788Z</time></trkpt><trkpt lat="37.5548233" lon="15.0499133"><ele>337.0</ele><time>2026-03-22T14:25:53.787Z</time></trkpt><trkpt lat="37.5549367" lon="15.0498833"><ele>338.0</ele><time>2026-03-22T14:25:54.787Z</time></trkpt><trkpt lat="37.55505" lon="15.0498483"><ele>338.0</ele><time>2026-03-22T14:25:55.787Z</time></trkpt><trkpt lat="37.5551733" lon="15.0498133"><ele>338.0</ele><time>2026-03-22T14:25:56.787Z</time></trkpt><trkpt lat="37.5552983" lon="15.0497783"><ele>338.0</ele><time>2026-03-22T14:25:57.788Z</time></trkpt><trkpt lat="37.555425" lon="15.0497467"><ele>338.0</ele><time>2026-03-22T14:25:58.788Z</time></trkpt><trkpt lat="37.555555" lon="15.04971"><ele>339.25</ele><time>2026-03-22T14:25:59.788Z</time></trkpt><trkpt lat="37.5556883" lon="15.0496833"><ele>340.5</ele><time>2026-03-22T14:26:00.788Z</time></trkpt><trkpt lat="37.55582" lon="15.0496617"><ele>341.75</ele><time>2026-03-22T14:26:01.788Z</time></trkpt><trkpt lat="37.5559533" lon="15.0496383"><ele>343.0</ele><time>2026-03-22T14:26:02.788Z</time></trkpt><trkpt lat="37.5560867" lon="15.04962"><ele>343.75</ele><time>2026-03-22T14:26:03.787Z</time></trkpt><trkpt lat="37.55622" lon="15.0495933"><ele>344.5</ele><time>2026-03-22T14:26:04.788Z</time></trkpt><trkpt lat="37.5563467" lon="15.049565"><ele>345.25</ele><time>2026-03-22T14:26:05.788Z</time></trkpt><trkpt lat="37.55647" lon="15.0495317"><ele>346.0</ele><time>2026-03-22T14:26:06.788Z</time></trkpt><trkpt lat="37.5565983" lon="15.04949"><ele>346.0</ele><time>2026-03-22T14:26:07.788Z</time></trkpt><trkpt lat="37.5567267" lon="15.0494467"><ele>346.0</ele><time>2026-03-22T14:26:08.787Z</time></trkpt><trkpt lat="37.55685" lon="15.0494033"><ele>346.0</ele><time>2026-03-22T14:26:09.787Z</time></trkpt><trkpt lat="37.5569783" lon="15.0493533"><ele>346.0</ele><time>2026-03-22T14:26:10.787Z</time></trkpt><trkpt lat="37.557105" lon="15.049305"><ele>346.6</ele><time>2026-03-22T14:26:11.787Z</time></trkpt><trkpt lat="37.5572183" lon="15.0492683"><ele>347.20000000000005</ele><time>2026-03-22T14:26:12.787Z</time></trkpt><trkpt lat="37.5573233" lon="15.0492433"><ele>347.79999999999995</ele><time>2026-03-22T14:26:13.788Z</time></trkpt><trkpt lat="37.5574317" lon="15.049225"><ele>348.4</ele><time>2026-03-22T14:26:14.787Z</time></trkpt><trkpt lat="37.55754" lon="15.0492033"><ele>349.0</ele><time>2026-03-22T14:26:15.787Z</time></trkpt><trkpt lat="37.5576367" lon="15.04919"><ele>349.0</ele><time>2026-03-22T14:26:16.787Z</time></trkpt><trkpt lat="37.557735" lon="15.0491517"><ele>349.0</ele><time>2026-03-22T14:26:17.787Z</time></trkpt><trkpt lat="37.5578267" lon="15.0491233"><ele>349.0</ele><time>2026-03-22T14:26:18.787Z</time></trkpt><trkpt lat="37.557905" lon="15.0491033"><ele>349.0</ele><time>2026-03-22T14:26:19.788Z</time></trkpt><trkpt lat="37.557985" lon="15.04908"><ele>349.0</ele><time>2026-03-22T14:26:20.787Z</time></trkpt><trkpt lat="37.5580717" lon="15.0490517"><ele>349.0</ele><time>2026-03-22T14:26:21.788Z</time></trkpt><trkpt lat="37.558165" lon="15.0490217"><ele>350.6</ele><time>2026-03-22T14:26:22.787Z</time></trkpt><trkpt lat="37.5582567" lon="15.0489883"><ele>352.2</ele><time>2026-03-22T14:26:23.788Z</time></trkpt><trkpt lat="37.558355" lon="15.04896"><ele>353.8</ele><time>2026-03-22T14:26:24.787Z</time></trkpt><trkpt lat="37.5584467" lon="15.0489267"><ele>355.40000000000003</ele><time>2026-03-22T14:26:25.788Z</time></trkpt><trkpt lat="37.558525" lon="15.0488917"><ele>357.0</ele><time>2026-03-22T14:26:26.787Z</time></trkpt><trkpt lat="37.5586017" lon="15.04886"><ele>357.0</ele><time>2026-03-22T14:26:27.787Z</time></trkpt><trkpt lat="37.5586717" lon="15.04884"><ele>357.0</ele><time>2026-03-22T14:26:28.787Z</time></trkpt><trkpt lat="37.5587317" lon="15.048815"><ele>357.0</ele><time>2026-03-22T14:26:29.787Z</time></trkpt><trkpt lat="37.5587933" lon="15.04879"><ele>357.0</ele><time>2026-03-22T14:26:30.788Z</time></trkpt><trkpt lat="37.5588667" lon="15.0487617"><ele>357.0</ele><time>2026-03-22T14:26:31.787Z</time></trkpt><trkpt lat="37.5589583" lon="15.0487333"><ele>357.0</ele><time>2026-03-22T14:26:32.787Z</time></trkpt><trkpt lat="37.55907" lon="15.0487"><ele>356.75</ele><time>2026-03-22T14:26:33.787Z</time></trkpt><trkpt lat="37.5591883" lon="15.04867"><ele>356.5</ele><time>2026-03-22T14:26:34.787Z</time></trkpt><trkpt lat="37.5593183" lon="15.0486317"><ele>356.25</ele><time>2026-03-22T14:26:35.788Z</time></trkpt><trkpt lat="37.5594467" lon="15.0485967"><ele>356.0</ele><time>2026-03-22T14:26:36.788Z</time></trkpt><trkpt lat="37.55958" lon="15.04856"><ele>355.75</ele><time>2026-03-22T14:26:37.788Z</time></trkpt><trkpt lat="37.5597167" lon="15.0485267"><ele>355.5</ele><time>2026-03-22T14:26:38.788Z</time></trkpt><trkpt lat="37.5598583" lon="15.0484867"><ele>355.25</ele><time>2026-03-22T14:26:39.788Z</time></trkpt><trkpt lat="37.56" lon="15.048445"><ele>355.0</ele><time>2026-03-22T14:26:40.787Z</time></trkpt><trkpt lat="37.5601417" lon="15.0484"><ele>355.0</ele><time>2026-03-22T14:26:41.787Z</time></trkpt><trkpt lat="37.5602783" lon="15.0483567"><ele>355.0</ele><time>2026-03-22T14:26:42.787Z</time></trkpt><trkpt lat="37.5604117" lon="15.04831"><ele>355.0</ele><time>2026-03-22T14:26:43.788Z</time></trkpt><trkpt lat="37.5605417" lon="15.0482633"><ele>355.0</ele><time>2026-03-22T14:26:44.788Z</time></trkpt><trkpt lat="37.5606767" lon="15.0482167"><ele>357.5</ele><time>2026-03-22T14:26:45.787Z</time></trkpt><trkpt lat="37.5608083" lon="15.0481667"><ele>360.0</ele><time>2026-03-22T14:26:46.787Z</time></trkpt><trkpt lat="37.5609417" lon="15.0481217"><ele>362.5</ele><time>2026-03-22T14:26:47.788Z</time></trkpt><trkpt lat="37.5610717" lon="15.0480833"><ele>365.0</ele><time>2026-03-22T14:26:48.787Z</time></trkpt><trkpt lat="37.5611983" lon="15.0480467"><ele>365.25</ele><time>2026-03-22T14:26:49.787Z</time></trkpt><trkpt lat="37.5613283" lon="15.048005"><ele>365.5</ele><time>2026-03-22T14:26:50.787Z</time></trkpt><trkpt lat="37.5614633" lon="15.0479633"><ele>365.75</ele><time>2026-03-22T14:26:51.787Z</time></trkpt><trkpt lat="37.5616017" lon="15.0479167"><ele>366.0</ele><time>2026-03-22T14:26:52.787Z</time></trkpt><trkpt lat="37.561735" lon="15.0478667"><ele>366.0</ele><time>2026-03-22T14:26:53.787Z</time></trkpt><trkpt lat="37.5618667" lon="15.04783"><ele>366.0</ele><time>2026-03-22T14:26:54.787Z</time></trkpt><trkpt lat="37.5620017" lon="15.047795"><ele>366.0</ele><time>2026-03-22T14:26:55.788Z</time></trkpt><trkpt lat="37.5621333" lon="15.0477633"><ele>366.0</ele><time>2026-03-22T14:26:56.787Z</time></trkpt><trkpt lat="37.5622583" lon="15.0477233"><ele>368.4</ele><time>2026-03-22T14:26:57.787Z</time></trkpt><trkpt lat="37.5623717" lon="15.0477017"><ele>370.8</ele><time>2026-03-22T14:26:58.788Z</time></trkpt><trkpt lat="37.5624783" lon="15.04767"><ele>373.2</ele><time>2026-03-22T14:26:59.788Z</time></trkpt><trkpt lat="37.5625833" lon="15.04764"><ele>375.59999999999997</ele><time>2026-03-22T14:27:00.788Z</time></trkpt><trkpt lat="37.5626783" lon="15.0476183"><ele>378.0</ele><time>2026-03-22T14:27:01.787Z</time></trkpt><trkpt lat="37.5627767" lon="15.0475883"><ele>379.79999999999995</ele><time>2026-03-22T14:27:02.787Z</time></trkpt><trkpt lat="37.5628767" lon="15.0475633"><ele>381.6</ele><time>2026-03-22T14:27:03.787Z</time></trkpt><trkpt lat="37.5629833" lon="15.0475233"><ele>383.4</ele><time>2026-03-22T14:27:04.787Z</time></trkpt><trkpt lat="37.5630883" lon="15.0474833"><ele>385.20000000000005</ele><time>2026-03-22T14:27:05.787Z</time></trkpt><trkpt lat="37.5632067" lon="15.0474467"><ele>387.0</ele><time>2026-03-22T14:27:06.788Z</time></trkpt><trkpt lat="37.5633267" lon="15.0474133"><ele>387.0</ele><time>2026-03-22T14:27:07.788Z</time></trkpt><trkpt lat="37.5634483" lon="15.0473783"><ele>387.0</ele><time>2026-03-22T14:27:08.788Z</time></trkpt><trkpt lat="37.563575" lon="15.0473417"><ele>387.0</ele><time>2026-03-22T14:27:09.788Z</time></trkpt><trkpt lat="37.5637017" lon="15.04731"><ele>387.0</ele><time>2026-03-22T14:27:10.788Z</time></trkpt><trkpt lat="37.5638333" lon="15.0472717"><ele>388.25</ele><time>2026-03-22T14:27:11.788Z</time></trkpt><trkpt lat="37.56396" lon="15.0472317"><ele>389.5</ele><time>2026-03-22T14:27:12.788Z</time></trkpt><trkpt lat="37.5640783" lon="15.04719"><ele>390.75</ele><time>2026-03-22T14:27:13.787Z</time></trkpt><trkpt lat="37.5641983" lon="15.0471533"><ele>392.0</ele><time>2026-03-22T14:27:14.788Z</time></trkpt><trkpt lat="37.5643183" lon="15.04711"><ele>392.0</ele><time>2026-03-22T14:27:15.787Z</time></trkpt><trkpt lat="37.5644467" lon="15.0470767"><ele>392.0</ele><time>2026-03-22T14:27:16.788Z</time></trkpt><trkpt lat="37.5645833" lon="15.047045"><ele>392.0</ele><time>2026-03-22T14:27:17.787Z</time></trkpt><trkpt lat="37.5647233" lon="15.0470217"><ele>392.0</ele><time>2026-03-22T14:27:18.787Z</time></trkpt><trkpt lat="37.5648683" lon="15.046995"><ele>393.0</ele><time>2026-03-22T14:27:19.787Z</time></trkpt><trkpt lat="37.5650117" lon="15.0469617"><ele>394.0</ele><time>2026-03-22T14:27:20.787Z</time></trkpt><trkpt lat="37.565155" lon="15.046925"><ele>395.0</ele><time>2026-03-22T14:27:21.787Z</time></trkpt><trkpt lat="37.5652817" lon="15.0468833"><ele>396.0</ele><time>2026-03-22T14:27:22.788Z</time></trkpt><trkpt lat="37.5654033" lon="15.0468467"><ele>397.25</ele><time>2026-03-22T14:27:23.787Z</time></trkpt><trkpt lat="37.56552" lon="15.0468033"><ele>398.5</ele><time>2026-03-22T14:27:24.787Z</time></trkpt><trkpt lat="37.5656367" lon="15.0467717"><ele>399.75</ele><time>2026-03-22T14:27:25.787Z</time></trkpt><trkpt lat="37.5657467" lon="15.04673"><ele>401.0</ele><time>2026-03-22T14:27:26.787Z</time></trkpt><trkpt lat="37.5658633" lon="15.0466867"><ele>401.0</ele><time>2026-03-22T14:27:27.787Z</time></trkpt><trkpt lat="37.56598" lon="15.046645"><ele>401.0</ele><time>2026-03-22T14:27:28.787Z</time></trkpt><trkpt lat="37.56609" lon="15.0466067"><ele>401.0</ele><time>2026-03-22T14:27:29.787Z</time></trkpt><trkpt lat="37.566195" lon="15.04658"><ele>401.0</ele><time>2026-03-22T14:27:30.787Z</time></trkpt><trkpt lat="37.5663033" lon="15.0465433"><ele>402.75</ele><time>2026-03-22T14:27:31.787Z</time></trkpt><trkpt lat="37.5664167" lon="15.0465033"><ele>404.5</ele><time>2026-03-22T14:27:32.788Z</time></trkpt><trkpt lat="37.566535" lon="15.0464583"><ele>406.25</ele><time>2026-03-22T14:27:33.788Z</time></trkpt><trkpt lat="37.5666567" lon="15.0464133"><ele>408.0</ele><time>2026-03-22T14:27:34.787Z</time></trkpt><trkpt lat="37.56678" lon="15.0463683"><ele>408.0</ele><time>2026-03-22T14:27:35.788Z</time></trkpt><trkpt lat="37.5669117" lon="15.04633"><ele>408.0</ele><time>2026-03-22T14:27:36.788Z</time></trkpt><trkpt lat="37.5670467" lon="15.04629"><ele>408.0</ele><time>2026-03-22T14:27:37.788Z</time></trkpt><trkpt lat="37.5671883" lon="15.0462517"><ele>408.0</ele><time>2026-03-22T14:27:38.788Z</time></trkpt><trkpt lat="37.56733" lon="15.046215"><ele>409.0</ele><time>2026-03-22T14:27:39.787Z</time></trkpt><trkpt lat="37.5674717" lon="15.0461767"><ele>410.0</ele><time>2026-03-22T14:27:40.787Z</time></trkpt><trkpt lat="37.5676133" lon="15.0461367"><ele>411.0</ele><time>2026-03-22T14:27:41.787Z</time></trkpt><trkpt lat="37.5677567" lon="15.0460983"><ele>412.0</ele><time>2026-03-22T14:27:42.788Z</time></trkpt><trkpt lat="37.5679083" lon="15.0460583"><ele>413.6666666666667</ele><time>2026-03-22T14:27:43.788Z</time></trkpt><trkpt lat="37.568055" lon="15.04602"><ele>415.33333333333337</ele><time>2026-03-22T14:27:44.787Z</time></trkpt><trkpt lat="37.568205" lon="15.04598"><ele>417.0</ele><time>2026-03-22T14:27:45.788Z</time></trkpt><trkpt lat="37.56836" lon="15.04594"><ele>417.0</ele><time>2026-03-22T14:27:46.787Z</time></trkpt><trkpt lat="37.5684983" lon="15.0459"><ele>417.0</ele><time>2026-03-22T14:27:47.787Z</time></trkpt><trkpt lat="37.568615" lon="15.045865"><ele>417.0</ele><time>2026-03-22T14:27:48.788Z</time></trkpt><trkpt lat="37.568715" lon="15.0458367"><ele>417.0</ele><time>2026-03-22T14:27:49.787Z</time></trkpt><trkpt lat="37.568795" lon="15.0458183"><ele>417.0</ele><time>2026-03-22T14:27:50.787Z</time></trkpt><trkpt lat="37.5688667" lon="15.0457967"><ele>417.40000000000003</ele><time>2026-03-22T14:27:51.787Z</time></trkpt><trkpt lat="37.5689467" lon="15.0457717"><ele>417.8</ele><time>2026-03-22T14:27:52.787Z</time></trkpt><trkpt lat="37.5690317" lon="15.0457433"><ele>418.2</ele><time>2026-03-22T14:27:53.787Z</time></trkpt><trkpt lat="37.5691217" lon="15.0457217"><ele>418.6</ele><time>2026-03-22T14:27:54.787Z</time></trkpt><trkpt lat="37.56923" lon="15.0456867"><ele>419.0</ele><time>2026-03-22T14:27:55.788Z</time></trkpt><trkpt lat="37.5693383" lon="15.0456567"><ele>419.0</ele><time>2026-03-22T14:27:56.787Z</time></trkpt><trkpt lat="37.569435" lon="15.0456367"><ele>419.0</ele><time>2026-03-22T14:27:57.788Z</time></trkpt><trkpt lat="37.569515" lon="15.0456133"><ele>419.0</ele><time>2026-03-22T14:27:58.787Z</time></trkpt><trkpt lat="37.569605" lon="15.0456333"><ele>419.0</ele><time>2026-03-22T14:28:00.788Z</time></trkpt><trkpt lat="37.569645" lon="15.0457517"><ele>419.0</ele><time>2026-03-22T14:28:02.787Z</time></trkpt><trkpt lat="37.569665" lon="15.04585"><ele>419.0</ele><time>2026-03-22T14:28:03.787Z</time></trkpt><trkpt lat="37.5696883" lon="15.0459783"><ele>419.0</ele><time>2026-03-22T14:28:04.787Z</time></trkpt><trkpt lat="37.56971" lon="15.0461217"><ele>419.0</ele><time>2026-03-22T14:28:05.787Z</time></trkpt><trkpt lat="37.5697317" lon="15.04627"><ele>419.0</ele><time>2026-03-22T14:28:06.788Z</time></trkpt><trkpt lat="37.5697533" lon="15.0464183"><ele>419.0</ele><time>2026-03-22T14:28:07.787Z</time></trkpt><trkpt lat="37.569775" lon="15.04656"><ele>419.0</ele><time>2026-03-22T14:28:08.787Z</time></trkpt><trkpt lat="37.5698" lon="15.0466983"><ele>419.0</ele><time>2026-03-22T14:28:09.787Z</time></trkpt><trkpt lat="37.569815" lon="15.04682"><ele>419.0</ele><time>2026-03-22T14:28:10.788Z</time></trkpt><trkpt lat="37.5698267" lon="15.0469317"><ele>419.0</ele><time>2026-03-22T14:28:11.789Z</time></trkpt><trkpt lat="37.56984" lon="15.0470317"><ele>418.16666666666663</ele><time>2026-03-22T14:28:12.788Z</time></trkpt><trkpt lat="37.569855" lon="15.0471117"><ele>417.3333333333333</ele><time>2026-03-22T14:28:13.789Z</time></trkpt><trkpt lat="37.569935" lon="15.0471767"><ele>416.5</ele><time>2026-03-22T14:28:15.788Z</time></trkpt><trkpt lat="37.5700017" lon="15.0471567"><ele>415.66666666666663</ele><time>2026-03-22T14:28:16.789Z</time></trkpt><trkpt lat="37.5700783" lon="15.047105"><ele>414.8333333333333</ele><time>2026-03-22T14:28:17.789Z</time></trkpt><trkpt lat="37.5701683" lon="15.047045"><ele>414.0</ele><time>2026-03-22T14:28:18.789Z</time></trkpt><trkpt lat="37.5702683" lon="15.0469833"><ele>414.0</ele><time>2026-03-22T14:28:19.789Z</time></trkpt><trkpt lat="37.5703717" lon="15.04692"><ele>414.0</ele><time>2026-03-22T14:28:20.789Z</time></trkpt><trkpt lat="37.5704833" lon="15.0468533"><ele>414.0</ele><time>2026-03-22T14:28:21.788Z</time></trkpt><trkpt lat="37.5706033" lon="15.0467783"><ele>414.0</ele><time>2026-03-22T14:28:22.788Z</time></trkpt><trkpt lat="37.570725" lon="15.0467117"><ele>414.0</ele><time>2026-03-22T14:28:23.788Z</time></trkpt><trkpt lat="37.57085" lon="15.0466367"><ele>414.0</ele><time>2026-03-22T14:28:24.788Z</time></trkpt><trkpt lat="37.5709783" lon="15.0465567"><ele>414.0</ele><time>2026-03-22T14:28:25.789Z</time></trkpt><trkpt lat="37.571105" lon="15.04648"><ele>414.0</ele><time>2026-03-22T14:28:26.788Z</time></trkpt><trkpt lat="37.571225" lon="15.046405"><ele>415.5</ele><time>2026-03-22T14:28:27.789Z</time></trkpt><trkpt lat="37.5713367" lon="15.0463367"><ele>417.0</ele><time>2026-03-22T14:28:28.788Z</time></trkpt><trkpt lat="37.5714467" lon="15.0462717"><ele>418.5</ele><time>2026-03-22T14:28:29.788Z</time></trkpt><trkpt lat="37.5715533" lon="15.04621"><ele>420.0</ele><time>2026-03-22T14:28:30.788Z</time></trkpt><trkpt lat="37.5716483" lon="15.046155"><ele>420.0</ele><time>2026-03-22T14:28:31.789Z</time></trkpt><trkpt lat="37.5717433" lon="15.0461033"><ele>420.0</ele><time>2026-03-22T14:28:32.789Z</time></trkpt><trkpt lat="37.5718217" lon="15.0460483"><ele>420.0</ele><time>2026-03-22T14:28:33.788Z</time></trkpt><trkpt lat="37.5718867" lon="15.046"><ele>420.0</ele><time>2026-03-22T14:28:34.789Z</time></trkpt><trkpt lat="37.5719817" lon="15.0459683"><ele>420.0</ele><time>2026-03-22T14:28:36.789Z</time></trkpt><trkpt lat="37.5720533" lon="15.0459833"><ele>420.0</ele><time>2026-03-22T14:28:38.789Z</time></trkpt><trkpt lat="37.572125" lon="15.04607"><ele>420.8333333333333</ele><time>2026-03-22T14:28:40.789Z</time></trkpt><trkpt lat="37.5721617" lon="15.046135"><ele>421.66666666666663</ele><time>2026-03-22T14:28:41.788Z</time></trkpt><trkpt lat="37.5721967" lon="15.04621"><ele>422.5</ele><time>2026-03-22T14:28:42.788Z</time></trkpt><trkpt lat="37.5722383" lon="15.04628"><ele>423.3333333333333</ele><time>2026-03-22T14:28:43.788Z</time></trkpt><trkpt lat="37.57229" lon="15.046395"><ele>424.16666666666663</ele><time>2026-03-22T14:28:45.789Z</time></trkpt><trkpt lat="37.57233" lon="15.04649"><ele>425.0</ele><time>2026-03-22T14:28:48.789Z</time></trkpt><trkpt lat="37.5724367" lon="15.046495"><ele>424.99999999999994</ele><time>2026-03-22T14:28:52.788Z</time></trkpt><trkpt lat="37.572495" lon="15.04645"><ele>425.0</ele><time>2026-03-22T14:28:53.789Z</time></trkpt><trkpt lat="37.5725533" lon="15.046405"><ele>425.0</ele><time>2026-03-22T14:28:54.788Z</time></trkpt><trkpt lat="37.57263" lon="15.04636"><ele>425.0</ele><time>2026-03-22T14:28:55.788Z</time></trkpt><trkpt lat="37.5727017" lon="15.04632"><ele>424.99999999999994</ele><time>2026-03-22T14:28:56.788Z</time></trkpt><trkpt lat="37.5727717" lon="15.0462867"><ele>425.0</ele><time>2026-03-22T14:28:57.789Z</time></trkpt><trkpt lat="37.5728533" lon="15.0462433"><ele>425.6</ele><time>2026-03-22T14:28:58.789Z</time></trkpt><trkpt lat="37.572935" lon="15.04619"><ele>426.2</ele><time>2026-03-22T14:28:59.788Z</time></trkpt><trkpt lat="37.5730233" lon="15.0461383"><ele>426.79999999999995</ele><time>2026-03-22T14:29:00.788Z</time></trkpt><trkpt lat="37.573115" lon="15.0460833"><ele>427.4</ele><time>2026-03-22T14:29:01.788Z</time></trkpt><trkpt lat="37.57319" lon="15.0460433"><ele>428.0</ele><time>2026-03-22T14:29:02.789Z</time></trkpt><trkpt lat="37.573275" lon="15.0460017"><ele>428.0</ele><time>2026-03-22T14:29:03.789Z</time></trkpt><trkpt lat="37.573365" lon="15.0459533"><ele>427.99999999999994</ele><time>2026-03-22T14:29:04.788Z</time></trkpt><trkpt lat="37.57346" lon="15.0459033"><ele>427.99999999999994</ele><time>2026-03-22T14:29:05.788Z</time></trkpt><trkpt lat="37.5735533" lon="15.0458417"><ele>428.0</ele><time>2026-03-22T14:29:06.788Z</time></trkpt><trkpt lat="37.5736467" lon="15.0457917"><ele>428.0</ele><time>2026-03-22T14:29:07.788Z</time></trkpt><trkpt lat="37.5737267" lon="15.0457417"><ele>429.0</ele><time>2026-03-22T14:29:08.789Z</time></trkpt><trkpt lat="37.5738033" lon="15.0456867"><ele>429.99999999999994</ele><time>2026-03-22T14:29:09.789Z</time></trkpt><trkpt lat="37.57389" lon="15.045645"><ele>430.99999999999994</ele><time>2026-03-22T14:29:10.789Z</time></trkpt><trkpt lat="37.57397" lon="15.045585"><ele>432.0</ele><time>2026-03-22T14:29:11.788Z</time></trkpt><trkpt lat="37.5740617" lon="15.0455267"><ele>433.0</ele><time>2026-03-22T14:29:12.788Z</time></trkpt><trkpt lat="37.5741567" lon="15.0454783"><ele>433.0</ele><time>2026-03-22T14:29:13.789Z</time></trkpt><trkpt lat="37.57426" lon="15.0454217"><ele>432.99999999999994</ele><time>2026-03-22T14:29:14.788Z</time></trkpt><trkpt lat="37.5743567" lon="15.0453633"><ele>432.99999999999994</ele><time>2026-03-22T14:29:15.788Z</time></trkpt><trkpt lat="37.5744567" lon="15.0453133"><ele>433.0</ele><time>2026-03-22T14:29:16.789Z</time></trkpt><trkpt lat="37.5745467" lon="15.0452583"><ele>433.0</ele><time>2026-03-22T14:29:17.788Z</time></trkpt><trkpt lat="37.574635" lon="15.0452133"><ele>433.2</ele><time>2026-03-22T14:29:18.789Z</time></trkpt><trkpt lat="37.5747083" lon="15.0451683"><ele>433.4</ele><time>2026-03-22T14:29:19.789Z</time></trkpt><trkpt lat="37.5747733" lon="15.0451317"><ele>433.59999999999997</ele><time>2026-03-22T14:29:20.789Z</time></trkpt><trkpt lat="37.5748533" lon="15.0451033"><ele>433.79999999999995</ele><time>2026-03-22T14:29:22.789Z</time></trkpt><trkpt lat="37.5749433" lon="15.0451083"><ele>434.0</ele><time>2026-03-22T14:29:25.789Z</time></trkpt><trkpt lat="37.5750633" lon="15.04517"><ele>434.0</ele><time>2026-03-22T14:29:27.789Z</time></trkpt><trkpt lat="37.57514" lon="15.0452217"><ele>434.0</ele><time>2026-03-22T14:29:28.788Z</time></trkpt><trkpt lat="37.5752183" lon="15.045285"><ele>434.0</ele><time>2026-03-22T14:29:29.788Z</time></trkpt><trkpt lat="37.5753033" lon="15.045345"><ele>434.0</ele><time>2026-03-22T14:29:30.789Z</time></trkpt><trkpt lat="37.5754" lon="15.045405"><ele>434.0</ele><time>2026-03-22T14:29:31.788Z</time></trkpt><trkpt lat="37.5755033" lon="15.0454783"><ele>433.5</ele><time>2026-03-22T14:29:32.789Z</time></trkpt><trkpt lat="37.5756117" lon="15.0455667"><ele>433.0</ele><time>2026-03-22T14:29:33.788Z</time></trkpt><trkpt lat="37.5757283" lon="15.0456383"><ele>432.5</ele><time>2026-03-22T14:29:34.788Z</time></trkpt><trkpt lat="37.575845" lon="15.04571"><ele>432.0</ele><time>2026-03-22T14:29:35.788Z</time></trkpt><trkpt lat="37.5759583" lon="15.0457833"><ele>431.75</ele><time>2026-03-22T14:29:36.789Z</time></trkpt><trkpt lat="37.5760633" lon="15.04585"><ele>431.5</ele><time>2026-03-22T14:29:37.788Z</time></trkpt><trkpt lat="37.5761667" lon="15.045915"><ele>431.25</ele><time>2026-03-22T14:29:38.788Z</time></trkpt><trkpt lat="37.5762733" lon="15.0459933"><ele>431.0</ele><time>2026-03-22T14:29:39.788Z</time></trkpt><trkpt lat="37.5763933" lon="15.046075"><ele>431.0</ele><time>2026-03-22T14:29:40.789Z</time></trkpt><trkpt lat="37.57651" lon="15.0461667"><ele>431.0</ele><time>2026-03-22T14:29:41.789Z</time></trkpt><trkpt lat="37.576635" lon="15.0462533"><ele>431.0</ele><time>2026-03-22T14:29:42.788Z</time></trkpt><trkpt lat="37.57677" lon="15.0463383"><ele>431.0</ele><time>2026-03-22T14:29:43.789Z</time></trkpt><trkpt lat="37.576905" lon="15.0464233"><ele>432.25</ele><time>2026-03-22T14:29:44.788Z</time></trkpt><trkpt lat="37.5770433" lon="15.046505"><ele>433.5</ele><time>2026-03-22T14:29:45.789Z</time></trkpt><trkpt lat="37.5771733" lon="15.0465783"><ele>434.75</ele><time>2026-03-22T14:29:46.789Z</time></trkpt><trkpt lat="37.5772933" lon="15.0466433"><ele>436.0</ele><time>2026-03-22T14:29:47.788Z</time></trkpt><trkpt lat="37.5774033" lon="15.046695"><ele>436.00000000000006</ele><time>2026-03-22T14:29:48.789Z</time></trkpt><trkpt lat="37.5774967" lon="15.04674"><ele>436.0</ele><time>2026-03-22T14:29:49.789Z</time></trkpt><trkpt lat="37.5775767" lon="15.0467817"><ele>436.0</ele><time>2026-03-22T14:29:50.788Z</time></trkpt><trkpt lat="37.57765" lon="15.0468067"><ele>436.0</ele><time>2026-03-22T14:29:51.789Z</time></trkpt><trkpt lat="37.577735" lon="15.0468333"><ele>436.00000000000006</ele><time>2026-03-22T14:29:52.788Z</time></trkpt><trkpt lat="37.5778217" lon="15.0468717"><ele>436.0</ele><time>2026-03-22T14:29:53.789Z</time></trkpt><trkpt lat="37.5779183" lon="15.0469133"><ele>437.4</ele><time>2026-03-22T14:29:54.789Z</time></trkpt><trkpt lat="37.57802" lon="15.0469583"><ele>438.8</ele><time>2026-03-22T14:29:55.789Z</time></trkpt><trkpt lat="37.57811" lon="15.0470033"><ele>440.19999999999993</ele><time>2026-03-22T14:29:56.789Z</time></trkpt><trkpt lat="37.5781967" lon="15.0470417"><ele>441.59999999999997</ele><time>2026-03-22T14:29:57.788Z</time></trkpt><trkpt lat="37.57828" lon="15.0470733"><ele>443.0</ele><time>2026-03-22T14:29:58.789Z</time></trkpt><trkpt lat="37.578355" lon="15.0471083"><ele>443.0</ele><time>2026-03-22T14:29:59.788Z</time></trkpt><trkpt lat="37.5784383" lon="15.0471383"><ele>442.99999999999994</ele><time>2026-03-22T14:30:00.789Z</time></trkpt><trkpt lat="37.5785317" lon="15.0471667"><ele>442.99999999999994</ele><time>2026-03-22T14:30:01.789Z</time></trkpt><trkpt lat="37.5786217" lon="15.0472017"><ele>443.0</ele><time>2026-03-22T14:30:02.789Z</time></trkpt><trkpt lat="37.5787167" lon="15.047245"><ele>443.0</ele><time>2026-03-22T14:30:03.788Z</time></trkpt><trkpt lat="37.5788083" lon="15.0473"><ele>444.4</ele><time>2026-03-22T14:30:04.788Z</time></trkpt><trkpt lat="37.57889" lon="15.047375"><ele>445.79999999999995</ele><time>2026-03-22T14:30:05.789Z</time></trkpt><trkpt lat="37.5789583" lon="15.0474633"><ele>447.2</ele><time>2026-03-22T14:30:06.789Z</time></trkpt><trkpt lat="37.57902" lon="15.0475717"><ele>448.6</ele><time>2026-03-22T14:30:07.788Z</time></trkpt><trkpt lat="37.57907" lon="15.0476883"><ele>450.0</ele><time>2026-03-22T14:30:08.789Z</time></trkpt><trkpt lat="37.5791067" lon="15.0478033"><ele>450.0</ele><time>2026-03-22T14:30:09.789Z</time></trkpt><trkpt lat="37.57913" lon="15.047905"><ele>450.0</ele><time>2026-03-22T14:30:10.788Z</time></trkpt><trkpt lat="37.5791567" lon="15.048005"><ele>450.0</ele><time>2026-03-22T14:30:11.789Z</time></trkpt><trkpt lat="37.5791733" lon="15.04812"><ele>450.0</ele><time>2026-03-22T14:30:12.788Z</time></trkpt><trkpt lat="37.57918" lon="15.048235"><ele>450.0</ele><time>2026-03-22T14:30:13.789Z</time></trkpt><trkpt lat="37.5791767" lon="15.0483383"><ele>450.0</ele><time>2026-03-22T14:30:14.788Z</time></trkpt><trkpt lat="37.57917" lon="15.0484383"><ele>449.6666666666667</ele><time>2026-03-22T14:30:15.788Z</time></trkpt><trkpt lat="37.57916" lon="15.0485333"><ele>449.33333333333337</ele><time>2026-03-22T14:30:16.788Z</time></trkpt><trkpt lat="37.5791467" lon="15.0486233"><ele>449.0</ele><time>2026-03-22T14:30:17.789Z</time></trkpt><trkpt lat="37.57914" lon="15.0487283"><ele>448.6666666666667</ele><time>2026-03-22T14:30:18.789Z</time></trkpt><trkpt lat="37.5791517" lon="15.0488383"><ele>448.33333333333337</ele><time>2026-03-22T14:30:19.788Z</time></trkpt><trkpt lat="37.5791833" lon="15.048945"><ele>448.0</ele><time>2026-03-22T14:30:20.789Z</time></trkpt><trkpt lat="37.5792333" lon="15.0490433"><ele>448.0</ele><time>2026-03-22T14:30:21.789Z</time></trkpt><trkpt lat="37.5793" lon="15.0491233"><ele>447.99999999999994</ele><time>2026-03-22T14:30:22.788Z</time></trkpt><trkpt lat="37.57941" lon="15.04917"><ele>447.99999999999994</ele><time>2026-03-22T14:30:23.788Z</time></trkpt><trkpt lat="37.579515" lon="15.049205"><ele>448.0</ele><time>2026-03-22T14:30:24.788Z</time></trkpt><trkpt lat="37.5796283" lon="15.04925"><ele>448.0</ele><time>2026-03-22T14:30:25.789Z</time></trkpt><trkpt lat="37.5797433" lon="15.0493067"><ele>449.75</ele><time>2026-03-22T14:30:26.788Z</time></trkpt><trkpt lat="37.5798683" lon="15.0493817"><ele>451.5</ele><time>2026-03-22T14:30:27.788Z</time></trkpt><trkpt lat="37.57999" lon="15.049455"><ele>453.25</ele><time>2026-03-22T14:30:28.788Z</time></trkpt><trkpt lat="37.5801033" lon="15.049535"><ele>455.0</ele><time>2026-03-22T14:30:29.788Z</time></trkpt><trkpt lat="37.5802167" lon="15.0496167"><ele>455.0</ele><time>2026-03-22T14:30:30.788Z</time></trkpt><trkpt lat="37.5803317" lon="15.0497017"><ele>455.0</ele><time>2026-03-22T14:30:31.789Z</time></trkpt><trkpt lat="37.5804417" lon="15.0497917"><ele>455.0</ele><time>2026-03-22T14:30:32.789Z</time></trkpt><trkpt lat="37.5805717" lon="15.0498667"><ele>455.0</ele><time>2026-03-22T14:30:33.789Z</time></trkpt><trkpt lat="37.5807017" lon="15.04993"><ele>456.5</ele><time>2026-03-22T14:30:34.788Z</time></trkpt><trkpt lat="37.5808317" lon="15.0499783"><ele>458.0</ele><time>2026-03-22T14:30:35.788Z</time></trkpt><trkpt lat="37.5809783" lon="15.05"><ele>459.5</ele><time>2026-03-22T14:30:36.789Z</time></trkpt><trkpt lat="37.5811317" lon="15.0500133"><ele>461.0</ele><time>2026-03-22T14:30:37.788Z</time></trkpt><trkpt lat="37.581285" lon="15.0500133"><ele>463.3333333333333</ele><time>2026-03-22T14:30:38.789Z</time></trkpt><trkpt lat="37.581445" lon="15.0500167"><ele>465.66666666666663</ele><time>2026-03-22T14:30:39.788Z</time></trkpt><trkpt lat="37.5816017" lon="15.0500217"><ele>468.0</ele><time>2026-03-22T14:30:40.789Z</time></trkpt><trkpt lat="37.5817683" lon="15.05002"><ele>468.0</ele><time>2026-03-22T14:30:41.788Z</time></trkpt><trkpt lat="37.58194" lon="15.050015"><ele>468.0</ele><time>2026-03-22T14:30:42.788Z</time></trkpt><trkpt lat="37.5821117" lon="15.050015"><ele>468.0</ele><time>2026-03-22T14:30:43.789Z</time></trkpt><trkpt lat="37.5822783" lon="15.0500167"><ele>469.33333333333337</ele><time>2026-03-22T14:30:44.789Z</time></trkpt><trkpt lat="37.58245" lon="15.0500117"><ele>470.6666666666667</ele><time>2026-03-22T14:30:45.788Z</time></trkpt><trkpt lat="37.5826217" lon="15.05001"><ele>472.0</ele><time>2026-03-22T14:30:46.789Z</time></trkpt><trkpt lat="37.5827917" lon="15.05001"><ele>472.25</ele><time>2026-03-22T14:30:47.789Z</time></trkpt><trkpt lat="37.582945" lon="15.0500083"><ele>472.5</ele><time>2026-03-22T14:30:48.788Z</time></trkpt><trkpt lat="37.583085" lon="15.05001"><ele>472.75</ele><time>2026-03-22T14:30:49.788Z</time></trkpt><trkpt lat="37.58322" lon="15.05001"><ele>473.0</ele><time>2026-03-22T14:30:50.788Z</time></trkpt><trkpt lat="37.5833383" lon="15.0500167"><ele>472.99999999999994</ele><time>2026-03-22T14:30:51.788Z</time></trkpt><trkpt lat="37.5834467" lon="15.0500333"><ele>473.0</ele><time>2026-03-22T14:30:52.789Z</time></trkpt><trkpt lat="37.5835367" lon="15.0500517"><ele>473.0</ele><time>2026-03-22T14:30:53.788Z</time></trkpt><trkpt lat="37.5836017" lon="15.0500733"><ele>473.0</ele><time>2026-03-22T14:30:54.788Z</time></trkpt><trkpt lat="37.5836717" lon="15.05012"><ele>472.99999999999994</ele><time>2026-03-22T14:30:56.789Z</time></trkpt><trkpt lat="37.5837383" lon="15.0502033"><ele>473.0</ele><time>2026-03-22T14:30:58.789Z</time></trkpt><trkpt lat="37.58379" lon="15.0502717"><ele>474.16666666666663</ele><time>2026-03-22T14:30:59.789Z</time></trkpt><trkpt lat="37.583855" lon="15.05033"><ele>475.3333333333333</ele><time>2026-03-22T14:31:00.789Z</time></trkpt><trkpt lat="37.583925" lon="15.05036"><ele>476.5</ele><time>2026-03-22T14:31:01.788Z</time></trkpt><trkpt lat="37.5840033" lon="15.0503533"><ele>477.66666666666663</ele><time>2026-03-22T14:31:02.788Z</time></trkpt><trkpt lat="37.5840783" lon="15.0503083"><ele>478.8333333333333</ele><time>2026-03-22T14:31:03.789Z</time></trkpt><trkpt lat="37.584155" lon="15.0502333"><ele>480.0</ele><time>2026-03-22T14:31:04.789Z</time></trkpt><trkpt lat="37.5842267" lon="15.0501583"><ele>480.0</ele><time>2026-03-22T14:31:05.789Z</time></trkpt><trkpt lat="37.5843017" lon="15.0500933"><ele>480.0</ele><time>2026-03-22T14:31:06.789Z</time></trkpt><trkpt lat="37.5843867" lon="15.0500483"><ele>480.0</ele><time>2026-03-22T14:31:07.788Z</time></trkpt><trkpt lat="37.58448" lon="15.0500367"><ele>480.0</ele><time>2026-03-22T14:31:08.789Z</time></trkpt><trkpt lat="37.5845867" lon="15.05004"><ele>480.0</ele><time>2026-03-22T14:31:09.788Z</time></trkpt><trkpt lat="37.5847" lon="15.050045"><ele>481.0</ele><time>2026-03-22T14:31:10.788Z</time></trkpt><trkpt lat="37.5848183" lon="15.050045"><ele>482.0</ele><time>2026-03-22T14:31:11.789Z</time></trkpt><trkpt lat="37.58494" lon="15.050045"><ele>483.0</ele><time>2026-03-22T14:31:12.789Z</time></trkpt><trkpt lat="37.585065" lon="15.0500367"><ele>484.0</ele><time>2026-03-22T14:31:13.788Z</time></trkpt><trkpt lat="37.58519" lon="15.0500283"><ele>484.0</ele><time>2026-03-22T14:31:14.789Z</time></trkpt><trkpt lat="37.58532" lon="15.05002"><ele>484.0</ele><time>2026-03-22T14:31:15.789Z</time></trkpt><trkpt lat="37.5854483" lon="15.0500033"><ele>484.0</ele><time>2026-03-22T14:31:16.789Z</time></trkpt><trkpt lat="37.5855833" lon="15.0499867"><ele>484.0</ele><time>2026-03-22T14:31:17.788Z</time></trkpt><trkpt lat="37.585715" lon="15.04998"><ele>485.5</ele><time>2026-03-22T14:31:18.788Z</time></trkpt><trkpt lat="37.5858483" lon="15.0499683"><ele>487.0</ele><time>2026-03-22T14:31:19.788Z</time></trkpt><trkpt lat="37.5859717" lon="15.0499533"><ele>488.5</ele><time>2026-03-22T14:31:20.788Z</time></trkpt><trkpt lat="37.5860933" lon="15.0499117"><ele>490.0</ele><time>2026-03-22T14:31:21.789Z</time></trkpt><trkpt lat="37.58621" lon="15.0498467"><ele>491.5</ele><time>2026-03-22T14:31:22.789Z</time></trkpt><trkpt lat="37.5863217" lon="15.04976"><ele>493.0</ele><time>2026-03-22T14:31:23.788Z</time></trkpt><trkpt lat="37.58643" lon="15.0496617"><ele>494.5</ele><time>2026-03-22T14:31:24.789Z</time></trkpt><trkpt lat="37.5865283" lon="15.04957"><ele>496.0</ele><time>2026-03-22T14:31:25.788Z</time></trkpt><trkpt lat="37.5866167" lon="15.0495"><ele>496.0</ele><time>2026-03-22T14:31:26.789Z</time></trkpt><trkpt lat="37.586695" lon="15.0494367"><ele>496.0</ele><time>2026-03-22T14:31:27.788Z</time></trkpt><trkpt lat="37.5867667" lon="15.049365"><ele>496.0</ele><time>2026-03-22T14:31:28.788Z</time></trkpt><trkpt lat="37.5868417" lon="15.0492917"><ele>496.0</ele><time>2026-03-22T14:31:29.789Z</time></trkpt><trkpt lat="37.58692" lon="15.0492133"><ele>496.0</ele><time>2026-03-22T14:31:30.788Z</time></trkpt><trkpt lat="37.5870017" lon="15.0491333"><ele>497.4</ele><time>2026-03-22T14:31:31.789Z</time></trkpt><trkpt lat="37.5870833" lon="15.04906"><ele>498.8</ele><time>2026-03-22T14:31:32.789Z</time></trkpt><trkpt lat="37.5871667" lon="15.0489917"><ele>500.19999999999993</ele><time>2026-03-22T14:31:33.788Z</time></trkpt><trkpt lat="37.58725" lon="15.0489167"><ele>501.59999999999997</ele><time>2026-03-22T14:31:34.789Z</time></trkpt><trkpt lat="37.5873417" lon="15.04884"><ele>503.0</ele><time>2026-03-22T14:31:35.789Z</time></trkpt><trkpt lat="37.587435" lon="15.0487533"><ele>503.0</ele><time>2026-03-22T14:31:36.788Z</time></trkpt><trkpt lat="37.5875283" lon="15.0486733"><ele>502.99999999999994</ele><time>2026-03-22T14:31:37.789Z</time></trkpt><trkpt lat="37.58762" lon="15.0485933"><ele>502.99999999999994</ele><time>2026-03-22T14:31:38.788Z</time></trkpt><trkpt lat="37.587715" lon="15.0485267"><ele>503.0</ele><time>2026-03-22T14:31:39.789Z</time></trkpt><trkpt lat="37.58781" lon="15.0484817"><ele>503.0</ele><time>2026-03-22T14:31:40.788Z</time></trkpt><trkpt lat="37.5879183" lon="15.04845"><ele>503.4</ele><time>2026-03-22T14:31:41.789Z</time></trkpt><trkpt lat="37.588025" lon="15.0484383"><ele>503.79999999999995</ele><time>2026-03-22T14:31:42.789Z</time></trkpt><trkpt lat="37.5881367" lon="15.0484283"><ele>504.2</ele><time>2026-03-22T14:31:43.788Z</time></trkpt><trkpt lat="37.5882417" lon="15.04842"><ele>504.6</ele><time>2026-03-22T14:31:44.789Z</time></trkpt><trkpt lat="37.5883433" lon="15.04841"><ele>505.0</ele><time>2026-03-22T14:31:45.788Z</time></trkpt><trkpt lat="37.588445" lon="15.0484017"><ele>505.00000000000006</ele><time>2026-03-22T14:31:46.788Z</time></trkpt><trkpt lat="37.5885417" lon="15.048395"><ele>505.0</ele><time>2026-03-22T14:31:47.788Z</time></trkpt><trkpt lat="37.588625" lon="15.0484033"><ele>505.0</ele><time>2026-03-22T14:31:48.789Z</time></trkpt><trkpt lat="37.588705" lon="15.0484267"><ele>505.0</ele><time>2026-03-22T14:31:49.789Z</time></trkpt><trkpt lat="37.5887817" lon="15.0484767"><ele>505.00000000000006</ele><time>2026-03-22T14:31:50.789Z</time></trkpt><trkpt lat="37.58885" lon="15.0485517"><ele>505.0</ele><time>2026-03-22T14:31:51.788Z</time></trkpt><trkpt lat="37.588925" lon="15.04864"><ele>506.0</ele><time>2026-03-22T14:31:52.789Z</time></trkpt><trkpt lat="37.5890067" lon="15.0487367"><ele>507.0</ele><time>2026-03-22T14:31:53.789Z</time></trkpt><trkpt lat="37.58909" lon="15.0488367"><ele>508.0</ele><time>2026-03-22T14:31:54.788Z</time></trkpt><trkpt lat="37.5891767" lon="15.0489317"><ele>509.0</ele><time>2026-03-22T14:31:55.788Z</time></trkpt><trkpt lat="37.5892633" lon="15.049035"><ele>508.5</ele><time>2026-03-22T14:31:56.788Z</time></trkpt><trkpt lat="37.5893533" lon="15.0491317"><ele>508.0</ele><time>2026-03-22T14:31:57.788Z</time></trkpt><trkpt lat="37.5894417" lon="15.0492367"><ele>507.5</ele><time>2026-03-22T14:31:58.789Z</time></trkpt><trkpt lat="37.5895267" lon="15.0493333"><ele>507.0</ele><time>2026-03-22T14:31:59.789Z</time></trkpt><trkpt lat="37.589605" lon="15.0494217"><ele>506.8333333333333</ele><time>2026-03-22T14:32:00.789Z</time></trkpt><trkpt lat="37.5896933" lon="15.0494867"><ele>506.66666666666663</ele><time>2026-03-22T14:32:01.789Z</time></trkpt><trkpt lat="37.5897783" lon="15.0495517"><ele>506.5</ele><time>2026-03-22T14:32:02.788Z</time></trkpt><trkpt lat="37.5898517" lon="15.04959"><ele>506.3333333333333</ele><time>2026-03-22T14:32:03.788Z</time></trkpt><trkpt lat="37.5899067" lon="15.0496683"><ele>506.16666666666663</ele><time>2026-03-22T14:32:05.788Z</time></trkpt><trkpt lat="37.5898583" lon="15.04974"><ele>506.0</ele><time>2026-03-22T14:32:23.789Z</time></trkpt><trkpt lat="37.5898033" lon="15.049805"><ele>505.99999999999994</ele><time>2026-03-22T14:32:25.788Z</time></trkpt><trkpt lat="37.5897617" lon="15.0498683"><ele>506.0</ele><time>2026-03-22T14:32:27.788Z</time></trkpt><trkpt lat="37.58979" lon="15.04996"><ele>506.0</ele><time>2026-03-22T14:32:30.789Z</time></trkpt><trkpt lat="37.589835" lon="15.0500367"><ele>506.0</ele><time>2026-03-22T14:32:32.788Z</time></trkpt><trkpt lat="37.5898583" lon="15.0501433"><ele>505.99999999999994</ele><time>2026-03-22T14:32:34.789Z</time></trkpt><trkpt lat="37.5898567" lon="15.0502783"><ele>506.0</ele><time>2026-03-22T14:32:36.788Z</time></trkpt><trkpt lat="37.5898267" lon="15.05037"><ele>511.0</ele><time>2026-03-22T14:32:38.789Z</time></trkpt></trkseg></trk></gpx>